<?xml version="1.0" encoding="UTF-8" standalone="no" ?>
<gpx xmlns="http://www.topografix.com/GPX/1/1" xmlns:xsi="http://www.w3.org/2001/XMLSchema-instance" xsi:schemaLocation="http://www.topografix.com/GPX/1/1 http://www.topografix.com/GPX/1/1/gpx.xsd" version="1.1" creator="VisuGPX - https://www.visugpx.com">
  <metadata>
    <name>2010 Trail du Grand Serre</name>
    <desc><![CDATA[Trail du Grand Serre parcours 2010]]></desc>
  </metadata>
  <trk>
    <name><![CDATA[2010 Trail du Grand Serre_1]]></name>
    <trkseg>
      <trkpt lat="45.02457" lon="5.86135">
        <ele>1377</ele>
        <time>2010-07-04T07:11:46Z</time>
      </trkpt>
      <trkpt lat="45.02439" lon="5.86164">
        <ele>1375</ele>
        <time>2010-07-04T07:11:56Z</time>
      </trkpt>
      <trkpt lat="45.02436" lon="5.86168">
        <ele>1375</ele>
        <time>2010-07-04T07:11:57Z</time>
      </trkpt>
      <trkpt lat="45.02433" lon="5.86172">
        <ele>1375</ele>
        <time>2010-07-04T07:11:58Z</time>
      </trkpt>
      <trkpt lat="45.02431" lon="5.86176">
        <ele>1374</ele>
        <time>2010-07-04T07:11:59Z</time>
      </trkpt>
      <trkpt lat="45.02428" lon="5.8618">
        <ele>1374</ele>
        <time>2010-07-04T07:12:00Z</time>
      </trkpt>
      <trkpt lat="45.02426" lon="5.86185">
        <ele>1374</ele>
        <time>2010-07-04T07:12:01Z</time>
      </trkpt>
      <trkpt lat="45.02424" lon="5.86189">
        <ele>1374</ele>
        <time>2010-07-04T07:12:02Z</time>
      </trkpt>
      <trkpt lat="45.02422" lon="5.86192">
        <ele>1374</ele>
        <time>2010-07-04T07:12:03Z</time>
      </trkpt>
      <trkpt lat="45.02421" lon="5.86197">
        <ele>1374</ele>
        <time>2010-07-04T07:12:04Z</time>
      </trkpt>
      <trkpt lat="45.02418" lon="5.86201">
        <ele>1374</ele>
        <time>2010-07-04T07:12:05Z</time>
      </trkpt>
      <trkpt lat="45.02416" lon="5.86205">
        <ele>1374</ele>
        <time>2010-07-04T07:12:06Z</time>
      </trkpt>
      <trkpt lat="45.02414" lon="5.8621">
        <ele>1374</ele>
        <time>2010-07-04T07:12:07Z</time>
      </trkpt>
      <trkpt lat="45.02412" lon="5.86214">
        <ele>1374</ele>
        <time>2010-07-04T07:12:08Z</time>
      </trkpt>
      <trkpt lat="45.0241" lon="5.86218">
        <ele>1374</ele>
        <time>2010-07-04T07:12:09Z</time>
      </trkpt>
      <trkpt lat="45.02408" lon="5.86222">
        <ele>1374</ele>
        <time>2010-07-04T07:12:10Z</time>
      </trkpt>
      <trkpt lat="45.02406" lon="5.86226">
        <ele>1374</ele>
        <time>2010-07-04T07:12:11Z</time>
      </trkpt>
      <trkpt lat="45.02404" lon="5.8623">
        <ele>1374</ele>
        <time>2010-07-04T07:12:12Z</time>
      </trkpt>
      <trkpt lat="45.02401" lon="5.86234">
        <ele>1374</ele>
        <time>2010-07-04T07:12:13Z</time>
      </trkpt>
      <trkpt lat="45.02399" lon="5.86238">
        <ele>1374</ele>
        <time>2010-07-04T07:12:14Z</time>
      </trkpt>
      <trkpt lat="45.02396" lon="5.86241">
        <ele>1374</ele>
        <time>2010-07-04T07:12:15Z</time>
      </trkpt>
      <trkpt lat="45.02394" lon="5.86245">
        <ele>1374</ele>
        <time>2010-07-04T07:12:16Z</time>
      </trkpt>
      <trkpt lat="45.02392" lon="5.86249">
        <ele>1374</ele>
        <time>2010-07-04T07:12:17Z</time>
      </trkpt>
      <trkpt lat="45.02389" lon="5.86252">
        <ele>1374</ele>
        <time>2010-07-04T07:12:18Z</time>
      </trkpt>
      <trkpt lat="45.02387" lon="5.86256">
        <ele>1374</ele>
        <time>2010-07-04T07:12:19Z</time>
      </trkpt>
      <trkpt lat="45.02384" lon="5.8626">
        <ele>1374</ele>
        <time>2010-07-04T07:12:20Z</time>
      </trkpt>
      <trkpt lat="45.02382" lon="5.86264">
        <ele>1374</ele>
        <time>2010-07-04T07:12:21Z</time>
      </trkpt>
      <trkpt lat="45.02379" lon="5.86268">
        <ele>1374</ele>
        <time>2010-07-04T07:12:22Z</time>
      </trkpt>
      <trkpt lat="45.02377" lon="5.86272">
        <ele>1374</ele>
        <time>2010-07-04T07:12:23Z</time>
      </trkpt>
      <trkpt lat="45.02375" lon="5.86275">
        <ele>1374</ele>
        <time>2010-07-04T07:12:24Z</time>
      </trkpt>
      <trkpt lat="45.02372" lon="5.86279">
        <ele>1374</ele>
        <time>2010-07-04T07:12:25Z</time>
      </trkpt>
      <trkpt lat="45.0237" lon="5.86283">
        <ele>1374</ele>
        <time>2010-07-04T07:12:26Z</time>
      </trkpt>
      <trkpt lat="45.02368" lon="5.86287">
        <ele>1374</ele>
        <time>2010-07-04T07:12:27Z</time>
      </trkpt>
      <trkpt lat="45.02365" lon="5.86291">
        <ele>1374</ele>
        <time>2010-07-04T07:12:28Z</time>
      </trkpt>
      <trkpt lat="45.02362" lon="5.86295">
        <ele>1374</ele>
        <time>2010-07-04T07:12:29Z</time>
      </trkpt>
      <trkpt lat="45.02359" lon="5.863">
        <ele>1373</ele>
        <time>2010-07-04T07:12:30Z</time>
      </trkpt>
      <trkpt lat="45.02357" lon="5.86304">
        <ele>1373</ele>
        <time>2010-07-04T07:12:31Z</time>
      </trkpt>
      <trkpt lat="45.02354" lon="5.86308">
        <ele>1373</ele>
        <time>2010-07-04T07:12:32Z</time>
      </trkpt>
      <trkpt lat="45.02351" lon="5.86312">
        <ele>1373</ele>
        <time>2010-07-04T07:12:33Z</time>
      </trkpt>
      <trkpt lat="45.02349" lon="5.86317">
        <ele>1373</ele>
        <time>2010-07-04T07:12:34Z</time>
      </trkpt>
      <trkpt lat="45.02347" lon="5.86321">
        <ele>1373</ele>
        <time>2010-07-04T07:12:35Z</time>
      </trkpt>
      <trkpt lat="45.02344" lon="5.86326">
        <ele>1373</ele>
        <time>2010-07-04T07:12:36Z</time>
      </trkpt>
      <trkpt lat="45.02342" lon="5.86331">
        <ele>1373</ele>
        <time>2010-07-04T07:12:37Z</time>
      </trkpt>
      <trkpt lat="45.02339" lon="5.86335">
        <ele>1373</ele>
        <time>2010-07-04T07:12:38Z</time>
      </trkpt>
      <trkpt lat="45.02337" lon="5.8634">
        <ele>1373</ele>
        <time>2010-07-04T07:12:39Z</time>
      </trkpt>
      <trkpt lat="45.02334" lon="5.86344">
        <ele>1373</ele>
        <time>2010-07-04T07:12:40Z</time>
      </trkpt>
      <trkpt lat="45.02332" lon="5.86348">
        <ele>1373</ele>
        <time>2010-07-04T07:12:41Z</time>
      </trkpt>
      <trkpt lat="45.0233" lon="5.86352">
        <ele>1373</ele>
        <time>2010-07-04T07:12:42Z</time>
      </trkpt>
      <trkpt lat="45.02327" lon="5.86357">
        <ele>1373</ele>
        <time>2010-07-04T07:12:43Z</time>
      </trkpt>
      <trkpt lat="45.02324" lon="5.86361">
        <ele>1373</ele>
        <time>2010-07-04T07:12:44Z</time>
      </trkpt>
      <trkpt lat="45.02322" lon="5.86366">
        <ele>1373</ele>
        <time>2010-07-04T07:12:45Z</time>
      </trkpt>
      <trkpt lat="45.02319" lon="5.8637">
        <ele>1373</ele>
        <time>2010-07-04T07:12:46Z</time>
      </trkpt>
      <trkpt lat="45.02316" lon="5.86374">
        <ele>1373</ele>
        <time>2010-07-04T07:12:47Z</time>
      </trkpt>
      <trkpt lat="45.02313" lon="5.86378">
        <ele>1373</ele>
        <time>2010-07-04T07:12:48Z</time>
      </trkpt>
      <trkpt lat="45.02312" lon="5.86382">
        <ele>1373</ele>
        <time>2010-07-04T07:12:49Z</time>
      </trkpt>
      <trkpt lat="45.02311" lon="5.86385">
        <ele>1373</ele>
        <time>2010-07-04T07:12:50Z</time>
      </trkpt>
      <trkpt lat="45.02312" lon="5.86387">
        <ele>1372</ele>
        <time>2010-07-04T07:12:51Z</time>
      </trkpt>
      <trkpt lat="45.02314" lon="5.86387">
        <ele>1372</ele>
        <time>2010-07-04T07:12:52Z</time>
      </trkpt>
      <trkpt lat="45.02317" lon="5.86386">
        <ele>1372</ele>
        <time>2010-07-04T07:12:53Z</time>
      </trkpt>
      <trkpt lat="45.0232" lon="5.86384">
        <ele>1371</ele>
        <time>2010-07-04T07:12:54Z</time>
      </trkpt>
      <trkpt lat="45.02323" lon="5.86381">
        <ele>1371</ele>
        <time>2010-07-04T07:12:55Z</time>
      </trkpt>
      <trkpt lat="45.02326" lon="5.86377">
        <ele>1370</ele>
        <time>2010-07-04T07:12:56Z</time>
      </trkpt>
      <trkpt lat="45.0233" lon="5.86374">
        <ele>1370</ele>
        <time>2010-07-04T07:12:57Z</time>
      </trkpt>
      <trkpt lat="45.02333" lon="5.86371">
        <ele>1370</ele>
        <time>2010-07-04T07:12:58Z</time>
      </trkpt>
      <trkpt lat="45.02335" lon="5.86367">
        <ele>1370</ele>
        <time>2010-07-04T07:12:59Z</time>
      </trkpt>
      <trkpt lat="45.02338" lon="5.86363">
        <ele>1370</ele>
        <time>2010-07-04T07:13:00Z</time>
      </trkpt>
      <trkpt lat="45.02341" lon="5.86359">
        <ele>1370</ele>
        <time>2010-07-04T07:13:01Z</time>
      </trkpt>
      <trkpt lat="45.02344" lon="5.86355">
        <ele>1370</ele>
        <time>2010-07-04T07:13:02Z</time>
      </trkpt>
      <trkpt lat="45.02346" lon="5.8635">
        <ele>1370</ele>
        <time>2010-07-04T07:13:03Z</time>
      </trkpt>
      <trkpt lat="45.02348" lon="5.86346">
        <ele>1370</ele>
        <time>2010-07-04T07:13:04Z</time>
      </trkpt>
      <trkpt lat="45.0235" lon="5.86342">
        <ele>1370</ele>
        <time>2010-07-04T07:13:05Z</time>
      </trkpt>
      <trkpt lat="45.02353" lon="5.86338">
        <ele>1370</ele>
        <time>2010-07-04T07:13:06Z</time>
      </trkpt>
      <trkpt lat="45.02355" lon="5.86333">
        <ele>1370</ele>
        <time>2010-07-04T07:13:07Z</time>
      </trkpt>
      <trkpt lat="45.02356" lon="5.86328">
        <ele>1370</ele>
        <time>2010-07-04T07:13:08Z</time>
      </trkpt>
      <trkpt lat="45.02358" lon="5.86323">
        <ele>1370</ele>
        <time>2010-07-04T07:13:09Z</time>
      </trkpt>
      <trkpt lat="45.0236" lon="5.86318">
        <ele>1370</ele>
        <time>2010-07-04T07:13:10Z</time>
      </trkpt>
      <trkpt lat="45.02362" lon="5.86313">
        <ele>1370</ele>
        <time>2010-07-04T07:13:11Z</time>
      </trkpt>
      <trkpt lat="45.02364" lon="5.86309">
        <ele>1370</ele>
        <time>2010-07-04T07:13:12Z</time>
      </trkpt>
      <trkpt lat="45.02366" lon="5.86304">
        <ele>1370</ele>
        <time>2010-07-04T07:13:13Z</time>
      </trkpt>
      <trkpt lat="45.02367" lon="5.86299">
        <ele>1370</ele>
        <time>2010-07-04T07:13:14Z</time>
      </trkpt>
      <trkpt lat="45.02369" lon="5.86295">
        <ele>1370</ele>
        <time>2010-07-04T07:13:15Z</time>
      </trkpt>
      <trkpt lat="45.02371" lon="5.8629">
        <ele>1371</ele>
        <time>2010-07-04T07:13:16Z</time>
      </trkpt>
      <trkpt lat="45.02373" lon="5.86286">
        <ele>1371</ele>
        <time>2010-07-04T07:13:17Z</time>
      </trkpt>
      <trkpt lat="45.02375" lon="5.86282">
        <ele>1372</ele>
        <time>2010-07-04T07:13:18Z</time>
      </trkpt>
      <trkpt lat="45.02377" lon="5.86278">
        <ele>1372</ele>
        <time>2010-07-04T07:13:19Z</time>
      </trkpt>
      <trkpt lat="45.02379" lon="5.86274">
        <ele>1373</ele>
        <time>2010-07-04T07:13:20Z</time>
      </trkpt>
      <trkpt lat="45.02381" lon="5.8627">
        <ele>1373</ele>
        <time>2010-07-04T07:13:21Z</time>
      </trkpt>
      <trkpt lat="45.02383" lon="5.86265">
        <ele>1373</ele>
        <time>2010-07-04T07:13:22Z</time>
      </trkpt>
      <trkpt lat="45.02385" lon="5.86261">
        <ele>1374</ele>
        <time>2010-07-04T07:13:23Z</time>
      </trkpt>
      <trkpt lat="45.02388" lon="5.86258">
        <ele>1374</ele>
        <time>2010-07-04T07:13:24Z</time>
      </trkpt>
      <trkpt lat="45.0239" lon="5.86254">
        <ele>1374</ele>
        <time>2010-07-04T07:13:25Z</time>
      </trkpt>
      <trkpt lat="45.02393" lon="5.86251">
        <ele>1375</ele>
        <time>2010-07-04T07:13:26Z</time>
      </trkpt>
      <trkpt lat="45.02395" lon="5.86248">
        <ele>1375</ele>
        <time>2010-07-04T07:13:27Z</time>
      </trkpt>
      <trkpt lat="45.02398" lon="5.86244">
        <ele>1376</ele>
        <time>2010-07-04T07:13:28Z</time>
      </trkpt>
      <trkpt lat="45.024" lon="5.8624">
        <ele>1376</ele>
        <time>2010-07-04T07:13:29Z</time>
      </trkpt>
      <trkpt lat="45.02403" lon="5.86236">
        <ele>1377</ele>
        <time>2010-07-04T07:13:30Z</time>
      </trkpt>
      <trkpt lat="45.02405" lon="5.86233">
        <ele>1377</ele>
        <time>2010-07-04T07:13:31Z</time>
      </trkpt>
      <trkpt lat="45.02408" lon="5.86228">
        <ele>1377</ele>
        <time>2010-07-04T07:13:32Z</time>
      </trkpt>
      <trkpt lat="45.0241" lon="5.86225">
        <ele>1378</ele>
        <time>2010-07-04T07:13:33Z</time>
      </trkpt>
      <trkpt lat="45.02412" lon="5.86221">
        <ele>1378</ele>
        <time>2010-07-04T07:13:34Z</time>
      </trkpt>
      <trkpt lat="45.02415" lon="5.86217">
        <ele>1378</ele>
        <time>2010-07-04T07:13:35Z</time>
      </trkpt>
      <trkpt lat="45.02417" lon="5.86211">
        <ele>1378</ele>
        <time>2010-07-04T07:13:36Z</time>
      </trkpt>
      <trkpt lat="45.02419" lon="5.86206">
        <ele>1378</ele>
        <time>2010-07-04T07:13:37Z</time>
      </trkpt>
      <trkpt lat="45.02421" lon="5.86202">
        <ele>1378</ele>
        <time>2010-07-04T07:13:38Z</time>
      </trkpt>
      <trkpt lat="45.02424" lon="5.86199">
        <ele>1378</ele>
        <time>2010-07-04T07:13:39Z</time>
      </trkpt>
      <trkpt lat="45.02426" lon="5.86195">
        <ele>1378</ele>
        <time>2010-07-04T07:13:40Z</time>
      </trkpt>
      <trkpt lat="45.02428" lon="5.86192">
        <ele>1378</ele>
        <time>2010-07-04T07:13:41Z</time>
      </trkpt>
      <trkpt lat="45.02431" lon="5.86188">
        <ele>1378</ele>
        <time>2010-07-04T07:13:42Z</time>
      </trkpt>
      <trkpt lat="45.02433" lon="5.86185">
        <ele>1378</ele>
        <time>2010-07-04T07:13:43Z</time>
      </trkpt>
      <trkpt lat="45.02436" lon="5.86182">
        <ele>1378</ele>
        <time>2010-07-04T07:13:44Z</time>
      </trkpt>
      <trkpt lat="45.02438" lon="5.86178">
        <ele>1378</ele>
        <time>2010-07-04T07:13:45Z</time>
      </trkpt>
      <trkpt lat="45.0244" lon="5.86173">
        <ele>1378</ele>
        <time>2010-07-04T07:13:46Z</time>
      </trkpt>
      <trkpt lat="45.02442" lon="5.86169">
        <ele>1378</ele>
        <time>2010-07-04T07:13:47Z</time>
      </trkpt>
      <trkpt lat="45.02445" lon="5.86165">
        <ele>1378</ele>
        <time>2010-07-04T07:13:48Z</time>
      </trkpt>
      <trkpt lat="45.02447" lon="5.86161">
        <ele>1378</ele>
        <time>2010-07-04T07:13:49Z</time>
      </trkpt>
      <trkpt lat="45.0245" lon="5.86158">
        <ele>1378</ele>
        <time>2010-07-04T07:13:50Z</time>
      </trkpt>
      <trkpt lat="45.02452" lon="5.86154">
        <ele>1378</ele>
        <time>2010-07-04T07:13:51Z</time>
      </trkpt>
      <trkpt lat="45.02454" lon="5.8615">
        <ele>1378</ele>
        <time>2010-07-04T07:13:52Z</time>
      </trkpt>
      <trkpt lat="45.02456" lon="5.86146">
        <ele>1378</ele>
        <time>2010-07-04T07:13:53Z</time>
      </trkpt>
      <trkpt lat="45.02458" lon="5.86141">
        <ele>1378</ele>
        <time>2010-07-04T07:13:54Z</time>
      </trkpt>
      <trkpt lat="45.02459" lon="5.86136">
        <ele>1378</ele>
        <time>2010-07-04T07:13:55Z</time>
      </trkpt>
      <trkpt lat="45.02461" lon="5.86132">
        <ele>1378</ele>
        <time>2010-07-04T07:13:56Z</time>
      </trkpt>
      <trkpt lat="45.02464" lon="5.86128">
        <ele>1378</ele>
        <time>2010-07-04T07:13:57Z</time>
      </trkpt>
      <trkpt lat="45.02466" lon="5.86125">
        <ele>1378</ele>
        <time>2010-07-04T07:13:58Z</time>
      </trkpt>
      <trkpt lat="45.02468" lon="5.86122">
        <ele>1378</ele>
        <time>2010-07-04T07:13:59Z</time>
      </trkpt>
      <trkpt lat="45.02471" lon="5.86118">
        <ele>1378</ele>
        <time>2010-07-04T07:14:00Z</time>
      </trkpt>
      <trkpt lat="45.02473" lon="5.86114">
        <ele>1378</ele>
        <time>2010-07-04T07:14:01Z</time>
      </trkpt>
      <trkpt lat="45.02475" lon="5.86111">
        <ele>1378</ele>
        <time>2010-07-04T07:14:02Z</time>
      </trkpt>
      <trkpt lat="45.02477" lon="5.86107">
        <ele>1378</ele>
        <time>2010-07-04T07:14:03Z</time>
      </trkpt>
      <trkpt lat="45.02479" lon="5.86104">
        <ele>1378</ele>
        <time>2010-07-04T07:14:04Z</time>
      </trkpt>
      <trkpt lat="45.02481" lon="5.861">
        <ele>1378</ele>
        <time>2010-07-04T07:14:05Z</time>
      </trkpt>
      <trkpt lat="45.02484" lon="5.86097">
        <ele>1378</ele>
        <time>2010-07-04T07:14:06Z</time>
      </trkpt>
      <trkpt lat="45.02487" lon="5.86096">
        <ele>1378</ele>
        <time>2010-07-04T07:14:07Z</time>
      </trkpt>
      <trkpt lat="45.02491" lon="5.86097">
        <ele>1378</ele>
        <time>2010-07-04T07:14:08Z</time>
      </trkpt>
      <trkpt lat="45.02494" lon="5.86098">
        <ele>1378</ele>
        <time>2010-07-04T07:14:09Z</time>
      </trkpt>
      <trkpt lat="45.02498" lon="5.86099">
        <ele>1378</ele>
        <time>2010-07-04T07:14:10Z</time>
      </trkpt>
      <trkpt lat="45.02501" lon="5.861">
        <ele>1378</ele>
        <time>2010-07-04T07:14:11Z</time>
      </trkpt>
      <trkpt lat="45.02505" lon="5.86103">
        <ele>1378</ele>
        <time>2010-07-04T07:14:12Z</time>
      </trkpt>
      <trkpt lat="45.02509" lon="5.86104">
        <ele>1378</ele>
        <time>2010-07-04T07:14:13Z</time>
      </trkpt>
      <trkpt lat="45.02512" lon="5.86106">
        <ele>1378</ele>
        <time>2010-07-04T07:14:14Z</time>
      </trkpt>
      <trkpt lat="45.02516" lon="5.86107">
        <ele>1378</ele>
        <time>2010-07-04T07:14:15Z</time>
      </trkpt>
      <trkpt lat="45.0252" lon="5.86109">
        <ele>1378</ele>
        <time>2010-07-04T07:14:16Z</time>
      </trkpt>
      <trkpt lat="45.02523" lon="5.8611">
        <ele>1378</ele>
        <time>2010-07-04T07:14:17Z</time>
      </trkpt>
      <trkpt lat="45.02526" lon="5.86112">
        <ele>1378</ele>
        <time>2010-07-04T07:14:18Z</time>
      </trkpt>
      <trkpt lat="45.0253" lon="5.86114">
        <ele>1378</ele>
        <time>2010-07-04T07:14:19Z</time>
      </trkpt>
      <trkpt lat="45.02533" lon="5.86116">
        <ele>1378</ele>
        <time>2010-07-04T07:14:20Z</time>
      </trkpt>
      <trkpt lat="45.02537" lon="5.86118">
        <ele>1378</ele>
        <time>2010-07-04T07:14:21Z</time>
      </trkpt>
      <trkpt lat="45.0254" lon="5.8612">
        <ele>1378</ele>
        <time>2010-07-04T07:14:22Z</time>
      </trkpt>
      <trkpt lat="45.02544" lon="5.86122">
        <ele>1378</ele>
        <time>2010-07-04T07:14:23Z</time>
      </trkpt>
      <trkpt lat="45.02547" lon="5.86124">
        <ele>1378</ele>
        <time>2010-07-04T07:14:24Z</time>
      </trkpt>
      <trkpt lat="45.0255" lon="5.86125">
        <ele>1378</ele>
        <time>2010-07-04T07:14:25Z</time>
      </trkpt>
      <trkpt lat="45.02553" lon="5.86127">
        <ele>1378</ele>
        <time>2010-07-04T07:14:26Z</time>
      </trkpt>
      <trkpt lat="45.02556" lon="5.8613">
        <ele>1378</ele>
        <time>2010-07-04T07:14:27Z</time>
      </trkpt>
      <trkpt lat="45.02559" lon="5.86132">
        <ele>1378</ele>
        <time>2010-07-04T07:14:28Z</time>
      </trkpt>
      <trkpt lat="45.02562" lon="5.86135">
        <ele>1378</ele>
        <time>2010-07-04T07:14:29Z</time>
      </trkpt>
      <trkpt lat="45.02565" lon="5.86138">
        <ele>1378</ele>
        <time>2010-07-04T07:14:30Z</time>
      </trkpt>
      <trkpt lat="45.02567" lon="5.86141">
        <ele>1378</ele>
        <time>2010-07-04T07:14:31Z</time>
      </trkpt>
      <trkpt lat="45.02569" lon="5.86145">
        <ele>1378</ele>
        <time>2010-07-04T07:14:32Z</time>
      </trkpt>
      <trkpt lat="45.02571" lon="5.86148">
        <ele>1378</ele>
        <time>2010-07-04T07:14:33Z</time>
      </trkpt>
      <trkpt lat="45.02573" lon="5.86151">
        <ele>1378</ele>
        <time>2010-07-04T07:14:34Z</time>
      </trkpt>
      <trkpt lat="45.02576" lon="5.86155">
        <ele>1378</ele>
        <time>2010-07-04T07:14:35Z</time>
      </trkpt>
      <trkpt lat="45.02578" lon="5.86158">
        <ele>1378</ele>
        <time>2010-07-04T07:14:36Z</time>
      </trkpt>
      <trkpt lat="45.0258" lon="5.86162">
        <ele>1378</ele>
        <time>2010-07-04T07:14:37Z</time>
      </trkpt>
      <trkpt lat="45.02582" lon="5.86166">
        <ele>1378</ele>
        <time>2010-07-04T07:14:38Z</time>
      </trkpt>
      <trkpt lat="45.02585" lon="5.8617">
        <ele>1378</ele>
        <time>2010-07-04T07:14:39Z</time>
      </trkpt>
      <trkpt lat="45.02587" lon="5.86174">
        <ele>1378</ele>
        <time>2010-07-04T07:14:40Z</time>
      </trkpt>
      <trkpt lat="45.02589" lon="5.86178">
        <ele>1378</ele>
        <time>2010-07-04T07:14:41Z</time>
      </trkpt>
      <trkpt lat="45.02592" lon="5.86181">
        <ele>1378</ele>
        <time>2010-07-04T07:14:42Z</time>
      </trkpt>
      <trkpt lat="45.02594" lon="5.86185">
        <ele>1378</ele>
        <time>2010-07-04T07:14:43Z</time>
      </trkpt>
      <trkpt lat="45.02597" lon="5.86189">
        <ele>1378</ele>
        <time>2010-07-04T07:14:44Z</time>
      </trkpt>
      <trkpt lat="45.026" lon="5.86192">
        <ele>1378</ele>
        <time>2010-07-04T07:14:45Z</time>
      </trkpt>
      <trkpt lat="45.02603" lon="5.86196">
        <ele>1378</ele>
        <time>2010-07-04T07:14:46Z</time>
      </trkpt>
      <trkpt lat="45.02606" lon="5.86199">
        <ele>1378</ele>
        <time>2010-07-04T07:14:47Z</time>
      </trkpt>
      <trkpt lat="45.02609" lon="5.86203">
        <ele>1378</ele>
        <time>2010-07-04T07:14:48Z</time>
      </trkpt>
      <trkpt lat="45.02612" lon="5.86206">
        <ele>1378</ele>
        <time>2010-07-04T07:14:49Z</time>
      </trkpt>
      <trkpt lat="45.02615" lon="5.86209">
        <ele>1378</ele>
        <time>2010-07-04T07:14:50Z</time>
      </trkpt>
      <trkpt lat="45.02618" lon="5.86212">
        <ele>1378</ele>
        <time>2010-07-04T07:14:51Z</time>
      </trkpt>
      <trkpt lat="45.02621" lon="5.86215">
        <ele>1378</ele>
        <time>2010-07-04T07:14:52Z</time>
      </trkpt>
      <trkpt lat="45.02623" lon="5.86218">
        <ele>1378</ele>
        <time>2010-07-04T07:14:53Z</time>
      </trkpt>
      <trkpt lat="45.02626" lon="5.86221">
        <ele>1378</ele>
        <time>2010-07-04T07:14:54Z</time>
      </trkpt>
      <trkpt lat="45.02628" lon="5.86225">
        <ele>1378</ele>
        <time>2010-07-04T07:14:55Z</time>
      </trkpt>
      <trkpt lat="45.02631" lon="5.86227">
        <ele>1378</ele>
        <time>2010-07-04T07:14:56Z</time>
      </trkpt>
      <trkpt lat="45.02633" lon="5.86231">
        <ele>1378</ele>
        <time>2010-07-04T07:14:57Z</time>
      </trkpt>
      <trkpt lat="45.02635" lon="5.86234">
        <ele>1378</ele>
        <time>2010-07-04T07:14:58Z</time>
      </trkpt>
      <trkpt lat="45.02638" lon="5.86237">
        <ele>1378</ele>
        <time>2010-07-04T07:14:59Z</time>
      </trkpt>
      <trkpt lat="45.0264" lon="5.86239">
        <ele>1378</ele>
        <time>2010-07-04T07:15:00Z</time>
      </trkpt>
      <trkpt lat="45.02642" lon="5.86242">
        <ele>1378</ele>
        <time>2010-07-04T07:15:01Z</time>
      </trkpt>
      <trkpt lat="45.02644" lon="5.86246">
        <ele>1378</ele>
        <time>2010-07-04T07:15:02Z</time>
      </trkpt>
      <trkpt lat="45.02646" lon="5.86249">
        <ele>1378</ele>
        <time>2010-07-04T07:15:03Z</time>
      </trkpt>
      <trkpt lat="45.02648" lon="5.86252">
        <ele>1378</ele>
        <time>2010-07-04T07:15:04Z</time>
      </trkpt>
      <trkpt lat="45.0265" lon="5.86255">
        <ele>1378</ele>
        <time>2010-07-04T07:15:05Z</time>
      </trkpt>
      <trkpt lat="45.02652" lon="5.86258">
        <ele>1378</ele>
        <time>2010-07-04T07:15:06Z</time>
      </trkpt>
      <trkpt lat="45.02654" lon="5.86262">
        <ele>1378</ele>
        <time>2010-07-04T07:15:07Z</time>
      </trkpt>
      <trkpt lat="45.02656" lon="5.86266">
        <ele>1378</ele>
        <time>2010-07-04T07:15:08Z</time>
      </trkpt>
      <trkpt lat="45.02659" lon="5.86269">
        <ele>1379</ele>
        <time>2010-07-04T07:15:09Z</time>
      </trkpt>
      <trkpt lat="45.02661" lon="5.86273">
        <ele>1379</ele>
        <time>2010-07-04T07:15:10Z</time>
      </trkpt>
      <trkpt lat="45.02663" lon="5.86276">
        <ele>1379</ele>
        <time>2010-07-04T07:15:11Z</time>
      </trkpt>
      <trkpt lat="45.02666" lon="5.86279">
        <ele>1379</ele>
        <time>2010-07-04T07:15:12Z</time>
      </trkpt>
      <trkpt lat="45.02669" lon="5.86282">
        <ele>1379</ele>
        <time>2010-07-04T07:15:13Z</time>
      </trkpt>
      <trkpt lat="45.02673" lon="5.86283">
        <ele>1379</ele>
        <time>2010-07-04T07:15:14Z</time>
      </trkpt>
      <trkpt lat="45.02676" lon="5.86284">
        <ele>1380</ele>
        <time>2010-07-04T07:15:15Z</time>
      </trkpt>
      <trkpt lat="45.0268" lon="5.86284">
        <ele>1380</ele>
        <time>2010-07-04T07:15:16Z</time>
      </trkpt>
      <trkpt lat="45.02683" lon="5.86284">
        <ele>1380</ele>
        <time>2010-07-04T07:15:17Z</time>
      </trkpt>
      <trkpt lat="45.02687" lon="5.86284">
        <ele>1380</ele>
        <time>2010-07-04T07:15:18Z</time>
      </trkpt>
      <trkpt lat="45.02691" lon="5.86285">
        <ele>1380</ele>
        <time>2010-07-04T07:15:19Z</time>
      </trkpt>
      <trkpt lat="45.02694" lon="5.86286">
        <ele>1380</ele>
        <time>2010-07-04T07:15:20Z</time>
      </trkpt>
      <trkpt lat="45.02698" lon="5.86286">
        <ele>1380</ele>
        <time>2010-07-04T07:15:21Z</time>
      </trkpt>
      <trkpt lat="45.02701" lon="5.86287">
        <ele>1380</ele>
        <time>2010-07-04T07:15:22Z</time>
      </trkpt>
      <trkpt lat="45.02705" lon="5.86288">
        <ele>1380</ele>
        <time>2010-07-04T07:15:23Z</time>
      </trkpt>
      <trkpt lat="45.02709" lon="5.86289">
        <ele>1380</ele>
        <time>2010-07-04T07:15:24Z</time>
      </trkpt>
      <trkpt lat="45.02712" lon="5.86289">
        <ele>1380</ele>
        <time>2010-07-04T07:15:25Z</time>
      </trkpt>
      <trkpt lat="45.02716" lon="5.86289">
        <ele>1380</ele>
        <time>2010-07-04T07:15:26Z</time>
      </trkpt>
      <trkpt lat="45.02719" lon="5.86287">
        <ele>1380</ele>
        <time>2010-07-04T07:15:27Z</time>
      </trkpt>
      <trkpt lat="45.02722" lon="5.86285">
        <ele>1380</ele>
        <time>2010-07-04T07:15:28Z</time>
      </trkpt>
      <trkpt lat="45.02726" lon="5.86283">
        <ele>1380</ele>
        <time>2010-07-04T07:15:29Z</time>
      </trkpt>
      <trkpt lat="45.02728" lon="5.86277">
        <ele>1380</ele>
        <time>2010-07-04T07:15:30Z</time>
      </trkpt>
      <trkpt lat="45.02731" lon="5.86274">
        <ele>1380</ele>
        <time>2010-07-04T07:15:31Z</time>
      </trkpt>
      <trkpt lat="45.02735" lon="5.86272">
        <ele>1380</ele>
        <time>2010-07-04T07:15:32Z</time>
      </trkpt>
      <trkpt lat="45.02739" lon="5.86271">
        <ele>1381</ele>
        <time>2010-07-04T07:15:33Z</time>
      </trkpt>
      <trkpt lat="45.02742" lon="5.86271">
        <ele>1382</ele>
        <time>2010-07-04T07:15:34Z</time>
      </trkpt>
      <trkpt lat="45.02746" lon="5.86272">
        <ele>1382</ele>
        <time>2010-07-04T07:15:35Z</time>
      </trkpt>
      <trkpt lat="45.02751" lon="5.86274">
        <ele>1382</ele>
        <time>2010-07-04T07:15:36Z</time>
      </trkpt>
      <trkpt lat="45.02755" lon="5.86277">
        <ele>1382</ele>
        <time>2010-07-04T07:15:37Z</time>
      </trkpt>
      <trkpt lat="45.02758" lon="5.8628">
        <ele>1382</ele>
        <time>2010-07-04T07:15:38Z</time>
      </trkpt>
      <trkpt lat="45.0276" lon="5.86283">
        <ele>1382</ele>
        <time>2010-07-04T07:15:39Z</time>
      </trkpt>
      <trkpt lat="45.02763" lon="5.86285">
        <ele>1382</ele>
        <time>2010-07-04T07:15:40Z</time>
      </trkpt>
      <trkpt lat="45.02766" lon="5.86287">
        <ele>1382</ele>
        <time>2010-07-04T07:15:41Z</time>
      </trkpt>
      <trkpt lat="45.02768" lon="5.86289">
        <ele>1382</ele>
        <time>2010-07-04T07:15:42Z</time>
      </trkpt>
      <trkpt lat="45.02771" lon="5.8629">
        <ele>1382</ele>
        <time>2010-07-04T07:15:43Z</time>
      </trkpt>
      <trkpt lat="45.02774" lon="5.8629">
        <ele>1382</ele>
        <time>2010-07-04T07:15:44Z</time>
      </trkpt>
      <trkpt lat="45.02777" lon="5.8629">
        <ele>1382</ele>
        <time>2010-07-04T07:15:45Z</time>
      </trkpt>
      <trkpt lat="45.02781" lon="5.8629">
        <ele>1382</ele>
        <time>2010-07-04T07:15:46Z</time>
      </trkpt>
      <trkpt lat="45.02784" lon="5.8629">
        <ele>1382</ele>
        <time>2010-07-04T07:15:47Z</time>
      </trkpt>
      <trkpt lat="45.02787" lon="5.86291">
        <ele>1382</ele>
        <time>2010-07-04T07:15:48Z</time>
      </trkpt>
      <trkpt lat="45.02791" lon="5.86291">
        <ele>1382</ele>
        <time>2010-07-04T07:15:49Z</time>
      </trkpt>
      <trkpt lat="45.02794" lon="5.8629">
        <ele>1382</ele>
        <time>2010-07-04T07:15:50Z</time>
      </trkpt>
      <trkpt lat="45.02797" lon="5.86289">
        <ele>1382</ele>
        <time>2010-07-04T07:15:51Z</time>
      </trkpt>
      <trkpt lat="45.028" lon="5.86288">
        <ele>1382</ele>
        <time>2010-07-04T07:15:52Z</time>
      </trkpt>
      <trkpt lat="45.02803" lon="5.86288">
        <ele>1382</ele>
        <time>2010-07-04T07:15:53Z</time>
      </trkpt>
      <trkpt lat="45.02806" lon="5.86287">
        <ele>1382</ele>
        <time>2010-07-04T07:15:54Z</time>
      </trkpt>
      <trkpt lat="45.0281" lon="5.86286">
        <ele>1382</ele>
        <time>2010-07-04T07:15:55Z</time>
      </trkpt>
      <trkpt lat="45.02813" lon="5.86287">
        <ele>1382</ele>
        <time>2010-07-04T07:15:56Z</time>
      </trkpt>
      <trkpt lat="45.02817" lon="5.86287">
        <ele>1382</ele>
        <time>2010-07-04T07:15:57Z</time>
      </trkpt>
      <trkpt lat="45.0282" lon="5.86287">
        <ele>1382</ele>
        <time>2010-07-04T07:15:58Z</time>
      </trkpt>
      <trkpt lat="45.02824" lon="5.86287">
        <ele>1382</ele>
        <time>2010-07-04T07:15:59Z</time>
      </trkpt>
      <trkpt lat="45.02827" lon="5.86288">
        <ele>1382</ele>
        <time>2010-07-04T07:16:00Z</time>
      </trkpt>
      <trkpt lat="45.0283" lon="5.86291">
        <ele>1382</ele>
        <time>2010-07-04T07:16:01Z</time>
      </trkpt>
      <trkpt lat="45.02833" lon="5.86293">
        <ele>1382</ele>
        <time>2010-07-04T07:16:02Z</time>
      </trkpt>
      <trkpt lat="45.02835" lon="5.86294">
        <ele>1382</ele>
        <time>2010-07-04T07:16:03Z</time>
      </trkpt>
      <trkpt lat="45.02838" lon="5.86295">
        <ele>1382</ele>
        <time>2010-07-04T07:16:04Z</time>
      </trkpt>
      <trkpt lat="45.0284" lon="5.86295">
        <ele>1382</ele>
        <time>2010-07-04T07:16:05Z</time>
      </trkpt>
      <trkpt lat="45.02843" lon="5.86294">
        <ele>1382</ele>
        <time>2010-07-04T07:16:06Z</time>
      </trkpt>
      <trkpt lat="45.02844" lon="5.86293">
        <ele>1382</ele>
        <time>2010-07-04T07:16:07Z</time>
      </trkpt>
      <trkpt lat="45.02847" lon="5.86293">
        <ele>1382</ele>
        <time>2010-07-04T07:16:08Z</time>
      </trkpt>
      <trkpt lat="45.02849" lon="5.86293">
        <ele>1382</ele>
        <time>2010-07-04T07:16:09Z</time>
      </trkpt>
      <trkpt lat="45.02852" lon="5.86293">
        <ele>1382</ele>
        <time>2010-07-04T07:16:10Z</time>
      </trkpt>
      <trkpt lat="45.02854" lon="5.86292">
        <ele>1382</ele>
        <time>2010-07-04T07:16:11Z</time>
      </trkpt>
      <trkpt lat="45.02858" lon="5.86291">
        <ele>1382</ele>
        <time>2010-07-04T07:16:12Z</time>
      </trkpt>
      <trkpt lat="45.02861" lon="5.86289">
        <ele>1382</ele>
        <time>2010-07-04T07:16:13Z</time>
      </trkpt>
      <trkpt lat="45.02864" lon="5.86286">
        <ele>1382</ele>
        <time>2010-07-04T07:16:14Z</time>
      </trkpt>
      <trkpt lat="45.02867" lon="5.86283">
        <ele>1382</ele>
        <time>2010-07-04T07:16:15Z</time>
      </trkpt>
      <trkpt lat="45.0287" lon="5.86279">
        <ele>1382</ele>
        <time>2010-07-04T07:16:16Z</time>
      </trkpt>
      <trkpt lat="45.02873" lon="5.86276">
        <ele>1382</ele>
        <time>2010-07-04T07:16:17Z</time>
      </trkpt>
      <trkpt lat="45.02876" lon="5.86272">
        <ele>1382</ele>
        <time>2010-07-04T07:16:18Z</time>
      </trkpt>
      <trkpt lat="45.02879" lon="5.86268">
        <ele>1382</ele>
        <time>2010-07-04T07:16:19Z</time>
      </trkpt>
      <trkpt lat="45.02881" lon="5.86263">
        <ele>1382</ele>
        <time>2010-07-04T07:16:20Z</time>
      </trkpt>
      <trkpt lat="45.02883" lon="5.8626">
        <ele>1382</ele>
        <time>2010-07-04T07:16:21Z</time>
      </trkpt>
      <trkpt lat="45.02886" lon="5.86256">
        <ele>1382</ele>
        <time>2010-07-04T07:16:22Z</time>
      </trkpt>
      <trkpt lat="45.02889" lon="5.86252">
        <ele>1382</ele>
        <time>2010-07-04T07:16:23Z</time>
      </trkpt>
      <trkpt lat="45.02892" lon="5.86251">
        <ele>1382</ele>
        <time>2010-07-04T07:16:24Z</time>
      </trkpt>
      <trkpt lat="45.02895" lon="5.86251">
        <ele>1382</ele>
        <time>2010-07-04T07:16:25Z</time>
      </trkpt>
      <trkpt lat="45.02898" lon="5.86249">
        <ele>1382</ele>
        <time>2010-07-04T07:16:26Z</time>
      </trkpt>
      <trkpt lat="45.02901" lon="5.86246">
        <ele>1382</ele>
        <time>2010-07-04T07:16:27Z</time>
      </trkpt>
      <trkpt lat="45.02903" lon="5.86244">
        <ele>1382</ele>
        <time>2010-07-04T07:16:28Z</time>
      </trkpt>
      <trkpt lat="45.02905" lon="5.86241">
        <ele>1382</ele>
        <time>2010-07-04T07:16:29Z</time>
      </trkpt>
      <trkpt lat="45.02905" lon="5.86236">
        <ele>1382</ele>
        <time>2010-07-04T07:16:30Z</time>
      </trkpt>
      <trkpt lat="45.02906" lon="5.86232">
        <ele>1382</ele>
        <time>2010-07-04T07:16:31Z</time>
      </trkpt>
      <trkpt lat="45.02907" lon="5.86228">
        <ele>1382</ele>
        <time>2010-07-04T07:16:32Z</time>
      </trkpt>
      <trkpt lat="45.02908" lon="5.86225">
        <ele>1382</ele>
        <time>2010-07-04T07:16:33Z</time>
      </trkpt>
      <trkpt lat="45.0291" lon="5.86222">
        <ele>1382</ele>
        <time>2010-07-04T07:16:34Z</time>
      </trkpt>
      <trkpt lat="45.02912" lon="5.86221">
        <ele>1382</ele>
        <time>2010-07-04T07:16:35Z</time>
      </trkpt>
      <trkpt lat="45.02914" lon="5.8622">
        <ele>1382</ele>
        <time>2010-07-04T07:16:36Z</time>
      </trkpt>
      <trkpt lat="45.02917" lon="5.86219">
        <ele>1382</ele>
        <time>2010-07-04T07:16:37Z</time>
      </trkpt>
      <trkpt lat="45.0292" lon="5.8622">
        <ele>1382</ele>
        <time>2010-07-04T07:16:38Z</time>
      </trkpt>
      <trkpt lat="45.02922" lon="5.86221">
        <ele>1382</ele>
        <time>2010-07-04T07:16:39Z</time>
      </trkpt>
      <trkpt lat="45.02925" lon="5.86222">
        <ele>1382</ele>
        <time>2010-07-04T07:16:40Z</time>
      </trkpt>
      <trkpt lat="45.02929" lon="5.86223">
        <ele>1382</ele>
        <time>2010-07-04T07:16:41Z</time>
      </trkpt>
      <trkpt lat="45.02931" lon="5.86223">
        <ele>1382</ele>
        <time>2010-07-04T07:16:42Z</time>
      </trkpt>
      <trkpt lat="45.02934" lon="5.86223">
        <ele>1382</ele>
        <time>2010-07-04T07:16:43Z</time>
      </trkpt>
      <trkpt lat="45.02937" lon="5.86223">
        <ele>1382</ele>
        <time>2010-07-04T07:16:44Z</time>
      </trkpt>
      <trkpt lat="45.02941" lon="5.86223">
        <ele>1383</ele>
        <time>2010-07-04T07:16:45Z</time>
      </trkpt>
      <trkpt lat="45.02943" lon="5.86222">
        <ele>1384</ele>
        <time>2010-07-04T07:16:46Z</time>
      </trkpt>
      <trkpt lat="45.02945" lon="5.86222">
        <ele>1384</ele>
        <time>2010-07-04T07:16:47Z</time>
      </trkpt>
      <trkpt lat="45.02946" lon="5.8622">
        <ele>1385</ele>
        <time>2010-07-04T07:16:48Z</time>
      </trkpt>
      <trkpt lat="45.02947" lon="5.86216">
        <ele>1386</ele>
        <time>2010-07-04T07:16:49Z</time>
      </trkpt>
      <trkpt lat="45.02947" lon="5.86212">
        <ele>1387</ele>
        <time>2010-07-04T07:16:50Z</time>
      </trkpt>
      <trkpt lat="45.02948" lon="5.86208">
        <ele>1388</ele>
        <time>2010-07-04T07:16:51Z</time>
      </trkpt>
      <trkpt lat="45.02948" lon="5.86205">
        <ele>1389</ele>
        <time>2010-07-04T07:16:52Z</time>
      </trkpt>
      <trkpt lat="45.02949" lon="5.86202">
        <ele>1390</ele>
        <time>2010-07-04T07:16:53Z</time>
      </trkpt>
      <trkpt lat="45.02949" lon="5.86198">
        <ele>1391</ele>
        <time>2010-07-04T07:16:54Z</time>
      </trkpt>
      <trkpt lat="45.02951" lon="5.86196">
        <ele>1392</ele>
        <time>2010-07-04T07:16:55Z</time>
      </trkpt>
      <trkpt lat="45.02952" lon="5.86195">
        <ele>1393</ele>
        <time>2010-07-04T07:16:56Z</time>
      </trkpt>
      <trkpt lat="45.02954" lon="5.86194">
        <ele>1394</ele>
        <time>2010-07-04T07:16:57Z</time>
      </trkpt>
      <trkpt lat="45.02955" lon="5.86194">
        <ele>1394</ele>
        <time>2010-07-04T07:16:58Z</time>
      </trkpt>
      <trkpt lat="45.02956" lon="5.86194">
        <ele>1394</ele>
        <time>2010-07-04T07:16:59Z</time>
      </trkpt>
      <trkpt lat="45.02958" lon="5.86192">
        <ele>1395</ele>
        <time>2010-07-04T07:17:01Z</time>
      </trkpt>
      <trkpt lat="45.02959" lon="5.86191">
        <ele>1395</ele>
        <time>2010-07-04T07:17:02Z</time>
      </trkpt>
      <trkpt lat="45.02961" lon="5.8619">
        <ele>1395</ele>
        <time>2010-07-04T07:17:03Z</time>
      </trkpt>
      <trkpt lat="45.02962" lon="5.86187">
        <ele>1396</ele>
        <time>2010-07-04T07:17:04Z</time>
      </trkpt>
      <trkpt lat="45.02962" lon="5.86185">
        <ele>1397</ele>
        <time>2010-07-04T07:17:05Z</time>
      </trkpt>
      <trkpt lat="45.02963" lon="5.86183">
        <ele>1398</ele>
        <time>2010-07-04T07:17:06Z</time>
      </trkpt>
      <trkpt lat="45.02963" lon="5.86182">
        <ele>1399</ele>
        <time>2010-07-04T07:17:07Z</time>
      </trkpt>
      <trkpt lat="45.02964" lon="5.8618">
        <ele>1400</ele>
        <time>2010-07-04T07:17:08Z</time>
      </trkpt>
      <trkpt lat="45.02965" lon="5.86178">
        <ele>1401</ele>
        <time>2010-07-04T07:17:09Z</time>
      </trkpt>
      <trkpt lat="45.02966" lon="5.86176">
        <ele>1402</ele>
        <time>2010-07-04T07:17:10Z</time>
      </trkpt>
      <trkpt lat="45.02967" lon="5.86174">
        <ele>1403</ele>
        <time>2010-07-04T07:17:11Z</time>
      </trkpt>
      <trkpt lat="45.02968" lon="5.86171">
        <ele>1404</ele>
        <time>2010-07-04T07:17:12Z</time>
      </trkpt>
      <trkpt lat="45.02969" lon="5.86169">
        <ele>1405</ele>
        <time>2010-07-04T07:17:13Z</time>
      </trkpt>
      <trkpt lat="45.0297" lon="5.86167">
        <ele>1406</ele>
        <time>2010-07-04T07:17:14Z</time>
      </trkpt>
      <trkpt lat="45.02971" lon="5.86164">
        <ele>1407</ele>
        <time>2010-07-04T07:17:15Z</time>
      </trkpt>
      <trkpt lat="45.02972" lon="5.86162">
        <ele>1408</ele>
        <time>2010-07-04T07:17:16Z</time>
      </trkpt>
      <trkpt lat="45.02973" lon="5.86159">
        <ele>1409</ele>
        <time>2010-07-04T07:17:17Z</time>
      </trkpt>
      <trkpt lat="45.02974" lon="5.86157">
        <ele>1410</ele>
        <time>2010-07-04T07:17:18Z</time>
      </trkpt>
      <trkpt lat="45.02975" lon="5.86156">
        <ele>1411</ele>
        <time>2010-07-04T07:17:19Z</time>
      </trkpt>
      <trkpt lat="45.02975" lon="5.86154">
        <ele>1412</ele>
        <time>2010-07-04T07:17:20Z</time>
      </trkpt>
      <trkpt lat="45.02976" lon="5.86152">
        <ele>1413</ele>
        <time>2010-07-04T07:17:21Z</time>
      </trkpt>
      <trkpt lat="45.02978" lon="5.86151">
        <ele>1414</ele>
        <time>2010-07-04T07:17:22Z</time>
      </trkpt>
      <trkpt lat="45.02979" lon="5.86148">
        <ele>1415</ele>
        <time>2010-07-04T07:17:23Z</time>
      </trkpt>
      <trkpt lat="45.0298" lon="5.86146">
        <ele>1416</ele>
        <time>2010-07-04T07:17:24Z</time>
      </trkpt>
      <trkpt lat="45.02981" lon="5.86145">
        <ele>1417</ele>
        <time>2010-07-04T07:17:25Z</time>
      </trkpt>
      <trkpt lat="45.02981" lon="5.86143">
        <ele>1418</ele>
        <time>2010-07-04T07:17:26Z</time>
      </trkpt>
      <trkpt lat="45.02984" lon="5.86141">
        <ele>1419</ele>
        <time>2010-07-04T07:17:27Z</time>
      </trkpt>
      <trkpt lat="45.02986" lon="5.86139">
        <ele>1420</ele>
        <time>2010-07-04T07:17:28Z</time>
      </trkpt>
      <trkpt lat="45.02986" lon="5.86137">
        <ele>1420</ele>
        <time>2010-07-04T07:17:29Z</time>
      </trkpt>
      <trkpt lat="45.02987" lon="5.86135">
        <ele>1420</ele>
        <time>2010-07-04T07:17:30Z</time>
      </trkpt>
      <trkpt lat="45.0299" lon="5.86134">
        <ele>1420</ele>
        <time>2010-07-04T07:17:32Z</time>
      </trkpt>
      <trkpt lat="45.02991" lon="5.86131">
        <ele>1420</ele>
        <time>2010-07-04T07:17:33Z</time>
      </trkpt>
      <trkpt lat="45.02991" lon="5.86129">
        <ele>1420</ele>
        <time>2010-07-04T07:17:34Z</time>
      </trkpt>
      <trkpt lat="45.02992" lon="5.86127">
        <ele>1421</ele>
        <time>2010-07-04T07:17:35Z</time>
      </trkpt>
      <trkpt lat="45.02992" lon="5.86125">
        <ele>1422</ele>
        <time>2010-07-04T07:17:36Z</time>
      </trkpt>
      <trkpt lat="45.02992" lon="5.86123">
        <ele>1423</ele>
        <time>2010-07-04T07:17:37Z</time>
      </trkpt>
      <trkpt lat="45.02992" lon="5.86122">
        <ele>1424</ele>
        <time>2010-07-04T07:17:38Z</time>
      </trkpt>
      <trkpt lat="45.02993" lon="5.86118">
        <ele>1425</ele>
        <time>2010-07-04T07:17:39Z</time>
      </trkpt>
      <trkpt lat="45.02993" lon="5.86115">
        <ele>1426</ele>
        <time>2010-07-04T07:17:40Z</time>
      </trkpt>
      <trkpt lat="45.02993" lon="5.86113">
        <ele>1427</ele>
        <time>2010-07-04T07:17:41Z</time>
      </trkpt>
      <trkpt lat="45.02994" lon="5.8611">
        <ele>1428</ele>
        <time>2010-07-04T07:17:42Z</time>
      </trkpt>
      <trkpt lat="45.02995" lon="5.8611">
        <ele>1429</ele>
        <time>2010-07-04T07:17:43Z</time>
      </trkpt>
      <trkpt lat="45.02997" lon="5.86108">
        <ele>1431</ele>
        <time>2010-07-04T07:17:45Z</time>
      </trkpt>
      <trkpt lat="45.02998" lon="5.86107">
        <ele>1432</ele>
        <time>2010-07-04T07:17:46Z</time>
      </trkpt>
      <trkpt lat="45.03" lon="5.86106">
        <ele>1433</ele>
        <time>2010-07-04T07:17:48Z</time>
      </trkpt>
      <trkpt lat="45.03002" lon="5.86105">
        <ele>1433</ele>
        <time>2010-07-04T07:17:49Z</time>
      </trkpt>
      <trkpt lat="45.03003" lon="5.86106">
        <ele>1435</ele>
        <time>2010-07-04T07:17:51Z</time>
      </trkpt>
      <trkpt lat="45.03004" lon="5.86109">
        <ele>1437</ele>
        <time>2010-07-04T07:17:53Z</time>
      </trkpt>
      <trkpt lat="45.03006" lon="5.86111">
        <ele>1437</ele>
        <time>2010-07-04T07:17:54Z</time>
      </trkpt>
      <trkpt lat="45.03008" lon="5.86113">
        <ele>1437</ele>
        <time>2010-07-04T07:17:55Z</time>
      </trkpt>
      <trkpt lat="45.0301" lon="5.86115">
        <ele>1437</ele>
        <time>2010-07-04T07:17:56Z</time>
      </trkpt>
      <trkpt lat="45.03012" lon="5.86118">
        <ele>1437</ele>
        <time>2010-07-04T07:17:58Z</time>
      </trkpt>
      <trkpt lat="45.03013" lon="5.86119">
        <ele>1437</ele>
        <time>2010-07-04T07:17:59Z</time>
      </trkpt>
      <trkpt lat="45.03015" lon="5.86121">
        <ele>1437</ele>
        <time>2010-07-04T07:18:01Z</time>
      </trkpt>
      <trkpt lat="45.03016" lon="5.86123">
        <ele>1437</ele>
        <time>2010-07-04T07:18:02Z</time>
      </trkpt>
      <trkpt lat="45.03017" lon="5.86124">
        <ele>1437</ele>
        <time>2010-07-04T07:18:03Z</time>
      </trkpt>
      <trkpt lat="45.03018" lon="5.86126">
        <ele>1437</ele>
        <time>2010-07-04T07:18:04Z</time>
      </trkpt>
      <trkpt lat="45.0302" lon="5.86127">
        <ele>1437</ele>
        <time>2010-07-04T07:18:05Z</time>
      </trkpt>
      <trkpt lat="45.03021" lon="5.86128">
        <ele>1437</ele>
        <time>2010-07-04T07:18:06Z</time>
      </trkpt>
      <trkpt lat="45.03023" lon="5.86129">
        <ele>1437</ele>
        <time>2010-07-04T07:18:07Z</time>
      </trkpt>
      <trkpt lat="45.03024" lon="5.86131">
        <ele>1437</ele>
        <time>2010-07-04T07:18:08Z</time>
      </trkpt>
      <trkpt lat="45.03025" lon="5.86133">
        <ele>1437</ele>
        <time>2010-07-04T07:18:10Z</time>
      </trkpt>
      <trkpt lat="45.03027" lon="5.86134">
        <ele>1437</ele>
        <time>2010-07-04T07:18:12Z</time>
      </trkpt>
      <trkpt lat="45.03028" lon="5.86133">
        <ele>1437</ele>
        <time>2010-07-04T07:18:15Z</time>
      </trkpt>
      <trkpt lat="45.03029" lon="5.86132">
        <ele>1437</ele>
        <time>2010-07-04T07:18:16Z</time>
      </trkpt>
      <trkpt lat="45.0303" lon="5.86129">
        <ele>1436</ele>
        <time>2010-07-04T07:18:18Z</time>
      </trkpt>
      <trkpt lat="45.03031" lon="5.86127">
        <ele>1434</ele>
        <time>2010-07-04T07:18:22Z</time>
      </trkpt>
      <trkpt lat="45.03032" lon="5.86123">
        <ele>1434</ele>
        <time>2010-07-04T07:18:24Z</time>
      </trkpt>
      <trkpt lat="45.03032" lon="5.86121">
        <ele>1434</ele>
        <time>2010-07-04T07:18:25Z</time>
      </trkpt>
      <trkpt lat="45.03032" lon="5.86118">
        <ele>1434</ele>
        <time>2010-07-04T07:18:27Z</time>
      </trkpt>
      <trkpt lat="45.03032" lon="5.86115">
        <ele>1434</ele>
        <time>2010-07-04T07:18:28Z</time>
      </trkpt>
      <trkpt lat="45.03032" lon="5.86113">
        <ele>1434</ele>
        <time>2010-07-04T07:18:29Z</time>
      </trkpt>
      <trkpt lat="45.03031" lon="5.8611">
        <ele>1434</ele>
        <time>2010-07-04T07:18:30Z</time>
      </trkpt>
      <trkpt lat="45.03031" lon="5.86108">
        <ele>1434</ele>
        <time>2010-07-04T07:18:31Z</time>
      </trkpt>
      <trkpt lat="45.03032" lon="5.86107">
        <ele>1434</ele>
        <time>2010-07-04T07:18:32Z</time>
      </trkpt>
      <trkpt lat="45.03033" lon="5.86104">
        <ele>1436</ele>
        <time>2010-07-04T07:18:34Z</time>
      </trkpt>
      <trkpt lat="45.03034" lon="5.86101">
        <ele>1437</ele>
        <time>2010-07-04T07:18:36Z</time>
      </trkpt>
      <trkpt lat="45.03034" lon="5.861">
        <ele>1438</ele>
        <time>2010-07-04T07:18:37Z</time>
      </trkpt>
      <trkpt lat="45.03035" lon="5.86098">
        <ele>1438</ele>
        <time>2010-07-04T07:18:38Z</time>
      </trkpt>
      <trkpt lat="45.03035" lon="5.86095">
        <ele>1439</ele>
        <time>2010-07-04T07:18:40Z</time>
      </trkpt>
      <trkpt lat="45.03035" lon="5.86094">
        <ele>1440</ele>
        <time>2010-07-04T07:18:41Z</time>
      </trkpt>
      <trkpt lat="45.03035" lon="5.86092">
        <ele>1441</ele>
        <time>2010-07-04T07:18:42Z</time>
      </trkpt>
      <trkpt lat="45.03035" lon="5.86091">
        <ele>1442</ele>
        <time>2010-07-04T07:18:43Z</time>
      </trkpt>
      <trkpt lat="45.03035" lon="5.86089">
        <ele>1444</ele>
        <time>2010-07-04T07:18:45Z</time>
      </trkpt>
      <trkpt lat="45.03037" lon="5.86087">
        <ele>1446</ele>
        <time>2010-07-04T07:18:47Z</time>
      </trkpt>
      <trkpt lat="45.03038" lon="5.86084">
        <ele>1447</ele>
        <time>2010-07-04T07:18:49Z</time>
      </trkpt>
      <trkpt lat="45.03038" lon="5.86082">
        <ele>1447</ele>
        <time>2010-07-04T07:18:50Z</time>
      </trkpt>
      <trkpt lat="45.03038" lon="5.8608">
        <ele>1448</ele>
        <time>2010-07-04T07:18:51Z</time>
      </trkpt>
      <trkpt lat="45.03038" lon="5.86078">
        <ele>1448</ele>
        <time>2010-07-04T07:18:52Z</time>
      </trkpt>
      <trkpt lat="45.03038" lon="5.86076">
        <ele>1450</ele>
        <time>2010-07-04T07:18:54Z</time>
      </trkpt>
      <trkpt lat="45.0304" lon="5.86074">
        <ele>1450</ele>
        <time>2010-07-04T07:18:56Z</time>
      </trkpt>
      <trkpt lat="45.03041" lon="5.86074">
        <ele>1450</ele>
        <time>2010-07-04T07:18:57Z</time>
      </trkpt>
      <trkpt lat="45.03042" lon="5.86072">
        <ele>1450</ele>
        <time>2010-07-04T07:18:58Z</time>
      </trkpt>
      <trkpt lat="45.03043" lon="5.86071">
        <ele>1450</ele>
        <time>2010-07-04T07:19:00Z</time>
      </trkpt>
      <trkpt lat="45.03045" lon="5.86069">
        <ele>1450</ele>
        <time>2010-07-04T07:19:02Z</time>
      </trkpt>
      <trkpt lat="45.03047" lon="5.86067">
        <ele>1450</ele>
        <time>2010-07-04T07:19:04Z</time>
      </trkpt>
      <trkpt lat="45.03048" lon="5.86065">
        <ele>1450</ele>
        <time>2010-07-04T07:19:06Z</time>
      </trkpt>
      <trkpt lat="45.03049" lon="5.86062">
        <ele>1450</ele>
        <time>2010-07-04T07:19:09Z</time>
      </trkpt>
      <trkpt lat="45.0305" lon="5.8606">
        <ele>1449</ele>
        <time>2010-07-04T07:19:11Z</time>
      </trkpt>
      <trkpt lat="45.03052" lon="5.86059">
        <ele>1449</ele>
        <time>2010-07-04T07:19:13Z</time>
      </trkpt>
      <trkpt lat="45.03054" lon="5.86059">
        <ele>1448</ele>
        <time>2010-07-04T07:19:15Z</time>
      </trkpt>
      <trkpt lat="45.03055" lon="5.86058">
        <ele>1447</ele>
        <time>2010-07-04T07:19:17Z</time>
      </trkpt>
      <trkpt lat="45.03057" lon="5.86057">
        <ele>1446</ele>
        <time>2010-07-04T07:19:18Z</time>
      </trkpt>
      <trkpt lat="45.03058" lon="5.86054">
        <ele>1446</ele>
        <time>2010-07-04T07:19:20Z</time>
      </trkpt>
      <trkpt lat="45.03058" lon="5.86053">
        <ele>1446</ele>
        <time>2010-07-04T07:19:21Z</time>
      </trkpt>
      <trkpt lat="45.03061" lon="5.8605">
        <ele>1446</ele>
        <time>2010-07-04T07:19:23Z</time>
      </trkpt>
      <trkpt lat="45.03063" lon="5.86048">
        <ele>1446</ele>
        <time>2010-07-04T07:19:24Z</time>
      </trkpt>
      <trkpt lat="45.03065" lon="5.86046">
        <ele>1446</ele>
        <time>2010-07-04T07:19:26Z</time>
      </trkpt>
      <trkpt lat="45.03067" lon="5.86046">
        <ele>1446</ele>
        <time>2010-07-04T07:19:27Z</time>
      </trkpt>
      <trkpt lat="45.03068" lon="5.86044">
        <ele>1446</ele>
        <time>2010-07-04T07:19:28Z</time>
      </trkpt>
      <trkpt lat="45.03069" lon="5.86042">
        <ele>1446</ele>
        <time>2010-07-04T07:19:29Z</time>
      </trkpt>
      <trkpt lat="45.0307" lon="5.8604">
        <ele>1446</ele>
        <time>2010-07-04T07:19:30Z</time>
      </trkpt>
      <trkpt lat="45.03071" lon="5.86038">
        <ele>1446</ele>
        <time>2010-07-04T07:19:31Z</time>
      </trkpt>
      <trkpt lat="45.03072" lon="5.86036">
        <ele>1447</ele>
        <time>2010-07-04T07:19:32Z</time>
      </trkpt>
      <trkpt lat="45.03073" lon="5.86033">
        <ele>1448</ele>
        <time>2010-07-04T07:19:33Z</time>
      </trkpt>
      <trkpt lat="45.03074" lon="5.86032">
        <ele>1449</ele>
        <time>2010-07-04T07:19:34Z</time>
      </trkpt>
      <trkpt lat="45.03076" lon="5.86029">
        <ele>1450</ele>
        <time>2010-07-04T07:19:35Z</time>
      </trkpt>
      <trkpt lat="45.03077" lon="5.86027">
        <ele>1451</ele>
        <time>2010-07-04T07:19:36Z</time>
      </trkpt>
      <trkpt lat="45.03079" lon="5.86025">
        <ele>1452</ele>
        <time>2010-07-04T07:19:37Z</time>
      </trkpt>
      <trkpt lat="45.0308" lon="5.86022">
        <ele>1453</ele>
        <time>2010-07-04T07:19:38Z</time>
      </trkpt>
      <trkpt lat="45.03081" lon="5.8602">
        <ele>1454</ele>
        <time>2010-07-04T07:19:39Z</time>
      </trkpt>
      <trkpt lat="45.03082" lon="5.86018">
        <ele>1455</ele>
        <time>2010-07-04T07:19:40Z</time>
      </trkpt>
      <trkpt lat="45.03082" lon="5.86015">
        <ele>1456</ele>
        <time>2010-07-04T07:19:41Z</time>
      </trkpt>
      <trkpt lat="45.03083" lon="5.86013">
        <ele>1457</ele>
        <time>2010-07-04T07:19:42Z</time>
      </trkpt>
      <trkpt lat="45.03084" lon="5.86012">
        <ele>1459</ele>
        <time>2010-07-04T07:19:43Z</time>
      </trkpt>
      <trkpt lat="45.03086" lon="5.8601">
        <ele>1460</ele>
        <time>2010-07-04T07:19:44Z</time>
      </trkpt>
      <trkpt lat="45.03087" lon="5.86008">
        <ele>1461</ele>
        <time>2010-07-04T07:19:45Z</time>
      </trkpt>
      <trkpt lat="45.03089" lon="5.86006">
        <ele>1462</ele>
        <time>2010-07-04T07:19:46Z</time>
      </trkpt>
      <trkpt lat="45.0309" lon="5.86005">
        <ele>1463</ele>
        <time>2010-07-04T07:19:47Z</time>
      </trkpt>
      <trkpt lat="45.03091" lon="5.86004">
        <ele>1464</ele>
        <time>2010-07-04T07:19:48Z</time>
      </trkpt>
      <trkpt lat="45.03093" lon="5.86004">
        <ele>1465</ele>
        <time>2010-07-04T07:19:49Z</time>
      </trkpt>
      <trkpt lat="45.03093" lon="5.86002">
        <ele>1466</ele>
        <time>2010-07-04T07:19:50Z</time>
      </trkpt>
      <trkpt lat="45.03094" lon="5.86">
        <ele>1467</ele>
        <time>2010-07-04T07:19:51Z</time>
      </trkpt>
      <trkpt lat="45.03095" lon="5.85999">
        <ele>1468</ele>
        <time>2010-07-04T07:19:52Z</time>
      </trkpt>
      <trkpt lat="45.03096" lon="5.85997">
        <ele>1469</ele>
        <time>2010-07-04T07:19:53Z</time>
      </trkpt>
      <trkpt lat="45.03097" lon="5.85996">
        <ele>1470</ele>
        <time>2010-07-04T07:19:54Z</time>
      </trkpt>
      <trkpt lat="45.03099" lon="5.85995">
        <ele>1471</ele>
        <time>2010-07-04T07:19:55Z</time>
      </trkpt>
      <trkpt lat="45.03101" lon="5.85993">
        <ele>1473</ele>
        <time>2010-07-04T07:19:57Z</time>
      </trkpt>
      <trkpt lat="45.03102" lon="5.85992">
        <ele>1474</ele>
        <time>2010-07-04T07:19:58Z</time>
      </trkpt>
      <trkpt lat="45.03104" lon="5.8599">
        <ele>1475</ele>
        <time>2010-07-04T07:19:59Z</time>
      </trkpt>
      <trkpt lat="45.03106" lon="5.85989">
        <ele>1476</ele>
        <time>2010-07-04T07:20:00Z</time>
      </trkpt>
      <trkpt lat="45.03108" lon="5.85988">
        <ele>1477</ele>
        <time>2010-07-04T07:20:01Z</time>
      </trkpt>
      <trkpt lat="45.0311" lon="5.85987">
        <ele>1477</ele>
        <time>2010-07-04T07:20:02Z</time>
      </trkpt>
      <trkpt lat="45.03113" lon="5.85985">
        <ele>1477</ele>
        <time>2010-07-04T07:20:03Z</time>
      </trkpt>
      <trkpt lat="45.03115" lon="5.85984">
        <ele>1477</ele>
        <time>2010-07-04T07:20:04Z</time>
      </trkpt>
      <trkpt lat="45.03117" lon="5.85983">
        <ele>1477</ele>
        <time>2010-07-04T07:20:05Z</time>
      </trkpt>
      <trkpt lat="45.03119" lon="5.85981">
        <ele>1476</ele>
        <time>2010-07-04T07:20:06Z</time>
      </trkpt>
      <trkpt lat="45.0312" lon="5.85979">
        <ele>1475</ele>
        <time>2010-07-04T07:20:07Z</time>
      </trkpt>
      <trkpt lat="45.03122" lon="5.85978">
        <ele>1474</ele>
        <time>2010-07-04T07:20:08Z</time>
      </trkpt>
      <trkpt lat="45.03124" lon="5.85976">
        <ele>1473</ele>
        <time>2010-07-04T07:20:09Z</time>
      </trkpt>
      <trkpt lat="45.03126" lon="5.85975">
        <ele>1472</ele>
        <time>2010-07-04T07:20:10Z</time>
      </trkpt>
      <trkpt lat="45.03127" lon="5.85973">
        <ele>1471</ele>
        <time>2010-07-04T07:20:11Z</time>
      </trkpt>
      <trkpt lat="45.03127" lon="5.85971">
        <ele>1470</ele>
        <time>2010-07-04T07:20:12Z</time>
      </trkpt>
      <trkpt lat="45.03125" lon="5.85968">
        <ele>1468</ele>
        <time>2010-07-04T07:20:14Z</time>
      </trkpt>
      <trkpt lat="45.03124" lon="5.85966">
        <ele>1468</ele>
        <time>2010-07-04T07:20:15Z</time>
      </trkpt>
      <trkpt lat="45.03122" lon="5.85964">
        <ele>1467</ele>
        <time>2010-07-04T07:20:17Z</time>
      </trkpt>
      <trkpt lat="45.0312" lon="5.85963">
        <ele>1466</ele>
        <time>2010-07-04T07:20:18Z</time>
      </trkpt>
      <trkpt lat="45.03118" lon="5.85962">
        <ele>1465</ele>
        <time>2010-07-04T07:20:19Z</time>
      </trkpt>
      <trkpt lat="45.03116" lon="5.8596">
        <ele>1464</ele>
        <time>2010-07-04T07:20:20Z</time>
      </trkpt>
      <trkpt lat="45.03114" lon="5.85958">
        <ele>1463</ele>
        <time>2010-07-04T07:20:21Z</time>
      </trkpt>
      <trkpt lat="45.03113" lon="5.85957">
        <ele>1462</ele>
        <time>2010-07-04T07:20:22Z</time>
      </trkpt>
      <trkpt lat="45.03111" lon="5.85957">
        <ele>1461</ele>
        <time>2010-07-04T07:20:23Z</time>
      </trkpt>
      <trkpt lat="45.0311" lon="5.85955">
        <ele>1460</ele>
        <time>2010-07-04T07:20:24Z</time>
      </trkpt>
      <trkpt lat="45.03109" lon="5.85953">
        <ele>1459</ele>
        <time>2010-07-04T07:20:25Z</time>
      </trkpt>
      <trkpt lat="45.03107" lon="5.85951">
        <ele>1459</ele>
        <time>2010-07-04T07:20:26Z</time>
      </trkpt>
      <trkpt lat="45.03106" lon="5.85948">
        <ele>1459</ele>
        <time>2010-07-04T07:20:27Z</time>
      </trkpt>
      <trkpt lat="45.03104" lon="5.85946">
        <ele>1459</ele>
        <time>2010-07-04T07:20:28Z</time>
      </trkpt>
      <trkpt lat="45.03102" lon="5.85944">
        <ele>1458</ele>
        <time>2010-07-04T07:20:29Z</time>
      </trkpt>
      <trkpt lat="45.031" lon="5.85941">
        <ele>1458</ele>
        <time>2010-07-04T07:20:30Z</time>
      </trkpt>
      <trkpt lat="45.03099" lon="5.85938">
        <ele>1458</ele>
        <time>2010-07-04T07:20:31Z</time>
      </trkpt>
      <trkpt lat="45.03098" lon="5.85937">
        <ele>1458</ele>
        <time>2010-07-04T07:20:32Z</time>
      </trkpt>
      <trkpt lat="45.03097" lon="5.85935">
        <ele>1457</ele>
        <time>2010-07-04T07:20:33Z</time>
      </trkpt>
      <trkpt lat="45.03096" lon="5.85932">
        <ele>1457</ele>
        <time>2010-07-04T07:20:34Z</time>
      </trkpt>
      <trkpt lat="45.03095" lon="5.8593">
        <ele>1456</ele>
        <time>2010-07-04T07:20:35Z</time>
      </trkpt>
      <trkpt lat="45.03093" lon="5.85928">
        <ele>1455</ele>
        <time>2010-07-04T07:20:36Z</time>
      </trkpt>
      <trkpt lat="45.03091" lon="5.85928">
        <ele>1453</ele>
        <time>2010-07-04T07:20:39Z</time>
      </trkpt>
      <trkpt lat="45.0309" lon="5.85926">
        <ele>1451</ele>
        <time>2010-07-04T07:20:41Z</time>
      </trkpt>
      <trkpt lat="45.0309" lon="5.85923">
        <ele>1450</ele>
        <time>2010-07-04T07:20:42Z</time>
      </trkpt>
      <trkpt lat="45.0309" lon="5.85921">
        <ele>1449</ele>
        <time>2010-07-04T07:20:43Z</time>
      </trkpt>
      <trkpt lat="45.0309" lon="5.85918">
        <ele>1448</ele>
        <time>2010-07-04T07:20:44Z</time>
      </trkpt>
      <trkpt lat="45.03089" lon="5.85915">
        <ele>1447</ele>
        <time>2010-07-04T07:20:45Z</time>
      </trkpt>
      <trkpt lat="45.03087" lon="5.85911">
        <ele>1446</ele>
        <time>2010-07-04T07:20:46Z</time>
      </trkpt>
      <trkpt lat="45.03084" lon="5.85909">
        <ele>1445</ele>
        <time>2010-07-04T07:20:47Z</time>
      </trkpt>
      <trkpt lat="45.03082" lon="5.85908">
        <ele>1444</ele>
        <time>2010-07-04T07:20:48Z</time>
      </trkpt>
      <trkpt lat="45.0308" lon="5.85908">
        <ele>1443</ele>
        <time>2010-07-04T07:20:49Z</time>
      </trkpt>
      <trkpt lat="45.03079" lon="5.85908">
        <ele>1442</ele>
        <time>2010-07-04T07:20:50Z</time>
      </trkpt>
      <trkpt lat="45.03077" lon="5.85909">
        <ele>1441</ele>
        <time>2010-07-04T07:20:51Z</time>
      </trkpt>
      <trkpt lat="45.03075" lon="5.85911">
        <ele>1440</ele>
        <time>2010-07-04T07:20:52Z</time>
      </trkpt>
      <trkpt lat="45.03073" lon="5.85912">
        <ele>1439</ele>
        <time>2010-07-04T07:20:53Z</time>
      </trkpt>
      <trkpt lat="45.03072" lon="5.85915">
        <ele>1438</ele>
        <time>2010-07-04T07:20:54Z</time>
      </trkpt>
      <trkpt lat="45.03071" lon="5.85917">
        <ele>1437</ele>
        <time>2010-07-04T07:20:55Z</time>
      </trkpt>
      <trkpt lat="45.03069" lon="5.85919">
        <ele>1436</ele>
        <time>2010-07-04T07:20:56Z</time>
      </trkpt>
      <trkpt lat="45.03066" lon="5.85922">
        <ele>1435</ele>
        <time>2010-07-04T07:20:57Z</time>
      </trkpt>
      <trkpt lat="45.03064" lon="5.85925">
        <ele>1434</ele>
        <time>2010-07-04T07:20:58Z</time>
      </trkpt>
      <trkpt lat="45.03062" lon="5.85927">
        <ele>1433</ele>
        <time>2010-07-04T07:20:59Z</time>
      </trkpt>
      <trkpt lat="45.0306" lon="5.85929">
        <ele>1432</ele>
        <time>2010-07-04T07:21:00Z</time>
      </trkpt>
      <trkpt lat="45.03058" lon="5.85932">
        <ele>1431</ele>
        <time>2010-07-04T07:21:01Z</time>
      </trkpt>
      <trkpt lat="45.03055" lon="5.85935">
        <ele>1430</ele>
        <time>2010-07-04T07:21:02Z</time>
      </trkpt>
      <trkpt lat="45.03053" lon="5.85937">
        <ele>1429</ele>
        <time>2010-07-04T07:21:03Z</time>
      </trkpt>
      <trkpt lat="45.03051" lon="5.8594">
        <ele>1428</ele>
        <time>2010-07-04T07:21:04Z</time>
      </trkpt>
      <trkpt lat="45.03049" lon="5.85941">
        <ele>1427</ele>
        <time>2010-07-04T07:21:05Z</time>
      </trkpt>
      <trkpt lat="45.03047" lon="5.85944">
        <ele>1426</ele>
        <time>2010-07-04T07:21:06Z</time>
      </trkpt>
      <trkpt lat="45.03045" lon="5.85946">
        <ele>1425</ele>
        <time>2010-07-04T07:21:07Z</time>
      </trkpt>
      <trkpt lat="45.03043" lon="5.85948">
        <ele>1424</ele>
        <time>2010-07-04T07:21:08Z</time>
      </trkpt>
      <trkpt lat="45.03042" lon="5.85949">
        <ele>1423</ele>
        <time>2010-07-04T07:21:09Z</time>
      </trkpt>
      <trkpt lat="45.0304" lon="5.8595">
        <ele>1422</ele>
        <time>2010-07-04T07:21:10Z</time>
      </trkpt>
      <trkpt lat="45.03039" lon="5.85951">
        <ele>1421</ele>
        <time>2010-07-04T07:21:11Z</time>
      </trkpt>
      <trkpt lat="45.03036" lon="5.85952">
        <ele>1420</ele>
        <time>2010-07-04T07:21:12Z</time>
      </trkpt>
      <trkpt lat="45.03034" lon="5.85952">
        <ele>1420</ele>
        <time>2010-07-04T07:21:13Z</time>
      </trkpt>
      <trkpt lat="45.03032" lon="5.85952">
        <ele>1419</ele>
        <time>2010-07-04T07:21:14Z</time>
      </trkpt>
      <trkpt lat="45.0303" lon="5.85953">
        <ele>1418</ele>
        <time>2010-07-04T07:21:15Z</time>
      </trkpt>
      <trkpt lat="45.03028" lon="5.85952">
        <ele>1418</ele>
        <time>2010-07-04T07:21:16Z</time>
      </trkpt>
      <trkpt lat="45.03026" lon="5.85951">
        <ele>1417</ele>
        <time>2010-07-04T07:21:17Z</time>
      </trkpt>
      <trkpt lat="45.03025" lon="5.85948">
        <ele>1417</ele>
        <time>2010-07-04T07:21:18Z</time>
      </trkpt>
      <trkpt lat="45.03025" lon="5.85943">
        <ele>1417</ele>
        <time>2010-07-04T07:21:19Z</time>
      </trkpt>
      <trkpt lat="45.03024" lon="5.8594">
        <ele>1416</ele>
        <time>2010-07-04T07:21:20Z</time>
      </trkpt>
      <trkpt lat="45.03024" lon="5.85937">
        <ele>1415</ele>
        <time>2010-07-04T07:21:21Z</time>
      </trkpt>
      <trkpt lat="45.03024" lon="5.85933">
        <ele>1414</ele>
        <time>2010-07-04T07:21:22Z</time>
      </trkpt>
      <trkpt lat="45.03023" lon="5.85931">
        <ele>1413</ele>
        <time>2010-07-04T07:21:23Z</time>
      </trkpt>
      <trkpt lat="45.03023" lon="5.85928">
        <ele>1412</ele>
        <time>2010-07-04T07:21:24Z</time>
      </trkpt>
      <trkpt lat="45.03022" lon="5.85923">
        <ele>1411</ele>
        <time>2010-07-04T07:21:25Z</time>
      </trkpt>
      <trkpt lat="45.03022" lon="5.85919">
        <ele>1410</ele>
        <time>2010-07-04T07:21:26Z</time>
      </trkpt>
      <trkpt lat="45.0302" lon="5.85915">
        <ele>1409</ele>
        <time>2010-07-04T07:21:27Z</time>
      </trkpt>
      <trkpt lat="45.03019" lon="5.85911">
        <ele>1408</ele>
        <time>2010-07-04T07:21:28Z</time>
      </trkpt>
      <trkpt lat="45.03018" lon="5.85907">
        <ele>1407</ele>
        <time>2010-07-04T07:21:29Z</time>
      </trkpt>
      <trkpt lat="45.03017" lon="5.85904">
        <ele>1406</ele>
        <time>2010-07-04T07:21:30Z</time>
      </trkpt>
      <trkpt lat="45.03016" lon="5.85899">
        <ele>1405</ele>
        <time>2010-07-04T07:21:31Z</time>
      </trkpt>
      <trkpt lat="45.03015" lon="5.85895">
        <ele>1404</ele>
        <time>2010-07-04T07:21:32Z</time>
      </trkpt>
      <trkpt lat="45.03014" lon="5.85893">
        <ele>1404</ele>
        <time>2010-07-04T07:21:33Z</time>
      </trkpt>
      <trkpt lat="45.03013" lon="5.8589">
        <ele>1404</ele>
        <time>2010-07-04T07:21:34Z</time>
      </trkpt>
      <trkpt lat="45.03012" lon="5.85887">
        <ele>1404</ele>
        <time>2010-07-04T07:21:35Z</time>
      </trkpt>
      <trkpt lat="45.0301" lon="5.85884">
        <ele>1403</ele>
        <time>2010-07-04T07:21:36Z</time>
      </trkpt>
      <trkpt lat="45.03009" lon="5.85882">
        <ele>1402</ele>
        <time>2010-07-04T07:21:37Z</time>
      </trkpt>
      <trkpt lat="45.03008" lon="5.85879">
        <ele>1401</ele>
        <time>2010-07-04T07:21:38Z</time>
      </trkpt>
      <trkpt lat="45.03007" lon="5.85875">
        <ele>1400</ele>
        <time>2010-07-04T07:21:39Z</time>
      </trkpt>
      <trkpt lat="45.03007" lon="5.85872">
        <ele>1399</ele>
        <time>2010-07-04T07:21:40Z</time>
      </trkpt>
      <trkpt lat="45.03006" lon="5.85869">
        <ele>1398</ele>
        <time>2010-07-04T07:21:41Z</time>
      </trkpt>
      <trkpt lat="45.03005" lon="5.85865">
        <ele>1397</ele>
        <time>2010-07-04T07:21:42Z</time>
      </trkpt>
      <trkpt lat="45.03003" lon="5.85861">
        <ele>1396</ele>
        <time>2010-07-04T07:21:43Z</time>
      </trkpt>
      <trkpt lat="45.03001" lon="5.85857">
        <ele>1395</ele>
        <time>2010-07-04T07:21:44Z</time>
      </trkpt>
      <trkpt lat="45.03" lon="5.85853">
        <ele>1394</ele>
        <time>2010-07-04T07:21:45Z</time>
      </trkpt>
      <trkpt lat="45.02999" lon="5.85847">
        <ele>1393</ele>
        <time>2010-07-04T07:21:46Z</time>
      </trkpt>
      <trkpt lat="45.02998" lon="5.8584">
        <ele>1392</ele>
        <time>2010-07-04T07:21:47Z</time>
      </trkpt>
      <trkpt lat="45.02997" lon="5.85834">
        <ele>1391</ele>
        <time>2010-07-04T07:21:48Z</time>
      </trkpt>
      <trkpt lat="45.02996" lon="5.85829">
        <ele>1390</ele>
        <time>2010-07-04T07:21:49Z</time>
      </trkpt>
      <trkpt lat="45.02996" lon="5.85824">
        <ele>1389</ele>
        <time>2010-07-04T07:21:50Z</time>
      </trkpt>
      <trkpt lat="45.02996" lon="5.85819">
        <ele>1388</ele>
        <time>2010-07-04T07:21:51Z</time>
      </trkpt>
      <trkpt lat="45.02996" lon="5.85814">
        <ele>1388</ele>
        <time>2010-07-04T07:21:52Z</time>
      </trkpt>
      <trkpt lat="45.02996" lon="5.85809">
        <ele>1387</ele>
        <time>2010-07-04T07:21:53Z</time>
      </trkpt>
      <trkpt lat="45.02995" lon="5.85804">
        <ele>1386</ele>
        <time>2010-07-04T07:21:54Z</time>
      </trkpt>
      <trkpt lat="45.02995" lon="5.85799">
        <ele>1386</ele>
        <time>2010-07-04T07:21:55Z</time>
      </trkpt>
      <trkpt lat="45.02995" lon="5.85793">
        <ele>1385</ele>
        <time>2010-07-04T07:21:56Z</time>
      </trkpt>
      <trkpt lat="45.02995" lon="5.85788">
        <ele>1384</ele>
        <time>2010-07-04T07:21:57Z</time>
      </trkpt>
      <trkpt lat="45.02994" lon="5.85782">
        <ele>1383</ele>
        <time>2010-07-04T07:21:58Z</time>
      </trkpt>
      <trkpt lat="45.02994" lon="5.85777">
        <ele>1382</ele>
        <time>2010-07-04T07:21:59Z</time>
      </trkpt>
      <trkpt lat="45.02994" lon="5.85771">
        <ele>1381</ele>
        <time>2010-07-04T07:22:00Z</time>
      </trkpt>
      <trkpt lat="45.02994" lon="5.85765">
        <ele>1380</ele>
        <time>2010-07-04T07:22:01Z</time>
      </trkpt>
      <trkpt lat="45.02994" lon="5.85759">
        <ele>1379</ele>
        <time>2010-07-04T07:22:02Z</time>
      </trkpt>
      <trkpt lat="45.02995" lon="5.85753">
        <ele>1378</ele>
        <time>2010-07-04T07:22:03Z</time>
      </trkpt>
      <trkpt lat="45.02996" lon="5.85748">
        <ele>1377</ele>
        <time>2010-07-04T07:22:04Z</time>
      </trkpt>
      <trkpt lat="45.02996" lon="5.85742">
        <ele>1376</ele>
        <time>2010-07-04T07:22:05Z</time>
      </trkpt>
      <trkpt lat="45.02997" lon="5.85737">
        <ele>1375</ele>
        <time>2010-07-04T07:22:06Z</time>
      </trkpt>
      <trkpt lat="45.02997" lon="5.85732">
        <ele>1375</ele>
        <time>2010-07-04T07:22:07Z</time>
      </trkpt>
      <trkpt lat="45.02997" lon="5.85727">
        <ele>1374</ele>
        <time>2010-07-04T07:22:08Z</time>
      </trkpt>
      <trkpt lat="45.02997" lon="5.85722">
        <ele>1374</ele>
        <time>2010-07-04T07:22:09Z</time>
      </trkpt>
      <trkpt lat="45.02997" lon="5.85716">
        <ele>1373</ele>
        <time>2010-07-04T07:22:10Z</time>
      </trkpt>
      <trkpt lat="45.02997" lon="5.85711">
        <ele>1372</ele>
        <time>2010-07-04T07:22:11Z</time>
      </trkpt>
      <trkpt lat="45.02997" lon="5.85705">
        <ele>1372</ele>
        <time>2010-07-04T07:22:12Z</time>
      </trkpt>
      <trkpt lat="45.02996" lon="5.85699">
        <ele>1371</ele>
        <time>2010-07-04T07:22:13Z</time>
      </trkpt>
      <trkpt lat="45.02995" lon="5.85694">
        <ele>1370</ele>
        <time>2010-07-04T07:22:14Z</time>
      </trkpt>
      <trkpt lat="45.02995" lon="5.85689">
        <ele>1369</ele>
        <time>2010-07-04T07:22:15Z</time>
      </trkpt>
      <trkpt lat="45.02994" lon="5.85684">
        <ele>1368</ele>
        <time>2010-07-04T07:22:16Z</time>
      </trkpt>
      <trkpt lat="45.02993" lon="5.85678">
        <ele>1367</ele>
        <time>2010-07-04T07:22:17Z</time>
      </trkpt>
      <trkpt lat="45.02993" lon="5.85674">
        <ele>1367</ele>
        <time>2010-07-04T07:22:18Z</time>
      </trkpt>
      <trkpt lat="45.02993" lon="5.85669">
        <ele>1366</ele>
        <time>2010-07-04T07:22:19Z</time>
      </trkpt>
      <trkpt lat="45.02993" lon="5.85664">
        <ele>1365</ele>
        <time>2010-07-04T07:22:20Z</time>
      </trkpt>
      <trkpt lat="45.02992" lon="5.85658">
        <ele>1364</ele>
        <time>2010-07-04T07:22:21Z</time>
      </trkpt>
      <trkpt lat="45.02991" lon="5.85653">
        <ele>1364</ele>
        <time>2010-07-04T07:22:22Z</time>
      </trkpt>
      <trkpt lat="45.02991" lon="5.85647">
        <ele>1363</ele>
        <time>2010-07-04T07:22:23Z</time>
      </trkpt>
      <trkpt lat="45.0299" lon="5.85642">
        <ele>1362</ele>
        <time>2010-07-04T07:22:24Z</time>
      </trkpt>
      <trkpt lat="45.02989" lon="5.85636">
        <ele>1361</ele>
        <time>2010-07-04T07:22:25Z</time>
      </trkpt>
      <trkpt lat="45.02988" lon="5.85631">
        <ele>1360</ele>
        <time>2010-07-04T07:22:26Z</time>
      </trkpt>
      <trkpt lat="45.02988" lon="5.85626">
        <ele>1359</ele>
        <time>2010-07-04T07:22:27Z</time>
      </trkpt>
      <trkpt lat="45.02988" lon="5.8562">
        <ele>1358</ele>
        <time>2010-07-04T07:22:28Z</time>
      </trkpt>
      <trkpt lat="45.02987" lon="5.85614">
        <ele>1357</ele>
        <time>2010-07-04T07:22:29Z</time>
      </trkpt>
      <trkpt lat="45.02987" lon="5.85609">
        <ele>1356</ele>
        <time>2010-07-04T07:22:30Z</time>
      </trkpt>
      <trkpt lat="45.02987" lon="5.85605">
        <ele>1355</ele>
        <time>2010-07-04T07:22:31Z</time>
      </trkpt>
      <trkpt lat="45.02986" lon="5.85599">
        <ele>1355</ele>
        <time>2010-07-04T07:22:32Z</time>
      </trkpt>
      <trkpt lat="45.02985" lon="5.85593">
        <ele>1354</ele>
        <time>2010-07-04T07:22:33Z</time>
      </trkpt>
      <trkpt lat="45.02985" lon="5.85587">
        <ele>1354</ele>
        <time>2010-07-04T07:22:34Z</time>
      </trkpt>
      <trkpt lat="45.02984" lon="5.85582">
        <ele>1354</ele>
        <time>2010-07-04T07:22:35Z</time>
      </trkpt>
      <trkpt lat="45.02983" lon="5.85577">
        <ele>1354</ele>
        <time>2010-07-04T07:22:36Z</time>
      </trkpt>
      <trkpt lat="45.02982" lon="5.85572">
        <ele>1353</ele>
        <time>2010-07-04T07:22:37Z</time>
      </trkpt>
      <trkpt lat="45.0298" lon="5.85566">
        <ele>1353</ele>
        <time>2010-07-04T07:22:38Z</time>
      </trkpt>
      <trkpt lat="45.02978" lon="5.85561">
        <ele>1352</ele>
        <time>2010-07-04T07:22:39Z</time>
      </trkpt>
      <trkpt lat="45.02977" lon="5.85557">
        <ele>1352</ele>
        <time>2010-07-04T07:22:40Z</time>
      </trkpt>
      <trkpt lat="45.02976" lon="5.85551">
        <ele>1351</ele>
        <time>2010-07-04T07:22:41Z</time>
      </trkpt>
      <trkpt lat="45.02974" lon="5.85546">
        <ele>1351</ele>
        <time>2010-07-04T07:22:42Z</time>
      </trkpt>
      <trkpt lat="45.02973" lon="5.85542">
        <ele>1351</ele>
        <time>2010-07-04T07:22:43Z</time>
      </trkpt>
      <trkpt lat="45.02972" lon="5.85537">
        <ele>1350</ele>
        <time>2010-07-04T07:22:44Z</time>
      </trkpt>
      <trkpt lat="45.02971" lon="5.85532">
        <ele>1350</ele>
        <time>2010-07-04T07:22:45Z</time>
      </trkpt>
      <trkpt lat="45.0297" lon="5.85527">
        <ele>1350</ele>
        <time>2010-07-04T07:22:46Z</time>
      </trkpt>
      <trkpt lat="45.02968" lon="5.85522">
        <ele>1349</ele>
        <time>2010-07-04T07:22:47Z</time>
      </trkpt>
      <trkpt lat="45.02967" lon="5.85518">
        <ele>1349</ele>
        <time>2010-07-04T07:22:48Z</time>
      </trkpt>
      <trkpt lat="45.02965" lon="5.85514">
        <ele>1348</ele>
        <time>2010-07-04T07:22:49Z</time>
      </trkpt>
      <trkpt lat="45.02964" lon="5.8551">
        <ele>1348</ele>
        <time>2010-07-04T07:22:50Z</time>
      </trkpt>
      <trkpt lat="45.02963" lon="5.85506">
        <ele>1347</ele>
        <time>2010-07-04T07:22:51Z</time>
      </trkpt>
      <trkpt lat="45.02961" lon="5.85502">
        <ele>1347</ele>
        <time>2010-07-04T07:22:52Z</time>
      </trkpt>
      <trkpt lat="45.02959" lon="5.85498">
        <ele>1347</ele>
        <time>2010-07-04T07:22:53Z</time>
      </trkpt>
      <trkpt lat="45.02957" lon="5.85494">
        <ele>1347</ele>
        <time>2010-07-04T07:22:54Z</time>
      </trkpt>
      <trkpt lat="45.02954" lon="5.8549">
        <ele>1347</ele>
        <time>2010-07-04T07:22:55Z</time>
      </trkpt>
      <trkpt lat="45.02953" lon="5.85485">
        <ele>1347</ele>
        <time>2010-07-04T07:22:56Z</time>
      </trkpt>
      <trkpt lat="45.02951" lon="5.85479">
        <ele>1347</ele>
        <time>2010-07-04T07:22:57Z</time>
      </trkpt>
      <trkpt lat="45.0295" lon="5.85475">
        <ele>1347</ele>
        <time>2010-07-04T07:22:58Z</time>
      </trkpt>
      <trkpt lat="45.02948" lon="5.8547">
        <ele>1347</ele>
        <time>2010-07-04T07:22:59Z</time>
      </trkpt>
      <trkpt lat="45.02946" lon="5.85466">
        <ele>1347</ele>
        <time>2010-07-04T07:23:00Z</time>
      </trkpt>
      <trkpt lat="45.02945" lon="5.85462">
        <ele>1347</ele>
        <time>2010-07-04T07:23:01Z</time>
      </trkpt>
      <trkpt lat="45.02944" lon="5.85459">
        <ele>1347</ele>
        <time>2010-07-04T07:23:02Z</time>
      </trkpt>
      <trkpt lat="45.02942" lon="5.85456">
        <ele>1347</ele>
        <time>2010-07-04T07:23:03Z</time>
      </trkpt>
      <trkpt lat="45.02941" lon="5.85453">
        <ele>1347</ele>
        <time>2010-07-04T07:23:04Z</time>
      </trkpt>
      <trkpt lat="45.0294" lon="5.85449">
        <ele>1347</ele>
        <time>2010-07-04T07:23:05Z</time>
      </trkpt>
      <trkpt lat="45.02939" lon="5.85446">
        <ele>1346</ele>
        <time>2010-07-04T07:23:06Z</time>
      </trkpt>
      <trkpt lat="45.02937" lon="5.85442">
        <ele>1346</ele>
        <time>2010-07-04T07:23:07Z</time>
      </trkpt>
      <trkpt lat="45.02936" lon="5.85439">
        <ele>1346</ele>
        <time>2010-07-04T07:23:08Z</time>
      </trkpt>
      <trkpt lat="45.02934" lon="5.85436">
        <ele>1345</ele>
        <time>2010-07-04T07:23:09Z</time>
      </trkpt>
      <trkpt lat="45.02933" lon="5.85433">
        <ele>1345</ele>
        <time>2010-07-04T07:23:10Z</time>
      </trkpt>
      <trkpt lat="45.02931" lon="5.85429">
        <ele>1345</ele>
        <time>2010-07-04T07:23:11Z</time>
      </trkpt>
      <trkpt lat="45.02929" lon="5.85425">
        <ele>1345</ele>
        <time>2010-07-04T07:23:12Z</time>
      </trkpt>
      <trkpt lat="45.02927" lon="5.85421">
        <ele>1345</ele>
        <time>2010-07-04T07:23:13Z</time>
      </trkpt>
      <trkpt lat="45.02925" lon="5.85418">
        <ele>1345</ele>
        <time>2010-07-04T07:23:14Z</time>
      </trkpt>
      <trkpt lat="45.02923" lon="5.85415">
        <ele>1345</ele>
        <time>2010-07-04T07:23:15Z</time>
      </trkpt>
      <trkpt lat="45.02921" lon="5.85411">
        <ele>1345</ele>
        <time>2010-07-04T07:23:16Z</time>
      </trkpt>
      <trkpt lat="45.0292" lon="5.85408">
        <ele>1345</ele>
        <time>2010-07-04T07:23:17Z</time>
      </trkpt>
      <trkpt lat="45.02918" lon="5.85404">
        <ele>1346</ele>
        <time>2010-07-04T07:23:18Z</time>
      </trkpt>
      <trkpt lat="45.02916" lon="5.85401">
        <ele>1347</ele>
        <time>2010-07-04T07:23:19Z</time>
      </trkpt>
      <trkpt lat="45.02914" lon="5.85397">
        <ele>1347</ele>
        <time>2010-07-04T07:23:20Z</time>
      </trkpt>
      <trkpt lat="45.02912" lon="5.85394">
        <ele>1348</ele>
        <time>2010-07-04T07:23:21Z</time>
      </trkpt>
      <trkpt lat="45.0291" lon="5.8539">
        <ele>1348</ele>
        <time>2010-07-04T07:23:22Z</time>
      </trkpt>
      <trkpt lat="45.02908" lon="5.85386">
        <ele>1349</ele>
        <time>2010-07-04T07:23:23Z</time>
      </trkpt>
      <trkpt lat="45.02906" lon="5.85383">
        <ele>1349</ele>
        <time>2010-07-04T07:23:24Z</time>
      </trkpt>
      <trkpt lat="45.02905" lon="5.85379">
        <ele>1349</ele>
        <time>2010-07-04T07:23:25Z</time>
      </trkpt>
      <trkpt lat="45.02902" lon="5.85376">
        <ele>1350</ele>
        <time>2010-07-04T07:23:26Z</time>
      </trkpt>
      <trkpt lat="45.029" lon="5.85373">
        <ele>1350</ele>
        <time>2010-07-04T07:23:27Z</time>
      </trkpt>
      <trkpt lat="45.02898" lon="5.8537">
        <ele>1351</ele>
        <time>2010-07-04T07:23:28Z</time>
      </trkpt>
      <trkpt lat="45.02896" lon="5.85367">
        <ele>1351</ele>
        <time>2010-07-04T07:23:29Z</time>
      </trkpt>
      <trkpt lat="45.02895" lon="5.85364">
        <ele>1351</ele>
        <time>2010-07-04T07:23:30Z</time>
      </trkpt>
      <trkpt lat="45.02893" lon="5.85361">
        <ele>1352</ele>
        <time>2010-07-04T07:23:31Z</time>
      </trkpt>
      <trkpt lat="45.0289" lon="5.85358">
        <ele>1352</ele>
        <time>2010-07-04T07:23:32Z</time>
      </trkpt>
      <trkpt lat="45.02888" lon="5.85355">
        <ele>1353</ele>
        <time>2010-07-04T07:23:33Z</time>
      </trkpt>
      <trkpt lat="45.02886" lon="5.85352">
        <ele>1353</ele>
        <time>2010-07-04T07:23:34Z</time>
      </trkpt>
      <trkpt lat="45.02884" lon="5.85348">
        <ele>1354</ele>
        <time>2010-07-04T07:23:35Z</time>
      </trkpt>
      <trkpt lat="45.02882" lon="5.85345">
        <ele>1354</ele>
        <time>2010-07-04T07:23:36Z</time>
      </trkpt>
      <trkpt lat="45.0288" lon="5.85342">
        <ele>1355</ele>
        <time>2010-07-04T07:23:37Z</time>
      </trkpt>
      <trkpt lat="45.02878" lon="5.85338">
        <ele>1355</ele>
        <time>2010-07-04T07:23:38Z</time>
      </trkpt>
      <trkpt lat="45.02877" lon="5.85335">
        <ele>1356</ele>
        <time>2010-07-04T07:23:39Z</time>
      </trkpt>
      <trkpt lat="45.02875" lon="5.85332">
        <ele>1356</ele>
        <time>2010-07-04T07:23:40Z</time>
      </trkpt>
      <trkpt lat="45.02873" lon="5.85328">
        <ele>1357</ele>
        <time>2010-07-04T07:23:41Z</time>
      </trkpt>
      <trkpt lat="45.02872" lon="5.85325">
        <ele>1357</ele>
        <time>2010-07-04T07:23:42Z</time>
      </trkpt>
      <trkpt lat="45.0287" lon="5.85322">
        <ele>1357</ele>
        <time>2010-07-04T07:23:43Z</time>
      </trkpt>
      <trkpt lat="45.02868" lon="5.85318">
        <ele>1357</ele>
        <time>2010-07-04T07:23:44Z</time>
      </trkpt>
      <trkpt lat="45.02867" lon="5.85315">
        <ele>1358</ele>
        <time>2010-07-04T07:23:45Z</time>
      </trkpt>
      <trkpt lat="45.02865" lon="5.85312">
        <ele>1358</ele>
        <time>2010-07-04T07:23:46Z</time>
      </trkpt>
      <trkpt lat="45.02864" lon="5.85308">
        <ele>1358</ele>
        <time>2010-07-04T07:23:47Z</time>
      </trkpt>
      <trkpt lat="45.02862" lon="5.85304">
        <ele>1359</ele>
        <time>2010-07-04T07:23:48Z</time>
      </trkpt>
      <trkpt lat="45.02861" lon="5.85301">
        <ele>1359</ele>
        <time>2010-07-04T07:23:49Z</time>
      </trkpt>
      <trkpt lat="45.02859" lon="5.85298">
        <ele>1359</ele>
        <time>2010-07-04T07:23:50Z</time>
      </trkpt>
      <trkpt lat="45.02857" lon="5.85295">
        <ele>1360</ele>
        <time>2010-07-04T07:23:51Z</time>
      </trkpt>
      <trkpt lat="45.02856" lon="5.85292">
        <ele>1360</ele>
        <time>2010-07-04T07:23:52Z</time>
      </trkpt>
      <trkpt lat="45.02854" lon="5.85289">
        <ele>1360</ele>
        <time>2010-07-04T07:23:53Z</time>
      </trkpt>
      <trkpt lat="45.02852" lon="5.85285">
        <ele>1361</ele>
        <time>2010-07-04T07:23:54Z</time>
      </trkpt>
      <trkpt lat="45.0285" lon="5.85283">
        <ele>1361</ele>
        <time>2010-07-04T07:23:55Z</time>
      </trkpt>
      <trkpt lat="45.02848" lon="5.8528">
        <ele>1361</ele>
        <time>2010-07-04T07:23:56Z</time>
      </trkpt>
      <trkpt lat="45.02846" lon="5.85276">
        <ele>1361</ele>
        <time>2010-07-04T07:23:57Z</time>
      </trkpt>
      <trkpt lat="45.02844" lon="5.85273">
        <ele>1362</ele>
        <time>2010-07-04T07:23:58Z</time>
      </trkpt>
      <trkpt lat="45.02842" lon="5.85271">
        <ele>1362</ele>
        <time>2010-07-04T07:23:59Z</time>
      </trkpt>
      <trkpt lat="45.0284" lon="5.85268">
        <ele>1362</ele>
        <time>2010-07-04T07:24:00Z</time>
      </trkpt>
      <trkpt lat="45.02839" lon="5.85265">
        <ele>1362</ele>
        <time>2010-07-04T07:24:01Z</time>
      </trkpt>
      <trkpt lat="45.02837" lon="5.85261">
        <ele>1362</ele>
        <time>2010-07-04T07:24:02Z</time>
      </trkpt>
      <trkpt lat="45.02836" lon="5.85257">
        <ele>1362</ele>
        <time>2010-07-04T07:24:03Z</time>
      </trkpt>
      <trkpt lat="45.02835" lon="5.85254">
        <ele>1362</ele>
        <time>2010-07-04T07:24:04Z</time>
      </trkpt>
      <trkpt lat="45.02834" lon="5.8525">
        <ele>1362</ele>
        <time>2010-07-04T07:24:05Z</time>
      </trkpt>
      <trkpt lat="45.02834" lon="5.85247">
        <ele>1362</ele>
        <time>2010-07-04T07:24:06Z</time>
      </trkpt>
      <trkpt lat="45.02833" lon="5.85244">
        <ele>1362</ele>
        <time>2010-07-04T07:24:07Z</time>
      </trkpt>
      <trkpt lat="45.02833" lon="5.8524">
        <ele>1362</ele>
        <time>2010-07-04T07:24:08Z</time>
      </trkpt>
      <trkpt lat="45.02834" lon="5.85236">
        <ele>1362</ele>
        <time>2010-07-04T07:24:09Z</time>
      </trkpt>
      <trkpt lat="45.02835" lon="5.85232">
        <ele>1362</ele>
        <time>2010-07-04T07:24:10Z</time>
      </trkpt>
      <trkpt lat="45.02837" lon="5.85228">
        <ele>1362</ele>
        <time>2010-07-04T07:24:11Z</time>
      </trkpt>
      <trkpt lat="45.02839" lon="5.85224">
        <ele>1362</ele>
        <time>2010-07-04T07:24:12Z</time>
      </trkpt>
      <trkpt lat="45.02841" lon="5.85221">
        <ele>1362</ele>
        <time>2010-07-04T07:24:13Z</time>
      </trkpt>
      <trkpt lat="45.02843" lon="5.85217">
        <ele>1362</ele>
        <time>2010-07-04T07:24:14Z</time>
      </trkpt>
      <trkpt lat="45.02845" lon="5.85214">
        <ele>1362</ele>
        <time>2010-07-04T07:24:15Z</time>
      </trkpt>
      <trkpt lat="45.02847" lon="5.8521">
        <ele>1362</ele>
        <time>2010-07-04T07:24:16Z</time>
      </trkpt>
      <trkpt lat="45.02849" lon="5.85205">
        <ele>1362</ele>
        <time>2010-07-04T07:24:17Z</time>
      </trkpt>
      <trkpt lat="45.02851" lon="5.85202">
        <ele>1362</ele>
        <time>2010-07-04T07:24:18Z</time>
      </trkpt>
      <trkpt lat="45.02854" lon="5.85198">
        <ele>1362</ele>
        <time>2010-07-04T07:24:19Z</time>
      </trkpt>
      <trkpt lat="45.02856" lon="5.85194">
        <ele>1362</ele>
        <time>2010-07-04T07:24:20Z</time>
      </trkpt>
      <trkpt lat="45.02858" lon="5.8519">
        <ele>1362</ele>
        <time>2010-07-04T07:24:21Z</time>
      </trkpt>
      <trkpt lat="45.0286" lon="5.85186">
        <ele>1362</ele>
        <time>2010-07-04T07:24:22Z</time>
      </trkpt>
      <trkpt lat="45.02863" lon="5.85183">
        <ele>1362</ele>
        <time>2010-07-04T07:24:23Z</time>
      </trkpt>
      <trkpt lat="45.02865" lon="5.8518">
        <ele>1362</ele>
        <time>2010-07-04T07:24:24Z</time>
      </trkpt>
      <trkpt lat="45.02867" lon="5.85176">
        <ele>1362</ele>
        <time>2010-07-04T07:24:25Z</time>
      </trkpt>
      <trkpt lat="45.0287" lon="5.85173">
        <ele>1362</ele>
        <time>2010-07-04T07:24:26Z</time>
      </trkpt>
      <trkpt lat="45.02872" lon="5.85169">
        <ele>1363</ele>
        <time>2010-07-04T07:24:27Z</time>
      </trkpt>
      <trkpt lat="45.02875" lon="5.85166">
        <ele>1363</ele>
        <time>2010-07-04T07:24:28Z</time>
      </trkpt>
      <trkpt lat="45.02877" lon="5.85163">
        <ele>1363</ele>
        <time>2010-07-04T07:24:29Z</time>
      </trkpt>
      <trkpt lat="45.0288" lon="5.8516">
        <ele>1363</ele>
        <time>2010-07-04T07:24:30Z</time>
      </trkpt>
      <trkpt lat="45.02882" lon="5.85157">
        <ele>1363</ele>
        <time>2010-07-04T07:24:31Z</time>
      </trkpt>
      <trkpt lat="45.02885" lon="5.85154">
        <ele>1363</ele>
        <time>2010-07-04T07:24:32Z</time>
      </trkpt>
      <trkpt lat="45.02887" lon="5.85152">
        <ele>1363</ele>
        <time>2010-07-04T07:24:33Z</time>
      </trkpt>
      <trkpt lat="45.0289" lon="5.85149">
        <ele>1363</ele>
        <time>2010-07-04T07:24:34Z</time>
      </trkpt>
      <trkpt lat="45.02893" lon="5.85146">
        <ele>1363</ele>
        <time>2010-07-04T07:24:35Z</time>
      </trkpt>
      <trkpt lat="45.02895" lon="5.85142">
        <ele>1363</ele>
        <time>2010-07-04T07:24:36Z</time>
      </trkpt>
      <trkpt lat="45.02898" lon="5.8514">
        <ele>1363</ele>
        <time>2010-07-04T07:24:37Z</time>
      </trkpt>
      <trkpt lat="45.02901" lon="5.85136">
        <ele>1363</ele>
        <time>2010-07-04T07:24:38Z</time>
      </trkpt>
      <trkpt lat="45.02903" lon="5.85133">
        <ele>1363</ele>
        <time>2010-07-04T07:24:39Z</time>
      </trkpt>
      <trkpt lat="45.02906" lon="5.85131">
        <ele>1363</ele>
        <time>2010-07-04T07:24:40Z</time>
      </trkpt>
      <trkpt lat="45.02908" lon="5.85127">
        <ele>1363</ele>
        <time>2010-07-04T07:24:41Z</time>
      </trkpt>
      <trkpt lat="45.0291" lon="5.85124">
        <ele>1363</ele>
        <time>2010-07-04T07:24:42Z</time>
      </trkpt>
      <trkpt lat="45.02912" lon="5.85121">
        <ele>1363</ele>
        <time>2010-07-04T07:24:43Z</time>
      </trkpt>
      <trkpt lat="45.02915" lon="5.85118">
        <ele>1363</ele>
        <time>2010-07-04T07:24:44Z</time>
      </trkpt>
      <trkpt lat="45.02917" lon="5.85115">
        <ele>1363</ele>
        <time>2010-07-04T07:24:45Z</time>
      </trkpt>
      <trkpt lat="45.0292" lon="5.85112">
        <ele>1363</ele>
        <time>2010-07-04T07:24:46Z</time>
      </trkpt>
      <trkpt lat="45.02922" lon="5.85109">
        <ele>1363</ele>
        <time>2010-07-04T07:24:47Z</time>
      </trkpt>
      <trkpt lat="45.02925" lon="5.85106">
        <ele>1363</ele>
        <time>2010-07-04T07:24:48Z</time>
      </trkpt>
      <trkpt lat="45.02928" lon="5.85103">
        <ele>1363</ele>
        <time>2010-07-04T07:24:49Z</time>
      </trkpt>
      <trkpt lat="45.0293" lon="5.85099">
        <ele>1363</ele>
        <time>2010-07-04T07:24:50Z</time>
      </trkpt>
      <trkpt lat="45.02933" lon="5.85096">
        <ele>1363</ele>
        <time>2010-07-04T07:24:51Z</time>
      </trkpt>
      <trkpt lat="45.02935" lon="5.85094">
        <ele>1363</ele>
        <time>2010-07-04T07:24:52Z</time>
      </trkpt>
      <trkpt lat="45.02938" lon="5.85091">
        <ele>1363</ele>
        <time>2010-07-04T07:24:53Z</time>
      </trkpt>
      <trkpt lat="45.02941" lon="5.85088">
        <ele>1363</ele>
        <time>2010-07-04T07:24:54Z</time>
      </trkpt>
      <trkpt lat="45.02944" lon="5.85086">
        <ele>1363</ele>
        <time>2010-07-04T07:24:55Z</time>
      </trkpt>
      <trkpt lat="45.02947" lon="5.85084">
        <ele>1363</ele>
        <time>2010-07-04T07:24:56Z</time>
      </trkpt>
      <trkpt lat="45.0295" lon="5.85081">
        <ele>1363</ele>
        <time>2010-07-04T07:24:57Z</time>
      </trkpt>
      <trkpt lat="45.02953" lon="5.85079">
        <ele>1363</ele>
        <time>2010-07-04T07:24:58Z</time>
      </trkpt>
      <trkpt lat="45.02956" lon="5.85077">
        <ele>1362</ele>
        <time>2010-07-04T07:24:59Z</time>
      </trkpt>
      <trkpt lat="45.02959" lon="5.85076">
        <ele>1362</ele>
        <time>2010-07-04T07:25:00Z</time>
      </trkpt>
      <trkpt lat="45.02962" lon="5.85074">
        <ele>1361</ele>
        <time>2010-07-04T07:25:01Z</time>
      </trkpt>
      <trkpt lat="45.02965" lon="5.85073">
        <ele>1361</ele>
        <time>2010-07-04T07:25:02Z</time>
      </trkpt>
      <trkpt lat="45.02968" lon="5.85071">
        <ele>1360</ele>
        <time>2010-07-04T07:25:03Z</time>
      </trkpt>
      <trkpt lat="45.0297" lon="5.85068">
        <ele>1360</ele>
        <time>2010-07-04T07:25:04Z</time>
      </trkpt>
      <trkpt lat="45.02972" lon="5.85064">
        <ele>1359</ele>
        <time>2010-07-04T07:25:05Z</time>
      </trkpt>
      <trkpt lat="45.02974" lon="5.8506">
        <ele>1359</ele>
        <time>2010-07-04T07:25:06Z</time>
      </trkpt>
      <trkpt lat="45.02976" lon="5.85056">
        <ele>1358</ele>
        <time>2010-07-04T07:25:07Z</time>
      </trkpt>
      <trkpt lat="45.02978" lon="5.85051">
        <ele>1358</ele>
        <time>2010-07-04T07:25:08Z</time>
      </trkpt>
      <trkpt lat="45.02979" lon="5.85046">
        <ele>1358</ele>
        <time>2010-07-04T07:25:09Z</time>
      </trkpt>
      <trkpt lat="45.02981" lon="5.85042">
        <ele>1358</ele>
        <time>2010-07-04T07:25:10Z</time>
      </trkpt>
      <trkpt lat="45.02983" lon="5.85039">
        <ele>1358</ele>
        <time>2010-07-04T07:25:11Z</time>
      </trkpt>
      <trkpt lat="45.02986" lon="5.85035">
        <ele>1358</ele>
        <time>2010-07-04T07:25:12Z</time>
      </trkpt>
      <trkpt lat="45.02988" lon="5.85031">
        <ele>1358</ele>
        <time>2010-07-04T07:25:13Z</time>
      </trkpt>
      <trkpt lat="45.02989" lon="5.85027">
        <ele>1358</ele>
        <time>2010-07-04T07:25:14Z</time>
      </trkpt>
      <trkpt lat="45.02992" lon="5.85024">
        <ele>1358</ele>
        <time>2010-07-04T07:25:15Z</time>
      </trkpt>
      <trkpt lat="45.02994" lon="5.85021">
        <ele>1358</ele>
        <time>2010-07-04T07:25:16Z</time>
      </trkpt>
      <trkpt lat="45.02997" lon="5.85018">
        <ele>1358</ele>
        <time>2010-07-04T07:25:17Z</time>
      </trkpt>
      <trkpt lat="45.02999" lon="5.85014">
        <ele>1358</ele>
        <time>2010-07-04T07:25:18Z</time>
      </trkpt>
      <trkpt lat="45.03002" lon="5.85011">
        <ele>1358</ele>
        <time>2010-07-04T07:25:19Z</time>
      </trkpt>
      <trkpt lat="45.03004" lon="5.85008">
        <ele>1358</ele>
        <time>2010-07-04T07:25:20Z</time>
      </trkpt>
      <trkpt lat="45.03006" lon="5.85003">
        <ele>1358</ele>
        <time>2010-07-04T07:25:21Z</time>
      </trkpt>
      <trkpt lat="45.03008" lon="5.84999">
        <ele>1358</ele>
        <time>2010-07-04T07:25:22Z</time>
      </trkpt>
      <trkpt lat="45.0301" lon="5.84996">
        <ele>1358</ele>
        <time>2010-07-04T07:25:23Z</time>
      </trkpt>
      <trkpt lat="45.03012" lon="5.84992">
        <ele>1358</ele>
        <time>2010-07-04T07:25:24Z</time>
      </trkpt>
      <trkpt lat="45.03014" lon="5.84989">
        <ele>1358</ele>
        <time>2010-07-04T07:25:25Z</time>
      </trkpt>
      <trkpt lat="45.03016" lon="5.84985">
        <ele>1358</ele>
        <time>2010-07-04T07:25:26Z</time>
      </trkpt>
      <trkpt lat="45.03018" lon="5.84981">
        <ele>1358</ele>
        <time>2010-07-04T07:25:27Z</time>
      </trkpt>
      <trkpt lat="45.0302" lon="5.84978">
        <ele>1358</ele>
        <time>2010-07-04T07:25:28Z</time>
      </trkpt>
      <trkpt lat="45.03022" lon="5.84974">
        <ele>1358</ele>
        <time>2010-07-04T07:25:29Z</time>
      </trkpt>
      <trkpt lat="45.03024" lon="5.84971">
        <ele>1358</ele>
        <time>2010-07-04T07:25:30Z</time>
      </trkpt>
      <trkpt lat="45.03026" lon="5.84968">
        <ele>1358</ele>
        <time>2010-07-04T07:25:31Z</time>
      </trkpt>
      <trkpt lat="45.03028" lon="5.84964">
        <ele>1358</ele>
        <time>2010-07-04T07:25:32Z</time>
      </trkpt>
      <trkpt lat="45.03031" lon="5.8496">
        <ele>1358</ele>
        <time>2010-07-04T07:25:33Z</time>
      </trkpt>
      <trkpt lat="45.03033" lon="5.84956">
        <ele>1358</ele>
        <time>2010-07-04T07:25:34Z</time>
      </trkpt>
      <trkpt lat="45.03035" lon="5.84953">
        <ele>1358</ele>
        <time>2010-07-04T07:25:35Z</time>
      </trkpt>
      <trkpt lat="45.03038" lon="5.84949">
        <ele>1358</ele>
        <time>2010-07-04T07:25:36Z</time>
      </trkpt>
      <trkpt lat="45.0304" lon="5.84946">
        <ele>1358</ele>
        <time>2010-07-04T07:25:37Z</time>
      </trkpt>
      <trkpt lat="45.03042" lon="5.84942">
        <ele>1358</ele>
        <time>2010-07-04T07:25:38Z</time>
      </trkpt>
      <trkpt lat="45.03044" lon="5.84938">
        <ele>1358</ele>
        <time>2010-07-04T07:25:39Z</time>
      </trkpt>
      <trkpt lat="45.03046" lon="5.84934">
        <ele>1358</ele>
        <time>2010-07-04T07:25:40Z</time>
      </trkpt>
      <trkpt lat="45.03049" lon="5.8493">
        <ele>1358</ele>
        <time>2010-07-04T07:25:41Z</time>
      </trkpt>
      <trkpt lat="45.0305" lon="5.84927">
        <ele>1358</ele>
        <time>2010-07-04T07:25:42Z</time>
      </trkpt>
      <trkpt lat="45.03052" lon="5.84923">
        <ele>1358</ele>
        <time>2010-07-04T07:25:43Z</time>
      </trkpt>
      <trkpt lat="45.03055" lon="5.8492">
        <ele>1358</ele>
        <time>2010-07-04T07:25:44Z</time>
      </trkpt>
      <trkpt lat="45.03057" lon="5.84916">
        <ele>1358</ele>
        <time>2010-07-04T07:25:45Z</time>
      </trkpt>
      <trkpt lat="45.03059" lon="5.84912">
        <ele>1358</ele>
        <time>2010-07-04T07:25:46Z</time>
      </trkpt>
      <trkpt lat="45.03062" lon="5.84908">
        <ele>1358</ele>
        <time>2010-07-04T07:25:47Z</time>
      </trkpt>
      <trkpt lat="45.03064" lon="5.84904">
        <ele>1358</ele>
        <time>2010-07-04T07:25:48Z</time>
      </trkpt>
      <trkpt lat="45.03067" lon="5.84901">
        <ele>1358</ele>
        <time>2010-07-04T07:25:49Z</time>
      </trkpt>
      <trkpt lat="45.0307" lon="5.84898">
        <ele>1358</ele>
        <time>2010-07-04T07:25:50Z</time>
      </trkpt>
      <trkpt lat="45.03073" lon="5.84895">
        <ele>1358</ele>
        <time>2010-07-04T07:25:51Z</time>
      </trkpt>
      <trkpt lat="45.03075" lon="5.84892">
        <ele>1358</ele>
        <time>2010-07-04T07:25:52Z</time>
      </trkpt>
      <trkpt lat="45.03078" lon="5.84889">
        <ele>1358</ele>
        <time>2010-07-04T07:25:53Z</time>
      </trkpt>
      <trkpt lat="45.03081" lon="5.84886">
        <ele>1358</ele>
        <time>2010-07-04T07:25:54Z</time>
      </trkpt>
      <trkpt lat="45.03084" lon="5.84884">
        <ele>1358</ele>
        <time>2010-07-04T07:25:55Z</time>
      </trkpt>
      <trkpt lat="45.03087" lon="5.84881">
        <ele>1358</ele>
        <time>2010-07-04T07:25:56Z</time>
      </trkpt>
      <trkpt lat="45.0309" lon="5.84878">
        <ele>1358</ele>
        <time>2010-07-04T07:25:57Z</time>
      </trkpt>
      <trkpt lat="45.03093" lon="5.84876">
        <ele>1358</ele>
        <time>2010-07-04T07:25:58Z</time>
      </trkpt>
      <trkpt lat="45.03096" lon="5.84873">
        <ele>1358</ele>
        <time>2010-07-04T07:25:59Z</time>
      </trkpt>
      <trkpt lat="45.03098" lon="5.84871">
        <ele>1358</ele>
        <time>2010-07-04T07:26:00Z</time>
      </trkpt>
      <trkpt lat="45.03101" lon="5.84869">
        <ele>1358</ele>
        <time>2010-07-04T07:26:01Z</time>
      </trkpt>
      <trkpt lat="45.03105" lon="5.84866">
        <ele>1358</ele>
        <time>2010-07-04T07:26:02Z</time>
      </trkpt>
      <trkpt lat="45.03108" lon="5.84864">
        <ele>1358</ele>
        <time>2010-07-04T07:26:03Z</time>
      </trkpt>
      <trkpt lat="45.03111" lon="5.84862">
        <ele>1358</ele>
        <time>2010-07-04T07:26:04Z</time>
      </trkpt>
      <trkpt lat="45.03113" lon="5.8486">
        <ele>1357</ele>
        <time>2010-07-04T07:26:05Z</time>
      </trkpt>
      <trkpt lat="45.03116" lon="5.84857">
        <ele>1357</ele>
        <time>2010-07-04T07:26:06Z</time>
      </trkpt>
      <trkpt lat="45.03119" lon="5.84856">
        <ele>1357</ele>
        <time>2010-07-04T07:26:07Z</time>
      </trkpt>
      <trkpt lat="45.03122" lon="5.84854">
        <ele>1357</ele>
        <time>2010-07-04T07:26:08Z</time>
      </trkpt>
      <trkpt lat="45.03125" lon="5.84852">
        <ele>1356</ele>
        <time>2010-07-04T07:26:09Z</time>
      </trkpt>
      <trkpt lat="45.03128" lon="5.8485">
        <ele>1356</ele>
        <time>2010-07-04T07:26:10Z</time>
      </trkpt>
      <trkpt lat="45.03131" lon="5.84848">
        <ele>1355</ele>
        <time>2010-07-04T07:26:11Z</time>
      </trkpt>
      <trkpt lat="45.03134" lon="5.84845">
        <ele>1355</ele>
        <time>2010-07-04T07:26:12Z</time>
      </trkpt>
      <trkpt lat="45.03137" lon="5.84843">
        <ele>1354</ele>
        <time>2010-07-04T07:26:13Z</time>
      </trkpt>
      <trkpt lat="45.0314" lon="5.84841">
        <ele>1354</ele>
        <time>2010-07-04T07:26:14Z</time>
      </trkpt>
      <trkpt lat="45.03144" lon="5.84838">
        <ele>1354</ele>
        <time>2010-07-04T07:26:15Z</time>
      </trkpt>
      <trkpt lat="45.03148" lon="5.84835">
        <ele>1353</ele>
        <time>2010-07-04T07:26:16Z</time>
      </trkpt>
      <trkpt lat="45.03152" lon="5.84832">
        <ele>1353</ele>
        <time>2010-07-04T07:26:17Z</time>
      </trkpt>
      <trkpt lat="45.03155" lon="5.84829">
        <ele>1353</ele>
        <time>2010-07-04T07:26:18Z</time>
      </trkpt>
      <trkpt lat="45.03159" lon="5.84827">
        <ele>1353</ele>
        <time>2010-07-04T07:26:19Z</time>
      </trkpt>
      <trkpt lat="45.03162" lon="5.84824">
        <ele>1352</ele>
        <time>2010-07-04T07:26:20Z</time>
      </trkpt>
      <trkpt lat="45.03165" lon="5.84823">
        <ele>1352</ele>
        <time>2010-07-04T07:26:21Z</time>
      </trkpt>
      <trkpt lat="45.03168" lon="5.8482">
        <ele>1352</ele>
        <time>2010-07-04T07:26:22Z</time>
      </trkpt>
      <trkpt lat="45.03171" lon="5.84818">
        <ele>1352</ele>
        <time>2010-07-04T07:26:23Z</time>
      </trkpt>
      <trkpt lat="45.03174" lon="5.84816">
        <ele>1351</ele>
        <time>2010-07-04T07:26:24Z</time>
      </trkpt>
      <trkpt lat="45.03178" lon="5.84814">
        <ele>1351</ele>
        <time>2010-07-04T07:26:25Z</time>
      </trkpt>
      <trkpt lat="45.03181" lon="5.84811">
        <ele>1351</ele>
        <time>2010-07-04T07:26:26Z</time>
      </trkpt>
      <trkpt lat="45.03183" lon="5.84809">
        <ele>1350</ele>
        <time>2010-07-04T07:26:27Z</time>
      </trkpt>
      <trkpt lat="45.03186" lon="5.84806">
        <ele>1350</ele>
        <time>2010-07-04T07:26:28Z</time>
      </trkpt>
      <trkpt lat="45.03189" lon="5.84804">
        <ele>1349</ele>
        <time>2010-07-04T07:26:29Z</time>
      </trkpt>
      <trkpt lat="45.03193" lon="5.84802">
        <ele>1348</ele>
        <time>2010-07-04T07:26:30Z</time>
      </trkpt>
      <trkpt lat="45.03196" lon="5.84801">
        <ele>1348</ele>
        <time>2010-07-04T07:26:31Z</time>
      </trkpt>
      <trkpt lat="45.03199" lon="5.84799">
        <ele>1347</ele>
        <time>2010-07-04T07:26:32Z</time>
      </trkpt>
      <trkpt lat="45.03202" lon="5.84796">
        <ele>1346</ele>
        <time>2010-07-04T07:26:33Z</time>
      </trkpt>
      <trkpt lat="45.03204" lon="5.84794">
        <ele>1346</ele>
        <time>2010-07-04T07:26:34Z</time>
      </trkpt>
      <trkpt lat="45.03207" lon="5.84791">
        <ele>1346</ele>
        <time>2010-07-04T07:26:35Z</time>
      </trkpt>
      <trkpt lat="45.0321" lon="5.84788">
        <ele>1346</ele>
        <time>2010-07-04T07:26:36Z</time>
      </trkpt>
      <trkpt lat="45.03213" lon="5.84785">
        <ele>1346</ele>
        <time>2010-07-04T07:26:37Z</time>
      </trkpt>
      <trkpt lat="45.03217" lon="5.84783">
        <ele>1345</ele>
        <time>2010-07-04T07:26:38Z</time>
      </trkpt>
      <trkpt lat="45.0322" lon="5.8478">
        <ele>1345</ele>
        <time>2010-07-04T07:26:39Z</time>
      </trkpt>
      <trkpt lat="45.03223" lon="5.84777">
        <ele>1345</ele>
        <time>2010-07-04T07:26:40Z</time>
      </trkpt>
      <trkpt lat="45.03226" lon="5.84774">
        <ele>1344</ele>
        <time>2010-07-04T07:26:41Z</time>
      </trkpt>
      <trkpt lat="45.03229" lon="5.84772">
        <ele>1344</ele>
        <time>2010-07-04T07:26:42Z</time>
      </trkpt>
      <trkpt lat="45.03232" lon="5.84769">
        <ele>1344</ele>
        <time>2010-07-04T07:26:43Z</time>
      </trkpt>
      <trkpt lat="45.03235" lon="5.84767">
        <ele>1343</ele>
        <time>2010-07-04T07:26:44Z</time>
      </trkpt>
      <trkpt lat="45.03238" lon="5.84763">
        <ele>1343</ele>
        <time>2010-07-04T07:26:45Z</time>
      </trkpt>
      <trkpt lat="45.03241" lon="5.8476">
        <ele>1343</ele>
        <time>2010-07-04T07:26:46Z</time>
      </trkpt>
      <trkpt lat="45.03244" lon="5.84757">
        <ele>1343</ele>
        <time>2010-07-04T07:26:47Z</time>
      </trkpt>
      <trkpt lat="45.03247" lon="5.84754">
        <ele>1343</ele>
        <time>2010-07-04T07:26:48Z</time>
      </trkpt>
      <trkpt lat="45.0325" lon="5.84751">
        <ele>1343</ele>
        <time>2010-07-04T07:26:49Z</time>
      </trkpt>
      <trkpt lat="45.03253" lon="5.84748">
        <ele>1343</ele>
        <time>2010-07-04T07:26:50Z</time>
      </trkpt>
      <trkpt lat="45.03256" lon="5.84745">
        <ele>1343</ele>
        <time>2010-07-04T07:26:51Z</time>
      </trkpt>
      <trkpt lat="45.03259" lon="5.84742">
        <ele>1343</ele>
        <time>2010-07-04T07:26:52Z</time>
      </trkpt>
      <trkpt lat="45.03261" lon="5.84738">
        <ele>1343</ele>
        <time>2010-07-04T07:26:53Z</time>
      </trkpt>
      <trkpt lat="45.03264" lon="5.84735">
        <ele>1343</ele>
        <time>2010-07-04T07:26:54Z</time>
      </trkpt>
      <trkpt lat="45.03267" lon="5.84732">
        <ele>1343</ele>
        <time>2010-07-04T07:26:55Z</time>
      </trkpt>
      <trkpt lat="45.03269" lon="5.84729">
        <ele>1343</ele>
        <time>2010-07-04T07:26:56Z</time>
      </trkpt>
      <trkpt lat="45.03272" lon="5.84727">
        <ele>1343</ele>
        <time>2010-07-04T07:26:57Z</time>
      </trkpt>
      <trkpt lat="45.03274" lon="5.84725">
        <ele>1343</ele>
        <time>2010-07-04T07:26:58Z</time>
      </trkpt>
      <trkpt lat="45.03276" lon="5.84722">
        <ele>1343</ele>
        <time>2010-07-04T07:26:59Z</time>
      </trkpt>
      <trkpt lat="45.03278" lon="5.84718">
        <ele>1343</ele>
        <time>2010-07-04T07:27:00Z</time>
      </trkpt>
      <trkpt lat="45.03281" lon="5.84715">
        <ele>1343</ele>
        <time>2010-07-04T07:27:01Z</time>
      </trkpt>
      <trkpt lat="45.03283" lon="5.84712">
        <ele>1343</ele>
        <time>2010-07-04T07:27:02Z</time>
      </trkpt>
      <trkpt lat="45.03286" lon="5.84708">
        <ele>1343</ele>
        <time>2010-07-04T07:27:03Z</time>
      </trkpt>
      <trkpt lat="45.03289" lon="5.84705">
        <ele>1343</ele>
        <time>2010-07-04T07:27:04Z</time>
      </trkpt>
      <trkpt lat="45.03292" lon="5.84703">
        <ele>1343</ele>
        <time>2010-07-04T07:27:05Z</time>
      </trkpt>
      <trkpt lat="45.03294" lon="5.84701">
        <ele>1343</ele>
        <time>2010-07-04T07:27:06Z</time>
      </trkpt>
      <trkpt lat="45.03297" lon="5.84698">
        <ele>1343</ele>
        <time>2010-07-04T07:27:07Z</time>
      </trkpt>
      <trkpt lat="45.033" lon="5.84695">
        <ele>1343</ele>
        <time>2010-07-04T07:27:08Z</time>
      </trkpt>
      <trkpt lat="45.03303" lon="5.84693">
        <ele>1343</ele>
        <time>2010-07-04T07:27:09Z</time>
      </trkpt>
      <trkpt lat="45.03306" lon="5.84691">
        <ele>1344</ele>
        <time>2010-07-04T07:27:10Z</time>
      </trkpt>
      <trkpt lat="45.03309" lon="5.8469">
        <ele>1345</ele>
        <time>2010-07-04T07:27:11Z</time>
      </trkpt>
      <trkpt lat="45.03313" lon="5.84689">
        <ele>1346</ele>
        <time>2010-07-04T07:27:12Z</time>
      </trkpt>
      <trkpt lat="45.03315" lon="5.84687">
        <ele>1347</ele>
        <time>2010-07-04T07:27:13Z</time>
      </trkpt>
      <trkpt lat="45.03318" lon="5.84685">
        <ele>1347</ele>
        <time>2010-07-04T07:27:14Z</time>
      </trkpt>
      <trkpt lat="45.03321" lon="5.84683">
        <ele>1348</ele>
        <time>2010-07-04T07:27:15Z</time>
      </trkpt>
      <trkpt lat="45.03324" lon="5.8468">
        <ele>1349</ele>
        <time>2010-07-04T07:27:16Z</time>
      </trkpt>
      <trkpt lat="45.03326" lon="5.84678">
        <ele>1350</ele>
        <time>2010-07-04T07:27:17Z</time>
      </trkpt>
      <trkpt lat="45.03329" lon="5.84674">
        <ele>1350</ele>
        <time>2010-07-04T07:27:18Z</time>
      </trkpt>
      <trkpt lat="45.03333" lon="5.84672">
        <ele>1350</ele>
        <time>2010-07-04T07:27:19Z</time>
      </trkpt>
      <trkpt lat="45.03336" lon="5.84669">
        <ele>1350</ele>
        <time>2010-07-04T07:27:20Z</time>
      </trkpt>
      <trkpt lat="45.0334" lon="5.84666">
        <ele>1350</ele>
        <time>2010-07-04T07:27:21Z</time>
      </trkpt>
      <trkpt lat="45.03343" lon="5.84662">
        <ele>1350</ele>
        <time>2010-07-04T07:27:22Z</time>
      </trkpt>
      <trkpt lat="45.03346" lon="5.84658">
        <ele>1350</ele>
        <time>2010-07-04T07:27:23Z</time>
      </trkpt>
      <trkpt lat="45.03349" lon="5.84655">
        <ele>1350</ele>
        <time>2010-07-04T07:27:24Z</time>
      </trkpt>
      <trkpt lat="45.03352" lon="5.84652">
        <ele>1349</ele>
        <time>2010-07-04T07:27:25Z</time>
      </trkpt>
      <trkpt lat="45.03356" lon="5.84648">
        <ele>1348</ele>
        <time>2010-07-04T07:27:26Z</time>
      </trkpt>
      <trkpt lat="45.03359" lon="5.84645">
        <ele>1348</ele>
        <time>2010-07-04T07:27:27Z</time>
      </trkpt>
      <trkpt lat="45.03363" lon="5.84643">
        <ele>1347</ele>
        <time>2010-07-04T07:27:28Z</time>
      </trkpt>
      <trkpt lat="45.03366" lon="5.84639">
        <ele>1347</ele>
        <time>2010-07-04T07:27:29Z</time>
      </trkpt>
      <trkpt lat="45.03369" lon="5.84636">
        <ele>1346</ele>
        <time>2010-07-04T07:27:30Z</time>
      </trkpt>
      <trkpt lat="45.03372" lon="5.84633">
        <ele>1346</ele>
        <time>2010-07-04T07:27:31Z</time>
      </trkpt>
      <trkpt lat="45.03375" lon="5.8463">
        <ele>1345</ele>
        <time>2010-07-04T07:27:32Z</time>
      </trkpt>
      <trkpt lat="45.03378" lon="5.84628">
        <ele>1344</ele>
        <time>2010-07-04T07:27:33Z</time>
      </trkpt>
      <trkpt lat="45.03381" lon="5.84626">
        <ele>1344</ele>
        <time>2010-07-04T07:27:34Z</time>
      </trkpt>
      <trkpt lat="45.03384" lon="5.84624">
        <ele>1344</ele>
        <time>2010-07-04T07:27:35Z</time>
      </trkpt>
      <trkpt lat="45.03388" lon="5.84621">
        <ele>1344</ele>
        <time>2010-07-04T07:27:36Z</time>
      </trkpt>
      <trkpt lat="45.03391" lon="5.84618">
        <ele>1344</ele>
        <time>2010-07-04T07:27:37Z</time>
      </trkpt>
      <trkpt lat="45.03394" lon="5.84616">
        <ele>1343</ele>
        <time>2010-07-04T07:27:38Z</time>
      </trkpt>
      <trkpt lat="45.03397" lon="5.84613">
        <ele>1343</ele>
        <time>2010-07-04T07:27:39Z</time>
      </trkpt>
      <trkpt lat="45.03401" lon="5.84611">
        <ele>1343</ele>
        <time>2010-07-04T07:27:40Z</time>
      </trkpt>
      <trkpt lat="45.03404" lon="5.84608">
        <ele>1343</ele>
        <time>2010-07-04T07:27:41Z</time>
      </trkpt>
      <trkpt lat="45.03407" lon="5.84606">
        <ele>1343</ele>
        <time>2010-07-04T07:27:42Z</time>
      </trkpt>
      <trkpt lat="45.03409" lon="5.84604">
        <ele>1343</ele>
        <time>2010-07-04T07:27:43Z</time>
      </trkpt>
      <trkpt lat="45.03413" lon="5.84601">
        <ele>1343</ele>
        <time>2010-07-04T07:27:44Z</time>
      </trkpt>
      <trkpt lat="45.03416" lon="5.846">
        <ele>1343</ele>
        <time>2010-07-04T07:27:45Z</time>
      </trkpt>
      <trkpt lat="45.03419" lon="5.84598">
        <ele>1343</ele>
        <time>2010-07-04T07:27:46Z</time>
      </trkpt>
      <trkpt lat="45.03422" lon="5.84596">
        <ele>1343</ele>
        <time>2010-07-04T07:27:47Z</time>
      </trkpt>
      <trkpt lat="45.03425" lon="5.84594">
        <ele>1342</ele>
        <time>2010-07-04T07:27:48Z</time>
      </trkpt>
      <trkpt lat="45.03429" lon="5.84593">
        <ele>1342</ele>
        <time>2010-07-04T07:27:49Z</time>
      </trkpt>
      <trkpt lat="45.03433" lon="5.84591">
        <ele>1342</ele>
        <time>2010-07-04T07:27:50Z</time>
      </trkpt>
      <trkpt lat="45.03436" lon="5.84589">
        <ele>1341</ele>
        <time>2010-07-04T07:27:51Z</time>
      </trkpt>
      <trkpt lat="45.0344" lon="5.84586">
        <ele>1341</ele>
        <time>2010-07-04T07:27:52Z</time>
      </trkpt>
      <trkpt lat="45.03444" lon="5.84583">
        <ele>1340</ele>
        <time>2010-07-04T07:27:53Z</time>
      </trkpt>
      <trkpt lat="45.03447" lon="5.8458">
        <ele>1339</ele>
        <time>2010-07-04T07:27:54Z</time>
      </trkpt>
      <trkpt lat="45.0345" lon="5.84578">
        <ele>1338</ele>
        <time>2010-07-04T07:27:55Z</time>
      </trkpt>
      <trkpt lat="45.03452" lon="5.84574">
        <ele>1337</ele>
        <time>2010-07-04T07:27:56Z</time>
      </trkpt>
      <trkpt lat="45.03454" lon="5.84571">
        <ele>1337</ele>
        <time>2010-07-04T07:27:57Z</time>
      </trkpt>
      <trkpt lat="45.03455" lon="5.84567">
        <ele>1336</ele>
        <time>2010-07-04T07:27:58Z</time>
      </trkpt>
      <trkpt lat="45.03455" lon="5.84562">
        <ele>1335</ele>
        <time>2010-07-04T07:27:59Z</time>
      </trkpt>
      <trkpt lat="45.03455" lon="5.84556">
        <ele>1335</ele>
        <time>2010-07-04T07:28:00Z</time>
      </trkpt>
      <trkpt lat="45.03455" lon="5.84551">
        <ele>1334</ele>
        <time>2010-07-04T07:28:01Z</time>
      </trkpt>
      <trkpt lat="45.03456" lon="5.84546">
        <ele>1333</ele>
        <time>2010-07-04T07:28:02Z</time>
      </trkpt>
      <trkpt lat="45.03456" lon="5.84541">
        <ele>1333</ele>
        <time>2010-07-04T07:28:03Z</time>
      </trkpt>
      <trkpt lat="45.03457" lon="5.84536">
        <ele>1333</ele>
        <time>2010-07-04T07:28:04Z</time>
      </trkpt>
      <trkpt lat="45.03457" lon="5.8453">
        <ele>1332</ele>
        <time>2010-07-04T07:28:05Z</time>
      </trkpt>
      <trkpt lat="45.03458" lon="5.84524">
        <ele>1332</ele>
        <time>2010-07-04T07:28:06Z</time>
      </trkpt>
      <trkpt lat="45.03458" lon="5.84518">
        <ele>1332</ele>
        <time>2010-07-04T07:28:07Z</time>
      </trkpt>
      <trkpt lat="45.03459" lon="5.84513">
        <ele>1332</ele>
        <time>2010-07-04T07:28:08Z</time>
      </trkpt>
      <trkpt lat="45.03459" lon="5.84507">
        <ele>1332</ele>
        <time>2010-07-04T07:28:09Z</time>
      </trkpt>
      <trkpt lat="45.0346" lon="5.84501">
        <ele>1332</ele>
        <time>2010-07-04T07:28:10Z</time>
      </trkpt>
      <trkpt lat="45.03461" lon="5.84496">
        <ele>1332</ele>
        <time>2010-07-04T07:28:11Z</time>
      </trkpt>
      <trkpt lat="45.03462" lon="5.84491">
        <ele>1332</ele>
        <time>2010-07-04T07:28:12Z</time>
      </trkpt>
      <trkpt lat="45.03463" lon="5.84487">
        <ele>1332</ele>
        <time>2010-07-04T07:28:13Z</time>
      </trkpt>
      <trkpt lat="45.03465" lon="5.84483">
        <ele>1332</ele>
        <time>2010-07-04T07:28:14Z</time>
      </trkpt>
      <trkpt lat="45.03467" lon="5.84479">
        <ele>1332</ele>
        <time>2010-07-04T07:28:15Z</time>
      </trkpt>
      <trkpt lat="45.03469" lon="5.84475">
        <ele>1332</ele>
        <time>2010-07-04T07:28:16Z</time>
      </trkpt>
      <trkpt lat="45.03471" lon="5.84472">
        <ele>1332</ele>
        <time>2010-07-04T07:28:17Z</time>
      </trkpt>
      <trkpt lat="45.03473" lon="5.84469">
        <ele>1332</ele>
        <time>2010-07-04T07:28:18Z</time>
      </trkpt>
      <trkpt lat="45.03477" lon="5.84465">
        <ele>1332</ele>
        <time>2010-07-04T07:28:19Z</time>
      </trkpt>
      <trkpt lat="45.0348" lon="5.8446">
        <ele>1332</ele>
        <time>2010-07-04T07:28:20Z</time>
      </trkpt>
      <trkpt lat="45.03483" lon="5.84456">
        <ele>1332</ele>
        <time>2010-07-04T07:28:21Z</time>
      </trkpt>
      <trkpt lat="45.03485" lon="5.84452">
        <ele>1332</ele>
        <time>2010-07-04T07:28:22Z</time>
      </trkpt>
      <trkpt lat="45.03487" lon="5.84447">
        <ele>1332</ele>
        <time>2010-07-04T07:28:23Z</time>
      </trkpt>
      <trkpt lat="45.03489" lon="5.84443">
        <ele>1332</ele>
        <time>2010-07-04T07:28:24Z</time>
      </trkpt>
      <trkpt lat="45.03492" lon="5.84439">
        <ele>1332</ele>
        <time>2010-07-04T07:28:25Z</time>
      </trkpt>
      <trkpt lat="45.03495" lon="5.84436">
        <ele>1332</ele>
        <time>2010-07-04T07:28:26Z</time>
      </trkpt>
      <trkpt lat="45.03498" lon="5.84433">
        <ele>1332</ele>
        <time>2010-07-04T07:28:27Z</time>
      </trkpt>
      <trkpt lat="45.035" lon="5.84428">
        <ele>1332</ele>
        <time>2010-07-04T07:28:28Z</time>
      </trkpt>
      <trkpt lat="45.03503" lon="5.84424">
        <ele>1332</ele>
        <time>2010-07-04T07:28:29Z</time>
      </trkpt>
      <trkpt lat="45.03505" lon="5.84421">
        <ele>1332</ele>
        <time>2010-07-04T07:28:30Z</time>
      </trkpt>
      <trkpt lat="45.03507" lon="5.84417">
        <ele>1332</ele>
        <time>2010-07-04T07:28:31Z</time>
      </trkpt>
      <trkpt lat="45.03509" lon="5.84413">
        <ele>1331</ele>
        <time>2010-07-04T07:28:32Z</time>
      </trkpt>
      <trkpt lat="45.03513" lon="5.8441">
        <ele>1331</ele>
        <time>2010-07-04T07:28:33Z</time>
      </trkpt>
      <trkpt lat="45.03517" lon="5.84406">
        <ele>1331</ele>
        <time>2010-07-04T07:28:34Z</time>
      </trkpt>
      <trkpt lat="45.03519" lon="5.84402">
        <ele>1331</ele>
        <time>2010-07-04T07:28:35Z</time>
      </trkpt>
      <trkpt lat="45.03522" lon="5.84399">
        <ele>1330</ele>
        <time>2010-07-04T07:28:36Z</time>
      </trkpt>
      <trkpt lat="45.03524" lon="5.84395">
        <ele>1330</ele>
        <time>2010-07-04T07:28:37Z</time>
      </trkpt>
      <trkpt lat="45.03527" lon="5.84391">
        <ele>1329</ele>
        <time>2010-07-04T07:28:38Z</time>
      </trkpt>
      <trkpt lat="45.0353" lon="5.84387">
        <ele>1329</ele>
        <time>2010-07-04T07:28:39Z</time>
      </trkpt>
      <trkpt lat="45.03533" lon="5.84383">
        <ele>1328</ele>
        <time>2010-07-04T07:28:40Z</time>
      </trkpt>
      <trkpt lat="45.03535" lon="5.8438">
        <ele>1328</ele>
        <time>2010-07-04T07:28:41Z</time>
      </trkpt>
      <trkpt lat="45.03537" lon="5.84376">
        <ele>1327</ele>
        <time>2010-07-04T07:28:42Z</time>
      </trkpt>
      <trkpt lat="45.03539" lon="5.84372">
        <ele>1327</ele>
        <time>2010-07-04T07:28:43Z</time>
      </trkpt>
      <trkpt lat="45.03541" lon="5.84368">
        <ele>1326</ele>
        <time>2010-07-04T07:28:44Z</time>
      </trkpt>
      <trkpt lat="45.03544" lon="5.84364">
        <ele>1325</ele>
        <time>2010-07-04T07:28:45Z</time>
      </trkpt>
      <trkpt lat="45.03546" lon="5.8436">
        <ele>1325</ele>
        <time>2010-07-04T07:28:46Z</time>
      </trkpt>
      <trkpt lat="45.03548" lon="5.84356">
        <ele>1325</ele>
        <time>2010-07-04T07:28:47Z</time>
      </trkpt>
      <trkpt lat="45.03551" lon="5.84351">
        <ele>1324</ele>
        <time>2010-07-04T07:28:48Z</time>
      </trkpt>
      <trkpt lat="45.03553" lon="5.84347">
        <ele>1324</ele>
        <time>2010-07-04T07:28:49Z</time>
      </trkpt>
      <trkpt lat="45.03555" lon="5.84343">
        <ele>1323</ele>
        <time>2010-07-04T07:28:50Z</time>
      </trkpt>
      <trkpt lat="45.03557" lon="5.84339">
        <ele>1323</ele>
        <time>2010-07-04T07:28:51Z</time>
      </trkpt>
      <trkpt lat="45.0356" lon="5.84335">
        <ele>1323</ele>
        <time>2010-07-04T07:28:52Z</time>
      </trkpt>
      <trkpt lat="45.03562" lon="5.84331">
        <ele>1322</ele>
        <time>2010-07-04T07:28:53Z</time>
      </trkpt>
      <trkpt lat="45.03564" lon="5.84326">
        <ele>1322</ele>
        <time>2010-07-04T07:28:54Z</time>
      </trkpt>
      <trkpt lat="45.03567" lon="5.84322">
        <ele>1322</ele>
        <time>2010-07-04T07:28:55Z</time>
      </trkpt>
      <trkpt lat="45.03569" lon="5.84317">
        <ele>1321</ele>
        <time>2010-07-04T07:28:56Z</time>
      </trkpt>
      <trkpt lat="45.03571" lon="5.84313">
        <ele>1321</ele>
        <time>2010-07-04T07:28:57Z</time>
      </trkpt>
      <trkpt lat="45.03573" lon="5.8431">
        <ele>1321</ele>
        <time>2010-07-04T07:28:58Z</time>
      </trkpt>
      <trkpt lat="45.03575" lon="5.84305">
        <ele>1320</ele>
        <time>2010-07-04T07:28:59Z</time>
      </trkpt>
      <trkpt lat="45.03578" lon="5.84301">
        <ele>1320</ele>
        <time>2010-07-04T07:29:00Z</time>
      </trkpt>
      <trkpt lat="45.0358" lon="5.84296">
        <ele>1320</ele>
        <time>2010-07-04T07:29:01Z</time>
      </trkpt>
      <trkpt lat="45.03582" lon="5.84292">
        <ele>1319</ele>
        <time>2010-07-04T07:29:02Z</time>
      </trkpt>
      <trkpt lat="45.03585" lon="5.84288">
        <ele>1319</ele>
        <time>2010-07-04T07:29:03Z</time>
      </trkpt>
      <trkpt lat="45.03587" lon="5.84283">
        <ele>1319</ele>
        <time>2010-07-04T07:29:04Z</time>
      </trkpt>
      <trkpt lat="45.03588" lon="5.84278">
        <ele>1318</ele>
        <time>2010-07-04T07:29:05Z</time>
      </trkpt>
      <trkpt lat="45.0359" lon="5.84273">
        <ele>1318</ele>
        <time>2010-07-04T07:29:06Z</time>
      </trkpt>
      <trkpt lat="45.03592" lon="5.84268">
        <ele>1317</ele>
        <time>2010-07-04T07:29:07Z</time>
      </trkpt>
      <trkpt lat="45.03593" lon="5.84263">
        <ele>1317</ele>
        <time>2010-07-04T07:29:08Z</time>
      </trkpt>
      <trkpt lat="45.03595" lon="5.84258">
        <ele>1316</ele>
        <time>2010-07-04T07:29:09Z</time>
      </trkpt>
      <trkpt lat="45.03596" lon="5.84252">
        <ele>1316</ele>
        <time>2010-07-04T07:29:10Z</time>
      </trkpt>
      <trkpt lat="45.03598" lon="5.84247">
        <ele>1316</ele>
        <time>2010-07-04T07:29:11Z</time>
      </trkpt>
      <trkpt lat="45.03599" lon="5.84243">
        <ele>1315</ele>
        <time>2010-07-04T07:29:12Z</time>
      </trkpt>
      <trkpt lat="45.03601" lon="5.84238">
        <ele>1315</ele>
        <time>2010-07-04T07:29:13Z</time>
      </trkpt>
      <trkpt lat="45.03603" lon="5.84233">
        <ele>1315</ele>
        <time>2010-07-04T07:29:14Z</time>
      </trkpt>
      <trkpt lat="45.03604" lon="5.84228">
        <ele>1315</ele>
        <time>2010-07-04T07:29:15Z</time>
      </trkpt>
      <trkpt lat="45.03605" lon="5.84223">
        <ele>1314</ele>
        <time>2010-07-04T07:29:16Z</time>
      </trkpt>
      <trkpt lat="45.03606" lon="5.84218">
        <ele>1314</ele>
        <time>2010-07-04T07:29:17Z</time>
      </trkpt>
      <trkpt lat="45.03607" lon="5.84213">
        <ele>1314</ele>
        <time>2010-07-04T07:29:18Z</time>
      </trkpt>
      <trkpt lat="45.03607" lon="5.84207">
        <ele>1314</ele>
        <time>2010-07-04T07:29:19Z</time>
      </trkpt>
      <trkpt lat="45.03606" lon="5.842">
        <ele>1313</ele>
        <time>2010-07-04T07:29:20Z</time>
      </trkpt>
      <trkpt lat="45.03606" lon="5.84194">
        <ele>1313</ele>
        <time>2010-07-04T07:29:21Z</time>
      </trkpt>
      <trkpt lat="45.03606" lon="5.84188">
        <ele>1313</ele>
        <time>2010-07-04T07:29:22Z</time>
      </trkpt>
      <trkpt lat="45.03607" lon="5.84184">
        <ele>1313</ele>
        <time>2010-07-04T07:29:23Z</time>
      </trkpt>
      <trkpt lat="45.03607" lon="5.84179">
        <ele>1313</ele>
        <time>2010-07-04T07:29:24Z</time>
      </trkpt>
      <trkpt lat="45.03607" lon="5.84174">
        <ele>1313</ele>
        <time>2010-07-04T07:29:25Z</time>
      </trkpt>
      <trkpt lat="45.03606" lon="5.84168">
        <ele>1313</ele>
        <time>2010-07-04T07:29:26Z</time>
      </trkpt>
      <trkpt lat="45.03605" lon="5.84163">
        <ele>1312</ele>
        <time>2010-07-04T07:29:27Z</time>
      </trkpt>
      <trkpt lat="45.03605" lon="5.84158">
        <ele>1311</ele>
        <time>2010-07-04T07:29:28Z</time>
      </trkpt>
      <trkpt lat="45.03604" lon="5.84153">
        <ele>1311</ele>
        <time>2010-07-04T07:29:29Z</time>
      </trkpt>
      <trkpt lat="45.03603" lon="5.84148">
        <ele>1310</ele>
        <time>2010-07-04T07:29:30Z</time>
      </trkpt>
      <trkpt lat="45.03602" lon="5.84143">
        <ele>1310</ele>
        <time>2010-07-04T07:29:31Z</time>
      </trkpt>
      <trkpt lat="45.03601" lon="5.84138">
        <ele>1309</ele>
        <time>2010-07-04T07:29:32Z</time>
      </trkpt>
      <trkpt lat="45.036" lon="5.84133">
        <ele>1309</ele>
        <time>2010-07-04T07:29:33Z</time>
      </trkpt>
      <trkpt lat="45.036" lon="5.84129">
        <ele>1309</ele>
        <time>2010-07-04T07:29:34Z</time>
      </trkpt>
      <trkpt lat="45.03599" lon="5.84124">
        <ele>1308</ele>
        <time>2010-07-04T07:29:35Z</time>
      </trkpt>
      <trkpt lat="45.03599" lon="5.84118">
        <ele>1308</ele>
        <time>2010-07-04T07:29:36Z</time>
      </trkpt>
      <trkpt lat="45.03598" lon="5.84114">
        <ele>1307</ele>
        <time>2010-07-04T07:29:37Z</time>
      </trkpt>
      <trkpt lat="45.03598" lon="5.8411">
        <ele>1307</ele>
        <time>2010-07-04T07:29:38Z</time>
      </trkpt>
      <trkpt lat="45.03596" lon="5.84106">
        <ele>1306</ele>
        <time>2010-07-04T07:29:39Z</time>
      </trkpt>
      <trkpt lat="45.03595" lon="5.84101">
        <ele>1305</ele>
        <time>2010-07-04T07:29:40Z</time>
      </trkpt>
      <trkpt lat="45.03593" lon="5.84098">
        <ele>1304</ele>
        <time>2010-07-04T07:29:41Z</time>
      </trkpt>
      <trkpt lat="45.03591" lon="5.84094">
        <ele>1303</ele>
        <time>2010-07-04T07:29:42Z</time>
      </trkpt>
      <trkpt lat="45.03588" lon="5.84091">
        <ele>1302</ele>
        <time>2010-07-04T07:29:43Z</time>
      </trkpt>
      <trkpt lat="45.03585" lon="5.84089">
        <ele>1301</ele>
        <time>2010-07-04T07:29:44Z</time>
      </trkpt>
      <trkpt lat="45.03582" lon="5.84087">
        <ele>1300</ele>
        <time>2010-07-04T07:29:45Z</time>
      </trkpt>
      <trkpt lat="45.03578" lon="5.84085">
        <ele>1299</ele>
        <time>2010-07-04T07:29:46Z</time>
      </trkpt>
      <trkpt lat="45.03574" lon="5.84085">
        <ele>1298</ele>
        <time>2010-07-04T07:29:47Z</time>
      </trkpt>
      <trkpt lat="45.0357" lon="5.84085">
        <ele>1297</ele>
        <time>2010-07-04T07:29:48Z</time>
      </trkpt>
      <trkpt lat="45.03566" lon="5.84085">
        <ele>1297</ele>
        <time>2010-07-04T07:29:49Z</time>
      </trkpt>
      <trkpt lat="45.03562" lon="5.84085">
        <ele>1297</ele>
        <time>2010-07-04T07:29:50Z</time>
      </trkpt>
      <trkpt lat="45.03559" lon="5.84085">
        <ele>1297</ele>
        <time>2010-07-04T07:29:51Z</time>
      </trkpt>
      <trkpt lat="45.03556" lon="5.84085">
        <ele>1296</ele>
        <time>2010-07-04T07:29:52Z</time>
      </trkpt>
      <trkpt lat="45.03553" lon="5.84083">
        <ele>1296</ele>
        <time>2010-07-04T07:29:53Z</time>
      </trkpt>
      <trkpt lat="45.03551" lon="5.8408">
        <ele>1295</ele>
        <time>2010-07-04T07:29:54Z</time>
      </trkpt>
      <trkpt lat="45.03549" lon="5.84075">
        <ele>1294</ele>
        <time>2010-07-04T07:29:55Z</time>
      </trkpt>
      <trkpt lat="45.03547" lon="5.8407">
        <ele>1293</ele>
        <time>2010-07-04T07:29:56Z</time>
      </trkpt>
      <trkpt lat="45.03545" lon="5.84065">
        <ele>1293</ele>
        <time>2010-07-04T07:29:57Z</time>
      </trkpt>
      <trkpt lat="45.03543" lon="5.8406">
        <ele>1292</ele>
        <time>2010-07-04T07:29:58Z</time>
      </trkpt>
      <trkpt lat="45.03542" lon="5.84054">
        <ele>1292</ele>
        <time>2010-07-04T07:29:59Z</time>
      </trkpt>
      <trkpt lat="45.03541" lon="5.8405">
        <ele>1292</ele>
        <time>2010-07-04T07:30:00Z</time>
      </trkpt>
      <trkpt lat="45.0354" lon="5.84045">
        <ele>1291</ele>
        <time>2010-07-04T07:30:01Z</time>
      </trkpt>
      <trkpt lat="45.03538" lon="5.8404">
        <ele>1291</ele>
        <time>2010-07-04T07:30:02Z</time>
      </trkpt>
      <trkpt lat="45.03537" lon="5.84035">
        <ele>1291</ele>
        <time>2010-07-04T07:30:03Z</time>
      </trkpt>
      <trkpt lat="45.03535" lon="5.8403">
        <ele>1290</ele>
        <time>2010-07-04T07:30:04Z</time>
      </trkpt>
      <trkpt lat="45.03534" lon="5.84025">
        <ele>1290</ele>
        <time>2010-07-04T07:30:05Z</time>
      </trkpt>
      <trkpt lat="45.03532" lon="5.8402">
        <ele>1290</ele>
        <time>2010-07-04T07:30:06Z</time>
      </trkpt>
      <trkpt lat="45.03531" lon="5.84015">
        <ele>1289</ele>
        <time>2010-07-04T07:30:07Z</time>
      </trkpt>
      <trkpt lat="45.03529" lon="5.84011">
        <ele>1289</ele>
        <time>2010-07-04T07:30:08Z</time>
      </trkpt>
      <trkpt lat="45.03527" lon="5.84007">
        <ele>1288</ele>
        <time>2010-07-04T07:30:09Z</time>
      </trkpt>
      <trkpt lat="45.03525" lon="5.84003">
        <ele>1288</ele>
        <time>2010-07-04T07:30:10Z</time>
      </trkpt>
      <trkpt lat="45.03524" lon="5.83998">
        <ele>1287</ele>
        <time>2010-07-04T07:30:11Z</time>
      </trkpt>
      <trkpt lat="45.03522" lon="5.83994">
        <ele>1287</ele>
        <time>2010-07-04T07:30:12Z</time>
      </trkpt>
      <trkpt lat="45.03521" lon="5.8399">
        <ele>1287</ele>
        <time>2010-07-04T07:30:13Z</time>
      </trkpt>
      <trkpt lat="45.03519" lon="5.83986">
        <ele>1286</ele>
        <time>2010-07-04T07:30:14Z</time>
      </trkpt>
      <trkpt lat="45.03517" lon="5.83981">
        <ele>1286</ele>
        <time>2010-07-04T07:30:15Z</time>
      </trkpt>
      <trkpt lat="45.03516" lon="5.83976">
        <ele>1286</ele>
        <time>2010-07-04T07:30:16Z</time>
      </trkpt>
      <trkpt lat="45.03514" lon="5.83971">
        <ele>1286</ele>
        <time>2010-07-04T07:30:17Z</time>
      </trkpt>
      <trkpt lat="45.03512" lon="5.83967">
        <ele>1286</ele>
        <time>2010-07-04T07:30:18Z</time>
      </trkpt>
      <trkpt lat="45.0351" lon="5.83963">
        <ele>1285</ele>
        <time>2010-07-04T07:30:19Z</time>
      </trkpt>
      <trkpt lat="45.03507" lon="5.83959">
        <ele>1285</ele>
        <time>2010-07-04T07:30:20Z</time>
      </trkpt>
      <trkpt lat="45.03504" lon="5.83955">
        <ele>1285</ele>
        <time>2010-07-04T07:30:21Z</time>
      </trkpt>
      <trkpt lat="45.03501" lon="5.83952">
        <ele>1285</ele>
        <time>2010-07-04T07:30:22Z</time>
      </trkpt>
      <trkpt lat="45.03498" lon="5.83949">
        <ele>1284</ele>
        <time>2010-07-04T07:30:23Z</time>
      </trkpt>
      <trkpt lat="45.03495" lon="5.83947">
        <ele>1284</ele>
        <time>2010-07-04T07:30:24Z</time>
      </trkpt>
      <trkpt lat="45.03492" lon="5.83943">
        <ele>1284</ele>
        <time>2010-07-04T07:30:25Z</time>
      </trkpt>
      <trkpt lat="45.03489" lon="5.8394">
        <ele>1284</ele>
        <time>2010-07-04T07:30:26Z</time>
      </trkpt>
      <trkpt lat="45.03486" lon="5.83936">
        <ele>1284</ele>
        <time>2010-07-04T07:30:27Z</time>
      </trkpt>
      <trkpt lat="45.03483" lon="5.83934">
        <ele>1284</ele>
        <time>2010-07-04T07:30:28Z</time>
      </trkpt>
      <trkpt lat="45.03481" lon="5.83932">
        <ele>1284</ele>
        <time>2010-07-04T07:30:29Z</time>
      </trkpt>
      <trkpt lat="45.03478" lon="5.8393">
        <ele>1284</ele>
        <time>2010-07-04T07:30:30Z</time>
      </trkpt>
      <trkpt lat="45.03476" lon="5.83928">
        <ele>1284</ele>
        <time>2010-07-04T07:30:31Z</time>
      </trkpt>
      <trkpt lat="45.03474" lon="5.83926">
        <ele>1284</ele>
        <time>2010-07-04T07:30:32Z</time>
      </trkpt>
      <trkpt lat="45.03471" lon="5.83924">
        <ele>1284</ele>
        <time>2010-07-04T07:30:33Z</time>
      </trkpt>
      <trkpt lat="45.03468" lon="5.83921">
        <ele>1284</ele>
        <time>2010-07-04T07:30:34Z</time>
      </trkpt>
      <trkpt lat="45.03465" lon="5.83918">
        <ele>1284</ele>
        <time>2010-07-04T07:30:35Z</time>
      </trkpt>
      <trkpt lat="45.03462" lon="5.83915">
        <ele>1284</ele>
        <time>2010-07-04T07:30:36Z</time>
      </trkpt>
      <trkpt lat="45.03459" lon="5.83911">
        <ele>1284</ele>
        <time>2010-07-04T07:30:37Z</time>
      </trkpt>
      <trkpt lat="45.03456" lon="5.83908">
        <ele>1284</ele>
        <time>2010-07-04T07:30:38Z</time>
      </trkpt>
      <trkpt lat="45.03453" lon="5.83905">
        <ele>1284</ele>
        <time>2010-07-04T07:30:39Z</time>
      </trkpt>
      <trkpt lat="45.03451" lon="5.83903">
        <ele>1284</ele>
        <time>2010-07-04T07:30:40Z</time>
      </trkpt>
      <trkpt lat="45.03448" lon="5.83899">
        <ele>1284</ele>
        <time>2010-07-04T07:30:41Z</time>
      </trkpt>
      <trkpt lat="45.03446" lon="5.83895">
        <ele>1284</ele>
        <time>2010-07-04T07:30:42Z</time>
      </trkpt>
      <trkpt lat="45.03443" lon="5.83891">
        <ele>1284</ele>
        <time>2010-07-04T07:30:43Z</time>
      </trkpt>
      <trkpt lat="45.03441" lon="5.83888">
        <ele>1284</ele>
        <time>2010-07-04T07:30:44Z</time>
      </trkpt>
      <trkpt lat="45.03439" lon="5.83884">
        <ele>1284</ele>
        <time>2010-07-04T07:30:45Z</time>
      </trkpt>
      <trkpt lat="45.03436" lon="5.83882">
        <ele>1284</ele>
        <time>2010-07-04T07:30:46Z</time>
      </trkpt>
      <trkpt lat="45.03433" lon="5.8388">
        <ele>1284</ele>
        <time>2010-07-04T07:30:47Z</time>
      </trkpt>
      <trkpt lat="45.03429" lon="5.83878">
        <ele>1284</ele>
        <time>2010-07-04T07:30:48Z</time>
      </trkpt>
      <trkpt lat="45.03427" lon="5.83876">
        <ele>1284</ele>
        <time>2010-07-04T07:30:49Z</time>
      </trkpt>
      <trkpt lat="45.03424" lon="5.83874">
        <ele>1284</ele>
        <time>2010-07-04T07:30:50Z</time>
      </trkpt>
      <trkpt lat="45.0342" lon="5.83873">
        <ele>1284</ele>
        <time>2010-07-04T07:30:51Z</time>
      </trkpt>
      <trkpt lat="45.03417" lon="5.83869">
        <ele>1285</ele>
        <time>2010-07-04T07:30:52Z</time>
      </trkpt>
      <trkpt lat="45.03413" lon="5.83868">
        <ele>1285</ele>
        <time>2010-07-04T07:30:53Z</time>
      </trkpt>
      <trkpt lat="45.0341" lon="5.83866">
        <ele>1286</ele>
        <time>2010-07-04T07:30:54Z</time>
      </trkpt>
      <trkpt lat="45.03407" lon="5.83865">
        <ele>1287</ele>
        <time>2010-07-04T07:30:55Z</time>
      </trkpt>
      <trkpt lat="45.03403" lon="5.83862">
        <ele>1288</ele>
        <time>2010-07-04T07:30:56Z</time>
      </trkpt>
      <trkpt lat="45.03399" lon="5.8386">
        <ele>1289</ele>
        <time>2010-07-04T07:30:57Z</time>
      </trkpt>
      <trkpt lat="45.03395" lon="5.83858">
        <ele>1290</ele>
        <time>2010-07-04T07:30:58Z</time>
      </trkpt>
      <trkpt lat="45.03392" lon="5.83856">
        <ele>1291</ele>
        <time>2010-07-04T07:30:59Z</time>
      </trkpt>
      <trkpt lat="45.03388" lon="5.83855">
        <ele>1292</ele>
        <time>2010-07-04T07:31:00Z</time>
      </trkpt>
      <trkpt lat="45.03384" lon="5.83852">
        <ele>1293</ele>
        <time>2010-07-04T07:31:01Z</time>
      </trkpt>
      <trkpt lat="45.03381" lon="5.83851">
        <ele>1294</ele>
        <time>2010-07-04T07:31:02Z</time>
      </trkpt>
      <trkpt lat="45.03379" lon="5.8385">
        <ele>1295</ele>
        <time>2010-07-04T07:31:03Z</time>
      </trkpt>
      <trkpt lat="45.03376" lon="5.83847">
        <ele>1295</ele>
        <time>2010-07-04T07:31:04Z</time>
      </trkpt>
      <trkpt lat="45.03372" lon="5.83843">
        <ele>1296</ele>
        <time>2010-07-04T07:31:05Z</time>
      </trkpt>
      <trkpt lat="45.03369" lon="5.83841">
        <ele>1297</ele>
        <time>2010-07-04T07:31:06Z</time>
      </trkpt>
      <trkpt lat="45.03366" lon="5.83839">
        <ele>1298</ele>
        <time>2010-07-04T07:31:07Z</time>
      </trkpt>
      <trkpt lat="45.03364" lon="5.83835">
        <ele>1299</ele>
        <time>2010-07-04T07:31:08Z</time>
      </trkpt>
      <trkpt lat="45.03361" lon="5.83831">
        <ele>1301</ele>
        <time>2010-07-04T07:31:10Z</time>
      </trkpt>
      <trkpt lat="45.03359" lon="5.83828">
        <ele>1301</ele>
        <time>2010-07-04T07:31:11Z</time>
      </trkpt>
      <trkpt lat="45.03356" lon="5.83826">
        <ele>1301</ele>
        <time>2010-07-04T07:31:12Z</time>
      </trkpt>
      <trkpt lat="45.03353" lon="5.83824">
        <ele>1301</ele>
        <time>2010-07-04T07:31:13Z</time>
      </trkpt>
      <trkpt lat="45.03351" lon="5.83821">
        <ele>1301</ele>
        <time>2010-07-04T07:31:14Z</time>
      </trkpt>
      <trkpt lat="45.03349" lon="5.83818">
        <ele>1301</ele>
        <time>2010-07-04T07:31:15Z</time>
      </trkpt>
      <trkpt lat="45.03346" lon="5.83816">
        <ele>1301</ele>
        <time>2010-07-04T07:31:16Z</time>
      </trkpt>
      <trkpt lat="45.03344" lon="5.83814">
        <ele>1302</ele>
        <time>2010-07-04T07:31:17Z</time>
      </trkpt>
      <trkpt lat="45.03342" lon="5.83812">
        <ele>1302</ele>
        <time>2010-07-04T07:31:18Z</time>
      </trkpt>
      <trkpt lat="45.0334" lon="5.8381">
        <ele>1302</ele>
        <time>2010-07-04T07:31:19Z</time>
      </trkpt>
      <trkpt lat="45.03337" lon="5.83809">
        <ele>1302</ele>
        <time>2010-07-04T07:31:20Z</time>
      </trkpt>
      <trkpt lat="45.03335" lon="5.83806">
        <ele>1302</ele>
        <time>2010-07-04T07:31:21Z</time>
      </trkpt>
      <trkpt lat="45.03332" lon="5.83804">
        <ele>1302</ele>
        <time>2010-07-04T07:31:22Z</time>
      </trkpt>
      <trkpt lat="45.0333" lon="5.83801">
        <ele>1302</ele>
        <time>2010-07-04T07:31:23Z</time>
      </trkpt>
      <trkpt lat="45.03327" lon="5.83798">
        <ele>1302</ele>
        <time>2010-07-04T07:31:24Z</time>
      </trkpt>
      <trkpt lat="45.03323" lon="5.83795">
        <ele>1302</ele>
        <time>2010-07-04T07:31:25Z</time>
      </trkpt>
      <trkpt lat="45.03321" lon="5.83793">
        <ele>1302</ele>
        <time>2010-07-04T07:31:26Z</time>
      </trkpt>
      <trkpt lat="45.03318" lon="5.83791">
        <ele>1301</ele>
        <time>2010-07-04T07:31:27Z</time>
      </trkpt>
      <trkpt lat="45.03316" lon="5.83789">
        <ele>1300</ele>
        <time>2010-07-04T07:31:28Z</time>
      </trkpt>
      <trkpt lat="45.03313" lon="5.83787">
        <ele>1299</ele>
        <time>2010-07-04T07:31:29Z</time>
      </trkpt>
      <trkpt lat="45.03311" lon="5.83785">
        <ele>1298</ele>
        <time>2010-07-04T07:31:30Z</time>
      </trkpt>
      <trkpt lat="45.03309" lon="5.83784">
        <ele>1297</ele>
        <time>2010-07-04T07:31:31Z</time>
      </trkpt>
      <trkpt lat="45.03306" lon="5.83783">
        <ele>1296</ele>
        <time>2010-07-04T07:31:32Z</time>
      </trkpt>
      <trkpt lat="45.03303" lon="5.83782">
        <ele>1295</ele>
        <time>2010-07-04T07:31:33Z</time>
      </trkpt>
      <trkpt lat="45.033" lon="5.8378">
        <ele>1294</ele>
        <time>2010-07-04T07:31:34Z</time>
      </trkpt>
      <trkpt lat="45.03299" lon="5.83779">
        <ele>1293</ele>
        <time>2010-07-04T07:31:35Z</time>
      </trkpt>
      <trkpt lat="45.03296" lon="5.83777">
        <ele>1292</ele>
        <time>2010-07-04T07:31:36Z</time>
      </trkpt>
      <trkpt lat="45.03293" lon="5.83775">
        <ele>1291</ele>
        <time>2010-07-04T07:31:37Z</time>
      </trkpt>
      <trkpt lat="45.03291" lon="5.83773">
        <ele>1290</ele>
        <time>2010-07-04T07:31:38Z</time>
      </trkpt>
      <trkpt lat="45.03288" lon="5.83771">
        <ele>1289</ele>
        <time>2010-07-04T07:31:39Z</time>
      </trkpt>
      <trkpt lat="45.03285" lon="5.83769">
        <ele>1288</ele>
        <time>2010-07-04T07:31:40Z</time>
      </trkpt>
      <trkpt lat="45.03282" lon="5.83766">
        <ele>1287</ele>
        <time>2010-07-04T07:31:41Z</time>
      </trkpt>
      <trkpt lat="45.03279" lon="5.83762">
        <ele>1287</ele>
        <time>2010-07-04T07:31:42Z</time>
      </trkpt>
      <trkpt lat="45.03277" lon="5.8376">
        <ele>1287</ele>
        <time>2010-07-04T07:31:43Z</time>
      </trkpt>
      <trkpt lat="45.03276" lon="5.83756">
        <ele>1287</ele>
        <time>2010-07-04T07:31:44Z</time>
      </trkpt>
      <trkpt lat="45.03274" lon="5.83752">
        <ele>1287</ele>
        <time>2010-07-04T07:31:45Z</time>
      </trkpt>
      <trkpt lat="45.03271" lon="5.8375">
        <ele>1287</ele>
        <time>2010-07-04T07:31:46Z</time>
      </trkpt>
      <trkpt lat="45.03267" lon="5.83747">
        <ele>1287</ele>
        <time>2010-07-04T07:31:47Z</time>
      </trkpt>
      <trkpt lat="45.03264" lon="5.83744">
        <ele>1287</ele>
        <time>2010-07-04T07:31:48Z</time>
      </trkpt>
      <trkpt lat="45.03261" lon="5.83741">
        <ele>1287</ele>
        <time>2010-07-04T07:31:49Z</time>
      </trkpt>
      <trkpt lat="45.03258" lon="5.83737">
        <ele>1287</ele>
        <time>2010-07-04T07:31:50Z</time>
      </trkpt>
      <trkpt lat="45.03254" lon="5.83734">
        <ele>1286</ele>
        <time>2010-07-04T07:31:51Z</time>
      </trkpt>
      <trkpt lat="45.03251" lon="5.83731">
        <ele>1285</ele>
        <time>2010-07-04T07:31:52Z</time>
      </trkpt>
      <trkpt lat="45.03248" lon="5.83728">
        <ele>1284</ele>
        <time>2010-07-04T07:31:53Z</time>
      </trkpt>
      <trkpt lat="45.03246" lon="5.83727">
        <ele>1283</ele>
        <time>2010-07-04T07:31:54Z</time>
      </trkpt>
      <trkpt lat="45.03244" lon="5.83724">
        <ele>1283</ele>
        <time>2010-07-04T07:31:55Z</time>
      </trkpt>
      <trkpt lat="45.03241" lon="5.83724">
        <ele>1283</ele>
        <time>2010-07-04T07:31:56Z</time>
      </trkpt>
      <trkpt lat="45.0324" lon="5.83724">
        <ele>1283</ele>
        <time>2010-07-04T07:31:57Z</time>
      </trkpt>
      <trkpt lat="45.03238" lon="5.83724">
        <ele>1283</ele>
        <time>2010-07-04T07:31:58Z</time>
      </trkpt>
      <trkpt lat="45.03236" lon="5.83724">
        <ele>1283</ele>
        <time>2010-07-04T07:31:59Z</time>
      </trkpt>
      <trkpt lat="45.03234" lon="5.83725">
        <ele>1283</ele>
        <time>2010-07-04T07:32:00Z</time>
      </trkpt>
      <trkpt lat="45.03232" lon="5.83725">
        <ele>1283</ele>
        <time>2010-07-04T07:32:01Z</time>
      </trkpt>
      <trkpt lat="45.0323" lon="5.83726">
        <ele>1283</ele>
        <time>2010-07-04T07:32:02Z</time>
      </trkpt>
      <trkpt lat="45.03228" lon="5.83728">
        <ele>1283</ele>
        <time>2010-07-04T07:32:03Z</time>
      </trkpt>
      <trkpt lat="45.03226" lon="5.8373">
        <ele>1283</ele>
        <time>2010-07-04T07:32:04Z</time>
      </trkpt>
      <trkpt lat="45.03223" lon="5.83731">
        <ele>1283</ele>
        <time>2010-07-04T07:32:05Z</time>
      </trkpt>
      <trkpt lat="45.0322" lon="5.83733">
        <ele>1283</ele>
        <time>2010-07-04T07:32:06Z</time>
      </trkpt>
      <trkpt lat="45.03217" lon="5.83735">
        <ele>1283</ele>
        <time>2010-07-04T07:32:07Z</time>
      </trkpt>
      <trkpt lat="45.03214" lon="5.83736">
        <ele>1283</ele>
        <time>2010-07-04T07:32:08Z</time>
      </trkpt>
      <trkpt lat="45.03212" lon="5.83736">
        <ele>1283</ele>
        <time>2010-07-04T07:32:09Z</time>
      </trkpt>
      <trkpt lat="45.03211" lon="5.83735">
        <ele>1283</ele>
        <time>2010-07-04T07:32:10Z</time>
      </trkpt>
      <trkpt lat="45.03209" lon="5.83735">
        <ele>1283</ele>
        <time>2010-07-04T07:32:11Z</time>
      </trkpt>
      <trkpt lat="45.03208" lon="5.83734">
        <ele>1283</ele>
        <time>2010-07-04T07:32:12Z</time>
      </trkpt>
      <trkpt lat="45.03206" lon="5.83733">
        <ele>1284</ele>
        <time>2010-07-04T07:32:13Z</time>
      </trkpt>
      <trkpt lat="45.03205" lon="5.83733">
        <ele>1284</ele>
        <time>2010-07-04T07:32:14Z</time>
      </trkpt>
      <trkpt lat="45.03204" lon="5.83733">
        <ele>1285</ele>
        <time>2010-07-04T07:32:15Z</time>
      </trkpt>
      <trkpt lat="45.03202" lon="5.83732">
        <ele>1285</ele>
        <time>2010-07-04T07:32:16Z</time>
      </trkpt>
      <trkpt lat="45.032" lon="5.83733">
        <ele>1285</ele>
        <time>2010-07-04T07:32:17Z</time>
      </trkpt>
      <trkpt lat="45.03198" lon="5.83734">
        <ele>1285</ele>
        <time>2010-07-04T07:32:18Z</time>
      </trkpt>
      <trkpt lat="45.03197" lon="5.83734">
        <ele>1285</ele>
        <time>2010-07-04T07:32:19Z</time>
      </trkpt>
      <trkpt lat="45.03195" lon="5.83734">
        <ele>1285</ele>
        <time>2010-07-04T07:32:20Z</time>
      </trkpt>
      <trkpt lat="45.03194" lon="5.83734">
        <ele>1286</ele>
        <time>2010-07-04T07:32:21Z</time>
      </trkpt>
      <trkpt lat="45.03191" lon="5.83734">
        <ele>1287</ele>
        <time>2010-07-04T07:32:22Z</time>
      </trkpt>
      <trkpt lat="45.03189" lon="5.83735">
        <ele>1288</ele>
        <time>2010-07-04T07:32:23Z</time>
      </trkpt>
      <trkpt lat="45.03187" lon="5.83735">
        <ele>1289</ele>
        <time>2010-07-04T07:32:24Z</time>
      </trkpt>
      <trkpt lat="45.03186" lon="5.83735">
        <ele>1290</ele>
        <time>2010-07-04T07:32:25Z</time>
      </trkpt>
      <trkpt lat="45.03184" lon="5.83735">
        <ele>1291</ele>
        <time>2010-07-04T07:32:26Z</time>
      </trkpt>
      <trkpt lat="45.03182" lon="5.83736">
        <ele>1292</ele>
        <time>2010-07-04T07:32:27Z</time>
      </trkpt>
      <trkpt lat="45.03181" lon="5.83738">
        <ele>1293</ele>
        <time>2010-07-04T07:32:28Z</time>
      </trkpt>
      <trkpt lat="45.03179" lon="5.83739">
        <ele>1294</ele>
        <time>2010-07-04T07:32:29Z</time>
      </trkpt>
      <trkpt lat="45.03177" lon="5.83738">
        <ele>1295</ele>
        <time>2010-07-04T07:32:30Z</time>
      </trkpt>
      <trkpt lat="45.03175" lon="5.83737">
        <ele>1296</ele>
        <time>2010-07-04T07:32:31Z</time>
      </trkpt>
      <trkpt lat="45.03173" lon="5.83738">
        <ele>1297</ele>
        <time>2010-07-04T07:32:32Z</time>
      </trkpt>
      <trkpt lat="45.03171" lon="5.83738">
        <ele>1298</ele>
        <time>2010-07-04T07:32:33Z</time>
      </trkpt>
      <trkpt lat="45.03169" lon="5.83738">
        <ele>1299</ele>
        <time>2010-07-04T07:32:34Z</time>
      </trkpt>
      <trkpt lat="45.03167" lon="5.83739">
        <ele>1300</ele>
        <time>2010-07-04T07:32:35Z</time>
      </trkpt>
      <trkpt lat="45.03165" lon="5.8374">
        <ele>1301</ele>
        <time>2010-07-04T07:32:36Z</time>
      </trkpt>
      <trkpt lat="45.03164" lon="5.8374">
        <ele>1302</ele>
        <time>2010-07-04T07:32:37Z</time>
      </trkpt>
      <trkpt lat="45.03162" lon="5.83741">
        <ele>1303</ele>
        <time>2010-07-04T07:32:38Z</time>
      </trkpt>
      <trkpt lat="45.03161" lon="5.83742">
        <ele>1304</ele>
        <time>2010-07-04T07:32:39Z</time>
      </trkpt>
      <trkpt lat="45.03159" lon="5.83742">
        <ele>1304</ele>
        <time>2010-07-04T07:32:40Z</time>
      </trkpt>
      <trkpt lat="45.03157" lon="5.83742">
        <ele>1304</ele>
        <time>2010-07-04T07:32:41Z</time>
      </trkpt>
      <trkpt lat="45.03155" lon="5.83742">
        <ele>1305</ele>
        <time>2010-07-04T07:32:42Z</time>
      </trkpt>
      <trkpt lat="45.03153" lon="5.83742">
        <ele>1306</ele>
        <time>2010-07-04T07:32:43Z</time>
      </trkpt>
      <trkpt lat="45.03151" lon="5.83742">
        <ele>1307</ele>
        <time>2010-07-04T07:32:44Z</time>
      </trkpt>
      <trkpt lat="45.0315" lon="5.83742">
        <ele>1307</ele>
        <time>2010-07-04T07:32:45Z</time>
      </trkpt>
      <trkpt lat="45.03148" lon="5.83743">
        <ele>1308</ele>
        <time>2010-07-04T07:32:46Z</time>
      </trkpt>
      <trkpt lat="45.03146" lon="5.83743">
        <ele>1308</ele>
        <time>2010-07-04T07:32:47Z</time>
      </trkpt>
      <trkpt lat="45.03144" lon="5.83743">
        <ele>1308</ele>
        <time>2010-07-04T07:32:48Z</time>
      </trkpt>
      <trkpt lat="45.03143" lon="5.83744">
        <ele>1308</ele>
        <time>2010-07-04T07:32:49Z</time>
      </trkpt>
      <trkpt lat="45.03142" lon="5.83743">
        <ele>1308</ele>
        <time>2010-07-04T07:32:50Z</time>
      </trkpt>
      <trkpt lat="45.0314" lon="5.83743">
        <ele>1308</ele>
        <time>2010-07-04T07:32:51Z</time>
      </trkpt>
      <trkpt lat="45.03138" lon="5.83743">
        <ele>1308</ele>
        <time>2010-07-04T07:32:52Z</time>
      </trkpt>
      <trkpt lat="45.03136" lon="5.83743">
        <ele>1308</ele>
        <time>2010-07-04T07:32:53Z</time>
      </trkpt>
      <trkpt lat="45.03134" lon="5.83742">
        <ele>1308</ele>
        <time>2010-07-04T07:32:54Z</time>
      </trkpt>
      <trkpt lat="45.03133" lon="5.83742">
        <ele>1308</ele>
        <time>2010-07-04T07:32:55Z</time>
      </trkpt>
      <trkpt lat="45.03131" lon="5.83743">
        <ele>1308</ele>
        <time>2010-07-04T07:32:56Z</time>
      </trkpt>
      <trkpt lat="45.03128" lon="5.83743">
        <ele>1308</ele>
        <time>2010-07-04T07:32:57Z</time>
      </trkpt>
      <trkpt lat="45.03126" lon="5.83743">
        <ele>1308</ele>
        <time>2010-07-04T07:32:58Z</time>
      </trkpt>
      <trkpt lat="45.03125" lon="5.83743">
        <ele>1308</ele>
        <time>2010-07-04T07:32:59Z</time>
      </trkpt>
      <trkpt lat="45.03124" lon="5.83743">
        <ele>1308</ele>
        <time>2010-07-04T07:33:00Z</time>
      </trkpt>
      <trkpt lat="45.03122" lon="5.83744">
        <ele>1308</ele>
        <time>2010-07-04T07:33:01Z</time>
      </trkpt>
      <trkpt lat="45.03121" lon="5.83745">
        <ele>1308</ele>
        <time>2010-07-04T07:33:02Z</time>
      </trkpt>
      <trkpt lat="45.0312" lon="5.83747">
        <ele>1308</ele>
        <time>2010-07-04T07:33:03Z</time>
      </trkpt>
      <trkpt lat="45.0312" lon="5.83749">
        <ele>1309</ele>
        <time>2010-07-04T07:33:04Z</time>
      </trkpt>
      <trkpt lat="45.0312" lon="5.83752">
        <ele>1309</ele>
        <time>2010-07-04T07:33:05Z</time>
      </trkpt>
      <trkpt lat="45.03121" lon="5.83754">
        <ele>1310</ele>
        <time>2010-07-04T07:33:06Z</time>
      </trkpt>
      <trkpt lat="45.03122" lon="5.83755">
        <ele>1310</ele>
        <time>2010-07-04T07:33:07Z</time>
      </trkpt>
      <trkpt lat="45.03123" lon="5.83757">
        <ele>1310</ele>
        <time>2010-07-04T07:33:08Z</time>
      </trkpt>
      <trkpt lat="45.03124" lon="5.83757">
        <ele>1311</ele>
        <time>2010-07-04T07:33:09Z</time>
      </trkpt>
      <trkpt lat="45.03126" lon="5.8376">
        <ele>1311</ele>
        <time>2010-07-04T07:33:11Z</time>
      </trkpt>
      <trkpt lat="45.03128" lon="5.83762">
        <ele>1311</ele>
        <time>2010-07-04T07:33:13Z</time>
      </trkpt>
      <trkpt lat="45.0313" lon="5.83763">
        <ele>1311</ele>
        <time>2010-07-04T07:33:14Z</time>
      </trkpt>
      <trkpt lat="45.03131" lon="5.83765">
        <ele>1311</ele>
        <time>2010-07-04T07:33:15Z</time>
      </trkpt>
      <trkpt lat="45.03132" lon="5.83767">
        <ele>1311</ele>
        <time>2010-07-04T07:33:16Z</time>
      </trkpt>
      <trkpt lat="45.03134" lon="5.83768">
        <ele>1311</ele>
        <time>2010-07-04T07:33:17Z</time>
      </trkpt>
      <trkpt lat="45.03135" lon="5.83769">
        <ele>1311</ele>
        <time>2010-07-04T07:33:18Z</time>
      </trkpt>
      <trkpt lat="45.03137" lon="5.8377">
        <ele>1311</ele>
        <time>2010-07-04T07:33:19Z</time>
      </trkpt>
      <trkpt lat="45.03139" lon="5.83772">
        <ele>1311</ele>
        <time>2010-07-04T07:33:21Z</time>
      </trkpt>
      <trkpt lat="45.03141" lon="5.83774">
        <ele>1311</ele>
        <time>2010-07-04T07:33:23Z</time>
      </trkpt>
      <trkpt lat="45.03142" lon="5.83775">
        <ele>1312</ele>
        <time>2010-07-04T07:33:24Z</time>
      </trkpt>
      <trkpt lat="45.03144" lon="5.83777">
        <ele>1312</ele>
        <time>2010-07-04T07:33:25Z</time>
      </trkpt>
      <trkpt lat="45.03146" lon="5.83778">
        <ele>1313</ele>
        <time>2010-07-04T07:33:26Z</time>
      </trkpt>
      <trkpt lat="45.03147" lon="5.83779">
        <ele>1313</ele>
        <time>2010-07-04T07:33:27Z</time>
      </trkpt>
      <trkpt lat="45.03149" lon="5.8378">
        <ele>1314</ele>
        <time>2010-07-04T07:33:28Z</time>
      </trkpt>
      <trkpt lat="45.03151" lon="5.83781">
        <ele>1315</ele>
        <time>2010-07-04T07:33:29Z</time>
      </trkpt>
      <trkpt lat="45.03153" lon="5.83781">
        <ele>1315</ele>
        <time>2010-07-04T07:33:30Z</time>
      </trkpt>
      <trkpt lat="45.03154" lon="5.83782">
        <ele>1316</ele>
        <time>2010-07-04T07:33:31Z</time>
      </trkpt>
      <trkpt lat="45.03156" lon="5.83783">
        <ele>1316</ele>
        <time>2010-07-04T07:33:32Z</time>
      </trkpt>
      <trkpt lat="45.03158" lon="5.83784">
        <ele>1317</ele>
        <time>2010-07-04T07:33:33Z</time>
      </trkpt>
      <trkpt lat="45.0316" lon="5.83785">
        <ele>1318</ele>
        <time>2010-07-04T07:33:34Z</time>
      </trkpt>
      <trkpt lat="45.03162" lon="5.83785">
        <ele>1318</ele>
        <time>2010-07-04T07:33:35Z</time>
      </trkpt>
      <trkpt lat="45.03163" lon="5.83785">
        <ele>1319</ele>
        <time>2010-07-04T07:33:36Z</time>
      </trkpt>
      <trkpt lat="45.03165" lon="5.83785">
        <ele>1319</ele>
        <time>2010-07-04T07:33:37Z</time>
      </trkpt>
      <trkpt lat="45.03167" lon="5.83785">
        <ele>1320</ele>
        <time>2010-07-04T07:33:38Z</time>
      </trkpt>
      <trkpt lat="45.03168" lon="5.83786">
        <ele>1320</ele>
        <time>2010-07-04T07:33:39Z</time>
      </trkpt>
      <trkpt lat="45.0317" lon="5.83787">
        <ele>1321</ele>
        <time>2010-07-04T07:33:40Z</time>
      </trkpt>
      <trkpt lat="45.03172" lon="5.83787">
        <ele>1322</ele>
        <time>2010-07-04T07:33:41Z</time>
      </trkpt>
      <trkpt lat="45.03174" lon="5.83787">
        <ele>1322</ele>
        <time>2010-07-04T07:33:42Z</time>
      </trkpt>
      <trkpt lat="45.03176" lon="5.83788">
        <ele>1322</ele>
        <time>2010-07-04T07:33:43Z</time>
      </trkpt>
      <trkpt lat="45.03177" lon="5.83788">
        <ele>1323</ele>
        <time>2010-07-04T07:33:44Z</time>
      </trkpt>
      <trkpt lat="45.03179" lon="5.83788">
        <ele>1323</ele>
        <time>2010-07-04T07:33:45Z</time>
      </trkpt>
      <trkpt lat="45.03182" lon="5.83789">
        <ele>1323</ele>
        <time>2010-07-04T07:33:46Z</time>
      </trkpt>
      <trkpt lat="45.03184" lon="5.8379">
        <ele>1324</ele>
        <time>2010-07-04T07:33:47Z</time>
      </trkpt>
      <trkpt lat="45.03186" lon="5.83791">
        <ele>1324</ele>
        <time>2010-07-04T07:33:48Z</time>
      </trkpt>
      <trkpt lat="45.03189" lon="5.83792">
        <ele>1324</ele>
        <time>2010-07-04T07:33:49Z</time>
      </trkpt>
      <trkpt lat="45.03191" lon="5.83794">
        <ele>1324</ele>
        <time>2010-07-04T07:33:50Z</time>
      </trkpt>
      <trkpt lat="45.03193" lon="5.83795">
        <ele>1324</ele>
        <time>2010-07-04T07:33:51Z</time>
      </trkpt>
      <trkpt lat="45.03196" lon="5.83797">
        <ele>1324</ele>
        <time>2010-07-04T07:33:52Z</time>
      </trkpt>
      <trkpt lat="45.03198" lon="5.83798">
        <ele>1324</ele>
        <time>2010-07-04T07:33:53Z</time>
      </trkpt>
      <trkpt lat="45.03201" lon="5.83799">
        <ele>1324</ele>
        <time>2010-07-04T07:33:54Z</time>
      </trkpt>
      <trkpt lat="45.03203" lon="5.838">
        <ele>1324</ele>
        <time>2010-07-04T07:33:55Z</time>
      </trkpt>
      <trkpt lat="45.03206" lon="5.83801">
        <ele>1324</ele>
        <time>2010-07-04T07:33:56Z</time>
      </trkpt>
      <trkpt lat="45.03208" lon="5.83802">
        <ele>1324</ele>
        <time>2010-07-04T07:33:57Z</time>
      </trkpt>
      <trkpt lat="45.0321" lon="5.83803">
        <ele>1324</ele>
        <time>2010-07-04T07:33:58Z</time>
      </trkpt>
      <trkpt lat="45.03213" lon="5.83803">
        <ele>1324</ele>
        <time>2010-07-04T07:33:59Z</time>
      </trkpt>
      <trkpt lat="45.03216" lon="5.83804">
        <ele>1324</ele>
        <time>2010-07-04T07:34:00Z</time>
      </trkpt>
      <trkpt lat="45.03218" lon="5.83805">
        <ele>1324</ele>
        <time>2010-07-04T07:34:01Z</time>
      </trkpt>
      <trkpt lat="45.03221" lon="5.83805">
        <ele>1324</ele>
        <time>2010-07-04T07:34:02Z</time>
      </trkpt>
      <trkpt lat="45.03224" lon="5.83805">
        <ele>1324</ele>
        <time>2010-07-04T07:34:03Z</time>
      </trkpt>
      <trkpt lat="45.03227" lon="5.83805">
        <ele>1324</ele>
        <time>2010-07-04T07:34:04Z</time>
      </trkpt>
      <trkpt lat="45.03231" lon="5.83806">
        <ele>1324</ele>
        <time>2010-07-04T07:34:05Z</time>
      </trkpt>
      <trkpt lat="45.03234" lon="5.83808">
        <ele>1324</ele>
        <time>2010-07-04T07:34:06Z</time>
      </trkpt>
      <trkpt lat="45.03237" lon="5.83809">
        <ele>1324</ele>
        <time>2010-07-04T07:34:07Z</time>
      </trkpt>
      <trkpt lat="45.0324" lon="5.83811">
        <ele>1324</ele>
        <time>2010-07-04T07:34:08Z</time>
      </trkpt>
      <trkpt lat="45.03243" lon="5.83813">
        <ele>1324</ele>
        <time>2010-07-04T07:34:09Z</time>
      </trkpt>
      <trkpt lat="45.03246" lon="5.83815">
        <ele>1324</ele>
        <time>2010-07-04T07:34:10Z</time>
      </trkpt>
      <trkpt lat="45.03249" lon="5.83816">
        <ele>1324</ele>
        <time>2010-07-04T07:34:11Z</time>
      </trkpt>
      <trkpt lat="45.03252" lon="5.83817">
        <ele>1324</ele>
        <time>2010-07-04T07:34:12Z</time>
      </trkpt>
      <trkpt lat="45.03255" lon="5.83818">
        <ele>1324</ele>
        <time>2010-07-04T07:34:13Z</time>
      </trkpt>
      <trkpt lat="45.03258" lon="5.83819">
        <ele>1324</ele>
        <time>2010-07-04T07:34:14Z</time>
      </trkpt>
      <trkpt lat="45.03262" lon="5.8382">
        <ele>1324</ele>
        <time>2010-07-04T07:34:15Z</time>
      </trkpt>
      <trkpt lat="45.03266" lon="5.83822">
        <ele>1324</ele>
        <time>2010-07-04T07:34:16Z</time>
      </trkpt>
      <trkpt lat="45.03269" lon="5.83824">
        <ele>1324</ele>
        <time>2010-07-04T07:34:17Z</time>
      </trkpt>
      <trkpt lat="45.03272" lon="5.83826">
        <ele>1324</ele>
        <time>2010-07-04T07:34:18Z</time>
      </trkpt>
      <trkpt lat="45.03276" lon="5.83828">
        <ele>1324</ele>
        <time>2010-07-04T07:34:19Z</time>
      </trkpt>
      <trkpt lat="45.03279" lon="5.83829">
        <ele>1324</ele>
        <time>2010-07-04T07:34:20Z</time>
      </trkpt>
      <trkpt lat="45.03282" lon="5.83831">
        <ele>1324</ele>
        <time>2010-07-04T07:34:21Z</time>
      </trkpt>
      <trkpt lat="45.03285" lon="5.83833">
        <ele>1324</ele>
        <time>2010-07-04T07:34:22Z</time>
      </trkpt>
      <trkpt lat="45.03287" lon="5.83836">
        <ele>1324</ele>
        <time>2010-07-04T07:34:23Z</time>
      </trkpt>
      <trkpt lat="45.0329" lon="5.83839">
        <ele>1324</ele>
        <time>2010-07-04T07:34:24Z</time>
      </trkpt>
      <trkpt lat="45.03293" lon="5.83845">
        <ele>1324</ele>
        <time>2010-07-04T07:34:25Z</time>
      </trkpt>
      <trkpt lat="45.03296" lon="5.83849">
        <ele>1323</ele>
        <time>2010-07-04T07:34:26Z</time>
      </trkpt>
      <trkpt lat="45.03298" lon="5.83851">
        <ele>1322</ele>
        <time>2010-07-04T07:34:27Z</time>
      </trkpt>
      <trkpt lat="45.033" lon="5.83853">
        <ele>1322</ele>
        <time>2010-07-04T07:34:28Z</time>
      </trkpt>
      <trkpt lat="45.03302" lon="5.83854">
        <ele>1321</ele>
        <time>2010-07-04T07:34:29Z</time>
      </trkpt>
      <trkpt lat="45.03304" lon="5.83856">
        <ele>1321</ele>
        <time>2010-07-04T07:34:30Z</time>
      </trkpt>
      <trkpt lat="45.03306" lon="5.83858">
        <ele>1321</ele>
        <time>2010-07-04T07:34:31Z</time>
      </trkpt>
      <trkpt lat="45.03308" lon="5.8386">
        <ele>1321</ele>
        <time>2010-07-04T07:34:32Z</time>
      </trkpt>
      <trkpt lat="45.0331" lon="5.83862">
        <ele>1321</ele>
        <time>2010-07-04T07:34:33Z</time>
      </trkpt>
      <trkpt lat="45.03312" lon="5.83865">
        <ele>1321</ele>
        <time>2010-07-04T07:34:34Z</time>
      </trkpt>
      <trkpt lat="45.03315" lon="5.83867">
        <ele>1321</ele>
        <time>2010-07-04T07:34:35Z</time>
      </trkpt>
      <trkpt lat="45.03318" lon="5.8387">
        <ele>1321</ele>
        <time>2010-07-04T07:34:36Z</time>
      </trkpt>
      <trkpt lat="45.03321" lon="5.83873">
        <ele>1321</ele>
        <time>2010-07-04T07:34:37Z</time>
      </trkpt>
      <trkpt lat="45.03324" lon="5.83874">
        <ele>1321</ele>
        <time>2010-07-04T07:34:38Z</time>
      </trkpt>
      <trkpt lat="45.03327" lon="5.83877">
        <ele>1321</ele>
        <time>2010-07-04T07:34:39Z</time>
      </trkpt>
      <trkpt lat="45.03329" lon="5.83879">
        <ele>1321</ele>
        <time>2010-07-04T07:34:40Z</time>
      </trkpt>
      <trkpt lat="45.03332" lon="5.83881">
        <ele>1321</ele>
        <time>2010-07-04T07:34:41Z</time>
      </trkpt>
      <trkpt lat="45.03335" lon="5.83883">
        <ele>1321</ele>
        <time>2010-07-04T07:34:42Z</time>
      </trkpt>
      <trkpt lat="45.03337" lon="5.83885">
        <ele>1321</ele>
        <time>2010-07-04T07:34:43Z</time>
      </trkpt>
      <trkpt lat="45.0334" lon="5.83888">
        <ele>1321</ele>
        <time>2010-07-04T07:34:44Z</time>
      </trkpt>
      <trkpt lat="45.03343" lon="5.8389">
        <ele>1321</ele>
        <time>2010-07-04T07:34:45Z</time>
      </trkpt>
      <trkpt lat="45.03346" lon="5.83891">
        <ele>1321</ele>
        <time>2010-07-04T07:34:46Z</time>
      </trkpt>
      <trkpt lat="45.03349" lon="5.83894">
        <ele>1321</ele>
        <time>2010-07-04T07:34:47Z</time>
      </trkpt>
      <trkpt lat="45.03352" lon="5.83896">
        <ele>1321</ele>
        <time>2010-07-04T07:34:48Z</time>
      </trkpt>
      <trkpt lat="45.03355" lon="5.83898">
        <ele>1321</ele>
        <time>2010-07-04T07:34:49Z</time>
      </trkpt>
      <trkpt lat="45.03357" lon="5.839">
        <ele>1321</ele>
        <time>2010-07-04T07:34:50Z</time>
      </trkpt>
      <trkpt lat="45.0336" lon="5.83903">
        <ele>1321</ele>
        <time>2010-07-04T07:34:51Z</time>
      </trkpt>
      <trkpt lat="45.03363" lon="5.83906">
        <ele>1321</ele>
        <time>2010-07-04T07:34:52Z</time>
      </trkpt>
      <trkpt lat="45.03365" lon="5.83909">
        <ele>1321</ele>
        <time>2010-07-04T07:34:53Z</time>
      </trkpt>
      <trkpt lat="45.03368" lon="5.83912">
        <ele>1321</ele>
        <time>2010-07-04T07:34:54Z</time>
      </trkpt>
      <trkpt lat="45.0337" lon="5.83915">
        <ele>1321</ele>
        <time>2010-07-04T07:34:55Z</time>
      </trkpt>
      <trkpt lat="45.03373" lon="5.83918">
        <ele>1321</ele>
        <time>2010-07-04T07:34:56Z</time>
      </trkpt>
      <trkpt lat="45.03375" lon="5.83921">
        <ele>1321</ele>
        <time>2010-07-04T07:34:57Z</time>
      </trkpt>
      <trkpt lat="45.03378" lon="5.83923">
        <ele>1321</ele>
        <time>2010-07-04T07:34:58Z</time>
      </trkpt>
      <trkpt lat="45.0338" lon="5.83925">
        <ele>1321</ele>
        <time>2010-07-04T07:34:59Z</time>
      </trkpt>
      <trkpt lat="45.03383" lon="5.83927">
        <ele>1321</ele>
        <time>2010-07-04T07:35:00Z</time>
      </trkpt>
      <trkpt lat="45.03385" lon="5.83929">
        <ele>1321</ele>
        <time>2010-07-04T07:35:01Z</time>
      </trkpt>
      <trkpt lat="45.03388" lon="5.83931">
        <ele>1321</ele>
        <time>2010-07-04T07:35:02Z</time>
      </trkpt>
      <trkpt lat="45.03391" lon="5.83933">
        <ele>1321</ele>
        <time>2010-07-04T07:35:03Z</time>
      </trkpt>
      <trkpt lat="45.03393" lon="5.83935">
        <ele>1321</ele>
        <time>2010-07-04T07:35:04Z</time>
      </trkpt>
      <trkpt lat="45.03396" lon="5.83937">
        <ele>1321</ele>
        <time>2010-07-04T07:35:05Z</time>
      </trkpt>
      <trkpt lat="45.03398" lon="5.83938">
        <ele>1321</ele>
        <time>2010-07-04T07:35:06Z</time>
      </trkpt>
      <trkpt lat="45.03401" lon="5.8394">
        <ele>1322</ele>
        <time>2010-07-04T07:35:07Z</time>
      </trkpt>
      <trkpt lat="45.03403" lon="5.83943">
        <ele>1322</ele>
        <time>2010-07-04T07:35:08Z</time>
      </trkpt>
      <trkpt lat="45.03406" lon="5.83945">
        <ele>1323</ele>
        <time>2010-07-04T07:35:09Z</time>
      </trkpt>
      <trkpt lat="45.03409" lon="5.83947">
        <ele>1323</ele>
        <time>2010-07-04T07:35:10Z</time>
      </trkpt>
      <trkpt lat="45.03411" lon="5.83949">
        <ele>1323</ele>
        <time>2010-07-04T07:35:11Z</time>
      </trkpt>
      <trkpt lat="45.03414" lon="5.83952">
        <ele>1324</ele>
        <time>2010-07-04T07:35:12Z</time>
      </trkpt>
      <trkpt lat="45.03417" lon="5.83953">
        <ele>1324</ele>
        <time>2010-07-04T07:35:13Z</time>
      </trkpt>
      <trkpt lat="45.0342" lon="5.83955">
        <ele>1324</ele>
        <time>2010-07-04T07:35:14Z</time>
      </trkpt>
      <trkpt lat="45.03422" lon="5.83957">
        <ele>1324</ele>
        <time>2010-07-04T07:35:15Z</time>
      </trkpt>
      <trkpt lat="45.03425" lon="5.8396">
        <ele>1324</ele>
        <time>2010-07-04T07:35:16Z</time>
      </trkpt>
      <trkpt lat="45.03427" lon="5.83962">
        <ele>1324</ele>
        <time>2010-07-04T07:35:17Z</time>
      </trkpt>
      <trkpt lat="45.0343" lon="5.83965">
        <ele>1324</ele>
        <time>2010-07-04T07:35:18Z</time>
      </trkpt>
      <trkpt lat="45.03433" lon="5.83967">
        <ele>1324</ele>
        <time>2010-07-04T07:35:19Z</time>
      </trkpt>
      <trkpt lat="45.03435" lon="5.83969">
        <ele>1324</ele>
        <time>2010-07-04T07:35:20Z</time>
      </trkpt>
      <trkpt lat="45.03437" lon="5.83972">
        <ele>1324</ele>
        <time>2010-07-04T07:35:21Z</time>
      </trkpt>
      <trkpt lat="45.0344" lon="5.83975">
        <ele>1324</ele>
        <time>2010-07-04T07:35:22Z</time>
      </trkpt>
      <trkpt lat="45.03442" lon="5.83979">
        <ele>1324</ele>
        <time>2010-07-04T07:35:23Z</time>
      </trkpt>
      <trkpt lat="45.03445" lon="5.83982">
        <ele>1324</ele>
        <time>2010-07-04T07:35:24Z</time>
      </trkpt>
      <trkpt lat="45.03447" lon="5.83986">
        <ele>1324</ele>
        <time>2010-07-04T07:35:25Z</time>
      </trkpt>
      <trkpt lat="45.03449" lon="5.8399">
        <ele>1324</ele>
        <time>2010-07-04T07:35:26Z</time>
      </trkpt>
      <trkpt lat="45.03451" lon="5.83995">
        <ele>1324</ele>
        <time>2010-07-04T07:35:27Z</time>
      </trkpt>
      <trkpt lat="45.03452" lon="5.83999">
        <ele>1323</ele>
        <time>2010-07-04T07:35:28Z</time>
      </trkpt>
      <trkpt lat="45.03454" lon="5.84004">
        <ele>1323</ele>
        <time>2010-07-04T07:35:29Z</time>
      </trkpt>
      <trkpt lat="45.03456" lon="5.84008">
        <ele>1322</ele>
        <time>2010-07-04T07:35:30Z</time>
      </trkpt>
      <trkpt lat="45.03458" lon="5.84013">
        <ele>1322</ele>
        <time>2010-07-04T07:35:31Z</time>
      </trkpt>
      <trkpt lat="45.0346" lon="5.84018">
        <ele>1321</ele>
        <time>2010-07-04T07:35:32Z</time>
      </trkpt>
      <trkpt lat="45.03462" lon="5.84022">
        <ele>1320</ele>
        <time>2010-07-04T07:35:33Z</time>
      </trkpt>
      <trkpt lat="45.03465" lon="5.84027">
        <ele>1320</ele>
        <time>2010-07-04T07:35:34Z</time>
      </trkpt>
      <trkpt lat="45.03467" lon="5.84031">
        <ele>1319</ele>
        <time>2010-07-04T07:35:35Z</time>
      </trkpt>
      <trkpt lat="45.03469" lon="5.84035">
        <ele>1319</ele>
        <time>2010-07-04T07:35:36Z</time>
      </trkpt>
      <trkpt lat="45.03472" lon="5.84038">
        <ele>1319</ele>
        <time>2010-07-04T07:35:37Z</time>
      </trkpt>
      <trkpt lat="45.03474" lon="5.84042">
        <ele>1318</ele>
        <time>2010-07-04T07:35:38Z</time>
      </trkpt>
      <trkpt lat="45.03477" lon="5.84045">
        <ele>1318</ele>
        <time>2010-07-04T07:35:39Z</time>
      </trkpt>
      <trkpt lat="45.03479" lon="5.84049">
        <ele>1318</ele>
        <time>2010-07-04T07:35:40Z</time>
      </trkpt>
      <trkpt lat="45.03481" lon="5.84054">
        <ele>1317</ele>
        <time>2010-07-04T07:35:41Z</time>
      </trkpt>
      <trkpt lat="45.03483" lon="5.84058">
        <ele>1317</ele>
        <time>2010-07-04T07:35:42Z</time>
      </trkpt>
      <trkpt lat="45.03486" lon="5.84062">
        <ele>1316</ele>
        <time>2010-07-04T07:35:43Z</time>
      </trkpt>
      <trkpt lat="45.03488" lon="5.84066">
        <ele>1316</ele>
        <time>2010-07-04T07:35:44Z</time>
      </trkpt>
      <trkpt lat="45.0349" lon="5.84071">
        <ele>1315</ele>
        <time>2010-07-04T07:35:45Z</time>
      </trkpt>
      <trkpt lat="45.03492" lon="5.84075">
        <ele>1315</ele>
        <time>2010-07-04T07:35:46Z</time>
      </trkpt>
      <trkpt lat="45.03494" lon="5.84079">
        <ele>1314</ele>
        <time>2010-07-04T07:35:47Z</time>
      </trkpt>
      <trkpt lat="45.03496" lon="5.84084">
        <ele>1313</ele>
        <time>2010-07-04T07:35:48Z</time>
      </trkpt>
      <trkpt lat="45.03497" lon="5.84088">
        <ele>1313</ele>
        <time>2010-07-04T07:35:49Z</time>
      </trkpt>
      <trkpt lat="45.03498" lon="5.84092">
        <ele>1313</ele>
        <time>2010-07-04T07:35:50Z</time>
      </trkpt>
      <trkpt lat="45.03498" lon="5.84095">
        <ele>1312</ele>
        <time>2010-07-04T07:35:51Z</time>
      </trkpt>
      <trkpt lat="45.035" lon="5.84098">
        <ele>1312</ele>
        <time>2010-07-04T07:35:52Z</time>
      </trkpt>
      <trkpt lat="45.035" lon="5.84101">
        <ele>1312</ele>
        <time>2010-07-04T07:35:53Z</time>
      </trkpt>
      <trkpt lat="45.03502" lon="5.84105">
        <ele>1312</ele>
        <time>2010-07-04T07:35:54Z</time>
      </trkpt>
      <trkpt lat="45.03505" lon="5.84108">
        <ele>1312</ele>
        <time>2010-07-04T07:35:55Z</time>
      </trkpt>
      <trkpt lat="45.03507" lon="5.84112">
        <ele>1312</ele>
        <time>2010-07-04T07:35:56Z</time>
      </trkpt>
      <trkpt lat="45.03508" lon="5.84116">
        <ele>1312</ele>
        <time>2010-07-04T07:35:57Z</time>
      </trkpt>
      <trkpt lat="45.0351" lon="5.84121">
        <ele>1312</ele>
        <time>2010-07-04T07:35:58Z</time>
      </trkpt>
      <trkpt lat="45.03511" lon="5.84125">
        <ele>1312</ele>
        <time>2010-07-04T07:35:59Z</time>
      </trkpt>
      <trkpt lat="45.03514" lon="5.8413">
        <ele>1312</ele>
        <time>2010-07-04T07:36:00Z</time>
      </trkpt>
      <trkpt lat="45.03516" lon="5.84135">
        <ele>1312</ele>
        <time>2010-07-04T07:36:01Z</time>
      </trkpt>
      <trkpt lat="45.03518" lon="5.8414">
        <ele>1312</ele>
        <time>2010-07-04T07:36:02Z</time>
      </trkpt>
      <trkpt lat="45.0352" lon="5.84144">
        <ele>1312</ele>
        <time>2010-07-04T07:36:03Z</time>
      </trkpt>
      <trkpt lat="45.03522" lon="5.84148">
        <ele>1312</ele>
        <time>2010-07-04T07:36:04Z</time>
      </trkpt>
      <trkpt lat="45.03524" lon="5.84152">
        <ele>1312</ele>
        <time>2010-07-04T07:36:05Z</time>
      </trkpt>
      <trkpt lat="45.03525" lon="5.84156">
        <ele>1312</ele>
        <time>2010-07-04T07:36:06Z</time>
      </trkpt>
      <trkpt lat="45.03526" lon="5.84161">
        <ele>1312</ele>
        <time>2010-07-04T07:36:07Z</time>
      </trkpt>
      <trkpt lat="45.03527" lon="5.84165">
        <ele>1312</ele>
        <time>2010-07-04T07:36:08Z</time>
      </trkpt>
      <trkpt lat="45.03528" lon="5.8417">
        <ele>1312</ele>
        <time>2010-07-04T07:36:09Z</time>
      </trkpt>
      <trkpt lat="45.03528" lon="5.84174">
        <ele>1312</ele>
        <time>2010-07-04T07:36:10Z</time>
      </trkpt>
      <trkpt lat="45.03528" lon="5.84178">
        <ele>1312</ele>
        <time>2010-07-04T07:36:11Z</time>
      </trkpt>
      <trkpt lat="45.03529" lon="5.84182">
        <ele>1312</ele>
        <time>2010-07-04T07:36:12Z</time>
      </trkpt>
      <trkpt lat="45.0353" lon="5.84186">
        <ele>1312</ele>
        <time>2010-07-04T07:36:13Z</time>
      </trkpt>
      <trkpt lat="45.03532" lon="5.84191">
        <ele>1312</ele>
        <time>2010-07-04T07:36:14Z</time>
      </trkpt>
      <trkpt lat="45.03533" lon="5.84195">
        <ele>1312</ele>
        <time>2010-07-04T07:36:15Z</time>
      </trkpt>
      <trkpt lat="45.03533" lon="5.842">
        <ele>1312</ele>
        <time>2010-07-04T07:36:16Z</time>
      </trkpt>
      <trkpt lat="45.03534" lon="5.84204">
        <ele>1312</ele>
        <time>2010-07-04T07:36:17Z</time>
      </trkpt>
      <trkpt lat="45.03535" lon="5.84208">
        <ele>1312</ele>
        <time>2010-07-04T07:36:18Z</time>
      </trkpt>
      <trkpt lat="45.03537" lon="5.84212">
        <ele>1312</ele>
        <time>2010-07-04T07:36:19Z</time>
      </trkpt>
      <trkpt lat="45.03538" lon="5.84216">
        <ele>1312</ele>
        <time>2010-07-04T07:36:20Z</time>
      </trkpt>
      <trkpt lat="45.03539" lon="5.8422">
        <ele>1312</ele>
        <time>2010-07-04T07:36:21Z</time>
      </trkpt>
      <trkpt lat="45.0354" lon="5.84223">
        <ele>1312</ele>
        <time>2010-07-04T07:36:22Z</time>
      </trkpt>
      <trkpt lat="45.03541" lon="5.84227">
        <ele>1312</ele>
        <time>2010-07-04T07:36:23Z</time>
      </trkpt>
      <trkpt lat="45.03541" lon="5.84231">
        <ele>1312</ele>
        <time>2010-07-04T07:36:24Z</time>
      </trkpt>
      <trkpt lat="45.03542" lon="5.84235">
        <ele>1312</ele>
        <time>2010-07-04T07:36:25Z</time>
      </trkpt>
      <trkpt lat="45.03542" lon="5.84239">
        <ele>1313</ele>
        <time>2010-07-04T07:36:26Z</time>
      </trkpt>
      <trkpt lat="45.03542" lon="5.84243">
        <ele>1314</ele>
        <time>2010-07-04T07:36:27Z</time>
      </trkpt>
      <trkpt lat="45.03543" lon="5.84247">
        <ele>1315</ele>
        <time>2010-07-04T07:36:28Z</time>
      </trkpt>
      <trkpt lat="45.03543" lon="5.84251">
        <ele>1316</ele>
        <time>2010-07-04T07:36:29Z</time>
      </trkpt>
      <trkpt lat="45.03543" lon="5.84254">
        <ele>1316</ele>
        <time>2010-07-04T07:36:30Z</time>
      </trkpt>
      <trkpt lat="45.03544" lon="5.84257">
        <ele>1317</ele>
        <time>2010-07-04T07:36:31Z</time>
      </trkpt>
      <trkpt lat="45.03544" lon="5.84261">
        <ele>1318</ele>
        <time>2010-07-04T07:36:32Z</time>
      </trkpt>
      <trkpt lat="45.03545" lon="5.84264">
        <ele>1319</ele>
        <time>2010-07-04T07:36:33Z</time>
      </trkpt>
      <trkpt lat="45.03545" lon="5.84267">
        <ele>1320</ele>
        <time>2010-07-04T07:36:34Z</time>
      </trkpt>
      <trkpt lat="45.03546" lon="5.84271">
        <ele>1321</ele>
        <time>2010-07-04T07:36:35Z</time>
      </trkpt>
      <trkpt lat="45.03545" lon="5.84274">
        <ele>1322</ele>
        <time>2010-07-04T07:36:36Z</time>
      </trkpt>
      <trkpt lat="45.03545" lon="5.84278">
        <ele>1323</ele>
        <time>2010-07-04T07:36:37Z</time>
      </trkpt>
      <trkpt lat="45.03546" lon="5.84281">
        <ele>1324</ele>
        <time>2010-07-04T07:36:38Z</time>
      </trkpt>
      <trkpt lat="45.03546" lon="5.84284">
        <ele>1325</ele>
        <time>2010-07-04T07:36:39Z</time>
      </trkpt>
      <trkpt lat="45.03545" lon="5.84287">
        <ele>1326</ele>
        <time>2010-07-04T07:36:40Z</time>
      </trkpt>
      <trkpt lat="45.03545" lon="5.8429">
        <ele>1326</ele>
        <time>2010-07-04T07:36:41Z</time>
      </trkpt>
      <trkpt lat="45.03544" lon="5.84293">
        <ele>1326</ele>
        <time>2010-07-04T07:36:42Z</time>
      </trkpt>
      <trkpt lat="45.03543" lon="5.84296">
        <ele>1327</ele>
        <time>2010-07-04T07:36:43Z</time>
      </trkpt>
      <trkpt lat="45.03542" lon="5.84299">
        <ele>1327</ele>
        <time>2010-07-04T07:36:44Z</time>
      </trkpt>
      <trkpt lat="45.03541" lon="5.84302">
        <ele>1327</ele>
        <time>2010-07-04T07:36:45Z</time>
      </trkpt>
      <trkpt lat="45.03539" lon="5.84305">
        <ele>1327</ele>
        <time>2010-07-04T07:36:46Z</time>
      </trkpt>
      <trkpt lat="45.03536" lon="5.84308">
        <ele>1327</ele>
        <time>2010-07-04T07:36:47Z</time>
      </trkpt>
      <trkpt lat="45.03534" lon="5.8431">
        <ele>1327</ele>
        <time>2010-07-04T07:36:48Z</time>
      </trkpt>
      <trkpt lat="45.03531" lon="5.84312">
        <ele>1327</ele>
        <time>2010-07-04T07:36:49Z</time>
      </trkpt>
      <trkpt lat="45.03528" lon="5.84313">
        <ele>1327</ele>
        <time>2010-07-04T07:36:50Z</time>
      </trkpt>
      <trkpt lat="45.03525" lon="5.84312">
        <ele>1327</ele>
        <time>2010-07-04T07:36:51Z</time>
      </trkpt>
      <trkpt lat="45.03523" lon="5.8431">
        <ele>1327</ele>
        <time>2010-07-04T07:36:52Z</time>
      </trkpt>
      <trkpt lat="45.03522" lon="5.84307">
        <ele>1327</ele>
        <time>2010-07-04T07:36:53Z</time>
      </trkpt>
      <trkpt lat="45.03522" lon="5.84303">
        <ele>1327</ele>
        <time>2010-07-04T07:36:54Z</time>
      </trkpt>
      <trkpt lat="45.03521" lon="5.84299">
        <ele>1327</ele>
        <time>2010-07-04T07:36:55Z</time>
      </trkpt>
      <trkpt lat="45.03521" lon="5.84295">
        <ele>1327</ele>
        <time>2010-07-04T07:36:56Z</time>
      </trkpt>
      <trkpt lat="45.03521" lon="5.84293">
        <ele>1327</ele>
        <time>2010-07-04T07:36:57Z</time>
      </trkpt>
      <trkpt lat="45.03521" lon="5.8429">
        <ele>1327</ele>
        <time>2010-07-04T07:36:58Z</time>
      </trkpt>
      <trkpt lat="45.0352" lon="5.84287">
        <ele>1327</ele>
        <time>2010-07-04T07:36:59Z</time>
      </trkpt>
      <trkpt lat="45.0352" lon="5.84284">
        <ele>1327</ele>
        <time>2010-07-04T07:37:00Z</time>
      </trkpt>
      <trkpt lat="45.03519" lon="5.84281">
        <ele>1327</ele>
        <time>2010-07-04T07:37:01Z</time>
      </trkpt>
      <trkpt lat="45.03519" lon="5.84278">
        <ele>1327</ele>
        <time>2010-07-04T07:37:02Z</time>
      </trkpt>
      <trkpt lat="45.03519" lon="5.84275">
        <ele>1327</ele>
        <time>2010-07-04T07:37:03Z</time>
      </trkpt>
      <trkpt lat="45.03519" lon="5.84272">
        <ele>1327</ele>
        <time>2010-07-04T07:37:04Z</time>
      </trkpt>
      <trkpt lat="45.03519" lon="5.84267">
        <ele>1327</ele>
        <time>2010-07-04T07:37:05Z</time>
      </trkpt>
      <trkpt lat="45.03519" lon="5.84264">
        <ele>1327</ele>
        <time>2010-07-04T07:37:06Z</time>
      </trkpt>
      <trkpt lat="45.03518" lon="5.8426">
        <ele>1327</ele>
        <time>2010-07-04T07:37:07Z</time>
      </trkpt>
      <trkpt lat="45.03517" lon="5.84256">
        <ele>1327</ele>
        <time>2010-07-04T07:37:08Z</time>
      </trkpt>
      <trkpt lat="45.03517" lon="5.84253">
        <ele>1327</ele>
        <time>2010-07-04T07:37:09Z</time>
      </trkpt>
      <trkpt lat="45.03516" lon="5.8425">
        <ele>1327</ele>
        <time>2010-07-04T07:37:10Z</time>
      </trkpt>
      <trkpt lat="45.03516" lon="5.84246">
        <ele>1327</ele>
        <time>2010-07-04T07:37:11Z</time>
      </trkpt>
      <trkpt lat="45.03515" lon="5.84243">
        <ele>1327</ele>
        <time>2010-07-04T07:37:12Z</time>
      </trkpt>
      <trkpt lat="45.03514" lon="5.8424">
        <ele>1327</ele>
        <time>2010-07-04T07:37:13Z</time>
      </trkpt>
      <trkpt lat="45.03513" lon="5.84237">
        <ele>1327</ele>
        <time>2010-07-04T07:37:14Z</time>
      </trkpt>
      <trkpt lat="45.03511" lon="5.84234">
        <ele>1328</ele>
        <time>2010-07-04T07:37:15Z</time>
      </trkpt>
      <trkpt lat="45.0351" lon="5.84231">
        <ele>1328</ele>
        <time>2010-07-04T07:37:16Z</time>
      </trkpt>
      <trkpt lat="45.03509" lon="5.84229">
        <ele>1328</ele>
        <time>2010-07-04T07:37:17Z</time>
      </trkpt>
      <trkpt lat="45.03508" lon="5.84227">
        <ele>1328</ele>
        <time>2010-07-04T07:37:18Z</time>
      </trkpt>
      <trkpt lat="45.03507" lon="5.84225">
        <ele>1329</ele>
        <time>2010-07-04T07:37:19Z</time>
      </trkpt>
      <trkpt lat="45.03505" lon="5.84222">
        <ele>1329</ele>
        <time>2010-07-04T07:37:20Z</time>
      </trkpt>
      <trkpt lat="45.03503" lon="5.8422">
        <ele>1329</ele>
        <time>2010-07-04T07:37:21Z</time>
      </trkpt>
      <trkpt lat="45.03501" lon="5.84219">
        <ele>1329</ele>
        <time>2010-07-04T07:37:22Z</time>
      </trkpt>
      <trkpt lat="45.035" lon="5.84217">
        <ele>1329</ele>
        <time>2010-07-04T07:37:23Z</time>
      </trkpt>
      <trkpt lat="45.03499" lon="5.84215">
        <ele>1329</ele>
        <time>2010-07-04T07:37:24Z</time>
      </trkpt>
      <trkpt lat="45.03497" lon="5.84214">
        <ele>1329</ele>
        <time>2010-07-04T07:37:25Z</time>
      </trkpt>
      <trkpt lat="45.03495" lon="5.84212">
        <ele>1329</ele>
        <time>2010-07-04T07:37:26Z</time>
      </trkpt>
      <trkpt lat="45.03493" lon="5.84211">
        <ele>1329</ele>
        <time>2010-07-04T07:37:27Z</time>
      </trkpt>
      <trkpt lat="45.03491" lon="5.84208">
        <ele>1330</ele>
        <time>2010-07-04T07:37:28Z</time>
      </trkpt>
      <trkpt lat="45.03489" lon="5.84206">
        <ele>1330</ele>
        <time>2010-07-04T07:37:29Z</time>
      </trkpt>
      <trkpt lat="45.03487" lon="5.84204">
        <ele>1331</ele>
        <time>2010-07-04T07:37:30Z</time>
      </trkpt>
      <trkpt lat="45.03485" lon="5.84202">
        <ele>1331</ele>
        <time>2010-07-04T07:37:31Z</time>
      </trkpt>
      <trkpt lat="45.03484" lon="5.84199">
        <ele>1332</ele>
        <time>2010-07-04T07:37:32Z</time>
      </trkpt>
      <trkpt lat="45.03482" lon="5.84197">
        <ele>1332</ele>
        <time>2010-07-04T07:37:33Z</time>
      </trkpt>
      <trkpt lat="45.03481" lon="5.84194">
        <ele>1333</ele>
        <time>2010-07-04T07:37:34Z</time>
      </trkpt>
      <trkpt lat="45.0348" lon="5.84191">
        <ele>1333</ele>
        <time>2010-07-04T07:37:35Z</time>
      </trkpt>
      <trkpt lat="45.03479" lon="5.84187">
        <ele>1333</ele>
        <time>2010-07-04T07:37:36Z</time>
      </trkpt>
      <trkpt lat="45.03478" lon="5.84183">
        <ele>1333</ele>
        <time>2010-07-04T07:37:37Z</time>
      </trkpt>
      <trkpt lat="45.03478" lon="5.84178">
        <ele>1333</ele>
        <time>2010-07-04T07:37:38Z</time>
      </trkpt>
      <trkpt lat="45.03478" lon="5.84174">
        <ele>1334</ele>
        <time>2010-07-04T07:37:39Z</time>
      </trkpt>
      <trkpt lat="45.03478" lon="5.8417">
        <ele>1334</ele>
        <time>2010-07-04T07:37:40Z</time>
      </trkpt>
      <trkpt lat="45.03477" lon="5.84166">
        <ele>1334</ele>
        <time>2010-07-04T07:37:41Z</time>
      </trkpt>
      <trkpt lat="45.03477" lon="5.84162">
        <ele>1334</ele>
        <time>2010-07-04T07:37:42Z</time>
      </trkpt>
      <trkpt lat="45.03476" lon="5.84157">
        <ele>1334</ele>
        <time>2010-07-04T07:37:43Z</time>
      </trkpt>
      <trkpt lat="45.03476" lon="5.84153">
        <ele>1334</ele>
        <time>2010-07-04T07:37:44Z</time>
      </trkpt>
      <trkpt lat="45.03475" lon="5.8415">
        <ele>1334</ele>
        <time>2010-07-04T07:37:45Z</time>
      </trkpt>
      <trkpt lat="45.03474" lon="5.84146">
        <ele>1334</ele>
        <time>2010-07-04T07:37:46Z</time>
      </trkpt>
      <trkpt lat="45.03474" lon="5.84143">
        <ele>1334</ele>
        <time>2010-07-04T07:37:47Z</time>
      </trkpt>
      <trkpt lat="45.03473" lon="5.84139">
        <ele>1334</ele>
        <time>2010-07-04T07:37:48Z</time>
      </trkpt>
      <trkpt lat="45.03471" lon="5.84136">
        <ele>1334</ele>
        <time>2010-07-04T07:37:49Z</time>
      </trkpt>
      <trkpt lat="45.0347" lon="5.84133">
        <ele>1335</ele>
        <time>2010-07-04T07:37:50Z</time>
      </trkpt>
      <trkpt lat="45.03469" lon="5.84129">
        <ele>1335</ele>
        <time>2010-07-04T07:37:51Z</time>
      </trkpt>
      <trkpt lat="45.03468" lon="5.84127">
        <ele>1335</ele>
        <time>2010-07-04T07:37:52Z</time>
      </trkpt>
      <trkpt lat="45.03467" lon="5.84123">
        <ele>1335</ele>
        <time>2010-07-04T07:37:53Z</time>
      </trkpt>
      <trkpt lat="45.03466" lon="5.8412">
        <ele>1335</ele>
        <time>2010-07-04T07:37:54Z</time>
      </trkpt>
      <trkpt lat="45.03465" lon="5.84118">
        <ele>1336</ele>
        <time>2010-07-04T07:37:55Z</time>
      </trkpt>
      <trkpt lat="45.03464" lon="5.84115">
        <ele>1336</ele>
        <time>2010-07-04T07:37:56Z</time>
      </trkpt>
      <trkpt lat="45.03463" lon="5.84113">
        <ele>1336</ele>
        <time>2010-07-04T07:37:57Z</time>
      </trkpt>
      <trkpt lat="45.03461" lon="5.84111">
        <ele>1336</ele>
        <time>2010-07-04T07:37:58Z</time>
      </trkpt>
      <trkpt lat="45.03459" lon="5.84109">
        <ele>1337</ele>
        <time>2010-07-04T07:37:59Z</time>
      </trkpt>
      <trkpt lat="45.03458" lon="5.84107">
        <ele>1337</ele>
        <time>2010-07-04T07:38:00Z</time>
      </trkpt>
      <trkpt lat="45.03456" lon="5.84105">
        <ele>1337</ele>
        <time>2010-07-04T07:38:01Z</time>
      </trkpt>
      <trkpt lat="45.03455" lon="5.84104">
        <ele>1338</ele>
        <time>2010-07-04T07:38:02Z</time>
      </trkpt>
      <trkpt lat="45.03453" lon="5.84101">
        <ele>1339</ele>
        <time>2010-07-04T07:38:03Z</time>
      </trkpt>
      <trkpt lat="45.03452" lon="5.84099">
        <ele>1339</ele>
        <time>2010-07-04T07:38:04Z</time>
      </trkpt>
      <trkpt lat="45.03451" lon="5.84097">
        <ele>1340</ele>
        <time>2010-07-04T07:38:05Z</time>
      </trkpt>
      <trkpt lat="45.03449" lon="5.84095">
        <ele>1341</ele>
        <time>2010-07-04T07:38:06Z</time>
      </trkpt>
      <trkpt lat="45.03448" lon="5.84093">
        <ele>1342</ele>
        <time>2010-07-04T07:38:07Z</time>
      </trkpt>
      <trkpt lat="45.03446" lon="5.84091">
        <ele>1342</ele>
        <time>2010-07-04T07:38:08Z</time>
      </trkpt>
      <trkpt lat="45.03445" lon="5.84089">
        <ele>1343</ele>
        <time>2010-07-04T07:38:09Z</time>
      </trkpt>
      <trkpt lat="45.03443" lon="5.84087">
        <ele>1344</ele>
        <time>2010-07-04T07:38:10Z</time>
      </trkpt>
      <trkpt lat="45.03442" lon="5.84085">
        <ele>1344</ele>
        <time>2010-07-04T07:38:11Z</time>
      </trkpt>
      <trkpt lat="45.0344" lon="5.84083">
        <ele>1344</ele>
        <time>2010-07-04T07:38:12Z</time>
      </trkpt>
      <trkpt lat="45.03439" lon="5.84081">
        <ele>1345</ele>
        <time>2010-07-04T07:38:13Z</time>
      </trkpt>
      <trkpt lat="45.03437" lon="5.84079">
        <ele>1345</ele>
        <time>2010-07-04T07:38:14Z</time>
      </trkpt>
      <trkpt lat="45.03436" lon="5.84077">
        <ele>1345</ele>
        <time>2010-07-04T07:38:15Z</time>
      </trkpt>
      <trkpt lat="45.03434" lon="5.84075">
        <ele>1346</ele>
        <time>2010-07-04T07:38:16Z</time>
      </trkpt>
      <trkpt lat="45.03433" lon="5.84073">
        <ele>1346</ele>
        <time>2010-07-04T07:38:17Z</time>
      </trkpt>
      <trkpt lat="45.03431" lon="5.84072">
        <ele>1346</ele>
        <time>2010-07-04T07:38:18Z</time>
      </trkpt>
      <trkpt lat="45.03429" lon="5.8407">
        <ele>1346</ele>
        <time>2010-07-04T07:38:19Z</time>
      </trkpt>
      <trkpt lat="45.03427" lon="5.84069">
        <ele>1346</ele>
        <time>2010-07-04T07:38:20Z</time>
      </trkpt>
      <trkpt lat="45.03426" lon="5.84067">
        <ele>1346</ele>
        <time>2010-07-04T07:38:21Z</time>
      </trkpt>
      <trkpt lat="45.03425" lon="5.84065">
        <ele>1347</ele>
        <time>2010-07-04T07:38:22Z</time>
      </trkpt>
      <trkpt lat="45.03424" lon="5.84063">
        <ele>1347</ele>
        <time>2010-07-04T07:38:23Z</time>
      </trkpt>
      <trkpt lat="45.03422" lon="5.84062">
        <ele>1347</ele>
        <time>2010-07-04T07:38:24Z</time>
      </trkpt>
      <trkpt lat="45.03421" lon="5.8406">
        <ele>1347</ele>
        <time>2010-07-04T07:38:25Z</time>
      </trkpt>
      <trkpt lat="45.03419" lon="5.84059">
        <ele>1347</ele>
        <time>2010-07-04T07:38:26Z</time>
      </trkpt>
      <trkpt lat="45.03417" lon="5.84057">
        <ele>1347</ele>
        <time>2010-07-04T07:38:27Z</time>
      </trkpt>
      <trkpt lat="45.03415" lon="5.84054">
        <ele>1348</ele>
        <time>2010-07-04T07:38:28Z</time>
      </trkpt>
      <trkpt lat="45.03414" lon="5.84053">
        <ele>1348</ele>
        <time>2010-07-04T07:38:29Z</time>
      </trkpt>
      <trkpt lat="45.03413" lon="5.84051">
        <ele>1348</ele>
        <time>2010-07-04T07:38:30Z</time>
      </trkpt>
      <trkpt lat="45.03411" lon="5.84049">
        <ele>1349</ele>
        <time>2010-07-04T07:38:31Z</time>
      </trkpt>
      <trkpt lat="45.0341" lon="5.84047">
        <ele>1349</ele>
        <time>2010-07-04T07:38:32Z</time>
      </trkpt>
      <trkpt lat="45.03408" lon="5.84045">
        <ele>1349</ele>
        <time>2010-07-04T07:38:33Z</time>
      </trkpt>
      <trkpt lat="45.03406" lon="5.84043">
        <ele>1350</ele>
        <time>2010-07-04T07:38:34Z</time>
      </trkpt>
      <trkpt lat="45.03404" lon="5.8404">
        <ele>1350</ele>
        <time>2010-07-04T07:38:35Z</time>
      </trkpt>
      <trkpt lat="45.03403" lon="5.84038">
        <ele>1350</ele>
        <time>2010-07-04T07:38:36Z</time>
      </trkpt>
      <trkpt lat="45.03401" lon="5.84036">
        <ele>1350</ele>
        <time>2010-07-04T07:38:37Z</time>
      </trkpt>
      <trkpt lat="45.034" lon="5.84034">
        <ele>1350</ele>
        <time>2010-07-04T07:38:38Z</time>
      </trkpt>
      <trkpt lat="45.03398" lon="5.84032">
        <ele>1351</ele>
        <time>2010-07-04T07:38:39Z</time>
      </trkpt>
      <trkpt lat="45.03396" lon="5.8403">
        <ele>1351</ele>
        <time>2010-07-04T07:38:40Z</time>
      </trkpt>
      <trkpt lat="45.03394" lon="5.84028">
        <ele>1352</ele>
        <time>2010-07-04T07:38:41Z</time>
      </trkpt>
      <trkpt lat="45.03392" lon="5.84026">
        <ele>1352</ele>
        <time>2010-07-04T07:38:42Z</time>
      </trkpt>
      <trkpt lat="45.0339" lon="5.84024">
        <ele>1352</ele>
        <time>2010-07-04T07:38:43Z</time>
      </trkpt>
      <trkpt lat="45.03388" lon="5.84021">
        <ele>1352</ele>
        <time>2010-07-04T07:38:44Z</time>
      </trkpt>
      <trkpt lat="45.03386" lon="5.84018">
        <ele>1352</ele>
        <time>2010-07-04T07:38:45Z</time>
      </trkpt>
      <trkpt lat="45.03384" lon="5.84016">
        <ele>1352</ele>
        <time>2010-07-04T07:38:46Z</time>
      </trkpt>
      <trkpt lat="45.03382" lon="5.84014">
        <ele>1352</ele>
        <time>2010-07-04T07:38:47Z</time>
      </trkpt>
      <trkpt lat="45.0338" lon="5.84011">
        <ele>1352</ele>
        <time>2010-07-04T07:38:48Z</time>
      </trkpt>
      <trkpt lat="45.03377" lon="5.84008">
        <ele>1352</ele>
        <time>2010-07-04T07:38:49Z</time>
      </trkpt>
      <trkpt lat="45.03376" lon="5.84005">
        <ele>1352</ele>
        <time>2010-07-04T07:38:50Z</time>
      </trkpt>
      <trkpt lat="45.03374" lon="5.84002">
        <ele>1352</ele>
        <time>2010-07-04T07:38:51Z</time>
      </trkpt>
      <trkpt lat="45.03372" lon="5.83999">
        <ele>1352</ele>
        <time>2010-07-04T07:38:52Z</time>
      </trkpt>
      <trkpt lat="45.03369" lon="5.83996">
        <ele>1352</ele>
        <time>2010-07-04T07:38:53Z</time>
      </trkpt>
      <trkpt lat="45.03366" lon="5.83994">
        <ele>1352</ele>
        <time>2010-07-04T07:38:54Z</time>
      </trkpt>
      <trkpt lat="45.03363" lon="5.83992">
        <ele>1352</ele>
        <time>2010-07-04T07:38:55Z</time>
      </trkpt>
      <trkpt lat="45.03361" lon="5.83989">
        <ele>1352</ele>
        <time>2010-07-04T07:38:56Z</time>
      </trkpt>
      <trkpt lat="45.03358" lon="5.83986">
        <ele>1352</ele>
        <time>2010-07-04T07:38:57Z</time>
      </trkpt>
      <trkpt lat="45.03356" lon="5.83983">
        <ele>1352</ele>
        <time>2010-07-04T07:38:58Z</time>
      </trkpt>
      <trkpt lat="45.03354" lon="5.8398">
        <ele>1352</ele>
        <time>2010-07-04T07:38:59Z</time>
      </trkpt>
      <trkpt lat="45.03353" lon="5.83977">
        <ele>1352</ele>
        <time>2010-07-04T07:39:00Z</time>
      </trkpt>
      <trkpt lat="45.0335" lon="5.83975">
        <ele>1352</ele>
        <time>2010-07-04T07:39:01Z</time>
      </trkpt>
      <trkpt lat="45.03348" lon="5.83972">
        <ele>1352</ele>
        <time>2010-07-04T07:39:02Z</time>
      </trkpt>
      <trkpt lat="45.03345" lon="5.83968">
        <ele>1352</ele>
        <time>2010-07-04T07:39:03Z</time>
      </trkpt>
      <trkpt lat="45.03343" lon="5.83965">
        <ele>1352</ele>
        <time>2010-07-04T07:39:04Z</time>
      </trkpt>
      <trkpt lat="45.03341" lon="5.83962">
        <ele>1352</ele>
        <time>2010-07-04T07:39:05Z</time>
      </trkpt>
      <trkpt lat="45.03339" lon="5.83959">
        <ele>1352</ele>
        <time>2010-07-04T07:39:06Z</time>
      </trkpt>
      <trkpt lat="45.03337" lon="5.83955">
        <ele>1352</ele>
        <time>2010-07-04T07:39:07Z</time>
      </trkpt>
      <trkpt lat="45.03334" lon="5.83951">
        <ele>1352</ele>
        <time>2010-07-04T07:39:08Z</time>
      </trkpt>
      <trkpt lat="45.03332" lon="5.83947">
        <ele>1352</ele>
        <time>2010-07-04T07:39:09Z</time>
      </trkpt>
      <trkpt lat="45.03329" lon="5.83944">
        <ele>1352</ele>
        <time>2010-07-04T07:39:10Z</time>
      </trkpt>
      <trkpt lat="45.03327" lon="5.83942">
        <ele>1351</ele>
        <time>2010-07-04T07:39:11Z</time>
      </trkpt>
      <trkpt lat="45.03324" lon="5.8394">
        <ele>1351</ele>
        <time>2010-07-04T07:39:12Z</time>
      </trkpt>
      <trkpt lat="45.03322" lon="5.83938">
        <ele>1350</ele>
        <time>2010-07-04T07:39:13Z</time>
      </trkpt>
      <trkpt lat="45.03319" lon="5.83935">
        <ele>1350</ele>
        <time>2010-07-04T07:39:14Z</time>
      </trkpt>
      <trkpt lat="45.03316" lon="5.83933">
        <ele>1349</ele>
        <time>2010-07-04T07:39:15Z</time>
      </trkpt>
      <trkpt lat="45.03313" lon="5.8393">
        <ele>1348</ele>
        <time>2010-07-04T07:39:16Z</time>
      </trkpt>
      <trkpt lat="45.0331" lon="5.83927">
        <ele>1347</ele>
        <time>2010-07-04T07:39:17Z</time>
      </trkpt>
      <trkpt lat="45.03307" lon="5.83925">
        <ele>1347</ele>
        <time>2010-07-04T07:39:18Z</time>
      </trkpt>
      <trkpt lat="45.03303" lon="5.83923">
        <ele>1347</ele>
        <time>2010-07-04T07:39:19Z</time>
      </trkpt>
      <trkpt lat="45.033" lon="5.83921">
        <ele>1347</ele>
        <time>2010-07-04T07:39:20Z</time>
      </trkpt>
      <trkpt lat="45.03297" lon="5.83919">
        <ele>1346</ele>
        <time>2010-07-04T07:39:21Z</time>
      </trkpt>
      <trkpt lat="45.03294" lon="5.83918">
        <ele>1346</ele>
        <time>2010-07-04T07:39:22Z</time>
      </trkpt>
      <trkpt lat="45.03291" lon="5.83916">
        <ele>1346</ele>
        <time>2010-07-04T07:39:23Z</time>
      </trkpt>
      <trkpt lat="45.03288" lon="5.83914">
        <ele>1346</ele>
        <time>2010-07-04T07:39:24Z</time>
      </trkpt>
      <trkpt lat="45.03286" lon="5.8391">
        <ele>1345</ele>
        <time>2010-07-04T07:39:25Z</time>
      </trkpt>
      <trkpt lat="45.03283" lon="5.83906">
        <ele>1345</ele>
        <time>2010-07-04T07:39:26Z</time>
      </trkpt>
      <trkpt lat="45.0328" lon="5.83902">
        <ele>1345</ele>
        <time>2010-07-04T07:39:27Z</time>
      </trkpt>
      <trkpt lat="45.03277" lon="5.839">
        <ele>1345</ele>
        <time>2010-07-04T07:39:28Z</time>
      </trkpt>
      <trkpt lat="45.03275" lon="5.83897">
        <ele>1345</ele>
        <time>2010-07-04T07:39:29Z</time>
      </trkpt>
      <trkpt lat="45.03272" lon="5.83895">
        <ele>1345</ele>
        <time>2010-07-04T07:39:30Z</time>
      </trkpt>
      <trkpt lat="45.03269" lon="5.83893">
        <ele>1345</ele>
        <time>2010-07-04T07:39:31Z</time>
      </trkpt>
      <trkpt lat="45.03266" lon="5.8389">
        <ele>1345</ele>
        <time>2010-07-04T07:39:32Z</time>
      </trkpt>
      <trkpt lat="45.03263" lon="5.83889">
        <ele>1345</ele>
        <time>2010-07-04T07:39:33Z</time>
      </trkpt>
      <trkpt lat="45.0326" lon="5.83887">
        <ele>1345</ele>
        <time>2010-07-04T07:39:34Z</time>
      </trkpt>
      <trkpt lat="45.03258" lon="5.83885">
        <ele>1345</ele>
        <time>2010-07-04T07:39:35Z</time>
      </trkpt>
      <trkpt lat="45.03255" lon="5.83883">
        <ele>1345</ele>
        <time>2010-07-04T07:39:36Z</time>
      </trkpt>
      <trkpt lat="45.03252" lon="5.83882">
        <ele>1345</ele>
        <time>2010-07-04T07:39:37Z</time>
      </trkpt>
      <trkpt lat="45.0325" lon="5.8388">
        <ele>1345</ele>
        <time>2010-07-04T07:39:38Z</time>
      </trkpt>
      <trkpt lat="45.03247" lon="5.83878">
        <ele>1345</ele>
        <time>2010-07-04T07:39:39Z</time>
      </trkpt>
      <trkpt lat="45.03244" lon="5.83876">
        <ele>1345</ele>
        <time>2010-07-04T07:39:40Z</time>
      </trkpt>
      <trkpt lat="45.03241" lon="5.83876">
        <ele>1345</ele>
        <time>2010-07-04T07:39:41Z</time>
      </trkpt>
      <trkpt lat="45.03237" lon="5.83874">
        <ele>1345</ele>
        <time>2010-07-04T07:39:42Z</time>
      </trkpt>
      <trkpt lat="45.03235" lon="5.83874">
        <ele>1345</ele>
        <time>2010-07-04T07:39:43Z</time>
      </trkpt>
      <trkpt lat="45.03233" lon="5.83875">
        <ele>1345</ele>
        <time>2010-07-04T07:39:44Z</time>
      </trkpt>
      <trkpt lat="45.03231" lon="5.83875">
        <ele>1345</ele>
        <time>2010-07-04T07:39:45Z</time>
      </trkpt>
      <trkpt lat="45.03228" lon="5.83876">
        <ele>1345</ele>
        <time>2010-07-04T07:39:46Z</time>
      </trkpt>
      <trkpt lat="45.03227" lon="5.83877">
        <ele>1345</ele>
        <time>2010-07-04T07:39:47Z</time>
      </trkpt>
      <trkpt lat="45.03224" lon="5.83878">
        <ele>1345</ele>
        <time>2010-07-04T07:39:48Z</time>
      </trkpt>
      <trkpt lat="45.03222" lon="5.83878">
        <ele>1345</ele>
        <time>2010-07-04T07:39:49Z</time>
      </trkpt>
      <trkpt lat="45.0322" lon="5.83878">
        <ele>1345</ele>
        <time>2010-07-04T07:39:50Z</time>
      </trkpt>
      <trkpt lat="45.03218" lon="5.83879">
        <ele>1345</ele>
        <time>2010-07-04T07:39:51Z</time>
      </trkpt>
      <trkpt lat="45.03215" lon="5.83879">
        <ele>1346</ele>
        <time>2010-07-04T07:39:52Z</time>
      </trkpt>
      <trkpt lat="45.03212" lon="5.8388">
        <ele>1347</ele>
        <time>2010-07-04T07:39:53Z</time>
      </trkpt>
      <trkpt lat="45.0321" lon="5.83881">
        <ele>1348</ele>
        <time>2010-07-04T07:39:54Z</time>
      </trkpt>
      <trkpt lat="45.03207" lon="5.83881">
        <ele>1349</ele>
        <time>2010-07-04T07:39:55Z</time>
      </trkpt>
      <trkpt lat="45.03206" lon="5.83882">
        <ele>1350</ele>
        <time>2010-07-04T07:39:56Z</time>
      </trkpt>
      <trkpt lat="45.03204" lon="5.83882">
        <ele>1351</ele>
        <time>2010-07-04T07:39:57Z</time>
      </trkpt>
      <trkpt lat="45.03202" lon="5.83883">
        <ele>1351</ele>
        <time>2010-07-04T07:39:58Z</time>
      </trkpt>
      <trkpt lat="45.03201" lon="5.83884">
        <ele>1352</ele>
        <time>2010-07-04T07:39:59Z</time>
      </trkpt>
      <trkpt lat="45.032" lon="5.83886">
        <ele>1352</ele>
        <time>2010-07-04T07:40:00Z</time>
      </trkpt>
      <trkpt lat="45.03199" lon="5.83889">
        <ele>1352</ele>
        <time>2010-07-04T07:40:01Z</time>
      </trkpt>
      <trkpt lat="45.03199" lon="5.83891">
        <ele>1353</ele>
        <time>2010-07-04T07:40:02Z</time>
      </trkpt>
      <trkpt lat="45.03198" lon="5.83894">
        <ele>1353</ele>
        <time>2010-07-04T07:40:03Z</time>
      </trkpt>
      <trkpt lat="45.03198" lon="5.83897">
        <ele>1353</ele>
        <time>2010-07-04T07:40:04Z</time>
      </trkpt>
      <trkpt lat="45.03197" lon="5.839">
        <ele>1353</ele>
        <time>2010-07-04T07:40:05Z</time>
      </trkpt>
      <trkpt lat="45.03197" lon="5.83903">
        <ele>1353</ele>
        <time>2010-07-04T07:40:06Z</time>
      </trkpt>
      <trkpt lat="45.03197" lon="5.83906">
        <ele>1353</ele>
        <time>2010-07-04T07:40:07Z</time>
      </trkpt>
      <trkpt lat="45.03197" lon="5.8391">
        <ele>1353</ele>
        <time>2010-07-04T07:40:08Z</time>
      </trkpt>
      <trkpt lat="45.03197" lon="5.83913">
        <ele>1353</ele>
        <time>2010-07-04T07:40:09Z</time>
      </trkpt>
      <trkpt lat="45.03197" lon="5.83916">
        <ele>1353</ele>
        <time>2010-07-04T07:40:10Z</time>
      </trkpt>
      <trkpt lat="45.03197" lon="5.83919">
        <ele>1353</ele>
        <time>2010-07-04T07:40:11Z</time>
      </trkpt>
      <trkpt lat="45.03197" lon="5.83922">
        <ele>1353</ele>
        <time>2010-07-04T07:40:12Z</time>
      </trkpt>
      <trkpt lat="45.03197" lon="5.83925">
        <ele>1353</ele>
        <time>2010-07-04T07:40:13Z</time>
      </trkpt>
      <trkpt lat="45.03197" lon="5.83929">
        <ele>1353</ele>
        <time>2010-07-04T07:40:14Z</time>
      </trkpt>
      <trkpt lat="45.03198" lon="5.83932">
        <ele>1353</ele>
        <time>2010-07-04T07:40:15Z</time>
      </trkpt>
      <trkpt lat="45.03198" lon="5.83936">
        <ele>1353</ele>
        <time>2010-07-04T07:40:16Z</time>
      </trkpt>
      <trkpt lat="45.03197" lon="5.83938">
        <ele>1353</ele>
        <time>2010-07-04T07:40:17Z</time>
      </trkpt>
      <trkpt lat="45.03197" lon="5.83942">
        <ele>1353</ele>
        <time>2010-07-04T07:40:18Z</time>
      </trkpt>
      <trkpt lat="45.03197" lon="5.83945">
        <ele>1353</ele>
        <time>2010-07-04T07:40:19Z</time>
      </trkpt>
      <trkpt lat="45.03197" lon="5.83948">
        <ele>1353</ele>
        <time>2010-07-04T07:40:20Z</time>
      </trkpt>
      <trkpt lat="45.03197" lon="5.83951">
        <ele>1353</ele>
        <time>2010-07-04T07:40:21Z</time>
      </trkpt>
      <trkpt lat="45.03197" lon="5.83955">
        <ele>1353</ele>
        <time>2010-07-04T07:40:22Z</time>
      </trkpt>
      <trkpt lat="45.03197" lon="5.83958">
        <ele>1353</ele>
        <time>2010-07-04T07:40:23Z</time>
      </trkpt>
      <trkpt lat="45.03197" lon="5.83962">
        <ele>1353</ele>
        <time>2010-07-04T07:40:24Z</time>
      </trkpt>
      <trkpt lat="45.03197" lon="5.83965">
        <ele>1353</ele>
        <time>2010-07-04T07:40:25Z</time>
      </trkpt>
      <trkpt lat="45.03197" lon="5.83969">
        <ele>1353</ele>
        <time>2010-07-04T07:40:26Z</time>
      </trkpt>
      <trkpt lat="45.03198" lon="5.83973">
        <ele>1353</ele>
        <time>2010-07-04T07:40:27Z</time>
      </trkpt>
      <trkpt lat="45.03197" lon="5.83976">
        <ele>1354</ele>
        <time>2010-07-04T07:40:28Z</time>
      </trkpt>
      <trkpt lat="45.03197" lon="5.83979">
        <ele>1354</ele>
        <time>2010-07-04T07:40:29Z</time>
      </trkpt>
      <trkpt lat="45.03197" lon="5.83982">
        <ele>1355</ele>
        <time>2010-07-04T07:40:30Z</time>
      </trkpt>
      <trkpt lat="45.03197" lon="5.83984">
        <ele>1355</ele>
        <time>2010-07-04T07:40:31Z</time>
      </trkpt>
      <trkpt lat="45.03197" lon="5.83986">
        <ele>1355</ele>
        <time>2010-07-04T07:40:32Z</time>
      </trkpt>
      <trkpt lat="45.03197" lon="5.83989">
        <ele>1356</ele>
        <time>2010-07-04T07:40:33Z</time>
      </trkpt>
      <trkpt lat="45.03198" lon="5.83991">
        <ele>1356</ele>
        <time>2010-07-04T07:40:34Z</time>
      </trkpt>
      <trkpt lat="45.03199" lon="5.83994">
        <ele>1356</ele>
        <time>2010-07-04T07:40:35Z</time>
      </trkpt>
      <trkpt lat="45.032" lon="5.83997">
        <ele>1356</ele>
        <time>2010-07-04T07:40:36Z</time>
      </trkpt>
      <trkpt lat="45.03202" lon="5.83999">
        <ele>1356</ele>
        <time>2010-07-04T07:40:37Z</time>
      </trkpt>
      <trkpt lat="45.03204" lon="5.84001">
        <ele>1356</ele>
        <time>2010-07-04T07:40:38Z</time>
      </trkpt>
      <trkpt lat="45.03205" lon="5.84004">
        <ele>1356</ele>
        <time>2010-07-04T07:40:39Z</time>
      </trkpt>
      <trkpt lat="45.03207" lon="5.84006">
        <ele>1357</ele>
        <time>2010-07-04T07:40:40Z</time>
      </trkpt>
      <trkpt lat="45.03208" lon="5.84009">
        <ele>1358</ele>
        <time>2010-07-04T07:40:41Z</time>
      </trkpt>
      <trkpt lat="45.0321" lon="5.84011">
        <ele>1359</ele>
        <time>2010-07-04T07:40:42Z</time>
      </trkpt>
      <trkpt lat="45.03212" lon="5.84013">
        <ele>1359</ele>
        <time>2010-07-04T07:40:43Z</time>
      </trkpt>
      <trkpt lat="45.03214" lon="5.84015">
        <ele>1359</ele>
        <time>2010-07-04T07:40:44Z</time>
      </trkpt>
      <trkpt lat="45.03216" lon="5.84017">
        <ele>1360</ele>
        <time>2010-07-04T07:40:45Z</time>
      </trkpt>
      <trkpt lat="45.03217" lon="5.84019">
        <ele>1360</ele>
        <time>2010-07-04T07:40:46Z</time>
      </trkpt>
      <trkpt lat="45.03218" lon="5.84023">
        <ele>1360</ele>
        <time>2010-07-04T07:40:47Z</time>
      </trkpt>
      <trkpt lat="45.0322" lon="5.84026">
        <ele>1360</ele>
        <time>2010-07-04T07:40:48Z</time>
      </trkpt>
      <trkpt lat="45.03221" lon="5.84029">
        <ele>1361</ele>
        <time>2010-07-04T07:40:49Z</time>
      </trkpt>
      <trkpt lat="45.03222" lon="5.84032">
        <ele>1361</ele>
        <time>2010-07-04T07:40:50Z</time>
      </trkpt>
      <trkpt lat="45.03223" lon="5.84035">
        <ele>1361</ele>
        <time>2010-07-04T07:40:51Z</time>
      </trkpt>
      <trkpt lat="45.03224" lon="5.84038">
        <ele>1361</ele>
        <time>2010-07-04T07:40:52Z</time>
      </trkpt>
      <trkpt lat="45.03225" lon="5.84041">
        <ele>1361</ele>
        <time>2010-07-04T07:40:53Z</time>
      </trkpt>
      <trkpt lat="45.03227" lon="5.84043">
        <ele>1361</ele>
        <time>2010-07-04T07:40:54Z</time>
      </trkpt>
      <trkpt lat="45.03227" lon="5.84045">
        <ele>1361</ele>
        <time>2010-07-04T07:40:55Z</time>
      </trkpt>
      <trkpt lat="45.03228" lon="5.84048">
        <ele>1361</ele>
        <time>2010-07-04T07:40:56Z</time>
      </trkpt>
      <trkpt lat="45.03229" lon="5.84051">
        <ele>1361</ele>
        <time>2010-07-04T07:40:57Z</time>
      </trkpt>
      <trkpt lat="45.0323" lon="5.84053">
        <ele>1361</ele>
        <time>2010-07-04T07:40:58Z</time>
      </trkpt>
      <trkpt lat="45.0323" lon="5.84055">
        <ele>1361</ele>
        <time>2010-07-04T07:40:59Z</time>
      </trkpt>
      <trkpt lat="45.03231" lon="5.84059">
        <ele>1361</ele>
        <time>2010-07-04T07:41:00Z</time>
      </trkpt>
      <trkpt lat="45.03231" lon="5.84062">
        <ele>1361</ele>
        <time>2010-07-04T07:41:01Z</time>
      </trkpt>
      <trkpt lat="45.03232" lon="5.84064">
        <ele>1361</ele>
        <time>2010-07-04T07:41:02Z</time>
      </trkpt>
      <trkpt lat="45.03232" lon="5.84067">
        <ele>1361</ele>
        <time>2010-07-04T07:41:03Z</time>
      </trkpt>
      <trkpt lat="45.03233" lon="5.8407">
        <ele>1361</ele>
        <time>2010-07-04T07:41:04Z</time>
      </trkpt>
      <trkpt lat="45.03233" lon="5.84073">
        <ele>1361</ele>
        <time>2010-07-04T07:41:05Z</time>
      </trkpt>
      <trkpt lat="45.03234" lon="5.84076">
        <ele>1361</ele>
        <time>2010-07-04T07:41:06Z</time>
      </trkpt>
      <trkpt lat="45.03234" lon="5.84079">
        <ele>1361</ele>
        <time>2010-07-04T07:41:07Z</time>
      </trkpt>
      <trkpt lat="45.03235" lon="5.84081">
        <ele>1361</ele>
        <time>2010-07-04T07:41:08Z</time>
      </trkpt>
      <trkpt lat="45.03235" lon="5.84084">
        <ele>1361</ele>
        <time>2010-07-04T07:41:09Z</time>
      </trkpt>
      <trkpt lat="45.03235" lon="5.84087">
        <ele>1362</ele>
        <time>2010-07-04T07:41:10Z</time>
      </trkpt>
      <trkpt lat="45.03236" lon="5.84091">
        <ele>1362</ele>
        <time>2010-07-04T07:41:11Z</time>
      </trkpt>
      <trkpt lat="45.03237" lon="5.84094">
        <ele>1363</ele>
        <time>2010-07-04T07:41:12Z</time>
      </trkpt>
      <trkpt lat="45.03239" lon="5.84097">
        <ele>1363</ele>
        <time>2010-07-04T07:41:13Z</time>
      </trkpt>
      <trkpt lat="45.0324" lon="5.841">
        <ele>1364</ele>
        <time>2010-07-04T07:41:14Z</time>
      </trkpt>
      <trkpt lat="45.0324" lon="5.84104">
        <ele>1364</ele>
        <time>2010-07-04T07:41:15Z</time>
      </trkpt>
      <trkpt lat="45.03241" lon="5.84107">
        <ele>1364</ele>
        <time>2010-07-04T07:41:16Z</time>
      </trkpt>
      <trkpt lat="45.03241" lon="5.84111">
        <ele>1365</ele>
        <time>2010-07-04T07:41:17Z</time>
      </trkpt>
      <trkpt lat="45.03242" lon="5.84114">
        <ele>1365</ele>
        <time>2010-07-04T07:41:18Z</time>
      </trkpt>
      <trkpt lat="45.03244" lon="5.84118">
        <ele>1365</ele>
        <time>2010-07-04T07:41:19Z</time>
      </trkpt>
      <trkpt lat="45.03245" lon="5.84121">
        <ele>1365</ele>
        <time>2010-07-04T07:41:20Z</time>
      </trkpt>
      <trkpt lat="45.03247" lon="5.84124">
        <ele>1366</ele>
        <time>2010-07-04T07:41:21Z</time>
      </trkpt>
      <trkpt lat="45.03248" lon="5.84128">
        <ele>1366</ele>
        <time>2010-07-04T07:41:22Z</time>
      </trkpt>
      <trkpt lat="45.03249" lon="5.84131">
        <ele>1366</ele>
        <time>2010-07-04T07:41:23Z</time>
      </trkpt>
      <trkpt lat="45.0325" lon="5.84134">
        <ele>1366</ele>
        <time>2010-07-04T07:41:24Z</time>
      </trkpt>
      <trkpt lat="45.03251" lon="5.84137">
        <ele>1366</ele>
        <time>2010-07-04T07:41:25Z</time>
      </trkpt>
      <trkpt lat="45.03252" lon="5.8414">
        <ele>1366</ele>
        <time>2010-07-04T07:41:26Z</time>
      </trkpt>
      <trkpt lat="45.03254" lon="5.84143">
        <ele>1366</ele>
        <time>2010-07-04T07:41:27Z</time>
      </trkpt>
      <trkpt lat="45.03255" lon="5.84146">
        <ele>1366</ele>
        <time>2010-07-04T07:41:28Z</time>
      </trkpt>
      <trkpt lat="45.03256" lon="5.84149">
        <ele>1366</ele>
        <time>2010-07-04T07:41:29Z</time>
      </trkpt>
      <trkpt lat="45.03257" lon="5.84153">
        <ele>1366</ele>
        <time>2010-07-04T07:41:30Z</time>
      </trkpt>
      <trkpt lat="45.03259" lon="5.84156">
        <ele>1367</ele>
        <time>2010-07-04T07:41:31Z</time>
      </trkpt>
      <trkpt lat="45.03261" lon="5.84159">
        <ele>1367</ele>
        <time>2010-07-04T07:41:32Z</time>
      </trkpt>
      <trkpt lat="45.03262" lon="5.84162">
        <ele>1367</ele>
        <time>2010-07-04T07:41:33Z</time>
      </trkpt>
      <trkpt lat="45.03264" lon="5.84164">
        <ele>1367</ele>
        <time>2010-07-04T07:41:34Z</time>
      </trkpt>
      <trkpt lat="45.03266" lon="5.84167">
        <ele>1368</ele>
        <time>2010-07-04T07:41:35Z</time>
      </trkpt>
      <trkpt lat="45.03267" lon="5.8417">
        <ele>1368</ele>
        <time>2010-07-04T07:41:36Z</time>
      </trkpt>
      <trkpt lat="45.03269" lon="5.84173">
        <ele>1368</ele>
        <time>2010-07-04T07:41:37Z</time>
      </trkpt>
      <trkpt lat="45.03271" lon="5.84176">
        <ele>1368</ele>
        <time>2010-07-04T07:41:38Z</time>
      </trkpt>
      <trkpt lat="45.03272" lon="5.84179">
        <ele>1368</ele>
        <time>2010-07-04T07:41:39Z</time>
      </trkpt>
      <trkpt lat="45.03274" lon="5.84182">
        <ele>1368</ele>
        <time>2010-07-04T07:41:40Z</time>
      </trkpt>
      <trkpt lat="45.03275" lon="5.84185">
        <ele>1368</ele>
        <time>2010-07-04T07:41:41Z</time>
      </trkpt>
      <trkpt lat="45.03277" lon="5.84187">
        <ele>1368</ele>
        <time>2010-07-04T07:41:42Z</time>
      </trkpt>
      <trkpt lat="45.0328" lon="5.8419">
        <ele>1368</ele>
        <time>2010-07-04T07:41:43Z</time>
      </trkpt>
      <trkpt lat="45.03281" lon="5.84193">
        <ele>1368</ele>
        <time>2010-07-04T07:41:44Z</time>
      </trkpt>
      <trkpt lat="45.03283" lon="5.84195">
        <ele>1368</ele>
        <time>2010-07-04T07:41:45Z</time>
      </trkpt>
      <trkpt lat="45.03285" lon="5.84198">
        <ele>1368</ele>
        <time>2010-07-04T07:41:46Z</time>
      </trkpt>
      <trkpt lat="45.03286" lon="5.84201">
        <ele>1368</ele>
        <time>2010-07-04T07:41:47Z</time>
      </trkpt>
      <trkpt lat="45.03287" lon="5.84205">
        <ele>1368</ele>
        <time>2010-07-04T07:41:48Z</time>
      </trkpt>
      <trkpt lat="45.03288" lon="5.84208">
        <ele>1368</ele>
        <time>2010-07-04T07:41:49Z</time>
      </trkpt>
      <trkpt lat="45.03288" lon="5.84212">
        <ele>1368</ele>
        <time>2010-07-04T07:41:50Z</time>
      </trkpt>
      <trkpt lat="45.03288" lon="5.84215">
        <ele>1368</ele>
        <time>2010-07-04T07:41:51Z</time>
      </trkpt>
      <trkpt lat="45.03288" lon="5.84219">
        <ele>1369</ele>
        <time>2010-07-04T07:41:52Z</time>
      </trkpt>
      <trkpt lat="45.03287" lon="5.84222">
        <ele>1369</ele>
        <time>2010-07-04T07:41:53Z</time>
      </trkpt>
      <trkpt lat="45.03286" lon="5.84224">
        <ele>1369</ele>
        <time>2010-07-04T07:41:54Z</time>
      </trkpt>
      <trkpt lat="45.03284" lon="5.84227">
        <ele>1369</ele>
        <time>2010-07-04T07:41:55Z</time>
      </trkpt>
      <trkpt lat="45.03283" lon="5.8423">
        <ele>1369</ele>
        <time>2010-07-04T07:41:56Z</time>
      </trkpt>
      <trkpt lat="45.03281" lon="5.84232">
        <ele>1369</ele>
        <time>2010-07-04T07:41:57Z</time>
      </trkpt>
      <trkpt lat="45.0328" lon="5.84234">
        <ele>1369</ele>
        <time>2010-07-04T07:41:58Z</time>
      </trkpt>
      <trkpt lat="45.03278" lon="5.84236">
        <ele>1369</ele>
        <time>2010-07-04T07:41:59Z</time>
      </trkpt>
      <trkpt lat="45.03277" lon="5.84237">
        <ele>1369</ele>
        <time>2010-07-04T07:42:00Z</time>
      </trkpt>
      <trkpt lat="45.03275" lon="5.84239">
        <ele>1369</ele>
        <time>2010-07-04T07:42:01Z</time>
      </trkpt>
      <trkpt lat="45.03274" lon="5.84241">
        <ele>1369</ele>
        <time>2010-07-04T07:42:02Z</time>
      </trkpt>
      <trkpt lat="45.03272" lon="5.84244">
        <ele>1369</ele>
        <time>2010-07-04T07:42:03Z</time>
      </trkpt>
      <trkpt lat="45.03271" lon="5.84247">
        <ele>1370</ele>
        <time>2010-07-04T07:42:04Z</time>
      </trkpt>
      <trkpt lat="45.0327" lon="5.84251">
        <ele>1370</ele>
        <time>2010-07-04T07:42:05Z</time>
      </trkpt>
      <trkpt lat="45.03269" lon="5.84254">
        <ele>1371</ele>
        <time>2010-07-04T07:42:06Z</time>
      </trkpt>
      <trkpt lat="45.03267" lon="5.84256">
        <ele>1372</ele>
        <time>2010-07-04T07:42:07Z</time>
      </trkpt>
      <trkpt lat="45.03265" lon="5.84259">
        <ele>1372</ele>
        <time>2010-07-04T07:42:08Z</time>
      </trkpt>
      <trkpt lat="45.03264" lon="5.84262">
        <ele>1372</ele>
        <time>2010-07-04T07:42:09Z</time>
      </trkpt>
      <trkpt lat="45.03262" lon="5.84265">
        <ele>1372</ele>
        <time>2010-07-04T07:42:10Z</time>
      </trkpt>
      <trkpt lat="45.0326" lon="5.84267">
        <ele>1372</ele>
        <time>2010-07-04T07:42:11Z</time>
      </trkpt>
      <trkpt lat="45.03258" lon="5.8427">
        <ele>1372</ele>
        <time>2010-07-04T07:42:12Z</time>
      </trkpt>
      <trkpt lat="45.03256" lon="5.84272">
        <ele>1372</ele>
        <time>2010-07-04T07:42:13Z</time>
      </trkpt>
      <trkpt lat="45.03254" lon="5.84275">
        <ele>1372</ele>
        <time>2010-07-04T07:42:14Z</time>
      </trkpt>
      <trkpt lat="45.03252" lon="5.84278">
        <ele>1373</ele>
        <time>2010-07-04T07:42:15Z</time>
      </trkpt>
      <trkpt lat="45.0325" lon="5.84282">
        <ele>1373</ele>
        <time>2010-07-04T07:42:16Z</time>
      </trkpt>
      <trkpt lat="45.03248" lon="5.84286">
        <ele>1373</ele>
        <time>2010-07-04T07:42:17Z</time>
      </trkpt>
      <trkpt lat="45.03247" lon="5.84289">
        <ele>1373</ele>
        <time>2010-07-04T07:42:18Z</time>
      </trkpt>
      <trkpt lat="45.03245" lon="5.84293">
        <ele>1373</ele>
        <time>2010-07-04T07:42:19Z</time>
      </trkpt>
      <trkpt lat="45.03244" lon="5.84296">
        <ele>1374</ele>
        <time>2010-07-04T07:42:20Z</time>
      </trkpt>
      <trkpt lat="45.03243" lon="5.843">
        <ele>1374</ele>
        <time>2010-07-04T07:42:21Z</time>
      </trkpt>
      <trkpt lat="45.03242" lon="5.84303">
        <ele>1374</ele>
        <time>2010-07-04T07:42:22Z</time>
      </trkpt>
      <trkpt lat="45.03241" lon="5.84307">
        <ele>1375</ele>
        <time>2010-07-04T07:42:23Z</time>
      </trkpt>
      <trkpt lat="45.03241" lon="5.84311">
        <ele>1375</ele>
        <time>2010-07-04T07:42:24Z</time>
      </trkpt>
      <trkpt lat="45.03241" lon="5.84315">
        <ele>1376</ele>
        <time>2010-07-04T07:42:25Z</time>
      </trkpt>
      <trkpt lat="45.03241" lon="5.84319">
        <ele>1376</ele>
        <time>2010-07-04T07:42:26Z</time>
      </trkpt>
      <trkpt lat="45.03241" lon="5.84322">
        <ele>1376</ele>
        <time>2010-07-04T07:42:27Z</time>
      </trkpt>
      <trkpt lat="45.03241" lon="5.84326">
        <ele>1377</ele>
        <time>2010-07-04T07:42:28Z</time>
      </trkpt>
      <trkpt lat="45.03241" lon="5.8433">
        <ele>1377</ele>
        <time>2010-07-04T07:42:29Z</time>
      </trkpt>
      <trkpt lat="45.03242" lon="5.84334">
        <ele>1378</ele>
        <time>2010-07-04T07:42:30Z</time>
      </trkpt>
      <trkpt lat="45.03243" lon="5.84338">
        <ele>1378</ele>
        <time>2010-07-04T07:42:31Z</time>
      </trkpt>
      <trkpt lat="45.03243" lon="5.84342">
        <ele>1378</ele>
        <time>2010-07-04T07:42:32Z</time>
      </trkpt>
      <trkpt lat="45.03243" lon="5.84346">
        <ele>1379</ele>
        <time>2010-07-04T07:42:33Z</time>
      </trkpt>
      <trkpt lat="45.03244" lon="5.8435">
        <ele>1379</ele>
        <time>2010-07-04T07:42:34Z</time>
      </trkpt>
      <trkpt lat="45.03244" lon="5.84353">
        <ele>1379</ele>
        <time>2010-07-04T07:42:35Z</time>
      </trkpt>
      <trkpt lat="45.03244" lon="5.84357">
        <ele>1379</ele>
        <time>2010-07-04T07:42:36Z</time>
      </trkpt>
      <trkpt lat="45.03244" lon="5.84361">
        <ele>1379</ele>
        <time>2010-07-04T07:42:37Z</time>
      </trkpt>
      <trkpt lat="45.03244" lon="5.84364">
        <ele>1380</ele>
        <time>2010-07-04T07:42:38Z</time>
      </trkpt>
      <trkpt lat="45.03244" lon="5.84368">
        <ele>1380</ele>
        <time>2010-07-04T07:42:39Z</time>
      </trkpt>
      <trkpt lat="45.03245" lon="5.84371">
        <ele>1380</ele>
        <time>2010-07-04T07:42:40Z</time>
      </trkpt>
      <trkpt lat="45.03245" lon="5.84375">
        <ele>1380</ele>
        <time>2010-07-04T07:42:41Z</time>
      </trkpt>
      <trkpt lat="45.03246" lon="5.84379">
        <ele>1380</ele>
        <time>2010-07-04T07:42:42Z</time>
      </trkpt>
      <trkpt lat="45.03246" lon="5.84383">
        <ele>1380</ele>
        <time>2010-07-04T07:42:43Z</time>
      </trkpt>
      <trkpt lat="45.03247" lon="5.84387">
        <ele>1381</ele>
        <time>2010-07-04T07:42:44Z</time>
      </trkpt>
      <trkpt lat="45.03248" lon="5.8439">
        <ele>1381</ele>
        <time>2010-07-04T07:42:45Z</time>
      </trkpt>
      <trkpt lat="45.03249" lon="5.84395">
        <ele>1381</ele>
        <time>2010-07-04T07:42:46Z</time>
      </trkpt>
      <trkpt lat="45.0325" lon="5.84399">
        <ele>1381</ele>
        <time>2010-07-04T07:42:47Z</time>
      </trkpt>
      <trkpt lat="45.03251" lon="5.84403">
        <ele>1381</ele>
        <time>2010-07-04T07:42:48Z</time>
      </trkpt>
      <trkpt lat="45.03251" lon="5.84407">
        <ele>1381</ele>
        <time>2010-07-04T07:42:49Z</time>
      </trkpt>
      <trkpt lat="45.03251" lon="5.84411">
        <ele>1381</ele>
        <time>2010-07-04T07:42:50Z</time>
      </trkpt>
      <trkpt lat="45.03251" lon="5.84414">
        <ele>1381</ele>
        <time>2010-07-04T07:42:51Z</time>
      </trkpt>
      <trkpt lat="45.03251" lon="5.84418">
        <ele>1381</ele>
        <time>2010-07-04T07:42:52Z</time>
      </trkpt>
      <trkpt lat="45.03252" lon="5.84421">
        <ele>1381</ele>
        <time>2010-07-04T07:42:53Z</time>
      </trkpt>
      <trkpt lat="45.03252" lon="5.84424">
        <ele>1381</ele>
        <time>2010-07-04T07:42:54Z</time>
      </trkpt>
      <trkpt lat="45.03252" lon="5.84427">
        <ele>1381</ele>
        <time>2010-07-04T07:42:55Z</time>
      </trkpt>
      <trkpt lat="45.03252" lon="5.84431">
        <ele>1381</ele>
        <time>2010-07-04T07:42:56Z</time>
      </trkpt>
      <trkpt lat="45.03253" lon="5.84435">
        <ele>1381</ele>
        <time>2010-07-04T07:42:57Z</time>
      </trkpt>
      <trkpt lat="45.03253" lon="5.84439">
        <ele>1381</ele>
        <time>2010-07-04T07:42:58Z</time>
      </trkpt>
      <trkpt lat="45.03253" lon="5.84442">
        <ele>1381</ele>
        <time>2010-07-04T07:42:59Z</time>
      </trkpt>
      <trkpt lat="45.03253" lon="5.84446">
        <ele>1381</ele>
        <time>2010-07-04T07:43:00Z</time>
      </trkpt>
      <trkpt lat="45.03252" lon="5.84449">
        <ele>1381</ele>
        <time>2010-07-04T07:43:01Z</time>
      </trkpt>
      <trkpt lat="45.03252" lon="5.84452">
        <ele>1381</ele>
        <time>2010-07-04T07:43:02Z</time>
      </trkpt>
      <trkpt lat="45.03251" lon="5.84454">
        <ele>1381</ele>
        <time>2010-07-04T07:43:03Z</time>
      </trkpt>
      <trkpt lat="45.03249" lon="5.84456">
        <ele>1381</ele>
        <time>2010-07-04T07:43:03Z</time>
      </trkpt>
      <trkpt lat="45.03247" lon="5.84456">
        <ele>1381</ele>
        <time>2010-07-04T07:43:05Z</time>
      </trkpt>
      <trkpt lat="45.03245" lon="5.84455">
        <ele>1381</ele>
        <time>2010-07-04T07:43:06Z</time>
      </trkpt>
      <trkpt lat="45.03243" lon="5.84452">
        <ele>1381</ele>
        <time>2010-07-04T07:43:07Z</time>
      </trkpt>
      <trkpt lat="45.03241" lon="5.84448">
        <ele>1381</ele>
        <time>2010-07-04T07:43:08Z</time>
      </trkpt>
      <trkpt lat="45.03239" lon="5.84445">
        <ele>1381</ele>
        <time>2010-07-04T07:43:09Z</time>
      </trkpt>
      <trkpt lat="45.03237" lon="5.84441">
        <ele>1381</ele>
        <time>2010-07-04T07:43:09Z</time>
      </trkpt>
      <trkpt lat="45.03234" lon="5.84438">
        <ele>1381</ele>
        <time>2010-07-04T07:43:11Z</time>
      </trkpt>
      <trkpt lat="45.03233" lon="5.84435">
        <ele>1381</ele>
        <time>2010-07-04T07:43:12Z</time>
      </trkpt>
      <trkpt lat="45.03232" lon="5.84431">
        <ele>1381</ele>
        <time>2010-07-04T07:43:13Z</time>
      </trkpt>
      <trkpt lat="45.03231" lon="5.84427">
        <ele>1381</ele>
        <time>2010-07-04T07:43:14Z</time>
      </trkpt>
      <trkpt lat="45.03231" lon="5.84423">
        <ele>1381</ele>
        <time>2010-07-04T07:43:15Z</time>
      </trkpt>
      <trkpt lat="45.0323" lon="5.84419">
        <ele>1381</ele>
        <time>2010-07-04T07:43:16Z</time>
      </trkpt>
      <trkpt lat="45.0323" lon="5.84415">
        <ele>1381</ele>
        <time>2010-07-04T07:43:17Z</time>
      </trkpt>
      <trkpt lat="45.03229" lon="5.8441">
        <ele>1381</ele>
        <time>2010-07-04T07:43:18Z</time>
      </trkpt>
      <trkpt lat="45.03228" lon="5.84406">
        <ele>1381</ele>
        <time>2010-07-04T07:43:19Z</time>
      </trkpt>
      <trkpt lat="45.03227" lon="5.84403">
        <ele>1381</ele>
        <time>2010-07-04T07:43:20Z</time>
      </trkpt>
      <trkpt lat="45.03226" lon="5.84399">
        <ele>1381</ele>
        <time>2010-07-04T07:43:21Z</time>
      </trkpt>
      <trkpt lat="45.03226" lon="5.84394">
        <ele>1381</ele>
        <time>2010-07-04T07:43:22Z</time>
      </trkpt>
      <trkpt lat="45.03226" lon="5.8439">
        <ele>1381</ele>
        <time>2010-07-04T07:43:23Z</time>
      </trkpt>
      <trkpt lat="45.03226" lon="5.84386">
        <ele>1381</ele>
        <time>2010-07-04T07:43:24Z</time>
      </trkpt>
      <trkpt lat="45.03226" lon="5.84382">
        <ele>1381</ele>
        <time>2010-07-04T07:43:25Z</time>
      </trkpt>
      <trkpt lat="45.03225" lon="5.84377">
        <ele>1381</ele>
        <time>2010-07-04T07:43:26Z</time>
      </trkpt>
      <trkpt lat="45.03226" lon="5.84372">
        <ele>1381</ele>
        <time>2010-07-04T07:43:27Z</time>
      </trkpt>
      <trkpt lat="45.03225" lon="5.84368">
        <ele>1381</ele>
        <time>2010-07-04T07:43:27Z</time>
      </trkpt>
      <trkpt lat="45.03225" lon="5.84363">
        <ele>1381</ele>
        <time>2010-07-04T07:43:29Z</time>
      </trkpt>
      <trkpt lat="45.03224" lon="5.84359">
        <ele>1381</ele>
        <time>2010-07-04T07:43:30Z</time>
      </trkpt>
      <trkpt lat="45.03224" lon="5.84355">
        <ele>1381</ele>
        <time>2010-07-04T07:43:31Z</time>
      </trkpt>
      <trkpt lat="45.03223" lon="5.84351">
        <ele>1381</ele>
        <time>2010-07-04T07:43:32Z</time>
      </trkpt>
      <trkpt lat="45.03222" lon="5.84346">
        <ele>1381</ele>
        <time>2010-07-04T07:43:33Z</time>
      </trkpt>
      <trkpt lat="45.03221" lon="5.84341">
        <ele>1381</ele>
        <time>2010-07-04T07:43:34Z</time>
      </trkpt>
      <trkpt lat="45.03221" lon="5.84336">
        <ele>1382</ele>
        <time>2010-07-04T07:43:35Z</time>
      </trkpt>
      <trkpt lat="45.03221" lon="5.84332">
        <ele>1382</ele>
        <time>2010-07-04T07:43:36Z</time>
      </trkpt>
      <trkpt lat="45.03221" lon="5.84328">
        <ele>1382</ele>
        <time>2010-07-04T07:43:37Z</time>
      </trkpt>
      <trkpt lat="45.0322" lon="5.84325">
        <ele>1383</ele>
        <time>2010-07-04T07:43:38Z</time>
      </trkpt>
      <trkpt lat="45.0322" lon="5.84321">
        <ele>1383</ele>
        <time>2010-07-04T07:43:39Z</time>
      </trkpt>
      <trkpt lat="45.0322" lon="5.84316">
        <ele>1383</ele>
        <time>2010-07-04T07:43:40Z</time>
      </trkpt>
      <trkpt lat="45.0322" lon="5.84312">
        <ele>1383</ele>
        <time>2010-07-04T07:43:41Z</time>
      </trkpt>
      <trkpt lat="45.0322" lon="5.84306">
        <ele>1384</ele>
        <time>2010-07-04T07:43:42Z</time>
      </trkpt>
      <trkpt lat="45.0322" lon="5.843">
        <ele>1385</ele>
        <time>2010-07-04T07:43:43Z</time>
      </trkpt>
      <trkpt lat="45.0322" lon="5.84296">
        <ele>1386</ele>
        <time>2010-07-04T07:43:44Z</time>
      </trkpt>
      <trkpt lat="45.03221" lon="5.84291">
        <ele>1387</ele>
        <time>2010-07-04T07:43:45Z</time>
      </trkpt>
      <trkpt lat="45.03222" lon="5.84287">
        <ele>1388</ele>
        <time>2010-07-04T07:43:46Z</time>
      </trkpt>
      <trkpt lat="45.03222" lon="5.84284">
        <ele>1389</ele>
        <time>2010-07-04T07:43:47Z</time>
      </trkpt>
      <trkpt lat="45.03223" lon="5.84281">
        <ele>1390</ele>
        <time>2010-07-04T07:43:48Z</time>
      </trkpt>
      <trkpt lat="45.03225" lon="5.84277">
        <ele>1391</ele>
        <time>2010-07-04T07:43:49Z</time>
      </trkpt>
      <trkpt lat="45.03226" lon="5.84272">
        <ele>1392</ele>
        <time>2010-07-04T07:43:50Z</time>
      </trkpt>
      <trkpt lat="45.03228" lon="5.84268">
        <ele>1393</ele>
        <time>2010-07-04T07:43:51Z</time>
      </trkpt>
      <trkpt lat="45.03229" lon="5.84263">
        <ele>1394</ele>
        <time>2010-07-04T07:43:51Z</time>
      </trkpt>
      <trkpt lat="45.0323" lon="5.84258">
        <ele>1395</ele>
        <time>2010-07-04T07:43:53Z</time>
      </trkpt>
      <trkpt lat="45.0323" lon="5.84253">
        <ele>1396</ele>
        <time>2010-07-04T07:43:54Z</time>
      </trkpt>
      <trkpt lat="45.0323" lon="5.8425">
        <ele>1397</ele>
        <time>2010-07-04T07:43:55Z</time>
      </trkpt>
      <trkpt lat="45.03229" lon="5.84246">
        <ele>1398</ele>
        <time>2010-07-04T07:43:56Z</time>
      </trkpt>
      <trkpt lat="45.03229" lon="5.84242">
        <ele>1399</ele>
        <time>2010-07-04T07:43:57Z</time>
      </trkpt>
      <trkpt lat="45.03229" lon="5.84239">
        <ele>1399</ele>
        <time>2010-07-04T07:43:58Z</time>
      </trkpt>
      <trkpt lat="45.03228" lon="5.84235">
        <ele>1399</ele>
        <time>2010-07-04T07:43:59Z</time>
      </trkpt>
      <trkpt lat="45.03227" lon="5.84232">
        <ele>1399</ele>
        <time>2010-07-04T07:44:00Z</time>
      </trkpt>
      <trkpt lat="45.03227" lon="5.84228">
        <ele>1399</ele>
        <time>2010-07-04T07:44:01Z</time>
      </trkpt>
      <trkpt lat="45.03226" lon="5.84225">
        <ele>1399</ele>
        <time>2010-07-04T07:44:02Z</time>
      </trkpt>
      <trkpt lat="45.03225" lon="5.84221">
        <ele>1399</ele>
        <time>2010-07-04T07:44:03Z</time>
      </trkpt>
      <trkpt lat="45.03225" lon="5.84217">
        <ele>1399</ele>
        <time>2010-07-04T07:44:04Z</time>
      </trkpt>
      <trkpt lat="45.03224" lon="5.84212">
        <ele>1399</ele>
        <time>2010-07-04T07:44:05Z</time>
      </trkpt>
      <trkpt lat="45.03223" lon="5.84209">
        <ele>1398</ele>
        <time>2010-07-04T07:44:06Z</time>
      </trkpt>
      <trkpt lat="45.03222" lon="5.84205">
        <ele>1398</ele>
        <time>2010-07-04T07:44:07Z</time>
      </trkpt>
      <trkpt lat="45.0322" lon="5.84201">
        <ele>1397</ele>
        <time>2010-07-04T07:44:08Z</time>
      </trkpt>
      <trkpt lat="45.03219" lon="5.84197">
        <ele>1397</ele>
        <time>2010-07-04T07:44:08Z</time>
      </trkpt>
      <trkpt lat="45.03218" lon="5.84193">
        <ele>1397</ele>
        <time>2010-07-04T07:44:10Z</time>
      </trkpt>
      <trkpt lat="45.03217" lon="5.8419">
        <ele>1396</ele>
        <time>2010-07-04T07:44:11Z</time>
      </trkpt>
      <trkpt lat="45.03215" lon="5.84188">
        <ele>1396</ele>
        <time>2010-07-04T07:44:11Z</time>
      </trkpt>
      <trkpt lat="45.03214" lon="5.84185">
        <ele>1395</ele>
        <time>2010-07-04T07:44:12Z</time>
      </trkpt>
      <trkpt lat="45.03212" lon="5.84183">
        <ele>1394</ele>
        <time>2010-07-04T07:44:14Z</time>
      </trkpt>
      <trkpt lat="45.03211" lon="5.8418">
        <ele>1394</ele>
        <time>2010-07-04T07:44:15Z</time>
      </trkpt>
      <trkpt lat="45.03209" lon="5.84176">
        <ele>1393</ele>
        <time>2010-07-04T07:44:16Z</time>
      </trkpt>
      <trkpt lat="45.03207" lon="5.84173">
        <ele>1392</ele>
        <time>2010-07-04T07:44:17Z</time>
      </trkpt>
      <trkpt lat="45.03205" lon="5.84171">
        <ele>1392</ele>
        <time>2010-07-04T07:44:17Z</time>
      </trkpt>
      <trkpt lat="45.03204" lon="5.84167">
        <ele>1392</ele>
        <time>2010-07-04T07:44:19Z</time>
      </trkpt>
      <trkpt lat="45.03202" lon="5.84165">
        <ele>1392</ele>
        <time>2010-07-04T07:44:20Z</time>
      </trkpt>
      <trkpt lat="45.032" lon="5.84163">
        <ele>1392</ele>
        <time>2010-07-04T07:44:21Z</time>
      </trkpt>
      <trkpt lat="45.03199" lon="5.84159">
        <ele>1392</ele>
        <time>2010-07-04T07:44:22Z</time>
      </trkpt>
      <trkpt lat="45.03197" lon="5.84156">
        <ele>1392</ele>
        <time>2010-07-04T07:44:22Z</time>
      </trkpt>
      <trkpt lat="45.03196" lon="5.84153">
        <ele>1392</ele>
        <time>2010-07-04T07:44:24Z</time>
      </trkpt>
      <trkpt lat="45.03194" lon="5.8415">
        <ele>1392</ele>
        <time>2010-07-04T07:44:25Z</time>
      </trkpt>
      <trkpt lat="45.03193" lon="5.84147">
        <ele>1392</ele>
        <time>2010-07-04T07:44:25Z</time>
      </trkpt>
      <trkpt lat="45.03191" lon="5.84144">
        <ele>1392</ele>
        <time>2010-07-04T07:44:27Z</time>
      </trkpt>
      <trkpt lat="45.03188" lon="5.84142">
        <ele>1392</ele>
        <time>2010-07-04T07:44:28Z</time>
      </trkpt>
      <trkpt lat="45.03185" lon="5.8414">
        <ele>1392</ele>
        <time>2010-07-04T07:44:28Z</time>
      </trkpt>
      <trkpt lat="45.03182" lon="5.8414">
        <ele>1392</ele>
        <time>2010-07-04T07:44:30Z</time>
      </trkpt>
      <trkpt lat="45.0318" lon="5.84138">
        <ele>1392</ele>
        <time>2010-07-04T07:44:31Z</time>
      </trkpt>
      <trkpt lat="45.03178" lon="5.84136">
        <ele>1392</ele>
        <time>2010-07-04T07:44:32Z</time>
      </trkpt>
      <trkpt lat="45.03175" lon="5.84133">
        <ele>1392</ele>
        <time>2010-07-04T07:44:33Z</time>
      </trkpt>
      <trkpt lat="45.03173" lon="5.8413">
        <ele>1392</ele>
        <time>2010-07-04T07:44:34Z</time>
      </trkpt>
      <trkpt lat="45.03171" lon="5.84127">
        <ele>1392</ele>
        <time>2010-07-04T07:44:35Z</time>
      </trkpt>
      <trkpt lat="45.03169" lon="5.84125">
        <ele>1392</ele>
        <time>2010-07-04T07:44:36Z</time>
      </trkpt>
      <trkpt lat="45.03167" lon="5.84122">
        <ele>1392</ele>
        <time>2010-07-04T07:44:37Z</time>
      </trkpt>
      <trkpt lat="45.03165" lon="5.84119">
        <ele>1392</ele>
        <time>2010-07-04T07:44:38Z</time>
      </trkpt>
      <trkpt lat="45.03163" lon="5.84115">
        <ele>1392</ele>
        <time>2010-07-04T07:44:39Z</time>
      </trkpt>
      <trkpt lat="45.0316" lon="5.84112">
        <ele>1392</ele>
        <time>2010-07-04T07:44:40Z</time>
      </trkpt>
      <trkpt lat="45.03158" lon="5.84108">
        <ele>1392</ele>
        <time>2010-07-04T07:44:41Z</time>
      </trkpt>
      <trkpt lat="45.03156" lon="5.84104">
        <ele>1392</ele>
        <time>2010-07-04T07:44:42Z</time>
      </trkpt>
      <trkpt lat="45.03154" lon="5.841">
        <ele>1392</ele>
        <time>2010-07-04T07:44:42Z</time>
      </trkpt>
      <trkpt lat="45.03152" lon="5.84095">
        <ele>1392</ele>
        <time>2010-07-04T07:44:44Z</time>
      </trkpt>
      <trkpt lat="45.03151" lon="5.8409">
        <ele>1392</ele>
        <time>2010-07-04T07:44:45Z</time>
      </trkpt>
      <trkpt lat="45.03149" lon="5.84085">
        <ele>1392</ele>
        <time>2010-07-04T07:44:46Z</time>
      </trkpt>
      <trkpt lat="45.03148" lon="5.8408">
        <ele>1392</ele>
        <time>2010-07-04T07:44:47Z</time>
      </trkpt>
      <trkpt lat="45.03146" lon="5.84076">
        <ele>1392</ele>
        <time>2010-07-04T07:44:48Z</time>
      </trkpt>
      <trkpt lat="45.03144" lon="5.84072">
        <ele>1392</ele>
        <time>2010-07-04T07:44:49Z</time>
      </trkpt>
      <trkpt lat="45.03142" lon="5.84068">
        <ele>1392</ele>
        <time>2010-07-04T07:44:50Z</time>
      </trkpt>
      <trkpt lat="45.0314" lon="5.84065">
        <ele>1392</ele>
        <time>2010-07-04T07:44:51Z</time>
      </trkpt>
      <trkpt lat="45.03137" lon="5.84061">
        <ele>1391</ele>
        <time>2010-07-04T07:44:52Z</time>
      </trkpt>
      <trkpt lat="45.03135" lon="5.84058">
        <ele>1391</ele>
        <time>2010-07-04T07:44:53Z</time>
      </trkpt>
      <trkpt lat="45.03133" lon="5.84054">
        <ele>1391</ele>
        <time>2010-07-04T07:44:54Z</time>
      </trkpt>
      <trkpt lat="45.03131" lon="5.8405">
        <ele>1390</ele>
        <time>2010-07-04T07:44:55Z</time>
      </trkpt>
      <trkpt lat="45.03129" lon="5.84047">
        <ele>1390</ele>
        <time>2010-07-04T07:44:56Z</time>
      </trkpt>
      <trkpt lat="45.03127" lon="5.84043">
        <ele>1390</ele>
        <time>2010-07-04T07:44:57Z</time>
      </trkpt>
      <trkpt lat="45.03124" lon="5.84039">
        <ele>1389</ele>
        <time>2010-07-04T07:44:57Z</time>
      </trkpt>
      <trkpt lat="45.03123" lon="5.84035">
        <ele>1389</ele>
        <time>2010-07-04T07:44:58Z</time>
      </trkpt>
      <trkpt lat="45.03121" lon="5.8403">
        <ele>1388</ele>
        <time>2010-07-04T07:44:59Z</time>
      </trkpt>
      <trkpt lat="45.0312" lon="5.84026">
        <ele>1388</ele>
        <time>2010-07-04T07:45:01Z</time>
      </trkpt>
      <trkpt lat="45.03118" lon="5.84022">
        <ele>1388</ele>
        <time>2010-07-04T07:45:02Z</time>
      </trkpt>
      <trkpt lat="45.03116" lon="5.84018">
        <ele>1388</ele>
        <time>2010-07-04T07:45:03Z</time>
      </trkpt>
      <trkpt lat="45.03114" lon="5.84015">
        <ele>1388</ele>
        <time>2010-07-04T07:45:03Z</time>
      </trkpt>
      <trkpt lat="45.03112" lon="5.84013">
        <ele>1388</ele>
        <time>2010-07-04T07:45:05Z</time>
      </trkpt>
      <trkpt lat="45.03109" lon="5.84011">
        <ele>1388</ele>
        <time>2010-07-04T07:45:06Z</time>
      </trkpt>
      <trkpt lat="45.03106" lon="5.84009">
        <ele>1388</ele>
        <time>2010-07-04T07:45:06Z</time>
      </trkpt>
      <trkpt lat="45.03104" lon="5.84008">
        <ele>1388</ele>
        <time>2010-07-04T07:45:07Z</time>
      </trkpt>
      <trkpt lat="45.03102" lon="5.84007">
        <ele>1388</ele>
        <time>2010-07-04T07:45:08Z</time>
      </trkpt>
      <trkpt lat="45.031" lon="5.84006">
        <ele>1388</ele>
        <time>2010-07-04T07:45:09Z</time>
      </trkpt>
      <trkpt lat="45.03098" lon="5.84005">
        <ele>1388</ele>
        <time>2010-07-04T07:45:11Z</time>
      </trkpt>
      <trkpt lat="45.03096" lon="5.84003">
        <ele>1388</ele>
        <time>2010-07-04T07:45:11Z</time>
      </trkpt>
      <trkpt lat="45.03093" lon="5.84002">
        <ele>1388</ele>
        <time>2010-07-04T07:45:13Z</time>
      </trkpt>
      <trkpt lat="45.0309" lon="5.84003">
        <ele>1388</ele>
        <time>2010-07-04T07:45:13Z</time>
      </trkpt>
      <trkpt lat="45.03087" lon="5.84003">
        <ele>1388</ele>
        <time>2010-07-04T07:45:14Z</time>
      </trkpt>
      <trkpt lat="45.03084" lon="5.84003">
        <ele>1388</ele>
        <time>2010-07-04T07:45:16Z</time>
      </trkpt>
      <trkpt lat="45.03082" lon="5.84002">
        <ele>1388</ele>
        <time>2010-07-04T07:45:16Z</time>
      </trkpt>
      <trkpt lat="45.03079" lon="5.84002">
        <ele>1388</ele>
        <time>2010-07-04T07:45:18Z</time>
      </trkpt>
      <trkpt lat="45.03075" lon="5.84004">
        <ele>1388</ele>
        <time>2010-07-04T07:45:18Z</time>
      </trkpt>
      <trkpt lat="45.03073" lon="5.84003">
        <ele>1388</ele>
        <time>2010-07-04T07:45:20Z</time>
      </trkpt>
      <trkpt lat="45.0307" lon="5.84002">
        <ele>1388</ele>
        <time>2010-07-04T07:45:21Z</time>
      </trkpt>
      <trkpt lat="45.03068" lon="5.84002">
        <ele>1388</ele>
        <time>2010-07-04T07:45:22Z</time>
      </trkpt>
      <trkpt lat="45.03065" lon="5.84001">
        <ele>1389</ele>
        <time>2010-07-04T07:45:22Z</time>
      </trkpt>
      <trkpt lat="45.03062" lon="5.84001">
        <ele>1389</ele>
        <time>2010-07-04T07:45:23Z</time>
      </trkpt>
      <trkpt lat="45.03059" lon="5.83999">
        <ele>1389</ele>
        <time>2010-07-04T07:45:24Z</time>
      </trkpt>
      <trkpt lat="45.03055" lon="5.83996">
        <ele>1389</ele>
        <time>2010-07-04T07:45:26Z</time>
      </trkpt>
      <trkpt lat="45.03053" lon="5.83991">
        <ele>1389</ele>
        <time>2010-07-04T07:45:26Z</time>
      </trkpt>
      <trkpt lat="45.03051" lon="5.83986">
        <ele>1389</ele>
        <time>2010-07-04T07:45:27Z</time>
      </trkpt>
      <trkpt lat="45.03048" lon="5.83982">
        <ele>1389</ele>
        <time>2010-07-04T07:45:28Z</time>
      </trkpt>
      <trkpt lat="45.03045" lon="5.83977">
        <ele>1389</ele>
        <time>2010-07-04T07:45:29Z</time>
      </trkpt>
      <trkpt lat="45.03043" lon="5.83972">
        <ele>1389</ele>
        <time>2010-07-04T07:45:30Z</time>
      </trkpt>
      <trkpt lat="45.03041" lon="5.83967">
        <ele>1389</ele>
        <time>2010-07-04T07:45:32Z</time>
      </trkpt>
      <trkpt lat="45.0304" lon="5.83963">
        <ele>1389</ele>
        <time>2010-07-04T07:45:33Z</time>
      </trkpt>
      <trkpt lat="45.03038" lon="5.83959">
        <ele>1389</ele>
        <time>2010-07-04T07:45:33Z</time>
      </trkpt>
      <trkpt lat="45.03036" lon="5.83955">
        <ele>1389</ele>
        <time>2010-07-04T07:45:34Z</time>
      </trkpt>
      <trkpt lat="45.03034" lon="5.83952">
        <ele>1389</ele>
        <time>2010-07-04T07:45:35Z</time>
      </trkpt>
      <trkpt lat="45.03032" lon="5.83948">
        <ele>1389</ele>
        <time>2010-07-04T07:45:36Z</time>
      </trkpt>
      <trkpt lat="45.03029" lon="5.83944">
        <ele>1389</ele>
        <time>2010-07-04T07:45:38Z</time>
      </trkpt>
      <trkpt lat="45.03027" lon="5.8394">
        <ele>1389</ele>
        <time>2010-07-04T07:45:38Z</time>
      </trkpt>
      <trkpt lat="45.03025" lon="5.83936">
        <ele>1389</ele>
        <time>2010-07-04T07:45:39Z</time>
      </trkpt>
      <trkpt lat="45.03022" lon="5.83931">
        <ele>1389</ele>
        <time>2010-07-04T07:45:40Z</time>
      </trkpt>
      <trkpt lat="45.0302" lon="5.83928">
        <ele>1389</ele>
        <time>2010-07-04T07:45:41Z</time>
      </trkpt>
      <trkpt lat="45.03017" lon="5.83924">
        <ele>1389</ele>
        <time>2010-07-04T07:45:42Z</time>
      </trkpt>
      <trkpt lat="45.03015" lon="5.83921">
        <ele>1389</ele>
        <time>2010-07-04T07:45:44Z</time>
      </trkpt>
      <trkpt lat="45.03012" lon="5.83917">
        <ele>1389</ele>
        <time>2010-07-04T07:45:44Z</time>
      </trkpt>
      <trkpt lat="45.03009" lon="5.83913">
        <ele>1389</ele>
        <time>2010-07-04T07:45:45Z</time>
      </trkpt>
      <trkpt lat="45.03006" lon="5.8391">
        <ele>1389</ele>
        <time>2010-07-04T07:45:46Z</time>
      </trkpt>
      <trkpt lat="45.03003" lon="5.83908">
        <ele>1389</ele>
        <time>2010-07-04T07:45:48Z</time>
      </trkpt>
      <trkpt lat="45.02999" lon="5.83906">
        <ele>1389</ele>
        <time>2010-07-04T07:45:48Z</time>
      </trkpt>
      <trkpt lat="45.02996" lon="5.83903">
        <ele>1389</ele>
        <time>2010-07-04T07:45:50Z</time>
      </trkpt>
      <trkpt lat="45.02992" lon="5.83901">
        <ele>1389</ele>
        <time>2010-07-04T07:45:50Z</time>
      </trkpt>
      <trkpt lat="45.02989" lon="5.839">
        <ele>1389</ele>
        <time>2010-07-04T07:45:51Z</time>
      </trkpt>
      <trkpt lat="45.02985" lon="5.83899">
        <ele>1388</ele>
        <time>2010-07-04T07:45:52Z</time>
      </trkpt>
      <trkpt lat="45.02982" lon="5.83898">
        <ele>1388</ele>
        <time>2010-07-04T07:45:54Z</time>
      </trkpt>
      <trkpt lat="45.02979" lon="5.83896">
        <ele>1388</ele>
        <time>2010-07-04T07:45:55Z</time>
      </trkpt>
      <trkpt lat="45.02976" lon="5.83894">
        <ele>1387</ele>
        <time>2010-07-04T07:45:55Z</time>
      </trkpt>
      <trkpt lat="45.02973" lon="5.83892">
        <ele>1387</ele>
        <time>2010-07-04T07:45:56Z</time>
      </trkpt>
      <trkpt lat="45.0297" lon="5.8389">
        <ele>1387</ele>
        <time>2010-07-04T07:45:57Z</time>
      </trkpt>
      <trkpt lat="45.02967" lon="5.83889">
        <ele>1386</ele>
        <time>2010-07-04T07:45:58Z</time>
      </trkpt>
      <trkpt lat="45.02964" lon="5.83888">
        <ele>1386</ele>
        <time>2010-07-04T07:45:59Z</time>
      </trkpt>
      <trkpt lat="45.02961" lon="5.83887">
        <ele>1386</ele>
        <time>2010-07-04T07:46:01Z</time>
      </trkpt>
      <trkpt lat="45.02958" lon="5.83885">
        <ele>1386</ele>
        <time>2010-07-04T07:46:02Z</time>
      </trkpt>
      <trkpt lat="45.02955" lon="5.83884">
        <ele>1385</ele>
        <time>2010-07-04T07:46:02Z</time>
      </trkpt>
      <trkpt lat="45.02952" lon="5.83883">
        <ele>1385</ele>
        <time>2010-07-04T07:46:03Z</time>
      </trkpt>
      <trkpt lat="45.02948" lon="5.83881">
        <ele>1385</ele>
        <time>2010-07-04T07:46:04Z</time>
      </trkpt>
      <trkpt lat="45.02945" lon="5.8388">
        <ele>1384</ele>
        <time>2010-07-04T07:46:06Z</time>
      </trkpt>
      <trkpt lat="45.02942" lon="5.8388">
        <ele>1384</ele>
        <time>2010-07-04T07:46:06Z</time>
      </trkpt>
      <trkpt lat="45.02939" lon="5.83879">
        <ele>1384</ele>
        <time>2010-07-04T07:46:07Z</time>
      </trkpt>
      <trkpt lat="45.02936" lon="5.83878">
        <ele>1384</ele>
        <time>2010-07-04T07:46:08Z</time>
      </trkpt>
      <trkpt lat="45.02933" lon="5.83878">
        <ele>1384</ele>
        <time>2010-07-04T07:46:09Z</time>
      </trkpt>
      <trkpt lat="45.0293" lon="5.83877">
        <ele>1384</ele>
        <time>2010-07-04T07:46:10Z</time>
      </trkpt>
      <trkpt lat="45.02927" lon="5.83877">
        <ele>1384</ele>
        <time>2010-07-04T07:46:12Z</time>
      </trkpt>
      <trkpt lat="45.02924" lon="5.83877">
        <ele>1384</ele>
        <time>2010-07-04T07:46:13Z</time>
      </trkpt>
      <trkpt lat="45.02921" lon="5.83877">
        <ele>1384</ele>
        <time>2010-07-04T07:46:14Z</time>
      </trkpt>
      <trkpt lat="45.02918" lon="5.83877">
        <ele>1384</ele>
        <time>2010-07-04T07:46:15Z</time>
      </trkpt>
      <trkpt lat="45.02915" lon="5.83877">
        <ele>1384</ele>
        <time>2010-07-04T07:46:15Z</time>
      </trkpt>
      <trkpt lat="45.02912" lon="5.83877">
        <ele>1384</ele>
        <time>2010-07-04T07:46:17Z</time>
      </trkpt>
      <trkpt lat="45.02909" lon="5.83877">
        <ele>1384</ele>
        <time>2010-07-04T07:46:17Z</time>
      </trkpt>
      <trkpt lat="45.02907" lon="5.83876">
        <ele>1384</ele>
        <time>2010-07-04T07:46:18Z</time>
      </trkpt>
      <trkpt lat="45.02903" lon="5.83876">
        <ele>1384</ele>
        <time>2010-07-04T07:46:19Z</time>
      </trkpt>
      <trkpt lat="45.029" lon="5.83876">
        <ele>1384</ele>
        <time>2010-07-04T07:46:20Z</time>
      </trkpt>
      <trkpt lat="45.02897" lon="5.83875">
        <ele>1384</ele>
        <time>2010-07-04T07:46:22Z</time>
      </trkpt>
      <trkpt lat="45.02893" lon="5.83875">
        <ele>1384</ele>
        <time>2010-07-04T07:46:23Z</time>
      </trkpt>
      <trkpt lat="45.0289" lon="5.83875">
        <ele>1384</ele>
        <time>2010-07-04T07:46:23Z</time>
      </trkpt>
      <trkpt lat="45.02887" lon="5.83875">
        <ele>1384</ele>
        <time>2010-07-04T07:46:24Z</time>
      </trkpt>
      <trkpt lat="45.02883" lon="5.83875">
        <ele>1384</ele>
        <time>2010-07-04T07:46:25Z</time>
      </trkpt>
      <trkpt lat="45.02879" lon="5.83876">
        <ele>1384</ele>
        <time>2010-07-04T07:46:27Z</time>
      </trkpt>
      <trkpt lat="45.02876" lon="5.83876">
        <ele>1384</ele>
        <time>2010-07-04T07:46:27Z</time>
      </trkpt>
      <trkpt lat="45.02873" lon="5.83876">
        <ele>1384</ele>
        <time>2010-07-04T07:46:28Z</time>
      </trkpt>
      <trkpt lat="45.02869" lon="5.83877">
        <ele>1384</ele>
        <time>2010-07-04T07:46:29Z</time>
      </trkpt>
      <trkpt lat="45.02865" lon="5.83877">
        <ele>1384</ele>
        <time>2010-07-04T07:46:30Z</time>
      </trkpt>
      <trkpt lat="45.02862" lon="5.83878">
        <ele>1384</ele>
        <time>2010-07-04T07:46:32Z</time>
      </trkpt>
      <trkpt lat="45.02859" lon="5.83879">
        <ele>1384</ele>
        <time>2010-07-04T07:46:32Z</time>
      </trkpt>
      <trkpt lat="45.02856" lon="5.8388">
        <ele>1384</ele>
        <time>2010-07-04T07:46:33Z</time>
      </trkpt>
      <trkpt lat="45.02853" lon="5.83881">
        <ele>1384</ele>
        <time>2010-07-04T07:46:34Z</time>
      </trkpt>
      <trkpt lat="45.0285" lon="5.83881">
        <ele>1384</ele>
        <time>2010-07-04T07:46:35Z</time>
      </trkpt>
      <trkpt lat="45.02847" lon="5.83883">
        <ele>1384</ele>
        <time>2010-07-04T07:46:37Z</time>
      </trkpt>
      <trkpt lat="45.02844" lon="5.83885">
        <ele>1384</ele>
        <time>2010-07-04T07:46:38Z</time>
      </trkpt>
      <trkpt lat="45.02841" lon="5.83887">
        <ele>1384</ele>
        <time>2010-07-04T07:46:38Z</time>
      </trkpt>
      <trkpt lat="45.02838" lon="5.83888">
        <ele>1384</ele>
        <time>2010-07-04T07:46:39Z</time>
      </trkpt>
      <trkpt lat="45.02834" lon="5.8389">
        <ele>1384</ele>
        <time>2010-07-04T07:46:40Z</time>
      </trkpt>
      <trkpt lat="45.02832" lon="5.83892">
        <ele>1384</ele>
        <time>2010-07-04T07:46:42Z</time>
      </trkpt>
      <trkpt lat="45.02829" lon="5.83894">
        <ele>1384</ele>
        <time>2010-07-04T07:46:42Z</time>
      </trkpt>
      <trkpt lat="45.02826" lon="5.83897">
        <ele>1384</ele>
        <time>2010-07-04T07:46:43Z</time>
      </trkpt>
      <trkpt lat="45.02823" lon="5.83899">
        <ele>1384</ele>
        <time>2010-07-04T07:46:44Z</time>
      </trkpt>
      <trkpt lat="45.0282" lon="5.83902">
        <ele>1384</ele>
        <time>2010-07-04T07:46:45Z</time>
      </trkpt>
      <trkpt lat="45.02817" lon="5.83905">
        <ele>1384</ele>
        <time>2010-07-04T07:46:47Z</time>
      </trkpt>
      <trkpt lat="45.02814" lon="5.83908">
        <ele>1384</ele>
        <time>2010-07-04T07:46:47Z</time>
      </trkpt>
      <trkpt lat="45.02811" lon="5.8391">
        <ele>1384</ele>
        <time>2010-07-04T07:46:48Z</time>
      </trkpt>
      <trkpt lat="45.02808" lon="5.83913">
        <ele>1384</ele>
        <time>2010-07-04T07:46:50Z</time>
      </trkpt>
      <trkpt lat="45.02805" lon="5.83916">
        <ele>1384</ele>
        <time>2010-07-04T07:46:50Z</time>
      </trkpt>
      <trkpt lat="45.02803" lon="5.83919">
        <ele>1383</ele>
        <time>2010-07-04T07:46:52Z</time>
      </trkpt>
      <trkpt lat="45.02801" lon="5.83922">
        <ele>1383</ele>
        <time>2010-07-04T07:46:52Z</time>
      </trkpt>
      <trkpt lat="45.02799" lon="5.83924">
        <ele>1383</ele>
        <time>2010-07-04T07:46:54Z</time>
      </trkpt>
      <trkpt lat="45.02797" lon="5.83927">
        <ele>1383</ele>
        <time>2010-07-04T07:46:55Z</time>
      </trkpt>
      <trkpt lat="45.02795" lon="5.83931">
        <ele>1383</ele>
        <time>2010-07-04T07:46:55Z</time>
      </trkpt>
      <trkpt lat="45.02793" lon="5.83934">
        <ele>1383</ele>
        <time>2010-07-04T07:46:57Z</time>
      </trkpt>
      <trkpt lat="45.02791" lon="5.83938">
        <ele>1383</ele>
        <time>2010-07-04T07:46:57Z</time>
      </trkpt>
      <trkpt lat="45.02789" lon="5.83942">
        <ele>1383</ele>
        <time>2010-07-04T07:46:58Z</time>
      </trkpt>
      <trkpt lat="45.02787" lon="5.83945">
        <ele>1383</ele>
        <time>2010-07-04T07:46:59Z</time>
      </trkpt>
      <trkpt lat="45.02786" lon="5.83949">
        <ele>1383</ele>
        <time>2010-07-04T07:47:00Z</time>
      </trkpt>
      <trkpt lat="45.02784" lon="5.83953">
        <ele>1383</ele>
        <time>2010-07-04T07:47:02Z</time>
      </trkpt>
      <trkpt lat="45.02782" lon="5.83957">
        <ele>1383</ele>
        <time>2010-07-04T07:47:02Z</time>
      </trkpt>
      <trkpt lat="45.0278" lon="5.8396">
        <ele>1383</ele>
        <time>2010-07-04T07:47:03Z</time>
      </trkpt>
      <trkpt lat="45.02778" lon="5.83963">
        <ele>1383</ele>
        <time>2010-07-04T07:47:04Z</time>
      </trkpt>
      <trkpt lat="45.02776" lon="5.83967">
        <ele>1383</ele>
        <time>2010-07-04T07:47:05Z</time>
      </trkpt>
      <trkpt lat="45.02774" lon="5.8397">
        <ele>1383</ele>
        <time>2010-07-04T07:47:07Z</time>
      </trkpt>
      <trkpt lat="45.02772" lon="5.83974">
        <ele>1383</ele>
        <time>2010-07-04T07:47:07Z</time>
      </trkpt>
      <trkpt lat="45.0277" lon="5.83977">
        <ele>1383</ele>
        <time>2010-07-04T07:47:08Z</time>
      </trkpt>
      <trkpt lat="45.02768" lon="5.8398">
        <ele>1383</ele>
        <time>2010-07-04T07:47:09Z</time>
      </trkpt>
      <trkpt lat="45.02767" lon="5.83983">
        <ele>1383</ele>
        <time>2010-07-04T07:47:10Z</time>
      </trkpt>
      <trkpt lat="45.02765" lon="5.83987">
        <ele>1383</ele>
        <time>2010-07-04T07:47:12Z</time>
      </trkpt>
      <trkpt lat="45.02763" lon="5.83991">
        <ele>1383</ele>
        <time>2010-07-04T07:47:12Z</time>
      </trkpt>
      <trkpt lat="45.02761" lon="5.83995">
        <ele>1383</ele>
        <time>2010-07-04T07:47:13Z</time>
      </trkpt>
      <trkpt lat="45.0276" lon="5.83998">
        <ele>1383</ele>
        <time>2010-07-04T07:47:14Z</time>
      </trkpt>
      <trkpt lat="45.02758" lon="5.84002">
        <ele>1383</ele>
        <time>2010-07-04T07:47:15Z</time>
      </trkpt>
      <trkpt lat="45.02755" lon="5.84006">
        <ele>1383</ele>
        <time>2010-07-04T07:47:17Z</time>
      </trkpt>
      <trkpt lat="45.02753" lon="5.84009">
        <ele>1383</ele>
        <time>2010-07-04T07:47:17Z</time>
      </trkpt>
      <trkpt lat="45.02751" lon="5.84013">
        <ele>1383</ele>
        <time>2010-07-04T07:47:18Z</time>
      </trkpt>
      <trkpt lat="45.02749" lon="5.84016">
        <ele>1383</ele>
        <time>2010-07-04T07:47:19Z</time>
      </trkpt>
      <trkpt lat="45.02747" lon="5.8402">
        <ele>1383</ele>
        <time>2010-07-04T07:47:20Z</time>
      </trkpt>
      <trkpt lat="45.02746" lon="5.84023">
        <ele>1383</ele>
        <time>2010-07-04T07:47:22Z</time>
      </trkpt>
      <trkpt lat="45.02744" lon="5.84026">
        <ele>1383</ele>
        <time>2010-07-04T07:47:22Z</time>
      </trkpt>
      <trkpt lat="45.02743" lon="5.8403">
        <ele>1383</ele>
        <time>2010-07-04T07:47:23Z</time>
      </trkpt>
      <trkpt lat="45.02741" lon="5.84033">
        <ele>1383</ele>
        <time>2010-07-04T07:47:24Z</time>
      </trkpt>
      <trkpt lat="45.02739" lon="5.84036">
        <ele>1383</ele>
        <time>2010-07-04T07:47:25Z</time>
      </trkpt>
      <trkpt lat="45.02737" lon="5.84039">
        <ele>1383</ele>
        <time>2010-07-04T07:47:27Z</time>
      </trkpt>
      <trkpt lat="45.02734" lon="5.84042">
        <ele>1383</ele>
        <time>2010-07-04T07:47:27Z</time>
      </trkpt>
      <trkpt lat="45.02732" lon="5.84046">
        <ele>1383</ele>
        <time>2010-07-04T07:47:28Z</time>
      </trkpt>
      <trkpt lat="45.02731" lon="5.8405">
        <ele>1383</ele>
        <time>2010-07-04T07:47:29Z</time>
      </trkpt>
      <trkpt lat="45.02729" lon="5.84054">
        <ele>1383</ele>
        <time>2010-07-04T07:47:30Z</time>
      </trkpt>
      <trkpt lat="45.02728" lon="5.84057">
        <ele>1383</ele>
        <time>2010-07-04T07:47:32Z</time>
      </trkpt>
      <trkpt lat="45.02726" lon="5.84061">
        <ele>1383</ele>
        <time>2010-07-04T07:47:32Z</time>
      </trkpt>
      <trkpt lat="45.02724" lon="5.84065">
        <ele>1383</ele>
        <time>2010-07-04T07:47:33Z</time>
      </trkpt>
      <trkpt lat="45.02723" lon="5.84069">
        <ele>1383</ele>
        <time>2010-07-04T07:47:34Z</time>
      </trkpt>
      <trkpt lat="45.02721" lon="5.84073">
        <ele>1383</ele>
        <time>2010-07-04T07:47:35Z</time>
      </trkpt>
      <trkpt lat="45.0272" lon="5.84076">
        <ele>1383</ele>
        <time>2010-07-04T07:47:37Z</time>
      </trkpt>
      <trkpt lat="45.02718" lon="5.8408">
        <ele>1383</ele>
        <time>2010-07-04T07:47:37Z</time>
      </trkpt>
      <trkpt lat="45.02717" lon="5.84084">
        <ele>1383</ele>
        <time>2010-07-04T07:47:38Z</time>
      </trkpt>
      <trkpt lat="45.02715" lon="5.84088">
        <ele>1383</ele>
        <time>2010-07-04T07:47:39Z</time>
      </trkpt>
      <trkpt lat="45.02714" lon="5.84091">
        <ele>1383</ele>
        <time>2010-07-04T07:47:40Z</time>
      </trkpt>
      <trkpt lat="45.02712" lon="5.84094">
        <ele>1383</ele>
        <time>2010-07-04T07:47:42Z</time>
      </trkpt>
      <trkpt lat="45.02711" lon="5.84098">
        <ele>1383</ele>
        <time>2010-07-04T07:47:42Z</time>
      </trkpt>
      <trkpt lat="45.02709" lon="5.84102">
        <ele>1383</ele>
        <time>2010-07-04T07:47:43Z</time>
      </trkpt>
      <trkpt lat="45.02708" lon="5.84105">
        <ele>1384</ele>
        <time>2010-07-04T07:47:44Z</time>
      </trkpt>
      <trkpt lat="45.02706" lon="5.84108">
        <ele>1384</ele>
        <time>2010-07-04T07:47:45Z</time>
      </trkpt>
      <trkpt lat="45.02705" lon="5.84112">
        <ele>1384</ele>
        <time>2010-07-04T07:47:47Z</time>
      </trkpt>
      <trkpt lat="45.02704" lon="5.84116">
        <ele>1384</ele>
        <time>2010-07-04T07:47:47Z</time>
      </trkpt>
      <trkpt lat="45.02702" lon="5.8412">
        <ele>1384</ele>
        <time>2010-07-04T07:47:48Z</time>
      </trkpt>
      <trkpt lat="45.02701" lon="5.84124">
        <ele>1384</ele>
        <time>2010-07-04T07:47:49Z</time>
      </trkpt>
      <trkpt lat="45.02699" lon="5.84128">
        <ele>1384</ele>
        <time>2010-07-04T07:47:50Z</time>
      </trkpt>
      <trkpt lat="45.02697" lon="5.84132">
        <ele>1385</ele>
        <time>2010-07-04T07:47:52Z</time>
      </trkpt>
      <trkpt lat="45.02695" lon="5.84136">
        <ele>1385</ele>
        <time>2010-07-04T07:47:52Z</time>
      </trkpt>
      <trkpt lat="45.02694" lon="5.8414">
        <ele>1385</ele>
        <time>2010-07-04T07:47:53Z</time>
      </trkpt>
      <trkpt lat="45.02692" lon="5.84144">
        <ele>1385</ele>
        <time>2010-07-04T07:47:54Z</time>
      </trkpt>
      <trkpt lat="45.02691" lon="5.84148">
        <ele>1385</ele>
        <time>2010-07-04T07:47:55Z</time>
      </trkpt>
      <trkpt lat="45.02689" lon="5.84152">
        <ele>1385</ele>
        <time>2010-07-04T07:47:57Z</time>
      </trkpt>
      <trkpt lat="45.02688" lon="5.84156">
        <ele>1385</ele>
        <time>2010-07-04T07:47:57Z</time>
      </trkpt>
      <trkpt lat="45.02686" lon="5.8416">
        <ele>1385</ele>
        <time>2010-07-04T07:47:58Z</time>
      </trkpt>
      <trkpt lat="45.02685" lon="5.84164">
        <ele>1385</ele>
        <time>2010-07-04T07:47:59Z</time>
      </trkpt>
      <trkpt lat="45.02683" lon="5.84167">
        <ele>1385</ele>
        <time>2010-07-04T07:48:00Z</time>
      </trkpt>
      <trkpt lat="45.0268" lon="5.8417">
        <ele>1385</ele>
        <time>2010-07-04T07:48:02Z</time>
      </trkpt>
      <trkpt lat="45.02677" lon="5.84171">
        <ele>1385</ele>
        <time>2010-07-04T07:48:02Z</time>
      </trkpt>
      <trkpt lat="45.02673" lon="5.84173">
        <ele>1385</ele>
        <time>2010-07-04T07:48:03Z</time>
      </trkpt>
      <trkpt lat="45.0267" lon="5.84173">
        <ele>1385</ele>
        <time>2010-07-04T07:48:04Z</time>
      </trkpt>
      <trkpt lat="45.02667" lon="5.84174">
        <ele>1385</ele>
        <time>2010-07-04T07:48:05Z</time>
      </trkpt>
      <trkpt lat="45.02664" lon="5.84174">
        <ele>1385</ele>
        <time>2010-07-04T07:48:06Z</time>
      </trkpt>
      <trkpt lat="45.0266" lon="5.84174">
        <ele>1384</ele>
        <time>2010-07-04T07:48:08Z</time>
      </trkpt>
      <trkpt lat="45.02657" lon="5.84173">
        <ele>1383</ele>
        <time>2010-07-04T07:48:08Z</time>
      </trkpt>
      <trkpt lat="45.02654" lon="5.84172">
        <ele>1382</ele>
        <time>2010-07-04T07:48:09Z</time>
      </trkpt>
      <trkpt lat="45.02652" lon="5.84168">
        <ele>1381</ele>
        <time>2010-07-04T07:48:10Z</time>
      </trkpt>
      <trkpt lat="45.0265" lon="5.84165">
        <ele>1380</ele>
        <time>2010-07-04T07:48:11Z</time>
      </trkpt>
      <trkpt lat="45.02648" lon="5.84164">
        <ele>1379</ele>
        <time>2010-07-04T07:48:13Z</time>
      </trkpt>
      <trkpt lat="45.02645" lon="5.84163">
        <ele>1378</ele>
        <time>2010-07-04T07:48:13Z</time>
      </trkpt>
      <trkpt lat="45.02644" lon="5.84161">
        <ele>1377</ele>
        <time>2010-07-04T07:48:14Z</time>
      </trkpt>
      <trkpt lat="45.02643" lon="5.84157">
        <ele>1377</ele>
        <time>2010-07-04T07:48:15Z</time>
      </trkpt>
      <trkpt lat="45.02644" lon="5.84154">
        <ele>1376</ele>
        <time>2010-07-04T07:48:16Z</time>
      </trkpt>
      <trkpt lat="45.02644" lon="5.8415">
        <ele>1376</ele>
        <time>2010-07-04T07:48:18Z</time>
      </trkpt>
      <trkpt lat="45.02645" lon="5.84147">
        <ele>1375</ele>
        <time>2010-07-04T07:48:18Z</time>
      </trkpt>
      <trkpt lat="45.02645" lon="5.84143">
        <ele>1374</ele>
        <time>2010-07-04T07:48:19Z</time>
      </trkpt>
      <trkpt lat="45.02645" lon="5.84139">
        <ele>1374</ele>
        <time>2010-07-04T07:48:20Z</time>
      </trkpt>
      <trkpt lat="45.02645" lon="5.84135">
        <ele>1373</ele>
        <time>2010-07-04T07:48:21Z</time>
      </trkpt>
      <trkpt lat="45.02646" lon="5.84131">
        <ele>1373</ele>
        <time>2010-07-04T07:48:22Z</time>
      </trkpt>
      <trkpt lat="45.02646" lon="5.84127">
        <ele>1372</ele>
        <time>2010-07-04T07:48:24Z</time>
      </trkpt>
      <trkpt lat="45.02647" lon="5.84121">
        <ele>1372</ele>
        <time>2010-07-04T07:48:24Z</time>
      </trkpt>
      <trkpt lat="45.02648" lon="5.84117">
        <ele>1372</ele>
        <time>2010-07-04T07:48:26Z</time>
      </trkpt>
      <trkpt lat="45.02649" lon="5.84112">
        <ele>1372</ele>
        <time>2010-07-04T07:48:26Z</time>
      </trkpt>
      <trkpt lat="45.02649" lon="5.84109">
        <ele>1372</ele>
        <time>2010-07-04T07:48:27Z</time>
      </trkpt>
      <trkpt lat="45.0265" lon="5.84104">
        <ele>1372</ele>
        <time>2010-07-04T07:48:29Z</time>
      </trkpt>
      <trkpt lat="45.0265" lon="5.841">
        <ele>1372</ele>
        <time>2010-07-04T07:48:29Z</time>
      </trkpt>
      <trkpt lat="45.02651" lon="5.84094">
        <ele>1372</ele>
        <time>2010-07-04T07:48:30Z</time>
      </trkpt>
      <trkpt lat="45.02651" lon="5.8409">
        <ele>1372</ele>
        <time>2010-07-04T07:48:31Z</time>
      </trkpt>
      <trkpt lat="45.02652" lon="5.84086">
        <ele>1372</ele>
        <time>2010-07-04T07:48:32Z</time>
      </trkpt>
      <trkpt lat="45.02652" lon="5.84081">
        <ele>1372</ele>
        <time>2010-07-04T07:48:34Z</time>
      </trkpt>
      <trkpt lat="45.02653" lon="5.84077">
        <ele>1371</ele>
        <time>2010-07-04T07:48:34Z</time>
      </trkpt>
      <trkpt lat="45.02655" lon="5.84073">
        <ele>1371</ele>
        <time>2010-07-04T07:48:35Z</time>
      </trkpt>
      <trkpt lat="45.02656" lon="5.84069">
        <ele>1370</ele>
        <time>2010-07-04T07:48:36Z</time>
      </trkpt>
      <trkpt lat="45.02658" lon="5.84064">
        <ele>1370</ele>
        <time>2010-07-04T07:48:37Z</time>
      </trkpt>
      <trkpt lat="45.02659" lon="5.8406">
        <ele>1369</ele>
        <time>2010-07-04T07:48:39Z</time>
      </trkpt>
      <trkpt lat="45.0266" lon="5.84055">
        <ele>1369</ele>
        <time>2010-07-04T07:48:39Z</time>
      </trkpt>
      <trkpt lat="45.02661" lon="5.8405">
        <ele>1369</ele>
        <time>2010-07-04T07:48:40Z</time>
      </trkpt>
      <trkpt lat="45.02662" lon="5.84046">
        <ele>1368</ele>
        <time>2010-07-04T07:48:41Z</time>
      </trkpt>
      <trkpt lat="45.02664" lon="5.84041">
        <ele>1368</ele>
        <time>2010-07-04T07:48:42Z</time>
      </trkpt>
      <trkpt lat="45.02665" lon="5.84037">
        <ele>1367</ele>
        <time>2010-07-04T07:48:44Z</time>
      </trkpt>
      <trkpt lat="45.02666" lon="5.84032">
        <ele>1367</ele>
        <time>2010-07-04T07:48:44Z</time>
      </trkpt>
      <trkpt lat="45.02667" lon="5.84027">
        <ele>1366</ele>
        <time>2010-07-04T07:48:45Z</time>
      </trkpt>
      <trkpt lat="45.02669" lon="5.84022">
        <ele>1366</ele>
        <time>2010-07-04T07:48:46Z</time>
      </trkpt>
      <trkpt lat="45.0267" lon="5.84018">
        <ele>1365</ele>
        <time>2010-07-04T07:48:47Z</time>
      </trkpt>
      <trkpt lat="45.02671" lon="5.84013">
        <ele>1365</ele>
        <time>2010-07-04T07:48:48Z</time>
      </trkpt>
      <trkpt lat="45.02673" lon="5.84009">
        <ele>1364</ele>
        <time>2010-07-04T07:48:50Z</time>
      </trkpt>
      <trkpt lat="45.02673" lon="5.84002">
        <ele>1364</ele>
        <time>2010-07-04T07:48:50Z</time>
      </trkpt>
      <trkpt lat="45.02674" lon="5.83997">
        <ele>1364</ele>
        <time>2010-07-04T07:48:51Z</time>
      </trkpt>
      <trkpt lat="45.02675" lon="5.83992">
        <ele>1363</ele>
        <time>2010-07-04T07:48:52Z</time>
      </trkpt>
      <trkpt lat="45.02675" lon="5.83987">
        <ele>1363</ele>
        <time>2010-07-04T07:48:53Z</time>
      </trkpt>
      <trkpt lat="45.02675" lon="5.83982">
        <ele>1363</ele>
        <time>2010-07-04T07:48:55Z</time>
      </trkpt>
      <trkpt lat="45.02676" lon="5.83977">
        <ele>1362</ele>
        <time>2010-07-04T07:48:55Z</time>
      </trkpt>
      <trkpt lat="45.02676" lon="5.83972">
        <ele>1362</ele>
        <time>2010-07-04T07:48:56Z</time>
      </trkpt>
      <trkpt lat="45.02677" lon="5.83967">
        <ele>1361</ele>
        <time>2010-07-04T07:48:57Z</time>
      </trkpt>
      <trkpt lat="45.02678" lon="5.83962">
        <ele>1361</ele>
        <time>2010-07-04T07:48:58Z</time>
      </trkpt>
      <trkpt lat="45.02679" lon="5.83958">
        <ele>1360</ele>
        <time>2010-07-04T07:49:00Z</time>
      </trkpt>
      <trkpt lat="45.02679" lon="5.83953">
        <ele>1359</ele>
        <time>2010-07-04T07:49:00Z</time>
      </trkpt>
      <trkpt lat="45.02679" lon="5.83948">
        <ele>1359</ele>
        <time>2010-07-04T07:49:01Z</time>
      </trkpt>
      <trkpt lat="45.02679" lon="5.83943">
        <ele>1358</ele>
        <time>2010-07-04T07:49:02Z</time>
      </trkpt>
      <trkpt lat="45.0268" lon="5.83938">
        <ele>1357</ele>
        <time>2010-07-04T07:49:03Z</time>
      </trkpt>
      <trkpt lat="45.0268" lon="5.83933">
        <ele>1357</ele>
        <time>2010-07-04T07:49:05Z</time>
      </trkpt>
      <trkpt lat="45.0268" lon="5.83928">
        <ele>1356</ele>
        <time>2010-07-04T07:49:05Z</time>
      </trkpt>
      <trkpt lat="45.02681" lon="5.83923">
        <ele>1355</ele>
        <time>2010-07-04T07:49:06Z</time>
      </trkpt>
      <trkpt lat="45.02682" lon="5.8392">
        <ele>1355</ele>
        <time>2010-07-04T07:49:07Z</time>
      </trkpt>
      <trkpt lat="45.02682" lon="5.83917">
        <ele>1354</ele>
        <time>2010-07-04T07:49:08Z</time>
      </trkpt>
      <trkpt lat="45.02682" lon="5.83913">
        <ele>1354</ele>
        <time>2010-07-04T07:49:10Z</time>
      </trkpt>
      <trkpt lat="45.02682" lon="5.83911">
        <ele>1353</ele>
        <time>2010-07-04T07:49:10Z</time>
      </trkpt>
      <trkpt lat="45.02681" lon="5.83909">
        <ele>1352</ele>
        <time>2010-07-04T07:49:11Z</time>
      </trkpt>
      <trkpt lat="45.02679" lon="5.83907">
        <ele>1352</ele>
        <time>2010-07-04T07:49:12Z</time>
      </trkpt>
      <trkpt lat="45.02677" lon="5.83906">
        <ele>1351</ele>
        <time>2010-07-04T07:49:13Z</time>
      </trkpt>
      <trkpt lat="45.02675" lon="5.83903">
        <ele>1350</ele>
        <time>2010-07-04T07:49:15Z</time>
      </trkpt>
      <trkpt lat="45.02674" lon="5.839">
        <ele>1349</ele>
        <time>2010-07-04T07:49:15Z</time>
      </trkpt>
      <trkpt lat="45.02675" lon="5.83897">
        <ele>1348</ele>
        <time>2010-07-04T07:49:16Z</time>
      </trkpt>
      <trkpt lat="45.02676" lon="5.83893">
        <ele>1348</ele>
        <time>2010-07-04T07:49:17Z</time>
      </trkpt>
      <trkpt lat="45.02677" lon="5.83891">
        <ele>1347</ele>
        <time>2010-07-04T07:49:18Z</time>
      </trkpt>
      <trkpt lat="45.02678" lon="5.83888">
        <ele>1346</ele>
        <time>2010-07-04T07:49:20Z</time>
      </trkpt>
      <trkpt lat="45.02679" lon="5.83887">
        <ele>1345</ele>
        <time>2010-07-04T07:49:20Z</time>
      </trkpt>
      <trkpt lat="45.0268" lon="5.83885">
        <ele>1344</ele>
        <time>2010-07-04T07:49:21Z</time>
      </trkpt>
      <trkpt lat="45.0268" lon="5.83884">
        <ele>1343</ele>
        <time>2010-07-04T07:49:22Z</time>
      </trkpt>
      <trkpt lat="45.0268" lon="5.83881">
        <ele>1342</ele>
        <time>2010-07-04T07:49:23Z</time>
      </trkpt>
      <trkpt lat="45.02681" lon="5.83878">
        <ele>1341</ele>
        <time>2010-07-04T07:49:25Z</time>
      </trkpt>
      <trkpt lat="45.02681" lon="5.83875">
        <ele>1340</ele>
        <time>2010-07-04T07:49:25Z</time>
      </trkpt>
      <trkpt lat="45.02681" lon="5.83871">
        <ele>1339</ele>
        <time>2010-07-04T07:49:26Z</time>
      </trkpt>
      <trkpt lat="45.02681" lon="5.83867">
        <ele>1338</ele>
        <time>2010-07-04T07:49:27Z</time>
      </trkpt>
      <trkpt lat="45.02681" lon="5.83863">
        <ele>1337</ele>
        <time>2010-07-04T07:49:28Z</time>
      </trkpt>
      <trkpt lat="45.0268" lon="5.83861">
        <ele>1336</ele>
        <time>2010-07-04T07:49:30Z</time>
      </trkpt>
      <trkpt lat="45.02679" lon="5.83859">
        <ele>1335</ele>
        <time>2010-07-04T07:49:30Z</time>
      </trkpt>
      <trkpt lat="45.02676" lon="5.83858">
        <ele>1334</ele>
        <time>2010-07-04T07:49:31Z</time>
      </trkpt>
      <trkpt lat="45.02674" lon="5.83857">
        <ele>1333</ele>
        <time>2010-07-04T07:49:32Z</time>
      </trkpt>
      <trkpt lat="45.02672" lon="5.83855">
        <ele>1332</ele>
        <time>2010-07-04T07:49:33Z</time>
      </trkpt>
      <trkpt lat="45.02669" lon="5.83854">
        <ele>1331</ele>
        <time>2010-07-04T07:49:35Z</time>
      </trkpt>
      <trkpt lat="45.02666" lon="5.83854">
        <ele>1330</ele>
        <time>2010-07-04T07:49:36Z</time>
      </trkpt>
      <trkpt lat="45.02664" lon="5.83854">
        <ele>1330</ele>
        <time>2010-07-04T07:49:36Z</time>
      </trkpt>
      <trkpt lat="45.02662" lon="5.83855">
        <ele>1330</ele>
        <time>2010-07-04T07:49:37Z</time>
      </trkpt>
      <trkpt lat="45.02661" lon="5.83856">
        <ele>1329</ele>
        <time>2010-07-04T07:49:38Z</time>
      </trkpt>
      <trkpt lat="45.02659" lon="5.83856">
        <ele>1328</ele>
        <time>2010-07-04T07:49:39Z</time>
      </trkpt>
      <trkpt lat="45.02656" lon="5.83855">
        <ele>1327</ele>
        <time>2010-07-04T07:49:40Z</time>
      </trkpt>
      <trkpt lat="45.02654" lon="5.83852">
        <ele>1326</ele>
        <time>2010-07-04T07:49:41Z</time>
      </trkpt>
      <trkpt lat="45.02653" lon="5.83848">
        <ele>1325</ele>
        <time>2010-07-04T07:49:42Z</time>
      </trkpt>
      <trkpt lat="45.02651" lon="5.83843">
        <ele>1324</ele>
        <time>2010-07-04T07:49:43Z</time>
      </trkpt>
      <trkpt lat="45.02649" lon="5.83839">
        <ele>1323</ele>
        <time>2010-07-04T07:49:45Z</time>
      </trkpt>
      <trkpt lat="45.02648" lon="5.83835">
        <ele>1322</ele>
        <time>2010-07-04T07:49:45Z</time>
      </trkpt>
      <trkpt lat="45.02647" lon="5.83832">
        <ele>1321</ele>
        <time>2010-07-04T07:49:46Z</time>
      </trkpt>
      <trkpt lat="45.02646" lon="5.8383">
        <ele>1320</ele>
        <time>2010-07-04T07:49:47Z</time>
      </trkpt>
      <trkpt lat="45.02645" lon="5.83829">
        <ele>1319</ele>
        <time>2010-07-04T07:49:48Z</time>
      </trkpt>
      <trkpt lat="45.02643" lon="5.8383">
        <ele>1318</ele>
        <time>2010-07-04T07:49:50Z</time>
      </trkpt>
      <trkpt lat="45.02642" lon="5.83832">
        <ele>1318</ele>
        <time>2010-07-04T07:49:50Z</time>
      </trkpt>
      <trkpt lat="45.02642" lon="5.83835">
        <ele>1317</ele>
        <time>2010-07-04T07:49:51Z</time>
      </trkpt>
      <trkpt lat="45.02641" lon="5.83839">
        <ele>1316</ele>
        <time>2010-07-04T07:49:52Z</time>
      </trkpt>
      <trkpt lat="45.02639" lon="5.83842">
        <ele>1315</ele>
        <time>2010-07-04T07:49:53Z</time>
      </trkpt>
      <trkpt lat="45.02637" lon="5.83845">
        <ele>1314</ele>
        <time>2010-07-04T07:49:55Z</time>
      </trkpt>
      <trkpt lat="45.02634" lon="5.83848">
        <ele>1313</ele>
        <time>2010-07-04T07:49:55Z</time>
      </trkpt>
      <trkpt lat="45.02633" lon="5.83853">
        <ele>1312</ele>
        <time>2010-07-04T07:49:56Z</time>
      </trkpt>
      <trkpt lat="45.02631" lon="5.83858">
        <ele>1312</ele>
        <time>2010-07-04T07:49:57Z</time>
      </trkpt>
      <trkpt lat="45.02629" lon="5.83864">
        <ele>1311</ele>
        <time>2010-07-04T07:49:58Z</time>
      </trkpt>
      <trkpt lat="45.02625" lon="5.8387">
        <ele>1310</ele>
        <time>2010-07-04T07:49:59Z</time>
      </trkpt>
      <trkpt lat="45.02623" lon="5.83876">
        <ele>1309</ele>
        <time>2010-07-04T07:50:00Z</time>
      </trkpt>
      <trkpt lat="45.02622" lon="5.8388">
        <ele>1309</ele>
        <time>2010-07-04T07:50:01Z</time>
      </trkpt>
      <trkpt lat="45.02621" lon="5.83884">
        <ele>1308</ele>
        <time>2010-07-04T07:50:02Z</time>
      </trkpt>
      <trkpt lat="45.02619" lon="5.83888">
        <ele>1308</ele>
        <time>2010-07-04T07:50:03Z</time>
      </trkpt>
      <trkpt lat="45.02618" lon="5.83893">
        <ele>1307</ele>
        <time>2010-07-04T07:50:05Z</time>
      </trkpt>
      <trkpt lat="45.02616" lon="5.83897">
        <ele>1307</ele>
        <time>2010-07-04T07:50:05Z</time>
      </trkpt>
      <trkpt lat="45.02614" lon="5.83901">
        <ele>1307</ele>
        <time>2010-07-04T07:50:06Z</time>
      </trkpt>
      <trkpt lat="45.02612" lon="5.83904">
        <ele>1307</ele>
        <time>2010-07-04T07:50:07Z</time>
      </trkpt>
      <trkpt lat="45.02609" lon="5.83908">
        <ele>1307</ele>
        <time>2010-07-04T07:50:08Z</time>
      </trkpt>
      <trkpt lat="45.02606" lon="5.83912">
        <ele>1307</ele>
        <time>2010-07-04T07:50:09Z</time>
      </trkpt>
      <trkpt lat="45.02605" lon="5.83915">
        <ele>1307</ele>
        <time>2010-07-04T07:50:10Z</time>
      </trkpt>
      <trkpt lat="45.02603" lon="5.8392">
        <ele>1307</ele>
        <time>2010-07-04T07:50:11Z</time>
      </trkpt>
      <trkpt lat="45.026" lon="5.83925">
        <ele>1307</ele>
        <time>2010-07-04T07:50:12Z</time>
      </trkpt>
      <trkpt lat="45.02598" lon="5.8393">
        <ele>1306</ele>
        <time>2010-07-04T07:50:13Z</time>
      </trkpt>
      <trkpt lat="45.02596" lon="5.83934">
        <ele>1306</ele>
        <time>2010-07-04T07:50:15Z</time>
      </trkpt>
      <trkpt lat="45.02593" lon="5.83938">
        <ele>1305</ele>
        <time>2010-07-04T07:50:15Z</time>
      </trkpt>
      <trkpt lat="45.0259" lon="5.8394">
        <ele>1305</ele>
        <time>2010-07-04T07:50:16Z</time>
      </trkpt>
      <trkpt lat="45.02587" lon="5.83943">
        <ele>1305</ele>
        <time>2010-07-04T07:50:17Z</time>
      </trkpt>
      <trkpt lat="45.02585" lon="5.83945">
        <ele>1305</ele>
        <time>2010-07-04T07:50:18Z</time>
      </trkpt>
      <trkpt lat="45.02582" lon="5.83947">
        <ele>1304</ele>
        <time>2010-07-04T07:50:20Z</time>
      </trkpt>
      <trkpt lat="45.02579" lon="5.83949">
        <ele>1304</ele>
        <time>2010-07-04T07:50:20Z</time>
      </trkpt>
      <trkpt lat="45.02576" lon="5.8395">
        <ele>1304</ele>
        <time>2010-07-04T07:50:21Z</time>
      </trkpt>
      <trkpt lat="45.02573" lon="5.83953">
        <ele>1303</ele>
        <time>2010-07-04T07:50:22Z</time>
      </trkpt>
      <trkpt lat="45.0257" lon="5.83954">
        <ele>1303</ele>
        <time>2010-07-04T07:50:23Z</time>
      </trkpt>
      <trkpt lat="45.02567" lon="5.83957">
        <ele>1302</ele>
        <time>2010-07-04T07:50:24Z</time>
      </trkpt>
      <trkpt lat="45.02564" lon="5.83958">
        <ele>1302</ele>
        <time>2010-07-04T07:50:25Z</time>
      </trkpt>
      <trkpt lat="45.02561" lon="5.83959">
        <ele>1301</ele>
        <time>2010-07-04T07:50:26Z</time>
      </trkpt>
      <trkpt lat="45.02558" lon="5.83961">
        <ele>1300</ele>
        <time>2010-07-04T07:50:27Z</time>
      </trkpt>
      <trkpt lat="45.02555" lon="5.83963">
        <ele>1300</ele>
        <time>2010-07-04T07:50:28Z</time>
      </trkpt>
      <trkpt lat="45.02553" lon="5.83965">
        <ele>1299</ele>
        <time>2010-07-04T07:50:30Z</time>
      </trkpt>
      <trkpt lat="45.02551" lon="5.83966">
        <ele>1298</ele>
        <time>2010-07-04T07:50:30Z</time>
      </trkpt>
      <trkpt lat="45.02548" lon="5.83968">
        <ele>1297</ele>
        <time>2010-07-04T07:50:31Z</time>
      </trkpt>
      <trkpt lat="45.02545" lon="5.8397">
        <ele>1296</ele>
        <time>2010-07-04T07:50:32Z</time>
      </trkpt>
      <trkpt lat="45.02542" lon="5.83973">
        <ele>1296</ele>
        <time>2010-07-04T07:50:33Z</time>
      </trkpt>
      <trkpt lat="45.0254" lon="5.83975">
        <ele>1295</ele>
        <time>2010-07-04T07:50:35Z</time>
      </trkpt>
      <trkpt lat="45.02538" lon="5.83976">
        <ele>1294</ele>
        <time>2010-07-04T07:50:35Z</time>
      </trkpt>
      <trkpt lat="45.02539" lon="5.83973">
        <ele>1292</ele>
        <time>2010-07-04T07:50:37Z</time>
      </trkpt>
      <trkpt lat="45.0254" lon="5.83966">
        <ele>1291</ele>
        <time>2010-07-04T07:50:38Z</time>
      </trkpt>
      <trkpt lat="45.02542" lon="5.83961">
        <ele>1290</ele>
        <time>2010-07-04T07:50:40Z</time>
      </trkpt>
      <trkpt lat="45.02544" lon="5.83957">
        <ele>1289</ele>
        <time>2010-07-04T07:50:40Z</time>
      </trkpt>
      <trkpt lat="45.02544" lon="5.83951">
        <ele>1288</ele>
        <time>2010-07-04T07:50:41Z</time>
      </trkpt>
      <trkpt lat="45.02545" lon="5.83947">
        <ele>1287</ele>
        <time>2010-07-04T07:50:42Z</time>
      </trkpt>
      <trkpt lat="45.02547" lon="5.83944">
        <ele>1286</ele>
        <time>2010-07-04T07:50:43Z</time>
      </trkpt>
      <trkpt lat="45.02549" lon="5.8394">
        <ele>1284</ele>
        <time>2010-07-04T07:50:44Z</time>
      </trkpt>
      <trkpt lat="45.0255" lon="5.83935">
        <ele>1283</ele>
        <time>2010-07-04T07:50:45Z</time>
      </trkpt>
      <trkpt lat="45.02552" lon="5.83929">
        <ele>1282</ele>
        <time>2010-07-04T07:50:46Z</time>
      </trkpt>
      <trkpt lat="45.02552" lon="5.83925">
        <ele>1281</ele>
        <time>2010-07-04T07:50:47Z</time>
      </trkpt>
      <trkpt lat="45.02552" lon="5.83921">
        <ele>1280</ele>
        <time>2010-07-04T07:50:48Z</time>
      </trkpt>
      <trkpt lat="45.02553" lon="5.83916">
        <ele>1279</ele>
        <time>2010-07-04T07:50:50Z</time>
      </trkpt>
      <trkpt lat="45.02554" lon="5.83911">
        <ele>1278</ele>
        <time>2010-07-04T07:50:50Z</time>
      </trkpt>
      <trkpt lat="45.02555" lon="5.83907">
        <ele>1277</ele>
        <time>2010-07-04T07:50:51Z</time>
      </trkpt>
      <trkpt lat="45.02555" lon="5.83902">
        <ele>1276</ele>
        <time>2010-07-04T07:50:52Z</time>
      </trkpt>
      <trkpt lat="45.02556" lon="5.83897">
        <ele>1275</ele>
        <time>2010-07-04T07:50:53Z</time>
      </trkpt>
      <trkpt lat="45.02557" lon="5.83891">
        <ele>1274</ele>
        <time>2010-07-04T07:50:54Z</time>
      </trkpt>
      <trkpt lat="45.02558" lon="5.83885">
        <ele>1273</ele>
        <time>2010-07-04T07:50:55Z</time>
      </trkpt>
      <trkpt lat="45.02559" lon="5.8388">
        <ele>1272</ele>
        <time>2010-07-04T07:50:56Z</time>
      </trkpt>
      <trkpt lat="45.02559" lon="5.83874">
        <ele>1271</ele>
        <time>2010-07-04T07:50:57Z</time>
      </trkpt>
      <trkpt lat="45.0256" lon="5.8387">
        <ele>1270</ele>
        <time>2010-07-04T07:50:58Z</time>
      </trkpt>
      <trkpt lat="45.02561" lon="5.83866">
        <ele>1269</ele>
        <time>2010-07-04T07:51:00Z</time>
      </trkpt>
      <trkpt lat="45.02561" lon="5.83861">
        <ele>1268</ele>
        <time>2010-07-04T07:51:00Z</time>
      </trkpt>
      <trkpt lat="45.02562" lon="5.83857">
        <ele>1268</ele>
        <time>2010-07-04T07:51:01Z</time>
      </trkpt>
      <trkpt lat="45.02564" lon="5.83852">
        <ele>1268</ele>
        <time>2010-07-04T07:51:02Z</time>
      </trkpt>
      <trkpt lat="45.02565" lon="5.83847">
        <ele>1268</ele>
        <time>2010-07-04T07:51:03Z</time>
      </trkpt>
      <trkpt lat="45.02566" lon="5.83842">
        <ele>1268</ele>
        <time>2010-07-04T07:51:04Z</time>
      </trkpt>
      <trkpt lat="45.02567" lon="5.83838">
        <ele>1267</ele>
        <time>2010-07-04T07:51:05Z</time>
      </trkpt>
      <trkpt lat="45.02568" lon="5.83833">
        <ele>1267</ele>
        <time>2010-07-04T07:51:06Z</time>
      </trkpt>
      <trkpt lat="45.02569" lon="5.83829">
        <ele>1266</ele>
        <time>2010-07-04T07:51:07Z</time>
      </trkpt>
      <trkpt lat="45.0257" lon="5.83824">
        <ele>1265</ele>
        <time>2010-07-04T07:51:08Z</time>
      </trkpt>
      <trkpt lat="45.02571" lon="5.8382">
        <ele>1265</ele>
        <time>2010-07-04T07:51:09Z</time>
      </trkpt>
      <trkpt lat="45.02572" lon="5.83815">
        <ele>1264</ele>
        <time>2010-07-04T07:51:10Z</time>
      </trkpt>
      <trkpt lat="45.02572" lon="5.83809">
        <ele>1264</ele>
        <time>2010-07-04T07:51:11Z</time>
      </trkpt>
      <trkpt lat="45.02572" lon="5.83803">
        <ele>1263</ele>
        <time>2010-07-04T07:51:12Z</time>
      </trkpt>
      <trkpt lat="45.02571" lon="5.83798">
        <ele>1263</ele>
        <time>2010-07-04T07:51:13Z</time>
      </trkpt>
      <trkpt lat="45.0257" lon="5.83793">
        <ele>1262</ele>
        <time>2010-07-04T07:51:15Z</time>
      </trkpt>
      <trkpt lat="45.02569" lon="5.83787">
        <ele>1262</ele>
        <time>2010-07-04T07:51:15Z</time>
      </trkpt>
      <trkpt lat="45.02569" lon="5.83782">
        <ele>1262</ele>
        <time>2010-07-04T07:51:16Z</time>
      </trkpt>
      <trkpt lat="45.02569" lon="5.83778">
        <ele>1261</ele>
        <time>2010-07-04T07:51:17Z</time>
      </trkpt>
      <trkpt lat="45.0257" lon="5.83774">
        <ele>1261</ele>
        <time>2010-07-04T07:51:18Z</time>
      </trkpt>
      <trkpt lat="45.02569" lon="5.83767">
        <ele>1261</ele>
        <time>2010-07-04T07:51:20Z</time>
      </trkpt>
      <trkpt lat="45.02569" lon="5.83763">
        <ele>1261</ele>
        <time>2010-07-04T07:51:20Z</time>
      </trkpt>
      <trkpt lat="45.0257" lon="5.83758">
        <ele>1261</ele>
        <time>2010-07-04T07:51:21Z</time>
      </trkpt>
      <trkpt lat="45.02571" lon="5.83755">
        <ele>1261</ele>
        <time>2010-07-04T07:51:22Z</time>
      </trkpt>
      <trkpt lat="45.02571" lon="5.8375">
        <ele>1261</ele>
        <time>2010-07-04T07:51:23Z</time>
      </trkpt>
      <trkpt lat="45.02571" lon="5.83747">
        <ele>1261</ele>
        <time>2010-07-04T07:51:25Z</time>
      </trkpt>
      <trkpt lat="45.02569" lon="5.83749">
        <ele>1261</ele>
        <time>2010-07-04T07:51:27Z</time>
      </trkpt>
      <trkpt lat="45.02568" lon="5.83753">
        <ele>1260</ele>
        <time>2010-07-04T07:51:28Z</time>
      </trkpt>
      <trkpt lat="45.02567" lon="5.83757">
        <ele>1259</ele>
        <time>2010-07-04T07:51:30Z</time>
      </trkpt>
      <trkpt lat="45.02566" lon="5.83761">
        <ele>1259</ele>
        <time>2010-07-04T07:51:30Z</time>
      </trkpt>
      <trkpt lat="45.02565" lon="5.83763">
        <ele>1258</ele>
        <time>2010-07-04T07:51:31Z</time>
      </trkpt>
      <trkpt lat="45.02564" lon="5.83766">
        <ele>1258</ele>
        <time>2010-07-04T07:51:32Z</time>
      </trkpt>
      <trkpt lat="45.02563" lon="5.8377">
        <ele>1258</ele>
        <time>2010-07-04T07:51:33Z</time>
      </trkpt>
      <trkpt lat="45.02562" lon="5.83773">
        <ele>1258</ele>
        <time>2010-07-04T07:51:34Z</time>
      </trkpt>
      <trkpt lat="45.02561" lon="5.83777">
        <ele>1258</ele>
        <time>2010-07-04T07:51:35Z</time>
      </trkpt>
      <trkpt lat="45.0256" lon="5.83779">
        <ele>1258</ele>
        <time>2010-07-04T07:51:36Z</time>
      </trkpt>
      <trkpt lat="45.02558" lon="5.83782">
        <ele>1258</ele>
        <time>2010-07-04T07:51:37Z</time>
      </trkpt>
      <trkpt lat="45.02556" lon="5.83785">
        <ele>1258</ele>
        <time>2010-07-04T07:51:38Z</time>
      </trkpt>
      <trkpt lat="45.02554" lon="5.83789">
        <ele>1258</ele>
        <time>2010-07-04T07:51:39Z</time>
      </trkpt>
      <trkpt lat="45.02553" lon="5.83793">
        <ele>1258</ele>
        <time>2010-07-04T07:51:40Z</time>
      </trkpt>
      <trkpt lat="45.02551" lon="5.83798">
        <ele>1258</ele>
        <time>2010-07-04T07:51:41Z</time>
      </trkpt>
      <trkpt lat="45.02548" lon="5.83803">
        <ele>1258</ele>
        <time>2010-07-04T07:51:42Z</time>
      </trkpt>
      <trkpt lat="45.02546" lon="5.83807">
        <ele>1258</ele>
        <time>2010-07-04T07:51:43Z</time>
      </trkpt>
      <trkpt lat="45.02544" lon="5.83811">
        <ele>1258</ele>
        <time>2010-07-04T07:51:44Z</time>
      </trkpt>
      <trkpt lat="45.02541" lon="5.83814">
        <ele>1258</ele>
        <time>2010-07-04T07:51:45Z</time>
      </trkpt>
      <trkpt lat="45.02538" lon="5.83818">
        <ele>1258</ele>
        <time>2010-07-04T07:51:46Z</time>
      </trkpt>
      <trkpt lat="45.02536" lon="5.83821">
        <ele>1258</ele>
        <time>2010-07-04T07:51:47Z</time>
      </trkpt>
      <trkpt lat="45.02534" lon="5.83824">
        <ele>1258</ele>
        <time>2010-07-04T07:51:48Z</time>
      </trkpt>
      <trkpt lat="45.02532" lon="5.83827">
        <ele>1258</ele>
        <time>2010-07-04T07:51:50Z</time>
      </trkpt>
      <trkpt lat="45.02529" lon="5.8383">
        <ele>1258</ele>
        <time>2010-07-04T07:51:50Z</time>
      </trkpt>
      <trkpt lat="45.02526" lon="5.83833">
        <ele>1257</ele>
        <time>2010-07-04T07:51:51Z</time>
      </trkpt>
      <trkpt lat="45.02524" lon="5.83835">
        <ele>1257</ele>
        <time>2010-07-04T07:51:52Z</time>
      </trkpt>
      <trkpt lat="45.02521" lon="5.83837">
        <ele>1256</ele>
        <time>2010-07-04T07:51:53Z</time>
      </trkpt>
      <trkpt lat="45.02519" lon="5.83839">
        <ele>1255</ele>
        <time>2010-07-04T07:51:55Z</time>
      </trkpt>
      <trkpt lat="45.02515" lon="5.83841">
        <ele>1254</ele>
        <time>2010-07-04T07:51:55Z</time>
      </trkpt>
      <trkpt lat="45.02513" lon="5.83839">
        <ele>1253</ele>
        <time>2010-07-04T07:51:56Z</time>
      </trkpt>
      <trkpt lat="45.02512" lon="5.83837">
        <ele>1253</ele>
        <time>2010-07-04T07:51:57Z</time>
      </trkpt>
      <trkpt lat="45.0251" lon="5.83833">
        <ele>1252</ele>
        <time>2010-07-04T07:52:00Z</time>
      </trkpt>
      <trkpt lat="45.02509" lon="5.8383">
        <ele>1252</ele>
        <time>2010-07-04T07:52:00Z</time>
      </trkpt>
      <trkpt lat="45.02508" lon="5.83828">
        <ele>1251</ele>
        <time>2010-07-04T07:52:01Z</time>
      </trkpt>
      <trkpt lat="45.02505" lon="5.83824">
        <ele>1250</ele>
        <time>2010-07-04T07:52:02Z</time>
      </trkpt>
      <trkpt lat="45.02503" lon="5.83823">
        <ele>1249</ele>
        <time>2010-07-04T07:52:03Z</time>
      </trkpt>
      <trkpt lat="45.02501" lon="5.83823">
        <ele>1249</ele>
        <time>2010-07-04T07:52:05Z</time>
      </trkpt>
      <trkpt lat="45.02498" lon="5.83822">
        <ele>1248</ele>
        <time>2010-07-04T07:52:05Z</time>
      </trkpt>
      <trkpt lat="45.02495" lon="5.83821">
        <ele>1247</ele>
        <time>2010-07-04T07:52:06Z</time>
      </trkpt>
      <trkpt lat="45.02493" lon="5.83819">
        <ele>1246</ele>
        <time>2010-07-04T07:52:07Z</time>
      </trkpt>
      <trkpt lat="45.0249" lon="5.83818">
        <ele>1245</ele>
        <time>2010-07-04T07:52:08Z</time>
      </trkpt>
      <trkpt lat="45.02487" lon="5.83817">
        <ele>1244</ele>
        <time>2010-07-04T07:52:10Z</time>
      </trkpt>
      <trkpt lat="45.02484" lon="5.83817">
        <ele>1243</ele>
        <time>2010-07-04T07:52:10Z</time>
      </trkpt>
      <trkpt lat="45.0248" lon="5.83817">
        <ele>1242</ele>
        <time>2010-07-04T07:52:11Z</time>
      </trkpt>
      <trkpt lat="45.02477" lon="5.83816">
        <ele>1241</ele>
        <time>2010-07-04T07:52:12Z</time>
      </trkpt>
      <trkpt lat="45.02475" lon="5.83816">
        <ele>1240</ele>
        <time>2010-07-04T07:52:13Z</time>
      </trkpt>
      <trkpt lat="45.02472" lon="5.83815">
        <ele>1240</ele>
        <time>2010-07-04T07:52:14Z</time>
      </trkpt>
      <trkpt lat="45.02469" lon="5.83815">
        <ele>1240</ele>
        <time>2010-07-04T07:52:15Z</time>
      </trkpt>
      <trkpt lat="45.02467" lon="5.83813">
        <ele>1240</ele>
        <time>2010-07-04T07:52:16Z</time>
      </trkpt>
      <trkpt lat="45.02466" lon="5.8381">
        <ele>1240</ele>
        <time>2010-07-04T07:52:17Z</time>
      </trkpt>
      <trkpt lat="45.02463" lon="5.83808">
        <ele>1240</ele>
        <time>2010-07-04T07:52:18Z</time>
      </trkpt>
      <trkpt lat="45.02461" lon="5.83806">
        <ele>1240</ele>
        <time>2010-07-04T07:52:20Z</time>
      </trkpt>
      <trkpt lat="45.0246" lon="5.83803">
        <ele>1240</ele>
        <time>2010-07-04T07:52:20Z</time>
      </trkpt>
      <trkpt lat="45.02459" lon="5.83802">
        <ele>1240</ele>
        <time>2010-07-04T07:52:21Z</time>
      </trkpt>
      <trkpt lat="45.02457" lon="5.83801">
        <ele>1240</ele>
        <time>2010-07-04T07:52:22Z</time>
      </trkpt>
      <trkpt lat="45.02455" lon="5.838">
        <ele>1240</ele>
        <time>2010-07-04T07:52:23Z</time>
      </trkpt>
      <trkpt lat="45.02453" lon="5.83801">
        <ele>1240</ele>
        <time>2010-07-04T07:52:25Z</time>
      </trkpt>
      <trkpt lat="45.02451" lon="5.83801">
        <ele>1240</ele>
        <time>2010-07-04T07:52:25Z</time>
      </trkpt>
      <trkpt lat="45.02449" lon="5.83801">
        <ele>1240</ele>
        <time>2010-07-04T07:52:26Z</time>
      </trkpt>
      <trkpt lat="45.02447" lon="5.83802">
        <ele>1240</ele>
        <time>2010-07-04T07:52:27Z</time>
      </trkpt>
      <trkpt lat="45.02444" lon="5.83801">
        <ele>1240</ele>
        <time>2010-07-04T07:52:28Z</time>
      </trkpt>
      <trkpt lat="45.02442" lon="5.83801">
        <ele>1240</ele>
        <time>2010-07-04T07:52:29Z</time>
      </trkpt>
      <trkpt lat="45.02439" lon="5.83801">
        <ele>1240</ele>
        <time>2010-07-04T07:52:30Z</time>
      </trkpt>
      <trkpt lat="45.02436" lon="5.83801">
        <ele>1240</ele>
        <time>2010-07-04T07:52:31Z</time>
      </trkpt>
      <trkpt lat="45.02433" lon="5.83801">
        <ele>1240</ele>
        <time>2010-07-04T07:52:32Z</time>
      </trkpt>
      <trkpt lat="45.0243" lon="5.83801">
        <ele>1240</ele>
        <time>2010-07-04T07:52:33Z</time>
      </trkpt>
      <trkpt lat="45.02426" lon="5.83801">
        <ele>1240</ele>
        <time>2010-07-04T07:52:34Z</time>
      </trkpt>
      <trkpt lat="45.02424" lon="5.838">
        <ele>1241</ele>
        <time>2010-07-04T07:52:35Z</time>
      </trkpt>
      <trkpt lat="45.02422" lon="5.83798">
        <ele>1241</ele>
        <time>2010-07-04T07:52:36Z</time>
      </trkpt>
      <trkpt lat="45.02419" lon="5.83798">
        <ele>1241</ele>
        <time>2010-07-04T07:52:37Z</time>
      </trkpt>
      <trkpt lat="45.02416" lon="5.83796">
        <ele>1241</ele>
        <time>2010-07-04T07:52:38Z</time>
      </trkpt>
      <trkpt lat="45.02414" lon="5.83794">
        <ele>1241</ele>
        <time>2010-07-04T07:52:39Z</time>
      </trkpt>
      <trkpt lat="45.02411" lon="5.83793">
        <ele>1241</ele>
        <time>2010-07-04T07:52:40Z</time>
      </trkpt>
      <trkpt lat="45.02409" lon="5.83791">
        <ele>1241</ele>
        <time>2010-07-04T07:52:41Z</time>
      </trkpt>
      <trkpt lat="45.02408" lon="5.8379">
        <ele>1241</ele>
        <time>2010-07-04T07:52:42Z</time>
      </trkpt>
      <trkpt lat="45.02405" lon="5.83789">
        <ele>1241</ele>
        <time>2010-07-04T07:52:43Z</time>
      </trkpt>
      <trkpt lat="45.02402" lon="5.83788">
        <ele>1241</ele>
        <time>2010-07-04T07:52:44Z</time>
      </trkpt>
      <trkpt lat="45.024" lon="5.83788">
        <ele>1241</ele>
        <time>2010-07-04T07:52:45Z</time>
      </trkpt>
      <trkpt lat="45.02399" lon="5.83788">
        <ele>1241</ele>
        <time>2010-07-04T07:52:46Z</time>
      </trkpt>
      <trkpt lat="45.02398" lon="5.83788">
        <ele>1241</ele>
        <time>2010-07-04T07:52:47Z</time>
      </trkpt>
      <trkpt lat="45.02396" lon="5.83787">
        <ele>1241</ele>
        <time>2010-07-04T07:52:48Z</time>
      </trkpt>
      <trkpt lat="45.02393" lon="5.83788">
        <ele>1241</ele>
        <time>2010-07-04T07:52:49Z</time>
      </trkpt>
      <trkpt lat="45.02391" lon="5.83788">
        <ele>1241</ele>
        <time>2010-07-04T07:52:50Z</time>
      </trkpt>
      <trkpt lat="45.02388" lon="5.83787">
        <ele>1241</ele>
        <time>2010-07-04T07:52:51Z</time>
      </trkpt>
      <trkpt lat="45.02385" lon="5.83787">
        <ele>1241</ele>
        <time>2010-07-04T07:52:52Z</time>
      </trkpt>
      <trkpt lat="45.02383" lon="5.83788">
        <ele>1241</ele>
        <time>2010-07-04T07:52:53Z</time>
      </trkpt>
      <trkpt lat="45.0238" lon="5.83788">
        <ele>1241</ele>
        <time>2010-07-04T07:52:54Z</time>
      </trkpt>
      <trkpt lat="45.02378" lon="5.83787">
        <ele>1241</ele>
        <time>2010-07-04T07:52:55Z</time>
      </trkpt>
      <trkpt lat="45.02375" lon="5.83785">
        <ele>1241</ele>
        <time>2010-07-04T07:52:56Z</time>
      </trkpt>
      <trkpt lat="45.02373" lon="5.83782">
        <ele>1241</ele>
        <time>2010-07-04T07:52:57Z</time>
      </trkpt>
      <trkpt lat="45.02369" lon="5.83776">
        <ele>1241</ele>
        <time>2010-07-04T07:52:58Z</time>
      </trkpt>
      <trkpt lat="45.02367" lon="5.83773">
        <ele>1242</ele>
        <time>2010-07-04T07:52:59Z</time>
      </trkpt>
      <trkpt lat="45.02366" lon="5.83772">
        <ele>1243</ele>
        <time>2010-07-04T07:53:00Z</time>
      </trkpt>
      <trkpt lat="45.02364" lon="5.83771">
        <ele>1244</ele>
        <time>2010-07-04T07:53:01Z</time>
      </trkpt>
      <trkpt lat="45.02361" lon="5.83771">
        <ele>1245</ele>
        <time>2010-07-04T07:53:02Z</time>
      </trkpt>
      <trkpt lat="45.02358" lon="5.83771">
        <ele>1246</ele>
        <time>2010-07-04T07:53:03Z</time>
      </trkpt>
      <trkpt lat="45.02356" lon="5.83771">
        <ele>1247</ele>
        <time>2010-07-04T07:53:04Z</time>
      </trkpt>
      <trkpt lat="45.02354" lon="5.83771">
        <ele>1248</ele>
        <time>2010-07-04T07:53:05Z</time>
      </trkpt>
      <trkpt lat="45.02352" lon="5.83773">
        <ele>1249</ele>
        <time>2010-07-04T07:53:06Z</time>
      </trkpt>
      <trkpt lat="45.02351" lon="5.83774">
        <ele>1250</ele>
        <time>2010-07-04T07:53:07Z</time>
      </trkpt>
      <trkpt lat="45.02349" lon="5.83776">
        <ele>1251</ele>
        <time>2010-07-04T07:53:08Z</time>
      </trkpt>
      <trkpt lat="45.02347" lon="5.83779">
        <ele>1252</ele>
        <time>2010-07-04T07:53:09Z</time>
      </trkpt>
      <trkpt lat="45.02346" lon="5.83783">
        <ele>1253</ele>
        <time>2010-07-04T07:53:10Z</time>
      </trkpt>
      <trkpt lat="45.02345" lon="5.83786">
        <ele>1254</ele>
        <time>2010-07-04T07:53:11Z</time>
      </trkpt>
      <trkpt lat="45.02344" lon="5.8379">
        <ele>1255</ele>
        <time>2010-07-04T07:53:12Z</time>
      </trkpt>
      <trkpt lat="45.02344" lon="5.83793">
        <ele>1256</ele>
        <time>2010-07-04T07:53:13Z</time>
      </trkpt>
      <trkpt lat="45.02344" lon="5.83796">
        <ele>1257</ele>
        <time>2010-07-04T07:53:14Z</time>
      </trkpt>
      <trkpt lat="45.02343" lon="5.83798">
        <ele>1258</ele>
        <time>2010-07-04T07:53:15Z</time>
      </trkpt>
      <trkpt lat="45.02341" lon="5.83798">
        <ele>1261</ele>
        <time>2010-07-04T07:53:17Z</time>
      </trkpt>
      <trkpt lat="45.0234" lon="5.838">
        <ele>1265</ele>
        <time>2010-07-04T07:53:20Z</time>
      </trkpt>
      <trkpt lat="45.02339" lon="5.83802">
        <ele>1266</ele>
        <time>2010-07-04T07:53:21Z</time>
      </trkpt>
      <trkpt lat="45.02338" lon="5.83804">
        <ele>1268</ele>
        <time>2010-07-04T07:53:23Z</time>
      </trkpt>
      <trkpt lat="45.02338" lon="5.83806">
        <ele>1269</ele>
        <time>2010-07-04T07:53:24Z</time>
      </trkpt>
      <trkpt lat="45.02338" lon="5.83808">
        <ele>1270</ele>
        <time>2010-07-04T07:53:25Z</time>
      </trkpt>
      <trkpt lat="45.02337" lon="5.8381">
        <ele>1271</ele>
        <time>2010-07-04T07:53:26Z</time>
      </trkpt>
      <trkpt lat="45.02336" lon="5.83812">
        <ele>1272</ele>
        <time>2010-07-04T07:53:27Z</time>
      </trkpt>
      <trkpt lat="45.02335" lon="5.83814">
        <ele>1273</ele>
        <time>2010-07-04T07:53:28Z</time>
      </trkpt>
      <trkpt lat="45.02333" lon="5.83817">
        <ele>1275</ele>
        <time>2010-07-04T07:53:30Z</time>
      </trkpt>
      <trkpt lat="45.02331" lon="5.8382">
        <ele>1276</ele>
        <time>2010-07-04T07:53:31Z</time>
      </trkpt>
      <trkpt lat="45.02329" lon="5.8382">
        <ele>1277</ele>
        <time>2010-07-04T07:53:32Z</time>
      </trkpt>
      <trkpt lat="45.02328" lon="5.8382">
        <ele>1278</ele>
        <time>2010-07-04T07:53:33Z</time>
      </trkpt>
      <trkpt lat="45.02326" lon="5.83819">
        <ele>1279</ele>
        <time>2010-07-04T07:53:34Z</time>
      </trkpt>
      <trkpt lat="45.02325" lon="5.83817">
        <ele>1279</ele>
        <time>2010-07-04T07:53:35Z</time>
      </trkpt>
      <trkpt lat="45.02324" lon="5.83816">
        <ele>1279</ele>
        <time>2010-07-04T07:53:36Z</time>
      </trkpt>
      <trkpt lat="45.02322" lon="5.83816">
        <ele>1279</ele>
        <time>2010-07-04T07:53:38Z</time>
      </trkpt>
      <trkpt lat="45.0232" lon="5.83816">
        <ele>1279</ele>
        <time>2010-07-04T07:53:39Z</time>
      </trkpt>
      <trkpt lat="45.02319" lon="5.83816">
        <ele>1279</ele>
        <time>2010-07-04T07:53:40Z</time>
      </trkpt>
      <trkpt lat="45.02318" lon="5.83816">
        <ele>1279</ele>
        <time>2010-07-04T07:53:41Z</time>
      </trkpt>
      <trkpt lat="45.02316" lon="5.83816">
        <ele>1279</ele>
        <time>2010-07-04T07:53:42Z</time>
      </trkpt>
      <trkpt lat="45.02315" lon="5.83816">
        <ele>1279</ele>
        <time>2010-07-04T07:53:43Z</time>
      </trkpt>
      <trkpt lat="45.02314" lon="5.83815">
        <ele>1278</ele>
        <time>2010-07-04T07:53:44Z</time>
      </trkpt>
      <trkpt lat="45.02312" lon="5.83815">
        <ele>1277</ele>
        <time>2010-07-04T07:53:45Z</time>
      </trkpt>
      <trkpt lat="45.0231" lon="5.83814">
        <ele>1276</ele>
        <time>2010-07-04T07:53:46Z</time>
      </trkpt>
      <trkpt lat="45.02309" lon="5.83814">
        <ele>1275</ele>
        <time>2010-07-04T07:53:47Z</time>
      </trkpt>
      <trkpt lat="45.02307" lon="5.83814">
        <ele>1274</ele>
        <time>2010-07-04T07:53:48Z</time>
      </trkpt>
      <trkpt lat="45.02306" lon="5.83815">
        <ele>1274</ele>
        <time>2010-07-04T07:53:49Z</time>
      </trkpt>
      <trkpt lat="45.02303" lon="5.83817">
        <ele>1274</ele>
        <time>2010-07-04T07:53:50Z</time>
      </trkpt>
      <trkpt lat="45.02301" lon="5.83817">
        <ele>1274</ele>
        <time>2010-07-04T07:53:52Z</time>
      </trkpt>
      <trkpt lat="45.023" lon="5.83818">
        <ele>1274</ele>
        <time>2010-07-04T07:53:53Z</time>
      </trkpt>
      <trkpt lat="45.02298" lon="5.83819">
        <ele>1274</ele>
        <time>2010-07-04T07:53:54Z</time>
      </trkpt>
      <trkpt lat="45.02295" lon="5.83821">
        <ele>1274</ele>
        <time>2010-07-04T07:53:55Z</time>
      </trkpt>
      <trkpt lat="45.02291" lon="5.83823">
        <ele>1274</ele>
        <time>2010-07-04T07:53:56Z</time>
      </trkpt>
      <trkpt lat="45.02287" lon="5.83824">
        <ele>1274</ele>
        <time>2010-07-04T07:53:57Z</time>
      </trkpt>
      <trkpt lat="45.02283" lon="5.83826">
        <ele>1274</ele>
        <time>2010-07-04T07:53:58Z</time>
      </trkpt>
      <trkpt lat="45.02281" lon="5.83825">
        <ele>1274</ele>
        <time>2010-07-04T07:53:59Z</time>
      </trkpt>
      <trkpt lat="45.02278" lon="5.83825">
        <ele>1274</ele>
        <time>2010-07-04T07:54:00Z</time>
      </trkpt>
      <trkpt lat="45.02274" lon="5.83826">
        <ele>1275</ele>
        <time>2010-07-04T07:54:01Z</time>
      </trkpt>
      <trkpt lat="45.02272" lon="5.83825">
        <ele>1275</ele>
        <time>2010-07-04T07:54:02Z</time>
      </trkpt>
      <trkpt lat="45.0227" lon="5.83824">
        <ele>1276</ele>
        <time>2010-07-04T07:54:03Z</time>
      </trkpt>
      <trkpt lat="45.02268" lon="5.83824">
        <ele>1277</ele>
        <time>2010-07-04T07:54:04Z</time>
      </trkpt>
      <trkpt lat="45.02265" lon="5.83824">
        <ele>1277</ele>
        <time>2010-07-04T07:54:05Z</time>
      </trkpt>
      <trkpt lat="45.02262" lon="5.83825">
        <ele>1278</ele>
        <time>2010-07-04T07:54:06Z</time>
      </trkpt>
      <trkpt lat="45.0226" lon="5.83825">
        <ele>1279</ele>
        <time>2010-07-04T07:54:07Z</time>
      </trkpt>
      <trkpt lat="45.02257" lon="5.83826">
        <ele>1279</ele>
        <time>2010-07-04T07:54:08Z</time>
      </trkpt>
      <trkpt lat="45.02253" lon="5.83827">
        <ele>1279</ele>
        <time>2010-07-04T07:54:09Z</time>
      </trkpt>
      <trkpt lat="45.02249" lon="5.83828">
        <ele>1279</ele>
        <time>2010-07-04T07:54:10Z</time>
      </trkpt>
      <trkpt lat="45.02247" lon="5.83829">
        <ele>1279</ele>
        <time>2010-07-04T07:54:11Z</time>
      </trkpt>
      <trkpt lat="45.02244" lon="5.83828">
        <ele>1279</ele>
        <time>2010-07-04T07:54:12Z</time>
      </trkpt>
      <trkpt lat="45.02241" lon="5.83828">
        <ele>1279</ele>
        <time>2010-07-04T07:54:13Z</time>
      </trkpt>
      <trkpt lat="45.02238" lon="5.83828">
        <ele>1280</ele>
        <time>2010-07-04T07:54:14Z</time>
      </trkpt>
      <trkpt lat="45.02235" lon="5.83828">
        <ele>1280</ele>
        <time>2010-07-04T07:54:15Z</time>
      </trkpt>
      <trkpt lat="45.02233" lon="5.83828">
        <ele>1281</ele>
        <time>2010-07-04T07:54:16Z</time>
      </trkpt>
      <trkpt lat="45.0223" lon="5.83827">
        <ele>1281</ele>
        <time>2010-07-04T07:54:17Z</time>
      </trkpt>
      <trkpt lat="45.02227" lon="5.83827">
        <ele>1282</ele>
        <time>2010-07-04T07:54:18Z</time>
      </trkpt>
      <trkpt lat="45.02224" lon="5.83829">
        <ele>1283</ele>
        <time>2010-07-04T07:54:19Z</time>
      </trkpt>
      <trkpt lat="45.02223" lon="5.83828">
        <ele>1284</ele>
        <time>2010-07-04T07:54:20Z</time>
      </trkpt>
      <trkpt lat="45.02221" lon="5.83827">
        <ele>1285</ele>
        <time>2010-07-04T07:54:21Z</time>
      </trkpt>
      <trkpt lat="45.02219" lon="5.83824">
        <ele>1286</ele>
        <time>2010-07-04T07:54:22Z</time>
      </trkpt>
      <trkpt lat="45.02217" lon="5.83821">
        <ele>1287</ele>
        <time>2010-07-04T07:54:23Z</time>
      </trkpt>
      <trkpt lat="45.02214" lon="5.8382">
        <ele>1288</ele>
        <time>2010-07-04T07:54:24Z</time>
      </trkpt>
      <trkpt lat="45.02211" lon="5.83819">
        <ele>1289</ele>
        <time>2010-07-04T07:54:25Z</time>
      </trkpt>
      <trkpt lat="45.02208" lon="5.83818">
        <ele>1290</ele>
        <time>2010-07-04T07:54:26Z</time>
      </trkpt>
      <trkpt lat="45.02206" lon="5.83818">
        <ele>1291</ele>
        <time>2010-07-04T07:54:27Z</time>
      </trkpt>
      <trkpt lat="45.02204" lon="5.83817">
        <ele>1292</ele>
        <time>2010-07-04T07:54:28Z</time>
      </trkpt>
      <trkpt lat="45.02201" lon="5.83818">
        <ele>1293</ele>
        <time>2010-07-04T07:54:29Z</time>
      </trkpt>
      <trkpt lat="45.02198" lon="5.83818">
        <ele>1294</ele>
        <time>2010-07-04T07:54:30Z</time>
      </trkpt>
      <trkpt lat="45.02194" lon="5.83818">
        <ele>1295</ele>
        <time>2010-07-04T07:54:31Z</time>
      </trkpt>
      <trkpt lat="45.02191" lon="5.83819">
        <ele>1295</ele>
        <time>2010-07-04T07:54:32Z</time>
      </trkpt>
      <trkpt lat="45.02189" lon="5.83819">
        <ele>1295</ele>
        <time>2010-07-04T07:54:33Z</time>
      </trkpt>
      <trkpt lat="45.02186" lon="5.83817">
        <ele>1295</ele>
        <time>2010-07-04T07:54:34Z</time>
      </trkpt>
      <trkpt lat="45.02183" lon="5.83815">
        <ele>1295</ele>
        <time>2010-07-04T07:54:35Z</time>
      </trkpt>
      <trkpt lat="45.02181" lon="5.83812">
        <ele>1295</ele>
        <time>2010-07-04T07:54:36Z</time>
      </trkpt>
      <trkpt lat="45.02179" lon="5.8381">
        <ele>1295</ele>
        <time>2010-07-04T07:54:37Z</time>
      </trkpt>
      <trkpt lat="45.02176" lon="5.83809">
        <ele>1295</ele>
        <time>2010-07-04T07:54:38Z</time>
      </trkpt>
      <trkpt lat="45.02173" lon="5.83809">
        <ele>1295</ele>
        <time>2010-07-04T07:54:39Z</time>
      </trkpt>
      <trkpt lat="45.0217" lon="5.83808">
        <ele>1294</ele>
        <time>2010-07-04T07:54:40Z</time>
      </trkpt>
      <trkpt lat="45.02167" lon="5.83807">
        <ele>1293</ele>
        <time>2010-07-04T07:54:41Z</time>
      </trkpt>
      <trkpt lat="45.02166" lon="5.83805">
        <ele>1292</ele>
        <time>2010-07-04T07:54:42Z</time>
      </trkpt>
      <trkpt lat="45.02163" lon="5.83804">
        <ele>1291</ele>
        <time>2010-07-04T07:54:43Z</time>
      </trkpt>
      <trkpt lat="45.02161" lon="5.83803">
        <ele>1290</ele>
        <time>2010-07-04T07:54:44Z</time>
      </trkpt>
      <trkpt lat="45.02158" lon="5.83802">
        <ele>1289</ele>
        <time>2010-07-04T07:54:45Z</time>
      </trkpt>
      <trkpt lat="45.02155" lon="5.83802">
        <ele>1288</ele>
        <time>2010-07-04T07:54:46Z</time>
      </trkpt>
      <trkpt lat="45.02153" lon="5.83801">
        <ele>1287</ele>
        <time>2010-07-04T07:54:47Z</time>
      </trkpt>
      <trkpt lat="45.02149" lon="5.838">
        <ele>1286</ele>
        <time>2010-07-04T07:54:48Z</time>
      </trkpt>
      <trkpt lat="45.02146" lon="5.83797">
        <ele>1285</ele>
        <time>2010-07-04T07:54:49Z</time>
      </trkpt>
      <trkpt lat="45.02143" lon="5.83797">
        <ele>1284</ele>
        <time>2010-07-04T07:54:50Z</time>
      </trkpt>
      <trkpt lat="45.02139" lon="5.83796">
        <ele>1283</ele>
        <time>2010-07-04T07:54:51Z</time>
      </trkpt>
      <trkpt lat="45.02136" lon="5.83794">
        <ele>1282</ele>
        <time>2010-07-04T07:54:52Z</time>
      </trkpt>
      <trkpt lat="45.02134" lon="5.8379">
        <ele>1282</ele>
        <time>2010-07-04T07:54:53Z</time>
      </trkpt>
      <trkpt lat="45.02132" lon="5.83787">
        <ele>1282</ele>
        <time>2010-07-04T07:54:54Z</time>
      </trkpt>
      <trkpt lat="45.0213" lon="5.83783">
        <ele>1282</ele>
        <time>2010-07-04T07:54:55Z</time>
      </trkpt>
      <trkpt lat="45.02128" lon="5.83778">
        <ele>1282</ele>
        <time>2010-07-04T07:54:56Z</time>
      </trkpt>
      <trkpt lat="45.02125" lon="5.83775">
        <ele>1282</ele>
        <time>2010-07-04T07:54:57Z</time>
      </trkpt>
      <trkpt lat="45.02123" lon="5.83772">
        <ele>1282</ele>
        <time>2010-07-04T07:54:58Z</time>
      </trkpt>
      <trkpt lat="45.02121" lon="5.83769">
        <ele>1282</ele>
        <time>2010-07-04T07:54:59Z</time>
      </trkpt>
      <trkpt lat="45.02119" lon="5.83765">
        <ele>1282</ele>
        <time>2010-07-04T07:55:00Z</time>
      </trkpt>
      <trkpt lat="45.02117" lon="5.83762">
        <ele>1282</ele>
        <time>2010-07-04T07:55:01Z</time>
      </trkpt>
      <trkpt lat="45.02114" lon="5.83759">
        <ele>1282</ele>
        <time>2010-07-04T07:55:02Z</time>
      </trkpt>
      <trkpt lat="45.02111" lon="5.83758">
        <ele>1282</ele>
        <time>2010-07-04T07:55:03Z</time>
      </trkpt>
      <trkpt lat="45.02109" lon="5.83758">
        <ele>1282</ele>
        <time>2010-07-04T07:55:04Z</time>
      </trkpt>
      <trkpt lat="45.02108" lon="5.83757">
        <ele>1282</ele>
        <time>2010-07-04T07:55:05Z</time>
      </trkpt>
      <trkpt lat="45.02105" lon="5.83758">
        <ele>1282</ele>
        <time>2010-07-04T07:55:06Z</time>
      </trkpt>
      <trkpt lat="45.02103" lon="5.83757">
        <ele>1282</ele>
        <time>2010-07-04T07:55:07Z</time>
      </trkpt>
      <trkpt lat="45.02101" lon="5.83757">
        <ele>1282</ele>
        <time>2010-07-04T07:55:08Z</time>
      </trkpt>
      <trkpt lat="45.02099" lon="5.83756">
        <ele>1282</ele>
        <time>2010-07-04T07:55:09Z</time>
      </trkpt>
      <trkpt lat="45.02096" lon="5.83755">
        <ele>1282</ele>
        <time>2010-07-04T07:55:10Z</time>
      </trkpt>
      <trkpt lat="45.02093" lon="5.83755">
        <ele>1282</ele>
        <time>2010-07-04T07:55:11Z</time>
      </trkpt>
      <trkpt lat="45.0209" lon="5.83753">
        <ele>1282</ele>
        <time>2010-07-04T07:55:12Z</time>
      </trkpt>
      <trkpt lat="45.02087" lon="5.83751">
        <ele>1282</ele>
        <time>2010-07-04T07:55:13Z</time>
      </trkpt>
      <trkpt lat="45.02085" lon="5.83747">
        <ele>1282</ele>
        <time>2010-07-04T07:55:14Z</time>
      </trkpt>
      <trkpt lat="45.02084" lon="5.83743">
        <ele>1282</ele>
        <time>2010-07-04T07:55:15Z</time>
      </trkpt>
      <trkpt lat="45.02083" lon="5.83739">
        <ele>1282</ele>
        <time>2010-07-04T07:55:16Z</time>
      </trkpt>
      <trkpt lat="45.02081" lon="5.83737">
        <ele>1282</ele>
        <time>2010-07-04T07:55:17Z</time>
      </trkpt>
      <trkpt lat="45.02079" lon="5.83735">
        <ele>1282</ele>
        <time>2010-07-04T07:55:18Z</time>
      </trkpt>
      <trkpt lat="45.02078" lon="5.83732">
        <ele>1283</ele>
        <time>2010-07-04T07:55:19Z</time>
      </trkpt>
      <trkpt lat="45.02076" lon="5.83731">
        <ele>1284</ele>
        <time>2010-07-04T07:55:20Z</time>
      </trkpt>
      <trkpt lat="45.02075" lon="5.83728">
        <ele>1285</ele>
        <time>2010-07-04T07:55:21Z</time>
      </trkpt>
      <trkpt lat="45.02073" lon="5.83726">
        <ele>1285</ele>
        <time>2010-07-04T07:55:22Z</time>
      </trkpt>
      <trkpt lat="45.02072" lon="5.83725">
        <ele>1286</ele>
        <time>2010-07-04T07:55:23Z</time>
      </trkpt>
      <trkpt lat="45.02071" lon="5.83723">
        <ele>1286</ele>
        <time>2010-07-04T07:55:24Z</time>
      </trkpt>
      <trkpt lat="45.02069" lon="5.83722">
        <ele>1287</ele>
        <time>2010-07-04T07:55:26Z</time>
      </trkpt>
      <trkpt lat="45.02067" lon="5.83722">
        <ele>1287</ele>
        <time>2010-07-04T07:55:28Z</time>
      </trkpt>
      <trkpt lat="45.02066" lon="5.83722">
        <ele>1287</ele>
        <time>2010-07-04T07:55:30Z</time>
      </trkpt>
      <trkpt lat="45.02064" lon="5.83722">
        <ele>1287</ele>
        <time>2010-07-04T07:55:31Z</time>
      </trkpt>
      <trkpt lat="45.02062" lon="5.83723">
        <ele>1287</ele>
        <time>2010-07-04T07:55:32Z</time>
      </trkpt>
      <trkpt lat="45.02061" lon="5.83723">
        <ele>1287</ele>
        <time>2010-07-04T07:55:33Z</time>
      </trkpt>
      <trkpt lat="45.02059" lon="5.83723">
        <ele>1287</ele>
        <time>2010-07-04T07:55:35Z</time>
      </trkpt>
      <trkpt lat="45.02057" lon="5.83723">
        <ele>1287</ele>
        <time>2010-07-04T07:55:36Z</time>
      </trkpt>
      <trkpt lat="45.02055" lon="5.83722">
        <ele>1287</ele>
        <time>2010-07-04T07:55:37Z</time>
      </trkpt>
      <trkpt lat="45.02054" lon="5.83722">
        <ele>1287</ele>
        <time>2010-07-04T07:55:38Z</time>
      </trkpt>
      <trkpt lat="45.02053" lon="5.83723">
        <ele>1287</ele>
        <time>2010-07-04T07:55:39Z</time>
      </trkpt>
      <trkpt lat="45.02051" lon="5.83723">
        <ele>1287</ele>
        <time>2010-07-04T07:55:40Z</time>
      </trkpt>
      <trkpt lat="45.0205" lon="5.83723">
        <ele>1287</ele>
        <time>2010-07-04T07:55:41Z</time>
      </trkpt>
      <trkpt lat="45.02049" lon="5.83722">
        <ele>1287</ele>
        <time>2010-07-04T07:55:43Z</time>
      </trkpt>
      <trkpt lat="45.02047" lon="5.83721">
        <ele>1287</ele>
        <time>2010-07-04T07:55:44Z</time>
      </trkpt>
      <trkpt lat="45.02045" lon="5.8372">
        <ele>1287</ele>
        <time>2010-07-04T07:55:46Z</time>
      </trkpt>
      <trkpt lat="45.02044" lon="5.83719">
        <ele>1287</ele>
        <time>2010-07-04T07:55:48Z</time>
      </trkpt>
      <trkpt lat="45.02043" lon="5.83718">
        <ele>1287</ele>
        <time>2010-07-04T07:55:49Z</time>
      </trkpt>
      <trkpt lat="45.02041" lon="5.83717">
        <ele>1287</ele>
        <time>2010-07-04T07:55:50Z</time>
      </trkpt>
      <trkpt lat="45.02041" lon="5.83715">
        <ele>1287</ele>
        <time>2010-07-04T07:55:51Z</time>
      </trkpt>
      <trkpt lat="45.02039" lon="5.83715">
        <ele>1287</ele>
        <time>2010-07-04T07:55:53Z</time>
      </trkpt>
      <trkpt lat="45.02037" lon="5.83712">
        <ele>1285</ele>
        <time>2010-07-04T07:55:55Z</time>
      </trkpt>
      <trkpt lat="45.02036" lon="5.8371">
        <ele>1285</ele>
        <time>2010-07-04T07:55:56Z</time>
      </trkpt>
      <trkpt lat="45.02035" lon="5.83708">
        <ele>1285</ele>
        <time>2010-07-04T07:55:57Z</time>
      </trkpt>
      <trkpt lat="45.02034" lon="5.83706">
        <ele>1285</ele>
        <time>2010-07-04T07:55:58Z</time>
      </trkpt>
      <trkpt lat="45.02033" lon="5.83704">
        <ele>1285</ele>
        <time>2010-07-04T07:55:59Z</time>
      </trkpt>
      <trkpt lat="45.02031" lon="5.83703">
        <ele>1287</ele>
        <time>2010-07-04T07:56:01Z</time>
      </trkpt>
      <trkpt lat="45.0203" lon="5.83704">
        <ele>1287</ele>
        <time>2010-07-04T07:56:02Z</time>
      </trkpt>
      <trkpt lat="45.02028" lon="5.83704">
        <ele>1288</ele>
        <time>2010-07-04T07:56:04Z</time>
      </trkpt>
      <trkpt lat="45.02027" lon="5.83702">
        <ele>1289</ele>
        <time>2010-07-04T07:56:05Z</time>
      </trkpt>
      <trkpt lat="45.02025" lon="5.83701">
        <ele>1291</ele>
        <time>2010-07-04T07:56:07Z</time>
      </trkpt>
      <trkpt lat="45.02023" lon="5.837">
        <ele>1292</ele>
        <time>2010-07-04T07:56:08Z</time>
      </trkpt>
      <trkpt lat="45.02022" lon="5.837">
        <ele>1294</ele>
        <time>2010-07-04T07:56:10Z</time>
      </trkpt>
      <trkpt lat="45.0202" lon="5.83699">
        <ele>1296</ele>
        <time>2010-07-04T07:56:12Z</time>
      </trkpt>
      <trkpt lat="45.02018" lon="5.83699">
        <ele>1297</ele>
        <time>2010-07-04T07:56:13Z</time>
      </trkpt>
      <trkpt lat="45.02017" lon="5.837">
        <ele>1298</ele>
        <time>2010-07-04T07:56:14Z</time>
      </trkpt>
      <trkpt lat="45.02015" lon="5.837">
        <ele>1299</ele>
        <time>2010-07-04T07:56:15Z</time>
      </trkpt>
      <trkpt lat="45.02014" lon="5.83703">
        <ele>1300</ele>
        <time>2010-07-04T07:56:19Z</time>
      </trkpt>
      <trkpt lat="45.02013" lon="5.83706">
        <ele>1300</ele>
        <time>2010-07-04T07:56:20Z</time>
      </trkpt>
      <trkpt lat="45.02012" lon="5.83709">
        <ele>1300</ele>
        <time>2010-07-04T07:56:21Z</time>
      </trkpt>
      <trkpt lat="45.02011" lon="5.83712">
        <ele>1300</ele>
        <time>2010-07-04T07:56:22Z</time>
      </trkpt>
      <trkpt lat="45.02011" lon="5.83715">
        <ele>1300</ele>
        <time>2010-07-04T07:56:23Z</time>
      </trkpt>
      <trkpt lat="45.02011" lon="5.83717">
        <ele>1300</ele>
        <time>2010-07-04T07:56:24Z</time>
      </trkpt>
      <trkpt lat="45.02009" lon="5.8372">
        <ele>1300</ele>
        <time>2010-07-04T07:56:25Z</time>
      </trkpt>
      <trkpt lat="45.02006" lon="5.83722">
        <ele>1300</ele>
        <time>2010-07-04T07:56:27Z</time>
      </trkpt>
      <trkpt lat="45.02003" lon="5.83721">
        <ele>1300</ele>
        <time>2010-07-04T07:56:28Z</time>
      </trkpt>
      <trkpt lat="45.02001" lon="5.8372">
        <ele>1300</ele>
        <time>2010-07-04T07:56:29Z</time>
      </trkpt>
      <trkpt lat="45.01999" lon="5.83719">
        <ele>1300</ele>
        <time>2010-07-04T07:56:30Z</time>
      </trkpt>
      <trkpt lat="45.01997" lon="5.83717">
        <ele>1301</ele>
        <time>2010-07-04T07:56:31Z</time>
      </trkpt>
      <trkpt lat="45.01995" lon="5.83715">
        <ele>1302</ele>
        <time>2010-07-04T07:56:32Z</time>
      </trkpt>
      <trkpt lat="45.01995" lon="5.83713">
        <ele>1302</ele>
        <time>2010-07-04T07:56:33Z</time>
      </trkpt>
      <trkpt lat="45.01993" lon="5.83711">
        <ele>1302</ele>
        <time>2010-07-04T07:56:34Z</time>
      </trkpt>
      <trkpt lat="45.01992" lon="5.8371">
        <ele>1302</ele>
        <time>2010-07-04T07:56:35Z</time>
      </trkpt>
      <trkpt lat="45.01991" lon="5.83708">
        <ele>1302</ele>
        <time>2010-07-04T07:56:36Z</time>
      </trkpt>
      <trkpt lat="45.0199" lon="5.83706">
        <ele>1302</ele>
        <time>2010-07-04T07:56:37Z</time>
      </trkpt>
      <trkpt lat="45.01988" lon="5.83705">
        <ele>1302</ele>
        <time>2010-07-04T07:56:38Z</time>
      </trkpt>
      <trkpt lat="45.01987" lon="5.83703">
        <ele>1302</ele>
        <time>2010-07-04T07:56:39Z</time>
      </trkpt>
      <trkpt lat="45.01986" lon="5.83702">
        <ele>1302</ele>
        <time>2010-07-04T07:56:40Z</time>
      </trkpt>
      <trkpt lat="45.01984" lon="5.837">
        <ele>1302</ele>
        <time>2010-07-04T07:56:41Z</time>
      </trkpt>
      <trkpt lat="45.01983" lon="5.83698">
        <ele>1302</ele>
        <time>2010-07-04T07:56:42Z</time>
      </trkpt>
      <trkpt lat="45.01981" lon="5.83697">
        <ele>1302</ele>
        <time>2010-07-04T07:56:43Z</time>
      </trkpt>
      <trkpt lat="45.0198" lon="5.83696">
        <ele>1302</ele>
        <time>2010-07-04T07:56:44Z</time>
      </trkpt>
      <trkpt lat="45.01978" lon="5.83695">
        <ele>1301</ele>
        <time>2010-07-04T07:56:45Z</time>
      </trkpt>
      <trkpt lat="45.01976" lon="5.83694">
        <ele>1301</ele>
        <time>2010-07-04T07:56:46Z</time>
      </trkpt>
      <trkpt lat="45.01974" lon="5.83693">
        <ele>1301</ele>
        <time>2010-07-04T07:56:47Z</time>
      </trkpt>
      <trkpt lat="45.01972" lon="5.83693">
        <ele>1300</ele>
        <time>2010-07-04T07:56:48Z</time>
      </trkpt>
      <trkpt lat="45.0197" lon="5.83693">
        <ele>1300</ele>
        <time>2010-07-04T07:56:49Z</time>
      </trkpt>
      <trkpt lat="45.01969" lon="5.83694">
        <ele>1300</ele>
        <time>2010-07-04T07:56:50Z</time>
      </trkpt>
      <trkpt lat="45.01968" lon="5.83696">
        <ele>1300</ele>
        <time>2010-07-04T07:56:51Z</time>
      </trkpt>
      <trkpt lat="45.01968" lon="5.83698">
        <ele>1300</ele>
        <time>2010-07-04T07:56:52Z</time>
      </trkpt>
      <trkpt lat="45.01967" lon="5.83702">
        <ele>1300</ele>
        <time>2010-07-04T07:56:53Z</time>
      </trkpt>
      <trkpt lat="45.01967" lon="5.83704">
        <ele>1300</ele>
        <time>2010-07-04T07:56:54Z</time>
      </trkpt>
      <trkpt lat="45.01967" lon="5.83707">
        <ele>1300</ele>
        <time>2010-07-04T07:56:55Z</time>
      </trkpt>
      <trkpt lat="45.01967" lon="5.8371">
        <ele>1300</ele>
        <time>2010-07-04T07:56:56Z</time>
      </trkpt>
      <trkpt lat="45.01968" lon="5.83714">
        <ele>1300</ele>
        <time>2010-07-04T07:56:57Z</time>
      </trkpt>
      <trkpt lat="45.01968" lon="5.83717">
        <ele>1300</ele>
        <time>2010-07-04T07:56:58Z</time>
      </trkpt>
      <trkpt lat="45.01968" lon="5.83721">
        <ele>1299</ele>
        <time>2010-07-04T07:56:59Z</time>
      </trkpt>
      <trkpt lat="45.01968" lon="5.83724">
        <ele>1299</ele>
        <time>2010-07-04T07:57:00Z</time>
      </trkpt>
      <trkpt lat="45.01968" lon="5.83728">
        <ele>1298</ele>
        <time>2010-07-04T07:57:01Z</time>
      </trkpt>
      <trkpt lat="45.01971" lon="5.83732">
        <ele>1298</ele>
        <time>2010-07-04T07:57:02Z</time>
      </trkpt>
      <trkpt lat="45.01971" lon="5.83736">
        <ele>1298</ele>
        <time>2010-07-04T07:57:03Z</time>
      </trkpt>
      <trkpt lat="45.01971" lon="5.8374">
        <ele>1298</ele>
        <time>2010-07-04T07:57:05Z</time>
      </trkpt>
      <trkpt lat="45.0197" lon="5.83743">
        <ele>1298</ele>
        <time>2010-07-04T07:57:05Z</time>
      </trkpt>
      <trkpt lat="45.01969" lon="5.83747">
        <ele>1298</ele>
        <time>2010-07-04T07:57:06Z</time>
      </trkpt>
      <trkpt lat="45.01968" lon="5.8375">
        <ele>1298</ele>
        <time>2010-07-04T07:57:07Z</time>
      </trkpt>
      <trkpt lat="45.01969" lon="5.83753">
        <ele>1299</ele>
        <time>2010-07-04T07:57:08Z</time>
      </trkpt>
      <trkpt lat="45.0197" lon="5.83758">
        <ele>1299</ele>
        <time>2010-07-04T07:57:09Z</time>
      </trkpt>
      <trkpt lat="45.01972" lon="5.83763">
        <ele>1299</ele>
        <time>2010-07-04T07:57:10Z</time>
      </trkpt>
      <trkpt lat="45.01973" lon="5.83767">
        <ele>1299</ele>
        <time>2010-07-04T07:57:11Z</time>
      </trkpt>
      <trkpt lat="45.01974" lon="5.83771">
        <ele>1299</ele>
        <time>2010-07-04T07:57:12Z</time>
      </trkpt>
      <trkpt lat="45.01975" lon="5.83775">
        <ele>1299</ele>
        <time>2010-07-04T07:57:13Z</time>
      </trkpt>
      <trkpt lat="45.01976" lon="5.83778">
        <ele>1299</ele>
        <time>2010-07-04T07:57:14Z</time>
      </trkpt>
      <trkpt lat="45.01975" lon="5.83779">
        <ele>1299</ele>
        <time>2010-07-04T07:57:15Z</time>
      </trkpt>
      <trkpt lat="45.01975" lon="5.83781">
        <ele>1300</ele>
        <time>2010-07-04T07:57:16Z</time>
      </trkpt>
      <trkpt lat="45.01977" lon="5.83783">
        <ele>1302</ele>
        <time>2010-07-04T07:57:18Z</time>
      </trkpt>
      <trkpt lat="45.01979" lon="5.83785">
        <ele>1304</ele>
        <time>2010-07-04T07:57:20Z</time>
      </trkpt>
      <trkpt lat="45.01981" lon="5.83787">
        <ele>1305</ele>
        <time>2010-07-04T07:57:21Z</time>
      </trkpt>
      <trkpt lat="45.01983" lon="5.83788">
        <ele>1306</ele>
        <time>2010-07-04T07:57:22Z</time>
      </trkpt>
      <trkpt lat="45.01984" lon="5.83791">
        <ele>1308</ele>
        <time>2010-07-04T07:57:24Z</time>
      </trkpt>
      <trkpt lat="45.01985" lon="5.83792">
        <ele>1309</ele>
        <time>2010-07-04T07:57:25Z</time>
      </trkpt>
      <trkpt lat="45.01987" lon="5.83794">
        <ele>1310</ele>
        <time>2010-07-04T07:57:26Z</time>
      </trkpt>
      <trkpt lat="45.01988" lon="5.83796">
        <ele>1310</ele>
        <time>2010-07-04T07:57:27Z</time>
      </trkpt>
      <trkpt lat="45.0199" lon="5.83798">
        <ele>1310</ele>
        <time>2010-07-04T07:57:28Z</time>
      </trkpt>
      <trkpt lat="45.01992" lon="5.83799">
        <ele>1310</ele>
        <time>2010-07-04T07:57:29Z</time>
      </trkpt>
      <trkpt lat="45.01994" lon="5.838">
        <ele>1310</ele>
        <time>2010-07-04T07:57:31Z</time>
      </trkpt>
      <trkpt lat="45.01996" lon="5.838">
        <ele>1311</ele>
        <time>2010-07-04T07:57:33Z</time>
      </trkpt>
      <trkpt lat="45.01998" lon="5.83802">
        <ele>1311</ele>
        <time>2010-07-04T07:57:35Z</time>
      </trkpt>
      <trkpt lat="45.01999" lon="5.83803">
        <ele>1311</ele>
        <time>2010-07-04T07:57:37Z</time>
      </trkpt>
      <trkpt lat="45.02001" lon="5.83803">
        <ele>1311</ele>
        <time>2010-07-04T07:57:39Z</time>
      </trkpt>
      <trkpt lat="45.02003" lon="5.83806">
        <ele>1311</ele>
        <time>2010-07-04T07:57:41Z</time>
      </trkpt>
      <trkpt lat="45.02004" lon="5.83806">
        <ele>1311</ele>
        <time>2010-07-04T07:57:42Z</time>
      </trkpt>
      <trkpt lat="45.02006" lon="5.83808">
        <ele>1311</ele>
        <time>2010-07-04T07:57:44Z</time>
      </trkpt>
      <trkpt lat="45.02008" lon="5.83811">
        <ele>1311</ele>
        <time>2010-07-04T07:57:46Z</time>
      </trkpt>
      <trkpt lat="45.02009" lon="5.83813">
        <ele>1310</ele>
        <time>2010-07-04T07:57:48Z</time>
      </trkpt>
      <trkpt lat="45.0201" lon="5.83816">
        <ele>1309</ele>
        <time>2010-07-04T07:57:49Z</time>
      </trkpt>
      <trkpt lat="45.0201" lon="5.83818">
        <ele>1309</ele>
        <time>2010-07-04T07:57:50Z</time>
      </trkpt>
      <trkpt lat="45.02011" lon="5.83821">
        <ele>1308</ele>
        <time>2010-07-04T07:57:51Z</time>
      </trkpt>
      <trkpt lat="45.02011" lon="5.83824">
        <ele>1308</ele>
        <time>2010-07-04T07:57:52Z</time>
      </trkpt>
      <trkpt lat="45.02011" lon="5.83826">
        <ele>1308</ele>
        <time>2010-07-04T07:57:53Z</time>
      </trkpt>
      <trkpt lat="45.02012" lon="5.83828">
        <ele>1308</ele>
        <time>2010-07-04T07:57:54Z</time>
      </trkpt>
      <trkpt lat="45.02012" lon="5.83831">
        <ele>1308</ele>
        <time>2010-07-04T07:57:55Z</time>
      </trkpt>
      <trkpt lat="45.02013" lon="5.83834">
        <ele>1308</ele>
        <time>2010-07-04T07:57:56Z</time>
      </trkpt>
      <trkpt lat="45.02014" lon="5.83837">
        <ele>1308</ele>
        <time>2010-07-04T07:57:57Z</time>
      </trkpt>
      <trkpt lat="45.02015" lon="5.83839">
        <ele>1308</ele>
        <time>2010-07-04T07:57:58Z</time>
      </trkpt>
      <trkpt lat="45.02015" lon="5.83842">
        <ele>1308</ele>
        <time>2010-07-04T07:57:59Z</time>
      </trkpt>
      <trkpt lat="45.02015" lon="5.83845">
        <ele>1308</ele>
        <time>2010-07-04T07:58:00Z</time>
      </trkpt>
      <trkpt lat="45.02014" lon="5.83847">
        <ele>1308</ele>
        <time>2010-07-04T07:58:01Z</time>
      </trkpt>
      <trkpt lat="45.02015" lon="5.83849">
        <ele>1309</ele>
        <time>2010-07-04T07:58:02Z</time>
      </trkpt>
      <trkpt lat="45.02016" lon="5.83851">
        <ele>1310</ele>
        <time>2010-07-04T07:58:03Z</time>
      </trkpt>
      <trkpt lat="45.02017" lon="5.83853">
        <ele>1311</ele>
        <time>2010-07-04T07:58:04Z</time>
      </trkpt>
      <trkpt lat="45.02018" lon="5.83854">
        <ele>1312</ele>
        <time>2010-07-04T07:58:05Z</time>
      </trkpt>
      <trkpt lat="45.0202" lon="5.83856">
        <ele>1313</ele>
        <time>2010-07-04T07:58:06Z</time>
      </trkpt>
      <trkpt lat="45.02023" lon="5.83856">
        <ele>1316</ele>
        <time>2010-07-04T07:58:08Z</time>
      </trkpt>
      <trkpt lat="45.02024" lon="5.83856">
        <ele>1318</ele>
        <time>2010-07-04T07:58:09Z</time>
      </trkpt>
      <trkpt lat="45.02027" lon="5.83856">
        <ele>1320</ele>
        <time>2010-07-04T07:58:10Z</time>
      </trkpt>
      <trkpt lat="45.02029" lon="5.83856">
        <ele>1322</ele>
        <time>2010-07-04T07:58:11Z</time>
      </trkpt>
      <trkpt lat="45.02032" lon="5.83857">
        <ele>1324</ele>
        <time>2010-07-04T07:58:12Z</time>
      </trkpt>
      <trkpt lat="45.02035" lon="5.83858">
        <ele>1326</ele>
        <time>2010-07-04T07:58:13Z</time>
      </trkpt>
      <trkpt lat="45.02037" lon="5.83857">
        <ele>1328</ele>
        <time>2010-07-04T07:58:14Z</time>
      </trkpt>
      <trkpt lat="45.02039" lon="5.83858">
        <ele>1330</ele>
        <time>2010-07-04T07:58:15Z</time>
      </trkpt>
      <trkpt lat="45.02041" lon="5.83859">
        <ele>1331</ele>
        <time>2010-07-04T07:58:16Z</time>
      </trkpt>
      <trkpt lat="45.02043" lon="5.8386">
        <ele>1332</ele>
        <time>2010-07-04T07:58:17Z</time>
      </trkpt>
      <trkpt lat="45.02045" lon="5.83861">
        <ele>1333</ele>
        <time>2010-07-04T07:58:18Z</time>
      </trkpt>
      <trkpt lat="45.02047" lon="5.83863">
        <ele>1334</ele>
        <time>2010-07-04T07:58:19Z</time>
      </trkpt>
      <trkpt lat="45.0205" lon="5.83865">
        <ele>1335</ele>
        <time>2010-07-04T07:58:20Z</time>
      </trkpt>
      <trkpt lat="45.02052" lon="5.83866">
        <ele>1336</ele>
        <time>2010-07-04T07:58:21Z</time>
      </trkpt>
      <trkpt lat="45.02053" lon="5.83868">
        <ele>1337</ele>
        <time>2010-07-04T07:58:22Z</time>
      </trkpt>
      <trkpt lat="45.02055" lon="5.83869">
        <ele>1338</ele>
        <time>2010-07-04T07:58:23Z</time>
      </trkpt>
      <trkpt lat="45.02057" lon="5.8387">
        <ele>1339</ele>
        <time>2010-07-04T07:58:24Z</time>
      </trkpt>
      <trkpt lat="45.02058" lon="5.83872">
        <ele>1340</ele>
        <time>2010-07-04T07:58:25Z</time>
      </trkpt>
      <trkpt lat="45.02061" lon="5.83874">
        <ele>1341</ele>
        <time>2010-07-04T07:58:26Z</time>
      </trkpt>
      <trkpt lat="45.02063" lon="5.83876">
        <ele>1341</ele>
        <time>2010-07-04T07:58:27Z</time>
      </trkpt>
      <trkpt lat="45.02064" lon="5.83878">
        <ele>1341</ele>
        <time>2010-07-04T07:58:28Z</time>
      </trkpt>
      <trkpt lat="45.02066" lon="5.83879">
        <ele>1341</ele>
        <time>2010-07-04T07:58:29Z</time>
      </trkpt>
      <trkpt lat="45.02067" lon="5.8388">
        <ele>1341</ele>
        <time>2010-07-04T07:58:30Z</time>
      </trkpt>
      <trkpt lat="45.02068" lon="5.83882">
        <ele>1341</ele>
        <time>2010-07-04T07:58:31Z</time>
      </trkpt>
      <trkpt lat="45.02069" lon="5.83883">
        <ele>1341</ele>
        <time>2010-07-04T07:58:32Z</time>
      </trkpt>
      <trkpt lat="45.0207" lon="5.83885">
        <ele>1341</ele>
        <time>2010-07-04T07:58:34Z</time>
      </trkpt>
      <trkpt lat="45.02072" lon="5.83887">
        <ele>1341</ele>
        <time>2010-07-04T07:58:36Z</time>
      </trkpt>
      <trkpt lat="45.02073" lon="5.83888">
        <ele>1341</ele>
        <time>2010-07-04T07:58:38Z</time>
      </trkpt>
      <trkpt lat="45.02074" lon="5.83891">
        <ele>1340</ele>
        <time>2010-07-04T07:58:40Z</time>
      </trkpt>
      <trkpt lat="45.02075" lon="5.83893">
        <ele>1339</ele>
        <time>2010-07-04T07:58:42Z</time>
      </trkpt>
      <trkpt lat="45.02077" lon="5.83895">
        <ele>1338</ele>
        <time>2010-07-04T07:58:43Z</time>
      </trkpt>
      <trkpt lat="45.02078" lon="5.83897">
        <ele>1337</ele>
        <time>2010-07-04T07:58:44Z</time>
      </trkpt>
      <trkpt lat="45.02079" lon="5.83898">
        <ele>1336</ele>
        <time>2010-07-04T07:58:45Z</time>
      </trkpt>
      <trkpt lat="45.02081" lon="5.83901">
        <ele>1334</ele>
        <time>2010-07-04T07:58:47Z</time>
      </trkpt>
      <trkpt lat="45.02083" lon="5.83903">
        <ele>1334</ele>
        <time>2010-07-04T07:58:48Z</time>
      </trkpt>
      <trkpt lat="45.02083" lon="5.83905">
        <ele>1333</ele>
        <time>2010-07-04T07:58:49Z</time>
      </trkpt>
      <trkpt lat="45.02084" lon="5.83907">
        <ele>1332</ele>
        <time>2010-07-04T07:58:50Z</time>
      </trkpt>
      <trkpt lat="45.02084" lon="5.83909">
        <ele>1332</ele>
        <time>2010-07-04T07:58:51Z</time>
      </trkpt>
      <trkpt lat="45.02086" lon="5.83911">
        <ele>1331</ele>
        <time>2010-07-04T07:58:53Z</time>
      </trkpt>
      <trkpt lat="45.02087" lon="5.83913">
        <ele>1331</ele>
        <time>2010-07-04T07:58:54Z</time>
      </trkpt>
      <trkpt lat="45.02089" lon="5.83914">
        <ele>1330</ele>
        <time>2010-07-04T07:58:55Z</time>
      </trkpt>
      <trkpt lat="45.02089" lon="5.83916">
        <ele>1330</ele>
        <time>2010-07-04T07:58:56Z</time>
      </trkpt>
      <trkpt lat="45.02089" lon="5.83918">
        <ele>1329</ele>
        <time>2010-07-04T07:58:57Z</time>
      </trkpt>
      <trkpt lat="45.0209" lon="5.83921">
        <ele>1329</ele>
        <time>2010-07-04T07:58:59Z</time>
      </trkpt>
      <trkpt lat="45.02091" lon="5.83923">
        <ele>1328</ele>
        <time>2010-07-04T07:59:00Z</time>
      </trkpt>
      <trkpt lat="45.02092" lon="5.83924">
        <ele>1328</ele>
        <time>2010-07-04T07:59:01Z</time>
      </trkpt>
      <trkpt lat="45.02092" lon="5.83926">
        <ele>1328</ele>
        <time>2010-07-04T07:59:02Z</time>
      </trkpt>
      <trkpt lat="45.02093" lon="5.83928">
        <ele>1328</ele>
        <time>2010-07-04T07:59:03Z</time>
      </trkpt>
      <trkpt lat="45.02095" lon="5.83928">
        <ele>1328</ele>
        <time>2010-07-04T07:59:04Z</time>
      </trkpt>
      <trkpt lat="45.02097" lon="5.8393">
        <ele>1328</ele>
        <time>2010-07-04T07:59:05Z</time>
      </trkpt>
      <trkpt lat="45.02098" lon="5.83931">
        <ele>1328</ele>
        <time>2010-07-04T07:59:06Z</time>
      </trkpt>
      <trkpt lat="45.021" lon="5.83933">
        <ele>1328</ele>
        <time>2010-07-04T07:59:07Z</time>
      </trkpt>
      <trkpt lat="45.02101" lon="5.83934">
        <ele>1328</ele>
        <time>2010-07-04T07:59:08Z</time>
      </trkpt>
      <trkpt lat="45.02102" lon="5.83936">
        <ele>1328</ele>
        <time>2010-07-04T07:59:09Z</time>
      </trkpt>
      <trkpt lat="45.02104" lon="5.83938">
        <ele>1328</ele>
        <time>2010-07-04T07:59:10Z</time>
      </trkpt>
      <trkpt lat="45.02106" lon="5.83939">
        <ele>1328</ele>
        <time>2010-07-04T07:59:11Z</time>
      </trkpt>
      <trkpt lat="45.02108" lon="5.83941">
        <ele>1328</ele>
        <time>2010-07-04T07:59:12Z</time>
      </trkpt>
      <trkpt lat="45.0211" lon="5.83944">
        <ele>1328</ele>
        <time>2010-07-04T07:59:13Z</time>
      </trkpt>
      <trkpt lat="45.02112" lon="5.83947">
        <ele>1329</ele>
        <time>2010-07-04T07:59:14Z</time>
      </trkpt>
      <trkpt lat="45.02113" lon="5.8395">
        <ele>1329</ele>
        <time>2010-07-04T07:59:15Z</time>
      </trkpt>
      <trkpt lat="45.02116" lon="5.83952">
        <ele>1329</ele>
        <time>2010-07-04T07:59:16Z</time>
      </trkpt>
      <trkpt lat="45.02118" lon="5.83954">
        <ele>1329</ele>
        <time>2010-07-04T07:59:17Z</time>
      </trkpt>
      <trkpt lat="45.02121" lon="5.83958">
        <ele>1330</ele>
        <time>2010-07-04T07:59:18Z</time>
      </trkpt>
      <trkpt lat="45.02124" lon="5.83962">
        <ele>1330</ele>
        <time>2010-07-04T07:59:19Z</time>
      </trkpt>
      <trkpt lat="45.02127" lon="5.83965">
        <ele>1331</ele>
        <time>2010-07-04T07:59:20Z</time>
      </trkpt>
      <trkpt lat="45.0213" lon="5.83968">
        <ele>1331</ele>
        <time>2010-07-04T07:59:21Z</time>
      </trkpt>
      <trkpt lat="45.02131" lon="5.83971">
        <ele>1332</ele>
        <time>2010-07-04T07:59:22Z</time>
      </trkpt>
      <trkpt lat="45.02132" lon="5.83974">
        <ele>1332</ele>
        <time>2010-07-04T07:59:23Z</time>
      </trkpt>
      <trkpt lat="45.02133" lon="5.83976">
        <ele>1332</ele>
        <time>2010-07-04T07:59:24Z</time>
      </trkpt>
      <trkpt lat="45.02135" lon="5.83978">
        <ele>1332</ele>
        <time>2010-07-04T07:59:25Z</time>
      </trkpt>
      <trkpt lat="45.02137" lon="5.8398">
        <ele>1332</ele>
        <time>2010-07-04T07:59:26Z</time>
      </trkpt>
      <trkpt lat="45.02139" lon="5.83983">
        <ele>1332</ele>
        <time>2010-07-04T07:59:27Z</time>
      </trkpt>
      <trkpt lat="45.02141" lon="5.83986">
        <ele>1333</ele>
        <time>2010-07-04T07:59:28Z</time>
      </trkpt>
      <trkpt lat="45.02143" lon="5.83989">
        <ele>1333</ele>
        <time>2010-07-04T07:59:29Z</time>
      </trkpt>
      <trkpt lat="45.02143" lon="5.83991">
        <ele>1334</ele>
        <time>2010-07-04T07:59:30Z</time>
      </trkpt>
      <trkpt lat="45.02145" lon="5.83992">
        <ele>1334</ele>
        <time>2010-07-04T07:59:31Z</time>
      </trkpt>
      <trkpt lat="45.02145" lon="5.83994">
        <ele>1334</ele>
        <time>2010-07-04T07:59:32Z</time>
      </trkpt>
      <trkpt lat="45.02147" lon="5.83996">
        <ele>1334</ele>
        <time>2010-07-04T07:59:33Z</time>
      </trkpt>
      <trkpt lat="45.02146" lon="5.83998">
        <ele>1334</ele>
        <time>2010-07-04T07:59:34Z</time>
      </trkpt>
      <trkpt lat="45.02149" lon="5.83999">
        <ele>1334</ele>
        <time>2010-07-04T07:59:36Z</time>
      </trkpt>
      <trkpt lat="45.0215" lon="5.84">
        <ele>1334</ele>
        <time>2010-07-04T07:59:37Z</time>
      </trkpt>
      <trkpt lat="45.02152" lon="5.84002">
        <ele>1334</ele>
        <time>2010-07-04T07:59:38Z</time>
      </trkpt>
      <trkpt lat="45.02153" lon="5.84004">
        <ele>1334</ele>
        <time>2010-07-04T07:59:39Z</time>
      </trkpt>
      <trkpt lat="45.02153" lon="5.84006">
        <ele>1334</ele>
        <time>2010-07-04T07:59:40Z</time>
      </trkpt>
      <trkpt lat="45.02152" lon="5.84007">
        <ele>1334</ele>
        <time>2010-07-04T07:59:42Z</time>
      </trkpt>
      <trkpt lat="45.0215" lon="5.84006">
        <ele>1334</ele>
        <time>2010-07-04T07:59:44Z</time>
      </trkpt>
      <trkpt lat="45.02149" lon="5.84006">
        <ele>1334</ele>
        <time>2010-07-04T07:59:45Z</time>
      </trkpt>
      <trkpt lat="45.02147" lon="5.84006">
        <ele>1334</ele>
        <time>2010-07-04T07:59:46Z</time>
      </trkpt>
      <trkpt lat="45.02146" lon="5.84006">
        <ele>1334</ele>
        <time>2010-07-04T07:59:47Z</time>
      </trkpt>
      <trkpt lat="45.02144" lon="5.84006">
        <ele>1334</ele>
        <time>2010-07-04T07:59:48Z</time>
      </trkpt>
      <trkpt lat="45.02142" lon="5.84005">
        <ele>1334</ele>
        <time>2010-07-04T07:59:49Z</time>
      </trkpt>
      <trkpt lat="45.0214" lon="5.84005">
        <ele>1334</ele>
        <time>2010-07-04T07:59:50Z</time>
      </trkpt>
      <trkpt lat="45.02139" lon="5.84005">
        <ele>1334</ele>
        <time>2010-07-04T07:59:51Z</time>
      </trkpt>
      <trkpt lat="45.02137" lon="5.84003">
        <ele>1334</ele>
        <time>2010-07-04T07:59:53Z</time>
      </trkpt>
      <trkpt lat="45.02134" lon="5.84002">
        <ele>1334</ele>
        <time>2010-07-04T07:59:55Z</time>
      </trkpt>
      <trkpt lat="45.02133" lon="5.84001">
        <ele>1335</ele>
        <time>2010-07-04T07:59:56Z</time>
      </trkpt>
      <trkpt lat="45.02131" lon="5.83999">
        <ele>1337</ele>
        <time>2010-07-04T07:59:58Z</time>
      </trkpt>
      <trkpt lat="45.02129" lon="5.83998">
        <ele>1338</ele>
        <time>2010-07-04T07:59:59Z</time>
      </trkpt>
      <trkpt lat="45.02127" lon="5.83997">
        <ele>1340</ele>
        <time>2010-07-04T08:00:01Z</time>
      </trkpt>
      <trkpt lat="45.02126" lon="5.83997">
        <ele>1341</ele>
        <time>2010-07-04T08:00:02Z</time>
      </trkpt>
      <trkpt lat="45.02125" lon="5.83997">
        <ele>1342</ele>
        <time>2010-07-04T08:00:03Z</time>
      </trkpt>
      <trkpt lat="45.02122" lon="5.83995">
        <ele>1344</ele>
        <time>2010-07-04T08:00:05Z</time>
      </trkpt>
      <trkpt lat="45.02121" lon="5.83997">
        <ele>1344</ele>
        <time>2010-07-04T08:00:06Z</time>
      </trkpt>
      <trkpt lat="45.0212" lon="5.83996">
        <ele>1344</ele>
        <time>2010-07-04T08:00:07Z</time>
      </trkpt>
      <trkpt lat="45.02118" lon="5.83997">
        <ele>1344</ele>
        <time>2010-07-04T08:00:08Z</time>
      </trkpt>
      <trkpt lat="45.02116" lon="5.83997">
        <ele>1344</ele>
        <time>2010-07-04T08:00:09Z</time>
      </trkpt>
      <trkpt lat="45.02115" lon="5.83998">
        <ele>1344</ele>
        <time>2010-07-04T08:00:10Z</time>
      </trkpt>
      <trkpt lat="45.02113" lon="5.83998">
        <ele>1344</ele>
        <time>2010-07-04T08:00:11Z</time>
      </trkpt>
      <trkpt lat="45.02112" lon="5.83997">
        <ele>1345</ele>
        <time>2010-07-04T08:00:13Z</time>
      </trkpt>
      <trkpt lat="45.02109" lon="5.83996">
        <ele>1346</ele>
        <time>2010-07-04T08:00:15Z</time>
      </trkpt>
      <trkpt lat="45.02108" lon="5.83997">
        <ele>1347</ele>
        <time>2010-07-04T08:00:16Z</time>
      </trkpt>
      <trkpt lat="45.02106" lon="5.83998">
        <ele>1347</ele>
        <time>2010-07-04T08:00:17Z</time>
      </trkpt>
      <trkpt lat="45.02105" lon="5.83998">
        <ele>1348</ele>
        <time>2010-07-04T08:00:18Z</time>
      </trkpt>
      <trkpt lat="45.02103" lon="5.84">
        <ele>1348</ele>
        <time>2010-07-04T08:00:20Z</time>
      </trkpt>
      <trkpt lat="45.02102" lon="5.83999">
        <ele>1350</ele>
        <time>2010-07-04T08:00:23Z</time>
      </trkpt>
      <trkpt lat="45.021" lon="5.83999">
        <ele>1352</ele>
        <time>2010-07-04T08:00:25Z</time>
      </trkpt>
      <trkpt lat="45.02099" lon="5.83999">
        <ele>1354</ele>
        <time>2010-07-04T08:00:27Z</time>
      </trkpt>
      <trkpt lat="45.02097" lon="5.83998">
        <ele>1356</ele>
        <time>2010-07-04T08:00:29Z</time>
      </trkpt>
      <trkpt lat="45.02096" lon="5.83999">
        <ele>1357</ele>
        <time>2010-07-04T08:00:30Z</time>
      </trkpt>
      <trkpt lat="45.02094" lon="5.84">
        <ele>1358</ele>
        <time>2010-07-04T08:00:31Z</time>
      </trkpt>
      <trkpt lat="45.02092" lon="5.83998">
        <ele>1360</ele>
        <time>2010-07-04T08:00:33Z</time>
      </trkpt>
      <trkpt lat="45.02091" lon="5.83997">
        <ele>1361</ele>
        <time>2010-07-04T08:00:34Z</time>
      </trkpt>
      <trkpt lat="45.0209" lon="5.83998">
        <ele>1362</ele>
        <time>2010-07-04T08:00:35Z</time>
      </trkpt>
      <trkpt lat="45.02088" lon="5.83997">
        <ele>1363</ele>
        <time>2010-07-04T08:00:36Z</time>
      </trkpt>
      <trkpt lat="45.02087" lon="5.83997">
        <ele>1365</ele>
        <time>2010-07-04T08:00:38Z</time>
      </trkpt>
      <trkpt lat="45.02086" lon="5.83998">
        <ele>1366</ele>
        <time>2010-07-04T08:00:39Z</time>
      </trkpt>
      <trkpt lat="45.02084" lon="5.83999">
        <ele>1366</ele>
        <time>2010-07-04T08:00:40Z</time>
      </trkpt>
      <trkpt lat="45.02082" lon="5.84">
        <ele>1366</ele>
        <time>2010-07-04T08:00:42Z</time>
      </trkpt>
      <trkpt lat="45.0208" lon="5.84001">
        <ele>1366</ele>
        <time>2010-07-04T08:00:43Z</time>
      </trkpt>
      <trkpt lat="45.02078" lon="5.84001">
        <ele>1366</ele>
        <time>2010-07-04T08:00:44Z</time>
      </trkpt>
      <trkpt lat="45.02077" lon="5.84002">
        <ele>1366</ele>
        <time>2010-07-04T08:00:45Z</time>
      </trkpt>
      <trkpt lat="45.02075" lon="5.84003">
        <ele>1367</ele>
        <time>2010-07-04T08:00:47Z</time>
      </trkpt>
      <trkpt lat="45.02073" lon="5.84001">
        <ele>1367</ele>
        <time>2010-07-04T08:00:49Z</time>
      </trkpt>
      <trkpt lat="45.02071" lon="5.84001">
        <ele>1367</ele>
        <time>2010-07-04T08:00:50Z</time>
      </trkpt>
      <trkpt lat="45.02069" lon="5.84003">
        <ele>1367</ele>
        <time>2010-07-04T08:00:52Z</time>
      </trkpt>
      <trkpt lat="45.02067" lon="5.84004">
        <ele>1367</ele>
        <time>2010-07-04T08:00:53Z</time>
      </trkpt>
      <trkpt lat="45.02066" lon="5.84004">
        <ele>1367</ele>
        <time>2010-07-04T08:00:54Z</time>
      </trkpt>
      <trkpt lat="45.02064" lon="5.84005">
        <ele>1367</ele>
        <time>2010-07-04T08:00:55Z</time>
      </trkpt>
      <trkpt lat="45.02063" lon="5.84006">
        <ele>1367</ele>
        <time>2010-07-04T08:00:56Z</time>
      </trkpt>
      <trkpt lat="45.02061" lon="5.84008">
        <ele>1367</ele>
        <time>2010-07-04T08:00:57Z</time>
      </trkpt>
      <trkpt lat="45.02059" lon="5.8401">
        <ele>1366</ele>
        <time>2010-07-04T08:00:58Z</time>
      </trkpt>
      <trkpt lat="45.02057" lon="5.84011">
        <ele>1365</ele>
        <time>2010-07-04T08:00:59Z</time>
      </trkpt>
      <trkpt lat="45.02056" lon="5.84011">
        <ele>1365</ele>
        <time>2010-07-04T08:01:00Z</time>
      </trkpt>
      <trkpt lat="45.02054" lon="5.84011">
        <ele>1364</ele>
        <time>2010-07-04T08:01:01Z</time>
      </trkpt>
      <trkpt lat="45.02052" lon="5.84012">
        <ele>1364</ele>
        <time>2010-07-04T08:01:02Z</time>
      </trkpt>
      <trkpt lat="45.0205" lon="5.84013">
        <ele>1364</ele>
        <time>2010-07-04T08:01:03Z</time>
      </trkpt>
      <trkpt lat="45.02049" lon="5.84017">
        <ele>1364</ele>
        <time>2010-07-04T08:01:06Z</time>
      </trkpt>
      <trkpt lat="45.02049" lon="5.84019">
        <ele>1364</ele>
        <time>2010-07-04T08:01:07Z</time>
      </trkpt>
      <trkpt lat="45.0205" lon="5.84021">
        <ele>1364</ele>
        <time>2010-07-04T08:01:08Z</time>
      </trkpt>
      <trkpt lat="45.0205" lon="5.84023">
        <ele>1364</ele>
        <time>2010-07-04T08:01:09Z</time>
      </trkpt>
      <trkpt lat="45.02049" lon="5.84026">
        <ele>1364</ele>
        <time>2010-07-04T08:01:10Z</time>
      </trkpt>
      <trkpt lat="45.02048" lon="5.84028">
        <ele>1364</ele>
        <time>2010-07-04T08:01:11Z</time>
      </trkpt>
      <trkpt lat="45.02048" lon="5.8403">
        <ele>1364</ele>
        <time>2010-07-04T08:01:13Z</time>
      </trkpt>
      <trkpt lat="45.02048" lon="5.84032">
        <ele>1364</ele>
        <time>2010-07-04T08:01:15Z</time>
      </trkpt>
      <trkpt lat="45.02048" lon="5.84034">
        <ele>1364</ele>
        <time>2010-07-04T08:01:17Z</time>
      </trkpt>
      <trkpt lat="45.02049" lon="5.84037">
        <ele>1364</ele>
        <time>2010-07-04T08:01:19Z</time>
      </trkpt>
      <trkpt lat="45.02049" lon="5.84038">
        <ele>1364</ele>
        <time>2010-07-04T08:01:20Z</time>
      </trkpt>
      <trkpt lat="45.0205" lon="5.84041">
        <ele>1364</ele>
        <time>2010-07-04T08:01:22Z</time>
      </trkpt>
      <trkpt lat="45.0205" lon="5.84043">
        <ele>1364</ele>
        <time>2010-07-04T08:01:24Z</time>
      </trkpt>
      <trkpt lat="45.0205" lon="5.84045">
        <ele>1364</ele>
        <time>2010-07-04T08:01:25Z</time>
      </trkpt>
      <trkpt lat="45.02052" lon="5.84047">
        <ele>1364</ele>
        <time>2010-07-04T08:01:27Z</time>
      </trkpt>
      <trkpt lat="45.02053" lon="5.8405">
        <ele>1364</ele>
        <time>2010-07-04T08:01:29Z</time>
      </trkpt>
      <trkpt lat="45.02055" lon="5.84051">
        <ele>1363</ele>
        <time>2010-07-04T08:01:30Z</time>
      </trkpt>
      <trkpt lat="45.02057" lon="5.84054">
        <ele>1363</ele>
        <time>2010-07-04T08:01:32Z</time>
      </trkpt>
      <trkpt lat="45.02057" lon="5.84055">
        <ele>1363</ele>
        <time>2010-07-04T08:01:33Z</time>
      </trkpt>
      <trkpt lat="45.02058" lon="5.84058">
        <ele>1363</ele>
        <time>2010-07-04T08:01:35Z</time>
      </trkpt>
      <trkpt lat="45.02059" lon="5.8406">
        <ele>1363</ele>
        <time>2010-07-04T08:01:37Z</time>
      </trkpt>
      <trkpt lat="45.0206" lon="5.84062">
        <ele>1363</ele>
        <time>2010-07-04T08:01:38Z</time>
      </trkpt>
      <trkpt lat="45.0206" lon="5.84064">
        <ele>1363</ele>
        <time>2010-07-04T08:01:39Z</time>
      </trkpt>
      <trkpt lat="45.02061" lon="5.84066">
        <ele>1363</ele>
        <time>2010-07-04T08:01:40Z</time>
      </trkpt>
      <trkpt lat="45.0206" lon="5.84068">
        <ele>1363</ele>
        <time>2010-07-04T08:01:41Z</time>
      </trkpt>
      <trkpt lat="45.02061" lon="5.8407">
        <ele>1363</ele>
        <time>2010-07-04T08:01:42Z</time>
      </trkpt>
      <trkpt lat="45.02061" lon="5.84071">
        <ele>1363</ele>
        <time>2010-07-04T08:01:43Z</time>
      </trkpt>
      <trkpt lat="45.02061" lon="5.84073">
        <ele>1363</ele>
        <time>2010-07-04T08:01:44Z</time>
      </trkpt>
      <trkpt lat="45.02061" lon="5.84075">
        <ele>1363</ele>
        <time>2010-07-04T08:01:45Z</time>
      </trkpt>
      <trkpt lat="45.02062" lon="5.84077">
        <ele>1364</ele>
        <time>2010-07-04T08:01:47Z</time>
      </trkpt>
      <trkpt lat="45.02062" lon="5.8408">
        <ele>1364</ele>
        <time>2010-07-04T08:01:49Z</time>
      </trkpt>
      <trkpt lat="45.02063" lon="5.84081">
        <ele>1364</ele>
        <time>2010-07-04T08:01:50Z</time>
      </trkpt>
      <trkpt lat="45.02064" lon="5.84083">
        <ele>1364</ele>
        <time>2010-07-04T08:01:52Z</time>
      </trkpt>
      <trkpt lat="45.02064" lon="5.84085">
        <ele>1364</ele>
        <time>2010-07-04T08:01:53Z</time>
      </trkpt>
      <trkpt lat="45.02065" lon="5.84088">
        <ele>1364</ele>
        <time>2010-07-04T08:01:54Z</time>
      </trkpt>
      <trkpt lat="45.02065" lon="5.8409">
        <ele>1365</ele>
        <time>2010-07-04T08:01:55Z</time>
      </trkpt>
      <trkpt lat="45.02065" lon="5.84092">
        <ele>1365</ele>
        <time>2010-07-04T08:01:56Z</time>
      </trkpt>
      <trkpt lat="45.02065" lon="5.84095">
        <ele>1366</ele>
        <time>2010-07-04T08:01:57Z</time>
      </trkpt>
      <trkpt lat="45.02066" lon="5.84098">
        <ele>1366</ele>
        <time>2010-07-04T08:01:58Z</time>
      </trkpt>
      <trkpt lat="45.02067" lon="5.84099">
        <ele>1367</ele>
        <time>2010-07-04T08:01:59Z</time>
      </trkpt>
      <trkpt lat="45.02067" lon="5.84101">
        <ele>1367</ele>
        <time>2010-07-04T08:02:00Z</time>
      </trkpt>
      <trkpt lat="45.02067" lon="5.84104">
        <ele>1367</ele>
        <time>2010-07-04T08:02:01Z</time>
      </trkpt>
      <trkpt lat="45.02068" lon="5.84108">
        <ele>1368</ele>
        <time>2010-07-04T08:02:02Z</time>
      </trkpt>
      <trkpt lat="45.02068" lon="5.84111">
        <ele>1368</ele>
        <time>2010-07-04T08:02:03Z</time>
      </trkpt>
      <trkpt lat="45.02067" lon="5.84115">
        <ele>1369</ele>
        <time>2010-07-04T08:02:04Z</time>
      </trkpt>
      <trkpt lat="45.02068" lon="5.84118">
        <ele>1369</ele>
        <time>2010-07-04T08:02:05Z</time>
      </trkpt>
      <trkpt lat="45.02069" lon="5.84122">
        <ele>1370</ele>
        <time>2010-07-04T08:02:06Z</time>
      </trkpt>
      <trkpt lat="45.02071" lon="5.84124">
        <ele>1370</ele>
        <time>2010-07-04T08:02:07Z</time>
      </trkpt>
      <trkpt lat="45.02072" lon="5.84127">
        <ele>1371</ele>
        <time>2010-07-04T08:02:08Z</time>
      </trkpt>
      <trkpt lat="45.02074" lon="5.8413">
        <ele>1371</ele>
        <time>2010-07-04T08:02:09Z</time>
      </trkpt>
      <trkpt lat="45.02074" lon="5.84132">
        <ele>1372</ele>
        <time>2010-07-04T08:02:10Z</time>
      </trkpt>
      <trkpt lat="45.02074" lon="5.84135">
        <ele>1373</ele>
        <time>2010-07-04T08:02:11Z</time>
      </trkpt>
      <trkpt lat="45.02073" lon="5.84137">
        <ele>1374</ele>
        <time>2010-07-04T08:02:12Z</time>
      </trkpt>
      <trkpt lat="45.02072" lon="5.8414">
        <ele>1374</ele>
        <time>2010-07-04T08:02:13Z</time>
      </trkpt>
      <trkpt lat="45.02071" lon="5.84142">
        <ele>1375</ele>
        <time>2010-07-04T08:02:14Z</time>
      </trkpt>
      <trkpt lat="45.02071" lon="5.84144">
        <ele>1376</ele>
        <time>2010-07-04T08:02:15Z</time>
      </trkpt>
      <trkpt lat="45.0207" lon="5.84146">
        <ele>1377</ele>
        <time>2010-07-04T08:02:16Z</time>
      </trkpt>
      <trkpt lat="45.02069" lon="5.84149">
        <ele>1377</ele>
        <time>2010-07-04T08:02:17Z</time>
      </trkpt>
      <trkpt lat="45.02071" lon="5.84153">
        <ele>1378</ele>
        <time>2010-07-04T08:02:18Z</time>
      </trkpt>
      <trkpt lat="45.02073" lon="5.84158">
        <ele>1379</ele>
        <time>2010-07-04T08:02:19Z</time>
      </trkpt>
      <trkpt lat="45.02074" lon="5.84163">
        <ele>1380</ele>
        <time>2010-07-04T08:02:20Z</time>
      </trkpt>
      <trkpt lat="45.02074" lon="5.84166">
        <ele>1381</ele>
        <time>2010-07-04T08:02:21Z</time>
      </trkpt>
      <trkpt lat="45.02075" lon="5.8417">
        <ele>1382</ele>
        <time>2010-07-04T08:02:22Z</time>
      </trkpt>
      <trkpt lat="45.02075" lon="5.84173">
        <ele>1384</ele>
        <time>2010-07-04T08:02:23Z</time>
      </trkpt>
      <trkpt lat="45.02076" lon="5.84176">
        <ele>1385</ele>
        <time>2010-07-04T08:02:24Z</time>
      </trkpt>
      <trkpt lat="45.02077" lon="5.8418">
        <ele>1386</ele>
        <time>2010-07-04T08:02:25Z</time>
      </trkpt>
      <trkpt lat="45.02076" lon="5.84182">
        <ele>1387</ele>
        <time>2010-07-04T08:02:26Z</time>
      </trkpt>
      <trkpt lat="45.02075" lon="5.84185">
        <ele>1388</ele>
        <time>2010-07-04T08:02:27Z</time>
      </trkpt>
      <trkpt lat="45.02075" lon="5.84187">
        <ele>1389</ele>
        <time>2010-07-04T08:02:28Z</time>
      </trkpt>
      <trkpt lat="45.02075" lon="5.84189">
        <ele>1390</ele>
        <time>2010-07-04T08:02:30Z</time>
      </trkpt>
      <trkpt lat="45.02075" lon="5.84191">
        <ele>1390</ele>
        <time>2010-07-04T08:02:32Z</time>
      </trkpt>
      <trkpt lat="45.02074" lon="5.84193">
        <ele>1390</ele>
        <time>2010-07-04T08:02:34Z</time>
      </trkpt>
      <trkpt lat="45.02075" lon="5.84194">
        <ele>1390</ele>
        <time>2010-07-04T08:02:35Z</time>
      </trkpt>
      <trkpt lat="45.02075" lon="5.84196">
        <ele>1390</ele>
        <time>2010-07-04T08:02:37Z</time>
      </trkpt>
      <trkpt lat="45.02074" lon="5.84198">
        <ele>1390</ele>
        <time>2010-07-04T08:02:38Z</time>
      </trkpt>
      <trkpt lat="45.02075" lon="5.84201">
        <ele>1390</ele>
        <time>2010-07-04T08:02:39Z</time>
      </trkpt>
      <trkpt lat="45.02075" lon="5.84204">
        <ele>1390</ele>
        <time>2010-07-04T08:02:41Z</time>
      </trkpt>
      <trkpt lat="45.02075" lon="5.84205">
        <ele>1390</ele>
        <time>2010-07-04T08:02:42Z</time>
      </trkpt>
      <trkpt lat="45.02075" lon="5.84207">
        <ele>1390</ele>
        <time>2010-07-04T08:02:43Z</time>
      </trkpt>
      <trkpt lat="45.02074" lon="5.84209">
        <ele>1390</ele>
        <time>2010-07-04T08:02:44Z</time>
      </trkpt>
      <trkpt lat="45.02074" lon="5.84211">
        <ele>1388</ele>
        <time>2010-07-04T08:02:46Z</time>
      </trkpt>
      <trkpt lat="45.02074" lon="5.84213">
        <ele>1388</ele>
        <time>2010-07-04T08:02:47Z</time>
      </trkpt>
      <trkpt lat="45.02075" lon="5.84215">
        <ele>1387</ele>
        <time>2010-07-04T08:02:49Z</time>
      </trkpt>
      <trkpt lat="45.02076" lon="5.84218">
        <ele>1387</ele>
        <time>2010-07-04T08:02:51Z</time>
      </trkpt>
      <trkpt lat="45.02077" lon="5.8422">
        <ele>1387</ele>
        <time>2010-07-04T08:02:53Z</time>
      </trkpt>
      <trkpt lat="45.02076" lon="5.84222">
        <ele>1387</ele>
        <time>2010-07-04T08:02:54Z</time>
      </trkpt>
      <trkpt lat="45.02076" lon="5.84224">
        <ele>1387</ele>
        <time>2010-07-04T08:02:57Z</time>
      </trkpt>
      <trkpt lat="45.02076" lon="5.84227">
        <ele>1387</ele>
        <time>2010-07-04T08:02:59Z</time>
      </trkpt>
      <trkpt lat="45.02076" lon="5.84228">
        <ele>1387</ele>
        <time>2010-07-04T08:03:00Z</time>
      </trkpt>
      <trkpt lat="45.02076" lon="5.8423">
        <ele>1387</ele>
        <time>2010-07-04T08:03:01Z</time>
      </trkpt>
      <trkpt lat="45.02077" lon="5.84233">
        <ele>1387</ele>
        <time>2010-07-04T08:03:03Z</time>
      </trkpt>
      <trkpt lat="45.02078" lon="5.84236">
        <ele>1387</ele>
        <time>2010-07-04T08:03:05Z</time>
      </trkpt>
      <trkpt lat="45.02079" lon="5.84237">
        <ele>1388</ele>
        <time>2010-07-04T08:03:06Z</time>
      </trkpt>
      <trkpt lat="45.02079" lon="5.84239">
        <ele>1389</ele>
        <time>2010-07-04T08:03:07Z</time>
      </trkpt>
      <trkpt lat="45.0208" lon="5.84241">
        <ele>1390</ele>
        <time>2010-07-04T08:03:09Z</time>
      </trkpt>
      <trkpt lat="45.0208" lon="5.84244">
        <ele>1391</ele>
        <time>2010-07-04T08:03:11Z</time>
      </trkpt>
      <trkpt lat="45.02081" lon="5.84246">
        <ele>1392</ele>
        <time>2010-07-04T08:03:15Z</time>
      </trkpt>
      <trkpt lat="45.02082" lon="5.84248">
        <ele>1392</ele>
        <time>2010-07-04T08:03:18Z</time>
      </trkpt>
      <trkpt lat="45.02081" lon="5.8425">
        <ele>1392</ele>
        <time>2010-07-04T08:03:20Z</time>
      </trkpt>
      <trkpt lat="45.0208" lon="5.84252">
        <ele>1392</ele>
        <time>2010-07-04T08:03:22Z</time>
      </trkpt>
      <trkpt lat="45.02079" lon="5.84254">
        <ele>1392</ele>
        <time>2010-07-04T08:03:23Z</time>
      </trkpt>
      <trkpt lat="45.02078" lon="5.84256">
        <ele>1392</ele>
        <time>2010-07-04T08:03:25Z</time>
      </trkpt>
      <trkpt lat="45.02077" lon="5.84257">
        <ele>1393</ele>
        <time>2010-07-04T08:03:27Z</time>
      </trkpt>
      <trkpt lat="45.02074" lon="5.84261">
        <ele>1393</ele>
        <time>2010-07-04T08:03:29Z</time>
      </trkpt>
      <trkpt lat="45.02074" lon="5.84263">
        <ele>1393</ele>
        <time>2010-07-04T08:03:31Z</time>
      </trkpt>
      <trkpt lat="45.02074" lon="5.84265">
        <ele>1394</ele>
        <time>2010-07-04T08:03:33Z</time>
      </trkpt>
      <trkpt lat="45.02075" lon="5.84267">
        <ele>1396</ele>
        <time>2010-07-04T08:03:35Z</time>
      </trkpt>
      <trkpt lat="45.02075" lon="5.84271">
        <ele>1396</ele>
        <time>2010-07-04T08:03:37Z</time>
      </trkpt>
      <trkpt lat="45.02073" lon="5.84273">
        <ele>1396</ele>
        <time>2010-07-04T08:03:39Z</time>
      </trkpt>
      <trkpt lat="45.02073" lon="5.84275">
        <ele>1396</ele>
        <time>2010-07-04T08:03:42Z</time>
      </trkpt>
      <trkpt lat="45.02073" lon="5.84277">
        <ele>1396</ele>
        <time>2010-07-04T08:03:43Z</time>
      </trkpt>
      <trkpt lat="45.02073" lon="5.84279">
        <ele>1396</ele>
        <time>2010-07-04T08:03:44Z</time>
      </trkpt>
      <trkpt lat="45.02075" lon="5.84281">
        <ele>1396</ele>
        <time>2010-07-04T08:03:46Z</time>
      </trkpt>
      <trkpt lat="45.02074" lon="5.84284">
        <ele>1396</ele>
        <time>2010-07-04T08:03:47Z</time>
      </trkpt>
      <trkpt lat="45.02073" lon="5.84286">
        <ele>1397</ele>
        <time>2010-07-04T08:03:48Z</time>
      </trkpt>
      <trkpt lat="45.02073" lon="5.84289">
        <ele>1398</ele>
        <time>2010-07-04T08:03:50Z</time>
      </trkpt>
      <trkpt lat="45.02073" lon="5.8429">
        <ele>1398</ele>
        <time>2010-07-04T08:03:51Z</time>
      </trkpt>
      <trkpt lat="45.02072" lon="5.84292">
        <ele>1398</ele>
        <time>2010-07-04T08:03:52Z</time>
      </trkpt>
      <trkpt lat="45.02071" lon="5.84294">
        <ele>1398</ele>
        <time>2010-07-04T08:03:53Z</time>
      </trkpt>
      <trkpt lat="45.0207" lon="5.84296">
        <ele>1398</ele>
        <time>2010-07-04T08:03:54Z</time>
      </trkpt>
      <trkpt lat="45.02068" lon="5.84298">
        <ele>1398</ele>
        <time>2010-07-04T08:03:56Z</time>
      </trkpt>
      <trkpt lat="45.02068" lon="5.84301">
        <ele>1398</ele>
        <time>2010-07-04T08:03:58Z</time>
      </trkpt>
      <trkpt lat="45.02066" lon="5.84303">
        <ele>1398</ele>
        <time>2010-07-04T08:04:00Z</time>
      </trkpt>
      <trkpt lat="45.02065" lon="5.84304">
        <ele>1398</ele>
        <time>2010-07-04T08:04:01Z</time>
      </trkpt>
      <trkpt lat="45.02064" lon="5.84305">
        <ele>1398</ele>
        <time>2010-07-04T08:04:02Z</time>
      </trkpt>
      <trkpt lat="45.02062" lon="5.84305">
        <ele>1398</ele>
        <time>2010-07-04T08:04:03Z</time>
      </trkpt>
      <trkpt lat="45.02061" lon="5.84305">
        <ele>1398</ele>
        <time>2010-07-04T08:04:04Z</time>
      </trkpt>
      <trkpt lat="45.0206" lon="5.84305">
        <ele>1398</ele>
        <time>2010-07-04T08:04:05Z</time>
      </trkpt>
      <trkpt lat="45.02058" lon="5.84303">
        <ele>1398</ele>
        <time>2010-07-04T08:04:07Z</time>
      </trkpt>
      <trkpt lat="45.02057" lon="5.84301">
        <ele>1398</ele>
        <time>2010-07-04T08:04:09Z</time>
      </trkpt>
      <trkpt lat="45.02055" lon="5.843">
        <ele>1398</ele>
        <time>2010-07-04T08:04:11Z</time>
      </trkpt>
      <trkpt lat="45.02055" lon="5.84298">
        <ele>1398</ele>
        <time>2010-07-04T08:04:13Z</time>
      </trkpt>
      <trkpt lat="45.02054" lon="5.84295">
        <ele>1399</ele>
        <time>2010-07-04T08:04:15Z</time>
      </trkpt>
      <trkpt lat="45.02052" lon="5.84293">
        <ele>1399</ele>
        <time>2010-07-04T08:04:17Z</time>
      </trkpt>
      <trkpt lat="45.0205" lon="5.84293">
        <ele>1399</ele>
        <time>2010-07-04T08:04:18Z</time>
      </trkpt>
      <trkpt lat="45.02049" lon="5.84293">
        <ele>1399</ele>
        <time>2010-07-04T08:04:20Z</time>
      </trkpt>
      <trkpt lat="45.02047" lon="5.84294">
        <ele>1399</ele>
        <time>2010-07-04T08:04:22Z</time>
      </trkpt>
      <trkpt lat="45.02046" lon="5.84296">
        <ele>1400</ele>
        <time>2010-07-04T08:04:25Z</time>
      </trkpt>
      <trkpt lat="45.02047" lon="5.84297">
        <ele>1401</ele>
        <time>2010-07-04T08:04:27Z</time>
      </trkpt>
      <trkpt lat="45.02047" lon="5.84299">
        <ele>1402</ele>
        <time>2010-07-04T08:04:28Z</time>
      </trkpt>
      <trkpt lat="45.02048" lon="5.84301">
        <ele>1402</ele>
        <time>2010-07-04T08:04:29Z</time>
      </trkpt>
      <trkpt lat="45.02048" lon="5.84302">
        <ele>1402</ele>
        <time>2010-07-04T08:04:30Z</time>
      </trkpt>
      <trkpt lat="45.02049" lon="5.84304">
        <ele>1402</ele>
        <time>2010-07-04T08:04:31Z</time>
      </trkpt>
      <trkpt lat="45.02049" lon="5.84306">
        <ele>1403</ele>
        <time>2010-07-04T08:04:32Z</time>
      </trkpt>
      <trkpt lat="45.0205" lon="5.84309">
        <ele>1403</ele>
        <time>2010-07-04T08:04:33Z</time>
      </trkpt>
      <trkpt lat="45.0205" lon="5.84311">
        <ele>1404</ele>
        <time>2010-07-04T08:04:34Z</time>
      </trkpt>
      <trkpt lat="45.0205" lon="5.84313">
        <ele>1404</ele>
        <time>2010-07-04T08:04:35Z</time>
      </trkpt>
      <trkpt lat="45.02051" lon="5.84316">
        <ele>1405</ele>
        <time>2010-07-04T08:04:36Z</time>
      </trkpt>
      <trkpt lat="45.0205" lon="5.84318">
        <ele>1406</ele>
        <time>2010-07-04T08:04:37Z</time>
      </trkpt>
      <trkpt lat="45.0205" lon="5.8432">
        <ele>1407</ele>
        <time>2010-07-04T08:04:38Z</time>
      </trkpt>
      <trkpt lat="45.02051" lon="5.84321">
        <ele>1408</ele>
        <time>2010-07-04T08:04:39Z</time>
      </trkpt>
      <trkpt lat="45.02051" lon="5.84322">
        <ele>1409</ele>
        <time>2010-07-04T08:04:40Z</time>
      </trkpt>
      <trkpt lat="45.02051" lon="5.84324">
        <ele>1410</ele>
        <time>2010-07-04T08:04:41Z</time>
      </trkpt>
      <trkpt lat="45.02052" lon="5.84325">
        <ele>1410</ele>
        <time>2010-07-04T08:04:42Z</time>
      </trkpt>
      <trkpt lat="45.02053" lon="5.84327">
        <ele>1410</ele>
        <time>2010-07-04T08:04:43Z</time>
      </trkpt>
      <trkpt lat="45.02054" lon="5.8433">
        <ele>1411</ele>
        <time>2010-07-04T08:04:45Z</time>
      </trkpt>
      <trkpt lat="45.02055" lon="5.84331">
        <ele>1411</ele>
        <time>2010-07-04T08:04:46Z</time>
      </trkpt>
      <trkpt lat="45.02055" lon="5.84333">
        <ele>1411</ele>
        <time>2010-07-04T08:04:47Z</time>
      </trkpt>
      <trkpt lat="45.02056" lon="5.84335">
        <ele>1412</ele>
        <time>2010-07-04T08:04:49Z</time>
      </trkpt>
      <trkpt lat="45.02057" lon="5.84337">
        <ele>1412</ele>
        <time>2010-07-04T08:04:51Z</time>
      </trkpt>
      <trkpt lat="45.02056" lon="5.84338">
        <ele>1412</ele>
        <time>2010-07-04T08:04:52Z</time>
      </trkpt>
      <trkpt lat="45.02058" lon="5.84342">
        <ele>1413</ele>
        <time>2010-07-04T08:04:54Z</time>
      </trkpt>
      <trkpt lat="45.02058" lon="5.84344">
        <ele>1414</ele>
        <time>2010-07-04T08:04:55Z</time>
      </trkpt>
      <trkpt lat="45.02059" lon="5.84346">
        <ele>1415</ele>
        <time>2010-07-04T08:04:56Z</time>
      </trkpt>
      <trkpt lat="45.02058" lon="5.84348">
        <ele>1415</ele>
        <time>2010-07-04T08:04:57Z</time>
      </trkpt>
      <trkpt lat="45.02059" lon="5.8435">
        <ele>1416</ele>
        <time>2010-07-04T08:04:58Z</time>
      </trkpt>
      <trkpt lat="45.0206" lon="5.84352">
        <ele>1416</ele>
        <time>2010-07-04T08:04:59Z</time>
      </trkpt>
      <trkpt lat="45.02061" lon="5.84354">
        <ele>1416</ele>
        <time>2010-07-04T08:05:00Z</time>
      </trkpt>
      <trkpt lat="45.02061" lon="5.84356">
        <ele>1416</ele>
        <time>2010-07-04T08:05:01Z</time>
      </trkpt>
      <trkpt lat="45.02062" lon="5.84357">
        <ele>1416</ele>
        <time>2010-07-04T08:05:02Z</time>
      </trkpt>
      <trkpt lat="45.02064" lon="5.84359">
        <ele>1417</ele>
        <time>2010-07-04T08:05:03Z</time>
      </trkpt>
      <trkpt lat="45.02064" lon="5.84361">
        <ele>1417</ele>
        <time>2010-07-04T08:05:04Z</time>
      </trkpt>
      <trkpt lat="45.02065" lon="5.84363">
        <ele>1418</ele>
        <time>2010-07-04T08:05:05Z</time>
      </trkpt>
      <trkpt lat="45.02066" lon="5.84365">
        <ele>1419</ele>
        <time>2010-07-04T08:05:06Z</time>
      </trkpt>
      <trkpt lat="45.02067" lon="5.84367">
        <ele>1420</ele>
        <time>2010-07-04T08:05:07Z</time>
      </trkpt>
      <trkpt lat="45.02068" lon="5.84369">
        <ele>1421</ele>
        <time>2010-07-04T08:05:08Z</time>
      </trkpt>
      <trkpt lat="45.02069" lon="5.8437">
        <ele>1422</ele>
        <time>2010-07-04T08:05:09Z</time>
      </trkpt>
      <trkpt lat="45.02071" lon="5.84372">
        <ele>1424</ele>
        <time>2010-07-04T08:05:11Z</time>
      </trkpt>
      <trkpt lat="45.02073" lon="5.84373">
        <ele>1424</ele>
        <time>2010-07-04T08:05:12Z</time>
      </trkpt>
      <trkpt lat="45.02074" lon="5.84375">
        <ele>1425</ele>
        <time>2010-07-04T08:05:13Z</time>
      </trkpt>
      <trkpt lat="45.02076" lon="5.84377">
        <ele>1426</ele>
        <time>2010-07-04T08:05:14Z</time>
      </trkpt>
      <trkpt lat="45.02077" lon="5.84378">
        <ele>1426</ele>
        <time>2010-07-04T08:05:15Z</time>
      </trkpt>
      <trkpt lat="45.02078" lon="5.8438">
        <ele>1427</ele>
        <time>2010-07-04T08:05:16Z</time>
      </trkpt>
      <trkpt lat="45.0208" lon="5.84383">
        <ele>1427</ele>
        <time>2010-07-04T08:05:17Z</time>
      </trkpt>
      <trkpt lat="45.02081" lon="5.84385">
        <ele>1428</ele>
        <time>2010-07-04T08:05:18Z</time>
      </trkpt>
      <trkpt lat="45.02082" lon="5.84387">
        <ele>1428</ele>
        <time>2010-07-04T08:05:19Z</time>
      </trkpt>
      <trkpt lat="45.02083" lon="5.84389">
        <ele>1429</ele>
        <time>2010-07-04T08:05:20Z</time>
      </trkpt>
      <trkpt lat="45.02084" lon="5.8439">
        <ele>1429</ele>
        <time>2010-07-04T08:05:21Z</time>
      </trkpt>
      <trkpt lat="45.02086" lon="5.84392">
        <ele>1430</ele>
        <time>2010-07-04T08:05:22Z</time>
      </trkpt>
      <trkpt lat="45.02088" lon="5.84394">
        <ele>1430</ele>
        <time>2010-07-04T08:05:23Z</time>
      </trkpt>
      <trkpt lat="45.02089" lon="5.84395">
        <ele>1430</ele>
        <time>2010-07-04T08:05:24Z</time>
      </trkpt>
      <trkpt lat="45.0209" lon="5.84397">
        <ele>1431</ele>
        <time>2010-07-04T08:05:25Z</time>
      </trkpt>
      <trkpt lat="45.02091" lon="5.84399">
        <ele>1431</ele>
        <time>2010-07-04T08:05:26Z</time>
      </trkpt>
      <trkpt lat="45.0209" lon="5.844">
        <ele>1431</ele>
        <time>2010-07-04T08:05:27Z</time>
      </trkpt>
      <trkpt lat="45.02089" lon="5.84401">
        <ele>1431</ele>
        <time>2010-07-04T08:05:28Z</time>
      </trkpt>
      <trkpt lat="45.02088" lon="5.84401">
        <ele>1431</ele>
        <time>2010-07-04T08:05:29Z</time>
      </trkpt>
      <trkpt lat="45.02086" lon="5.84401">
        <ele>1431</ele>
        <time>2010-07-04T08:05:30Z</time>
      </trkpt>
      <trkpt lat="45.02085" lon="5.84401">
        <ele>1431</ele>
        <time>2010-07-04T08:05:31Z</time>
      </trkpt>
      <trkpt lat="45.02084" lon="5.84401">
        <ele>1431</ele>
        <time>2010-07-04T08:05:32Z</time>
      </trkpt>
      <trkpt lat="45.02082" lon="5.84401">
        <ele>1431</ele>
        <time>2010-07-04T08:05:33Z</time>
      </trkpt>
      <trkpt lat="45.02081" lon="5.844">
        <ele>1431</ele>
        <time>2010-07-04T08:05:34Z</time>
      </trkpt>
      <trkpt lat="45.0208" lon="5.844">
        <ele>1431</ele>
        <time>2010-07-04T08:05:35Z</time>
      </trkpt>
      <trkpt lat="45.02079" lon="5.844">
        <ele>1431</ele>
        <time>2010-07-04T08:05:36Z</time>
      </trkpt>
      <trkpt lat="45.02077" lon="5.844">
        <ele>1431</ele>
        <time>2010-07-04T08:05:37Z</time>
      </trkpt>
      <trkpt lat="45.02075" lon="5.844">
        <ele>1431</ele>
        <time>2010-07-04T08:05:39Z</time>
      </trkpt>
      <trkpt lat="45.02073" lon="5.844">
        <ele>1431</ele>
        <time>2010-07-04T08:05:40Z</time>
      </trkpt>
      <trkpt lat="45.02071" lon="5.84399">
        <ele>1431</ele>
        <time>2010-07-04T08:05:41Z</time>
      </trkpt>
      <trkpt lat="45.02069" lon="5.84398">
        <ele>1431</ele>
        <time>2010-07-04T08:05:42Z</time>
      </trkpt>
      <trkpt lat="45.02067" lon="5.84398">
        <ele>1431</ele>
        <time>2010-07-04T08:05:43Z</time>
      </trkpt>
      <trkpt lat="45.02065" lon="5.84397">
        <ele>1431</ele>
        <time>2010-07-04T08:05:44Z</time>
      </trkpt>
      <trkpt lat="45.02063" lon="5.84398">
        <ele>1431</ele>
        <time>2010-07-04T08:05:45Z</time>
      </trkpt>
      <trkpt lat="45.0206" lon="5.84398">
        <ele>1431</ele>
        <time>2010-07-04T08:05:46Z</time>
      </trkpt>
      <trkpt lat="45.02059" lon="5.84397">
        <ele>1431</ele>
        <time>2010-07-04T08:05:47Z</time>
      </trkpt>
      <trkpt lat="45.02057" lon="5.84396">
        <ele>1431</ele>
        <time>2010-07-04T08:05:48Z</time>
      </trkpt>
      <trkpt lat="45.02055" lon="5.84396">
        <ele>1431</ele>
        <time>2010-07-04T08:05:49Z</time>
      </trkpt>
      <trkpt lat="45.02053" lon="5.84396">
        <ele>1431</ele>
        <time>2010-07-04T08:05:50Z</time>
      </trkpt>
      <trkpt lat="45.0205" lon="5.84395">
        <ele>1431</ele>
        <time>2010-07-04T08:05:51Z</time>
      </trkpt>
      <trkpt lat="45.02047" lon="5.84395">
        <ele>1431</ele>
        <time>2010-07-04T08:05:52Z</time>
      </trkpt>
      <trkpt lat="45.02045" lon="5.84395">
        <ele>1431</ele>
        <time>2010-07-04T08:05:53Z</time>
      </trkpt>
      <trkpt lat="45.02043" lon="5.84395">
        <ele>1431</ele>
        <time>2010-07-04T08:05:54Z</time>
      </trkpt>
      <trkpt lat="45.02042" lon="5.84395">
        <ele>1431</ele>
        <time>2010-07-04T08:05:55Z</time>
      </trkpt>
      <trkpt lat="45.0204" lon="5.84395">
        <ele>1431</ele>
        <time>2010-07-04T08:05:56Z</time>
      </trkpt>
      <trkpt lat="45.02037" lon="5.84395">
        <ele>1431</ele>
        <time>2010-07-04T08:05:57Z</time>
      </trkpt>
      <trkpt lat="45.02034" lon="5.84395">
        <ele>1431</ele>
        <time>2010-07-04T08:05:58Z</time>
      </trkpt>
      <trkpt lat="45.02031" lon="5.84396">
        <ele>1431</ele>
        <time>2010-07-04T08:05:59Z</time>
      </trkpt>
      <trkpt lat="45.02028" lon="5.84396">
        <ele>1431</ele>
        <time>2010-07-04T08:06:00Z</time>
      </trkpt>
      <trkpt lat="45.02026" lon="5.84397">
        <ele>1431</ele>
        <time>2010-07-04T08:06:01Z</time>
      </trkpt>
      <trkpt lat="45.02025" lon="5.84396">
        <ele>1431</ele>
        <time>2010-07-04T08:06:02Z</time>
      </trkpt>
      <trkpt lat="45.02023" lon="5.84396">
        <ele>1430</ele>
        <time>2010-07-04T08:06:04Z</time>
      </trkpt>
      <trkpt lat="45.02022" lon="5.84396">
        <ele>1430</ele>
        <time>2010-07-04T08:06:05Z</time>
      </trkpt>
      <trkpt lat="45.0202" lon="5.84394">
        <ele>1430</ele>
        <time>2010-07-04T08:06:07Z</time>
      </trkpt>
      <trkpt lat="45.02021" lon="5.84396">
        <ele>1430</ele>
        <time>2010-07-04T08:06:10Z</time>
      </trkpt>
      <trkpt lat="45.02023" lon="5.84398">
        <ele>1430</ele>
        <time>2010-07-04T08:06:12Z</time>
      </trkpt>
      <trkpt lat="45.02024" lon="5.844">
        <ele>1431</ele>
        <time>2010-07-04T08:06:14Z</time>
      </trkpt>
      <trkpt lat="45.02026" lon="5.84402">
        <ele>1432</ele>
        <time>2010-07-04T08:06:15Z</time>
      </trkpt>
      <trkpt lat="45.02028" lon="5.84404">
        <ele>1433</ele>
        <time>2010-07-04T08:06:17Z</time>
      </trkpt>
      <trkpt lat="45.02029" lon="5.84405">
        <ele>1434</ele>
        <time>2010-07-04T08:06:19Z</time>
      </trkpt>
      <trkpt lat="45.02031" lon="5.84406">
        <ele>1434</ele>
        <time>2010-07-04T08:06:21Z</time>
      </trkpt>
      <trkpt lat="45.02034" lon="5.84407">
        <ele>1434</ele>
        <time>2010-07-04T08:06:22Z</time>
      </trkpt>
      <trkpt lat="45.02036" lon="5.84408">
        <ele>1434</ele>
        <time>2010-07-04T08:06:23Z</time>
      </trkpt>
      <trkpt lat="45.02039" lon="5.84409">
        <ele>1434</ele>
        <time>2010-07-04T08:06:24Z</time>
      </trkpt>
      <trkpt lat="45.02041" lon="5.84409">
        <ele>1434</ele>
        <time>2010-07-04T08:06:25Z</time>
      </trkpt>
      <trkpt lat="45.02044" lon="5.84409">
        <ele>1435</ele>
        <time>2010-07-04T08:06:26Z</time>
      </trkpt>
      <trkpt lat="45.02046" lon="5.84409">
        <ele>1435</ele>
        <time>2010-07-04T08:06:27Z</time>
      </trkpt>
      <trkpt lat="45.02048" lon="5.84409">
        <ele>1435</ele>
        <time>2010-07-04T08:06:28Z</time>
      </trkpt>
      <trkpt lat="45.0205" lon="5.84411">
        <ele>1435</ele>
        <time>2010-07-04T08:06:29Z</time>
      </trkpt>
      <trkpt lat="45.02052" lon="5.84411">
        <ele>1435</ele>
        <time>2010-07-04T08:06:30Z</time>
      </trkpt>
      <trkpt lat="45.02054" lon="5.84412">
        <ele>1436</ele>
        <time>2010-07-04T08:06:31Z</time>
      </trkpt>
      <trkpt lat="45.02056" lon="5.84412">
        <ele>1436</ele>
        <time>2010-07-04T08:06:32Z</time>
      </trkpt>
      <trkpt lat="45.02059" lon="5.84413">
        <ele>1436</ele>
        <time>2010-07-04T08:06:33Z</time>
      </trkpt>
      <trkpt lat="45.02062" lon="5.84414">
        <ele>1437</ele>
        <time>2010-07-04T08:06:34Z</time>
      </trkpt>
      <trkpt lat="45.02064" lon="5.84414">
        <ele>1437</ele>
        <time>2010-07-04T08:06:35Z</time>
      </trkpt>
      <trkpt lat="45.02066" lon="5.84416">
        <ele>1437</ele>
        <time>2010-07-04T08:06:36Z</time>
      </trkpt>
      <trkpt lat="45.02069" lon="5.84417">
        <ele>1438</ele>
        <time>2010-07-04T08:06:37Z</time>
      </trkpt>
      <trkpt lat="45.02071" lon="5.84419">
        <ele>1438</ele>
        <time>2010-07-04T08:06:38Z</time>
      </trkpt>
      <trkpt lat="45.02073" lon="5.8442">
        <ele>1438</ele>
        <time>2010-07-04T08:06:39Z</time>
      </trkpt>
      <trkpt lat="45.02076" lon="5.84422">
        <ele>1439</ele>
        <time>2010-07-04T08:06:40Z</time>
      </trkpt>
      <trkpt lat="45.02079" lon="5.84424">
        <ele>1439</ele>
        <time>2010-07-04T08:06:41Z</time>
      </trkpt>
      <trkpt lat="45.02082" lon="5.84426">
        <ele>1440</ele>
        <time>2010-07-04T08:06:42Z</time>
      </trkpt>
      <trkpt lat="45.02086" lon="5.84428">
        <ele>1440</ele>
        <time>2010-07-04T08:06:43Z</time>
      </trkpt>
      <trkpt lat="45.02089" lon="5.84431">
        <ele>1441</ele>
        <time>2010-07-04T08:06:44Z</time>
      </trkpt>
      <trkpt lat="45.02091" lon="5.84434">
        <ele>1441</ele>
        <time>2010-07-04T08:06:45Z</time>
      </trkpt>
      <trkpt lat="45.02094" lon="5.84437">
        <ele>1442</ele>
        <time>2010-07-04T08:06:46Z</time>
      </trkpt>
      <trkpt lat="45.02096" lon="5.84439">
        <ele>1442</ele>
        <time>2010-07-04T08:06:47Z</time>
      </trkpt>
      <trkpt lat="45.02099" lon="5.84441">
        <ele>1442</ele>
        <time>2010-07-04T08:06:48Z</time>
      </trkpt>
      <trkpt lat="45.02102" lon="5.84444">
        <ele>1443</ele>
        <time>2010-07-04T08:06:49Z</time>
      </trkpt>
      <trkpt lat="45.02105" lon="5.84446">
        <ele>1443</ele>
        <time>2010-07-04T08:06:50Z</time>
      </trkpt>
      <trkpt lat="45.02108" lon="5.84448">
        <ele>1443</ele>
        <time>2010-07-04T08:06:51Z</time>
      </trkpt>
      <trkpt lat="45.0211" lon="5.84449">
        <ele>1443</ele>
        <time>2010-07-04T08:06:52Z</time>
      </trkpt>
      <trkpt lat="45.02112" lon="5.84451">
        <ele>1444</ele>
        <time>2010-07-04T08:06:53Z</time>
      </trkpt>
      <trkpt lat="45.02114" lon="5.84452">
        <ele>1445</ele>
        <time>2010-07-04T08:06:54Z</time>
      </trkpt>
      <trkpt lat="45.02115" lon="5.84453">
        <ele>1446</ele>
        <time>2010-07-04T08:06:55Z</time>
      </trkpt>
      <trkpt lat="45.02117" lon="5.84454">
        <ele>1446</ele>
        <time>2010-07-04T08:06:56Z</time>
      </trkpt>
      <trkpt lat="45.02119" lon="5.84456">
        <ele>1447</ele>
        <time>2010-07-04T08:06:57Z</time>
      </trkpt>
      <trkpt lat="45.02121" lon="5.84458">
        <ele>1447</ele>
        <time>2010-07-04T08:06:58Z</time>
      </trkpt>
      <trkpt lat="45.02122" lon="5.8446">
        <ele>1447</ele>
        <time>2010-07-04T08:06:59Z</time>
      </trkpt>
      <trkpt lat="45.02125" lon="5.84461">
        <ele>1447</ele>
        <time>2010-07-04T08:07:00Z</time>
      </trkpt>
      <trkpt lat="45.02128" lon="5.84463">
        <ele>1447</ele>
        <time>2010-07-04T08:07:01Z</time>
      </trkpt>
      <trkpt lat="45.0213" lon="5.84464">
        <ele>1447</ele>
        <time>2010-07-04T08:07:02Z</time>
      </trkpt>
      <trkpt lat="45.02133" lon="5.84465">
        <ele>1448</ele>
        <time>2010-07-04T08:07:03Z</time>
      </trkpt>
      <trkpt lat="45.02135" lon="5.84467">
        <ele>1448</ele>
        <time>2010-07-04T08:07:04Z</time>
      </trkpt>
      <trkpt lat="45.02137" lon="5.84468">
        <ele>1449</ele>
        <time>2010-07-04T08:07:05Z</time>
      </trkpt>
      <trkpt lat="45.0214" lon="5.84469">
        <ele>1449</ele>
        <time>2010-07-04T08:07:06Z</time>
      </trkpt>
      <trkpt lat="45.02143" lon="5.84471">
        <ele>1450</ele>
        <time>2010-07-04T08:07:07Z</time>
      </trkpt>
      <trkpt lat="45.02145" lon="5.84473">
        <ele>1450</ele>
        <time>2010-07-04T08:07:08Z</time>
      </trkpt>
      <trkpt lat="45.02147" lon="5.84473">
        <ele>1450</ele>
        <time>2010-07-04T08:07:09Z</time>
      </trkpt>
      <trkpt lat="45.02149" lon="5.84473">
        <ele>1450</ele>
        <time>2010-07-04T08:07:10Z</time>
      </trkpt>
      <trkpt lat="45.02151" lon="5.84475">
        <ele>1450</ele>
        <time>2010-07-04T08:07:11Z</time>
      </trkpt>
      <trkpt lat="45.02154" lon="5.84476">
        <ele>1450</ele>
        <time>2010-07-04T08:07:12Z</time>
      </trkpt>
      <trkpt lat="45.02156" lon="5.84477">
        <ele>1450</ele>
        <time>2010-07-04T08:07:13Z</time>
      </trkpt>
      <trkpt lat="45.02158" lon="5.84478">
        <ele>1450</ele>
        <time>2010-07-04T08:07:14Z</time>
      </trkpt>
      <trkpt lat="45.0216" lon="5.84478">
        <ele>1450</ele>
        <time>2010-07-04T08:07:15Z</time>
      </trkpt>
      <trkpt lat="45.02163" lon="5.84478">
        <ele>1450</ele>
        <time>2010-07-04T08:07:16Z</time>
      </trkpt>
      <trkpt lat="45.02165" lon="5.84479">
        <ele>1450</ele>
        <time>2010-07-04T08:07:17Z</time>
      </trkpt>
      <trkpt lat="45.02167" lon="5.8448">
        <ele>1450</ele>
        <time>2010-07-04T08:07:18Z</time>
      </trkpt>
      <trkpt lat="45.02169" lon="5.84482">
        <ele>1450</ele>
        <time>2010-07-04T08:07:19Z</time>
      </trkpt>
      <trkpt lat="45.02171" lon="5.84483">
        <ele>1450</ele>
        <time>2010-07-04T08:07:20Z</time>
      </trkpt>
      <trkpt lat="45.02174" lon="5.84484">
        <ele>1450</ele>
        <time>2010-07-04T08:07:21Z</time>
      </trkpt>
      <trkpt lat="45.02176" lon="5.84485">
        <ele>1450</ele>
        <time>2010-07-04T08:07:22Z</time>
      </trkpt>
      <trkpt lat="45.02178" lon="5.84485">
        <ele>1450</ele>
        <time>2010-07-04T08:07:23Z</time>
      </trkpt>
      <trkpt lat="45.0218" lon="5.84486">
        <ele>1450</ele>
        <time>2010-07-04T08:07:24Z</time>
      </trkpt>
      <trkpt lat="45.02183" lon="5.84486">
        <ele>1450</ele>
        <time>2010-07-04T08:07:25Z</time>
      </trkpt>
      <trkpt lat="45.02185" lon="5.84486">
        <ele>1450</ele>
        <time>2010-07-04T08:07:26Z</time>
      </trkpt>
      <trkpt lat="45.02187" lon="5.84487">
        <ele>1450</ele>
        <time>2010-07-04T08:07:27Z</time>
      </trkpt>
      <trkpt lat="45.0219" lon="5.84488">
        <ele>1450</ele>
        <time>2010-07-04T08:07:28Z</time>
      </trkpt>
      <trkpt lat="45.02193" lon="5.84489">
        <ele>1450</ele>
        <time>2010-07-04T08:07:29Z</time>
      </trkpt>
      <trkpt lat="45.02195" lon="5.84489">
        <ele>1450</ele>
        <time>2010-07-04T08:07:30Z</time>
      </trkpt>
      <trkpt lat="45.02198" lon="5.84489">
        <ele>1450</ele>
        <time>2010-07-04T08:07:31Z</time>
      </trkpt>
      <trkpt lat="45.022" lon="5.84489">
        <ele>1450</ele>
        <time>2010-07-04T08:07:32Z</time>
      </trkpt>
      <trkpt lat="45.02203" lon="5.8449">
        <ele>1450</ele>
        <time>2010-07-04T08:07:33Z</time>
      </trkpt>
      <trkpt lat="45.02205" lon="5.84491">
        <ele>1450</ele>
        <time>2010-07-04T08:07:34Z</time>
      </trkpt>
      <trkpt lat="45.02207" lon="5.84491">
        <ele>1450</ele>
        <time>2010-07-04T08:07:35Z</time>
      </trkpt>
      <trkpt lat="45.02209" lon="5.84492">
        <ele>1450</ele>
        <time>2010-07-04T08:07:36Z</time>
      </trkpt>
      <trkpt lat="45.02211" lon="5.84494">
        <ele>1450</ele>
        <time>2010-07-04T08:07:37Z</time>
      </trkpt>
      <trkpt lat="45.02213" lon="5.84495">
        <ele>1451</ele>
        <time>2010-07-04T08:07:38Z</time>
      </trkpt>
      <trkpt lat="45.02216" lon="5.84497">
        <ele>1451</ele>
        <time>2010-07-04T08:07:39Z</time>
      </trkpt>
      <trkpt lat="45.02218" lon="5.84499">
        <ele>1451</ele>
        <time>2010-07-04T08:07:40Z</time>
      </trkpt>
      <trkpt lat="45.0222" lon="5.845">
        <ele>1452</ele>
        <time>2010-07-04T08:07:41Z</time>
      </trkpt>
      <trkpt lat="45.02222" lon="5.84502">
        <ele>1452</ele>
        <time>2010-07-04T08:07:42Z</time>
      </trkpt>
      <trkpt lat="45.02225" lon="5.84503">
        <ele>1452</ele>
        <time>2010-07-04T08:07:43Z</time>
      </trkpt>
      <trkpt lat="45.02228" lon="5.84505">
        <ele>1452</ele>
        <time>2010-07-04T08:07:44Z</time>
      </trkpt>
      <trkpt lat="45.02231" lon="5.84506">
        <ele>1452</ele>
        <time>2010-07-04T08:07:45Z</time>
      </trkpt>
      <trkpt lat="45.02233" lon="5.84508">
        <ele>1452</ele>
        <time>2010-07-04T08:07:46Z</time>
      </trkpt>
      <trkpt lat="45.02236" lon="5.8451">
        <ele>1452</ele>
        <time>2010-07-04T08:07:48Z</time>
      </trkpt>
      <trkpt lat="45.0224" lon="5.84511">
        <ele>1452</ele>
        <time>2010-07-04T08:07:48Z</time>
      </trkpt>
      <trkpt lat="45.02243" lon="5.84513">
        <ele>1452</ele>
        <time>2010-07-04T08:07:49Z</time>
      </trkpt>
      <trkpt lat="45.02246" lon="5.84514">
        <ele>1452</ele>
        <time>2010-07-04T08:07:50Z</time>
      </trkpt>
      <trkpt lat="45.02249" lon="5.84515">
        <ele>1452</ele>
        <time>2010-07-04T08:07:51Z</time>
      </trkpt>
      <trkpt lat="45.02252" lon="5.84515">
        <ele>1452</ele>
        <time>2010-07-04T08:07:52Z</time>
      </trkpt>
      <trkpt lat="45.02256" lon="5.84516">
        <ele>1452</ele>
        <time>2010-07-04T08:07:53Z</time>
      </trkpt>
      <trkpt lat="45.02259" lon="5.84517">
        <ele>1452</ele>
        <time>2010-07-04T08:07:54Z</time>
      </trkpt>
      <trkpt lat="45.02262" lon="5.84517">
        <ele>1451</ele>
        <time>2010-07-04T08:07:55Z</time>
      </trkpt>
      <trkpt lat="45.02265" lon="5.84517">
        <ele>1450</ele>
        <time>2010-07-04T08:07:56Z</time>
      </trkpt>
      <trkpt lat="45.02269" lon="5.84517">
        <ele>1449</ele>
        <time>2010-07-04T08:07:57Z</time>
      </trkpt>
      <trkpt lat="45.02272" lon="5.84517">
        <ele>1448</ele>
        <time>2010-07-04T08:07:58Z</time>
      </trkpt>
      <trkpt lat="45.02275" lon="5.84517">
        <ele>1448</ele>
        <time>2010-07-04T08:07:59Z</time>
      </trkpt>
      <trkpt lat="45.02279" lon="5.84517">
        <ele>1447</ele>
        <time>2010-07-04T08:08:00Z</time>
      </trkpt>
      <trkpt lat="45.02282" lon="5.84517">
        <ele>1446</ele>
        <time>2010-07-04T08:08:01Z</time>
      </trkpt>
      <trkpt lat="45.02285" lon="5.84517">
        <ele>1446</ele>
        <time>2010-07-04T08:08:02Z</time>
      </trkpt>
      <trkpt lat="45.02288" lon="5.84518">
        <ele>1445</ele>
        <time>2010-07-04T08:08:03Z</time>
      </trkpt>
      <trkpt lat="45.02292" lon="5.84518">
        <ele>1444</ele>
        <time>2010-07-04T08:08:04Z</time>
      </trkpt>
      <trkpt lat="45.02295" lon="5.84519">
        <ele>1444</ele>
        <time>2010-07-04T08:08:05Z</time>
      </trkpt>
      <trkpt lat="45.02298" lon="5.84519">
        <ele>1443</ele>
        <time>2010-07-04T08:08:06Z</time>
      </trkpt>
      <trkpt lat="45.02301" lon="5.84519">
        <ele>1442</ele>
        <time>2010-07-04T08:08:07Z</time>
      </trkpt>
      <trkpt lat="45.02304" lon="5.84519">
        <ele>1442</ele>
        <time>2010-07-04T08:08:08Z</time>
      </trkpt>
      <trkpt lat="45.02308" lon="5.84519">
        <ele>1441</ele>
        <time>2010-07-04T08:08:09Z</time>
      </trkpt>
      <trkpt lat="45.02311" lon="5.8452">
        <ele>1440</ele>
        <time>2010-07-04T08:08:10Z</time>
      </trkpt>
      <trkpt lat="45.02314" lon="5.84521">
        <ele>1440</ele>
        <time>2010-07-04T08:08:11Z</time>
      </trkpt>
      <trkpt lat="45.02318" lon="5.84523">
        <ele>1439</ele>
        <time>2010-07-04T08:08:12Z</time>
      </trkpt>
      <trkpt lat="45.02321" lon="5.84524">
        <ele>1438</ele>
        <time>2010-07-04T08:08:13Z</time>
      </trkpt>
      <trkpt lat="45.02325" lon="5.84526">
        <ele>1438</ele>
        <time>2010-07-04T08:08:14Z</time>
      </trkpt>
      <trkpt lat="45.02329" lon="5.84527">
        <ele>1438</ele>
        <time>2010-07-04T08:08:15Z</time>
      </trkpt>
      <trkpt lat="45.02331" lon="5.84528">
        <ele>1438</ele>
        <time>2010-07-04T08:08:16Z</time>
      </trkpt>
      <trkpt lat="45.02335" lon="5.84529">
        <ele>1438</ele>
        <time>2010-07-04T08:08:17Z</time>
      </trkpt>
      <trkpt lat="45.02339" lon="5.8453">
        <ele>1438</ele>
        <time>2010-07-04T08:08:18Z</time>
      </trkpt>
      <trkpt lat="45.02342" lon="5.84531">
        <ele>1438</ele>
        <time>2010-07-04T08:08:19Z</time>
      </trkpt>
      <trkpt lat="45.02347" lon="5.84532">
        <ele>1438</ele>
        <time>2010-07-04T08:08:20Z</time>
      </trkpt>
      <trkpt lat="45.02351" lon="5.84532">
        <ele>1438</ele>
        <time>2010-07-04T08:08:21Z</time>
      </trkpt>
      <trkpt lat="45.02355" lon="5.84533">
        <ele>1438</ele>
        <time>2010-07-04T08:08:22Z</time>
      </trkpt>
      <trkpt lat="45.02358" lon="5.84533">
        <ele>1438</ele>
        <time>2010-07-04T08:08:23Z</time>
      </trkpt>
      <trkpt lat="45.02362" lon="5.84533">
        <ele>1438</ele>
        <time>2010-07-04T08:08:24Z</time>
      </trkpt>
      <trkpt lat="45.02365" lon="5.84532">
        <ele>1438</ele>
        <time>2010-07-04T08:08:25Z</time>
      </trkpt>
      <trkpt lat="45.02369" lon="5.84531">
        <ele>1438</ele>
        <time>2010-07-04T08:08:26Z</time>
      </trkpt>
      <trkpt lat="45.02372" lon="5.8453">
        <ele>1438</ele>
        <time>2010-07-04T08:08:27Z</time>
      </trkpt>
      <trkpt lat="45.02375" lon="5.84529">
        <ele>1438</ele>
        <time>2010-07-04T08:08:28Z</time>
      </trkpt>
      <trkpt lat="45.02379" lon="5.84528">
        <ele>1438</ele>
        <time>2010-07-04T08:08:29Z</time>
      </trkpt>
      <trkpt lat="45.02382" lon="5.84527">
        <ele>1438</ele>
        <time>2010-07-04T08:08:30Z</time>
      </trkpt>
      <trkpt lat="45.02386" lon="5.84526">
        <ele>1438</ele>
        <time>2010-07-04T08:08:31Z</time>
      </trkpt>
      <trkpt lat="45.02389" lon="5.84524">
        <ele>1438</ele>
        <time>2010-07-04T08:08:32Z</time>
      </trkpt>
      <trkpt lat="45.02392" lon="5.84523">
        <ele>1438</ele>
        <time>2010-07-04T08:08:33Z</time>
      </trkpt>
      <trkpt lat="45.02395" lon="5.84521">
        <ele>1438</ele>
        <time>2010-07-04T08:08:34Z</time>
      </trkpt>
      <trkpt lat="45.02399" lon="5.84519">
        <ele>1438</ele>
        <time>2010-07-04T08:08:35Z</time>
      </trkpt>
      <trkpt lat="45.02402" lon="5.84518">
        <ele>1437</ele>
        <time>2010-07-04T08:08:36Z</time>
      </trkpt>
      <trkpt lat="45.02406" lon="5.84516">
        <ele>1437</ele>
        <time>2010-07-04T08:08:37Z</time>
      </trkpt>
      <trkpt lat="45.02409" lon="5.84514">
        <ele>1437</ele>
        <time>2010-07-04T08:08:38Z</time>
      </trkpt>
      <trkpt lat="45.02412" lon="5.84512">
        <ele>1436</ele>
        <time>2010-07-04T08:08:39Z</time>
      </trkpt>
      <trkpt lat="45.02415" lon="5.8451">
        <ele>1436</ele>
        <time>2010-07-04T08:08:40Z</time>
      </trkpt>
      <trkpt lat="45.02417" lon="5.84509">
        <ele>1435</ele>
        <time>2010-07-04T08:08:41Z</time>
      </trkpt>
      <trkpt lat="45.0242" lon="5.84506">
        <ele>1435</ele>
        <time>2010-07-04T08:08:42Z</time>
      </trkpt>
      <trkpt lat="45.02423" lon="5.84504">
        <ele>1434</ele>
        <time>2010-07-04T08:08:43Z</time>
      </trkpt>
      <trkpt lat="45.02426" lon="5.84501">
        <ele>1434</ele>
        <time>2010-07-04T08:08:44Z</time>
      </trkpt>
      <trkpt lat="45.02429" lon="5.84499">
        <ele>1434</ele>
        <time>2010-07-04T08:08:45Z</time>
      </trkpt>
      <trkpt lat="45.02432" lon="5.84497">
        <ele>1434</ele>
        <time>2010-07-04T08:08:46Z</time>
      </trkpt>
      <trkpt lat="45.02435" lon="5.84494">
        <ele>1434</ele>
        <time>2010-07-04T08:08:47Z</time>
      </trkpt>
      <trkpt lat="45.02437" lon="5.84491">
        <ele>1434</ele>
        <time>2010-07-04T08:08:48Z</time>
      </trkpt>
      <trkpt lat="45.0244" lon="5.84489">
        <ele>1434</ele>
        <time>2010-07-04T08:08:49Z</time>
      </trkpt>
      <trkpt lat="45.02443" lon="5.84485">
        <ele>1434</ele>
        <time>2010-07-04T08:08:50Z</time>
      </trkpt>
      <trkpt lat="45.02446" lon="5.84482">
        <ele>1434</ele>
        <time>2010-07-04T08:08:51Z</time>
      </trkpt>
      <trkpt lat="45.02449" lon="5.8448">
        <ele>1434</ele>
        <time>2010-07-04T08:08:52Z</time>
      </trkpt>
      <trkpt lat="45.02451" lon="5.84478">
        <ele>1434</ele>
        <time>2010-07-04T08:08:53Z</time>
      </trkpt>
      <trkpt lat="45.02454" lon="5.84475">
        <ele>1434</ele>
        <time>2010-07-04T08:08:54Z</time>
      </trkpt>
      <trkpt lat="45.02456" lon="5.84472">
        <ele>1434</ele>
        <time>2010-07-04T08:08:55Z</time>
      </trkpt>
      <trkpt lat="45.02459" lon="5.84471">
        <ele>1434</ele>
        <time>2010-07-04T08:08:56Z</time>
      </trkpt>
      <trkpt lat="45.02461" lon="5.84469">
        <ele>1434</ele>
        <time>2010-07-04T08:08:57Z</time>
      </trkpt>
      <trkpt lat="45.02462" lon="5.84467">
        <ele>1434</ele>
        <time>2010-07-04T08:08:58Z</time>
      </trkpt>
      <trkpt lat="45.02463" lon="5.84467">
        <ele>1434</ele>
        <time>2010-07-04T08:09:07Z</time>
      </trkpt>
      <trkpt lat="45.02464" lon="5.84468">
        <ele>1434</ele>
        <time>2010-07-04T08:09:08Z</time>
      </trkpt>
      <trkpt lat="45.02466" lon="5.8447">
        <ele>1434</ele>
        <time>2010-07-04T08:09:09Z</time>
      </trkpt>
      <trkpt lat="45.02468" lon="5.84472">
        <ele>1434</ele>
        <time>2010-07-04T08:09:10Z</time>
      </trkpt>
      <trkpt lat="45.0247" lon="5.84474">
        <ele>1434</ele>
        <time>2010-07-04T08:09:11Z</time>
      </trkpt>
      <trkpt lat="45.02471" lon="5.84476">
        <ele>1434</ele>
        <time>2010-07-04T08:09:12Z</time>
      </trkpt>
      <trkpt lat="45.02473" lon="5.84478">
        <ele>1434</ele>
        <time>2010-07-04T08:09:13Z</time>
      </trkpt>
      <trkpt lat="45.02475" lon="5.84479">
        <ele>1434</ele>
        <time>2010-07-04T08:09:14Z</time>
      </trkpt>
      <trkpt lat="45.02477" lon="5.8448">
        <ele>1434</ele>
        <time>2010-07-04T08:09:15Z</time>
      </trkpt>
      <trkpt lat="45.0248" lon="5.84481">
        <ele>1434</ele>
        <time>2010-07-04T08:09:16Z</time>
      </trkpt>
      <trkpt lat="45.02482" lon="5.84481">
        <ele>1434</ele>
        <time>2010-07-04T08:09:17Z</time>
      </trkpt>
      <trkpt lat="45.02484" lon="5.84482">
        <ele>1434</ele>
        <time>2010-07-04T08:09:18Z</time>
      </trkpt>
      <trkpt lat="45.02486" lon="5.84483">
        <ele>1434</ele>
        <time>2010-07-04T08:09:19Z</time>
      </trkpt>
      <trkpt lat="45.02488" lon="5.84484">
        <ele>1434</ele>
        <time>2010-07-04T08:09:20Z</time>
      </trkpt>
      <trkpt lat="45.02491" lon="5.84484">
        <ele>1434</ele>
        <time>2010-07-04T08:09:21Z</time>
      </trkpt>
      <trkpt lat="45.02493" lon="5.84485">
        <ele>1434</ele>
        <time>2010-07-04T08:09:22Z</time>
      </trkpt>
      <trkpt lat="45.02495" lon="5.84485">
        <ele>1435</ele>
        <time>2010-07-04T08:09:23Z</time>
      </trkpt>
      <trkpt lat="45.02497" lon="5.84485">
        <ele>1436</ele>
        <time>2010-07-04T08:09:24Z</time>
      </trkpt>
      <trkpt lat="45.025" lon="5.84486">
        <ele>1436</ele>
        <time>2010-07-04T08:09:25Z</time>
      </trkpt>
      <trkpt lat="45.02502" lon="5.84488">
        <ele>1437</ele>
        <time>2010-07-04T08:09:26Z</time>
      </trkpt>
      <trkpt lat="45.02504" lon="5.84489">
        <ele>1438</ele>
        <time>2010-07-04T08:09:27Z</time>
      </trkpt>
      <trkpt lat="45.02506" lon="5.8449">
        <ele>1438</ele>
        <time>2010-07-04T08:09:28Z</time>
      </trkpt>
      <trkpt lat="45.02508" lon="5.84492">
        <ele>1439</ele>
        <time>2010-07-04T08:09:29Z</time>
      </trkpt>
      <trkpt lat="45.0251" lon="5.84493">
        <ele>1440</ele>
        <time>2010-07-04T08:09:30Z</time>
      </trkpt>
      <trkpt lat="45.02512" lon="5.84495">
        <ele>1440</ele>
        <time>2010-07-04T08:09:31Z</time>
      </trkpt>
      <trkpt lat="45.02513" lon="5.84496">
        <ele>1441</ele>
        <time>2010-07-04T08:09:32Z</time>
      </trkpt>
      <trkpt lat="45.02515" lon="5.84498">
        <ele>1441</ele>
        <time>2010-07-04T08:09:33Z</time>
      </trkpt>
      <trkpt lat="45.02517" lon="5.84501">
        <ele>1442</ele>
        <time>2010-07-04T08:09:34Z</time>
      </trkpt>
      <trkpt lat="45.02519" lon="5.84503">
        <ele>1442</ele>
        <time>2010-07-04T08:09:35Z</time>
      </trkpt>
      <trkpt lat="45.0252" lon="5.84505">
        <ele>1443</ele>
        <time>2010-07-04T08:09:36Z</time>
      </trkpt>
      <trkpt lat="45.02521" lon="5.84508">
        <ele>1443</ele>
        <time>2010-07-04T08:09:37Z</time>
      </trkpt>
      <trkpt lat="45.02522" lon="5.84511">
        <ele>1443</ele>
        <time>2010-07-04T08:09:38Z</time>
      </trkpt>
      <trkpt lat="45.02523" lon="5.84513">
        <ele>1444</ele>
        <time>2010-07-04T08:09:39Z</time>
      </trkpt>
      <trkpt lat="45.02525" lon="5.84516">
        <ele>1444</ele>
        <time>2010-07-04T08:09:40Z</time>
      </trkpt>
      <trkpt lat="45.02526" lon="5.84519">
        <ele>1445</ele>
        <time>2010-07-04T08:09:41Z</time>
      </trkpt>
      <trkpt lat="45.02527" lon="5.84521">
        <ele>1445</ele>
        <time>2010-07-04T08:09:42Z</time>
      </trkpt>
      <trkpt lat="45.02528" lon="5.84524">
        <ele>1445</ele>
        <time>2010-07-04T08:09:43Z</time>
      </trkpt>
      <trkpt lat="45.02529" lon="5.84527">
        <ele>1446</ele>
        <time>2010-07-04T08:09:44Z</time>
      </trkpt>
      <trkpt lat="45.02529" lon="5.8453">
        <ele>1446</ele>
        <time>2010-07-04T08:09:45Z</time>
      </trkpt>
      <trkpt lat="45.0253" lon="5.84532">
        <ele>1447</ele>
        <time>2010-07-04T08:09:46Z</time>
      </trkpt>
      <trkpt lat="45.02531" lon="5.84535">
        <ele>1447</ele>
        <time>2010-07-04T08:09:47Z</time>
      </trkpt>
      <trkpt lat="45.02531" lon="5.84538">
        <ele>1447</ele>
        <time>2010-07-04T08:09:48Z</time>
      </trkpt>
      <trkpt lat="45.02532" lon="5.8454">
        <ele>1448</ele>
        <time>2010-07-04T08:09:49Z</time>
      </trkpt>
      <trkpt lat="45.02533" lon="5.84543">
        <ele>1448</ele>
        <time>2010-07-04T08:09:50Z</time>
      </trkpt>
      <trkpt lat="45.02534" lon="5.84546">
        <ele>1448</ele>
        <time>2010-07-04T08:09:51Z</time>
      </trkpt>
      <trkpt lat="45.02535" lon="5.84549">
        <ele>1449</ele>
        <time>2010-07-04T08:09:52Z</time>
      </trkpt>
      <trkpt lat="45.02536" lon="5.84551">
        <ele>1449</ele>
        <time>2010-07-04T08:09:53Z</time>
      </trkpt>
      <trkpt lat="45.02537" lon="5.84554">
        <ele>1449</ele>
        <time>2010-07-04T08:09:54Z</time>
      </trkpt>
      <trkpt lat="45.02538" lon="5.84556">
        <ele>1450</ele>
        <time>2010-07-04T08:09:55Z</time>
      </trkpt>
      <trkpt lat="45.02538" lon="5.84559">
        <ele>1450</ele>
        <time>2010-07-04T08:09:56Z</time>
      </trkpt>
      <trkpt lat="45.02539" lon="5.84562">
        <ele>1450</ele>
        <time>2010-07-04T08:09:57Z</time>
      </trkpt>
      <trkpt lat="45.0254" lon="5.84564">
        <ele>1450</ele>
        <time>2010-07-04T08:09:58Z</time>
      </trkpt>
      <trkpt lat="45.02541" lon="5.84567">
        <ele>1451</ele>
        <time>2010-07-04T08:09:59Z</time>
      </trkpt>
      <trkpt lat="45.02542" lon="5.8457">
        <ele>1451</ele>
        <time>2010-07-04T08:10:00Z</time>
      </trkpt>
      <trkpt lat="45.02543" lon="5.84573">
        <ele>1451</ele>
        <time>2010-07-04T08:10:01Z</time>
      </trkpt>
      <trkpt lat="45.02544" lon="5.84577">
        <ele>1452</ele>
        <time>2010-07-04T08:10:02Z</time>
      </trkpt>
      <trkpt lat="45.02544" lon="5.8458">
        <ele>1452</ele>
        <time>2010-07-04T08:10:03Z</time>
      </trkpt>
      <trkpt lat="45.02545" lon="5.84583">
        <ele>1452</ele>
        <time>2010-07-04T08:10:04Z</time>
      </trkpt>
      <trkpt lat="45.02546" lon="5.84586">
        <ele>1452</ele>
        <time>2010-07-04T08:10:05Z</time>
      </trkpt>
      <trkpt lat="45.02547" lon="5.84589">
        <ele>1452</ele>
        <time>2010-07-04T08:10:06Z</time>
      </trkpt>
      <trkpt lat="45.02547" lon="5.84591">
        <ele>1453</ele>
        <time>2010-07-04T08:10:07Z</time>
      </trkpt>
      <trkpt lat="45.02548" lon="5.84595">
        <ele>1453</ele>
        <time>2010-07-04T08:10:08Z</time>
      </trkpt>
      <trkpt lat="45.02548" lon="5.84598">
        <ele>1453</ele>
        <time>2010-07-04T08:10:09Z</time>
      </trkpt>
      <trkpt lat="45.02548" lon="5.84601">
        <ele>1454</ele>
        <time>2010-07-04T08:10:10Z</time>
      </trkpt>
      <trkpt lat="45.02548" lon="5.84604">
        <ele>1454</ele>
        <time>2010-07-04T08:10:11Z</time>
      </trkpt>
      <trkpt lat="45.02548" lon="5.84607">
        <ele>1454</ele>
        <time>2010-07-04T08:10:12Z</time>
      </trkpt>
      <trkpt lat="45.02548" lon="5.8461">
        <ele>1454</ele>
        <time>2010-07-04T08:10:13Z</time>
      </trkpt>
      <trkpt lat="45.02549" lon="5.84614">
        <ele>1454</ele>
        <time>2010-07-04T08:10:14Z</time>
      </trkpt>
      <trkpt lat="45.02549" lon="5.84616">
        <ele>1455</ele>
        <time>2010-07-04T08:10:15Z</time>
      </trkpt>
      <trkpt lat="45.02549" lon="5.84619">
        <ele>1455</ele>
        <time>2010-07-04T08:10:16Z</time>
      </trkpt>
      <trkpt lat="45.02549" lon="5.84622">
        <ele>1455</ele>
        <time>2010-07-04T08:10:17Z</time>
      </trkpt>
      <trkpt lat="45.02549" lon="5.84625">
        <ele>1456</ele>
        <time>2010-07-04T08:10:18Z</time>
      </trkpt>
      <trkpt lat="45.02549" lon="5.84629">
        <ele>1456</ele>
        <time>2010-07-04T08:10:19Z</time>
      </trkpt>
      <trkpt lat="45.02549" lon="5.84633">
        <ele>1456</ele>
        <time>2010-07-04T08:10:20Z</time>
      </trkpt>
      <trkpt lat="45.02549" lon="5.84636">
        <ele>1457</ele>
        <time>2010-07-04T08:10:21Z</time>
      </trkpt>
      <trkpt lat="45.02549" lon="5.84639">
        <ele>1457</ele>
        <time>2010-07-04T08:10:22Z</time>
      </trkpt>
      <trkpt lat="45.02548" lon="5.84642">
        <ele>1457</ele>
        <time>2010-07-04T08:10:23Z</time>
      </trkpt>
      <trkpt lat="45.02548" lon="5.84645">
        <ele>1457</ele>
        <time>2010-07-04T08:10:24Z</time>
      </trkpt>
      <trkpt lat="45.02548" lon="5.84648">
        <ele>1458</ele>
        <time>2010-07-04T08:10:25Z</time>
      </trkpt>
      <trkpt lat="45.02549" lon="5.8465">
        <ele>1458</ele>
        <time>2010-07-04T08:10:26Z</time>
      </trkpt>
      <trkpt lat="45.02548" lon="5.84651">
        <ele>1458</ele>
        <time>2010-07-04T08:10:27Z</time>
      </trkpt>
      <trkpt lat="45.02549" lon="5.84653">
        <ele>1458</ele>
        <time>2010-07-04T08:10:28Z</time>
      </trkpt>
      <trkpt lat="45.02549" lon="5.84655">
        <ele>1458</ele>
        <time>2010-07-04T08:10:29Z</time>
      </trkpt>
      <trkpt lat="45.02549" lon="5.84657">
        <ele>1458</ele>
        <time>2010-07-04T08:10:30Z</time>
      </trkpt>
      <trkpt lat="45.02549" lon="5.84658">
        <ele>1458</ele>
        <time>2010-07-04T08:10:31Z</time>
      </trkpt>
      <trkpt lat="45.02549" lon="5.8466">
        <ele>1458</ele>
        <time>2010-07-04T08:10:32Z</time>
      </trkpt>
      <trkpt lat="45.02549" lon="5.84662">
        <ele>1458</ele>
        <time>2010-07-04T08:10:33Z</time>
      </trkpt>
      <trkpt lat="45.02549" lon="5.84664">
        <ele>1458</ele>
        <time>2010-07-04T08:10:34Z</time>
      </trkpt>
      <trkpt lat="45.02549" lon="5.84666">
        <ele>1458</ele>
        <time>2010-07-04T08:10:35Z</time>
      </trkpt>
      <trkpt lat="45.02549" lon="5.84668">
        <ele>1458</ele>
        <time>2010-07-04T08:10:36Z</time>
      </trkpt>
      <trkpt lat="45.02549" lon="5.8467">
        <ele>1458</ele>
        <time>2010-07-04T08:10:37Z</time>
      </trkpt>
      <trkpt lat="45.02549" lon="5.84672">
        <ele>1458</ele>
        <time>2010-07-04T08:10:38Z</time>
      </trkpt>
      <trkpt lat="45.02549" lon="5.84674">
        <ele>1458</ele>
        <time>2010-07-04T08:10:39Z</time>
      </trkpt>
      <trkpt lat="45.02549" lon="5.84676">
        <ele>1458</ele>
        <time>2010-07-04T08:10:40Z</time>
      </trkpt>
      <trkpt lat="45.02548" lon="5.84678">
        <ele>1458</ele>
        <time>2010-07-04T08:10:41Z</time>
      </trkpt>
      <trkpt lat="45.02548" lon="5.8468">
        <ele>1458</ele>
        <time>2010-07-04T08:10:42Z</time>
      </trkpt>
      <trkpt lat="45.02548" lon="5.84681">
        <ele>1458</ele>
        <time>2010-07-04T08:10:43Z</time>
      </trkpt>
      <trkpt lat="45.02548" lon="5.84683">
        <ele>1458</ele>
        <time>2010-07-04T08:10:44Z</time>
      </trkpt>
      <trkpt lat="45.02548" lon="5.84685">
        <ele>1458</ele>
        <time>2010-07-04T08:10:45Z</time>
      </trkpt>
      <trkpt lat="45.02548" lon="5.84687">
        <ele>1458</ele>
        <time>2010-07-04T08:10:46Z</time>
      </trkpt>
      <trkpt lat="45.02548" lon="5.84688">
        <ele>1458</ele>
        <time>2010-07-04T08:10:47Z</time>
      </trkpt>
      <trkpt lat="45.02548" lon="5.8469">
        <ele>1458</ele>
        <time>2010-07-04T08:10:48Z</time>
      </trkpt>
      <trkpt lat="45.02548" lon="5.84692">
        <ele>1459</ele>
        <time>2010-07-04T08:10:49Z</time>
      </trkpt>
      <trkpt lat="45.02548" lon="5.84693">
        <ele>1459</ele>
        <time>2010-07-04T08:10:50Z</time>
      </trkpt>
      <trkpt lat="45.02548" lon="5.84695">
        <ele>1459</ele>
        <time>2010-07-04T08:10:51Z</time>
      </trkpt>
      <trkpt lat="45.02548" lon="5.84697">
        <ele>1459</ele>
        <time>2010-07-04T08:10:52Z</time>
      </trkpt>
      <trkpt lat="45.02547" lon="5.84699">
        <ele>1460</ele>
        <time>2010-07-04T08:10:53Z</time>
      </trkpt>
      <trkpt lat="45.02547" lon="5.84701">
        <ele>1460</ele>
        <time>2010-07-04T08:10:54Z</time>
      </trkpt>
      <trkpt lat="45.02547" lon="5.84703">
        <ele>1460</ele>
        <time>2010-07-04T08:10:55Z</time>
      </trkpt>
      <trkpt lat="45.02547" lon="5.84705">
        <ele>1460</ele>
        <time>2010-07-04T08:10:56Z</time>
      </trkpt>
      <trkpt lat="45.02547" lon="5.84706">
        <ele>1461</ele>
        <time>2010-07-04T08:10:57Z</time>
      </trkpt>
      <trkpt lat="45.02547" lon="5.84708">
        <ele>1461</ele>
        <time>2010-07-04T08:10:58Z</time>
      </trkpt>
      <trkpt lat="45.02547" lon="5.8471">
        <ele>1461</ele>
        <time>2010-07-04T08:10:59Z</time>
      </trkpt>
      <trkpt lat="45.02547" lon="5.84712">
        <ele>1461</ele>
        <time>2010-07-04T08:11:00Z</time>
      </trkpt>
      <trkpt lat="45.02547" lon="5.84715">
        <ele>1462</ele>
        <time>2010-07-04T08:11:01Z</time>
      </trkpt>
      <trkpt lat="45.02547" lon="5.84717">
        <ele>1462</ele>
        <time>2010-07-04T08:11:02Z</time>
      </trkpt>
      <trkpt lat="45.02547" lon="5.8472">
        <ele>1462</ele>
        <time>2010-07-04T08:11:03Z</time>
      </trkpt>
      <trkpt lat="45.02547" lon="5.84724">
        <ele>1462</ele>
        <time>2010-07-04T08:11:04Z</time>
      </trkpt>
      <trkpt lat="45.02546" lon="5.84727">
        <ele>1462</ele>
        <time>2010-07-04T08:11:05Z</time>
      </trkpt>
      <trkpt lat="45.02547" lon="5.8473">
        <ele>1463</ele>
        <time>2010-07-04T08:11:06Z</time>
      </trkpt>
      <trkpt lat="45.02547" lon="5.84733">
        <ele>1463</ele>
        <time>2010-07-04T08:11:07Z</time>
      </trkpt>
      <trkpt lat="45.02546" lon="5.84736">
        <ele>1463</ele>
        <time>2010-07-04T08:11:08Z</time>
      </trkpt>
      <trkpt lat="45.02546" lon="5.84739">
        <ele>1463</ele>
        <time>2010-07-04T08:11:09Z</time>
      </trkpt>
      <trkpt lat="45.02545" lon="5.84743">
        <ele>1463</ele>
        <time>2010-07-04T08:11:10Z</time>
      </trkpt>
      <trkpt lat="45.02545" lon="5.84747">
        <ele>1464</ele>
        <time>2010-07-04T08:11:11Z</time>
      </trkpt>
      <trkpt lat="45.02545" lon="5.84751">
        <ele>1464</ele>
        <time>2010-07-04T08:11:12Z</time>
      </trkpt>
      <trkpt lat="45.02545" lon="5.84754">
        <ele>1464</ele>
        <time>2010-07-04T08:11:13Z</time>
      </trkpt>
      <trkpt lat="45.02545" lon="5.84758">
        <ele>1464</ele>
        <time>2010-07-04T08:11:14Z</time>
      </trkpt>
      <trkpt lat="45.02545" lon="5.84762">
        <ele>1465</ele>
        <time>2010-07-04T08:11:15Z</time>
      </trkpt>
      <trkpt lat="45.02545" lon="5.84765">
        <ele>1466</ele>
        <time>2010-07-04T08:11:16Z</time>
      </trkpt>
      <trkpt lat="45.02545" lon="5.84769">
        <ele>1466</ele>
        <time>2010-07-04T08:11:17Z</time>
      </trkpt>
      <trkpt lat="45.02545" lon="5.84773">
        <ele>1466</ele>
        <time>2010-07-04T08:11:18Z</time>
      </trkpt>
      <trkpt lat="45.02544" lon="5.84777">
        <ele>1467</ele>
        <time>2010-07-04T08:11:19Z</time>
      </trkpt>
      <trkpt lat="45.02544" lon="5.8478">
        <ele>1467</ele>
        <time>2010-07-04T08:11:20Z</time>
      </trkpt>
      <trkpt lat="45.02545" lon="5.84784">
        <ele>1467</ele>
        <time>2010-07-04T08:11:21Z</time>
      </trkpt>
      <trkpt lat="45.02545" lon="5.84788">
        <ele>1467</ele>
        <time>2010-07-04T08:11:22Z</time>
      </trkpt>
      <trkpt lat="45.02545" lon="5.84791">
        <ele>1468</ele>
        <time>2010-07-04T08:11:23Z</time>
      </trkpt>
      <trkpt lat="45.02545" lon="5.84795">
        <ele>1468</ele>
        <time>2010-07-04T08:11:24Z</time>
      </trkpt>
      <trkpt lat="45.02545" lon="5.84798">
        <ele>1468</ele>
        <time>2010-07-04T08:11:25Z</time>
      </trkpt>
      <trkpt lat="45.02545" lon="5.84802">
        <ele>1468</ele>
        <time>2010-07-04T08:11:26Z</time>
      </trkpt>
      <trkpt lat="45.02545" lon="5.84805">
        <ele>1468</ele>
        <time>2010-07-04T08:11:27Z</time>
      </trkpt>
      <trkpt lat="45.02545" lon="5.84808">
        <ele>1468</ele>
        <time>2010-07-04T08:11:28Z</time>
      </trkpt>
      <trkpt lat="45.02545" lon="5.84811">
        <ele>1468</ele>
        <time>2010-07-04T08:11:29Z</time>
      </trkpt>
      <trkpt lat="45.02545" lon="5.84815">
        <ele>1468</ele>
        <time>2010-07-04T08:11:30Z</time>
      </trkpt>
      <trkpt lat="45.02545" lon="5.84818">
        <ele>1468</ele>
        <time>2010-07-04T08:11:31Z</time>
      </trkpt>
      <trkpt lat="45.02545" lon="5.84821">
        <ele>1468</ele>
        <time>2010-07-04T08:11:32Z</time>
      </trkpt>
      <trkpt lat="45.02545" lon="5.84825">
        <ele>1468</ele>
        <time>2010-07-04T08:11:33Z</time>
      </trkpt>
      <trkpt lat="45.02546" lon="5.84829">
        <ele>1469</ele>
        <time>2010-07-04T08:11:34Z</time>
      </trkpt>
      <trkpt lat="45.02547" lon="5.84832">
        <ele>1469</ele>
        <time>2010-07-04T08:11:35Z</time>
      </trkpt>
      <trkpt lat="45.02547" lon="5.84835">
        <ele>1469</ele>
        <time>2010-07-04T08:11:36Z</time>
      </trkpt>
      <trkpt lat="45.02547" lon="5.84839">
        <ele>1469</ele>
        <time>2010-07-04T08:11:37Z</time>
      </trkpt>
      <trkpt lat="45.02547" lon="5.84842">
        <ele>1470</ele>
        <time>2010-07-04T08:11:38Z</time>
      </trkpt>
      <trkpt lat="45.02547" lon="5.84846">
        <ele>1470</ele>
        <time>2010-07-04T08:11:39Z</time>
      </trkpt>
      <trkpt lat="45.02546" lon="5.84849">
        <ele>1470</ele>
        <time>2010-07-04T08:11:40Z</time>
      </trkpt>
      <trkpt lat="45.02546" lon="5.84853">
        <ele>1471</ele>
        <time>2010-07-04T08:11:41Z</time>
      </trkpt>
      <trkpt lat="45.02545" lon="5.84856">
        <ele>1471</ele>
        <time>2010-07-04T08:11:42Z</time>
      </trkpt>
      <trkpt lat="45.02546" lon="5.8486">
        <ele>1471</ele>
        <time>2010-07-04T08:11:43Z</time>
      </trkpt>
      <trkpt lat="45.02546" lon="5.84863">
        <ele>1471</ele>
        <time>2010-07-04T08:11:44Z</time>
      </trkpt>
      <trkpt lat="45.02545" lon="5.84867">
        <ele>1472</ele>
        <time>2010-07-04T08:11:45Z</time>
      </trkpt>
      <trkpt lat="45.02546" lon="5.8487">
        <ele>1472</ele>
        <time>2010-07-04T08:11:46Z</time>
      </trkpt>
      <trkpt lat="45.02545" lon="5.84874">
        <ele>1473</ele>
        <time>2010-07-04T08:11:47Z</time>
      </trkpt>
      <trkpt lat="45.02545" lon="5.84877">
        <ele>1474</ele>
        <time>2010-07-04T08:11:48Z</time>
      </trkpt>
      <trkpt lat="45.02545" lon="5.8488">
        <ele>1474</ele>
        <time>2010-07-04T08:11:49Z</time>
      </trkpt>
      <trkpt lat="45.02544" lon="5.84884">
        <ele>1475</ele>
        <time>2010-07-04T08:11:50Z</time>
      </trkpt>
      <trkpt lat="45.02543" lon="5.84887">
        <ele>1476</ele>
        <time>2010-07-04T08:11:51Z</time>
      </trkpt>
      <trkpt lat="45.02544" lon="5.84891">
        <ele>1477</ele>
        <time>2010-07-04T08:11:52Z</time>
      </trkpt>
      <trkpt lat="45.02543" lon="5.84894">
        <ele>1478</ele>
        <time>2010-07-04T08:11:53Z</time>
      </trkpt>
      <trkpt lat="45.02544" lon="5.84897">
        <ele>1479</ele>
        <time>2010-07-04T08:11:54Z</time>
      </trkpt>
      <trkpt lat="45.02544" lon="5.84901">
        <ele>1480</ele>
        <time>2010-07-04T08:11:55Z</time>
      </trkpt>
      <trkpt lat="45.02545" lon="5.84905">
        <ele>1481</ele>
        <time>2010-07-04T08:11:56Z</time>
      </trkpt>
      <trkpt lat="45.02544" lon="5.84908">
        <ele>1482</ele>
        <time>2010-07-04T08:11:57Z</time>
      </trkpt>
      <trkpt lat="45.02545" lon="5.84912">
        <ele>1483</ele>
        <time>2010-07-04T08:11:58Z</time>
      </trkpt>
      <trkpt lat="45.02545" lon="5.84915">
        <ele>1484</ele>
        <time>2010-07-04T08:11:59Z</time>
      </trkpt>
      <trkpt lat="45.02545" lon="5.84919">
        <ele>1485</ele>
        <time>2010-07-04T08:12:00Z</time>
      </trkpt>
      <trkpt lat="45.02544" lon="5.84922">
        <ele>1486</ele>
        <time>2010-07-04T08:12:01Z</time>
      </trkpt>
      <trkpt lat="45.02543" lon="5.84925">
        <ele>1487</ele>
        <time>2010-07-04T08:12:02Z</time>
      </trkpt>
      <trkpt lat="45.02541" lon="5.84928">
        <ele>1488</ele>
        <time>2010-07-04T08:12:03Z</time>
      </trkpt>
      <trkpt lat="45.0254" lon="5.84931">
        <ele>1489</ele>
        <time>2010-07-04T08:12:04Z</time>
      </trkpt>
      <trkpt lat="45.02539" lon="5.84934">
        <ele>1489</ele>
        <time>2010-07-04T08:12:05Z</time>
      </trkpt>
      <trkpt lat="45.02538" lon="5.84937">
        <ele>1490</ele>
        <time>2010-07-04T08:12:06Z</time>
      </trkpt>
      <trkpt lat="45.02538" lon="5.84941">
        <ele>1490</ele>
        <time>2010-07-04T08:12:07Z</time>
      </trkpt>
      <trkpt lat="45.02536" lon="5.84943">
        <ele>1490</ele>
        <time>2010-07-04T08:12:08Z</time>
      </trkpt>
      <trkpt lat="45.02535" lon="5.84947">
        <ele>1490</ele>
        <time>2010-07-04T08:12:09Z</time>
      </trkpt>
      <trkpt lat="45.02535" lon="5.84951">
        <ele>1490</ele>
        <time>2010-07-04T08:12:10Z</time>
      </trkpt>
      <trkpt lat="45.02534" lon="5.84955">
        <ele>1491</ele>
        <time>2010-07-04T08:12:11Z</time>
      </trkpt>
      <trkpt lat="45.02533" lon="5.84957">
        <ele>1492</ele>
        <time>2010-07-04T08:12:12Z</time>
      </trkpt>
      <trkpt lat="45.02532" lon="5.84961">
        <ele>1493</ele>
        <time>2010-07-04T08:12:13Z</time>
      </trkpt>
      <trkpt lat="45.02532" lon="5.84965">
        <ele>1494</ele>
        <time>2010-07-04T08:12:14Z</time>
      </trkpt>
      <trkpt lat="45.02531" lon="5.84969">
        <ele>1495</ele>
        <time>2010-07-04T08:12:15Z</time>
      </trkpt>
      <trkpt lat="45.0253" lon="5.84973">
        <ele>1495</ele>
        <time>2010-07-04T08:12:16Z</time>
      </trkpt>
      <trkpt lat="45.02529" lon="5.84977">
        <ele>1496</ele>
        <time>2010-07-04T08:12:17Z</time>
      </trkpt>
      <trkpt lat="45.02529" lon="5.8498">
        <ele>1496</ele>
        <time>2010-07-04T08:12:18Z</time>
      </trkpt>
      <trkpt lat="45.02527" lon="5.84984">
        <ele>1497</ele>
        <time>2010-07-04T08:12:19Z</time>
      </trkpt>
      <trkpt lat="45.02526" lon="5.84988">
        <ele>1497</ele>
        <time>2010-07-04T08:12:20Z</time>
      </trkpt>
      <trkpt lat="45.02525" lon="5.84991">
        <ele>1497</ele>
        <time>2010-07-04T08:12:21Z</time>
      </trkpt>
      <trkpt lat="45.02524" lon="5.84995">
        <ele>1498</ele>
        <time>2010-07-04T08:12:22Z</time>
      </trkpt>
      <trkpt lat="45.02523" lon="5.84998">
        <ele>1498</ele>
        <time>2010-07-04T08:12:23Z</time>
      </trkpt>
      <trkpt lat="45.02522" lon="5.85001">
        <ele>1498</ele>
        <time>2010-07-04T08:12:24Z</time>
      </trkpt>
      <trkpt lat="45.02522" lon="5.85005">
        <ele>1498</ele>
        <time>2010-07-04T08:12:25Z</time>
      </trkpt>
      <trkpt lat="45.02521" lon="5.85008">
        <ele>1498</ele>
        <time>2010-07-04T08:12:26Z</time>
      </trkpt>
      <trkpt lat="45.02521" lon="5.85012">
        <ele>1498</ele>
        <time>2010-07-04T08:12:27Z</time>
      </trkpt>
      <trkpt lat="45.02519" lon="5.85016">
        <ele>1498</ele>
        <time>2010-07-04T08:12:28Z</time>
      </trkpt>
      <trkpt lat="45.02518" lon="5.85019">
        <ele>1498</ele>
        <time>2010-07-04T08:12:29Z</time>
      </trkpt>
      <trkpt lat="45.02517" lon="5.85023">
        <ele>1498</ele>
        <time>2010-07-04T08:12:30Z</time>
      </trkpt>
      <trkpt lat="45.02516" lon="5.85027">
        <ele>1498</ele>
        <time>2010-07-04T08:12:31Z</time>
      </trkpt>
      <trkpt lat="45.02514" lon="5.85031">
        <ele>1498</ele>
        <time>2010-07-04T08:12:32Z</time>
      </trkpt>
      <trkpt lat="45.02513" lon="5.85034">
        <ele>1498</ele>
        <time>2010-07-04T08:12:33Z</time>
      </trkpt>
      <trkpt lat="45.02512" lon="5.85037">
        <ele>1498</ele>
        <time>2010-07-04T08:12:34Z</time>
      </trkpt>
      <trkpt lat="45.02511" lon="5.85041">
        <ele>1498</ele>
        <time>2010-07-04T08:12:35Z</time>
      </trkpt>
      <trkpt lat="45.0251" lon="5.85044">
        <ele>1498</ele>
        <time>2010-07-04T08:12:36Z</time>
      </trkpt>
      <trkpt lat="45.02508" lon="5.85047">
        <ele>1498</ele>
        <time>2010-07-04T08:12:37Z</time>
      </trkpt>
      <trkpt lat="45.02507" lon="5.85051">
        <ele>1498</ele>
        <time>2010-07-04T08:12:38Z</time>
      </trkpt>
      <trkpt lat="45.02505" lon="5.85054">
        <ele>1498</ele>
        <time>2010-07-04T08:12:39Z</time>
      </trkpt>
      <trkpt lat="45.02503" lon="5.85057">
        <ele>1498</ele>
        <time>2010-07-04T08:12:40Z</time>
      </trkpt>
      <trkpt lat="45.02502" lon="5.8506">
        <ele>1498</ele>
        <time>2010-07-04T08:12:41Z</time>
      </trkpt>
      <trkpt lat="45.02501" lon="5.85063">
        <ele>1498</ele>
        <time>2010-07-04T08:12:42Z</time>
      </trkpt>
      <trkpt lat="45.025" lon="5.85066">
        <ele>1498</ele>
        <time>2010-07-04T08:12:43Z</time>
      </trkpt>
      <trkpt lat="45.02499" lon="5.85069">
        <ele>1498</ele>
        <time>2010-07-04T08:12:44Z</time>
      </trkpt>
      <trkpt lat="45.02498" lon="5.85072">
        <ele>1498</ele>
        <time>2010-07-04T08:12:45Z</time>
      </trkpt>
      <trkpt lat="45.02497" lon="5.85076">
        <ele>1498</ele>
        <time>2010-07-04T08:12:46Z</time>
      </trkpt>
      <trkpt lat="45.02497" lon="5.8508">
        <ele>1498</ele>
        <time>2010-07-04T08:12:47Z</time>
      </trkpt>
      <trkpt lat="45.02496" lon="5.85084">
        <ele>1498</ele>
        <time>2010-07-04T08:12:48Z</time>
      </trkpt>
      <trkpt lat="45.02495" lon="5.85087">
        <ele>1498</ele>
        <time>2010-07-04T08:12:49Z</time>
      </trkpt>
      <trkpt lat="45.02494" lon="5.8509">
        <ele>1498</ele>
        <time>2010-07-04T08:12:50Z</time>
      </trkpt>
      <trkpt lat="45.02494" lon="5.85094">
        <ele>1498</ele>
        <time>2010-07-04T08:12:51Z</time>
      </trkpt>
      <trkpt lat="45.02493" lon="5.85097">
        <ele>1498</ele>
        <time>2010-07-04T08:12:52Z</time>
      </trkpt>
      <trkpt lat="45.02493" lon="5.851">
        <ele>1498</ele>
        <time>2010-07-04T08:12:53Z</time>
      </trkpt>
      <trkpt lat="45.02492" lon="5.85104">
        <ele>1498</ele>
        <time>2010-07-04T08:12:54Z</time>
      </trkpt>
      <trkpt lat="45.02492" lon="5.85107">
        <ele>1498</ele>
        <time>2010-07-04T08:12:55Z</time>
      </trkpt>
      <trkpt lat="45.0249" lon="5.85111">
        <ele>1498</ele>
        <time>2010-07-04T08:12:56Z</time>
      </trkpt>
      <trkpt lat="45.0249" lon="5.85114">
        <ele>1498</ele>
        <time>2010-07-04T08:12:57Z</time>
      </trkpt>
      <trkpt lat="45.02489" lon="5.85117">
        <ele>1498</ele>
        <time>2010-07-04T08:12:58Z</time>
      </trkpt>
      <trkpt lat="45.02489" lon="5.8512">
        <ele>1498</ele>
        <time>2010-07-04T08:12:59Z</time>
      </trkpt>
      <trkpt lat="45.02487" lon="5.85123">
        <ele>1498</ele>
        <time>2010-07-04T08:13:00Z</time>
      </trkpt>
      <trkpt lat="45.02486" lon="5.85126">
        <ele>1498</ele>
        <time>2010-07-04T08:13:01Z</time>
      </trkpt>
      <trkpt lat="45.02485" lon="5.85129">
        <ele>1499</ele>
        <time>2010-07-04T08:13:02Z</time>
      </trkpt>
      <trkpt lat="45.02484" lon="5.85132">
        <ele>1499</ele>
        <time>2010-07-04T08:13:03Z</time>
      </trkpt>
      <trkpt lat="45.02482" lon="5.85134">
        <ele>1499</ele>
        <time>2010-07-04T08:13:04Z</time>
      </trkpt>
      <trkpt lat="45.0248" lon="5.85137">
        <ele>1499</ele>
        <time>2010-07-04T08:13:05Z</time>
      </trkpt>
      <trkpt lat="45.02479" lon="5.85139">
        <ele>1499</ele>
        <time>2010-07-04T08:13:06Z</time>
      </trkpt>
      <trkpt lat="45.02478" lon="5.85141">
        <ele>1499</ele>
        <time>2010-07-04T08:13:07Z</time>
      </trkpt>
      <trkpt lat="45.02477" lon="5.85144">
        <ele>1499</ele>
        <time>2010-07-04T08:13:08Z</time>
      </trkpt>
      <trkpt lat="45.02475" lon="5.85146">
        <ele>1499</ele>
        <time>2010-07-04T08:13:09Z</time>
      </trkpt>
      <trkpt lat="45.02473" lon="5.85148">
        <ele>1499</ele>
        <time>2010-07-04T08:13:10Z</time>
      </trkpt>
      <trkpt lat="45.02471" lon="5.8515">
        <ele>1499</ele>
        <time>2010-07-04T08:13:11Z</time>
      </trkpt>
      <trkpt lat="45.02469" lon="5.85152">
        <ele>1499</ele>
        <time>2010-07-04T08:13:12Z</time>
      </trkpt>
      <trkpt lat="45.02468" lon="5.85154">
        <ele>1499</ele>
        <time>2010-07-04T08:13:13Z</time>
      </trkpt>
      <trkpt lat="45.02466" lon="5.85156">
        <ele>1499</ele>
        <time>2010-07-04T08:13:14Z</time>
      </trkpt>
      <trkpt lat="45.02465" lon="5.85158">
        <ele>1499</ele>
        <time>2010-07-04T08:13:15Z</time>
      </trkpt>
      <trkpt lat="45.02463" lon="5.85159">
        <ele>1500</ele>
        <time>2010-07-04T08:13:16Z</time>
      </trkpt>
      <trkpt lat="45.02462" lon="5.85162">
        <ele>1500</ele>
        <time>2010-07-04T08:13:17Z</time>
      </trkpt>
      <trkpt lat="45.02461" lon="5.85165">
        <ele>1500</ele>
        <time>2010-07-04T08:13:18Z</time>
      </trkpt>
      <trkpt lat="45.0246" lon="5.85167">
        <ele>1501</ele>
        <time>2010-07-04T08:13:19Z</time>
      </trkpt>
      <trkpt lat="45.02458" lon="5.8517">
        <ele>1501</ele>
        <time>2010-07-04T08:13:20Z</time>
      </trkpt>
      <trkpt lat="45.02456" lon="5.85172">
        <ele>1501</ele>
        <time>2010-07-04T08:13:21Z</time>
      </trkpt>
      <trkpt lat="45.02454" lon="5.85174">
        <ele>1501</ele>
        <time>2010-07-04T08:13:22Z</time>
      </trkpt>
      <trkpt lat="45.02453" lon="5.85177">
        <ele>1501</ele>
        <time>2010-07-04T08:13:23Z</time>
      </trkpt>
      <trkpt lat="45.02451" lon="5.85181">
        <ele>1501</ele>
        <time>2010-07-04T08:13:24Z</time>
      </trkpt>
      <trkpt lat="45.0245" lon="5.85185">
        <ele>1502</ele>
        <time>2010-07-04T08:13:25Z</time>
      </trkpt>
      <trkpt lat="45.02448" lon="5.85188">
        <ele>1502</ele>
        <time>2010-07-04T08:13:26Z</time>
      </trkpt>
      <trkpt lat="45.02447" lon="5.8519">
        <ele>1503</ele>
        <time>2010-07-04T08:13:27Z</time>
      </trkpt>
      <trkpt lat="45.02446" lon="5.85192">
        <ele>1504</ele>
        <time>2010-07-04T08:13:28Z</time>
      </trkpt>
      <trkpt lat="45.02444" lon="5.85195">
        <ele>1505</ele>
        <time>2010-07-04T08:13:29Z</time>
      </trkpt>
      <trkpt lat="45.02442" lon="5.85197">
        <ele>1505</ele>
        <time>2010-07-04T08:13:30Z</time>
      </trkpt>
      <trkpt lat="45.0244" lon="5.85198">
        <ele>1505</ele>
        <time>2010-07-04T08:13:31Z</time>
      </trkpt>
      <trkpt lat="45.02438" lon="5.85199">
        <ele>1505</ele>
        <time>2010-07-04T08:13:32Z</time>
      </trkpt>
      <trkpt lat="45.02436" lon="5.85201">
        <ele>1505</ele>
        <time>2010-07-04T08:13:33Z</time>
      </trkpt>
      <trkpt lat="45.02434" lon="5.85204">
        <ele>1505</ele>
        <time>2010-07-04T08:13:35Z</time>
      </trkpt>
      <trkpt lat="45.02433" lon="5.85205">
        <ele>1505</ele>
        <time>2010-07-04T08:13:36Z</time>
      </trkpt>
      <trkpt lat="45.02431" lon="5.85206">
        <ele>1506</ele>
        <time>2010-07-04T08:13:37Z</time>
      </trkpt>
      <trkpt lat="45.02429" lon="5.85209">
        <ele>1507</ele>
        <time>2010-07-04T08:13:39Z</time>
      </trkpt>
      <trkpt lat="45.02428" lon="5.8521">
        <ele>1507</ele>
        <time>2010-07-04T08:13:40Z</time>
      </trkpt>
      <trkpt lat="45.02427" lon="5.85212">
        <ele>1508</ele>
        <time>2010-07-04T08:13:41Z</time>
      </trkpt>
      <trkpt lat="45.02425" lon="5.85213">
        <ele>1508</ele>
        <time>2010-07-04T08:13:42Z</time>
      </trkpt>
      <trkpt lat="45.02424" lon="5.85214">
        <ele>1508</ele>
        <time>2010-07-04T08:13:43Z</time>
      </trkpt>
      <trkpt lat="45.02422" lon="5.85216">
        <ele>1508</ele>
        <time>2010-07-04T08:13:44Z</time>
      </trkpt>
      <trkpt lat="45.02421" lon="5.85217">
        <ele>1508</ele>
        <time>2010-07-04T08:13:45Z</time>
      </trkpt>
      <trkpt lat="45.02419" lon="5.8522">
        <ele>1508</ele>
        <time>2010-07-04T08:13:47Z</time>
      </trkpt>
      <trkpt lat="45.02419" lon="5.85222">
        <ele>1509</ele>
        <time>2010-07-04T08:13:48Z</time>
      </trkpt>
      <trkpt lat="45.02418" lon="5.85225">
        <ele>1511</ele>
        <time>2010-07-04T08:13:50Z</time>
      </trkpt>
      <trkpt lat="45.02416" lon="5.85228">
        <ele>1513</ele>
        <time>2010-07-04T08:13:52Z</time>
      </trkpt>
      <trkpt lat="45.02415" lon="5.85229">
        <ele>1514</ele>
        <time>2010-07-04T08:13:53Z</time>
      </trkpt>
      <trkpt lat="45.02414" lon="5.8523">
        <ele>1514</ele>
        <time>2010-07-04T08:13:54Z</time>
      </trkpt>
      <trkpt lat="45.02412" lon="5.85231">
        <ele>1514</ele>
        <time>2010-07-04T08:13:56Z</time>
      </trkpt>
      <trkpt lat="45.02411" lon="5.85234">
        <ele>1515</ele>
        <time>2010-07-04T08:13:58Z</time>
      </trkpt>
      <trkpt lat="45.02409" lon="5.85236">
        <ele>1515</ele>
        <time>2010-07-04T08:14:00Z</time>
      </trkpt>
      <trkpt lat="45.02407" lon="5.85236">
        <ele>1515</ele>
        <time>2010-07-04T08:14:01Z</time>
      </trkpt>
      <trkpt lat="45.02405" lon="5.85239">
        <ele>1515</ele>
        <time>2010-07-04T08:14:03Z</time>
      </trkpt>
      <trkpt lat="45.02404" lon="5.8524">
        <ele>1515</ele>
        <time>2010-07-04T08:14:04Z</time>
      </trkpt>
      <trkpt lat="45.02402" lon="5.85243">
        <ele>1515</ele>
        <time>2010-07-04T08:14:06Z</time>
      </trkpt>
      <trkpt lat="45.02399" lon="5.85246">
        <ele>1515</ele>
        <time>2010-07-04T08:14:08Z</time>
      </trkpt>
      <trkpt lat="45.02398" lon="5.85247">
        <ele>1515</ele>
        <time>2010-07-04T08:14:09Z</time>
      </trkpt>
      <trkpt lat="45.02396" lon="5.85249">
        <ele>1515</ele>
        <time>2010-07-04T08:14:11Z</time>
      </trkpt>
      <trkpt lat="45.02395" lon="5.8525">
        <ele>1515</ele>
        <time>2010-07-04T08:14:12Z</time>
      </trkpt>
      <trkpt lat="45.02394" lon="5.85251">
        <ele>1515</ele>
        <time>2010-07-04T08:14:13Z</time>
      </trkpt>
      <trkpt lat="45.02392" lon="5.85253">
        <ele>1515</ele>
        <time>2010-07-04T08:14:15Z</time>
      </trkpt>
      <trkpt lat="45.0239" lon="5.85255">
        <ele>1515</ele>
        <time>2010-07-04T08:14:17Z</time>
      </trkpt>
      <trkpt lat="45.02389" lon="5.85256">
        <ele>1515</ele>
        <time>2010-07-04T08:14:19Z</time>
      </trkpt>
      <trkpt lat="45.02387" lon="5.85256">
        <ele>1515</ele>
        <time>2010-07-04T08:14:20Z</time>
      </trkpt>
      <trkpt lat="45.02386" lon="5.85257">
        <ele>1515</ele>
        <time>2010-07-04T08:14:21Z</time>
      </trkpt>
      <trkpt lat="45.02384" lon="5.8526">
        <ele>1515</ele>
        <time>2010-07-04T08:14:23Z</time>
      </trkpt>
      <trkpt lat="45.02383" lon="5.85262">
        <ele>1515</ele>
        <time>2010-07-04T08:14:24Z</time>
      </trkpt>
      <trkpt lat="45.02382" lon="5.85264">
        <ele>1515</ele>
        <time>2010-07-04T08:14:25Z</time>
      </trkpt>
      <trkpt lat="45.02381" lon="5.85266">
        <ele>1515</ele>
        <time>2010-07-04T08:14:27Z</time>
      </trkpt>
      <trkpt lat="45.0238" lon="5.85268">
        <ele>1515</ele>
        <time>2010-07-04T08:14:29Z</time>
      </trkpt>
      <trkpt lat="45.02379" lon="5.85271">
        <ele>1515</ele>
        <time>2010-07-04T08:14:31Z</time>
      </trkpt>
      <trkpt lat="45.02377" lon="5.85272">
        <ele>1515</ele>
        <time>2010-07-04T08:14:32Z</time>
      </trkpt>
      <trkpt lat="45.02376" lon="5.85274">
        <ele>1515</ele>
        <time>2010-07-04T08:14:33Z</time>
      </trkpt>
      <trkpt lat="45.02376" lon="5.85276">
        <ele>1515</ele>
        <time>2010-07-04T08:14:34Z</time>
      </trkpt>
      <trkpt lat="45.02375" lon="5.85277">
        <ele>1516</ele>
        <time>2010-07-04T08:14:35Z</time>
      </trkpt>
      <trkpt lat="45.02374" lon="5.85279">
        <ele>1517</ele>
        <time>2010-07-04T08:14:36Z</time>
      </trkpt>
      <trkpt lat="45.02372" lon="5.85282">
        <ele>1519</ele>
        <time>2010-07-04T08:14:38Z</time>
      </trkpt>
      <trkpt lat="45.02371" lon="5.85283">
        <ele>1520</ele>
        <time>2010-07-04T08:14:39Z</time>
      </trkpt>
      <trkpt lat="45.0237" lon="5.85285">
        <ele>1521</ele>
        <time>2010-07-04T08:14:40Z</time>
      </trkpt>
      <trkpt lat="45.02369" lon="5.85286">
        <ele>1522</ele>
        <time>2010-07-04T08:14:41Z</time>
      </trkpt>
      <trkpt lat="45.02368" lon="5.85288">
        <ele>1523</ele>
        <time>2010-07-04T08:14:42Z</time>
      </trkpt>
      <trkpt lat="45.02366" lon="5.85291">
        <ele>1525</ele>
        <time>2010-07-04T08:14:44Z</time>
      </trkpt>
      <trkpt lat="45.02365" lon="5.85292">
        <ele>1525</ele>
        <time>2010-07-04T08:14:45Z</time>
      </trkpt>
      <trkpt lat="45.02364" lon="5.85293">
        <ele>1525</ele>
        <time>2010-07-04T08:14:46Z</time>
      </trkpt>
      <trkpt lat="45.02362" lon="5.85294">
        <ele>1525</ele>
        <time>2010-07-04T08:14:47Z</time>
      </trkpt>
      <trkpt lat="45.02361" lon="5.85295">
        <ele>1525</ele>
        <time>2010-07-04T08:14:48Z</time>
      </trkpt>
      <trkpt lat="45.0236" lon="5.85297">
        <ele>1525</ele>
        <time>2010-07-04T08:14:49Z</time>
      </trkpt>
      <trkpt lat="45.02359" lon="5.85299">
        <ele>1525</ele>
        <time>2010-07-04T08:14:51Z</time>
      </trkpt>
      <trkpt lat="45.02358" lon="5.85301">
        <ele>1525</ele>
        <time>2010-07-04T08:14:52Z</time>
      </trkpt>
      <trkpt lat="45.02357" lon="5.85302">
        <ele>1525</ele>
        <time>2010-07-04T08:14:53Z</time>
      </trkpt>
      <trkpt lat="45.02356" lon="5.85304">
        <ele>1525</ele>
        <time>2010-07-04T08:14:54Z</time>
      </trkpt>
      <trkpt lat="45.02356" lon="5.85306">
        <ele>1525</ele>
        <time>2010-07-04T08:14:55Z</time>
      </trkpt>
      <trkpt lat="45.02355" lon="5.85308">
        <ele>1525</ele>
        <time>2010-07-04T08:14:57Z</time>
      </trkpt>
      <trkpt lat="45.02353" lon="5.85311">
        <ele>1527</ele>
        <time>2010-07-04T08:14:59Z</time>
      </trkpt>
      <trkpt lat="45.02351" lon="5.85313">
        <ele>1527</ele>
        <time>2010-07-04T08:15:00Z</time>
      </trkpt>
      <trkpt lat="45.02349" lon="5.85314">
        <ele>1527</ele>
        <time>2010-07-04T08:15:02Z</time>
      </trkpt>
      <trkpt lat="45.02347" lon="5.85317">
        <ele>1527</ele>
        <time>2010-07-04T08:15:04Z</time>
      </trkpt>
      <trkpt lat="45.02345" lon="5.85319">
        <ele>1527</ele>
        <time>2010-07-04T08:15:06Z</time>
      </trkpt>
      <trkpt lat="45.02344" lon="5.85322">
        <ele>1527</ele>
        <time>2010-07-04T08:15:08Z</time>
      </trkpt>
      <trkpt lat="45.02341" lon="5.85324">
        <ele>1527</ele>
        <time>2010-07-04T08:15:10Z</time>
      </trkpt>
      <trkpt lat="45.0234" lon="5.85327">
        <ele>1527</ele>
        <time>2010-07-04T08:15:12Z</time>
      </trkpt>
      <trkpt lat="45.02339" lon="5.85329">
        <ele>1527</ele>
        <time>2010-07-04T08:15:13Z</time>
      </trkpt>
      <trkpt lat="45.02338" lon="5.8533">
        <ele>1527</ele>
        <time>2010-07-04T08:15:14Z</time>
      </trkpt>
      <trkpt lat="45.02337" lon="5.85332">
        <ele>1527</ele>
        <time>2010-07-04T08:15:16Z</time>
      </trkpt>
      <trkpt lat="45.02336" lon="5.85334">
        <ele>1528</ele>
        <time>2010-07-04T08:15:17Z</time>
      </trkpt>
      <trkpt lat="45.02334" lon="5.85336">
        <ele>1528</ele>
        <time>2010-07-04T08:15:19Z</time>
      </trkpt>
      <trkpt lat="45.02332" lon="5.85338">
        <ele>1529</ele>
        <time>2010-07-04T08:15:21Z</time>
      </trkpt>
      <trkpt lat="45.02331" lon="5.85339">
        <ele>1529</ele>
        <time>2010-07-04T08:15:22Z</time>
      </trkpt>
      <trkpt lat="45.0233" lon="5.8534">
        <ele>1529</ele>
        <time>2010-07-04T08:15:23Z</time>
      </trkpt>
      <trkpt lat="45.02328" lon="5.85342">
        <ele>1529</ele>
        <time>2010-07-04T08:15:25Z</time>
      </trkpt>
      <trkpt lat="45.02326" lon="5.85345">
        <ele>1529</ele>
        <time>2010-07-04T08:15:27Z</time>
      </trkpt>
      <trkpt lat="45.02323" lon="5.85347">
        <ele>1529</ele>
        <time>2010-07-04T08:15:29Z</time>
      </trkpt>
      <trkpt lat="45.02322" lon="5.85349">
        <ele>1530</ele>
        <time>2010-07-04T08:15:31Z</time>
      </trkpt>
      <trkpt lat="45.02321" lon="5.85351">
        <ele>1531</ele>
        <time>2010-07-04T08:15:32Z</time>
      </trkpt>
      <trkpt lat="45.02319" lon="5.85353">
        <ele>1531</ele>
        <time>2010-07-04T08:15:33Z</time>
      </trkpt>
      <trkpt lat="45.02318" lon="5.85355">
        <ele>1531</ele>
        <time>2010-07-04T08:15:34Z</time>
      </trkpt>
      <trkpt lat="45.02316" lon="5.85357">
        <ele>1531</ele>
        <time>2010-07-04T08:15:35Z</time>
      </trkpt>
      <trkpt lat="45.02315" lon="5.8536">
        <ele>1531</ele>
        <time>2010-07-04T08:15:36Z</time>
      </trkpt>
      <trkpt lat="45.02315" lon="5.85362">
        <ele>1532</ele>
        <time>2010-07-04T08:15:37Z</time>
      </trkpt>
      <trkpt lat="45.02314" lon="5.85364">
        <ele>1533</ele>
        <time>2010-07-04T08:15:38Z</time>
      </trkpt>
      <trkpt lat="45.02313" lon="5.85366">
        <ele>1534</ele>
        <time>2010-07-04T08:15:39Z</time>
      </trkpt>
      <trkpt lat="45.02313" lon="5.85368">
        <ele>1535</ele>
        <time>2010-07-04T08:15:40Z</time>
      </trkpt>
      <trkpt lat="45.02312" lon="5.8537">
        <ele>1536</ele>
        <time>2010-07-04T08:15:41Z</time>
      </trkpt>
      <trkpt lat="45.02312" lon="5.85372">
        <ele>1537</ele>
        <time>2010-07-04T08:15:42Z</time>
      </trkpt>
      <trkpt lat="45.02311" lon="5.85375">
        <ele>1538</ele>
        <time>2010-07-04T08:15:43Z</time>
      </trkpt>
      <trkpt lat="45.02309" lon="5.85377">
        <ele>1539</ele>
        <time>2010-07-04T08:15:44Z</time>
      </trkpt>
      <trkpt lat="45.02308" lon="5.85379">
        <ele>1540</ele>
        <time>2010-07-04T08:15:45Z</time>
      </trkpt>
      <trkpt lat="45.02307" lon="5.85382">
        <ele>1541</ele>
        <time>2010-07-04T08:15:46Z</time>
      </trkpt>
      <trkpt lat="45.02304" lon="5.85385">
        <ele>1541</ele>
        <time>2010-07-04T08:15:47Z</time>
      </trkpt>
      <trkpt lat="45.02301" lon="5.85388">
        <ele>1541</ele>
        <time>2010-07-04T08:15:48Z</time>
      </trkpt>
      <trkpt lat="45.02299" lon="5.85389">
        <ele>1541</ele>
        <time>2010-07-04T08:15:49Z</time>
      </trkpt>
      <trkpt lat="45.02297" lon="5.85391">
        <ele>1541</ele>
        <time>2010-07-04T08:15:50Z</time>
      </trkpt>
      <trkpt lat="45.02295" lon="5.85392">
        <ele>1542</ele>
        <time>2010-07-04T08:15:51Z</time>
      </trkpt>
      <trkpt lat="45.02293" lon="5.85394">
        <ele>1542</ele>
        <time>2010-07-04T08:15:52Z</time>
      </trkpt>
      <trkpt lat="45.0229" lon="5.85395">
        <ele>1542</ele>
        <time>2010-07-04T08:15:53Z</time>
      </trkpt>
      <trkpt lat="45.02287" lon="5.85397">
        <ele>1542</ele>
        <time>2010-07-04T08:15:54Z</time>
      </trkpt>
      <trkpt lat="45.02284" lon="5.85399">
        <ele>1543</ele>
        <time>2010-07-04T08:15:55Z</time>
      </trkpt>
      <trkpt lat="45.02282" lon="5.854">
        <ele>1543</ele>
        <time>2010-07-04T08:15:56Z</time>
      </trkpt>
      <trkpt lat="45.02279" lon="5.85401">
        <ele>1544</ele>
        <time>2010-07-04T08:15:57Z</time>
      </trkpt>
      <trkpt lat="45.02276" lon="5.85404">
        <ele>1545</ele>
        <time>2010-07-04T08:15:58Z</time>
      </trkpt>
      <trkpt lat="45.02273" lon="5.85408">
        <ele>1546</ele>
        <time>2010-07-04T08:15:59Z</time>
      </trkpt>
      <trkpt lat="45.02271" lon="5.8541">
        <ele>1547</ele>
        <time>2010-07-04T08:16:00Z</time>
      </trkpt>
      <trkpt lat="45.02268" lon="5.85412">
        <ele>1548</ele>
        <time>2010-07-04T08:16:01Z</time>
      </trkpt>
      <trkpt lat="45.02266" lon="5.85412">
        <ele>1549</ele>
        <time>2010-07-04T08:16:02Z</time>
      </trkpt>
      <trkpt lat="45.02265" lon="5.85411">
        <ele>1550</ele>
        <time>2010-07-04T08:16:03Z</time>
      </trkpt>
      <trkpt lat="45.02262" lon="5.8541">
        <ele>1551</ele>
        <time>2010-07-04T08:16:05Z</time>
      </trkpt>
      <trkpt lat="45.0226" lon="5.8541">
        <ele>1551</ele>
        <time>2010-07-04T08:16:06Z</time>
      </trkpt>
      <trkpt lat="45.02259" lon="5.8541">
        <ele>1551</ele>
        <time>2010-07-04T08:16:07Z</time>
      </trkpt>
      <trkpt lat="45.02257" lon="5.8541">
        <ele>1551</ele>
        <time>2010-07-04T08:16:08Z</time>
      </trkpt>
      <trkpt lat="45.02255" lon="5.8541">
        <ele>1551</ele>
        <time>2010-07-04T08:16:09Z</time>
      </trkpt>
      <trkpt lat="45.02253" lon="5.85409">
        <ele>1551</ele>
        <time>2010-07-04T08:16:10Z</time>
      </trkpt>
      <trkpt lat="45.0225" lon="5.85409">
        <ele>1551</ele>
        <time>2010-07-04T08:16:11Z</time>
      </trkpt>
      <trkpt lat="45.02248" lon="5.85409">
        <ele>1551</ele>
        <time>2010-07-04T08:16:12Z</time>
      </trkpt>
      <trkpt lat="45.02246" lon="5.8541">
        <ele>1550</ele>
        <time>2010-07-04T08:16:13Z</time>
      </trkpt>
      <trkpt lat="45.02243" lon="5.8541">
        <ele>1549</ele>
        <time>2010-07-04T08:16:14Z</time>
      </trkpt>
      <trkpt lat="45.02241" lon="5.8541">
        <ele>1548</ele>
        <time>2010-07-04T08:16:15Z</time>
      </trkpt>
      <trkpt lat="45.02239" lon="5.8541">
        <ele>1547</ele>
        <time>2010-07-04T08:16:16Z</time>
      </trkpt>
      <trkpt lat="45.02237" lon="5.8541">
        <ele>1546</ele>
        <time>2010-07-04T08:16:17Z</time>
      </trkpt>
      <trkpt lat="45.02235" lon="5.8541">
        <ele>1545</ele>
        <time>2010-07-04T08:16:18Z</time>
      </trkpt>
      <trkpt lat="45.02234" lon="5.85411">
        <ele>1544</ele>
        <time>2010-07-04T08:16:19Z</time>
      </trkpt>
      <trkpt lat="45.02232" lon="5.85412">
        <ele>1543</ele>
        <time>2010-07-04T08:16:20Z</time>
      </trkpt>
      <trkpt lat="45.0223" lon="5.85414">
        <ele>1543</ele>
        <time>2010-07-04T08:16:21Z</time>
      </trkpt>
      <trkpt lat="45.02228" lon="5.85415">
        <ele>1543</ele>
        <time>2010-07-04T08:16:23Z</time>
      </trkpt>
      <trkpt lat="45.02227" lon="5.85416">
        <ele>1543</ele>
        <time>2010-07-04T08:16:24Z</time>
      </trkpt>
      <trkpt lat="45.02225" lon="5.85417">
        <ele>1544</ele>
        <time>2010-07-04T08:16:25Z</time>
      </trkpt>
      <trkpt lat="45.02224" lon="5.85418">
        <ele>1545</ele>
        <time>2010-07-04T08:16:26Z</time>
      </trkpt>
      <trkpt lat="45.02222" lon="5.85418">
        <ele>1546</ele>
        <time>2010-07-04T08:16:27Z</time>
      </trkpt>
      <trkpt lat="45.0222" lon="5.85421">
        <ele>1547</ele>
        <time>2010-07-04T08:16:28Z</time>
      </trkpt>
      <trkpt lat="45.02218" lon="5.85422">
        <ele>1548</ele>
        <time>2010-07-04T08:16:29Z</time>
      </trkpt>
      <trkpt lat="45.02214" lon="5.85424">
        <ele>1549</ele>
        <time>2010-07-04T08:16:30Z</time>
      </trkpt>
      <trkpt lat="45.02209" lon="5.85425">
        <ele>1550</ele>
        <time>2010-07-04T08:16:31Z</time>
      </trkpt>
      <trkpt lat="45.02206" lon="5.85426">
        <ele>1551</ele>
        <time>2010-07-04T08:16:32Z</time>
      </trkpt>
      <trkpt lat="45.02204" lon="5.85426">
        <ele>1552</ele>
        <time>2010-07-04T08:16:33Z</time>
      </trkpt>
      <trkpt lat="45.02201" lon="5.85426">
        <ele>1552</ele>
        <time>2010-07-04T08:16:34Z</time>
      </trkpt>
      <trkpt lat="45.02199" lon="5.85426">
        <ele>1552</ele>
        <time>2010-07-04T08:16:35Z</time>
      </trkpt>
      <trkpt lat="45.02196" lon="5.85426">
        <ele>1552</ele>
        <time>2010-07-04T08:16:36Z</time>
      </trkpt>
      <trkpt lat="45.02194" lon="5.85426">
        <ele>1552</ele>
        <time>2010-07-04T08:16:37Z</time>
      </trkpt>
      <trkpt lat="45.02192" lon="5.85426">
        <ele>1552</ele>
        <time>2010-07-04T08:16:38Z</time>
      </trkpt>
      <trkpt lat="45.0219" lon="5.85426">
        <ele>1552</ele>
        <time>2010-07-04T08:16:39Z</time>
      </trkpt>
      <trkpt lat="45.02187" lon="5.85427">
        <ele>1552</ele>
        <time>2010-07-04T08:16:40Z</time>
      </trkpt>
      <trkpt lat="45.02185" lon="5.85427">
        <ele>1552</ele>
        <time>2010-07-04T08:16:41Z</time>
      </trkpt>
      <trkpt lat="45.02183" lon="5.85428">
        <ele>1552</ele>
        <time>2010-07-04T08:16:42Z</time>
      </trkpt>
      <trkpt lat="45.02181" lon="5.85428">
        <ele>1552</ele>
        <time>2010-07-04T08:16:43Z</time>
      </trkpt>
      <trkpt lat="45.02179" lon="5.85429">
        <ele>1552</ele>
        <time>2010-07-04T08:16:44Z</time>
      </trkpt>
      <trkpt lat="45.02176" lon="5.85431">
        <ele>1552</ele>
        <time>2010-07-04T08:16:45Z</time>
      </trkpt>
      <trkpt lat="45.02174" lon="5.85431">
        <ele>1552</ele>
        <time>2010-07-04T08:16:46Z</time>
      </trkpt>
      <trkpt lat="45.02172" lon="5.85432">
        <ele>1553</ele>
        <time>2010-07-04T08:16:47Z</time>
      </trkpt>
      <trkpt lat="45.02168" lon="5.85433">
        <ele>1554</ele>
        <time>2010-07-04T08:16:48Z</time>
      </trkpt>
      <trkpt lat="45.02165" lon="5.85435">
        <ele>1555</ele>
        <time>2010-07-04T08:16:49Z</time>
      </trkpt>
      <trkpt lat="45.02162" lon="5.85436">
        <ele>1555</ele>
        <time>2010-07-04T08:16:50Z</time>
      </trkpt>
      <trkpt lat="45.02159" lon="5.85437">
        <ele>1556</ele>
        <time>2010-07-04T08:16:51Z</time>
      </trkpt>
      <trkpt lat="45.02156" lon="5.85436">
        <ele>1556</ele>
        <time>2010-07-04T08:16:52Z</time>
      </trkpt>
      <trkpt lat="45.02154" lon="5.85436">
        <ele>1556</ele>
        <time>2010-07-04T08:16:53Z</time>
      </trkpt>
      <trkpt lat="45.02153" lon="5.85436">
        <ele>1556</ele>
        <time>2010-07-04T08:16:54Z</time>
      </trkpt>
      <trkpt lat="45.02151" lon="5.85435">
        <ele>1556</ele>
        <time>2010-07-04T08:16:55Z</time>
      </trkpt>
      <trkpt lat="45.02149" lon="5.85436">
        <ele>1556</ele>
        <time>2010-07-04T08:16:56Z</time>
      </trkpt>
      <trkpt lat="45.02146" lon="5.85436">
        <ele>1556</ele>
        <time>2010-07-04T08:16:57Z</time>
      </trkpt>
      <trkpt lat="45.02143" lon="5.85435">
        <ele>1556</ele>
        <time>2010-07-04T08:16:58Z</time>
      </trkpt>
      <trkpt lat="45.02141" lon="5.85434">
        <ele>1556</ele>
        <time>2010-07-04T08:16:59Z</time>
      </trkpt>
      <trkpt lat="45.02139" lon="5.85434">
        <ele>1556</ele>
        <time>2010-07-04T08:17:00Z</time>
      </trkpt>
      <trkpt lat="45.02137" lon="5.85431">
        <ele>1556</ele>
        <time>2010-07-04T08:17:01Z</time>
      </trkpt>
      <trkpt lat="45.02135" lon="5.8543">
        <ele>1556</ele>
        <time>2010-07-04T08:17:02Z</time>
      </trkpt>
      <trkpt lat="45.02132" lon="5.85429">
        <ele>1556</ele>
        <time>2010-07-04T08:17:03Z</time>
      </trkpt>
      <trkpt lat="45.02129" lon="5.85428">
        <ele>1556</ele>
        <time>2010-07-04T08:17:04Z</time>
      </trkpt>
      <trkpt lat="45.02127" lon="5.85428">
        <ele>1556</ele>
        <time>2010-07-04T08:17:05Z</time>
      </trkpt>
      <trkpt lat="45.02124" lon="5.85427">
        <ele>1556</ele>
        <time>2010-07-04T08:17:06Z</time>
      </trkpt>
      <trkpt lat="45.02123" lon="5.85425">
        <ele>1556</ele>
        <time>2010-07-04T08:17:07Z</time>
      </trkpt>
      <trkpt lat="45.02121" lon="5.85424">
        <ele>1556</ele>
        <time>2010-07-04T08:17:08Z</time>
      </trkpt>
      <trkpt lat="45.0212" lon="5.85423">
        <ele>1556</ele>
        <time>2010-07-04T08:17:09Z</time>
      </trkpt>
      <trkpt lat="45.02117" lon="5.85422">
        <ele>1556</ele>
        <time>2010-07-04T08:17:10Z</time>
      </trkpt>
      <trkpt lat="45.02115" lon="5.85421">
        <ele>1556</ele>
        <time>2010-07-04T08:17:11Z</time>
      </trkpt>
      <trkpt lat="45.02112" lon="5.85421">
        <ele>1556</ele>
        <time>2010-07-04T08:17:12Z</time>
      </trkpt>
      <trkpt lat="45.0211" lon="5.8542">
        <ele>1556</ele>
        <time>2010-07-04T08:17:13Z</time>
      </trkpt>
      <trkpt lat="45.02107" lon="5.8542">
        <ele>1556</ele>
        <time>2010-07-04T08:17:14Z</time>
      </trkpt>
      <trkpt lat="45.02103" lon="5.8542">
        <ele>1556</ele>
        <time>2010-07-04T08:17:15Z</time>
      </trkpt>
      <trkpt lat="45.021" lon="5.85419">
        <ele>1556</ele>
        <time>2010-07-04T08:17:16Z</time>
      </trkpt>
      <trkpt lat="45.02097" lon="5.85418">
        <ele>1557</ele>
        <time>2010-07-04T08:17:17Z</time>
      </trkpt>
      <trkpt lat="45.02093" lon="5.85418">
        <ele>1557</ele>
        <time>2010-07-04T08:17:18Z</time>
      </trkpt>
      <trkpt lat="45.02089" lon="5.85419">
        <ele>1558</ele>
        <time>2010-07-04T08:17:19Z</time>
      </trkpt>
      <trkpt lat="45.02086" lon="5.85418">
        <ele>1558</ele>
        <time>2010-07-04T08:17:20Z</time>
      </trkpt>
      <trkpt lat="45.02083" lon="5.85418">
        <ele>1558</ele>
        <time>2010-07-04T08:17:21Z</time>
      </trkpt>
      <trkpt lat="45.02081" lon="5.85417">
        <ele>1559</ele>
        <time>2010-07-04T08:17:22Z</time>
      </trkpt>
      <trkpt lat="45.02078" lon="5.85417">
        <ele>1559</ele>
        <time>2010-07-04T08:17:23Z</time>
      </trkpt>
      <trkpt lat="45.02076" lon="5.85416">
        <ele>1560</ele>
        <time>2010-07-04T08:17:24Z</time>
      </trkpt>
      <trkpt lat="45.02073" lon="5.85415">
        <ele>1561</ele>
        <time>2010-07-04T08:17:25Z</time>
      </trkpt>
      <trkpt lat="45.0207" lon="5.85414">
        <ele>1561</ele>
        <time>2010-07-04T08:17:26Z</time>
      </trkpt>
      <trkpt lat="45.02068" lon="5.85413">
        <ele>1561</ele>
        <time>2010-07-04T08:17:27Z</time>
      </trkpt>
      <trkpt lat="45.02067" lon="5.85412">
        <ele>1561</ele>
        <time>2010-07-04T08:17:28Z</time>
      </trkpt>
      <trkpt lat="45.02064" lon="5.85412">
        <ele>1562</ele>
        <time>2010-07-04T08:17:29Z</time>
      </trkpt>
      <trkpt lat="45.02061" lon="5.85413">
        <ele>1563</ele>
        <time>2010-07-04T08:17:30Z</time>
      </trkpt>
      <trkpt lat="45.0206" lon="5.85412">
        <ele>1564</ele>
        <time>2010-07-04T08:17:31Z</time>
      </trkpt>
      <trkpt lat="45.02058" lon="5.85412">
        <ele>1565</ele>
        <time>2010-07-04T08:17:32Z</time>
      </trkpt>
      <trkpt lat="45.02056" lon="5.85411">
        <ele>1566</ele>
        <time>2010-07-04T08:17:33Z</time>
      </trkpt>
      <trkpt lat="45.02054" lon="5.8541">
        <ele>1567</ele>
        <time>2010-07-04T08:17:34Z</time>
      </trkpt>
      <trkpt lat="45.02051" lon="5.85411">
        <ele>1567</ele>
        <time>2010-07-04T08:17:35Z</time>
      </trkpt>
      <trkpt lat="45.02049" lon="5.85411">
        <ele>1567</ele>
        <time>2010-07-04T08:17:36Z</time>
      </trkpt>
      <trkpt lat="45.02046" lon="5.85411">
        <ele>1567</ele>
        <time>2010-07-04T08:17:37Z</time>
      </trkpt>
      <trkpt lat="45.02044" lon="5.8541">
        <ele>1567</ele>
        <time>2010-07-04T08:17:38Z</time>
      </trkpt>
      <trkpt lat="45.02042" lon="5.85409">
        <ele>1567</ele>
        <time>2010-07-04T08:17:39Z</time>
      </trkpt>
      <trkpt lat="45.0204" lon="5.85407">
        <ele>1567</ele>
        <time>2010-07-04T08:17:40Z</time>
      </trkpt>
      <trkpt lat="45.02038" lon="5.85407">
        <ele>1567</ele>
        <time>2010-07-04T08:17:41Z</time>
      </trkpt>
      <trkpt lat="45.02036" lon="5.85406">
        <ele>1567</ele>
        <time>2010-07-04T08:17:42Z</time>
      </trkpt>
      <trkpt lat="45.02033" lon="5.85405">
        <ele>1566</ele>
        <time>2010-07-04T08:17:43Z</time>
      </trkpt>
      <trkpt lat="45.02031" lon="5.85405">
        <ele>1565</ele>
        <time>2010-07-04T08:17:44Z</time>
      </trkpt>
      <trkpt lat="45.02029" lon="5.85404">
        <ele>1564</ele>
        <time>2010-07-04T08:17:45Z</time>
      </trkpt>
      <trkpt lat="45.02027" lon="5.85404">
        <ele>1563</ele>
        <time>2010-07-04T08:17:46Z</time>
      </trkpt>
      <trkpt lat="45.02024" lon="5.85404">
        <ele>1562</ele>
        <time>2010-07-04T08:17:47Z</time>
      </trkpt>
      <trkpt lat="45.02022" lon="5.85402">
        <ele>1561</ele>
        <time>2010-07-04T08:17:48Z</time>
      </trkpt>
      <trkpt lat="45.0202" lon="5.85401">
        <ele>1560</ele>
        <time>2010-07-04T08:17:49Z</time>
      </trkpt>
      <trkpt lat="45.02017" lon="5.85401">
        <ele>1559</ele>
        <time>2010-07-04T08:17:50Z</time>
      </trkpt>
      <trkpt lat="45.02014" lon="5.854">
        <ele>1558</ele>
        <time>2010-07-04T08:17:51Z</time>
      </trkpt>
      <trkpt lat="45.02012" lon="5.85398">
        <ele>1558</ele>
        <time>2010-07-04T08:17:52Z</time>
      </trkpt>
      <trkpt lat="45.0201" lon="5.85397">
        <ele>1557</ele>
        <time>2010-07-04T08:17:53Z</time>
      </trkpt>
      <trkpt lat="45.02008" lon="5.85395">
        <ele>1557</ele>
        <time>2010-07-04T08:17:54Z</time>
      </trkpt>
      <trkpt lat="45.02006" lon="5.85394">
        <ele>1556</ele>
        <time>2010-07-04T08:17:55Z</time>
      </trkpt>
      <trkpt lat="45.02004" lon="5.85392">
        <ele>1556</ele>
        <time>2010-07-04T08:17:56Z</time>
      </trkpt>
      <trkpt lat="45.02002" lon="5.85391">
        <ele>1556</ele>
        <time>2010-07-04T08:17:57Z</time>
      </trkpt>
      <trkpt lat="45.02" lon="5.8539">
        <ele>1556</ele>
        <time>2010-07-04T08:17:58Z</time>
      </trkpt>
      <trkpt lat="45.01997" lon="5.85389">
        <ele>1556</ele>
        <time>2010-07-04T08:17:59Z</time>
      </trkpt>
      <trkpt lat="45.01995" lon="5.85389">
        <ele>1556</ele>
        <time>2010-07-04T08:18:00Z</time>
      </trkpt>
      <trkpt lat="45.01992" lon="5.85388">
        <ele>1556</ele>
        <time>2010-07-04T08:18:01Z</time>
      </trkpt>
      <trkpt lat="45.0199" lon="5.85388">
        <ele>1556</ele>
        <time>2010-07-04T08:18:02Z</time>
      </trkpt>
      <trkpt lat="45.01988" lon="5.85387">
        <ele>1556</ele>
        <time>2010-07-04T08:18:03Z</time>
      </trkpt>
      <trkpt lat="45.01987" lon="5.85386">
        <ele>1556</ele>
        <time>2010-07-04T08:18:04Z</time>
      </trkpt>
      <trkpt lat="45.01985" lon="5.85385">
        <ele>1556</ele>
        <time>2010-07-04T08:18:05Z</time>
      </trkpt>
      <trkpt lat="45.01983" lon="5.85385">
        <ele>1556</ele>
        <time>2010-07-04T08:18:06Z</time>
      </trkpt>
      <trkpt lat="45.01981" lon="5.85384">
        <ele>1556</ele>
        <time>2010-07-04T08:18:07Z</time>
      </trkpt>
      <trkpt lat="45.01979" lon="5.85383">
        <ele>1556</ele>
        <time>2010-07-04T08:18:08Z</time>
      </trkpt>
      <trkpt lat="45.01976" lon="5.85383">
        <ele>1556</ele>
        <time>2010-07-04T08:18:09Z</time>
      </trkpt>
      <trkpt lat="45.01974" lon="5.85383">
        <ele>1556</ele>
        <time>2010-07-04T08:18:10Z</time>
      </trkpt>
      <trkpt lat="45.01971" lon="5.85383">
        <ele>1556</ele>
        <time>2010-07-04T08:18:11Z</time>
      </trkpt>
      <trkpt lat="45.01969" lon="5.85383">
        <ele>1556</ele>
        <time>2010-07-04T08:18:12Z</time>
      </trkpt>
      <trkpt lat="45.01967" lon="5.85382">
        <ele>1556</ele>
        <time>2010-07-04T08:18:13Z</time>
      </trkpt>
      <trkpt lat="45.01966" lon="5.85382">
        <ele>1556</ele>
        <time>2010-07-04T08:18:14Z</time>
      </trkpt>
      <trkpt lat="45.01964" lon="5.85382">
        <ele>1556</ele>
        <time>2010-07-04T08:18:15Z</time>
      </trkpt>
      <trkpt lat="45.01961" lon="5.85381">
        <ele>1556</ele>
        <time>2010-07-04T08:18:16Z</time>
      </trkpt>
      <trkpt lat="45.01959" lon="5.85381">
        <ele>1556</ele>
        <time>2010-07-04T08:18:17Z</time>
      </trkpt>
      <trkpt lat="45.01957" lon="5.85381">
        <ele>1556</ele>
        <time>2010-07-04T08:18:18Z</time>
      </trkpt>
      <trkpt lat="45.01955" lon="5.85381">
        <ele>1556</ele>
        <time>2010-07-04T08:18:19Z</time>
      </trkpt>
      <trkpt lat="45.01953" lon="5.85381">
        <ele>1556</ele>
        <time>2010-07-04T08:18:20Z</time>
      </trkpt>
      <trkpt lat="45.0195" lon="5.85381">
        <ele>1557</ele>
        <time>2010-07-04T08:18:21Z</time>
      </trkpt>
      <trkpt lat="45.01948" lon="5.85381">
        <ele>1557</ele>
        <time>2010-07-04T08:18:22Z</time>
      </trkpt>
      <trkpt lat="45.01946" lon="5.85382">
        <ele>1557</ele>
        <time>2010-07-04T08:18:23Z</time>
      </trkpt>
      <trkpt lat="45.01944" lon="5.85382">
        <ele>1558</ele>
        <time>2010-07-04T08:18:24Z</time>
      </trkpt>
      <trkpt lat="45.01941" lon="5.85382">
        <ele>1558</ele>
        <time>2010-07-04T08:18:25Z</time>
      </trkpt>
      <trkpt lat="45.0194" lon="5.85383">
        <ele>1558</ele>
        <time>2010-07-04T08:18:26Z</time>
      </trkpt>
      <trkpt lat="45.01938" lon="5.85384">
        <ele>1558</ele>
        <time>2010-07-04T08:18:27Z</time>
      </trkpt>
      <trkpt lat="45.01936" lon="5.85385">
        <ele>1559</ele>
        <time>2010-07-04T08:18:28Z</time>
      </trkpt>
      <trkpt lat="45.01935" lon="5.85386">
        <ele>1559</ele>
        <time>2010-07-04T08:18:29Z</time>
      </trkpt>
      <trkpt lat="45.01933" lon="5.85386">
        <ele>1559</ele>
        <time>2010-07-04T08:18:30Z</time>
      </trkpt>
      <trkpt lat="45.01931" lon="5.85387">
        <ele>1559</ele>
        <time>2010-07-04T08:18:31Z</time>
      </trkpt>
      <trkpt lat="45.0193" lon="5.85388">
        <ele>1560</ele>
        <time>2010-07-04T08:18:32Z</time>
      </trkpt>
      <trkpt lat="45.01928" lon="5.85388">
        <ele>1560</ele>
        <time>2010-07-04T08:18:33Z</time>
      </trkpt>
      <trkpt lat="45.01927" lon="5.85388">
        <ele>1561</ele>
        <time>2010-07-04T08:18:34Z</time>
      </trkpt>
      <trkpt lat="45.01925" lon="5.85389">
        <ele>1561</ele>
        <time>2010-07-04T08:18:35Z</time>
      </trkpt>
      <trkpt lat="45.01924" lon="5.85389">
        <ele>1561</ele>
        <time>2010-07-04T08:18:36Z</time>
      </trkpt>
      <trkpt lat="45.01922" lon="5.85389">
        <ele>1561</ele>
        <time>2010-07-04T08:18:37Z</time>
      </trkpt>
      <trkpt lat="45.01921" lon="5.8539">
        <ele>1562</ele>
        <time>2010-07-04T08:18:38Z</time>
      </trkpt>
      <trkpt lat="45.01919" lon="5.85391">
        <ele>1562</ele>
        <time>2010-07-04T08:18:39Z</time>
      </trkpt>
      <trkpt lat="45.01917" lon="5.85392">
        <ele>1563</ele>
        <time>2010-07-04T08:18:40Z</time>
      </trkpt>
      <trkpt lat="45.01916" lon="5.85392">
        <ele>1563</ele>
        <time>2010-07-04T08:18:41Z</time>
      </trkpt>
      <trkpt lat="45.01914" lon="5.85393">
        <ele>1564</ele>
        <time>2010-07-04T08:18:42Z</time>
      </trkpt>
      <trkpt lat="45.01913" lon="5.85393">
        <ele>1564</ele>
        <time>2010-07-04T08:18:43Z</time>
      </trkpt>
      <trkpt lat="45.01911" lon="5.85394">
        <ele>1565</ele>
        <time>2010-07-04T08:18:44Z</time>
      </trkpt>
      <trkpt lat="45.01909" lon="5.85394">
        <ele>1565</ele>
        <time>2010-07-04T08:18:45Z</time>
      </trkpt>
      <trkpt lat="45.01908" lon="5.85394">
        <ele>1565</ele>
        <time>2010-07-04T08:18:46Z</time>
      </trkpt>
      <trkpt lat="45.01906" lon="5.85394">
        <ele>1565</ele>
        <time>2010-07-04T08:18:47Z</time>
      </trkpt>
      <trkpt lat="45.01905" lon="5.85394">
        <ele>1566</ele>
        <time>2010-07-04T08:18:48Z</time>
      </trkpt>
      <trkpt lat="45.01904" lon="5.85394">
        <ele>1566</ele>
        <time>2010-07-04T08:18:49Z</time>
      </trkpt>
      <trkpt lat="45.01902" lon="5.85394">
        <ele>1566</ele>
        <time>2010-07-04T08:18:50Z</time>
      </trkpt>
      <trkpt lat="45.01901" lon="5.85394">
        <ele>1566</ele>
        <time>2010-07-04T08:18:51Z</time>
      </trkpt>
      <trkpt lat="45.01899" lon="5.85394">
        <ele>1567</ele>
        <time>2010-07-04T08:18:52Z</time>
      </trkpt>
      <trkpt lat="45.01898" lon="5.85395">
        <ele>1567</ele>
        <time>2010-07-04T08:18:53Z</time>
      </trkpt>
      <trkpt lat="45.01897" lon="5.85395">
        <ele>1567</ele>
        <time>2010-07-04T08:18:54Z</time>
      </trkpt>
      <trkpt lat="45.01895" lon="5.85394">
        <ele>1567</ele>
        <time>2010-07-04T08:18:55Z</time>
      </trkpt>
      <trkpt lat="45.01894" lon="5.85394">
        <ele>1568</ele>
        <time>2010-07-04T08:18:56Z</time>
      </trkpt>
      <trkpt lat="45.01893" lon="5.85394">
        <ele>1568</ele>
        <time>2010-07-04T08:18:57Z</time>
      </trkpt>
      <trkpt lat="45.01891" lon="5.85394">
        <ele>1568</ele>
        <time>2010-07-04T08:18:58Z</time>
      </trkpt>
      <trkpt lat="45.0189" lon="5.85394">
        <ele>1568</ele>
        <time>2010-07-04T08:18:59Z</time>
      </trkpt>
      <trkpt lat="45.01888" lon="5.85395">
        <ele>1568</ele>
        <time>2010-07-04T08:19:00Z</time>
      </trkpt>
      <trkpt lat="45.01886" lon="5.85394">
        <ele>1568</ele>
        <time>2010-07-04T08:19:02Z</time>
      </trkpt>
      <trkpt lat="45.01885" lon="5.85395">
        <ele>1569</ele>
        <time>2010-07-04T08:19:03Z</time>
      </trkpt>
      <trkpt lat="45.01884" lon="5.85395">
        <ele>1569</ele>
        <time>2010-07-04T08:19:04Z</time>
      </trkpt>
      <trkpt lat="45.01883" lon="5.85396">
        <ele>1569</ele>
        <time>2010-07-04T08:19:05Z</time>
      </trkpt>
      <trkpt lat="45.01881" lon="5.85396">
        <ele>1569</ele>
        <time>2010-07-04T08:19:06Z</time>
      </trkpt>
      <trkpt lat="45.01879" lon="5.85396">
        <ele>1570</ele>
        <time>2010-07-04T08:19:08Z</time>
      </trkpt>
      <trkpt lat="45.01877" lon="5.85397">
        <ele>1570</ele>
        <time>2010-07-04T08:19:10Z</time>
      </trkpt>
      <trkpt lat="45.01876" lon="5.85397">
        <ele>1570</ele>
        <time>2010-07-04T08:19:11Z</time>
      </trkpt>
      <trkpt lat="45.01874" lon="5.85398">
        <ele>1571</ele>
        <time>2010-07-04T08:19:12Z</time>
      </trkpt>
      <trkpt lat="45.01873" lon="5.85398">
        <ele>1571</ele>
        <time>2010-07-04T08:19:13Z</time>
      </trkpt>
      <trkpt lat="45.01871" lon="5.85399">
        <ele>1571</ele>
        <time>2010-07-04T08:19:14Z</time>
      </trkpt>
      <trkpt lat="45.01869" lon="5.854">
        <ele>1572</ele>
        <time>2010-07-04T08:19:16Z</time>
      </trkpt>
      <trkpt lat="45.01868" lon="5.85401">
        <ele>1573</ele>
        <time>2010-07-04T08:19:17Z</time>
      </trkpt>
      <trkpt lat="45.01867" lon="5.85401">
        <ele>1573</ele>
        <time>2010-07-04T08:19:18Z</time>
      </trkpt>
      <trkpt lat="45.01866" lon="5.85402">
        <ele>1574</ele>
        <time>2010-07-04T08:19:19Z</time>
      </trkpt>
      <trkpt lat="45.01864" lon="5.85403">
        <ele>1574</ele>
        <time>2010-07-04T08:19:20Z</time>
      </trkpt>
      <trkpt lat="45.01862" lon="5.85403">
        <ele>1575</ele>
        <time>2010-07-04T08:19:22Z</time>
      </trkpt>
      <trkpt lat="45.01861" lon="5.85404">
        <ele>1575</ele>
        <time>2010-07-04T08:19:23Z</time>
      </trkpt>
      <trkpt lat="45.01859" lon="5.85405">
        <ele>1576</ele>
        <time>2010-07-04T08:19:25Z</time>
      </trkpt>
      <trkpt lat="45.01858" lon="5.85406">
        <ele>1576</ele>
        <time>2010-07-04T08:19:26Z</time>
      </trkpt>
      <trkpt lat="45.01856" lon="5.85408">
        <ele>1577</ele>
        <time>2010-07-04T08:19:28Z</time>
      </trkpt>
      <trkpt lat="45.01854" lon="5.8541">
        <ele>1577</ele>
        <time>2010-07-04T08:19:29Z</time>
      </trkpt>
      <trkpt lat="45.01853" lon="5.85412">
        <ele>1577</ele>
        <time>2010-07-04T08:19:31Z</time>
      </trkpt>
      <trkpt lat="45.01852" lon="5.85414">
        <ele>1577</ele>
        <time>2010-07-04T08:19:32Z</time>
      </trkpt>
      <trkpt lat="45.01849" lon="5.85416">
        <ele>1578</ele>
        <time>2010-07-04T08:19:34Z</time>
      </trkpt>
      <trkpt lat="45.01848" lon="5.85419">
        <ele>1578</ele>
        <time>2010-07-04T08:19:36Z</time>
      </trkpt>
      <trkpt lat="45.01847" lon="5.85422">
        <ele>1579</ele>
        <time>2010-07-04T08:19:38Z</time>
      </trkpt>
      <trkpt lat="45.01846" lon="5.85424">
        <ele>1579</ele>
        <time>2010-07-04T08:19:40Z</time>
      </trkpt>
      <trkpt lat="45.01845" lon="5.85426">
        <ele>1579</ele>
        <time>2010-07-04T08:19:42Z</time>
      </trkpt>
      <trkpt lat="45.01845" lon="5.85429">
        <ele>1579</ele>
        <time>2010-07-04T08:19:44Z</time>
      </trkpt>
      <trkpt lat="45.01845" lon="5.8543">
        <ele>1579</ele>
        <time>2010-07-04T08:19:45Z</time>
      </trkpt>
      <trkpt lat="45.01844" lon="5.85432">
        <ele>1579</ele>
        <time>2010-07-04T08:19:46Z</time>
      </trkpt>
      <trkpt lat="45.01843" lon="5.85433">
        <ele>1579</ele>
        <time>2010-07-04T08:19:47Z</time>
      </trkpt>
      <trkpt lat="45.01842" lon="5.85435">
        <ele>1579</ele>
        <time>2010-07-04T08:19:48Z</time>
      </trkpt>
      <trkpt lat="45.01841" lon="5.85437">
        <ele>1580</ele>
        <time>2010-07-04T08:19:50Z</time>
      </trkpt>
      <trkpt lat="45.01839" lon="5.8544">
        <ele>1580</ele>
        <time>2010-07-04T08:19:52Z</time>
      </trkpt>
      <trkpt lat="45.01838" lon="5.85441">
        <ele>1580</ele>
        <time>2010-07-04T08:19:53Z</time>
      </trkpt>
      <trkpt lat="45.01837" lon="5.85443">
        <ele>1581</ele>
        <time>2010-07-04T08:19:54Z</time>
      </trkpt>
      <trkpt lat="45.01836" lon="5.85444">
        <ele>1581</ele>
        <time>2010-07-04T08:19:55Z</time>
      </trkpt>
      <trkpt lat="45.01834" lon="5.85445">
        <ele>1581</ele>
        <time>2010-07-04T08:19:56Z</time>
      </trkpt>
      <trkpt lat="45.01833" lon="5.85445">
        <ele>1582</ele>
        <time>2010-07-04T08:19:57Z</time>
      </trkpt>
      <trkpt lat="45.01831" lon="5.85447">
        <ele>1582</ele>
        <time>2010-07-04T08:19:59Z</time>
      </trkpt>
      <trkpt lat="45.0183" lon="5.85448">
        <ele>1582</ele>
        <time>2010-07-04T08:20:00Z</time>
      </trkpt>
      <trkpt lat="45.01828" lon="5.85449">
        <ele>1583</ele>
        <time>2010-07-04T08:20:02Z</time>
      </trkpt>
      <trkpt lat="45.01827" lon="5.85449">
        <ele>1583</ele>
        <time>2010-07-04T08:20:03Z</time>
      </trkpt>
      <trkpt lat="45.01825" lon="5.8545">
        <ele>1583</ele>
        <time>2010-07-04T08:20:04Z</time>
      </trkpt>
      <trkpt lat="45.01824" lon="5.85451">
        <ele>1583</ele>
        <time>2010-07-04T08:20:05Z</time>
      </trkpt>
      <trkpt lat="45.01822" lon="5.85451">
        <ele>1584</ele>
        <time>2010-07-04T08:20:07Z</time>
      </trkpt>
      <trkpt lat="45.0182" lon="5.85452">
        <ele>1584</ele>
        <time>2010-07-04T08:20:08Z</time>
      </trkpt>
      <trkpt lat="45.01819" lon="5.85453">
        <ele>1584</ele>
        <time>2010-07-04T08:20:09Z</time>
      </trkpt>
      <trkpt lat="45.01818" lon="5.85454">
        <ele>1584</ele>
        <time>2010-07-04T08:20:10Z</time>
      </trkpt>
      <trkpt lat="45.01817" lon="5.85454">
        <ele>1585</ele>
        <time>2010-07-04T08:20:11Z</time>
      </trkpt>
      <trkpt lat="45.01815" lon="5.85455">
        <ele>1585</ele>
        <time>2010-07-04T08:20:12Z</time>
      </trkpt>
      <trkpt lat="45.01814" lon="5.85456">
        <ele>1586</ele>
        <time>2010-07-04T08:20:13Z</time>
      </trkpt>
      <trkpt lat="45.01813" lon="5.85456">
        <ele>1586</ele>
        <time>2010-07-04T08:20:14Z</time>
      </trkpt>
      <trkpt lat="45.01811" lon="5.85455">
        <ele>1586</ele>
        <time>2010-07-04T08:20:15Z</time>
      </trkpt>
      <trkpt lat="45.0181" lon="5.85455">
        <ele>1587</ele>
        <time>2010-07-04T08:20:16Z</time>
      </trkpt>
      <trkpt lat="45.01809" lon="5.85455">
        <ele>1587</ele>
        <time>2010-07-04T08:20:17Z</time>
      </trkpt>
      <trkpt lat="45.01808" lon="5.85453">
        <ele>1587</ele>
        <time>2010-07-04T08:20:19Z</time>
      </trkpt>
      <trkpt lat="45.01807" lon="5.8545">
        <ele>1588</ele>
        <time>2010-07-04T08:20:21Z</time>
      </trkpt>
      <trkpt lat="45.01806" lon="5.85449">
        <ele>1588</ele>
        <time>2010-07-04T08:20:22Z</time>
      </trkpt>
      <trkpt lat="45.01806" lon="5.85447">
        <ele>1588</ele>
        <time>2010-07-04T08:20:23Z</time>
      </trkpt>
      <trkpt lat="45.01806" lon="5.85445">
        <ele>1589</ele>
        <time>2010-07-04T08:20:24Z</time>
      </trkpt>
      <trkpt lat="45.01805" lon="5.85443">
        <ele>1589</ele>
        <time>2010-07-04T08:20:25Z</time>
      </trkpt>
      <trkpt lat="45.01805" lon="5.85441">
        <ele>1589</ele>
        <time>2010-07-04T08:20:26Z</time>
      </trkpt>
      <trkpt lat="45.01805" lon="5.85439">
        <ele>1590</ele>
        <time>2010-07-04T08:20:27Z</time>
      </trkpt>
      <trkpt lat="45.01805" lon="5.85437">
        <ele>1590</ele>
        <time>2010-07-04T08:20:28Z</time>
      </trkpt>
      <trkpt lat="45.01805" lon="5.85435">
        <ele>1590</ele>
        <time>2010-07-04T08:20:29Z</time>
      </trkpt>
      <trkpt lat="45.01805" lon="5.85433">
        <ele>1591</ele>
        <time>2010-07-04T08:20:30Z</time>
      </trkpt>
      <trkpt lat="45.01805" lon="5.85431">
        <ele>1591</ele>
        <time>2010-07-04T08:20:31Z</time>
      </trkpt>
      <trkpt lat="45.01805" lon="5.85429">
        <ele>1591</ele>
        <time>2010-07-04T08:20:32Z</time>
      </trkpt>
      <trkpt lat="45.01805" lon="5.85427">
        <ele>1591</ele>
        <time>2010-07-04T08:20:33Z</time>
      </trkpt>
      <trkpt lat="45.01805" lon="5.85426">
        <ele>1592</ele>
        <time>2010-07-04T08:20:34Z</time>
      </trkpt>
      <trkpt lat="45.01804" lon="5.85424">
        <ele>1592</ele>
        <time>2010-07-04T08:20:35Z</time>
      </trkpt>
      <trkpt lat="45.01804" lon="5.85422">
        <ele>1592</ele>
        <time>2010-07-04T08:20:36Z</time>
      </trkpt>
      <trkpt lat="45.01804" lon="5.85421">
        <ele>1593</ele>
        <time>2010-07-04T08:20:37Z</time>
      </trkpt>
      <trkpt lat="45.01803" lon="5.85419">
        <ele>1593</ele>
        <time>2010-07-04T08:20:38Z</time>
      </trkpt>
      <trkpt lat="45.01802" lon="5.85417">
        <ele>1594</ele>
        <time>2010-07-04T08:20:40Z</time>
      </trkpt>
      <trkpt lat="45.018" lon="5.85415">
        <ele>1594</ele>
        <time>2010-07-04T08:20:41Z</time>
      </trkpt>
      <trkpt lat="45.01798" lon="5.85414">
        <ele>1595</ele>
        <time>2010-07-04T08:20:43Z</time>
      </trkpt>
      <trkpt lat="45.01797" lon="5.85414">
        <ele>1595</ele>
        <time>2010-07-04T08:20:44Z</time>
      </trkpt>
      <trkpt lat="45.01796" lon="5.85415">
        <ele>1595</ele>
        <time>2010-07-04T08:20:45Z</time>
      </trkpt>
      <trkpt lat="45.01795" lon="5.85415">
        <ele>1595</ele>
        <time>2010-07-04T08:20:46Z</time>
      </trkpt>
      <trkpt lat="45.01793" lon="5.85416">
        <ele>1595</ele>
        <time>2010-07-04T08:20:47Z</time>
      </trkpt>
      <trkpt lat="45.01791" lon="5.85418">
        <ele>1596</ele>
        <time>2010-07-04T08:20:49Z</time>
      </trkpt>
      <trkpt lat="45.0179" lon="5.8542">
        <ele>1596</ele>
        <time>2010-07-04T08:20:51Z</time>
      </trkpt>
      <trkpt lat="45.01788" lon="5.85422">
        <ele>1596</ele>
        <time>2010-07-04T08:20:53Z</time>
      </trkpt>
      <trkpt lat="45.01787" lon="5.85424">
        <ele>1597</ele>
        <time>2010-07-04T08:20:54Z</time>
      </trkpt>
      <trkpt lat="45.01785" lon="5.85425">
        <ele>1597</ele>
        <time>2010-07-04T08:20:55Z</time>
      </trkpt>
      <trkpt lat="45.01783" lon="5.85426">
        <ele>1598</ele>
        <time>2010-07-04T08:20:57Z</time>
      </trkpt>
      <trkpt lat="45.01782" lon="5.85427">
        <ele>1598</ele>
        <time>2010-07-04T08:20:58Z</time>
      </trkpt>
      <trkpt lat="45.01781" lon="5.85429">
        <ele>1599</ele>
        <time>2010-07-04T08:20:59Z</time>
      </trkpt>
      <trkpt lat="45.0178" lon="5.85429">
        <ele>1599</ele>
        <time>2010-07-04T08:21:00Z</time>
      </trkpt>
      <trkpt lat="45.01779" lon="5.8543">
        <ele>1600</ele>
        <time>2010-07-04T08:21:01Z</time>
      </trkpt>
      <trkpt lat="45.01777" lon="5.8543">
        <ele>1600</ele>
        <time>2010-07-04T08:21:03Z</time>
      </trkpt>
      <trkpt lat="45.01775" lon="5.8543">
        <ele>1601</ele>
        <time>2010-07-04T08:21:05Z</time>
      </trkpt>
      <trkpt lat="45.01772" lon="5.85429">
        <ele>1601</ele>
        <time>2010-07-04T08:21:07Z</time>
      </trkpt>
      <trkpt lat="45.01771" lon="5.85429">
        <ele>1602</ele>
        <time>2010-07-04T08:21:08Z</time>
      </trkpt>
      <trkpt lat="45.0177" lon="5.85429">
        <ele>1602</ele>
        <time>2010-07-04T08:21:09Z</time>
      </trkpt>
      <trkpt lat="45.01769" lon="5.85429">
        <ele>1602</ele>
        <time>2010-07-04T08:21:10Z</time>
      </trkpt>
      <trkpt lat="45.01767" lon="5.85429">
        <ele>1603</ele>
        <time>2010-07-04T08:21:11Z</time>
      </trkpt>
      <trkpt lat="45.01766" lon="5.85429">
        <ele>1603</ele>
        <time>2010-07-04T08:21:12Z</time>
      </trkpt>
      <trkpt lat="45.01765" lon="5.85429">
        <ele>1603</ele>
        <time>2010-07-04T08:21:13Z</time>
      </trkpt>
      <trkpt lat="45.01763" lon="5.8543">
        <ele>1604</ele>
        <time>2010-07-04T08:21:14Z</time>
      </trkpt>
      <trkpt lat="45.01761" lon="5.85428">
        <ele>1604</ele>
        <time>2010-07-04T08:21:16Z</time>
      </trkpt>
      <trkpt lat="45.0176" lon="5.85428">
        <ele>1604</ele>
        <time>2010-07-04T08:21:17Z</time>
      </trkpt>
      <trkpt lat="45.01759" lon="5.85427">
        <ele>1605</ele>
        <time>2010-07-04T08:21:18Z</time>
      </trkpt>
      <trkpt lat="45.01757" lon="5.85427">
        <ele>1605</ele>
        <time>2010-07-04T08:21:19Z</time>
      </trkpt>
      <trkpt lat="45.01755" lon="5.85425">
        <ele>1605</ele>
        <time>2010-07-04T08:21:21Z</time>
      </trkpt>
      <trkpt lat="45.01753" lon="5.85423">
        <ele>1605</ele>
        <time>2010-07-04T08:21:23Z</time>
      </trkpt>
      <trkpt lat="45.01753" lon="5.85422">
        <ele>1605</ele>
        <time>2010-07-04T08:21:24Z</time>
      </trkpt>
      <trkpt lat="45.01752" lon="5.8542">
        <ele>1605</ele>
        <time>2010-07-04T08:21:25Z</time>
      </trkpt>
      <trkpt lat="45.0175" lon="5.85418">
        <ele>1605</ele>
        <time>2010-07-04T08:21:27Z</time>
      </trkpt>
      <trkpt lat="45.0175" lon="5.85416">
        <ele>1605</ele>
        <time>2010-07-04T08:21:28Z</time>
      </trkpt>
      <trkpt lat="45.01749" lon="5.85415">
        <ele>1606</ele>
        <time>2010-07-04T08:21:29Z</time>
      </trkpt>
      <trkpt lat="45.01748" lon="5.85412">
        <ele>1606</ele>
        <time>2010-07-04T08:21:31Z</time>
      </trkpt>
      <trkpt lat="45.01746" lon="5.8541">
        <ele>1606</ele>
        <time>2010-07-04T08:21:33Z</time>
      </trkpt>
      <trkpt lat="45.01744" lon="5.85407">
        <ele>1606</ele>
        <time>2010-07-04T08:21:35Z</time>
      </trkpt>
      <trkpt lat="45.01743" lon="5.85406">
        <ele>1607</ele>
        <time>2010-07-04T08:21:37Z</time>
      </trkpt>
      <trkpt lat="45.01741" lon="5.85404">
        <ele>1607</ele>
        <time>2010-07-04T08:21:39Z</time>
      </trkpt>
      <trkpt lat="45.01739" lon="5.85403">
        <ele>1608</ele>
        <time>2010-07-04T08:21:40Z</time>
      </trkpt>
      <trkpt lat="45.01738" lon="5.85401">
        <ele>1608</ele>
        <time>2010-07-04T08:21:42Z</time>
      </trkpt>
      <trkpt lat="45.01736" lon="5.854">
        <ele>1608</ele>
        <time>2010-07-04T08:21:44Z</time>
      </trkpt>
      <trkpt lat="45.01735" lon="5.85399">
        <ele>1608</ele>
        <time>2010-07-04T08:21:45Z</time>
      </trkpt>
      <trkpt lat="45.01733" lon="5.85398">
        <ele>1608</ele>
        <time>2010-07-04T08:21:47Z</time>
      </trkpt>
      <trkpt lat="45.01731" lon="5.85397">
        <ele>1608</ele>
        <time>2010-07-04T08:21:49Z</time>
      </trkpt>
      <trkpt lat="45.0173" lon="5.85396">
        <ele>1609</ele>
        <time>2010-07-04T08:21:50Z</time>
      </trkpt>
      <trkpt lat="45.01729" lon="5.85396">
        <ele>1609</ele>
        <time>2010-07-04T08:21:51Z</time>
      </trkpt>
      <trkpt lat="45.01727" lon="5.85396">
        <ele>1609</ele>
        <time>2010-07-04T08:21:52Z</time>
      </trkpt>
      <trkpt lat="45.01726" lon="5.85396">
        <ele>1610</ele>
        <time>2010-07-04T08:21:53Z</time>
      </trkpt>
      <trkpt lat="45.01724" lon="5.85396">
        <ele>1610</ele>
        <time>2010-07-04T08:21:54Z</time>
      </trkpt>
      <trkpt lat="45.01723" lon="5.85396">
        <ele>1610</ele>
        <time>2010-07-04T08:21:55Z</time>
      </trkpt>
      <trkpt lat="45.01722" lon="5.85397">
        <ele>1611</ele>
        <time>2010-07-04T08:21:56Z</time>
      </trkpt>
      <trkpt lat="45.0172" lon="5.85397">
        <ele>1611</ele>
        <time>2010-07-04T08:21:57Z</time>
      </trkpt>
      <trkpt lat="45.01719" lon="5.85397">
        <ele>1611</ele>
        <time>2010-07-04T08:21:58Z</time>
      </trkpt>
      <trkpt lat="45.01717" lon="5.85398">
        <ele>1612</ele>
        <time>2010-07-04T08:21:59Z</time>
      </trkpt>
      <trkpt lat="45.01716" lon="5.85398">
        <ele>1612</ele>
        <time>2010-07-04T08:22:00Z</time>
      </trkpt>
      <trkpt lat="45.01715" lon="5.85398">
        <ele>1612</ele>
        <time>2010-07-04T08:22:01Z</time>
      </trkpt>
      <trkpt lat="45.01713" lon="5.854">
        <ele>1613</ele>
        <time>2010-07-04T08:22:03Z</time>
      </trkpt>
      <trkpt lat="45.0171" lon="5.85402">
        <ele>1613</ele>
        <time>2010-07-04T08:22:05Z</time>
      </trkpt>
      <trkpt lat="45.01708" lon="5.85404">
        <ele>1613</ele>
        <time>2010-07-04T08:22:07Z</time>
      </trkpt>
      <trkpt lat="45.01706" lon="5.85406">
        <ele>1613</ele>
        <time>2010-07-04T08:22:09Z</time>
      </trkpt>
      <trkpt lat="45.01704" lon="5.85409">
        <ele>1613</ele>
        <time>2010-07-04T08:22:11Z</time>
      </trkpt>
      <trkpt lat="45.01703" lon="5.8541">
        <ele>1614</ele>
        <time>2010-07-04T08:22:12Z</time>
      </trkpt>
      <trkpt lat="45.01701" lon="5.85413">
        <ele>1614</ele>
        <time>2010-07-04T08:22:14Z</time>
      </trkpt>
      <trkpt lat="45.01699" lon="5.85416">
        <ele>1614</ele>
        <time>2010-07-04T08:22:16Z</time>
      </trkpt>
      <trkpt lat="45.01698" lon="5.85417">
        <ele>1614</ele>
        <time>2010-07-04T08:22:17Z</time>
      </trkpt>
      <trkpt lat="45.01697" lon="5.8542">
        <ele>1615</ele>
        <time>2010-07-04T08:22:19Z</time>
      </trkpt>
      <trkpt lat="45.01696" lon="5.85422">
        <ele>1615</ele>
        <time>2010-07-04T08:22:20Z</time>
      </trkpt>
      <trkpt lat="45.01694" lon="5.85425">
        <ele>1615</ele>
        <time>2010-07-04T08:22:22Z</time>
      </trkpt>
      <trkpt lat="45.01693" lon="5.85427">
        <ele>1615</ele>
        <time>2010-07-04T08:22:24Z</time>
      </trkpt>
      <trkpt lat="45.01692" lon="5.85429">
        <ele>1615</ele>
        <time>2010-07-04T08:22:25Z</time>
      </trkpt>
      <trkpt lat="45.0169" lon="5.85432">
        <ele>1615</ele>
        <time>2010-07-04T08:22:27Z</time>
      </trkpt>
      <trkpt lat="45.01689" lon="5.85433">
        <ele>1616</ele>
        <time>2010-07-04T08:22:28Z</time>
      </trkpt>
      <trkpt lat="45.01688" lon="5.85436">
        <ele>1616</ele>
        <time>2010-07-04T08:22:30Z</time>
      </trkpt>
      <trkpt lat="45.01686" lon="5.85437">
        <ele>1617</ele>
        <time>2010-07-04T08:22:31Z</time>
      </trkpt>
      <trkpt lat="45.01685" lon="5.85439">
        <ele>1617</ele>
        <time>2010-07-04T08:22:32Z</time>
      </trkpt>
      <trkpt lat="45.01683" lon="5.85441">
        <ele>1618</ele>
        <time>2010-07-04T08:22:34Z</time>
      </trkpt>
      <trkpt lat="45.01681" lon="5.85442">
        <ele>1618</ele>
        <time>2010-07-04T08:22:35Z</time>
      </trkpt>
      <trkpt lat="45.0168" lon="5.85443">
        <ele>1619</ele>
        <time>2010-07-04T08:22:36Z</time>
      </trkpt>
      <trkpt lat="45.01678" lon="5.85445">
        <ele>1619</ele>
        <time>2010-07-04T08:22:38Z</time>
      </trkpt>
      <trkpt lat="45.01677" lon="5.85447">
        <ele>1619</ele>
        <time>2010-07-04T08:22:39Z</time>
      </trkpt>
      <trkpt lat="45.01675" lon="5.85449">
        <ele>1620</ele>
        <time>2010-07-04T08:22:41Z</time>
      </trkpt>
      <trkpt lat="45.01673" lon="5.8545">
        <ele>1621</ele>
        <time>2010-07-04T08:22:42Z</time>
      </trkpt>
      <trkpt lat="45.01672" lon="5.85451">
        <ele>1621</ele>
        <time>2010-07-04T08:22:43Z</time>
      </trkpt>
      <trkpt lat="45.0167" lon="5.85452">
        <ele>1621</ele>
        <time>2010-07-04T08:22:45Z</time>
      </trkpt>
      <trkpt lat="45.01668" lon="5.85453">
        <ele>1622</ele>
        <time>2010-07-04T08:22:46Z</time>
      </trkpt>
      <trkpt lat="45.01667" lon="5.85454">
        <ele>1622</ele>
        <time>2010-07-04T08:22:47Z</time>
      </trkpt>
      <trkpt lat="45.01666" lon="5.85454">
        <ele>1622</ele>
        <time>2010-07-04T08:22:48Z</time>
      </trkpt>
      <trkpt lat="45.01664" lon="5.85455">
        <ele>1622</ele>
        <time>2010-07-04T08:22:49Z</time>
      </trkpt>
      <trkpt lat="45.01663" lon="5.85456">
        <ele>1623</ele>
        <time>2010-07-04T08:22:50Z</time>
      </trkpt>
      <trkpt lat="45.0166" lon="5.85458">
        <ele>1623</ele>
        <time>2010-07-04T08:22:52Z</time>
      </trkpt>
      <trkpt lat="45.01659" lon="5.85458">
        <ele>1624</ele>
        <time>2010-07-04T08:22:54Z</time>
      </trkpt>
      <trkpt lat="45.01657" lon="5.85459">
        <ele>1624</ele>
        <time>2010-07-04T08:22:55Z</time>
      </trkpt>
      <trkpt lat="45.01656" lon="5.85459">
        <ele>1625</ele>
        <time>2010-07-04T08:22:56Z</time>
      </trkpt>
      <trkpt lat="45.01655" lon="5.85459">
        <ele>1625</ele>
        <time>2010-07-04T08:22:57Z</time>
      </trkpt>
      <trkpt lat="45.01653" lon="5.8546">
        <ele>1625</ele>
        <time>2010-07-04T08:22:59Z</time>
      </trkpt>
      <trkpt lat="45.01652" lon="5.8546">
        <ele>1625</ele>
        <time>2010-07-04T08:23:00Z</time>
      </trkpt>
      <trkpt lat="45.0165" lon="5.85461">
        <ele>1626</ele>
        <time>2010-07-04T08:23:02Z</time>
      </trkpt>
      <trkpt lat="45.01648" lon="5.85462">
        <ele>1626</ele>
        <time>2010-07-04T08:23:04Z</time>
      </trkpt>
      <trkpt lat="45.01647" lon="5.85463">
        <ele>1627</ele>
        <time>2010-07-04T08:23:05Z</time>
      </trkpt>
      <trkpt lat="45.01645" lon="5.85464">
        <ele>1627</ele>
        <time>2010-07-04T08:23:07Z</time>
      </trkpt>
      <trkpt lat="45.01643" lon="5.85467">
        <ele>1627</ele>
        <time>2010-07-04T08:23:09Z</time>
      </trkpt>
      <trkpt lat="45.01642" lon="5.85468">
        <ele>1627</ele>
        <time>2010-07-04T08:23:10Z</time>
      </trkpt>
      <trkpt lat="45.01641" lon="5.8547">
        <ele>1627</ele>
        <time>2010-07-04T08:23:11Z</time>
      </trkpt>
      <trkpt lat="45.01639" lon="5.85472">
        <ele>1627</ele>
        <time>2010-07-04T08:23:12Z</time>
      </trkpt>
      <trkpt lat="45.01637" lon="5.85475">
        <ele>1627</ele>
        <time>2010-07-04T08:23:13Z</time>
      </trkpt>
      <trkpt lat="45.01636" lon="5.85478">
        <ele>1627</ele>
        <time>2010-07-04T08:23:14Z</time>
      </trkpt>
      <trkpt lat="45.01634" lon="5.8548">
        <ele>1627</ele>
        <time>2010-07-04T08:23:15Z</time>
      </trkpt>
      <trkpt lat="45.01633" lon="5.85483">
        <ele>1627</ele>
        <time>2010-07-04T08:23:16Z</time>
      </trkpt>
      <trkpt lat="45.01632" lon="5.85486">
        <ele>1628</ele>
        <time>2010-07-04T08:23:17Z</time>
      </trkpt>
      <trkpt lat="45.01631" lon="5.85489">
        <ele>1628</ele>
        <time>2010-07-04T08:23:18Z</time>
      </trkpt>
      <trkpt lat="45.01629" lon="5.85493">
        <ele>1628</ele>
        <time>2010-07-04T08:23:19Z</time>
      </trkpt>
      <trkpt lat="45.01627" lon="5.85496">
        <ele>1629</ele>
        <time>2010-07-04T08:23:20Z</time>
      </trkpt>
      <trkpt lat="45.01625" lon="5.85498">
        <ele>1629</ele>
        <time>2010-07-04T08:23:21Z</time>
      </trkpt>
      <trkpt lat="45.01624" lon="5.855">
        <ele>1629</ele>
        <time>2010-07-04T08:23:22Z</time>
      </trkpt>
      <trkpt lat="45.01622" lon="5.85503">
        <ele>1630</ele>
        <time>2010-07-04T08:23:23Z</time>
      </trkpt>
      <trkpt lat="45.0162" lon="5.85506">
        <ele>1630</ele>
        <time>2010-07-04T08:23:24Z</time>
      </trkpt>
      <trkpt lat="45.01619" lon="5.8551">
        <ele>1630</ele>
        <time>2010-07-04T08:23:25Z</time>
      </trkpt>
      <trkpt lat="45.01618" lon="5.85513">
        <ele>1630</ele>
        <time>2010-07-04T08:23:26Z</time>
      </trkpt>
      <trkpt lat="45.01617" lon="5.85518">
        <ele>1630</ele>
        <time>2010-07-04T08:23:27Z</time>
      </trkpt>
      <trkpt lat="45.01617" lon="5.85522">
        <ele>1630</ele>
        <time>2010-07-04T08:23:28Z</time>
      </trkpt>
      <trkpt lat="45.01617" lon="5.85526">
        <ele>1630</ele>
        <time>2010-07-04T08:23:29Z</time>
      </trkpt>
      <trkpt lat="45.01617" lon="5.8553">
        <ele>1630</ele>
        <time>2010-07-04T08:23:30Z</time>
      </trkpt>
      <trkpt lat="45.01618" lon="5.85533">
        <ele>1630</ele>
        <time>2010-07-04T08:23:31Z</time>
      </trkpt>
      <trkpt lat="45.01619" lon="5.85537">
        <ele>1630</ele>
        <time>2010-07-04T08:23:32Z</time>
      </trkpt>
      <trkpt lat="45.01622" lon="5.8554">
        <ele>1630</ele>
        <time>2010-07-04T08:23:33Z</time>
      </trkpt>
      <trkpt lat="45.01624" lon="5.85543">
        <ele>1630</ele>
        <time>2010-07-04T08:23:34Z</time>
      </trkpt>
      <trkpt lat="45.01627" lon="5.85544">
        <ele>1630</ele>
        <time>2010-07-04T08:23:35Z</time>
      </trkpt>
      <trkpt lat="45.01631" lon="5.85545">
        <ele>1630</ele>
        <time>2010-07-04T08:23:36Z</time>
      </trkpt>
      <trkpt lat="45.01635" lon="5.85545">
        <ele>1630</ele>
        <time>2010-07-04T08:23:37Z</time>
      </trkpt>
      <trkpt lat="45.01639" lon="5.85545">
        <ele>1630</ele>
        <time>2010-07-04T08:23:38Z</time>
      </trkpt>
      <trkpt lat="45.01642" lon="5.85545">
        <ele>1630</ele>
        <time>2010-07-04T08:23:39Z</time>
      </trkpt>
      <trkpt lat="45.01645" lon="5.85544">
        <ele>1630</ele>
        <time>2010-07-04T08:23:40Z</time>
      </trkpt>
      <trkpt lat="45.01648" lon="5.85545">
        <ele>1630</ele>
        <time>2010-07-04T08:23:41Z</time>
      </trkpt>
      <trkpt lat="45.01651" lon="5.85546">
        <ele>1630</ele>
        <time>2010-07-04T08:23:42Z</time>
      </trkpt>
      <trkpt lat="45.01654" lon="5.85548">
        <ele>1629</ele>
        <time>2010-07-04T08:23:43Z</time>
      </trkpt>
      <trkpt lat="45.01656" lon="5.85549">
        <ele>1628</ele>
        <time>2010-07-04T08:23:44Z</time>
      </trkpt>
      <trkpt lat="45.01659" lon="5.8555">
        <ele>1628</ele>
        <time>2010-07-04T08:23:45Z</time>
      </trkpt>
      <trkpt lat="45.01661" lon="5.85552">
        <ele>1627</ele>
        <time>2010-07-04T08:23:46Z</time>
      </trkpt>
      <trkpt lat="45.01662" lon="5.85554">
        <ele>1627</ele>
        <time>2010-07-04T08:23:47Z</time>
      </trkpt>
      <trkpt lat="45.01664" lon="5.85555">
        <ele>1626</ele>
        <time>2010-07-04T08:23:48Z</time>
      </trkpt>
      <trkpt lat="45.01667" lon="5.85557">
        <ele>1625</ele>
        <time>2010-07-04T08:23:49Z</time>
      </trkpt>
      <trkpt lat="45.01669" lon="5.85558">
        <ele>1624</ele>
        <time>2010-07-04T08:23:50Z</time>
      </trkpt>
      <trkpt lat="45.01672" lon="5.8556">
        <ele>1624</ele>
        <time>2010-07-04T08:23:51Z</time>
      </trkpt>
      <trkpt lat="45.01675" lon="5.85562">
        <ele>1623</ele>
        <time>2010-07-04T08:23:52Z</time>
      </trkpt>
      <trkpt lat="45.01677" lon="5.85563">
        <ele>1622</ele>
        <time>2010-07-04T08:23:53Z</time>
      </trkpt>
      <trkpt lat="45.0168" lon="5.85564">
        <ele>1621</ele>
        <time>2010-07-04T08:23:54Z</time>
      </trkpt>
      <trkpt lat="45.01683" lon="5.85565">
        <ele>1620</ele>
        <time>2010-07-04T08:23:55Z</time>
      </trkpt>
      <trkpt lat="45.01687" lon="5.85566">
        <ele>1619</ele>
        <time>2010-07-04T08:23:56Z</time>
      </trkpt>
      <trkpt lat="45.01691" lon="5.85567">
        <ele>1618</ele>
        <time>2010-07-04T08:23:57Z</time>
      </trkpt>
      <trkpt lat="45.01694" lon="5.85569">
        <ele>1617</ele>
        <time>2010-07-04T08:23:58Z</time>
      </trkpt>
      <trkpt lat="45.01697" lon="5.85571">
        <ele>1616</ele>
        <time>2010-07-04T08:23:59Z</time>
      </trkpt>
      <trkpt lat="45.017" lon="5.85573">
        <ele>1615</ele>
        <time>2010-07-04T08:24:00Z</time>
      </trkpt>
      <trkpt lat="45.01702" lon="5.85576">
        <ele>1614</ele>
        <time>2010-07-04T08:24:01Z</time>
      </trkpt>
      <trkpt lat="45.01704" lon="5.8558">
        <ele>1613</ele>
        <time>2010-07-04T08:24:02Z</time>
      </trkpt>
      <trkpt lat="45.01706" lon="5.85583">
        <ele>1612</ele>
        <time>2010-07-04T08:24:03Z</time>
      </trkpt>
      <trkpt lat="45.01708" lon="5.85587">
        <ele>1611</ele>
        <time>2010-07-04T08:24:04Z</time>
      </trkpt>
      <trkpt lat="45.01711" lon="5.8559">
        <ele>1610</ele>
        <time>2010-07-04T08:24:05Z</time>
      </trkpt>
      <trkpt lat="45.01714" lon="5.85591">
        <ele>1609</ele>
        <time>2010-07-04T08:24:06Z</time>
      </trkpt>
      <trkpt lat="45.01716" lon="5.85593">
        <ele>1609</ele>
        <time>2010-07-04T08:24:07Z</time>
      </trkpt>
      <trkpt lat="45.01719" lon="5.85594">
        <ele>1608</ele>
        <time>2010-07-04T08:24:08Z</time>
      </trkpt>
      <trkpt lat="45.01721" lon="5.85595">
        <ele>1607</ele>
        <time>2010-07-04T08:24:09Z</time>
      </trkpt>
      <trkpt lat="45.01723" lon="5.85596">
        <ele>1607</ele>
        <time>2010-07-04T08:24:10Z</time>
      </trkpt>
      <trkpt lat="45.01725" lon="5.85598">
        <ele>1606</ele>
        <time>2010-07-04T08:24:11Z</time>
      </trkpt>
      <trkpt lat="45.01726" lon="5.856">
        <ele>1605</ele>
        <time>2010-07-04T08:24:12Z</time>
      </trkpt>
      <trkpt lat="45.01729" lon="5.85603">
        <ele>1604</ele>
        <time>2010-07-04T08:24:13Z</time>
      </trkpt>
      <trkpt lat="45.01731" lon="5.85606">
        <ele>1604</ele>
        <time>2010-07-04T08:24:14Z</time>
      </trkpt>
      <trkpt lat="45.01733" lon="5.85608">
        <ele>1603</ele>
        <time>2010-07-04T08:24:15Z</time>
      </trkpt>
      <trkpt lat="45.01735" lon="5.85612">
        <ele>1602</ele>
        <time>2010-07-04T08:24:16Z</time>
      </trkpt>
      <trkpt lat="45.01736" lon="5.85616">
        <ele>1601</ele>
        <time>2010-07-04T08:24:17Z</time>
      </trkpt>
      <trkpt lat="45.01738" lon="5.85619">
        <ele>1600</ele>
        <time>2010-07-04T08:24:18Z</time>
      </trkpt>
      <trkpt lat="45.0174" lon="5.85622">
        <ele>1599</ele>
        <time>2010-07-04T08:24:19Z</time>
      </trkpt>
      <trkpt lat="45.01741" lon="5.85625">
        <ele>1598</ele>
        <time>2010-07-04T08:24:20Z</time>
      </trkpt>
      <trkpt lat="45.01743" lon="5.85628">
        <ele>1597</ele>
        <time>2010-07-04T08:24:21Z</time>
      </trkpt>
      <trkpt lat="45.01745" lon="5.85631">
        <ele>1596</ele>
        <time>2010-07-04T08:24:22Z</time>
      </trkpt>
      <trkpt lat="45.01748" lon="5.85634">
        <ele>1595</ele>
        <time>2010-07-04T08:24:23Z</time>
      </trkpt>
      <trkpt lat="45.0175" lon="5.85637">
        <ele>1594</ele>
        <time>2010-07-04T08:24:24Z</time>
      </trkpt>
      <trkpt lat="45.01754" lon="5.85639">
        <ele>1593</ele>
        <time>2010-07-04T08:24:25Z</time>
      </trkpt>
      <trkpt lat="45.01757" lon="5.85641">
        <ele>1592</ele>
        <time>2010-07-04T08:24:26Z</time>
      </trkpt>
      <trkpt lat="45.01761" lon="5.85644">
        <ele>1591</ele>
        <time>2010-07-04T08:24:27Z</time>
      </trkpt>
      <trkpt lat="45.01764" lon="5.85646">
        <ele>1590</ele>
        <time>2010-07-04T08:24:28Z</time>
      </trkpt>
      <trkpt lat="45.01767" lon="5.8565">
        <ele>1589</ele>
        <time>2010-07-04T08:24:29Z</time>
      </trkpt>
      <trkpt lat="45.0177" lon="5.85654">
        <ele>1588</ele>
        <time>2010-07-04T08:24:30Z</time>
      </trkpt>
      <trkpt lat="45.01772" lon="5.85657">
        <ele>1587</ele>
        <time>2010-07-04T08:24:31Z</time>
      </trkpt>
      <trkpt lat="45.01775" lon="5.85659">
        <ele>1586</ele>
        <time>2010-07-04T08:24:32Z</time>
      </trkpt>
      <trkpt lat="45.01779" lon="5.85661">
        <ele>1585</ele>
        <time>2010-07-04T08:24:33Z</time>
      </trkpt>
      <trkpt lat="45.01782" lon="5.85663">
        <ele>1584</ele>
        <time>2010-07-04T08:24:34Z</time>
      </trkpt>
      <trkpt lat="45.01786" lon="5.85663">
        <ele>1583</ele>
        <time>2010-07-04T08:24:35Z</time>
      </trkpt>
      <trkpt lat="45.01789" lon="5.85663">
        <ele>1582</ele>
        <time>2010-07-04T08:24:36Z</time>
      </trkpt>
      <trkpt lat="45.01793" lon="5.85663">
        <ele>1581</ele>
        <time>2010-07-04T08:24:37Z</time>
      </trkpt>
      <trkpt lat="45.01797" lon="5.85663">
        <ele>1580</ele>
        <time>2010-07-04T08:24:38Z</time>
      </trkpt>
      <trkpt lat="45.01801" lon="5.85662">
        <ele>1579</ele>
        <time>2010-07-04T08:24:39Z</time>
      </trkpt>
      <trkpt lat="45.01806" lon="5.85661">
        <ele>1578</ele>
        <time>2010-07-04T08:24:40Z</time>
      </trkpt>
      <trkpt lat="45.01809" lon="5.8566">
        <ele>1577</ele>
        <time>2010-07-04T08:24:41Z</time>
      </trkpt>
      <trkpt lat="45.01813" lon="5.8566">
        <ele>1576</ele>
        <time>2010-07-04T08:24:42Z</time>
      </trkpt>
      <trkpt lat="45.01816" lon="5.85659">
        <ele>1575</ele>
        <time>2010-07-04T08:24:43Z</time>
      </trkpt>
      <trkpt lat="45.0182" lon="5.85658">
        <ele>1574</ele>
        <time>2010-07-04T08:24:44Z</time>
      </trkpt>
      <trkpt lat="45.01824" lon="5.85657">
        <ele>1573</ele>
        <time>2010-07-04T08:24:45Z</time>
      </trkpt>
      <trkpt lat="45.01827" lon="5.85656">
        <ele>1572</ele>
        <time>2010-07-04T08:24:46Z</time>
      </trkpt>
      <trkpt lat="45.01831" lon="5.85656">
        <ele>1571</ele>
        <time>2010-07-04T08:24:47Z</time>
      </trkpt>
      <trkpt lat="45.01835" lon="5.85655">
        <ele>1570</ele>
        <time>2010-07-04T08:24:48Z</time>
      </trkpt>
      <trkpt lat="45.01839" lon="5.85654">
        <ele>1569</ele>
        <time>2010-07-04T08:24:49Z</time>
      </trkpt>
      <trkpt lat="45.01843" lon="5.85653">
        <ele>1568</ele>
        <time>2010-07-04T08:24:50Z</time>
      </trkpt>
      <trkpt lat="45.01847" lon="5.85652">
        <ele>1567</ele>
        <time>2010-07-04T08:24:51Z</time>
      </trkpt>
      <trkpt lat="45.0185" lon="5.85652">
        <ele>1566</ele>
        <time>2010-07-04T08:24:52Z</time>
      </trkpt>
      <trkpt lat="45.01854" lon="5.85652">
        <ele>1565</ele>
        <time>2010-07-04T08:24:53Z</time>
      </trkpt>
      <trkpt lat="45.01858" lon="5.85651">
        <ele>1564</ele>
        <time>2010-07-04T08:24:54Z</time>
      </trkpt>
      <trkpt lat="45.01861" lon="5.8565">
        <ele>1563</ele>
        <time>2010-07-04T08:24:55Z</time>
      </trkpt>
      <trkpt lat="45.01864" lon="5.85648">
        <ele>1562</ele>
        <time>2010-07-04T08:24:56Z</time>
      </trkpt>
      <trkpt lat="45.01867" lon="5.85647">
        <ele>1561</ele>
        <time>2010-07-04T08:24:57Z</time>
      </trkpt>
      <trkpt lat="45.0187" lon="5.85646">
        <ele>1560</ele>
        <time>2010-07-04T08:24:58Z</time>
      </trkpt>
      <trkpt lat="45.01873" lon="5.85644">
        <ele>1559</ele>
        <time>2010-07-04T08:24:59Z</time>
      </trkpt>
      <trkpt lat="45.01876" lon="5.85642">
        <ele>1558</ele>
        <time>2010-07-04T08:25:00Z</time>
      </trkpt>
      <trkpt lat="45.01879" lon="5.85641">
        <ele>1557</ele>
        <time>2010-07-04T08:25:01Z</time>
      </trkpt>
      <trkpt lat="45.01882" lon="5.85639">
        <ele>1556</ele>
        <time>2010-07-04T08:25:02Z</time>
      </trkpt>
      <trkpt lat="45.01885" lon="5.85638">
        <ele>1555</ele>
        <time>2010-07-04T08:25:03Z</time>
      </trkpt>
      <trkpt lat="45.01888" lon="5.85636">
        <ele>1554</ele>
        <time>2010-07-04T08:25:04Z</time>
      </trkpt>
      <trkpt lat="45.01891" lon="5.85634">
        <ele>1553</ele>
        <time>2010-07-04T08:25:05Z</time>
      </trkpt>
      <trkpt lat="45.01894" lon="5.85633">
        <ele>1552</ele>
        <time>2010-07-04T08:25:06Z</time>
      </trkpt>
      <trkpt lat="45.01897" lon="5.85632">
        <ele>1551</ele>
        <time>2010-07-04T08:25:07Z</time>
      </trkpt>
      <trkpt lat="45.019" lon="5.85631">
        <ele>1550</ele>
        <time>2010-07-04T08:25:08Z</time>
      </trkpt>
      <trkpt lat="45.01903" lon="5.85631">
        <ele>1549</ele>
        <time>2010-07-04T08:25:09Z</time>
      </trkpt>
      <trkpt lat="45.01906" lon="5.85631">
        <ele>1548</ele>
        <time>2010-07-04T08:25:10Z</time>
      </trkpt>
      <trkpt lat="45.0191" lon="5.8563">
        <ele>1547</ele>
        <time>2010-07-04T08:25:11Z</time>
      </trkpt>
      <trkpt lat="45.01913" lon="5.85629">
        <ele>1546</ele>
        <time>2010-07-04T08:25:12Z</time>
      </trkpt>
      <trkpt lat="45.01916" lon="5.85628">
        <ele>1545</ele>
        <time>2010-07-04T08:25:13Z</time>
      </trkpt>
      <trkpt lat="45.01919" lon="5.85628">
        <ele>1543</ele>
        <time>2010-07-04T08:25:14Z</time>
      </trkpt>
      <trkpt lat="45.01922" lon="5.85628">
        <ele>1542</ele>
        <time>2010-07-04T08:25:15Z</time>
      </trkpt>
      <trkpt lat="45.01925" lon="5.85628">
        <ele>1541</ele>
        <time>2010-07-04T08:25:16Z</time>
      </trkpt>
      <trkpt lat="45.01928" lon="5.85627">
        <ele>1540</ele>
        <time>2010-07-04T08:25:17Z</time>
      </trkpt>
      <trkpt lat="45.01931" lon="5.85627">
        <ele>1539</ele>
        <time>2010-07-04T08:25:18Z</time>
      </trkpt>
      <trkpt lat="45.01934" lon="5.85626">
        <ele>1538</ele>
        <time>2010-07-04T08:25:19Z</time>
      </trkpt>
      <trkpt lat="45.01938" lon="5.85625">
        <ele>1537</ele>
        <time>2010-07-04T08:25:20Z</time>
      </trkpt>
      <trkpt lat="45.01941" lon="5.85624">
        <ele>1535</ele>
        <time>2010-07-04T08:25:21Z</time>
      </trkpt>
      <trkpt lat="45.01944" lon="5.85623">
        <ele>1534</ele>
        <time>2010-07-04T08:25:22Z</time>
      </trkpt>
      <trkpt lat="45.01947" lon="5.85623">
        <ele>1533</ele>
        <time>2010-07-04T08:25:23Z</time>
      </trkpt>
      <trkpt lat="45.01951" lon="5.85624">
        <ele>1532</ele>
        <time>2010-07-04T08:25:24Z</time>
      </trkpt>
      <trkpt lat="45.01953" lon="5.85626">
        <ele>1530</ele>
        <time>2010-07-04T08:25:25Z</time>
      </trkpt>
      <trkpt lat="45.01956" lon="5.85628">
        <ele>1529</ele>
        <time>2010-07-04T08:25:26Z</time>
      </trkpt>
      <trkpt lat="45.0196" lon="5.85631">
        <ele>1528</ele>
        <time>2010-07-04T08:25:27Z</time>
      </trkpt>
      <trkpt lat="45.01963" lon="5.85633">
        <ele>1527</ele>
        <time>2010-07-04T08:25:28Z</time>
      </trkpt>
      <trkpt lat="45.01966" lon="5.85636">
        <ele>1526</ele>
        <time>2010-07-04T08:25:29Z</time>
      </trkpt>
      <trkpt lat="45.01968" lon="5.85639">
        <ele>1525</ele>
        <time>2010-07-04T08:25:30Z</time>
      </trkpt>
      <trkpt lat="45.0197" lon="5.85642">
        <ele>1524</ele>
        <time>2010-07-04T08:25:31Z</time>
      </trkpt>
      <trkpt lat="45.01972" lon="5.85645">
        <ele>1523</ele>
        <time>2010-07-04T08:25:32Z</time>
      </trkpt>
      <trkpt lat="45.01975" lon="5.85647">
        <ele>1522</ele>
        <time>2010-07-04T08:25:33Z</time>
      </trkpt>
      <trkpt lat="45.01977" lon="5.8565">
        <ele>1521</ele>
        <time>2010-07-04T08:25:34Z</time>
      </trkpt>
      <trkpt lat="45.01979" lon="5.85653">
        <ele>1520</ele>
        <time>2010-07-04T08:25:35Z</time>
      </trkpt>
      <trkpt lat="45.01981" lon="5.85656">
        <ele>1519</ele>
        <time>2010-07-04T08:25:36Z</time>
      </trkpt>
      <trkpt lat="45.01983" lon="5.85658">
        <ele>1518</ele>
        <time>2010-07-04T08:25:37Z</time>
      </trkpt>
      <trkpt lat="45.01984" lon="5.85662">
        <ele>1517</ele>
        <time>2010-07-04T08:25:38Z</time>
      </trkpt>
      <trkpt lat="45.01986" lon="5.85665">
        <ele>1516</ele>
        <time>2010-07-04T08:25:39Z</time>
      </trkpt>
      <trkpt lat="45.01987" lon="5.85668">
        <ele>1514</ele>
        <time>2010-07-04T08:25:40Z</time>
      </trkpt>
      <trkpt lat="45.01988" lon="5.8567">
        <ele>1513</ele>
        <time>2010-07-04T08:25:41Z</time>
      </trkpt>
      <trkpt lat="45.0199" lon="5.85674">
        <ele>1512</ele>
        <time>2010-07-04T08:25:42Z</time>
      </trkpt>
      <trkpt lat="45.01992" lon="5.85677">
        <ele>1511</ele>
        <time>2010-07-04T08:25:43Z</time>
      </trkpt>
      <trkpt lat="45.01994" lon="5.85681">
        <ele>1510</ele>
        <time>2010-07-04T08:25:44Z</time>
      </trkpt>
      <trkpt lat="45.01996" lon="5.85685">
        <ele>1509</ele>
        <time>2010-07-04T08:25:45Z</time>
      </trkpt>
      <trkpt lat="45.01996" lon="5.85689">
        <ele>1508</ele>
        <time>2010-07-04T08:25:46Z</time>
      </trkpt>
      <trkpt lat="45.01997" lon="5.85693">
        <ele>1507</ele>
        <time>2010-07-04T08:25:47Z</time>
      </trkpt>
      <trkpt lat="45.01997" lon="5.85696">
        <ele>1506</ele>
        <time>2010-07-04T08:25:48Z</time>
      </trkpt>
      <trkpt lat="45.01998" lon="5.85701">
        <ele>1505</ele>
        <time>2010-07-04T08:25:49Z</time>
      </trkpt>
      <trkpt lat="45.02" lon="5.85705">
        <ele>1504</ele>
        <time>2010-07-04T08:25:50Z</time>
      </trkpt>
      <trkpt lat="45.02001" lon="5.85709">
        <ele>1503</ele>
        <time>2010-07-04T08:25:51Z</time>
      </trkpt>
      <trkpt lat="45.02003" lon="5.85714">
        <ele>1502</ele>
        <time>2010-07-04T08:25:52Z</time>
      </trkpt>
      <trkpt lat="45.02004" lon="5.85718">
        <ele>1501</ele>
        <time>2010-07-04T08:25:53Z</time>
      </trkpt>
      <trkpt lat="45.02005" lon="5.85722">
        <ele>1500</ele>
        <time>2010-07-04T08:25:54Z</time>
      </trkpt>
      <trkpt lat="45.02006" lon="5.85727">
        <ele>1499</ele>
        <time>2010-07-04T08:25:55Z</time>
      </trkpt>
      <trkpt lat="45.02007" lon="5.85731">
        <ele>1498</ele>
        <time>2010-07-04T08:25:56Z</time>
      </trkpt>
      <trkpt lat="45.02007" lon="5.85735">
        <ele>1497</ele>
        <time>2010-07-04T08:25:57Z</time>
      </trkpt>
      <trkpt lat="45.02009" lon="5.85739">
        <ele>1496</ele>
        <time>2010-07-04T08:25:58Z</time>
      </trkpt>
      <trkpt lat="45.0201" lon="5.85743">
        <ele>1495</ele>
        <time>2010-07-04T08:25:59Z</time>
      </trkpt>
      <trkpt lat="45.02011" lon="5.85747">
        <ele>1495</ele>
        <time>2010-07-04T08:26:00Z</time>
      </trkpt>
      <trkpt lat="45.02013" lon="5.85751">
        <ele>1494</ele>
        <time>2010-07-04T08:26:01Z</time>
      </trkpt>
      <trkpt lat="45.02014" lon="5.85754">
        <ele>1494</ele>
        <time>2010-07-04T08:26:02Z</time>
      </trkpt>
      <trkpt lat="45.02016" lon="5.85757">
        <ele>1494</ele>
        <time>2010-07-04T08:26:03Z</time>
      </trkpt>
      <trkpt lat="45.02018" lon="5.85761">
        <ele>1493</ele>
        <time>2010-07-04T08:26:04Z</time>
      </trkpt>
      <trkpt lat="45.0202" lon="5.85764">
        <ele>1492</ele>
        <time>2010-07-04T08:26:05Z</time>
      </trkpt>
      <trkpt lat="45.02022" lon="5.85767">
        <ele>1492</ele>
        <time>2010-07-04T08:26:06Z</time>
      </trkpt>
      <trkpt lat="45.02023" lon="5.85771">
        <ele>1491</ele>
        <time>2010-07-04T08:26:07Z</time>
      </trkpt>
      <trkpt lat="45.02025" lon="5.85774">
        <ele>1490</ele>
        <time>2010-07-04T08:26:08Z</time>
      </trkpt>
      <trkpt lat="45.02027" lon="5.85778">
        <ele>1489</ele>
        <time>2010-07-04T08:26:09Z</time>
      </trkpt>
      <trkpt lat="45.02028" lon="5.85783">
        <ele>1489</ele>
        <time>2010-07-04T08:26:10Z</time>
      </trkpt>
      <trkpt lat="45.0203" lon="5.85788">
        <ele>1488</ele>
        <time>2010-07-04T08:26:11Z</time>
      </trkpt>
      <trkpt lat="45.02032" lon="5.85792">
        <ele>1488</ele>
        <time>2010-07-04T08:26:12Z</time>
      </trkpt>
      <trkpt lat="45.02034" lon="5.85796">
        <ele>1487</ele>
        <time>2010-07-04T08:26:13Z</time>
      </trkpt>
      <trkpt lat="45.02036" lon="5.858">
        <ele>1486</ele>
        <time>2010-07-04T08:26:14Z</time>
      </trkpt>
      <trkpt lat="45.02036" lon="5.85804">
        <ele>1486</ele>
        <time>2010-07-04T08:26:15Z</time>
      </trkpt>
      <trkpt lat="45.02036" lon="5.85808">
        <ele>1485</ele>
        <time>2010-07-04T08:26:16Z</time>
      </trkpt>
      <trkpt lat="45.02035" lon="5.85813">
        <ele>1484</ele>
        <time>2010-07-04T08:26:17Z</time>
      </trkpt>
      <trkpt lat="45.02034" lon="5.85818">
        <ele>1483</ele>
        <time>2010-07-04T08:26:18Z</time>
      </trkpt>
      <trkpt lat="45.02033" lon="5.85822">
        <ele>1482</ele>
        <time>2010-07-04T08:26:19Z</time>
      </trkpt>
      <trkpt lat="45.02031" lon="5.85826">
        <ele>1481</ele>
        <time>2010-07-04T08:26:20Z</time>
      </trkpt>
      <trkpt lat="45.0203" lon="5.85829">
        <ele>1480</ele>
        <time>2010-07-04T08:26:21Z</time>
      </trkpt>
      <trkpt lat="45.02028" lon="5.85833">
        <ele>1479</ele>
        <time>2010-07-04T08:26:22Z</time>
      </trkpt>
      <trkpt lat="45.02026" lon="5.85837">
        <ele>1479</ele>
        <time>2010-07-04T08:26:23Z</time>
      </trkpt>
      <trkpt lat="45.02024" lon="5.85841">
        <ele>1478</ele>
        <time>2010-07-04T08:26:24Z</time>
      </trkpt>
      <trkpt lat="45.02022" lon="5.85845">
        <ele>1477</ele>
        <time>2010-07-04T08:26:25Z</time>
      </trkpt>
      <trkpt lat="45.0202" lon="5.85848">
        <ele>1477</ele>
        <time>2010-07-04T08:26:26Z</time>
      </trkpt>
      <trkpt lat="45.02018" lon="5.85852">
        <ele>1476</ele>
        <time>2010-07-04T08:26:27Z</time>
      </trkpt>
      <trkpt lat="45.02016" lon="5.85856">
        <ele>1475</ele>
        <time>2010-07-04T08:26:28Z</time>
      </trkpt>
      <trkpt lat="45.02014" lon="5.8586">
        <ele>1474</ele>
        <time>2010-07-04T08:26:29Z</time>
      </trkpt>
      <trkpt lat="45.02011" lon="5.85864">
        <ele>1474</ele>
        <time>2010-07-04T08:26:30Z</time>
      </trkpt>
      <trkpt lat="45.02009" lon="5.85868">
        <ele>1473</ele>
        <time>2010-07-04T08:26:31Z</time>
      </trkpt>
      <trkpt lat="45.02007" lon="5.85872">
        <ele>1472</ele>
        <time>2010-07-04T08:26:32Z</time>
      </trkpt>
      <trkpt lat="45.02006" lon="5.85876">
        <ele>1472</ele>
        <time>2010-07-04T08:26:33Z</time>
      </trkpt>
      <trkpt lat="45.02004" lon="5.85881">
        <ele>1472</ele>
        <time>2010-07-04T08:26:34Z</time>
      </trkpt>
      <trkpt lat="45.02001" lon="5.85885">
        <ele>1471</ele>
        <time>2010-07-04T08:26:35Z</time>
      </trkpt>
      <trkpt lat="45.01999" lon="5.85889">
        <ele>1471</ele>
        <time>2010-07-04T08:26:36Z</time>
      </trkpt>
      <trkpt lat="45.01998" lon="5.85894">
        <ele>1470</ele>
        <time>2010-07-04T08:26:37Z</time>
      </trkpt>
      <trkpt lat="45.01996" lon="5.85899">
        <ele>1470</ele>
        <time>2010-07-04T08:26:38Z</time>
      </trkpt>
      <trkpt lat="45.01995" lon="5.85903">
        <ele>1469</ele>
        <time>2010-07-04T08:26:39Z</time>
      </trkpt>
      <trkpt lat="45.01994" lon="5.85908">
        <ele>1469</ele>
        <time>2010-07-04T08:26:40Z</time>
      </trkpt>
      <trkpt lat="45.01992" lon="5.85913">
        <ele>1469</ele>
        <time>2010-07-04T08:26:41Z</time>
      </trkpt>
      <trkpt lat="45.0199" lon="5.85918">
        <ele>1469</ele>
        <time>2010-07-04T08:26:42Z</time>
      </trkpt>
      <trkpt lat="45.01989" lon="5.85922">
        <ele>1469</ele>
        <time>2010-07-04T08:26:43Z</time>
      </trkpt>
      <trkpt lat="45.01988" lon="5.85927">
        <ele>1469</ele>
        <time>2010-07-04T08:26:44Z</time>
      </trkpt>
      <trkpt lat="45.01986" lon="5.85932">
        <ele>1469</ele>
        <time>2010-07-04T08:26:45Z</time>
      </trkpt>
      <trkpt lat="45.01985" lon="5.85936">
        <ele>1469</ele>
        <time>2010-07-04T08:26:46Z</time>
      </trkpt>
      <trkpt lat="45.01984" lon="5.85942">
        <ele>1469</ele>
        <time>2010-07-04T08:26:47Z</time>
      </trkpt>
      <trkpt lat="45.01983" lon="5.85947">
        <ele>1469</ele>
        <time>2010-07-04T08:26:48Z</time>
      </trkpt>
      <trkpt lat="45.01982" lon="5.85953">
        <ele>1469</ele>
        <time>2010-07-04T08:26:49Z</time>
      </trkpt>
      <trkpt lat="45.01981" lon="5.85959">
        <ele>1469</ele>
        <time>2010-07-04T08:26:50Z</time>
      </trkpt>
      <trkpt lat="45.01981" lon="5.85964">
        <ele>1469</ele>
        <time>2010-07-04T08:26:51Z</time>
      </trkpt>
      <trkpt lat="45.0198" lon="5.8597">
        <ele>1469</ele>
        <time>2010-07-04T08:26:52Z</time>
      </trkpt>
      <trkpt lat="45.01979" lon="5.85974">
        <ele>1469</ele>
        <time>2010-07-04T08:26:53Z</time>
      </trkpt>
      <trkpt lat="45.01977" lon="5.85979">
        <ele>1468</ele>
        <time>2010-07-04T08:26:54Z</time>
      </trkpt>
      <trkpt lat="45.01977" lon="5.85984">
        <ele>1468</ele>
        <time>2010-07-04T08:26:55Z</time>
      </trkpt>
      <trkpt lat="45.01976" lon="5.85989">
        <ele>1467</ele>
        <time>2010-07-04T08:26:56Z</time>
      </trkpt>
      <trkpt lat="45.01976" lon="5.85993">
        <ele>1466</ele>
        <time>2010-07-04T08:26:57Z</time>
      </trkpt>
      <trkpt lat="45.01975" lon="5.85997">
        <ele>1465</ele>
        <time>2010-07-04T08:26:58Z</time>
      </trkpt>
      <trkpt lat="45.01974" lon="5.86002">
        <ele>1464</ele>
        <time>2010-07-04T08:26:59Z</time>
      </trkpt>
      <trkpt lat="45.01974" lon="5.86006">
        <ele>1463</ele>
        <time>2010-07-04T08:27:00Z</time>
      </trkpt>
      <trkpt lat="45.01974" lon="5.86011">
        <ele>1462</ele>
        <time>2010-07-04T08:27:01Z</time>
      </trkpt>
      <trkpt lat="45.01974" lon="5.86016">
        <ele>1461</ele>
        <time>2010-07-04T08:27:02Z</time>
      </trkpt>
      <trkpt lat="45.01973" lon="5.8602">
        <ele>1460</ele>
        <time>2010-07-04T08:27:03Z</time>
      </trkpt>
      <trkpt lat="45.01971" lon="5.86024">
        <ele>1459</ele>
        <time>2010-07-04T08:27:04Z</time>
      </trkpt>
      <trkpt lat="45.0197" lon="5.86028">
        <ele>1458</ele>
        <time>2010-07-04T08:27:05Z</time>
      </trkpt>
      <trkpt lat="45.0197" lon="5.86033">
        <ele>1457</ele>
        <time>2010-07-04T08:27:06Z</time>
      </trkpt>
      <trkpt lat="45.0197" lon="5.86038">
        <ele>1456</ele>
        <time>2010-07-04T08:27:07Z</time>
      </trkpt>
      <trkpt lat="45.01971" lon="5.86044">
        <ele>1455</ele>
        <time>2010-07-04T08:27:08Z</time>
      </trkpt>
      <trkpt lat="45.0197" lon="5.86049">
        <ele>1454</ele>
        <time>2010-07-04T08:27:09Z</time>
      </trkpt>
      <trkpt lat="45.0197" lon="5.86055">
        <ele>1453</ele>
        <time>2010-07-04T08:27:10Z</time>
      </trkpt>
      <trkpt lat="45.0197" lon="5.86059">
        <ele>1452</ele>
        <time>2010-07-04T08:27:11Z</time>
      </trkpt>
      <trkpt lat="45.01968" lon="5.86062">
        <ele>1452</ele>
        <time>2010-07-04T08:27:12Z</time>
      </trkpt>
      <trkpt lat="45.01967" lon="5.86066">
        <ele>1452</ele>
        <time>2010-07-04T08:27:13Z</time>
      </trkpt>
      <trkpt lat="45.01967" lon="5.86069">
        <ele>1452</ele>
        <time>2010-07-04T08:27:14Z</time>
      </trkpt>
      <trkpt lat="45.01967" lon="5.86072">
        <ele>1452</ele>
        <time>2010-07-04T08:27:15Z</time>
      </trkpt>
      <trkpt lat="45.01967" lon="5.86076">
        <ele>1451</ele>
        <time>2010-07-04T08:27:16Z</time>
      </trkpt>
      <trkpt lat="45.01967" lon="5.86081">
        <ele>1450</ele>
        <time>2010-07-04T08:27:17Z</time>
      </trkpt>
      <trkpt lat="45.01969" lon="5.86086">
        <ele>1449</ele>
        <time>2010-07-04T08:27:18Z</time>
      </trkpt>
      <trkpt lat="45.01968" lon="5.8609">
        <ele>1448</ele>
        <time>2010-07-04T08:27:19Z</time>
      </trkpt>
      <trkpt lat="45.0197" lon="5.86093">
        <ele>1447</ele>
        <time>2010-07-04T08:27:20Z</time>
      </trkpt>
      <trkpt lat="45.0197" lon="5.86097">
        <ele>1446</ele>
        <time>2010-07-04T08:27:21Z</time>
      </trkpt>
      <trkpt lat="45.0197" lon="5.861">
        <ele>1445</ele>
        <time>2010-07-04T08:27:22Z</time>
      </trkpt>
      <trkpt lat="45.0197" lon="5.86104">
        <ele>1444</ele>
        <time>2010-07-04T08:27:23Z</time>
      </trkpt>
      <trkpt lat="45.0197" lon="5.86107">
        <ele>1444</ele>
        <time>2010-07-04T08:27:24Z</time>
      </trkpt>
      <trkpt lat="45.01972" lon="5.86109">
        <ele>1443</ele>
        <time>2010-07-04T08:27:25Z</time>
      </trkpt>
      <trkpt lat="45.01974" lon="5.8611">
        <ele>1442</ele>
        <time>2010-07-04T08:27:26Z</time>
      </trkpt>
      <trkpt lat="45.01977" lon="5.86113">
        <ele>1441</ele>
        <time>2010-07-04T08:27:27Z</time>
      </trkpt>
      <trkpt lat="45.0198" lon="5.86115">
        <ele>1440</ele>
        <time>2010-07-04T08:27:28Z</time>
      </trkpt>
      <trkpt lat="45.01984" lon="5.86117">
        <ele>1439</ele>
        <time>2010-07-04T08:27:29Z</time>
      </trkpt>
      <trkpt lat="45.01988" lon="5.86119">
        <ele>1438</ele>
        <time>2010-07-04T08:27:30Z</time>
      </trkpt>
      <trkpt lat="45.01993" lon="5.86123">
        <ele>1438</ele>
        <time>2010-07-04T08:27:31Z</time>
      </trkpt>
      <trkpt lat="45.01996" lon="5.86125">
        <ele>1438</ele>
        <time>2010-07-04T08:27:32Z</time>
      </trkpt>
      <trkpt lat="45.02" lon="5.86128">
        <ele>1438</ele>
        <time>2010-07-04T08:27:33Z</time>
      </trkpt>
      <trkpt lat="45.02003" lon="5.8613">
        <ele>1438</ele>
        <time>2010-07-04T08:27:34Z</time>
      </trkpt>
      <trkpt lat="45.02006" lon="5.86133">
        <ele>1438</ele>
        <time>2010-07-04T08:27:35Z</time>
      </trkpt>
      <trkpt lat="45.02008" lon="5.86134">
        <ele>1438</ele>
        <time>2010-07-04T08:27:36Z</time>
      </trkpt>
      <trkpt lat="45.0201" lon="5.86136">
        <ele>1438</ele>
        <time>2010-07-04T08:27:37Z</time>
      </trkpt>
      <trkpt lat="45.02012" lon="5.86137">
        <ele>1438</ele>
        <time>2010-07-04T08:27:38Z</time>
      </trkpt>
      <trkpt lat="45.02013" lon="5.86139">
        <ele>1438</ele>
        <time>2010-07-04T08:27:39Z</time>
      </trkpt>
      <trkpt lat="45.02014" lon="5.86142">
        <ele>1437</ele>
        <time>2010-07-04T08:27:40Z</time>
      </trkpt>
      <trkpt lat="45.02015" lon="5.86146">
        <ele>1436</ele>
        <time>2010-07-04T08:27:41Z</time>
      </trkpt>
      <trkpt lat="45.02017" lon="5.86149">
        <ele>1435</ele>
        <time>2010-07-04T08:27:42Z</time>
      </trkpt>
      <trkpt lat="45.02018" lon="5.86154">
        <ele>1434</ele>
        <time>2010-07-04T08:27:43Z</time>
      </trkpt>
      <trkpt lat="45.02017" lon="5.86157">
        <ele>1433</ele>
        <time>2010-07-04T08:27:44Z</time>
      </trkpt>
      <trkpt lat="45.02016" lon="5.86162">
        <ele>1432</ele>
        <time>2010-07-04T08:27:45Z</time>
      </trkpt>
      <trkpt lat="45.02016" lon="5.86167">
        <ele>1431</ele>
        <time>2010-07-04T08:27:46Z</time>
      </trkpt>
      <trkpt lat="45.02016" lon="5.86171">
        <ele>1430</ele>
        <time>2010-07-04T08:27:47Z</time>
      </trkpt>
      <trkpt lat="45.02016" lon="5.86176">
        <ele>1429</ele>
        <time>2010-07-04T08:27:48Z</time>
      </trkpt>
      <trkpt lat="45.02015" lon="5.86181">
        <ele>1428</ele>
        <time>2010-07-04T08:27:49Z</time>
      </trkpt>
      <trkpt lat="45.02014" lon="5.86187">
        <ele>1427</ele>
        <time>2010-07-04T08:27:50Z</time>
      </trkpt>
      <trkpt lat="45.02014" lon="5.86192">
        <ele>1426</ele>
        <time>2010-07-04T08:27:51Z</time>
      </trkpt>
      <trkpt lat="45.02014" lon="5.86196">
        <ele>1425</ele>
        <time>2010-07-04T08:27:52Z</time>
      </trkpt>
      <trkpt lat="45.02012" lon="5.862">
        <ele>1424</ele>
        <time>2010-07-04T08:27:53Z</time>
      </trkpt>
      <trkpt lat="45.02009" lon="5.86204">
        <ele>1423</ele>
        <time>2010-07-04T08:27:54Z</time>
      </trkpt>
      <trkpt lat="45.02008" lon="5.86207">
        <ele>1422</ele>
        <time>2010-07-04T08:27:55Z</time>
      </trkpt>
      <trkpt lat="45.02006" lon="5.8621">
        <ele>1421</ele>
        <time>2010-07-04T08:27:56Z</time>
      </trkpt>
      <trkpt lat="45.02003" lon="5.86214">
        <ele>1419</ele>
        <time>2010-07-04T08:27:58Z</time>
      </trkpt>
      <trkpt lat="45.02002" lon="5.86218">
        <ele>1417</ele>
        <time>2010-07-04T08:27:59Z</time>
      </trkpt>
      <trkpt lat="45.02001" lon="5.86221">
        <ele>1416</ele>
        <time>2010-07-04T08:28:00Z</time>
      </trkpt>
      <trkpt lat="45.02" lon="5.86226">
        <ele>1414</ele>
        <time>2010-07-04T08:28:01Z</time>
      </trkpt>
      <trkpt lat="45.01999" lon="5.86229">
        <ele>1412</ele>
        <time>2010-07-04T08:28:02Z</time>
      </trkpt>
      <trkpt lat="45.02" lon="5.86232">
        <ele>1410</ele>
        <time>2010-07-04T08:28:03Z</time>
      </trkpt>
      <trkpt lat="45.02001" lon="5.86236">
        <ele>1408</ele>
        <time>2010-07-04T08:28:04Z</time>
      </trkpt>
      <trkpt lat="45.02003" lon="5.86241">
        <ele>1407</ele>
        <time>2010-07-04T08:28:05Z</time>
      </trkpt>
      <trkpt lat="45.02005" lon="5.86243">
        <ele>1405</ele>
        <time>2010-07-04T08:28:06Z</time>
      </trkpt>
      <trkpt lat="45.02006" lon="5.86246">
        <ele>1404</ele>
        <time>2010-07-04T08:28:07Z</time>
      </trkpt>
      <trkpt lat="45.02009" lon="5.86247">
        <ele>1403</ele>
        <time>2010-07-04T08:28:08Z</time>
      </trkpt>
      <trkpt lat="45.02013" lon="5.86249">
        <ele>1402</ele>
        <time>2010-07-04T08:28:09Z</time>
      </trkpt>
      <trkpt lat="45.02016" lon="5.86251">
        <ele>1401</ele>
        <time>2010-07-04T08:28:10Z</time>
      </trkpt>
      <trkpt lat="45.02019" lon="5.8625">
        <ele>1400</ele>
        <time>2010-07-04T08:28:11Z</time>
      </trkpt>
      <trkpt lat="45.02021" lon="5.86248">
        <ele>1400</ele>
        <time>2010-07-04T08:28:12Z</time>
      </trkpt>
      <trkpt lat="45.02025" lon="5.86248">
        <ele>1400</ele>
        <time>2010-07-04T08:28:13Z</time>
      </trkpt>
      <trkpt lat="45.02029" lon="5.86248">
        <ele>1400</ele>
        <time>2010-07-04T08:28:14Z</time>
      </trkpt>
      <trkpt lat="45.02032" lon="5.86248">
        <ele>1400</ele>
        <time>2010-07-04T08:28:15Z</time>
      </trkpt>
      <trkpt lat="45.02034" lon="5.8625">
        <ele>1400</ele>
        <time>2010-07-04T08:28:16Z</time>
      </trkpt>
      <trkpt lat="45.02033" lon="5.86254">
        <ele>1400</ele>
        <time>2010-07-04T08:28:17Z</time>
      </trkpt>
      <trkpt lat="45.02031" lon="5.86259">
        <ele>1400</ele>
        <time>2010-07-04T08:28:18Z</time>
      </trkpt>
      <trkpt lat="45.02029" lon="5.86265">
        <ele>1400</ele>
        <time>2010-07-04T08:28:19Z</time>
      </trkpt>
      <trkpt lat="45.02028" lon="5.8627">
        <ele>1400</ele>
        <time>2010-07-04T08:28:20Z</time>
      </trkpt>
      <trkpt lat="45.02027" lon="5.86274">
        <ele>1400</ele>
        <time>2010-07-04T08:28:21Z</time>
      </trkpt>
      <trkpt lat="45.02026" lon="5.86277">
        <ele>1400</ele>
        <time>2010-07-04T08:28:22Z</time>
      </trkpt>
      <trkpt lat="45.02027" lon="5.8628">
        <ele>1400</ele>
        <time>2010-07-04T08:28:23Z</time>
      </trkpt>
      <trkpt lat="45.02025" lon="5.86286">
        <ele>1400</ele>
        <time>2010-07-04T08:28:24Z</time>
      </trkpt>
      <trkpt lat="45.02022" lon="5.8629">
        <ele>1400</ele>
        <time>2010-07-04T08:28:25Z</time>
      </trkpt>
      <trkpt lat="45.0202" lon="5.86294">
        <ele>1400</ele>
        <time>2010-07-04T08:28:26Z</time>
      </trkpt>
      <trkpt lat="45.02018" lon="5.86298">
        <ele>1400</ele>
        <time>2010-07-04T08:28:27Z</time>
      </trkpt>
      <trkpt lat="45.02016" lon="5.86303">
        <ele>1400</ele>
        <time>2010-07-04T08:28:28Z</time>
      </trkpt>
      <trkpt lat="45.02016" lon="5.86307">
        <ele>1400</ele>
        <time>2010-07-04T08:28:29Z</time>
      </trkpt>
      <trkpt lat="45.02015" lon="5.86311">
        <ele>1400</ele>
        <time>2010-07-04T08:28:30Z</time>
      </trkpt>
      <trkpt lat="45.02013" lon="5.86315">
        <ele>1400</ele>
        <time>2010-07-04T08:28:31Z</time>
      </trkpt>
      <trkpt lat="45.02011" lon="5.86317">
        <ele>1400</ele>
        <time>2010-07-04T08:28:32Z</time>
      </trkpt>
      <trkpt lat="45.02007" lon="5.86321">
        <ele>1400</ele>
        <time>2010-07-04T08:28:33Z</time>
      </trkpt>
      <trkpt lat="45.02005" lon="5.86325">
        <ele>1400</ele>
        <time>2010-07-04T08:28:34Z</time>
      </trkpt>
      <trkpt lat="45.02003" lon="5.86329">
        <ele>1399</ele>
        <time>2010-07-04T08:28:35Z</time>
      </trkpt>
      <trkpt lat="45.02" lon="5.86333">
        <ele>1398</ele>
        <time>2010-07-04T08:28:36Z</time>
      </trkpt>
      <trkpt lat="45.01999" lon="5.86337">
        <ele>1397</ele>
        <time>2010-07-04T08:28:37Z</time>
      </trkpt>
      <trkpt lat="45.01997" lon="5.86342">
        <ele>1396</ele>
        <time>2010-07-04T08:28:38Z</time>
      </trkpt>
      <trkpt lat="45.01995" lon="5.86346">
        <ele>1395</ele>
        <time>2010-07-04T08:28:39Z</time>
      </trkpt>
      <trkpt lat="45.01993" lon="5.8635">
        <ele>1394</ele>
        <time>2010-07-04T08:28:40Z</time>
      </trkpt>
      <trkpt lat="45.01992" lon="5.86354">
        <ele>1393</ele>
        <time>2010-07-04T08:28:41Z</time>
      </trkpt>
      <trkpt lat="45.01992" lon="5.86357">
        <ele>1393</ele>
        <time>2010-07-04T08:28:42Z</time>
      </trkpt>
      <trkpt lat="45.01991" lon="5.8636">
        <ele>1392</ele>
        <time>2010-07-04T08:28:43Z</time>
      </trkpt>
      <trkpt lat="45.0199" lon="5.86364">
        <ele>1391</ele>
        <time>2010-07-04T08:28:44Z</time>
      </trkpt>
      <trkpt lat="45.01988" lon="5.86368">
        <ele>1391</ele>
        <time>2010-07-04T08:28:45Z</time>
      </trkpt>
      <trkpt lat="45.01986" lon="5.86372">
        <ele>1390</ele>
        <time>2010-07-04T08:28:46Z</time>
      </trkpt>
      <trkpt lat="45.01984" lon="5.86377">
        <ele>1389</ele>
        <time>2010-07-04T08:28:47Z</time>
      </trkpt>
      <trkpt lat="45.01983" lon="5.86381">
        <ele>1388</ele>
        <time>2010-07-04T08:28:48Z</time>
      </trkpt>
      <trkpt lat="45.01983" lon="5.86385">
        <ele>1387</ele>
        <time>2010-07-04T08:28:49Z</time>
      </trkpt>
      <trkpt lat="45.01981" lon="5.86389">
        <ele>1386</ele>
        <time>2010-07-04T08:28:50Z</time>
      </trkpt>
      <trkpt lat="45.01981" lon="5.86393">
        <ele>1385</ele>
        <time>2010-07-04T08:28:51Z</time>
      </trkpt>
      <trkpt lat="45.0198" lon="5.86398">
        <ele>1384</ele>
        <time>2010-07-04T08:28:52Z</time>
      </trkpt>
      <trkpt lat="45.0198" lon="5.86403">
        <ele>1383</ele>
        <time>2010-07-04T08:28:53Z</time>
      </trkpt>
      <trkpt lat="45.01978" lon="5.86408">
        <ele>1382</ele>
        <time>2010-07-04T08:28:54Z</time>
      </trkpt>
      <trkpt lat="45.01977" lon="5.86412">
        <ele>1381</ele>
        <time>2010-07-04T08:28:55Z</time>
      </trkpt>
      <trkpt lat="45.01976" lon="5.86416">
        <ele>1380</ele>
        <time>2010-07-04T08:28:56Z</time>
      </trkpt>
      <trkpt lat="45.01974" lon="5.8642">
        <ele>1379</ele>
        <time>2010-07-04T08:28:57Z</time>
      </trkpt>
      <trkpt lat="45.01973" lon="5.86424">
        <ele>1378</ele>
        <time>2010-07-04T08:28:58Z</time>
      </trkpt>
      <trkpt lat="45.01971" lon="5.86428">
        <ele>1377</ele>
        <time>2010-07-04T08:28:59Z</time>
      </trkpt>
      <trkpt lat="45.01969" lon="5.86432">
        <ele>1376</ele>
        <time>2010-07-04T08:29:00Z</time>
      </trkpt>
      <trkpt lat="45.01967" lon="5.86437">
        <ele>1375</ele>
        <time>2010-07-04T08:29:01Z</time>
      </trkpt>
      <trkpt lat="45.01965" lon="5.86442">
        <ele>1374</ele>
        <time>2010-07-04T08:29:02Z</time>
      </trkpt>
      <trkpt lat="45.01963" lon="5.86448">
        <ele>1374</ele>
        <time>2010-07-04T08:29:03Z</time>
      </trkpt>
      <trkpt lat="45.01961" lon="5.86454">
        <ele>1374</ele>
        <time>2010-07-04T08:29:04Z</time>
      </trkpt>
      <trkpt lat="45.0196" lon="5.86459">
        <ele>1374</ele>
        <time>2010-07-04T08:29:05Z</time>
      </trkpt>
      <trkpt lat="45.01959" lon="5.86463">
        <ele>1374</ele>
        <time>2010-07-04T08:29:06Z</time>
      </trkpt>
      <trkpt lat="45.01959" lon="5.86467">
        <ele>1373</ele>
        <time>2010-07-04T08:29:07Z</time>
      </trkpt>
      <trkpt lat="45.01959" lon="5.86472">
        <ele>1373</ele>
        <time>2010-07-04T08:29:08Z</time>
      </trkpt>
      <trkpt lat="45.01958" lon="5.86476">
        <ele>1373</ele>
        <time>2010-07-04T08:29:09Z</time>
      </trkpt>
      <trkpt lat="45.01956" lon="5.86481">
        <ele>1372</ele>
        <time>2010-07-04T08:29:10Z</time>
      </trkpt>
      <trkpt lat="45.01957" lon="5.86485">
        <ele>1371</ele>
        <time>2010-07-04T08:29:11Z</time>
      </trkpt>
      <trkpt lat="45.01956" lon="5.8649">
        <ele>1371</ele>
        <time>2010-07-04T08:29:12Z</time>
      </trkpt>
      <trkpt lat="45.01957" lon="5.86494">
        <ele>1370</ele>
        <time>2010-07-04T08:29:13Z</time>
      </trkpt>
      <trkpt lat="45.01957" lon="5.86498">
        <ele>1370</ele>
        <time>2010-07-04T08:29:14Z</time>
      </trkpt>
      <trkpt lat="45.01956" lon="5.86503">
        <ele>1370</ele>
        <time>2010-07-04T08:29:15Z</time>
      </trkpt>
      <trkpt lat="45.01956" lon="5.86508">
        <ele>1370</ele>
        <time>2010-07-04T08:29:16Z</time>
      </trkpt>
      <trkpt lat="45.01955" lon="5.86512">
        <ele>1370</ele>
        <time>2010-07-04T08:29:17Z</time>
      </trkpt>
      <trkpt lat="45.01954" lon="5.86516">
        <ele>1370</ele>
        <time>2010-07-04T08:29:18Z</time>
      </trkpt>
      <trkpt lat="45.01955" lon="5.8652">
        <ele>1370</ele>
        <time>2010-07-04T08:29:19Z</time>
      </trkpt>
      <trkpt lat="45.01955" lon="5.86524">
        <ele>1369</ele>
        <time>2010-07-04T08:29:20Z</time>
      </trkpt>
      <trkpt lat="45.01955" lon="5.86529">
        <ele>1369</ele>
        <time>2010-07-04T08:29:21Z</time>
      </trkpt>
      <trkpt lat="45.01952" lon="5.86534">
        <ele>1368</ele>
        <time>2010-07-04T08:29:22Z</time>
      </trkpt>
      <trkpt lat="45.01951" lon="5.86539">
        <ele>1367</ele>
        <time>2010-07-04T08:29:23Z</time>
      </trkpt>
      <trkpt lat="45.0195" lon="5.86544">
        <ele>1366</ele>
        <time>2010-07-04T08:29:24Z</time>
      </trkpt>
      <trkpt lat="45.01949" lon="5.86549">
        <ele>1365</ele>
        <time>2010-07-04T08:29:25Z</time>
      </trkpt>
      <trkpt lat="45.01948" lon="5.86554">
        <ele>1365</ele>
        <time>2010-07-04T08:29:26Z</time>
      </trkpt>
      <trkpt lat="45.01947" lon="5.86559">
        <ele>1364</ele>
        <time>2010-07-04T08:29:27Z</time>
      </trkpt>
      <trkpt lat="45.01947" lon="5.86565">
        <ele>1364</ele>
        <time>2010-07-04T08:29:28Z</time>
      </trkpt>
      <trkpt lat="45.01947" lon="5.8657">
        <ele>1363</ele>
        <time>2010-07-04T08:29:29Z</time>
      </trkpt>
      <trkpt lat="45.01946" lon="5.86575">
        <ele>1363</ele>
        <time>2010-07-04T08:29:30Z</time>
      </trkpt>
      <trkpt lat="45.01945" lon="5.86581">
        <ele>1363</ele>
        <time>2010-07-04T08:29:31Z</time>
      </trkpt>
      <trkpt lat="45.01944" lon="5.86586">
        <ele>1363</ele>
        <time>2010-07-04T08:29:32Z</time>
      </trkpt>
      <trkpt lat="45.01942" lon="5.86591">
        <ele>1362</ele>
        <time>2010-07-04T08:29:33Z</time>
      </trkpt>
      <trkpt lat="45.01941" lon="5.86595">
        <ele>1362</ele>
        <time>2010-07-04T08:29:34Z</time>
      </trkpt>
      <trkpt lat="45.0194" lon="5.86599">
        <ele>1361</ele>
        <time>2010-07-04T08:29:35Z</time>
      </trkpt>
      <trkpt lat="45.01938" lon="5.86603">
        <ele>1361</ele>
        <time>2010-07-04T08:29:36Z</time>
      </trkpt>
      <trkpt lat="45.01937" lon="5.86608">
        <ele>1360</ele>
        <time>2010-07-04T08:29:37Z</time>
      </trkpt>
      <trkpt lat="45.01935" lon="5.86612">
        <ele>1359</ele>
        <time>2010-07-04T08:29:38Z</time>
      </trkpt>
      <trkpt lat="45.01933" lon="5.86616">
        <ele>1359</ele>
        <time>2010-07-04T08:29:39Z</time>
      </trkpt>
      <trkpt lat="45.01931" lon="5.86619">
        <ele>1359</ele>
        <time>2010-07-04T08:29:40Z</time>
      </trkpt>
      <trkpt lat="45.01928" lon="5.86622">
        <ele>1358</ele>
        <time>2010-07-04T08:29:41Z</time>
      </trkpt>
      <trkpt lat="45.01926" lon="5.86625">
        <ele>1358</ele>
        <time>2010-07-04T08:29:42Z</time>
      </trkpt>
      <trkpt lat="45.01923" lon="5.86627">
        <ele>1357</ele>
        <time>2010-07-04T08:29:43Z</time>
      </trkpt>
      <trkpt lat="45.0192" lon="5.86628">
        <ele>1357</ele>
        <time>2010-07-04T08:29:44Z</time>
      </trkpt>
      <trkpt lat="45.01917" lon="5.8663">
        <ele>1356</ele>
        <time>2010-07-04T08:29:45Z</time>
      </trkpt>
      <trkpt lat="45.01914" lon="5.86632">
        <ele>1356</ele>
        <time>2010-07-04T08:29:46Z</time>
      </trkpt>
      <trkpt lat="45.01912" lon="5.86634">
        <ele>1356</ele>
        <time>2010-07-04T08:29:47Z</time>
      </trkpt>
      <trkpt lat="45.01909" lon="5.86638">
        <ele>1356</ele>
        <time>2010-07-04T08:29:48Z</time>
      </trkpt>
      <trkpt lat="45.01905" lon="5.86642">
        <ele>1356</ele>
        <time>2010-07-04T08:29:49Z</time>
      </trkpt>
      <trkpt lat="45.01904" lon="5.86645">
        <ele>1356</ele>
        <time>2010-07-04T08:29:50Z</time>
      </trkpt>
      <trkpt lat="45.01902" lon="5.86649">
        <ele>1356</ele>
        <time>2010-07-04T08:29:51Z</time>
      </trkpt>
      <trkpt lat="45.019" lon="5.86654">
        <ele>1356</ele>
        <time>2010-07-04T08:29:52Z</time>
      </trkpt>
      <trkpt lat="45.01898" lon="5.86657">
        <ele>1356</ele>
        <time>2010-07-04T08:29:53Z</time>
      </trkpt>
      <trkpt lat="45.01896" lon="5.86661">
        <ele>1356</ele>
        <time>2010-07-04T08:29:54Z</time>
      </trkpt>
      <trkpt lat="45.01894" lon="5.86664">
        <ele>1356</ele>
        <time>2010-07-04T08:29:55Z</time>
      </trkpt>
      <trkpt lat="45.01893" lon="5.86668">
        <ele>1356</ele>
        <time>2010-07-04T08:29:56Z</time>
      </trkpt>
      <trkpt lat="45.01892" lon="5.86672">
        <ele>1356</ele>
        <time>2010-07-04T08:29:57Z</time>
      </trkpt>
      <trkpt lat="45.01888" lon="5.86677">
        <ele>1356</ele>
        <time>2010-07-04T08:29:58Z</time>
      </trkpt>
      <trkpt lat="45.01886" lon="5.86683">
        <ele>1356</ele>
        <time>2010-07-04T08:29:59Z</time>
      </trkpt>
      <trkpt lat="45.01884" lon="5.86687">
        <ele>1356</ele>
        <time>2010-07-04T08:30:00Z</time>
      </trkpt>
      <trkpt lat="45.01882" lon="5.86692">
        <ele>1356</ele>
        <time>2010-07-04T08:30:01Z</time>
      </trkpt>
      <trkpt lat="45.0188" lon="5.86697">
        <ele>1357</ele>
        <time>2010-07-04T08:30:02Z</time>
      </trkpt>
      <trkpt lat="45.01877" lon="5.86699">
        <ele>1357</ele>
        <time>2010-07-04T08:30:03Z</time>
      </trkpt>
      <trkpt lat="45.01875" lon="5.86703">
        <ele>1357</ele>
        <time>2010-07-04T08:30:04Z</time>
      </trkpt>
      <trkpt lat="45.01872" lon="5.86708">
        <ele>1357</ele>
        <time>2010-07-04T08:30:05Z</time>
      </trkpt>
      <trkpt lat="45.01869" lon="5.86713">
        <ele>1357</ele>
        <time>2010-07-04T08:30:06Z</time>
      </trkpt>
      <trkpt lat="45.01867" lon="5.86719">
        <ele>1357</ele>
        <time>2010-07-04T08:30:07Z</time>
      </trkpt>
      <trkpt lat="45.01864" lon="5.86723">
        <ele>1357</ele>
        <time>2010-07-04T08:30:08Z</time>
      </trkpt>
      <trkpt lat="45.01863" lon="5.86726">
        <ele>1357</ele>
        <time>2010-07-04T08:30:09Z</time>
      </trkpt>
      <trkpt lat="45.0186" lon="5.86729">
        <ele>1357</ele>
        <time>2010-07-04T08:30:10Z</time>
      </trkpt>
      <trkpt lat="45.01858" lon="5.86734">
        <ele>1357</ele>
        <time>2010-07-04T08:30:11Z</time>
      </trkpt>
      <trkpt lat="45.01856" lon="5.86737">
        <ele>1357</ele>
        <time>2010-07-04T08:30:12Z</time>
      </trkpt>
      <trkpt lat="45.01854" lon="5.86742">
        <ele>1357</ele>
        <time>2010-07-04T08:30:13Z</time>
      </trkpt>
      <trkpt lat="45.01851" lon="5.86747">
        <ele>1357</ele>
        <time>2010-07-04T08:30:14Z</time>
      </trkpt>
      <trkpt lat="45.01849" lon="5.86752">
        <ele>1357</ele>
        <time>2010-07-04T08:30:15Z</time>
      </trkpt>
      <trkpt lat="45.01847" lon="5.86756">
        <ele>1357</ele>
        <time>2010-07-04T08:30:16Z</time>
      </trkpt>
      <trkpt lat="45.01844" lon="5.86762">
        <ele>1357</ele>
        <time>2010-07-04T08:30:17Z</time>
      </trkpt>
      <trkpt lat="45.01842" lon="5.86764">
        <ele>1357</ele>
        <time>2010-07-04T08:30:18Z</time>
      </trkpt>
      <trkpt lat="45.01839" lon="5.86764">
        <ele>1357</ele>
        <time>2010-07-04T08:30:19Z</time>
      </trkpt>
      <trkpt lat="45.01836" lon="5.86766">
        <ele>1356</ele>
        <time>2010-07-04T08:30:20Z</time>
      </trkpt>
      <trkpt lat="45.01833" lon="5.86768">
        <ele>1356</ele>
        <time>2010-07-04T08:30:21Z</time>
      </trkpt>
      <trkpt lat="45.0183" lon="5.8677">
        <ele>1355</ele>
        <time>2010-07-04T08:30:22Z</time>
      </trkpt>
      <trkpt lat="45.01828" lon="5.86772">
        <ele>1354</ele>
        <time>2010-07-04T08:30:23Z</time>
      </trkpt>
      <trkpt lat="45.01821" lon="5.86778">
        <ele>1353</ele>
        <time>2010-07-04T08:30:26Z</time>
      </trkpt>
      <trkpt lat="45.0182" lon="5.86782">
        <ele>1352</ele>
        <time>2010-07-04T08:30:27Z</time>
      </trkpt>
      <trkpt lat="45.01818" lon="5.86785">
        <ele>1351</ele>
        <time>2010-07-04T08:30:28Z</time>
      </trkpt>
      <trkpt lat="45.01815" lon="5.86787">
        <ele>1350</ele>
        <time>2010-07-04T08:30:29Z</time>
      </trkpt>
      <trkpt lat="45.01811" lon="5.86791">
        <ele>1349</ele>
        <time>2010-07-04T08:30:30Z</time>
      </trkpt>
      <trkpt lat="45.01807" lon="5.86797">
        <ele>1348</ele>
        <time>2010-07-04T08:30:31Z</time>
      </trkpt>
      <trkpt lat="45.01805" lon="5.868">
        <ele>1347</ele>
        <time>2010-07-04T08:30:32Z</time>
      </trkpt>
      <trkpt lat="45.01804" lon="5.86804">
        <ele>1346</ele>
        <time>2010-07-04T08:30:33Z</time>
      </trkpt>
      <trkpt lat="45.01802" lon="5.86809">
        <ele>1345</ele>
        <time>2010-07-04T08:30:34Z</time>
      </trkpt>
      <trkpt lat="45.01799" lon="5.86813">
        <ele>1344</ele>
        <time>2010-07-04T08:30:35Z</time>
      </trkpt>
      <trkpt lat="45.01797" lon="5.86817">
        <ele>1343</ele>
        <time>2010-07-04T08:30:36Z</time>
      </trkpt>
      <trkpt lat="45.01795" lon="5.86822">
        <ele>1342</ele>
        <time>2010-07-04T08:30:37Z</time>
      </trkpt>
      <trkpt lat="45.01793" lon="5.86825">
        <ele>1341</ele>
        <time>2010-07-04T08:30:38Z</time>
      </trkpt>
      <trkpt lat="45.01791" lon="5.86829">
        <ele>1340</ele>
        <time>2010-07-04T08:30:39Z</time>
      </trkpt>
      <trkpt lat="45.01789" lon="5.86832">
        <ele>1339</ele>
        <time>2010-07-04T08:30:40Z</time>
      </trkpt>
      <trkpt lat="45.01789" lon="5.86835">
        <ele>1339</ele>
        <time>2010-07-04T08:30:41Z</time>
      </trkpt>
      <trkpt lat="45.01787" lon="5.86839">
        <ele>1338</ele>
        <time>2010-07-04T08:30:42Z</time>
      </trkpt>
      <trkpt lat="45.01787" lon="5.86843">
        <ele>1338</ele>
        <time>2010-07-04T08:30:43Z</time>
      </trkpt>
      <trkpt lat="45.01787" lon="5.86846">
        <ele>1338</ele>
        <time>2010-07-04T08:30:44Z</time>
      </trkpt>
      <trkpt lat="45.01787" lon="5.86849">
        <ele>1338</ele>
        <time>2010-07-04T08:30:45Z</time>
      </trkpt>
      <trkpt lat="45.01786" lon="5.86852">
        <ele>1338</ele>
        <time>2010-07-04T08:30:46Z</time>
      </trkpt>
      <trkpt lat="45.01787" lon="5.86856">
        <ele>1337</ele>
        <time>2010-07-04T08:30:47Z</time>
      </trkpt>
      <trkpt lat="45.01785" lon="5.8686">
        <ele>1337</ele>
        <time>2010-07-04T08:30:48Z</time>
      </trkpt>
      <trkpt lat="45.01783" lon="5.86864">
        <ele>1337</ele>
        <time>2010-07-04T08:30:49Z</time>
      </trkpt>
      <trkpt lat="45.01781" lon="5.86869">
        <ele>1336</ele>
        <time>2010-07-04T08:30:50Z</time>
      </trkpt>
      <trkpt lat="45.01778" lon="5.86873">
        <ele>1336</ele>
        <time>2010-07-04T08:30:51Z</time>
      </trkpt>
      <trkpt lat="45.01776" lon="5.86877">
        <ele>1335</ele>
        <time>2010-07-04T08:30:52Z</time>
      </trkpt>
      <trkpt lat="45.01774" lon="5.86881">
        <ele>1334</ele>
        <time>2010-07-04T08:30:53Z</time>
      </trkpt>
      <trkpt lat="45.01771" lon="5.86886">
        <ele>1333</ele>
        <time>2010-07-04T08:30:54Z</time>
      </trkpt>
      <trkpt lat="45.0177" lon="5.8689">
        <ele>1332</ele>
        <time>2010-07-04T08:30:55Z</time>
      </trkpt>
      <trkpt lat="45.01768" lon="5.86895">
        <ele>1332</ele>
        <time>2010-07-04T08:30:56Z</time>
      </trkpt>
      <trkpt lat="45.01765" lon="5.86901">
        <ele>1331</ele>
        <time>2010-07-04T08:30:57Z</time>
      </trkpt>
      <trkpt lat="45.01764" lon="5.86905">
        <ele>1331</ele>
        <time>2010-07-04T08:30:58Z</time>
      </trkpt>
      <trkpt lat="45.01764" lon="5.86907">
        <ele>1331</ele>
        <time>2010-07-04T08:30:59Z</time>
      </trkpt>
      <trkpt lat="45.01761" lon="5.86911">
        <ele>1331</ele>
        <time>2010-07-04T08:31:00Z</time>
      </trkpt>
      <trkpt lat="45.0176" lon="5.86914">
        <ele>1331</ele>
        <time>2010-07-04T08:31:01Z</time>
      </trkpt>
      <trkpt lat="45.01758" lon="5.86917">
        <ele>1331</ele>
        <time>2010-07-04T08:31:02Z</time>
      </trkpt>
      <trkpt lat="45.01757" lon="5.86919">
        <ele>1330</ele>
        <time>2010-07-04T08:31:03Z</time>
      </trkpt>
      <trkpt lat="45.01754" lon="5.86923">
        <ele>1330</ele>
        <time>2010-07-04T08:31:04Z</time>
      </trkpt>
      <trkpt lat="45.01751" lon="5.86926">
        <ele>1329</ele>
        <time>2010-07-04T08:31:05Z</time>
      </trkpt>
      <trkpt lat="45.01748" lon="5.8693">
        <ele>1328</ele>
        <time>2010-07-04T08:31:06Z</time>
      </trkpt>
      <trkpt lat="45.01745" lon="5.86933">
        <ele>1328</ele>
        <time>2010-07-04T08:31:07Z</time>
      </trkpt>
      <trkpt lat="45.01743" lon="5.86935">
        <ele>1328</ele>
        <time>2010-07-04T08:31:08Z</time>
      </trkpt>
      <trkpt lat="45.01741" lon="5.86938">
        <ele>1327</ele>
        <time>2010-07-04T08:31:09Z</time>
      </trkpt>
      <trkpt lat="45.01739" lon="5.86942">
        <ele>1327</ele>
        <time>2010-07-04T08:31:10Z</time>
      </trkpt>
      <trkpt lat="45.01737" lon="5.86945">
        <ele>1327</ele>
        <time>2010-07-04T08:31:11Z</time>
      </trkpt>
      <trkpt lat="45.01736" lon="5.8695">
        <ele>1327</ele>
        <time>2010-07-04T08:31:12Z</time>
      </trkpt>
      <trkpt lat="45.01734" lon="5.86954">
        <ele>1327</ele>
        <time>2010-07-04T08:31:13Z</time>
      </trkpt>
      <trkpt lat="45.01733" lon="5.86958">
        <ele>1327</ele>
        <time>2010-07-04T08:31:14Z</time>
      </trkpt>
      <trkpt lat="45.01733" lon="5.86962">
        <ele>1326</ele>
        <time>2010-07-04T08:31:15Z</time>
      </trkpt>
      <trkpt lat="45.01733" lon="5.86967">
        <ele>1325</ele>
        <time>2010-07-04T08:31:16Z</time>
      </trkpt>
      <trkpt lat="45.01732" lon="5.86971">
        <ele>1324</ele>
        <time>2010-07-04T08:31:17Z</time>
      </trkpt>
      <trkpt lat="45.01732" lon="5.86975">
        <ele>1324</ele>
        <time>2010-07-04T08:31:18Z</time>
      </trkpt>
      <trkpt lat="45.01732" lon="5.86979">
        <ele>1323</ele>
        <time>2010-07-04T08:31:19Z</time>
      </trkpt>
      <trkpt lat="45.01732" lon="5.86983">
        <ele>1323</ele>
        <time>2010-07-04T08:31:20Z</time>
      </trkpt>
      <trkpt lat="45.0173" lon="5.86988">
        <ele>1323</ele>
        <time>2010-07-04T08:31:21Z</time>
      </trkpt>
      <trkpt lat="45.01729" lon="5.86992">
        <ele>1322</ele>
        <time>2010-07-04T08:31:22Z</time>
      </trkpt>
      <trkpt lat="45.01728" lon="5.86997">
        <ele>1322</ele>
        <time>2010-07-04T08:31:23Z</time>
      </trkpt>
      <trkpt lat="45.01727" lon="5.87002">
        <ele>1322</ele>
        <time>2010-07-04T08:31:24Z</time>
      </trkpt>
      <trkpt lat="45.01726" lon="5.87008">
        <ele>1322</ele>
        <time>2010-07-04T08:31:25Z</time>
      </trkpt>
      <trkpt lat="45.01724" lon="5.87012">
        <ele>1322</ele>
        <time>2010-07-04T08:31:26Z</time>
      </trkpt>
      <trkpt lat="45.01723" lon="5.87017">
        <ele>1322</ele>
        <time>2010-07-04T08:31:27Z</time>
      </trkpt>
      <trkpt lat="45.0172" lon="5.87021">
        <ele>1321</ele>
        <time>2010-07-04T08:31:28Z</time>
      </trkpt>
      <trkpt lat="45.01718" lon="5.87026">
        <ele>1321</ele>
        <time>2010-07-04T08:31:29Z</time>
      </trkpt>
      <trkpt lat="45.01716" lon="5.87031">
        <ele>1320</ele>
        <time>2010-07-04T08:31:30Z</time>
      </trkpt>
      <trkpt lat="45.01715" lon="5.87035">
        <ele>1319</ele>
        <time>2010-07-04T08:31:31Z</time>
      </trkpt>
      <trkpt lat="45.01713" lon="5.8704">
        <ele>1319</ele>
        <time>2010-07-04T08:31:32Z</time>
      </trkpt>
      <trkpt lat="45.0171" lon="5.87043">
        <ele>1318</ele>
        <time>2010-07-04T08:31:33Z</time>
      </trkpt>
      <trkpt lat="45.01708" lon="5.87047">
        <ele>1318</ele>
        <time>2010-07-04T08:31:34Z</time>
      </trkpt>
      <trkpt lat="45.01706" lon="5.8705">
        <ele>1317</ele>
        <time>2010-07-04T08:31:35Z</time>
      </trkpt>
      <trkpt lat="45.01704" lon="5.87054">
        <ele>1316</ele>
        <time>2010-07-04T08:31:36Z</time>
      </trkpt>
      <trkpt lat="45.01701" lon="5.87058">
        <ele>1316</ele>
        <time>2010-07-04T08:31:37Z</time>
      </trkpt>
      <trkpt lat="45.01699" lon="5.87062">
        <ele>1315</ele>
        <time>2010-07-04T08:31:38Z</time>
      </trkpt>
      <trkpt lat="45.01697" lon="5.87065">
        <ele>1315</ele>
        <time>2010-07-04T08:31:39Z</time>
      </trkpt>
      <trkpt lat="45.01694" lon="5.8707">
        <ele>1314</ele>
        <time>2010-07-04T08:31:40Z</time>
      </trkpt>
      <trkpt lat="45.01692" lon="5.87073">
        <ele>1314</ele>
        <time>2010-07-04T08:31:41Z</time>
      </trkpt>
      <trkpt lat="45.0169" lon="5.87076">
        <ele>1314</ele>
        <time>2010-07-04T08:31:42Z</time>
      </trkpt>
      <trkpt lat="45.01687" lon="5.8708">
        <ele>1313</ele>
        <time>2010-07-04T08:31:43Z</time>
      </trkpt>
      <trkpt lat="45.01684" lon="5.87084">
        <ele>1313</ele>
        <time>2010-07-04T08:31:44Z</time>
      </trkpt>
      <trkpt lat="45.01682" lon="5.87088">
        <ele>1313</ele>
        <time>2010-07-04T08:31:45Z</time>
      </trkpt>
      <trkpt lat="45.0168" lon="5.87092">
        <ele>1312</ele>
        <time>2010-07-04T08:31:46Z</time>
      </trkpt>
      <trkpt lat="45.01677" lon="5.87097">
        <ele>1312</ele>
        <time>2010-07-04T08:31:47Z</time>
      </trkpt>
      <trkpt lat="45.01676" lon="5.87101">
        <ele>1312</ele>
        <time>2010-07-04T08:31:48Z</time>
      </trkpt>
      <trkpt lat="45.01674" lon="5.87106">
        <ele>1312</ele>
        <time>2010-07-04T08:31:49Z</time>
      </trkpt>
      <trkpt lat="45.01673" lon="5.8711">
        <ele>1311</ele>
        <time>2010-07-04T08:31:50Z</time>
      </trkpt>
      <trkpt lat="45.01672" lon="5.87115">
        <ele>1311</ele>
        <time>2010-07-04T08:31:51Z</time>
      </trkpt>
      <trkpt lat="45.01671" lon="5.87119">
        <ele>1311</ele>
        <time>2010-07-04T08:31:52Z</time>
      </trkpt>
      <trkpt lat="45.0167" lon="5.87124">
        <ele>1310</ele>
        <time>2010-07-04T08:31:53Z</time>
      </trkpt>
      <trkpt lat="45.01669" lon="5.87129">
        <ele>1310</ele>
        <time>2010-07-04T08:31:54Z</time>
      </trkpt>
      <trkpt lat="45.01668" lon="5.87134">
        <ele>1310</ele>
        <time>2010-07-04T08:31:55Z</time>
      </trkpt>
      <trkpt lat="45.01668" lon="5.87138">
        <ele>1309</ele>
        <time>2010-07-04T08:31:56Z</time>
      </trkpt>
      <trkpt lat="45.01667" lon="5.87142">
        <ele>1309</ele>
        <time>2010-07-04T08:31:57Z</time>
      </trkpt>
      <trkpt lat="45.01666" lon="5.87148">
        <ele>1309</ele>
        <time>2010-07-04T08:31:58Z</time>
      </trkpt>
      <trkpt lat="45.01665" lon="5.87153">
        <ele>1308</ele>
        <time>2010-07-04T08:31:59Z</time>
      </trkpt>
      <trkpt lat="45.01664" lon="5.87158">
        <ele>1308</ele>
        <time>2010-07-04T08:32:00Z</time>
      </trkpt>
      <trkpt lat="45.01664" lon="5.87163">
        <ele>1307</ele>
        <time>2010-07-04T08:32:01Z</time>
      </trkpt>
      <trkpt lat="45.01664" lon="5.87168">
        <ele>1307</ele>
        <time>2010-07-04T08:32:02Z</time>
      </trkpt>
      <trkpt lat="45.01663" lon="5.87172">
        <ele>1307</ele>
        <time>2010-07-04T08:32:03Z</time>
      </trkpt>
      <trkpt lat="45.01663" lon="5.87177">
        <ele>1306</ele>
        <time>2010-07-04T08:32:04Z</time>
      </trkpt>
      <trkpt lat="45.01663" lon="5.87183">
        <ele>1306</ele>
        <time>2010-07-04T08:32:05Z</time>
      </trkpt>
      <trkpt lat="45.01662" lon="5.87187">
        <ele>1305</ele>
        <time>2010-07-04T08:32:06Z</time>
      </trkpt>
      <trkpt lat="45.01662" lon="5.87191">
        <ele>1304</ele>
        <time>2010-07-04T08:32:07Z</time>
      </trkpt>
      <trkpt lat="45.01663" lon="5.87194">
        <ele>1304</ele>
        <time>2010-07-04T08:32:08Z</time>
      </trkpt>
      <trkpt lat="45.01665" lon="5.87197">
        <ele>1303</ele>
        <time>2010-07-04T08:32:09Z</time>
      </trkpt>
      <trkpt lat="45.01667" lon="5.87198">
        <ele>1303</ele>
        <time>2010-07-04T08:32:10Z</time>
      </trkpt>
      <trkpt lat="45.01669" lon="5.87196">
        <ele>1303</ele>
        <time>2010-07-04T08:32:11Z</time>
      </trkpt>
      <trkpt lat="45.01672" lon="5.87194">
        <ele>1302</ele>
        <time>2010-07-04T08:32:12Z</time>
      </trkpt>
      <trkpt lat="45.01674" lon="5.87192">
        <ele>1302</ele>
        <time>2010-07-04T08:32:13Z</time>
      </trkpt>
      <trkpt lat="45.01677" lon="5.87189">
        <ele>1302</ele>
        <time>2010-07-04T08:32:14Z</time>
      </trkpt>
      <trkpt lat="45.01679" lon="5.87187">
        <ele>1301</ele>
        <time>2010-07-04T08:32:15Z</time>
      </trkpt>
      <trkpt lat="45.01681" lon="5.87184">
        <ele>1301</ele>
        <time>2010-07-04T08:32:16Z</time>
      </trkpt>
      <trkpt lat="45.01683" lon="5.87181">
        <ele>1300</ele>
        <time>2010-07-04T08:32:17Z</time>
      </trkpt>
      <trkpt lat="45.01685" lon="5.87178">
        <ele>1300</ele>
        <time>2010-07-04T08:32:18Z</time>
      </trkpt>
      <trkpt lat="45.01686" lon="5.87175">
        <ele>1300</ele>
        <time>2010-07-04T08:32:19Z</time>
      </trkpt>
      <trkpt lat="45.01688" lon="5.87172">
        <ele>1300</ele>
        <time>2010-07-04T08:32:20Z</time>
      </trkpt>
      <trkpt lat="45.0169" lon="5.8717">
        <ele>1299</ele>
        <time>2010-07-04T08:32:21Z</time>
      </trkpt>
      <trkpt lat="45.01691" lon="5.87167">
        <ele>1299</ele>
        <time>2010-07-04T08:32:22Z</time>
      </trkpt>
      <trkpt lat="45.01693" lon="5.87165">
        <ele>1299</ele>
        <time>2010-07-04T08:32:23Z</time>
      </trkpt>
      <trkpt lat="45.01694" lon="5.87163">
        <ele>1299</ele>
        <time>2010-07-04T08:32:24Z</time>
      </trkpt>
      <trkpt lat="45.01696" lon="5.87161">
        <ele>1298</ele>
        <time>2010-07-04T08:32:25Z</time>
      </trkpt>
      <trkpt lat="45.01698" lon="5.87157">
        <ele>1298</ele>
        <time>2010-07-04T08:32:26Z</time>
      </trkpt>
      <trkpt lat="45.017" lon="5.87155">
        <ele>1298</ele>
        <time>2010-07-04T08:32:27Z</time>
      </trkpt>
      <trkpt lat="45.01702" lon="5.87152">
        <ele>1298</ele>
        <time>2010-07-04T08:32:28Z</time>
      </trkpt>
      <trkpt lat="45.01704" lon="5.8715">
        <ele>1298</ele>
        <time>2010-07-04T08:32:29Z</time>
      </trkpt>
      <trkpt lat="45.01707" lon="5.87148">
        <ele>1298</ele>
        <time>2010-07-04T08:32:30Z</time>
      </trkpt>
      <trkpt lat="45.01709" lon="5.87146">
        <ele>1298</ele>
        <time>2010-07-04T08:32:31Z</time>
      </trkpt>
      <trkpt lat="45.01711" lon="5.87143">
        <ele>1298</ele>
        <time>2010-07-04T08:32:32Z</time>
      </trkpt>
      <trkpt lat="45.01713" lon="5.87141">
        <ele>1298</ele>
        <time>2010-07-04T08:32:33Z</time>
      </trkpt>
      <trkpt lat="45.01714" lon="5.87138">
        <ele>1298</ele>
        <time>2010-07-04T08:32:34Z</time>
      </trkpt>
      <trkpt lat="45.01716" lon="5.87135">
        <ele>1298</ele>
        <time>2010-07-04T08:32:35Z</time>
      </trkpt>
      <trkpt lat="45.01718" lon="5.87133">
        <ele>1298</ele>
        <time>2010-07-04T08:32:36Z</time>
      </trkpt>
      <trkpt lat="45.01719" lon="5.8713">
        <ele>1298</ele>
        <time>2010-07-04T08:32:37Z</time>
      </trkpt>
      <trkpt lat="45.01721" lon="5.87128">
        <ele>1298</ele>
        <time>2010-07-04T08:32:38Z</time>
      </trkpt>
      <trkpt lat="45.01723" lon="5.87125">
        <ele>1298</ele>
        <time>2010-07-04T08:32:39Z</time>
      </trkpt>
      <trkpt lat="45.01725" lon="5.87123">
        <ele>1298</ele>
        <time>2010-07-04T08:32:40Z</time>
      </trkpt>
      <trkpt lat="45.01726" lon="5.8712">
        <ele>1298</ele>
        <time>2010-07-04T08:32:41Z</time>
      </trkpt>
      <trkpt lat="45.01729" lon="5.87118">
        <ele>1298</ele>
        <time>2010-07-04T08:32:42Z</time>
      </trkpt>
      <trkpt lat="45.0173" lon="5.87116">
        <ele>1298</ele>
        <time>2010-07-04T08:32:43Z</time>
      </trkpt>
      <trkpt lat="45.01732" lon="5.87112">
        <ele>1298</ele>
        <time>2010-07-04T08:32:44Z</time>
      </trkpt>
      <trkpt lat="45.01734" lon="5.8711">
        <ele>1298</ele>
        <time>2010-07-04T08:32:45Z</time>
      </trkpt>
      <trkpt lat="45.01736" lon="5.87109">
        <ele>1298</ele>
        <time>2010-07-04T08:32:46Z</time>
      </trkpt>
      <trkpt lat="45.01738" lon="5.87107">
        <ele>1298</ele>
        <time>2010-07-04T08:32:47Z</time>
      </trkpt>
      <trkpt lat="45.01741" lon="5.87105">
        <ele>1298</ele>
        <time>2010-07-04T08:32:48Z</time>
      </trkpt>
      <trkpt lat="45.01744" lon="5.87104">
        <ele>1298</ele>
        <time>2010-07-04T08:32:49Z</time>
      </trkpt>
      <trkpt lat="45.01746" lon="5.87103">
        <ele>1298</ele>
        <time>2010-07-04T08:32:50Z</time>
      </trkpt>
      <trkpt lat="45.01748" lon="5.87101">
        <ele>1298</ele>
        <time>2010-07-04T08:32:51Z</time>
      </trkpt>
      <trkpt lat="45.0175" lon="5.871">
        <ele>1298</ele>
        <time>2010-07-04T08:32:52Z</time>
      </trkpt>
      <trkpt lat="45.01753" lon="5.87099">
        <ele>1298</ele>
        <time>2010-07-04T08:32:53Z</time>
      </trkpt>
      <trkpt lat="45.01755" lon="5.87097">
        <ele>1298</ele>
        <time>2010-07-04T08:32:54Z</time>
      </trkpt>
      <trkpt lat="45.01758" lon="5.87096">
        <ele>1298</ele>
        <time>2010-07-04T08:32:55Z</time>
      </trkpt>
      <trkpt lat="45.0176" lon="5.87095">
        <ele>1298</ele>
        <time>2010-07-04T08:32:56Z</time>
      </trkpt>
      <trkpt lat="45.01763" lon="5.87094">
        <ele>1298</ele>
        <time>2010-07-04T08:32:57Z</time>
      </trkpt>
      <trkpt lat="45.01765" lon="5.87093">
        <ele>1298</ele>
        <time>2010-07-04T08:32:58Z</time>
      </trkpt>
      <trkpt lat="45.01767" lon="5.87091">
        <ele>1298</ele>
        <time>2010-07-04T08:32:59Z</time>
      </trkpt>
      <trkpt lat="45.0177" lon="5.8709">
        <ele>1298</ele>
        <time>2010-07-04T08:33:00Z</time>
      </trkpt>
      <trkpt lat="45.01772" lon="5.8709">
        <ele>1298</ele>
        <time>2010-07-04T08:33:01Z</time>
      </trkpt>
      <trkpt lat="45.01774" lon="5.87089">
        <ele>1298</ele>
        <time>2010-07-04T08:33:02Z</time>
      </trkpt>
      <trkpt lat="45.01776" lon="5.87088">
        <ele>1298</ele>
        <time>2010-07-04T08:33:03Z</time>
      </trkpt>
      <trkpt lat="45.01778" lon="5.87087">
        <ele>1298</ele>
        <time>2010-07-04T08:33:04Z</time>
      </trkpt>
      <trkpt lat="45.01781" lon="5.87086">
        <ele>1298</ele>
        <time>2010-07-04T08:33:05Z</time>
      </trkpt>
      <trkpt lat="45.01783" lon="5.87086">
        <ele>1298</ele>
        <time>2010-07-04T08:33:06Z</time>
      </trkpt>
      <trkpt lat="45.01785" lon="5.87086">
        <ele>1298</ele>
        <time>2010-07-04T08:33:07Z</time>
      </trkpt>
      <trkpt lat="45.01787" lon="5.87085">
        <ele>1298</ele>
        <time>2010-07-04T08:33:08Z</time>
      </trkpt>
      <trkpt lat="45.01788" lon="5.87085">
        <ele>1298</ele>
        <time>2010-07-04T08:33:09Z</time>
      </trkpt>
      <trkpt lat="45.0179" lon="5.87085">
        <ele>1298</ele>
        <time>2010-07-04T08:33:10Z</time>
      </trkpt>
      <trkpt lat="45.01791" lon="5.87084">
        <ele>1298</ele>
        <time>2010-07-04T08:33:11Z</time>
      </trkpt>
      <trkpt lat="45.01793" lon="5.87084">
        <ele>1298</ele>
        <time>2010-07-04T08:33:12Z</time>
      </trkpt>
      <trkpt lat="45.01794" lon="5.87084">
        <ele>1298</ele>
        <time>2010-07-04T08:33:13Z</time>
      </trkpt>
      <trkpt lat="45.01796" lon="5.87084">
        <ele>1298</ele>
        <time>2010-07-04T08:33:14Z</time>
      </trkpt>
      <trkpt lat="45.01798" lon="5.87084">
        <ele>1298</ele>
        <time>2010-07-04T08:33:15Z</time>
      </trkpt>
      <trkpt lat="45.018" lon="5.87084">
        <ele>1298</ele>
        <time>2010-07-04T08:33:16Z</time>
      </trkpt>
      <trkpt lat="45.01801" lon="5.87084">
        <ele>1298</ele>
        <time>2010-07-04T08:33:17Z</time>
      </trkpt>
      <trkpt lat="45.01803" lon="5.87084">
        <ele>1298</ele>
        <time>2010-07-04T08:33:18Z</time>
      </trkpt>
      <trkpt lat="45.01804" lon="5.87084">
        <ele>1298</ele>
        <time>2010-07-04T08:33:19Z</time>
      </trkpt>
      <trkpt lat="45.01805" lon="5.87084">
        <ele>1298</ele>
        <time>2010-07-04T08:33:20Z</time>
      </trkpt>
      <trkpt lat="45.01807" lon="5.87084">
        <ele>1298</ele>
        <time>2010-07-04T08:33:21Z</time>
      </trkpt>
      <trkpt lat="45.01808" lon="5.87084">
        <ele>1298</ele>
        <time>2010-07-04T08:33:22Z</time>
      </trkpt>
      <trkpt lat="45.0181" lon="5.87084">
        <ele>1298</ele>
        <time>2010-07-04T08:33:23Z</time>
      </trkpt>
      <trkpt lat="45.01811" lon="5.87084">
        <ele>1298</ele>
        <time>2010-07-04T08:33:24Z</time>
      </trkpt>
      <trkpt lat="45.01813" lon="5.87084">
        <ele>1298</ele>
        <time>2010-07-04T08:33:25Z</time>
      </trkpt>
      <trkpt lat="45.01814" lon="5.87084">
        <ele>1298</ele>
        <time>2010-07-04T08:33:26Z</time>
      </trkpt>
      <trkpt lat="45.01815" lon="5.87084">
        <ele>1298</ele>
        <time>2010-07-04T08:33:27Z</time>
      </trkpt>
      <trkpt lat="45.01816" lon="5.87084">
        <ele>1298</ele>
        <time>2010-07-04T08:33:28Z</time>
      </trkpt>
      <trkpt lat="45.01818" lon="5.87084">
        <ele>1298</ele>
        <time>2010-07-04T08:33:29Z</time>
      </trkpt>
      <trkpt lat="45.0182" lon="5.87084">
        <ele>1297</ele>
        <time>2010-07-04T08:33:30Z</time>
      </trkpt>
      <trkpt lat="45.01822" lon="5.87084">
        <ele>1297</ele>
        <time>2010-07-04T08:33:31Z</time>
      </trkpt>
      <trkpt lat="45.01824" lon="5.87084">
        <ele>1297</ele>
        <time>2010-07-04T08:33:32Z</time>
      </trkpt>
      <trkpt lat="45.01826" lon="5.87084">
        <ele>1296</ele>
        <time>2010-07-04T08:33:33Z</time>
      </trkpt>
      <trkpt lat="45.01828" lon="5.87084">
        <ele>1296</ele>
        <time>2010-07-04T08:33:34Z</time>
      </trkpt>
      <trkpt lat="45.01831" lon="5.87084">
        <ele>1296</ele>
        <time>2010-07-04T08:33:35Z</time>
      </trkpt>
      <trkpt lat="45.01834" lon="5.87084">
        <ele>1296</ele>
        <time>2010-07-04T08:33:36Z</time>
      </trkpt>
      <trkpt lat="45.01836" lon="5.87084">
        <ele>1296</ele>
        <time>2010-07-04T08:33:37Z</time>
      </trkpt>
      <trkpt lat="45.01838" lon="5.87084">
        <ele>1296</ele>
        <time>2010-07-04T08:33:38Z</time>
      </trkpt>
      <trkpt lat="45.01839" lon="5.87083">
        <ele>1295</ele>
        <time>2010-07-04T08:33:39Z</time>
      </trkpt>
      <trkpt lat="45.01841" lon="5.87083">
        <ele>1295</ele>
        <time>2010-07-04T08:33:40Z</time>
      </trkpt>
      <trkpt lat="45.01843" lon="5.87084">
        <ele>1294</ele>
        <time>2010-07-04T08:33:41Z</time>
      </trkpt>
      <trkpt lat="45.01844" lon="5.87084">
        <ele>1293</ele>
        <time>2010-07-04T08:33:42Z</time>
      </trkpt>
      <trkpt lat="45.01845" lon="5.87084">
        <ele>1292</ele>
        <time>2010-07-04T08:33:43Z</time>
      </trkpt>
      <trkpt lat="45.01847" lon="5.87084">
        <ele>1291</ele>
        <time>2010-07-04T08:33:44Z</time>
      </trkpt>
      <trkpt lat="45.0185" lon="5.87084">
        <ele>1288</ele>
        <time>2010-07-04T08:33:46Z</time>
      </trkpt>
      <trkpt lat="45.01851" lon="5.87084">
        <ele>1286</ele>
        <time>2010-07-04T08:33:47Z</time>
      </trkpt>
      <trkpt lat="45.01854" lon="5.87084">
        <ele>1284</ele>
        <time>2010-07-04T08:33:48Z</time>
      </trkpt>
      <trkpt lat="45.01856" lon="5.87084">
        <ele>1282</ele>
        <time>2010-07-04T08:33:49Z</time>
      </trkpt>
      <trkpt lat="45.01859" lon="5.87084">
        <ele>1281</ele>
        <time>2010-07-04T08:33:50Z</time>
      </trkpt>
      <trkpt lat="45.01862" lon="5.87084">
        <ele>1280</ele>
        <time>2010-07-04T08:33:51Z</time>
      </trkpt>
      <trkpt lat="45.01864" lon="5.87084">
        <ele>1279</ele>
        <time>2010-07-04T08:33:52Z</time>
      </trkpt>
      <trkpt lat="45.01866" lon="5.87084">
        <ele>1279</ele>
        <time>2010-07-04T08:33:53Z</time>
      </trkpt>
      <trkpt lat="45.01868" lon="5.87084">
        <ele>1279</ele>
        <time>2010-07-04T08:33:54Z</time>
      </trkpt>
      <trkpt lat="45.01871" lon="5.87083">
        <ele>1279</ele>
        <time>2010-07-04T08:33:55Z</time>
      </trkpt>
      <trkpt lat="45.01873" lon="5.87082">
        <ele>1279</ele>
        <time>2010-07-04T08:33:56Z</time>
      </trkpt>
      <trkpt lat="45.01875" lon="5.87082">
        <ele>1279</ele>
        <time>2010-07-04T08:33:57Z</time>
      </trkpt>
      <trkpt lat="45.01878" lon="5.87081">
        <ele>1279</ele>
        <time>2010-07-04T08:33:58Z</time>
      </trkpt>
      <trkpt lat="45.01881" lon="5.8708">
        <ele>1279</ele>
        <time>2010-07-04T08:33:59Z</time>
      </trkpt>
      <trkpt lat="45.01884" lon="5.87079">
        <ele>1279</ele>
        <time>2010-07-04T08:34:00Z</time>
      </trkpt>
      <trkpt lat="45.01886" lon="5.87078">
        <ele>1280</ele>
        <time>2010-07-04T08:34:01Z</time>
      </trkpt>
      <trkpt lat="45.01888" lon="5.87076">
        <ele>1281</ele>
        <time>2010-07-04T08:34:02Z</time>
      </trkpt>
      <trkpt lat="45.0189" lon="5.87074">
        <ele>1282</ele>
        <time>2010-07-04T08:34:03Z</time>
      </trkpt>
      <trkpt lat="45.01893" lon="5.87072">
        <ele>1283</ele>
        <time>2010-07-04T08:34:04Z</time>
      </trkpt>
      <trkpt lat="45.01895" lon="5.87071">
        <ele>1283</ele>
        <time>2010-07-04T08:34:05Z</time>
      </trkpt>
      <trkpt lat="45.01897" lon="5.87068">
        <ele>1284</ele>
        <time>2010-07-04T08:34:06Z</time>
      </trkpt>
      <trkpt lat="45.01899" lon="5.87066">
        <ele>1285</ele>
        <time>2010-07-04T08:34:07Z</time>
      </trkpt>
      <trkpt lat="45.019" lon="5.87064">
        <ele>1285</ele>
        <time>2010-07-04T08:34:08Z</time>
      </trkpt>
      <trkpt lat="45.01902" lon="5.87061">
        <ele>1285</ele>
        <time>2010-07-04T08:34:09Z</time>
      </trkpt>
      <trkpt lat="45.01903" lon="5.87059">
        <ele>1286</ele>
        <time>2010-07-04T08:34:10Z</time>
      </trkpt>
      <trkpt lat="45.01904" lon="5.87056">
        <ele>1286</ele>
        <time>2010-07-04T08:34:11Z</time>
      </trkpt>
      <trkpt lat="45.01905" lon="5.87054">
        <ele>1286</ele>
        <time>2010-07-04T08:34:12Z</time>
      </trkpt>
      <trkpt lat="45.01907" lon="5.87051">
        <ele>1287</ele>
        <time>2010-07-04T08:34:13Z</time>
      </trkpt>
      <trkpt lat="45.01909" lon="5.87048">
        <ele>1288</ele>
        <time>2010-07-04T08:34:14Z</time>
      </trkpt>
      <trkpt lat="45.01911" lon="5.87045">
        <ele>1289</ele>
        <time>2010-07-04T08:34:15Z</time>
      </trkpt>
      <trkpt lat="45.01912" lon="5.87042">
        <ele>1290</ele>
        <time>2010-07-04T08:34:16Z</time>
      </trkpt>
      <trkpt lat="45.01913" lon="5.87039">
        <ele>1291</ele>
        <time>2010-07-04T08:34:17Z</time>
      </trkpt>
      <trkpt lat="45.01915" lon="5.87036">
        <ele>1292</ele>
        <time>2010-07-04T08:34:18Z</time>
      </trkpt>
      <trkpt lat="45.01916" lon="5.87033">
        <ele>1293</ele>
        <time>2010-07-04T08:34:19Z</time>
      </trkpt>
      <trkpt lat="45.01917" lon="5.8703">
        <ele>1294</ele>
        <time>2010-07-04T08:34:20Z</time>
      </trkpt>
      <trkpt lat="45.01918" lon="5.87028">
        <ele>1295</ele>
        <time>2010-07-04T08:34:21Z</time>
      </trkpt>
      <trkpt lat="45.01918" lon="5.87025">
        <ele>1296</ele>
        <time>2010-07-04T08:34:22Z</time>
      </trkpt>
      <trkpt lat="45.0192" lon="5.87023">
        <ele>1297</ele>
        <time>2010-07-04T08:34:23Z</time>
      </trkpt>
      <trkpt lat="45.01922" lon="5.8702">
        <ele>1298</ele>
        <time>2010-07-04T08:34:24Z</time>
      </trkpt>
      <trkpt lat="45.01924" lon="5.87018">
        <ele>1299</ele>
        <time>2010-07-04T08:34:25Z</time>
      </trkpt>
      <trkpt lat="45.01925" lon="5.87014">
        <ele>1300</ele>
        <time>2010-07-04T08:34:26Z</time>
      </trkpt>
      <trkpt lat="45.01926" lon="5.87011">
        <ele>1301</ele>
        <time>2010-07-04T08:34:27Z</time>
      </trkpt>
      <trkpt lat="45.01927" lon="5.87008">
        <ele>1302</ele>
        <time>2010-07-04T08:34:28Z</time>
      </trkpt>
      <trkpt lat="45.01928" lon="5.87005">
        <ele>1303</ele>
        <time>2010-07-04T08:34:29Z</time>
      </trkpt>
      <trkpt lat="45.01929" lon="5.87001">
        <ele>1304</ele>
        <time>2010-07-04T08:34:30Z</time>
      </trkpt>
      <trkpt lat="45.01929" lon="5.86998">
        <ele>1305</ele>
        <time>2010-07-04T08:34:31Z</time>
      </trkpt>
      <trkpt lat="45.0193" lon="5.86995">
        <ele>1306</ele>
        <time>2010-07-04T08:34:32Z</time>
      </trkpt>
      <trkpt lat="45.01931" lon="5.86992">
        <ele>1307</ele>
        <time>2010-07-04T08:34:33Z</time>
      </trkpt>
      <trkpt lat="45.01933" lon="5.86989">
        <ele>1308</ele>
        <time>2010-07-04T08:34:34Z</time>
      </trkpt>
      <trkpt lat="45.01934" lon="5.86985">
        <ele>1308</ele>
        <time>2010-07-04T08:34:35Z</time>
      </trkpt>
      <trkpt lat="45.01935" lon="5.86982">
        <ele>1309</ele>
        <time>2010-07-04T08:34:36Z</time>
      </trkpt>
      <trkpt lat="45.01935" lon="5.86978">
        <ele>1309</ele>
        <time>2010-07-04T08:34:37Z</time>
      </trkpt>
      <trkpt lat="45.01935" lon="5.86974">
        <ele>1309</ele>
        <time>2010-07-04T08:34:38Z</time>
      </trkpt>
      <trkpt lat="45.01935" lon="5.86969">
        <ele>1310</ele>
        <time>2010-07-04T08:34:39Z</time>
      </trkpt>
      <trkpt lat="45.01937" lon="5.86966">
        <ele>1311</ele>
        <time>2010-07-04T08:34:40Z</time>
      </trkpt>
      <trkpt lat="45.01939" lon="5.86962">
        <ele>1312</ele>
        <time>2010-07-04T08:34:41Z</time>
      </trkpt>
      <trkpt lat="45.0194" lon="5.8696">
        <ele>1313</ele>
        <time>2010-07-04T08:34:42Z</time>
      </trkpt>
      <trkpt lat="45.01941" lon="5.86957">
        <ele>1314</ele>
        <time>2010-07-04T08:34:43Z</time>
      </trkpt>
      <trkpt lat="45.01942" lon="5.86955">
        <ele>1316</ele>
        <time>2010-07-04T08:34:44Z</time>
      </trkpt>
      <trkpt lat="45.01943" lon="5.86952">
        <ele>1318</ele>
        <time>2010-07-04T08:34:45Z</time>
      </trkpt>
      <trkpt lat="45.01945" lon="5.8695">
        <ele>1320</ele>
        <time>2010-07-04T08:34:46Z</time>
      </trkpt>
      <trkpt lat="45.01947" lon="5.86949">
        <ele>1321</ele>
        <time>2010-07-04T08:34:47Z</time>
      </trkpt>
      <trkpt lat="45.01948" lon="5.86946">
        <ele>1323</ele>
        <time>2010-07-04T08:34:48Z</time>
      </trkpt>
      <trkpt lat="45.01949" lon="5.86944">
        <ele>1324</ele>
        <time>2010-07-04T08:34:49Z</time>
      </trkpt>
      <trkpt lat="45.0195" lon="5.86941">
        <ele>1325</ele>
        <time>2010-07-04T08:34:50Z</time>
      </trkpt>
      <trkpt lat="45.01951" lon="5.86939">
        <ele>1326</ele>
        <time>2010-07-04T08:34:51Z</time>
      </trkpt>
      <trkpt lat="45.01952" lon="5.86936">
        <ele>1327</ele>
        <time>2010-07-04T08:34:52Z</time>
      </trkpt>
      <trkpt lat="45.01953" lon="5.86932">
        <ele>1328</ele>
        <time>2010-07-04T08:34:53Z</time>
      </trkpt>
      <trkpt lat="45.01954" lon="5.86929">
        <ele>1329</ele>
        <time>2010-07-04T08:34:54Z</time>
      </trkpt>
      <trkpt lat="45.01954" lon="5.86926">
        <ele>1330</ele>
        <time>2010-07-04T08:34:55Z</time>
      </trkpt>
      <trkpt lat="45.01955" lon="5.86922">
        <ele>1331</ele>
        <time>2010-07-04T08:34:56Z</time>
      </trkpt>
      <trkpt lat="45.01956" lon="5.86917">
        <ele>1332</ele>
        <time>2010-07-04T08:34:57Z</time>
      </trkpt>
      <trkpt lat="45.01956" lon="5.86913">
        <ele>1333</ele>
        <time>2010-07-04T08:34:58Z</time>
      </trkpt>
      <trkpt lat="45.01956" lon="5.86909">
        <ele>1334</ele>
        <time>2010-07-04T08:34:59Z</time>
      </trkpt>
      <trkpt lat="45.01956" lon="5.86907">
        <ele>1335</ele>
        <time>2010-07-04T08:35:00Z</time>
      </trkpt>
      <trkpt lat="45.01957" lon="5.86905">
        <ele>1337</ele>
        <time>2010-07-04T08:35:02Z</time>
      </trkpt>
      <trkpt lat="45.01958" lon="5.86903">
        <ele>1338</ele>
        <time>2010-07-04T08:35:03Z</time>
      </trkpt>
      <trkpt lat="45.01958" lon="5.86901">
        <ele>1339</ele>
        <time>2010-07-04T08:35:04Z</time>
      </trkpt>
      <trkpt lat="45.01958" lon="5.86897">
        <ele>1340</ele>
        <time>2010-07-04T08:35:06Z</time>
      </trkpt>
      <trkpt lat="45.01958" lon="5.86894">
        <ele>1340</ele>
        <time>2010-07-04T08:35:07Z</time>
      </trkpt>
      <trkpt lat="45.01957" lon="5.86892">
        <ele>1340</ele>
        <time>2010-07-04T08:35:08Z</time>
      </trkpt>
      <trkpt lat="45.01958" lon="5.8689">
        <ele>1340</ele>
        <time>2010-07-04T08:35:09Z</time>
      </trkpt>
      <trkpt lat="45.01958" lon="5.86887">
        <ele>1340</ele>
        <time>2010-07-04T08:35:10Z</time>
      </trkpt>
      <trkpt lat="45.01958" lon="5.86885">
        <ele>1340</ele>
        <time>2010-07-04T08:35:11Z</time>
      </trkpt>
      <trkpt lat="45.01958" lon="5.86883">
        <ele>1340</ele>
        <time>2010-07-04T08:35:12Z</time>
      </trkpt>
      <trkpt lat="45.01959" lon="5.86881">
        <ele>1340</ele>
        <time>2010-07-04T08:35:13Z</time>
      </trkpt>
      <trkpt lat="45.0196" lon="5.86879">
        <ele>1340</ele>
        <time>2010-07-04T08:35:14Z</time>
      </trkpt>
      <trkpt lat="45.0196" lon="5.86877">
        <ele>1340</ele>
        <time>2010-07-04T08:35:15Z</time>
      </trkpt>
      <trkpt lat="45.0196" lon="5.86874">
        <ele>1340</ele>
        <time>2010-07-04T08:35:16Z</time>
      </trkpt>
      <trkpt lat="45.01961" lon="5.86873">
        <ele>1340</ele>
        <time>2010-07-04T08:35:17Z</time>
      </trkpt>
      <trkpt lat="45.01961" lon="5.86871">
        <ele>1340</ele>
        <time>2010-07-04T08:35:18Z</time>
      </trkpt>
      <trkpt lat="45.01961" lon="5.86869">
        <ele>1340</ele>
        <time>2010-07-04T08:35:19Z</time>
      </trkpt>
      <trkpt lat="45.01961" lon="5.86867">
        <ele>1339</ele>
        <time>2010-07-04T08:35:20Z</time>
      </trkpt>
      <trkpt lat="45.01961" lon="5.86865">
        <ele>1338</ele>
        <time>2010-07-04T08:35:21Z</time>
      </trkpt>
      <trkpt lat="45.01961" lon="5.86864">
        <ele>1337</ele>
        <time>2010-07-04T08:35:22Z</time>
      </trkpt>
      <trkpt lat="45.01962" lon="5.86861">
        <ele>1336</ele>
        <time>2010-07-04T08:35:23Z</time>
      </trkpt>
      <trkpt lat="45.01962" lon="5.86858">
        <ele>1335</ele>
        <time>2010-07-04T08:35:24Z</time>
      </trkpt>
      <trkpt lat="45.01963" lon="5.86855">
        <ele>1334</ele>
        <time>2010-07-04T08:35:25Z</time>
      </trkpt>
      <trkpt lat="45.01964" lon="5.86852">
        <ele>1334</ele>
        <time>2010-07-04T08:35:26Z</time>
      </trkpt>
      <trkpt lat="45.01965" lon="5.8685">
        <ele>1334</ele>
        <time>2010-07-04T08:35:27Z</time>
      </trkpt>
      <trkpt lat="45.01967" lon="5.86848">
        <ele>1334</ele>
        <time>2010-07-04T08:35:28Z</time>
      </trkpt>
      <trkpt lat="45.01968" lon="5.86846">
        <ele>1334</ele>
        <time>2010-07-04T08:35:29Z</time>
      </trkpt>
      <trkpt lat="45.01969" lon="5.86844">
        <ele>1334</ele>
        <time>2010-07-04T08:35:30Z</time>
      </trkpt>
      <trkpt lat="45.01971" lon="5.86841">
        <ele>1334</ele>
        <time>2010-07-04T08:35:31Z</time>
      </trkpt>
      <trkpt lat="45.01971" lon="5.86838">
        <ele>1334</ele>
        <time>2010-07-04T08:35:32Z</time>
      </trkpt>
      <trkpt lat="45.01973" lon="5.86836">
        <ele>1334</ele>
        <time>2010-07-04T08:35:33Z</time>
      </trkpt>
      <trkpt lat="45.01975" lon="5.86833">
        <ele>1334</ele>
        <time>2010-07-04T08:35:34Z</time>
      </trkpt>
      <trkpt lat="45.01977" lon="5.86831">
        <ele>1334</ele>
        <time>2010-07-04T08:35:35Z</time>
      </trkpt>
      <trkpt lat="45.01977" lon="5.86827">
        <ele>1335</ele>
        <time>2010-07-04T08:35:36Z</time>
      </trkpt>
      <trkpt lat="45.01978" lon="5.86824">
        <ele>1336</ele>
        <time>2010-07-04T08:35:37Z</time>
      </trkpt>
      <trkpt lat="45.01979" lon="5.8682">
        <ele>1337</ele>
        <time>2010-07-04T08:35:38Z</time>
      </trkpt>
      <trkpt lat="45.0198" lon="5.86817">
        <ele>1338</ele>
        <time>2010-07-04T08:35:39Z</time>
      </trkpt>
      <trkpt lat="45.0198" lon="5.86813">
        <ele>1339</ele>
        <time>2010-07-04T08:35:40Z</time>
      </trkpt>
      <trkpt lat="45.01981" lon="5.86811">
        <ele>1339</ele>
        <time>2010-07-04T08:35:41Z</time>
      </trkpt>
      <trkpt lat="45.01982" lon="5.86808">
        <ele>1340</ele>
        <time>2010-07-04T08:35:42Z</time>
      </trkpt>
      <trkpt lat="45.01982" lon="5.86805">
        <ele>1340</ele>
        <time>2010-07-04T08:35:43Z</time>
      </trkpt>
      <trkpt lat="45.01983" lon="5.86801">
        <ele>1340</ele>
        <time>2010-07-04T08:35:44Z</time>
      </trkpt>
      <trkpt lat="45.01984" lon="5.86799">
        <ele>1340</ele>
        <time>2010-07-04T08:35:45Z</time>
      </trkpt>
      <trkpt lat="45.01986" lon="5.86797">
        <ele>1340</ele>
        <time>2010-07-04T08:35:46Z</time>
      </trkpt>
      <trkpt lat="45.01986" lon="5.86794">
        <ele>1340</ele>
        <time>2010-07-04T08:35:47Z</time>
      </trkpt>
      <trkpt lat="45.01988" lon="5.86792">
        <ele>1341</ele>
        <time>2010-07-04T08:35:48Z</time>
      </trkpt>
      <trkpt lat="45.01988" lon="5.86788">
        <ele>1341</ele>
        <time>2010-07-04T08:35:49Z</time>
      </trkpt>
      <trkpt lat="45.01989" lon="5.86785">
        <ele>1342</ele>
        <time>2010-07-04T08:35:50Z</time>
      </trkpt>
      <trkpt lat="45.0199" lon="5.86782">
        <ele>1342</ele>
        <time>2010-07-04T08:35:51Z</time>
      </trkpt>
      <trkpt lat="45.01991" lon="5.86779">
        <ele>1342</ele>
        <time>2010-07-04T08:35:52Z</time>
      </trkpt>
      <trkpt lat="45.01992" lon="5.86776">
        <ele>1342</ele>
        <time>2010-07-04T08:35:53Z</time>
      </trkpt>
      <trkpt lat="45.01993" lon="5.86773">
        <ele>1343</ele>
        <time>2010-07-04T08:35:54Z</time>
      </trkpt>
      <trkpt lat="45.01993" lon="5.8677">
        <ele>1343</ele>
        <time>2010-07-04T08:35:55Z</time>
      </trkpt>
      <trkpt lat="45.01994" lon="5.86767">
        <ele>1343</ele>
        <time>2010-07-04T08:35:56Z</time>
      </trkpt>
      <trkpt lat="45.01995" lon="5.86763">
        <ele>1343</ele>
        <time>2010-07-04T08:35:57Z</time>
      </trkpt>
      <trkpt lat="45.01995" lon="5.8676">
        <ele>1343</ele>
        <time>2010-07-04T08:35:58Z</time>
      </trkpt>
      <trkpt lat="45.01996" lon="5.86757">
        <ele>1343</ele>
        <time>2010-07-04T08:35:59Z</time>
      </trkpt>
      <trkpt lat="45.01997" lon="5.86754">
        <ele>1343</ele>
        <time>2010-07-04T08:36:00Z</time>
      </trkpt>
      <trkpt lat="45.01998" lon="5.86751">
        <ele>1344</ele>
        <time>2010-07-04T08:36:01Z</time>
      </trkpt>
      <trkpt lat="45.01998" lon="5.86748">
        <ele>1344</ele>
        <time>2010-07-04T08:36:02Z</time>
      </trkpt>
      <trkpt lat="45.01999" lon="5.86745">
        <ele>1344</ele>
        <time>2010-07-04T08:36:03Z</time>
      </trkpt>
      <trkpt lat="45.01999" lon="5.86741">
        <ele>1344</ele>
        <time>2010-07-04T08:36:04Z</time>
      </trkpt>
      <trkpt lat="45.02" lon="5.86737">
        <ele>1344</ele>
        <time>2010-07-04T08:36:05Z</time>
      </trkpt>
      <trkpt lat="45.02" lon="5.86734">
        <ele>1345</ele>
        <time>2010-07-04T08:36:06Z</time>
      </trkpt>
      <trkpt lat="45.02001" lon="5.8673">
        <ele>1345</ele>
        <time>2010-07-04T08:36:07Z</time>
      </trkpt>
      <trkpt lat="45.02001" lon="5.86726">
        <ele>1345</ele>
        <time>2010-07-04T08:36:08Z</time>
      </trkpt>
      <trkpt lat="45.02002" lon="5.86723">
        <ele>1346</ele>
        <time>2010-07-04T08:36:09Z</time>
      </trkpt>
      <trkpt lat="45.02003" lon="5.8672">
        <ele>1346</ele>
        <time>2010-07-04T08:36:10Z</time>
      </trkpt>
      <trkpt lat="45.02004" lon="5.86718">
        <ele>1346</ele>
        <time>2010-07-04T08:36:11Z</time>
      </trkpt>
      <trkpt lat="45.02004" lon="5.86714">
        <ele>1346</ele>
        <time>2010-07-04T08:36:12Z</time>
      </trkpt>
      <trkpt lat="45.02005" lon="5.86711">
        <ele>1346</ele>
        <time>2010-07-04T08:36:13Z</time>
      </trkpt>
      <trkpt lat="45.02005" lon="5.86708">
        <ele>1346</ele>
        <time>2010-07-04T08:36:14Z</time>
      </trkpt>
      <trkpt lat="45.02005" lon="5.86705">
        <ele>1347</ele>
        <time>2010-07-04T08:36:15Z</time>
      </trkpt>
      <trkpt lat="45.02006" lon="5.86703">
        <ele>1347</ele>
        <time>2010-07-04T08:36:16Z</time>
      </trkpt>
      <trkpt lat="45.02006" lon="5.86701">
        <ele>1347</ele>
        <time>2010-07-04T08:36:17Z</time>
      </trkpt>
      <trkpt lat="45.02006" lon="5.86699">
        <ele>1347</ele>
        <time>2010-07-04T08:36:18Z</time>
      </trkpt>
      <trkpt lat="45.02007" lon="5.86697">
        <ele>1348</ele>
        <time>2010-07-04T08:36:19Z</time>
      </trkpt>
      <trkpt lat="45.02007" lon="5.86695">
        <ele>1348</ele>
        <time>2010-07-04T08:36:20Z</time>
      </trkpt>
      <trkpt lat="45.02008" lon="5.86693">
        <ele>1348</ele>
        <time>2010-07-04T08:36:21Z</time>
      </trkpt>
      <trkpt lat="45.02009" lon="5.86691">
        <ele>1348</ele>
        <time>2010-07-04T08:36:22Z</time>
      </trkpt>
      <trkpt lat="45.0201" lon="5.86689">
        <ele>1348</ele>
        <time>2010-07-04T08:36:23Z</time>
      </trkpt>
      <trkpt lat="45.0201" lon="5.86686">
        <ele>1348</ele>
        <time>2010-07-04T08:36:24Z</time>
      </trkpt>
      <trkpt lat="45.0201" lon="5.86684">
        <ele>1348</ele>
        <time>2010-07-04T08:36:25Z</time>
      </trkpt>
      <trkpt lat="45.0201" lon="5.86681">
        <ele>1348</ele>
        <time>2010-07-04T08:36:26Z</time>
      </trkpt>
      <trkpt lat="45.0201" lon="5.86679">
        <ele>1348</ele>
        <time>2010-07-04T08:36:27Z</time>
      </trkpt>
      <trkpt lat="45.02011" lon="5.86677">
        <ele>1348</ele>
        <time>2010-07-04T08:36:28Z</time>
      </trkpt>
      <trkpt lat="45.02012" lon="5.86675">
        <ele>1348</ele>
        <time>2010-07-04T08:36:29Z</time>
      </trkpt>
      <trkpt lat="45.02013" lon="5.86673">
        <ele>1348</ele>
        <time>2010-07-04T08:36:30Z</time>
      </trkpt>
      <trkpt lat="45.02013" lon="5.86671">
        <ele>1348</ele>
        <time>2010-07-04T08:36:31Z</time>
      </trkpt>
      <trkpt lat="45.02014" lon="5.86668">
        <ele>1349</ele>
        <time>2010-07-04T08:36:32Z</time>
      </trkpt>
      <trkpt lat="45.02015" lon="5.86666">
        <ele>1349</ele>
        <time>2010-07-04T08:36:33Z</time>
      </trkpt>
      <trkpt lat="45.02016" lon="5.86663">
        <ele>1350</ele>
        <time>2010-07-04T08:36:34Z</time>
      </trkpt>
      <trkpt lat="45.02018" lon="5.86661">
        <ele>1350</ele>
        <time>2010-07-04T08:36:35Z</time>
      </trkpt>
      <trkpt lat="45.0202" lon="5.86658">
        <ele>1350</ele>
        <time>2010-07-04T08:36:36Z</time>
      </trkpt>
      <trkpt lat="45.02021" lon="5.86656">
        <ele>1351</ele>
        <time>2010-07-04T08:36:37Z</time>
      </trkpt>
      <trkpt lat="45.02023" lon="5.86654">
        <ele>1351</ele>
        <time>2010-07-04T08:36:38Z</time>
      </trkpt>
      <trkpt lat="45.02025" lon="5.86652">
        <ele>1351</ele>
        <time>2010-07-04T08:36:39Z</time>
      </trkpt>
      <trkpt lat="45.02027" lon="5.86649">
        <ele>1352</ele>
        <time>2010-07-04T08:36:40Z</time>
      </trkpt>
      <trkpt lat="45.02029" lon="5.86647">
        <ele>1352</ele>
        <time>2010-07-04T08:36:41Z</time>
      </trkpt>
      <trkpt lat="45.0203" lon="5.86645">
        <ele>1353</ele>
        <time>2010-07-04T08:36:42Z</time>
      </trkpt>
      <trkpt lat="45.02032" lon="5.86642">
        <ele>1353</ele>
        <time>2010-07-04T08:36:43Z</time>
      </trkpt>
      <trkpt lat="45.02033" lon="5.86639">
        <ele>1353</ele>
        <time>2010-07-04T08:36:44Z</time>
      </trkpt>
      <trkpt lat="45.02035" lon="5.86636">
        <ele>1354</ele>
        <time>2010-07-04T08:36:45Z</time>
      </trkpt>
      <trkpt lat="45.02036" lon="5.86633">
        <ele>1354</ele>
        <time>2010-07-04T08:36:46Z</time>
      </trkpt>
      <trkpt lat="45.02038" lon="5.8663">
        <ele>1354</ele>
        <time>2010-07-04T08:36:47Z</time>
      </trkpt>
      <trkpt lat="45.0204" lon="5.86628">
        <ele>1355</ele>
        <time>2010-07-04T08:36:48Z</time>
      </trkpt>
      <trkpt lat="45.02042" lon="5.86626">
        <ele>1355</ele>
        <time>2010-07-04T08:36:49Z</time>
      </trkpt>
      <trkpt lat="45.02044" lon="5.86623">
        <ele>1355</ele>
        <time>2010-07-04T08:36:50Z</time>
      </trkpt>
      <trkpt lat="45.02044" lon="5.86619">
        <ele>1356</ele>
        <time>2010-07-04T08:36:51Z</time>
      </trkpt>
      <trkpt lat="45.02045" lon="5.86616">
        <ele>1357</ele>
        <time>2010-07-04T08:36:52Z</time>
      </trkpt>
      <trkpt lat="45.02047" lon="5.86613">
        <ele>1357</ele>
        <time>2010-07-04T08:36:53Z</time>
      </trkpt>
      <trkpt lat="45.02049" lon="5.86611">
        <ele>1357</ele>
        <time>2010-07-04T08:36:54Z</time>
      </trkpt>
      <trkpt lat="45.0205" lon="5.86608">
        <ele>1358</ele>
        <time>2010-07-04T08:36:55Z</time>
      </trkpt>
      <trkpt lat="45.02052" lon="5.86605">
        <ele>1358</ele>
        <time>2010-07-04T08:36:56Z</time>
      </trkpt>
      <trkpt lat="45.02054" lon="5.86604">
        <ele>1358</ele>
        <time>2010-07-04T08:36:57Z</time>
      </trkpt>
      <trkpt lat="45.02055" lon="5.86602">
        <ele>1358</ele>
        <time>2010-07-04T08:36:58Z</time>
      </trkpt>
      <trkpt lat="45.02057" lon="5.866">
        <ele>1358</ele>
        <time>2010-07-04T08:36:59Z</time>
      </trkpt>
      <trkpt lat="45.02059" lon="5.86598">
        <ele>1359</ele>
        <time>2010-07-04T08:37:00Z</time>
      </trkpt>
      <trkpt lat="45.02061" lon="5.86597">
        <ele>1359</ele>
        <time>2010-07-04T08:37:01Z</time>
      </trkpt>
      <trkpt lat="45.02062" lon="5.86594">
        <ele>1359</ele>
        <time>2010-07-04T08:37:02Z</time>
      </trkpt>
      <trkpt lat="45.02064" lon="5.86592">
        <ele>1359</ele>
        <time>2010-07-04T08:37:03Z</time>
      </trkpt>
      <trkpt lat="45.02065" lon="5.8659">
        <ele>1359</ele>
        <time>2010-07-04T08:37:04Z</time>
      </trkpt>
      <trkpt lat="45.02067" lon="5.86587">
        <ele>1359</ele>
        <time>2010-07-04T08:37:05Z</time>
      </trkpt>
      <trkpt lat="45.02069" lon="5.86584">
        <ele>1360</ele>
        <time>2010-07-04T08:37:06Z</time>
      </trkpt>
      <trkpt lat="45.02071" lon="5.86582">
        <ele>1360</ele>
        <time>2010-07-04T08:37:07Z</time>
      </trkpt>
      <trkpt lat="45.02073" lon="5.86579">
        <ele>1360</ele>
        <time>2010-07-04T08:37:08Z</time>
      </trkpt>
      <trkpt lat="45.02075" lon="5.86576">
        <ele>1360</ele>
        <time>2010-07-04T08:37:09Z</time>
      </trkpt>
      <trkpt lat="45.02076" lon="5.86574">
        <ele>1360</ele>
        <time>2010-07-04T08:37:10Z</time>
      </trkpt>
      <trkpt lat="45.02078" lon="5.86571">
        <ele>1360</ele>
        <time>2010-07-04T08:37:11Z</time>
      </trkpt>
      <trkpt lat="45.0208" lon="5.86569">
        <ele>1360</ele>
        <time>2010-07-04T08:37:12Z</time>
      </trkpt>
      <trkpt lat="45.02081" lon="5.86568">
        <ele>1360</ele>
        <time>2010-07-04T08:37:13Z</time>
      </trkpt>
      <trkpt lat="45.02082" lon="5.86565">
        <ele>1360</ele>
        <time>2010-07-04T08:37:14Z</time>
      </trkpt>
      <trkpt lat="45.02084" lon="5.86563">
        <ele>1360</ele>
        <time>2010-07-04T08:37:15Z</time>
      </trkpt>
      <trkpt lat="45.02085" lon="5.86561">
        <ele>1360</ele>
        <time>2010-07-04T08:37:16Z</time>
      </trkpt>
      <trkpt lat="45.02086" lon="5.86559">
        <ele>1360</ele>
        <time>2010-07-04T08:37:17Z</time>
      </trkpt>
      <trkpt lat="45.02087" lon="5.86557">
        <ele>1360</ele>
        <time>2010-07-04T08:37:18Z</time>
      </trkpt>
      <trkpt lat="45.02088" lon="5.86556">
        <ele>1360</ele>
        <time>2010-07-04T08:37:19Z</time>
      </trkpt>
      <trkpt lat="45.02089" lon="5.86554">
        <ele>1360</ele>
        <time>2010-07-04T08:37:20Z</time>
      </trkpt>
      <trkpt lat="45.0209" lon="5.86553">
        <ele>1360</ele>
        <time>2010-07-04T08:37:21Z</time>
      </trkpt>
      <trkpt lat="45.02092" lon="5.86552">
        <ele>1360</ele>
        <time>2010-07-04T08:37:22Z</time>
      </trkpt>
      <trkpt lat="45.02093" lon="5.86552">
        <ele>1360</ele>
        <time>2010-07-04T08:37:23Z</time>
      </trkpt>
      <trkpt lat="45.02095" lon="5.86554">
        <ele>1360</ele>
        <time>2010-07-04T08:37:24Z</time>
      </trkpt>
      <trkpt lat="45.02095" lon="5.86556">
        <ele>1360</ele>
        <time>2010-07-04T08:37:25Z</time>
      </trkpt>
      <trkpt lat="45.02095" lon="5.86558">
        <ele>1360</ele>
        <time>2010-07-04T08:37:26Z</time>
      </trkpt>
      <trkpt lat="45.02096" lon="5.8656">
        <ele>1360</ele>
        <time>2010-07-04T08:37:27Z</time>
      </trkpt>
      <trkpt lat="45.02096" lon="5.86563">
        <ele>1360</ele>
        <time>2010-07-04T08:37:28Z</time>
      </trkpt>
      <trkpt lat="45.02096" lon="5.86565">
        <ele>1360</ele>
        <time>2010-07-04T08:37:29Z</time>
      </trkpt>
      <trkpt lat="45.02096" lon="5.86567">
        <ele>1360</ele>
        <time>2010-07-04T08:37:30Z</time>
      </trkpt>
      <trkpt lat="45.02097" lon="5.86569">
        <ele>1360</ele>
        <time>2010-07-04T08:37:31Z</time>
      </trkpt>
      <trkpt lat="45.02098" lon="5.86571">
        <ele>1360</ele>
        <time>2010-07-04T08:37:32Z</time>
      </trkpt>
      <trkpt lat="45.02098" lon="5.86574">
        <ele>1360</ele>
        <time>2010-07-04T08:37:33Z</time>
      </trkpt>
      <trkpt lat="45.02099" lon="5.86575">
        <ele>1360</ele>
        <time>2010-07-04T08:37:34Z</time>
      </trkpt>
      <trkpt lat="45.021" lon="5.86577">
        <ele>1360</ele>
        <time>2010-07-04T08:37:35Z</time>
      </trkpt>
      <trkpt lat="45.02101" lon="5.86579">
        <ele>1360</ele>
        <time>2010-07-04T08:37:36Z</time>
      </trkpt>
      <trkpt lat="45.02102" lon="5.8658">
        <ele>1360</ele>
        <time>2010-07-04T08:37:37Z</time>
      </trkpt>
      <trkpt lat="45.02103" lon="5.86582">
        <ele>1360</ele>
        <time>2010-07-04T08:37:38Z</time>
      </trkpt>
      <trkpt lat="45.02105" lon="5.86584">
        <ele>1360</ele>
        <time>2010-07-04T08:37:40Z</time>
      </trkpt>
      <trkpt lat="45.02106" lon="5.86585">
        <ele>1360</ele>
        <time>2010-07-04T08:37:41Z</time>
      </trkpt>
      <trkpt lat="45.02108" lon="5.86586">
        <ele>1360</ele>
        <time>2010-07-04T08:37:42Z</time>
      </trkpt>
      <trkpt lat="45.02109" lon="5.86587">
        <ele>1360</ele>
        <time>2010-07-04T08:37:43Z</time>
      </trkpt>
      <trkpt lat="45.0211" lon="5.86587">
        <ele>1360</ele>
        <time>2010-07-04T08:37:44Z</time>
      </trkpt>
      <trkpt lat="45.02112" lon="5.86588">
        <ele>1360</ele>
        <time>2010-07-04T08:37:45Z</time>
      </trkpt>
      <trkpt lat="45.02113" lon="5.86589">
        <ele>1360</ele>
        <time>2010-07-04T08:37:46Z</time>
      </trkpt>
      <trkpt lat="45.02114" lon="5.8659">
        <ele>1360</ele>
        <time>2010-07-04T08:37:47Z</time>
      </trkpt>
      <trkpt lat="45.02115" lon="5.86591">
        <ele>1360</ele>
        <time>2010-07-04T08:37:48Z</time>
      </trkpt>
      <trkpt lat="45.02116" lon="5.86592">
        <ele>1360</ele>
        <time>2010-07-04T08:37:49Z</time>
      </trkpt>
      <trkpt lat="45.02118" lon="5.86594">
        <ele>1360</ele>
        <time>2010-07-04T08:37:51Z</time>
      </trkpt>
      <trkpt lat="45.02119" lon="5.86595">
        <ele>1360</ele>
        <time>2010-07-04T08:37:52Z</time>
      </trkpt>
      <trkpt lat="45.02121" lon="5.86596">
        <ele>1360</ele>
        <time>2010-07-04T08:37:54Z</time>
      </trkpt>
      <trkpt lat="45.02123" lon="5.86596">
        <ele>1360</ele>
        <time>2010-07-04T08:37:55Z</time>
      </trkpt>
      <trkpt lat="45.02125" lon="5.86597">
        <ele>1360</ele>
        <time>2010-07-04T08:37:57Z</time>
      </trkpt>
      <trkpt lat="45.02126" lon="5.86598">
        <ele>1360</ele>
        <time>2010-07-04T08:37:58Z</time>
      </trkpt>
      <trkpt lat="45.02127" lon="5.86598">
        <ele>1360</ele>
        <time>2010-07-04T08:37:59Z</time>
      </trkpt>
      <trkpt lat="45.02128" lon="5.86599">
        <ele>1360</ele>
        <time>2010-07-04T08:38:00Z</time>
      </trkpt>
      <trkpt lat="45.02129" lon="5.86599">
        <ele>1360</ele>
        <time>2010-07-04T08:38:01Z</time>
      </trkpt>
      <trkpt lat="45.02131" lon="5.866">
        <ele>1360</ele>
        <time>2010-07-04T08:38:02Z</time>
      </trkpt>
      <trkpt lat="45.02132" lon="5.86601">
        <ele>1360</ele>
        <time>2010-07-04T08:38:03Z</time>
      </trkpt>
      <trkpt lat="45.02133" lon="5.86602">
        <ele>1360</ele>
        <time>2010-07-04T08:38:04Z</time>
      </trkpt>
      <trkpt lat="45.02135" lon="5.86603">
        <ele>1361</ele>
        <time>2010-07-04T08:38:06Z</time>
      </trkpt>
      <trkpt lat="45.02137" lon="5.86604">
        <ele>1361</ele>
        <time>2010-07-04T08:38:08Z</time>
      </trkpt>
      <trkpt lat="45.02139" lon="5.86605">
        <ele>1361</ele>
        <time>2010-07-04T08:38:10Z</time>
      </trkpt>
      <trkpt lat="45.02141" lon="5.86606">
        <ele>1361</ele>
        <time>2010-07-04T08:38:12Z</time>
      </trkpt>
      <trkpt lat="45.02143" lon="5.86607">
        <ele>1362</ele>
        <time>2010-07-04T08:38:14Z</time>
      </trkpt>
      <trkpt lat="45.02145" lon="5.86608">
        <ele>1362</ele>
        <time>2010-07-04T08:38:16Z</time>
      </trkpt>
      <trkpt lat="45.02146" lon="5.86608">
        <ele>1362</ele>
        <time>2010-07-04T08:38:17Z</time>
      </trkpt>
      <trkpt lat="45.02148" lon="5.86608">
        <ele>1362</ele>
        <time>2010-07-04T08:38:18Z</time>
      </trkpt>
      <trkpt lat="45.02149" lon="5.86608">
        <ele>1362</ele>
        <time>2010-07-04T08:38:19Z</time>
      </trkpt>
      <trkpt lat="45.0215" lon="5.86608">
        <ele>1363</ele>
        <time>2010-07-04T08:38:20Z</time>
      </trkpt>
      <trkpt lat="45.02152" lon="5.86609">
        <ele>1364</ele>
        <time>2010-07-04T08:38:21Z</time>
      </trkpt>
      <trkpt lat="45.02153" lon="5.86609">
        <ele>1364</ele>
        <time>2010-07-04T08:38:22Z</time>
      </trkpt>
      <trkpt lat="45.02155" lon="5.8661">
        <ele>1365</ele>
        <time>2010-07-04T08:38:24Z</time>
      </trkpt>
      <trkpt lat="45.02156" lon="5.86611">
        <ele>1366</ele>
        <time>2010-07-04T08:38:25Z</time>
      </trkpt>
      <trkpt lat="45.02157" lon="5.86611">
        <ele>1366</ele>
        <time>2010-07-04T08:38:26Z</time>
      </trkpt>
      <trkpt lat="45.02159" lon="5.86613">
        <ele>1367</ele>
        <time>2010-07-04T08:38:28Z</time>
      </trkpt>
      <trkpt lat="45.02161" lon="5.86614">
        <ele>1368</ele>
        <time>2010-07-04T08:38:30Z</time>
      </trkpt>
      <trkpt lat="45.02162" lon="5.86616">
        <ele>1370</ele>
        <time>2010-07-04T08:38:32Z</time>
      </trkpt>
      <trkpt lat="45.02164" lon="5.86617">
        <ele>1370</ele>
        <time>2010-07-04T08:38:33Z</time>
      </trkpt>
      <trkpt lat="45.02165" lon="5.86618">
        <ele>1371</ele>
        <time>2010-07-04T08:38:35Z</time>
      </trkpt>
      <trkpt lat="45.02167" lon="5.86621">
        <ele>1371</ele>
        <time>2010-07-04T08:38:37Z</time>
      </trkpt>
      <trkpt lat="45.02169" lon="5.86624">
        <ele>1372</ele>
        <time>2010-07-04T08:38:39Z</time>
      </trkpt>
      <trkpt lat="45.0217" lon="5.86626">
        <ele>1372</ele>
        <time>2010-07-04T08:38:41Z</time>
      </trkpt>
      <trkpt lat="45.02172" lon="5.86629">
        <ele>1372</ele>
        <time>2010-07-04T08:38:43Z</time>
      </trkpt>
      <trkpt lat="45.02173" lon="5.8663">
        <ele>1372</ele>
        <time>2010-07-04T08:38:44Z</time>
      </trkpt>
      <trkpt lat="45.02175" lon="5.86631">
        <ele>1372</ele>
        <time>2010-07-04T08:38:45Z</time>
      </trkpt>
      <trkpt lat="45.02175" lon="5.86633">
        <ele>1372</ele>
        <time>2010-07-04T08:38:46Z</time>
      </trkpt>
      <trkpt lat="45.02177" lon="5.86636">
        <ele>1372</ele>
        <time>2010-07-04T08:38:48Z</time>
      </trkpt>
      <trkpt lat="45.02178" lon="5.86637">
        <ele>1372</ele>
        <time>2010-07-04T08:38:49Z</time>
      </trkpt>
      <trkpt lat="45.0218" lon="5.86639">
        <ele>1372</ele>
        <time>2010-07-04T08:38:51Z</time>
      </trkpt>
      <trkpt lat="45.02181" lon="5.86642">
        <ele>1372</ele>
        <time>2010-07-04T08:38:53Z</time>
      </trkpt>
      <trkpt lat="45.02183" lon="5.86644">
        <ele>1372</ele>
        <time>2010-07-04T08:38:54Z</time>
      </trkpt>
      <trkpt lat="45.02184" lon="5.86645">
        <ele>1372</ele>
        <time>2010-07-04T08:38:56Z</time>
      </trkpt>
      <trkpt lat="45.02186" lon="5.86648">
        <ele>1372</ele>
        <time>2010-07-04T08:38:58Z</time>
      </trkpt>
      <trkpt lat="45.02188" lon="5.8665">
        <ele>1372</ele>
        <time>2010-07-04T08:39:00Z</time>
      </trkpt>
      <trkpt lat="45.0219" lon="5.86651">
        <ele>1372</ele>
        <time>2010-07-04T08:39:02Z</time>
      </trkpt>
      <trkpt lat="45.02191" lon="5.86652">
        <ele>1373</ele>
        <time>2010-07-04T08:39:03Z</time>
      </trkpt>
      <trkpt lat="45.02192" lon="5.86652">
        <ele>1373</ele>
        <time>2010-07-04T08:39:04Z</time>
      </trkpt>
      <trkpt lat="45.02194" lon="5.86654">
        <ele>1374</ele>
        <time>2010-07-04T08:39:06Z</time>
      </trkpt>
      <trkpt lat="45.02195" lon="5.86655">
        <ele>1375</ele>
        <time>2010-07-04T08:39:08Z</time>
      </trkpt>
      <trkpt lat="45.02197" lon="5.86658">
        <ele>1375</ele>
        <time>2010-07-04T08:39:10Z</time>
      </trkpt>
      <trkpt lat="45.02198" lon="5.86661">
        <ele>1376</ele>
        <time>2010-07-04T08:39:12Z</time>
      </trkpt>
      <trkpt lat="45.02199" lon="5.86663">
        <ele>1376</ele>
        <time>2010-07-04T08:39:14Z</time>
      </trkpt>
      <trkpt lat="45.022" lon="5.86665">
        <ele>1376</ele>
        <time>2010-07-04T08:39:15Z</time>
      </trkpt>
      <trkpt lat="45.02201" lon="5.86666">
        <ele>1376</ele>
        <time>2010-07-04T08:39:16Z</time>
      </trkpt>
      <trkpt lat="45.02202" lon="5.86668">
        <ele>1376</ele>
        <time>2010-07-04T08:39:17Z</time>
      </trkpt>
      <trkpt lat="45.02203" lon="5.86671">
        <ele>1376</ele>
        <time>2010-07-04T08:39:19Z</time>
      </trkpt>
      <trkpt lat="45.02203" lon="5.86674">
        <ele>1376</ele>
        <time>2010-07-04T08:39:21Z</time>
      </trkpt>
      <trkpt lat="45.02204" lon="5.86675">
        <ele>1376</ele>
        <time>2010-07-04T08:39:22Z</time>
      </trkpt>
      <trkpt lat="45.02204" lon="5.86677">
        <ele>1376</ele>
        <time>2010-07-04T08:39:23Z</time>
      </trkpt>
      <trkpt lat="45.02204" lon="5.86679">
        <ele>1377</ele>
        <time>2010-07-04T08:39:24Z</time>
      </trkpt>
      <trkpt lat="45.02204" lon="5.86681">
        <ele>1377</ele>
        <time>2010-07-04T08:39:25Z</time>
      </trkpt>
      <trkpt lat="45.02205" lon="5.86682">
        <ele>1377</ele>
        <time>2010-07-04T08:39:26Z</time>
      </trkpt>
      <trkpt lat="45.02205" lon="5.86684">
        <ele>1377</ele>
        <time>2010-07-04T08:39:27Z</time>
      </trkpt>
      <trkpt lat="45.02205" lon="5.86686">
        <ele>1377</ele>
        <time>2010-07-04T08:39:28Z</time>
      </trkpt>
      <trkpt lat="45.02205" lon="5.86688">
        <ele>1378</ele>
        <time>2010-07-04T08:39:29Z</time>
      </trkpt>
      <trkpt lat="45.02205" lon="5.8669">
        <ele>1378</ele>
        <time>2010-07-04T08:39:30Z</time>
      </trkpt>
      <trkpt lat="45.02205" lon="5.86692">
        <ele>1378</ele>
        <time>2010-07-04T08:39:31Z</time>
      </trkpt>
      <trkpt lat="45.02205" lon="5.86694">
        <ele>1379</ele>
        <time>2010-07-04T08:39:32Z</time>
      </trkpt>
      <trkpt lat="45.02205" lon="5.86696">
        <ele>1379</ele>
        <time>2010-07-04T08:39:33Z</time>
      </trkpt>
      <trkpt lat="45.02205" lon="5.86698">
        <ele>1379</ele>
        <time>2010-07-04T08:39:34Z</time>
      </trkpt>
      <trkpt lat="45.02205" lon="5.867">
        <ele>1380</ele>
        <time>2010-07-04T08:39:35Z</time>
      </trkpt>
      <trkpt lat="45.02205" lon="5.86703">
        <ele>1380</ele>
        <time>2010-07-04T08:39:36Z</time>
      </trkpt>
      <trkpt lat="45.02205" lon="5.86706">
        <ele>1381</ele>
        <time>2010-07-04T08:39:37Z</time>
      </trkpt>
      <trkpt lat="45.02205" lon="5.86709">
        <ele>1382</ele>
        <time>2010-07-04T08:39:38Z</time>
      </trkpt>
      <trkpt lat="45.02206" lon="5.86712">
        <ele>1383</ele>
        <time>2010-07-04T08:39:39Z</time>
      </trkpt>
      <trkpt lat="45.02206" lon="5.86715">
        <ele>1384</ele>
        <time>2010-07-04T08:39:40Z</time>
      </trkpt>
      <trkpt lat="45.02206" lon="5.86718">
        <ele>1385</ele>
        <time>2010-07-04T08:39:41Z</time>
      </trkpt>
      <trkpt lat="45.02206" lon="5.86721">
        <ele>1386</ele>
        <time>2010-07-04T08:39:42Z</time>
      </trkpt>
      <trkpt lat="45.02206" lon="5.86724">
        <ele>1387</ele>
        <time>2010-07-04T08:39:43Z</time>
      </trkpt>
      <trkpt lat="45.02205" lon="5.86727">
        <ele>1388</ele>
        <time>2010-07-04T08:39:44Z</time>
      </trkpt>
      <trkpt lat="45.02205" lon="5.8673">
        <ele>1388</ele>
        <time>2010-07-04T08:39:45Z</time>
      </trkpt>
      <trkpt lat="45.02204" lon="5.86733">
        <ele>1388</ele>
        <time>2010-07-04T08:39:46Z</time>
      </trkpt>
      <trkpt lat="45.02203" lon="5.86735">
        <ele>1389</ele>
        <time>2010-07-04T08:39:47Z</time>
      </trkpt>
      <trkpt lat="45.02201" lon="5.86737">
        <ele>1389</ele>
        <time>2010-07-04T08:39:48Z</time>
      </trkpt>
      <trkpt lat="45.022" lon="5.86739">
        <ele>1389</ele>
        <time>2010-07-04T08:39:49Z</time>
      </trkpt>
      <trkpt lat="45.02198" lon="5.86741">
        <ele>1389</ele>
        <time>2010-07-04T08:39:50Z</time>
      </trkpt>
      <trkpt lat="45.02196" lon="5.86743">
        <ele>1389</ele>
        <time>2010-07-04T08:39:51Z</time>
      </trkpt>
      <trkpt lat="45.02194" lon="5.86746">
        <ele>1389</ele>
        <time>2010-07-04T08:39:52Z</time>
      </trkpt>
      <trkpt lat="45.02193" lon="5.86749">
        <ele>1389</ele>
        <time>2010-07-04T08:39:53Z</time>
      </trkpt>
      <trkpt lat="45.02191" lon="5.86752">
        <ele>1389</ele>
        <time>2010-07-04T08:39:54Z</time>
      </trkpt>
      <trkpt lat="45.02189" lon="5.86755">
        <ele>1389</ele>
        <time>2010-07-04T08:39:55Z</time>
      </trkpt>
      <trkpt lat="45.02186" lon="5.86758">
        <ele>1389</ele>
        <time>2010-07-04T08:39:56Z</time>
      </trkpt>
      <trkpt lat="45.02184" lon="5.86761">
        <ele>1389</ele>
        <time>2010-07-04T08:39:57Z</time>
      </trkpt>
      <trkpt lat="45.02182" lon="5.86764">
        <ele>1389</ele>
        <time>2010-07-04T08:39:58Z</time>
      </trkpt>
      <trkpt lat="45.0218" lon="5.86766">
        <ele>1389</ele>
        <time>2010-07-04T08:39:59Z</time>
      </trkpt>
      <trkpt lat="45.02178" lon="5.86769">
        <ele>1389</ele>
        <time>2010-07-04T08:40:00Z</time>
      </trkpt>
      <trkpt lat="45.02177" lon="5.86772">
        <ele>1390</ele>
        <time>2010-07-04T08:40:01Z</time>
      </trkpt>
      <trkpt lat="45.02176" lon="5.86776">
        <ele>1390</ele>
        <time>2010-07-04T08:40:02Z</time>
      </trkpt>
      <trkpt lat="45.02176" lon="5.86779">
        <ele>1390</ele>
        <time>2010-07-04T08:40:03Z</time>
      </trkpt>
      <trkpt lat="45.02175" lon="5.86782">
        <ele>1390</ele>
        <time>2010-07-04T08:40:04Z</time>
      </trkpt>
      <trkpt lat="45.02174" lon="5.86784">
        <ele>1390</ele>
        <time>2010-07-04T08:40:05Z</time>
      </trkpt>
      <trkpt lat="45.02172" lon="5.86787">
        <ele>1390</ele>
        <time>2010-07-04T08:40:06Z</time>
      </trkpt>
      <trkpt lat="45.02169" lon="5.86791">
        <ele>1390</ele>
        <time>2010-07-04T08:40:07Z</time>
      </trkpt>
      <trkpt lat="45.02168" lon="5.86794">
        <ele>1390</ele>
        <time>2010-07-04T08:40:08Z</time>
      </trkpt>
      <trkpt lat="45.02165" lon="5.86797">
        <ele>1390</ele>
        <time>2010-07-04T08:40:09Z</time>
      </trkpt>
      <trkpt lat="45.02163" lon="5.868">
        <ele>1390</ele>
        <time>2010-07-04T08:40:10Z</time>
      </trkpt>
      <trkpt lat="45.02161" lon="5.86803">
        <ele>1390</ele>
        <time>2010-07-04T08:40:11Z</time>
      </trkpt>
      <trkpt lat="45.02158" lon="5.86805">
        <ele>1390</ele>
        <time>2010-07-04T08:40:12Z</time>
      </trkpt>
      <trkpt lat="45.02157" lon="5.86808">
        <ele>1390</ele>
        <time>2010-07-04T08:40:13Z</time>
      </trkpt>
      <trkpt lat="45.02156" lon="5.86811">
        <ele>1390</ele>
        <time>2010-07-04T08:40:14Z</time>
      </trkpt>
      <trkpt lat="45.02155" lon="5.86814">
        <ele>1390</ele>
        <time>2010-07-04T08:40:15Z</time>
      </trkpt>
      <trkpt lat="45.02154" lon="5.86817">
        <ele>1390</ele>
        <time>2010-07-04T08:40:16Z</time>
      </trkpt>
      <trkpt lat="45.02154" lon="5.86821">
        <ele>1390</ele>
        <time>2010-07-04T08:40:17Z</time>
      </trkpt>
      <trkpt lat="45.02153" lon="5.86825">
        <ele>1390</ele>
        <time>2010-07-04T08:40:18Z</time>
      </trkpt>
      <trkpt lat="45.02153" lon="5.86828">
        <ele>1390</ele>
        <time>2010-07-04T08:40:19Z</time>
      </trkpt>
      <trkpt lat="45.02152" lon="5.86831">
        <ele>1390</ele>
        <time>2010-07-04T08:40:20Z</time>
      </trkpt>
      <trkpt lat="45.02152" lon="5.86835">
        <ele>1390</ele>
        <time>2010-07-04T08:40:21Z</time>
      </trkpt>
      <trkpt lat="45.02153" lon="5.86837">
        <ele>1390</ele>
        <time>2010-07-04T08:40:22Z</time>
      </trkpt>
      <trkpt lat="45.02153" lon="5.86841">
        <ele>1390</ele>
        <time>2010-07-04T08:40:23Z</time>
      </trkpt>
      <trkpt lat="45.02153" lon="5.86843">
        <ele>1390</ele>
        <time>2010-07-04T08:40:24Z</time>
      </trkpt>
      <trkpt lat="45.02154" lon="5.86846">
        <ele>1390</ele>
        <time>2010-07-04T08:40:25Z</time>
      </trkpt>
      <trkpt lat="45.02154" lon="5.86849">
        <ele>1390</ele>
        <time>2010-07-04T08:40:26Z</time>
      </trkpt>
      <trkpt lat="45.02154" lon="5.86852">
        <ele>1390</ele>
        <time>2010-07-04T08:40:27Z</time>
      </trkpt>
      <trkpt lat="45.02153" lon="5.86855">
        <ele>1390</ele>
        <time>2010-07-04T08:40:28Z</time>
      </trkpt>
      <trkpt lat="45.02153" lon="5.86858">
        <ele>1390</ele>
        <time>2010-07-04T08:40:29Z</time>
      </trkpt>
      <trkpt lat="45.02152" lon="5.8686">
        <ele>1390</ele>
        <time>2010-07-04T08:40:30Z</time>
      </trkpt>
      <trkpt lat="45.02151" lon="5.86863">
        <ele>1390</ele>
        <time>2010-07-04T08:40:31Z</time>
      </trkpt>
      <trkpt lat="45.0215" lon="5.86865">
        <ele>1390</ele>
        <time>2010-07-04T08:40:32Z</time>
      </trkpt>
      <trkpt lat="45.02149" lon="5.86866">
        <ele>1390</ele>
        <time>2010-07-04T08:40:33Z</time>
      </trkpt>
      <trkpt lat="45.02149" lon="5.86869">
        <ele>1390</ele>
        <time>2010-07-04T08:40:34Z</time>
      </trkpt>
      <trkpt lat="45.02148" lon="5.8687">
        <ele>1391</ele>
        <time>2010-07-04T08:40:35Z</time>
      </trkpt>
      <trkpt lat="45.02148" lon="5.86873">
        <ele>1392</ele>
        <time>2010-07-04T08:40:36Z</time>
      </trkpt>
      <trkpt lat="45.02148" lon="5.86875">
        <ele>1392</ele>
        <time>2010-07-04T08:40:37Z</time>
      </trkpt>
      <trkpt lat="45.02147" lon="5.86877">
        <ele>1393</ele>
        <time>2010-07-04T08:40:38Z</time>
      </trkpt>
      <trkpt lat="45.02147" lon="5.8688">
        <ele>1394</ele>
        <time>2010-07-04T08:40:39Z</time>
      </trkpt>
      <trkpt lat="45.02146" lon="5.86882">
        <ele>1394</ele>
        <time>2010-07-04T08:40:40Z</time>
      </trkpt>
      <trkpt lat="45.02146" lon="5.86884">
        <ele>1395</ele>
        <time>2010-07-04T08:40:41Z</time>
      </trkpt>
      <trkpt lat="45.02146" lon="5.86886">
        <ele>1395</ele>
        <time>2010-07-04T08:40:42Z</time>
      </trkpt>
      <trkpt lat="45.02146" lon="5.86888">
        <ele>1396</ele>
        <time>2010-07-04T08:40:43Z</time>
      </trkpt>
      <trkpt lat="45.02146" lon="5.8689">
        <ele>1396</ele>
        <time>2010-07-04T08:40:44Z</time>
      </trkpt>
      <trkpt lat="45.02146" lon="5.86892">
        <ele>1396</ele>
        <time>2010-07-04T08:40:45Z</time>
      </trkpt>
      <trkpt lat="45.02146" lon="5.86894">
        <ele>1396</ele>
        <time>2010-07-04T08:40:46Z</time>
      </trkpt>
      <trkpt lat="45.02147" lon="5.86896">
        <ele>1397</ele>
        <time>2010-07-04T08:40:47Z</time>
      </trkpt>
      <trkpt lat="45.02147" lon="5.86897">
        <ele>1397</ele>
        <time>2010-07-04T08:40:48Z</time>
      </trkpt>
      <trkpt lat="45.02147" lon="5.86899">
        <ele>1397</ele>
        <time>2010-07-04T08:40:49Z</time>
      </trkpt>
      <trkpt lat="45.02147" lon="5.869">
        <ele>1397</ele>
        <time>2010-07-04T08:40:50Z</time>
      </trkpt>
      <trkpt lat="45.02147" lon="5.86903">
        <ele>1397</ele>
        <time>2010-07-04T08:40:52Z</time>
      </trkpt>
      <trkpt lat="45.02148" lon="5.86906">
        <ele>1397</ele>
        <time>2010-07-04T08:40:54Z</time>
      </trkpt>
      <trkpt lat="45.02149" lon="5.86908">
        <ele>1397</ele>
        <time>2010-07-04T08:40:56Z</time>
      </trkpt>
      <trkpt lat="45.02149" lon="5.8691">
        <ele>1397</ele>
        <time>2010-07-04T08:40:57Z</time>
      </trkpt>
      <trkpt lat="45.0215" lon="5.86912">
        <ele>1398</ele>
        <time>2010-07-04T08:40:58Z</time>
      </trkpt>
      <trkpt lat="45.0215" lon="5.86913">
        <ele>1398</ele>
        <time>2010-07-04T08:40:59Z</time>
      </trkpt>
      <trkpt lat="45.0215" lon="5.86915">
        <ele>1399</ele>
        <time>2010-07-04T08:41:00Z</time>
      </trkpt>
      <trkpt lat="45.02149" lon="5.86917">
        <ele>1399</ele>
        <time>2010-07-04T08:41:01Z</time>
      </trkpt>
      <trkpt lat="45.02149" lon="5.8692">
        <ele>1399</ele>
        <time>2010-07-04T08:41:02Z</time>
      </trkpt>
      <trkpt lat="45.02149" lon="5.86921">
        <ele>1400</ele>
        <time>2010-07-04T08:41:03Z</time>
      </trkpt>
      <trkpt lat="45.0215" lon="5.86923">
        <ele>1400</ele>
        <time>2010-07-04T08:41:05Z</time>
      </trkpt>
      <trkpt lat="45.02151" lon="5.86925">
        <ele>1400</ele>
        <time>2010-07-04T08:41:06Z</time>
      </trkpt>
      <trkpt lat="45.02151" lon="5.86926">
        <ele>1401</ele>
        <time>2010-07-04T08:41:07Z</time>
      </trkpt>
      <trkpt lat="45.02152" lon="5.86929">
        <ele>1401</ele>
        <time>2010-07-04T08:41:09Z</time>
      </trkpt>
      <trkpt lat="45.02152" lon="5.86931">
        <ele>1401</ele>
        <time>2010-07-04T08:41:11Z</time>
      </trkpt>
      <trkpt lat="45.02152" lon="5.86933">
        <ele>1401</ele>
        <time>2010-07-04T08:41:13Z</time>
      </trkpt>
      <trkpt lat="45.02152" lon="5.86935">
        <ele>1401</ele>
        <time>2010-07-04T08:41:14Z</time>
      </trkpt>
      <trkpt lat="45.02153" lon="5.86937">
        <ele>1401</ele>
        <time>2010-07-04T08:41:16Z</time>
      </trkpt>
      <trkpt lat="45.02153" lon="5.86939">
        <ele>1401</ele>
        <time>2010-07-04T08:41:18Z</time>
      </trkpt>
      <trkpt lat="45.02153" lon="5.86941">
        <ele>1401</ele>
        <time>2010-07-04T08:41:19Z</time>
      </trkpt>
      <trkpt lat="45.02153" lon="5.86943">
        <ele>1401</ele>
        <time>2010-07-04T08:41:20Z</time>
      </trkpt>
      <trkpt lat="45.02153" lon="5.86945">
        <ele>1401</ele>
        <time>2010-07-04T08:41:21Z</time>
      </trkpt>
      <trkpt lat="45.02153" lon="5.86947">
        <ele>1401</ele>
        <time>2010-07-04T08:41:23Z</time>
      </trkpt>
      <trkpt lat="45.02154" lon="5.86949">
        <ele>1401</ele>
        <time>2010-07-04T08:41:25Z</time>
      </trkpt>
      <trkpt lat="45.02154" lon="5.86952">
        <ele>1401</ele>
        <time>2010-07-04T08:41:27Z</time>
      </trkpt>
      <trkpt lat="45.02155" lon="5.86955">
        <ele>1401</ele>
        <time>2010-07-04T08:41:29Z</time>
      </trkpt>
      <trkpt lat="45.02156" lon="5.86957">
        <ele>1401</ele>
        <time>2010-07-04T08:41:30Z</time>
      </trkpt>
      <trkpt lat="45.02155" lon="5.86959">
        <ele>1401</ele>
        <time>2010-07-04T08:41:31Z</time>
      </trkpt>
      <trkpt lat="45.02155" lon="5.86961">
        <ele>1401</ele>
        <time>2010-07-04T08:41:33Z</time>
      </trkpt>
      <trkpt lat="45.02155" lon="5.86963">
        <ele>1403</ele>
        <time>2010-07-04T08:41:38Z</time>
      </trkpt>
      <trkpt lat="45.02156" lon="5.86966">
        <ele>1405</ele>
        <time>2010-07-04T08:41:40Z</time>
      </trkpt>
      <trkpt lat="45.02155" lon="5.86968">
        <ele>1406</ele>
        <time>2010-07-04T08:41:41Z</time>
      </trkpt>
      <trkpt lat="45.02156" lon="5.8697">
        <ele>1407</ele>
        <time>2010-07-04T08:41:42Z</time>
      </trkpt>
      <trkpt lat="45.02157" lon="5.86973">
        <ele>1408</ele>
        <time>2010-07-04T08:41:43Z</time>
      </trkpt>
      <trkpt lat="45.02157" lon="5.86975">
        <ele>1409</ele>
        <time>2010-07-04T08:41:44Z</time>
      </trkpt>
      <trkpt lat="45.02156" lon="5.86977">
        <ele>1410</ele>
        <time>2010-07-04T08:41:45Z</time>
      </trkpt>
      <trkpt lat="45.02157" lon="5.8698">
        <ele>1412</ele>
        <time>2010-07-04T08:41:47Z</time>
      </trkpt>
      <trkpt lat="45.02159" lon="5.86982">
        <ele>1414</ele>
        <time>2010-07-04T08:41:49Z</time>
      </trkpt>
      <trkpt lat="45.02159" lon="5.86984">
        <ele>1416</ele>
        <time>2010-07-04T08:41:51Z</time>
      </trkpt>
      <trkpt lat="45.02159" lon="5.86987">
        <ele>1416</ele>
        <time>2010-07-04T08:41:54Z</time>
      </trkpt>
      <trkpt lat="45.02159" lon="5.86988">
        <ele>1416</ele>
        <time>2010-07-04T08:41:55Z</time>
      </trkpt>
      <trkpt lat="45.02158" lon="5.8699">
        <ele>1416</ele>
        <time>2010-07-04T08:41:56Z</time>
      </trkpt>
      <trkpt lat="45.02159" lon="5.86992">
        <ele>1416</ele>
        <time>2010-07-04T08:41:58Z</time>
      </trkpt>
      <trkpt lat="45.02157" lon="5.86994">
        <ele>1416</ele>
        <time>2010-07-04T08:42:01Z</time>
      </trkpt>
      <trkpt lat="45.02157" lon="5.86996">
        <ele>1416</ele>
        <time>2010-07-04T08:42:02Z</time>
      </trkpt>
      <trkpt lat="45.02157" lon="5.86999">
        <ele>1416</ele>
        <time>2010-07-04T08:42:04Z</time>
      </trkpt>
      <trkpt lat="45.02157" lon="5.87002">
        <ele>1416</ele>
        <time>2010-07-04T08:42:05Z</time>
      </trkpt>
      <trkpt lat="45.02156" lon="5.87006">
        <ele>1416</ele>
        <time>2010-07-04T08:42:07Z</time>
      </trkpt>
      <trkpt lat="45.02154" lon="5.87009">
        <ele>1418</ele>
        <time>2010-07-04T08:42:09Z</time>
      </trkpt>
      <trkpt lat="45.02153" lon="5.87012">
        <ele>1418</ele>
        <time>2010-07-04T08:42:11Z</time>
      </trkpt>
      <trkpt lat="45.02152" lon="5.87014">
        <ele>1418</ele>
        <time>2010-07-04T08:42:13Z</time>
      </trkpt>
      <trkpt lat="45.02152" lon="5.87017">
        <ele>1418</ele>
        <time>2010-07-04T08:42:14Z</time>
      </trkpt>
      <trkpt lat="45.02151" lon="5.87019">
        <ele>1418</ele>
        <time>2010-07-04T08:42:15Z</time>
      </trkpt>
      <trkpt lat="45.02151" lon="5.87022">
        <ele>1418</ele>
        <time>2010-07-04T08:42:16Z</time>
      </trkpt>
      <trkpt lat="45.02151" lon="5.87024">
        <ele>1418</ele>
        <time>2010-07-04T08:42:17Z</time>
      </trkpt>
      <trkpt lat="45.02151" lon="5.87026">
        <ele>1418</ele>
        <time>2010-07-04T08:42:18Z</time>
      </trkpt>
      <trkpt lat="45.0215" lon="5.87029">
        <ele>1418</ele>
        <time>2010-07-04T08:42:20Z</time>
      </trkpt>
      <trkpt lat="45.02149" lon="5.87032">
        <ele>1418</ele>
        <time>2010-07-04T08:42:21Z</time>
      </trkpt>
      <trkpt lat="45.02149" lon="5.87035">
        <ele>1418</ele>
        <time>2010-07-04T08:42:22Z</time>
      </trkpt>
      <trkpt lat="45.0215" lon="5.87038">
        <ele>1418</ele>
        <time>2010-07-04T08:42:23Z</time>
      </trkpt>
      <trkpt lat="45.02149" lon="5.8704">
        <ele>1418</ele>
        <time>2010-07-04T08:42:24Z</time>
      </trkpt>
      <trkpt lat="45.02149" lon="5.87042">
        <ele>1418</ele>
        <time>2010-07-04T08:42:25Z</time>
      </trkpt>
      <trkpt lat="45.02149" lon="5.87043">
        <ele>1418</ele>
        <time>2010-07-04T08:42:26Z</time>
      </trkpt>
      <trkpt lat="45.02148" lon="5.87045">
        <ele>1418</ele>
        <time>2010-07-04T08:42:27Z</time>
      </trkpt>
      <trkpt lat="45.02148" lon="5.87048">
        <ele>1418</ele>
        <time>2010-07-04T08:42:29Z</time>
      </trkpt>
      <trkpt lat="45.02148" lon="5.8705">
        <ele>1418</ele>
        <time>2010-07-04T08:42:30Z</time>
      </trkpt>
      <trkpt lat="45.02147" lon="5.87052">
        <ele>1418</ele>
        <time>2010-07-04T08:42:31Z</time>
      </trkpt>
      <trkpt lat="45.02146" lon="5.87054">
        <ele>1418</ele>
        <time>2010-07-04T08:42:32Z</time>
      </trkpt>
      <trkpt lat="45.02146" lon="5.87057">
        <ele>1418</ele>
        <time>2010-07-04T08:42:34Z</time>
      </trkpt>
      <trkpt lat="45.02146" lon="5.87059">
        <ele>1418</ele>
        <time>2010-07-04T08:42:36Z</time>
      </trkpt>
      <trkpt lat="45.02145" lon="5.87062">
        <ele>1418</ele>
        <time>2010-07-04T08:42:38Z</time>
      </trkpt>
      <trkpt lat="45.02145" lon="5.87064">
        <ele>1418</ele>
        <time>2010-07-04T08:42:39Z</time>
      </trkpt>
      <trkpt lat="45.02144" lon="5.87067">
        <ele>1418</ele>
        <time>2010-07-04T08:42:41Z</time>
      </trkpt>
      <trkpt lat="45.02144" lon="5.87069">
        <ele>1419</ele>
        <time>2010-07-04T08:42:42Z</time>
      </trkpt>
      <trkpt lat="45.02144" lon="5.87071">
        <ele>1420</ele>
        <time>2010-07-04T08:42:43Z</time>
      </trkpt>
      <trkpt lat="45.02144" lon="5.87072">
        <ele>1421</ele>
        <time>2010-07-04T08:42:44Z</time>
      </trkpt>
      <trkpt lat="45.02144" lon="5.87075">
        <ele>1423</ele>
        <time>2010-07-04T08:42:47Z</time>
      </trkpt>
      <trkpt lat="45.02144" lon="5.87076">
        <ele>1424</ele>
        <time>2010-07-04T08:42:48Z</time>
      </trkpt>
      <trkpt lat="45.02144" lon="5.87079">
        <ele>1424</ele>
        <time>2010-07-04T08:42:49Z</time>
      </trkpt>
      <trkpt lat="45.02144" lon="5.87082">
        <ele>1425</ele>
        <time>2010-07-04T08:42:51Z</time>
      </trkpt>
      <trkpt lat="45.02144" lon="5.87084">
        <ele>1427</ele>
        <time>2010-07-04T08:42:53Z</time>
      </trkpt>
      <trkpt lat="45.02145" lon="5.87086">
        <ele>1428</ele>
        <time>2010-07-04T08:42:54Z</time>
      </trkpt>
      <trkpt lat="45.02145" lon="5.87088">
        <ele>1429</ele>
        <time>2010-07-04T08:42:56Z</time>
      </trkpt>
      <trkpt lat="45.02145" lon="5.87091">
        <ele>1429</ele>
        <time>2010-07-04T08:42:58Z</time>
      </trkpt>
      <trkpt lat="45.02145" lon="5.87094">
        <ele>1429</ele>
        <time>2010-07-04T08:43:00Z</time>
      </trkpt>
      <trkpt lat="45.02145" lon="5.87096">
        <ele>1429</ele>
        <time>2010-07-04T08:43:01Z</time>
      </trkpt>
      <trkpt lat="45.02145" lon="5.87098">
        <ele>1429</ele>
        <time>2010-07-04T08:43:02Z</time>
      </trkpt>
      <trkpt lat="45.02145" lon="5.87099">
        <ele>1429</ele>
        <time>2010-07-04T08:43:03Z</time>
      </trkpt>
      <trkpt lat="45.02145" lon="5.87101">
        <ele>1429</ele>
        <time>2010-07-04T08:43:04Z</time>
      </trkpt>
      <trkpt lat="45.02144" lon="5.87106">
        <ele>1430</ele>
        <time>2010-07-04T08:43:08Z</time>
      </trkpt>
      <trkpt lat="45.02144" lon="5.87109">
        <ele>1432</ele>
        <time>2010-07-04T08:43:10Z</time>
      </trkpt>
      <trkpt lat="45.02145" lon="5.87112">
        <ele>1432</ele>
        <time>2010-07-04T08:43:12Z</time>
      </trkpt>
      <trkpt lat="45.02145" lon="5.87113">
        <ele>1432</ele>
        <time>2010-07-04T08:43:13Z</time>
      </trkpt>
      <trkpt lat="45.02145" lon="5.87116">
        <ele>1433</ele>
        <time>2010-07-04T08:43:15Z</time>
      </trkpt>
      <trkpt lat="45.02143" lon="5.87117">
        <ele>1435</ele>
        <time>2010-07-04T08:43:17Z</time>
      </trkpt>
      <trkpt lat="45.02143" lon="5.87119">
        <ele>1436</ele>
        <time>2010-07-04T08:43:18Z</time>
      </trkpt>
      <trkpt lat="45.02144" lon="5.8712">
        <ele>1437</ele>
        <time>2010-07-04T08:43:19Z</time>
      </trkpt>
      <trkpt lat="45.02145" lon="5.87122">
        <ele>1438</ele>
        <time>2010-07-04T08:43:20Z</time>
      </trkpt>
      <trkpt lat="45.02146" lon="5.87125">
        <ele>1439</ele>
        <time>2010-07-04T08:43:21Z</time>
      </trkpt>
      <trkpt lat="45.02146" lon="5.87127">
        <ele>1440</ele>
        <time>2010-07-04T08:43:22Z</time>
      </trkpt>
      <trkpt lat="45.02147" lon="5.87129">
        <ele>1441</ele>
        <time>2010-07-04T08:43:23Z</time>
      </trkpt>
      <trkpt lat="45.02147" lon="5.87131">
        <ele>1441</ele>
        <time>2010-07-04T08:43:24Z</time>
      </trkpt>
      <trkpt lat="45.02147" lon="5.87133">
        <ele>1441</ele>
        <time>2010-07-04T08:43:26Z</time>
      </trkpt>
      <trkpt lat="45.02148" lon="5.87135">
        <ele>1441</ele>
        <time>2010-07-04T08:43:27Z</time>
      </trkpt>
      <trkpt lat="45.02148" lon="5.87137">
        <ele>1441</ele>
        <time>2010-07-04T08:43:28Z</time>
      </trkpt>
      <trkpt lat="45.02147" lon="5.87138">
        <ele>1442</ele>
        <time>2010-07-04T08:43:29Z</time>
      </trkpt>
      <trkpt lat="45.02147" lon="5.8714">
        <ele>1442</ele>
        <time>2010-07-04T08:43:31Z</time>
      </trkpt>
      <trkpt lat="45.02147" lon="5.87143">
        <ele>1442</ele>
        <time>2010-07-04T08:43:33Z</time>
      </trkpt>
      <trkpt lat="45.02148" lon="5.87144">
        <ele>1442</ele>
        <time>2010-07-04T08:43:34Z</time>
      </trkpt>
      <trkpt lat="45.02148" lon="5.87146">
        <ele>1442</ele>
        <time>2010-07-04T08:43:35Z</time>
      </trkpt>
      <trkpt lat="45.02148" lon="5.87149">
        <ele>1442</ele>
        <time>2010-07-04T08:43:36Z</time>
      </trkpt>
      <trkpt lat="45.02148" lon="5.87151">
        <ele>1443</ele>
        <time>2010-07-04T08:43:37Z</time>
      </trkpt>
      <trkpt lat="45.02149" lon="5.87153">
        <ele>1443</ele>
        <time>2010-07-04T08:43:39Z</time>
      </trkpt>
      <trkpt lat="45.02149" lon="5.87154">
        <ele>1443</ele>
        <time>2010-07-04T08:43:40Z</time>
      </trkpt>
      <trkpt lat="45.0215" lon="5.87157">
        <ele>1443</ele>
        <time>2010-07-04T08:43:42Z</time>
      </trkpt>
      <trkpt lat="45.0215" lon="5.87158">
        <ele>1443</ele>
        <time>2010-07-04T08:43:43Z</time>
      </trkpt>
      <trkpt lat="45.02149" lon="5.8716">
        <ele>1443</ele>
        <time>2010-07-04T08:43:44Z</time>
      </trkpt>
      <trkpt lat="45.02148" lon="5.87163">
        <ele>1443</ele>
        <time>2010-07-04T08:43:46Z</time>
      </trkpt>
      <trkpt lat="45.02148" lon="5.87165">
        <ele>1443</ele>
        <time>2010-07-04T08:43:48Z</time>
      </trkpt>
      <trkpt lat="45.02147" lon="5.87167">
        <ele>1443</ele>
        <time>2010-07-04T08:43:50Z</time>
      </trkpt>
      <trkpt lat="45.02147" lon="5.87169">
        <ele>1444</ele>
        <time>2010-07-04T08:43:51Z</time>
      </trkpt>
      <trkpt lat="45.02147" lon="5.8717">
        <ele>1445</ele>
        <time>2010-07-04T08:43:52Z</time>
      </trkpt>
      <trkpt lat="45.02146" lon="5.87173">
        <ele>1447</ele>
        <time>2010-07-04T08:43:54Z</time>
      </trkpt>
      <trkpt lat="45.02146" lon="5.87176">
        <ele>1447</ele>
        <time>2010-07-04T08:43:56Z</time>
      </trkpt>
      <trkpt lat="45.02147" lon="5.87178">
        <ele>1448</ele>
        <time>2010-07-04T08:43:57Z</time>
      </trkpt>
      <trkpt lat="45.02148" lon="5.8718">
        <ele>1448</ele>
        <time>2010-07-04T08:43:59Z</time>
      </trkpt>
      <trkpt lat="45.02148" lon="5.87183">
        <ele>1449</ele>
        <time>2010-07-04T08:44:01Z</time>
      </trkpt>
      <trkpt lat="45.02148" lon="5.87184">
        <ele>1449</ele>
        <time>2010-07-04T08:44:02Z</time>
      </trkpt>
      <trkpt lat="45.02148" lon="5.87187">
        <ele>1449</ele>
        <time>2010-07-04T08:44:04Z</time>
      </trkpt>
      <trkpt lat="45.02148" lon="5.87189">
        <ele>1449</ele>
        <time>2010-07-04T08:44:05Z</time>
      </trkpt>
      <trkpt lat="45.02148" lon="5.8719">
        <ele>1449</ele>
        <time>2010-07-04T08:44:06Z</time>
      </trkpt>
      <trkpt lat="45.02149" lon="5.87193">
        <ele>1449</ele>
        <time>2010-07-04T08:44:08Z</time>
      </trkpt>
      <trkpt lat="45.0215" lon="5.87195">
        <ele>1449</ele>
        <time>2010-07-04T08:44:10Z</time>
      </trkpt>
      <trkpt lat="45.0215" lon="5.87198">
        <ele>1449</ele>
        <time>2010-07-04T08:44:12Z</time>
      </trkpt>
      <trkpt lat="45.02151" lon="5.872">
        <ele>1449</ele>
        <time>2010-07-04T08:44:13Z</time>
      </trkpt>
      <trkpt lat="45.02151" lon="5.87202">
        <ele>1450</ele>
        <time>2010-07-04T08:44:14Z</time>
      </trkpt>
      <trkpt lat="45.0215" lon="5.87204">
        <ele>1451</ele>
        <time>2010-07-04T08:44:16Z</time>
      </trkpt>
      <trkpt lat="45.02151" lon="5.87206">
        <ele>1452</ele>
        <time>2010-07-04T08:44:18Z</time>
      </trkpt>
      <trkpt lat="45.02151" lon="5.87209">
        <ele>1452</ele>
        <time>2010-07-04T08:44:20Z</time>
      </trkpt>
      <trkpt lat="45.0215" lon="5.87211">
        <ele>1452</ele>
        <time>2010-07-04T08:44:21Z</time>
      </trkpt>
      <trkpt lat="45.02149" lon="5.87212">
        <ele>1453</ele>
        <time>2010-07-04T08:44:22Z</time>
      </trkpt>
      <trkpt lat="45.02149" lon="5.87215">
        <ele>1454</ele>
        <time>2010-07-04T08:44:23Z</time>
      </trkpt>
      <trkpt lat="45.02149" lon="5.87216">
        <ele>1456</ele>
        <time>2010-07-04T08:44:25Z</time>
      </trkpt>
      <trkpt lat="45.0215" lon="5.87219">
        <ele>1457</ele>
        <time>2010-07-04T08:44:26Z</time>
      </trkpt>
      <trkpt lat="45.0215" lon="5.8722">
        <ele>1458</ele>
        <time>2010-07-04T08:44:27Z</time>
      </trkpt>
      <trkpt lat="45.02151" lon="5.87222">
        <ele>1458</ele>
        <time>2010-07-04T08:44:28Z</time>
      </trkpt>
      <trkpt lat="45.02151" lon="5.87224">
        <ele>1459</ele>
        <time>2010-07-04T08:44:29Z</time>
      </trkpt>
      <trkpt lat="45.02152" lon="5.87227">
        <ele>1460</ele>
        <time>2010-07-04T08:44:31Z</time>
      </trkpt>
      <trkpt lat="45.02152" lon="5.87228">
        <ele>1460</ele>
        <time>2010-07-04T08:44:32Z</time>
      </trkpt>
      <trkpt lat="45.02153" lon="5.87231">
        <ele>1460</ele>
        <time>2010-07-04T08:44:33Z</time>
      </trkpt>
      <trkpt lat="45.02154" lon="5.87233">
        <ele>1460</ele>
        <time>2010-07-04T08:44:34Z</time>
      </trkpt>
      <trkpt lat="45.02154" lon="5.87235">
        <ele>1460</ele>
        <time>2010-07-04T08:44:35Z</time>
      </trkpt>
      <trkpt lat="45.02155" lon="5.87237">
        <ele>1460</ele>
        <time>2010-07-04T08:44:37Z</time>
      </trkpt>
      <trkpt lat="45.02155" lon="5.87239">
        <ele>1460</ele>
        <time>2010-07-04T08:44:39Z</time>
      </trkpt>
      <trkpt lat="45.02155" lon="5.87241">
        <ele>1460</ele>
        <time>2010-07-04T08:44:41Z</time>
      </trkpt>
      <trkpt lat="45.02155" lon="5.87244">
        <ele>1460</ele>
        <time>2010-07-04T08:44:43Z</time>
      </trkpt>
      <trkpt lat="45.02156" lon="5.87246">
        <ele>1460</ele>
        <time>2010-07-04T08:44:45Z</time>
      </trkpt>
      <trkpt lat="45.02156" lon="5.87247">
        <ele>1460</ele>
        <time>2010-07-04T08:44:46Z</time>
      </trkpt>
      <trkpt lat="45.02156" lon="5.87249">
        <ele>1460</ele>
        <time>2010-07-04T08:44:47Z</time>
      </trkpt>
      <trkpt lat="45.02157" lon="5.87251">
        <ele>1460</ele>
        <time>2010-07-04T08:44:48Z</time>
      </trkpt>
      <trkpt lat="45.02158" lon="5.87253">
        <ele>1460</ele>
        <time>2010-07-04T08:44:49Z</time>
      </trkpt>
      <trkpt lat="45.02158" lon="5.87255">
        <ele>1460</ele>
        <time>2010-07-04T08:44:50Z</time>
      </trkpt>
      <trkpt lat="45.02158" lon="5.87258">
        <ele>1460</ele>
        <time>2010-07-04T08:44:51Z</time>
      </trkpt>
      <trkpt lat="45.02159" lon="5.8726">
        <ele>1460</ele>
        <time>2010-07-04T08:44:52Z</time>
      </trkpt>
      <trkpt lat="45.0216" lon="5.87264">
        <ele>1460</ele>
        <time>2010-07-04T08:44:53Z</time>
      </trkpt>
      <trkpt lat="45.02161" lon="5.87268">
        <ele>1460</ele>
        <time>2010-07-04T08:44:54Z</time>
      </trkpt>
      <trkpt lat="45.02162" lon="5.87269">
        <ele>1460</ele>
        <time>2010-07-04T08:44:55Z</time>
      </trkpt>
      <trkpt lat="45.02162" lon="5.87271">
        <ele>1460</ele>
        <time>2010-07-04T08:44:56Z</time>
      </trkpt>
      <trkpt lat="45.02163" lon="5.87274">
        <ele>1461</ele>
        <time>2010-07-04T08:44:57Z</time>
      </trkpt>
      <trkpt lat="45.02163" lon="5.87277">
        <ele>1462</ele>
        <time>2010-07-04T08:44:58Z</time>
      </trkpt>
      <trkpt lat="45.02163" lon="5.8728">
        <ele>1462</ele>
        <time>2010-07-04T08:44:59Z</time>
      </trkpt>
      <trkpt lat="45.02164" lon="5.87284">
        <ele>1463</ele>
        <time>2010-07-04T08:45:00Z</time>
      </trkpt>
      <trkpt lat="45.02163" lon="5.87287">
        <ele>1464</ele>
        <time>2010-07-04T08:45:01Z</time>
      </trkpt>
      <trkpt lat="45.02163" lon="5.8729">
        <ele>1465</ele>
        <time>2010-07-04T08:45:02Z</time>
      </trkpt>
      <trkpt lat="45.02163" lon="5.87292">
        <ele>1466</ele>
        <time>2010-07-04T08:45:03Z</time>
      </trkpt>
      <trkpt lat="45.02163" lon="5.87297">
        <ele>1467</ele>
        <time>2010-07-04T08:45:04Z</time>
      </trkpt>
      <trkpt lat="45.02163" lon="5.87299">
        <ele>1468</ele>
        <time>2010-07-04T08:45:05Z</time>
      </trkpt>
      <trkpt lat="45.02162" lon="5.87301">
        <ele>1469</ele>
        <time>2010-07-04T08:45:06Z</time>
      </trkpt>
      <trkpt lat="45.02162" lon="5.87304">
        <ele>1470</ele>
        <time>2010-07-04T08:45:07Z</time>
      </trkpt>
      <trkpt lat="45.02162" lon="5.87306">
        <ele>1471</ele>
        <time>2010-07-04T08:45:08Z</time>
      </trkpt>
      <trkpt lat="45.02163" lon="5.87309">
        <ele>1472</ele>
        <time>2010-07-04T08:45:09Z</time>
      </trkpt>
      <trkpt lat="45.02163" lon="5.87312">
        <ele>1473</ele>
        <time>2010-07-04T08:45:10Z</time>
      </trkpt>
      <trkpt lat="45.02163" lon="5.87314">
        <ele>1474</ele>
        <time>2010-07-04T08:45:11Z</time>
      </trkpt>
      <trkpt lat="45.02163" lon="5.87317">
        <ele>1475</ele>
        <time>2010-07-04T08:45:12Z</time>
      </trkpt>
      <trkpt lat="45.02163" lon="5.87319">
        <ele>1476</ele>
        <time>2010-07-04T08:45:13Z</time>
      </trkpt>
      <trkpt lat="45.02163" lon="5.87321">
        <ele>1476</ele>
        <time>2010-07-04T08:45:14Z</time>
      </trkpt>
      <trkpt lat="45.02163" lon="5.87324">
        <ele>1476</ele>
        <time>2010-07-04T08:45:15Z</time>
      </trkpt>
      <trkpt lat="45.02163" lon="5.87326">
        <ele>1476</ele>
        <time>2010-07-04T08:45:16Z</time>
      </trkpt>
      <trkpt lat="45.02163" lon="5.87329">
        <ele>1476</ele>
        <time>2010-07-04T08:45:17Z</time>
      </trkpt>
      <trkpt lat="45.02164" lon="5.87331">
        <ele>1476</ele>
        <time>2010-07-04T08:45:18Z</time>
      </trkpt>
      <trkpt lat="45.02165" lon="5.87333">
        <ele>1477</ele>
        <time>2010-07-04T08:45:19Z</time>
      </trkpt>
      <trkpt lat="45.02165" lon="5.87335">
        <ele>1477</ele>
        <time>2010-07-04T08:45:20Z</time>
      </trkpt>
      <trkpt lat="45.02166" lon="5.87337">
        <ele>1477</ele>
        <time>2010-07-04T08:45:21Z</time>
      </trkpt>
      <trkpt lat="45.02168" lon="5.87339">
        <ele>1477</ele>
        <time>2010-07-04T08:45:23Z</time>
      </trkpt>
      <trkpt lat="45.02169" lon="5.8734">
        <ele>1477</ele>
        <time>2010-07-04T08:45:24Z</time>
      </trkpt>
      <trkpt lat="45.02171" lon="5.87343">
        <ele>1477</ele>
        <time>2010-07-04T08:45:26Z</time>
      </trkpt>
      <trkpt lat="45.02173" lon="5.87344">
        <ele>1477</ele>
        <time>2010-07-04T08:45:28Z</time>
      </trkpt>
      <trkpt lat="45.02174" lon="5.87347">
        <ele>1477</ele>
        <time>2010-07-04T08:45:30Z</time>
      </trkpt>
      <trkpt lat="45.02174" lon="5.87348">
        <ele>1477</ele>
        <time>2010-07-04T08:45:31Z</time>
      </trkpt>
      <trkpt lat="45.02175" lon="5.8735">
        <ele>1477</ele>
        <time>2010-07-04T08:45:32Z</time>
      </trkpt>
      <trkpt lat="45.02176" lon="5.87352">
        <ele>1477</ele>
        <time>2010-07-04T08:45:33Z</time>
      </trkpt>
      <trkpt lat="45.02178" lon="5.87353">
        <ele>1477</ele>
        <time>2010-07-04T08:45:34Z</time>
      </trkpt>
      <trkpt lat="45.02178" lon="5.87354">
        <ele>1477</ele>
        <time>2010-07-04T08:45:35Z</time>
      </trkpt>
      <trkpt lat="45.0218" lon="5.87356">
        <ele>1477</ele>
        <time>2010-07-04T08:45:37Z</time>
      </trkpt>
      <trkpt lat="45.02182" lon="5.87357">
        <ele>1477</ele>
        <time>2010-07-04T08:45:39Z</time>
      </trkpt>
      <trkpt lat="45.02182" lon="5.8736">
        <ele>1477</ele>
        <time>2010-07-04T08:45:41Z</time>
      </trkpt>
      <trkpt lat="45.02183" lon="5.87362">
        <ele>1477</ele>
        <time>2010-07-04T08:45:42Z</time>
      </trkpt>
      <trkpt lat="45.02184" lon="5.87364">
        <ele>1477</ele>
        <time>2010-07-04T08:45:43Z</time>
      </trkpt>
      <trkpt lat="45.02185" lon="5.87366">
        <ele>1477</ele>
        <time>2010-07-04T08:45:44Z</time>
      </trkpt>
      <trkpt lat="45.02185" lon="5.87369">
        <ele>1476</ele>
        <time>2010-07-04T08:45:45Z</time>
      </trkpt>
      <trkpt lat="45.02186" lon="5.87371">
        <ele>1476</ele>
        <time>2010-07-04T08:45:46Z</time>
      </trkpt>
      <trkpt lat="45.02188" lon="5.87373">
        <ele>1476</ele>
        <time>2010-07-04T08:45:47Z</time>
      </trkpt>
      <trkpt lat="45.02189" lon="5.87375">
        <ele>1476</ele>
        <time>2010-07-04T08:45:48Z</time>
      </trkpt>
      <trkpt lat="45.0219" lon="5.87379">
        <ele>1476</ele>
        <time>2010-07-04T08:45:49Z</time>
      </trkpt>
      <trkpt lat="45.02191" lon="5.87383">
        <ele>1476</ele>
        <time>2010-07-04T08:45:50Z</time>
      </trkpt>
      <trkpt lat="45.02193" lon="5.87386">
        <ele>1476</ele>
        <time>2010-07-04T08:45:51Z</time>
      </trkpt>
      <trkpt lat="45.02194" lon="5.87389">
        <ele>1476</ele>
        <time>2010-07-04T08:45:52Z</time>
      </trkpt>
      <trkpt lat="45.02195" lon="5.87392">
        <ele>1476</ele>
        <time>2010-07-04T08:45:53Z</time>
      </trkpt>
      <trkpt lat="45.02195" lon="5.87396">
        <ele>1476</ele>
        <time>2010-07-04T08:45:54Z</time>
      </trkpt>
      <trkpt lat="45.02195" lon="5.874">
        <ele>1476</ele>
        <time>2010-07-04T08:45:55Z</time>
      </trkpt>
      <trkpt lat="45.02195" lon="5.87404">
        <ele>1475</ele>
        <time>2010-07-04T08:45:56Z</time>
      </trkpt>
      <trkpt lat="45.02195" lon="5.87407">
        <ele>1475</ele>
        <time>2010-07-04T08:45:57Z</time>
      </trkpt>
      <trkpt lat="45.02195" lon="5.8741">
        <ele>1475</ele>
        <time>2010-07-04T08:45:58Z</time>
      </trkpt>
      <trkpt lat="45.02195" lon="5.87414">
        <ele>1475</ele>
        <time>2010-07-04T08:45:59Z</time>
      </trkpt>
      <trkpt lat="45.02194" lon="5.87418">
        <ele>1475</ele>
        <time>2010-07-04T08:46:00Z</time>
      </trkpt>
      <trkpt lat="45.02195" lon="5.87422">
        <ele>1474</ele>
        <time>2010-07-04T08:46:01Z</time>
      </trkpt>
      <trkpt lat="45.02196" lon="5.87426">
        <ele>1474</ele>
        <time>2010-07-04T08:46:02Z</time>
      </trkpt>
      <trkpt lat="45.02196" lon="5.8743">
        <ele>1473</ele>
        <time>2010-07-04T08:46:03Z</time>
      </trkpt>
      <trkpt lat="45.02196" lon="5.87433">
        <ele>1473</ele>
        <time>2010-07-04T08:46:04Z</time>
      </trkpt>
      <trkpt lat="45.02196" lon="5.87436">
        <ele>1473</ele>
        <time>2010-07-04T08:46:05Z</time>
      </trkpt>
      <trkpt lat="45.02196" lon="5.87438">
        <ele>1472</ele>
        <time>2010-07-04T08:46:06Z</time>
      </trkpt>
      <trkpt lat="45.02195" lon="5.87441">
        <ele>1472</ele>
        <time>2010-07-04T08:46:07Z</time>
      </trkpt>
      <trkpt lat="45.02194" lon="5.87445">
        <ele>1471</ele>
        <time>2010-07-04T08:46:08Z</time>
      </trkpt>
      <trkpt lat="45.02192" lon="5.87448">
        <ele>1471</ele>
        <time>2010-07-04T08:46:09Z</time>
      </trkpt>
      <trkpt lat="45.02191" lon="5.87451">
        <ele>1471</ele>
        <time>2010-07-04T08:46:10Z</time>
      </trkpt>
      <trkpt lat="45.02189" lon="5.87454">
        <ele>1471</ele>
        <time>2010-07-04T08:46:11Z</time>
      </trkpt>
      <trkpt lat="45.02188" lon="5.87457">
        <ele>1471</ele>
        <time>2010-07-04T08:46:12Z</time>
      </trkpt>
      <trkpt lat="45.02185" lon="5.87461">
        <ele>1471</ele>
        <time>2010-07-04T08:46:13Z</time>
      </trkpt>
      <trkpt lat="45.02183" lon="5.87464">
        <ele>1471</ele>
        <time>2010-07-04T08:46:14Z</time>
      </trkpt>
      <trkpt lat="45.02181" lon="5.87466">
        <ele>1471</ele>
        <time>2010-07-04T08:46:15Z</time>
      </trkpt>
      <trkpt lat="45.0218" lon="5.87468">
        <ele>1471</ele>
        <time>2010-07-04T08:46:16Z</time>
      </trkpt>
      <trkpt lat="45.02178" lon="5.87471">
        <ele>1472</ele>
        <time>2010-07-04T08:46:17Z</time>
      </trkpt>
      <trkpt lat="45.02176" lon="5.87472">
        <ele>1473</ele>
        <time>2010-07-04T08:46:18Z</time>
      </trkpt>
      <trkpt lat="45.02175" lon="5.87474">
        <ele>1474</ele>
        <time>2010-07-04T08:46:19Z</time>
      </trkpt>
      <trkpt lat="45.02173" lon="5.87475">
        <ele>1475</ele>
        <time>2010-07-04T08:46:20Z</time>
      </trkpt>
      <trkpt lat="45.02172" lon="5.87478">
        <ele>1477</ele>
        <time>2010-07-04T08:46:22Z</time>
      </trkpt>
      <trkpt lat="45.02174" lon="5.87479">
        <ele>1479</ele>
        <time>2010-07-04T08:46:24Z</time>
      </trkpt>
      <trkpt lat="45.02176" lon="5.87478">
        <ele>1480</ele>
        <time>2010-07-04T08:46:25Z</time>
      </trkpt>
      <trkpt lat="45.02177" lon="5.87478">
        <ele>1482</ele>
        <time>2010-07-04T08:46:27Z</time>
      </trkpt>
      <trkpt lat="45.02178" lon="5.87477">
        <ele>1484</ele>
        <time>2010-07-04T08:46:29Z</time>
      </trkpt>
      <trkpt lat="45.0218" lon="5.87476">
        <ele>1485</ele>
        <time>2010-07-04T08:46:30Z</time>
      </trkpt>
      <trkpt lat="45.02181" lon="5.87475">
        <ele>1487</ele>
        <time>2010-07-04T08:46:32Z</time>
      </trkpt>
      <trkpt lat="45.02183" lon="5.87474">
        <ele>1489</ele>
        <time>2010-07-04T08:46:34Z</time>
      </trkpt>
      <trkpt lat="45.02185" lon="5.87471">
        <ele>1491</ele>
        <time>2010-07-04T08:46:36Z</time>
      </trkpt>
      <trkpt lat="45.02187" lon="5.87471">
        <ele>1492</ele>
        <time>2010-07-04T08:46:38Z</time>
      </trkpt>
      <trkpt lat="45.02188" lon="5.8747">
        <ele>1493</ele>
        <time>2010-07-04T08:46:39Z</time>
      </trkpt>
      <trkpt lat="45.0219" lon="5.87467">
        <ele>1495</ele>
        <time>2010-07-04T08:46:41Z</time>
      </trkpt>
      <trkpt lat="45.02191" lon="5.87464">
        <ele>1497</ele>
        <time>2010-07-04T08:46:43Z</time>
      </trkpt>
      <trkpt lat="45.02192" lon="5.87462">
        <ele>1498</ele>
        <time>2010-07-04T08:46:44Z</time>
      </trkpt>
      <trkpt lat="45.02193" lon="5.8746">
        <ele>1499</ele>
        <time>2010-07-04T08:46:45Z</time>
      </trkpt>
      <trkpt lat="45.02194" lon="5.87459">
        <ele>1500</ele>
        <time>2010-07-04T08:46:46Z</time>
      </trkpt>
      <trkpt lat="45.02197" lon="5.87458">
        <ele>1502</ele>
        <time>2010-07-04T08:46:48Z</time>
      </trkpt>
      <trkpt lat="45.02199" lon="5.87458">
        <ele>1503</ele>
        <time>2010-07-04T08:46:49Z</time>
      </trkpt>
      <trkpt lat="45.022" lon="5.87458">
        <ele>1504</ele>
        <time>2010-07-04T08:46:50Z</time>
      </trkpt>
      <trkpt lat="45.02203" lon="5.87457">
        <ele>1504</ele>
        <time>2010-07-04T08:46:52Z</time>
      </trkpt>
      <trkpt lat="45.02204" lon="5.87457">
        <ele>1504</ele>
        <time>2010-07-04T08:46:53Z</time>
      </trkpt>
      <trkpt lat="45.02206" lon="5.87457">
        <ele>1504</ele>
        <time>2010-07-04T08:46:54Z</time>
      </trkpt>
      <trkpt lat="45.02208" lon="5.87457">
        <ele>1504</ele>
        <time>2010-07-04T08:46:55Z</time>
      </trkpt>
      <trkpt lat="45.02209" lon="5.87457">
        <ele>1504</ele>
        <time>2010-07-04T08:46:56Z</time>
      </trkpt>
      <trkpt lat="45.02211" lon="5.87457">
        <ele>1504</ele>
        <time>2010-07-04T08:46:57Z</time>
      </trkpt>
      <trkpt lat="45.02213" lon="5.87456">
        <ele>1503</ele>
        <time>2010-07-04T08:46:59Z</time>
      </trkpt>
      <trkpt lat="45.02215" lon="5.87454">
        <ele>1501</ele>
        <time>2010-07-04T08:47:01Z</time>
      </trkpt>
      <trkpt lat="45.02215" lon="5.87452">
        <ele>1501</ele>
        <time>2010-07-04T08:47:02Z</time>
      </trkpt>
      <trkpt lat="45.02215" lon="5.87448">
        <ele>1500</ele>
        <time>2010-07-04T08:47:04Z</time>
      </trkpt>
      <trkpt lat="45.02216" lon="5.87446">
        <ele>1500</ele>
        <time>2010-07-04T08:47:06Z</time>
      </trkpt>
      <trkpt lat="45.02216" lon="5.87444">
        <ele>1500</ele>
        <time>2010-07-04T08:47:07Z</time>
      </trkpt>
      <trkpt lat="45.02215" lon="5.87442">
        <ele>1500</ele>
        <time>2010-07-04T08:47:08Z</time>
      </trkpt>
      <trkpt lat="45.02215" lon="5.87441">
        <ele>1500</ele>
        <time>2010-07-04T08:47:09Z</time>
      </trkpt>
      <trkpt lat="45.02215" lon="5.87439">
        <ele>1500</ele>
        <time>2010-07-04T08:47:10Z</time>
      </trkpt>
      <trkpt lat="45.02215" lon="5.87437">
        <ele>1500</ele>
        <time>2010-07-04T08:47:11Z</time>
      </trkpt>
      <trkpt lat="45.02215" lon="5.87436">
        <ele>1500</ele>
        <time>2010-07-04T08:47:12Z</time>
      </trkpt>
      <trkpt lat="45.02215" lon="5.87434">
        <ele>1500</ele>
        <time>2010-07-04T08:47:13Z</time>
      </trkpt>
      <trkpt lat="45.02215" lon="5.87432">
        <ele>1500</ele>
        <time>2010-07-04T08:47:14Z</time>
      </trkpt>
      <trkpt lat="45.02215" lon="5.87431">
        <ele>1500</ele>
        <time>2010-07-04T08:47:15Z</time>
      </trkpt>
      <trkpt lat="45.02215" lon="5.87429">
        <ele>1500</ele>
        <time>2010-07-04T08:47:16Z</time>
      </trkpt>
      <trkpt lat="45.02215" lon="5.87427">
        <ele>1500</ele>
        <time>2010-07-04T08:47:17Z</time>
      </trkpt>
      <trkpt lat="45.02215" lon="5.87425">
        <ele>1500</ele>
        <time>2010-07-04T08:47:18Z</time>
      </trkpt>
      <trkpt lat="45.02215" lon="5.87424">
        <ele>1500</ele>
        <time>2010-07-04T08:47:19Z</time>
      </trkpt>
      <trkpt lat="45.02215" lon="5.87422">
        <ele>1500</ele>
        <time>2010-07-04T08:47:20Z</time>
      </trkpt>
      <trkpt lat="45.02215" lon="5.8742">
        <ele>1500</ele>
        <time>2010-07-04T08:47:21Z</time>
      </trkpt>
      <trkpt lat="45.02216" lon="5.87419">
        <ele>1500</ele>
        <time>2010-07-04T08:47:22Z</time>
      </trkpt>
      <trkpt lat="45.02215" lon="5.87417">
        <ele>1500</ele>
        <time>2010-07-04T08:47:23Z</time>
      </trkpt>
      <trkpt lat="45.02215" lon="5.87415">
        <ele>1500</ele>
        <time>2010-07-04T08:47:24Z</time>
      </trkpt>
      <trkpt lat="45.02215" lon="5.87413">
        <ele>1500</ele>
        <time>2010-07-04T08:47:25Z</time>
      </trkpt>
      <trkpt lat="45.02215" lon="5.87411">
        <ele>1500</ele>
        <time>2010-07-04T08:47:26Z</time>
      </trkpt>
      <trkpt lat="45.02215" lon="5.87409">
        <ele>1500</ele>
        <time>2010-07-04T08:47:27Z</time>
      </trkpt>
      <trkpt lat="45.02215" lon="5.87406">
        <ele>1500</ele>
        <time>2010-07-04T08:47:28Z</time>
      </trkpt>
      <trkpt lat="45.02215" lon="5.87404">
        <ele>1500</ele>
        <time>2010-07-04T08:47:29Z</time>
      </trkpt>
      <trkpt lat="45.02215" lon="5.874">
        <ele>1500</ele>
        <time>2010-07-04T08:47:30Z</time>
      </trkpt>
      <trkpt lat="45.02214" lon="5.87397">
        <ele>1500</ele>
        <time>2010-07-04T08:47:31Z</time>
      </trkpt>
      <trkpt lat="45.02214" lon="5.87394">
        <ele>1501</ele>
        <time>2010-07-04T08:47:32Z</time>
      </trkpt>
      <trkpt lat="45.02213" lon="5.87391">
        <ele>1501</ele>
        <time>2010-07-04T08:47:33Z</time>
      </trkpt>
      <trkpt lat="45.02213" lon="5.87387">
        <ele>1502</ele>
        <time>2010-07-04T08:47:34Z</time>
      </trkpt>
      <trkpt lat="45.02213" lon="5.87385">
        <ele>1503</ele>
        <time>2010-07-04T08:47:35Z</time>
      </trkpt>
      <trkpt lat="45.02213" lon="5.87383">
        <ele>1503</ele>
        <time>2010-07-04T08:47:36Z</time>
      </trkpt>
      <trkpt lat="45.02213" lon="5.8738">
        <ele>1504</ele>
        <time>2010-07-04T08:47:37Z</time>
      </trkpt>
      <trkpt lat="45.02211" lon="5.87377">
        <ele>1504</ele>
        <time>2010-07-04T08:47:38Z</time>
      </trkpt>
      <trkpt lat="45.02212" lon="5.87375">
        <ele>1505</ele>
        <time>2010-07-04T08:47:39Z</time>
      </trkpt>
      <trkpt lat="45.02212" lon="5.87372">
        <ele>1505</ele>
        <time>2010-07-04T08:47:40Z</time>
      </trkpt>
      <trkpt lat="45.02212" lon="5.87369">
        <ele>1506</ele>
        <time>2010-07-04T08:47:41Z</time>
      </trkpt>
      <trkpt lat="45.02212" lon="5.87366">
        <ele>1506</ele>
        <time>2010-07-04T08:47:42Z</time>
      </trkpt>
      <trkpt lat="45.02212" lon="5.87362">
        <ele>1506</ele>
        <time>2010-07-04T08:47:43Z</time>
      </trkpt>
      <trkpt lat="45.02212" lon="5.87358">
        <ele>1507</ele>
        <time>2010-07-04T08:47:44Z</time>
      </trkpt>
      <trkpt lat="45.02212" lon="5.87355">
        <ele>1507</ele>
        <time>2010-07-04T08:47:45Z</time>
      </trkpt>
      <trkpt lat="45.02212" lon="5.87352">
        <ele>1507</ele>
        <time>2010-07-04T08:47:46Z</time>
      </trkpt>
      <trkpt lat="45.02212" lon="5.87348">
        <ele>1507</ele>
        <time>2010-07-04T08:47:47Z</time>
      </trkpt>
      <trkpt lat="45.02212" lon="5.87345">
        <ele>1507</ele>
        <time>2010-07-04T08:47:48Z</time>
      </trkpt>
      <trkpt lat="45.02212" lon="5.87342">
        <ele>1507</ele>
        <time>2010-07-04T08:47:49Z</time>
      </trkpt>
      <trkpt lat="45.02212" lon="5.8734">
        <ele>1508</ele>
        <time>2010-07-04T08:47:50Z</time>
      </trkpt>
      <trkpt lat="45.02211" lon="5.87337">
        <ele>1508</ele>
        <time>2010-07-04T08:47:51Z</time>
      </trkpt>
      <trkpt lat="45.02211" lon="5.87334">
        <ele>1508</ele>
        <time>2010-07-04T08:47:52Z</time>
      </trkpt>
      <trkpt lat="45.02211" lon="5.87331">
        <ele>1508</ele>
        <time>2010-07-04T08:47:53Z</time>
      </trkpt>
      <trkpt lat="45.02212" lon="5.87328">
        <ele>1508</ele>
        <time>2010-07-04T08:47:54Z</time>
      </trkpt>
      <trkpt lat="45.02212" lon="5.87325">
        <ele>1508</ele>
        <time>2010-07-04T08:47:55Z</time>
      </trkpt>
      <trkpt lat="45.02214" lon="5.87322">
        <ele>1508</ele>
        <time>2010-07-04T08:47:56Z</time>
      </trkpt>
      <trkpt lat="45.02215" lon="5.87319">
        <ele>1508</ele>
        <time>2010-07-04T08:47:57Z</time>
      </trkpt>
      <trkpt lat="45.02215" lon="5.87314">
        <ele>1509</ele>
        <time>2010-07-04T08:47:58Z</time>
      </trkpt>
      <trkpt lat="45.02216" lon="5.87311">
        <ele>1509</ele>
        <time>2010-07-04T08:47:59Z</time>
      </trkpt>
      <trkpt lat="45.02215" lon="5.87308">
        <ele>1510</ele>
        <time>2010-07-04T08:48:00Z</time>
      </trkpt>
      <trkpt lat="45.02215" lon="5.87306">
        <ele>1511</ele>
        <time>2010-07-04T08:48:01Z</time>
      </trkpt>
      <trkpt lat="45.02215" lon="5.87303">
        <ele>1512</ele>
        <time>2010-07-04T08:48:02Z</time>
      </trkpt>
      <trkpt lat="45.02216" lon="5.87302">
        <ele>1512</ele>
        <time>2010-07-04T08:48:03Z</time>
      </trkpt>
      <trkpt lat="45.02217" lon="5.873">
        <ele>1513</ele>
        <time>2010-07-04T08:48:04Z</time>
      </trkpt>
      <trkpt lat="45.02217" lon="5.87298">
        <ele>1513</ele>
        <time>2010-07-04T08:48:05Z</time>
      </trkpt>
      <trkpt lat="45.02218" lon="5.87296">
        <ele>1513</ele>
        <time>2010-07-04T08:48:06Z</time>
      </trkpt>
      <trkpt lat="45.02219" lon="5.87294">
        <ele>1513</ele>
        <time>2010-07-04T08:48:07Z</time>
      </trkpt>
      <trkpt lat="45.0222" lon="5.87293">
        <ele>1513</ele>
        <time>2010-07-04T08:48:08Z</time>
      </trkpt>
      <trkpt lat="45.0222" lon="5.87291">
        <ele>1513</ele>
        <time>2010-07-04T08:48:09Z</time>
      </trkpt>
      <trkpt lat="45.02221" lon="5.87289">
        <ele>1513</ele>
        <time>2010-07-04T08:48:10Z</time>
      </trkpt>
      <trkpt lat="45.02222" lon="5.87288">
        <ele>1513</ele>
        <time>2010-07-04T08:48:11Z</time>
      </trkpt>
      <trkpt lat="45.02223" lon="5.87285">
        <ele>1513</ele>
        <time>2010-07-04T08:48:13Z</time>
      </trkpt>
      <trkpt lat="45.02224" lon="5.87283">
        <ele>1513</ele>
        <time>2010-07-04T08:48:14Z</time>
      </trkpt>
      <trkpt lat="45.02224" lon="5.87281">
        <ele>1513</ele>
        <time>2010-07-04T08:48:15Z</time>
      </trkpt>
      <trkpt lat="45.02225" lon="5.8728">
        <ele>1513</ele>
        <time>2010-07-04T08:48:16Z</time>
      </trkpt>
      <trkpt lat="45.02226" lon="5.87278">
        <ele>1513</ele>
        <time>2010-07-04T08:48:17Z</time>
      </trkpt>
      <trkpt lat="45.02227" lon="5.87277">
        <ele>1513</ele>
        <time>2010-07-04T08:48:18Z</time>
      </trkpt>
      <trkpt lat="45.02228" lon="5.87275">
        <ele>1513</ele>
        <time>2010-07-04T08:48:19Z</time>
      </trkpt>
      <trkpt lat="45.02229" lon="5.87273">
        <ele>1513</ele>
        <time>2010-07-04T08:48:20Z</time>
      </trkpt>
      <trkpt lat="45.02231" lon="5.87272">
        <ele>1513</ele>
        <time>2010-07-04T08:48:21Z</time>
      </trkpt>
      <trkpt lat="45.02232" lon="5.8727">
        <ele>1513</ele>
        <time>2010-07-04T08:48:22Z</time>
      </trkpt>
      <trkpt lat="45.02234" lon="5.87268">
        <ele>1513</ele>
        <time>2010-07-04T08:48:23Z</time>
      </trkpt>
      <trkpt lat="45.02236" lon="5.87266">
        <ele>1513</ele>
        <time>2010-07-04T08:48:24Z</time>
      </trkpt>
      <trkpt lat="45.02237" lon="5.87264">
        <ele>1513</ele>
        <time>2010-07-04T08:48:25Z</time>
      </trkpt>
      <trkpt lat="45.02239" lon="5.87263">
        <ele>1513</ele>
        <time>2010-07-04T08:48:26Z</time>
      </trkpt>
      <trkpt lat="45.02241" lon="5.87262">
        <ele>1513</ele>
        <time>2010-07-04T08:48:27Z</time>
      </trkpt>
      <trkpt lat="45.02242" lon="5.8726">
        <ele>1513</ele>
        <time>2010-07-04T08:48:28Z</time>
      </trkpt>
      <trkpt lat="45.02243" lon="5.87258">
        <ele>1513</ele>
        <time>2010-07-04T08:48:29Z</time>
      </trkpt>
      <trkpt lat="45.02244" lon="5.87257">
        <ele>1513</ele>
        <time>2010-07-04T08:48:30Z</time>
      </trkpt>
      <trkpt lat="45.02246" lon="5.87255">
        <ele>1513</ele>
        <time>2010-07-04T08:48:31Z</time>
      </trkpt>
      <trkpt lat="45.02247" lon="5.87253">
        <ele>1514</ele>
        <time>2010-07-04T08:48:32Z</time>
      </trkpt>
      <trkpt lat="45.02249" lon="5.87251">
        <ele>1514</ele>
        <time>2010-07-04T08:48:33Z</time>
      </trkpt>
      <trkpt lat="45.0225" lon="5.8725">
        <ele>1515</ele>
        <time>2010-07-04T08:48:34Z</time>
      </trkpt>
      <trkpt lat="45.02252" lon="5.87248">
        <ele>1516</ele>
        <time>2010-07-04T08:48:35Z</time>
      </trkpt>
      <trkpt lat="45.02253" lon="5.87246">
        <ele>1516</ele>
        <time>2010-07-04T08:48:36Z</time>
      </trkpt>
      <trkpt lat="45.02255" lon="5.87244">
        <ele>1516</ele>
        <time>2010-07-04T08:48:37Z</time>
      </trkpt>
      <trkpt lat="45.02257" lon="5.87243">
        <ele>1517</ele>
        <time>2010-07-04T08:48:38Z</time>
      </trkpt>
      <trkpt lat="45.02259" lon="5.8724">
        <ele>1517</ele>
        <time>2010-07-04T08:48:39Z</time>
      </trkpt>
      <trkpt lat="45.02261" lon="5.87239">
        <ele>1517</ele>
        <time>2010-07-04T08:48:40Z</time>
      </trkpt>
      <trkpt lat="45.02262" lon="5.87237">
        <ele>1517</ele>
        <time>2010-07-04T08:48:41Z</time>
      </trkpt>
      <trkpt lat="45.02264" lon="5.87235">
        <ele>1518</ele>
        <time>2010-07-04T08:48:43Z</time>
      </trkpt>
      <trkpt lat="45.02266" lon="5.87232">
        <ele>1518</ele>
        <time>2010-07-04T08:48:45Z</time>
      </trkpt>
      <trkpt lat="45.02267" lon="5.87231">
        <ele>1519</ele>
        <time>2010-07-04T08:48:46Z</time>
      </trkpt>
      <trkpt lat="45.02269" lon="5.87228">
        <ele>1519</ele>
        <time>2010-07-04T08:48:48Z</time>
      </trkpt>
      <trkpt lat="45.02272" lon="5.87228">
        <ele>1519</ele>
        <time>2010-07-04T08:48:49Z</time>
      </trkpt>
      <trkpt lat="45.02273" lon="5.87228">
        <ele>1519</ele>
        <time>2010-07-04T08:48:50Z</time>
      </trkpt>
      <trkpt lat="45.02274" lon="5.87227">
        <ele>1519</ele>
        <time>2010-07-04T08:48:51Z</time>
      </trkpt>
      <trkpt lat="45.02276" lon="5.87226">
        <ele>1519</ele>
        <time>2010-07-04T08:48:52Z</time>
      </trkpt>
      <trkpt lat="45.02278" lon="5.87224">
        <ele>1520</ele>
        <time>2010-07-04T08:48:53Z</time>
      </trkpt>
      <trkpt lat="45.02279" lon="5.87223">
        <ele>1520</ele>
        <time>2010-07-04T08:48:54Z</time>
      </trkpt>
      <trkpt lat="45.02281" lon="5.87221">
        <ele>1520</ele>
        <time>2010-07-04T08:48:55Z</time>
      </trkpt>
      <trkpt lat="45.02283" lon="5.8722">
        <ele>1520</ele>
        <time>2010-07-04T08:48:56Z</time>
      </trkpt>
      <trkpt lat="45.02285" lon="5.87218">
        <ele>1521</ele>
        <time>2010-07-04T08:48:57Z</time>
      </trkpt>
      <trkpt lat="45.02286" lon="5.87217">
        <ele>1521</ele>
        <time>2010-07-04T08:48:58Z</time>
      </trkpt>
      <trkpt lat="45.02288" lon="5.87217">
        <ele>1521</ele>
        <time>2010-07-04T08:48:59Z</time>
      </trkpt>
      <trkpt lat="45.0229" lon="5.87216">
        <ele>1521</ele>
        <time>2010-07-04T08:49:00Z</time>
      </trkpt>
      <trkpt lat="45.02292" lon="5.87215">
        <ele>1521</ele>
        <time>2010-07-04T08:49:01Z</time>
      </trkpt>
      <trkpt lat="45.02293" lon="5.87214">
        <ele>1522</ele>
        <time>2010-07-04T08:49:02Z</time>
      </trkpt>
      <trkpt lat="45.02295" lon="5.87213">
        <ele>1522</ele>
        <time>2010-07-04T08:49:03Z</time>
      </trkpt>
      <trkpt lat="45.02296" lon="5.87211">
        <ele>1522</ele>
        <time>2010-07-04T08:49:04Z</time>
      </trkpt>
      <trkpt lat="45.02298" lon="5.8721">
        <ele>1522</ele>
        <time>2010-07-04T08:49:05Z</time>
      </trkpt>
      <trkpt lat="45.02299" lon="5.8721">
        <ele>1522</ele>
        <time>2010-07-04T08:49:06Z</time>
      </trkpt>
      <trkpt lat="45.023" lon="5.87208">
        <ele>1522</ele>
        <time>2010-07-04T08:49:07Z</time>
      </trkpt>
      <trkpt lat="45.02302" lon="5.87206">
        <ele>1522</ele>
        <time>2010-07-04T08:49:08Z</time>
      </trkpt>
      <trkpt lat="45.02304" lon="5.87204">
        <ele>1523</ele>
        <time>2010-07-04T08:49:09Z</time>
      </trkpt>
      <trkpt lat="45.02304" lon="5.87202">
        <ele>1524</ele>
        <time>2010-07-04T08:49:10Z</time>
      </trkpt>
      <trkpt lat="45.02305" lon="5.872">
        <ele>1525</ele>
        <time>2010-07-04T08:49:11Z</time>
      </trkpt>
      <trkpt lat="45.02307" lon="5.87198">
        <ele>1526</ele>
        <time>2010-07-04T08:49:12Z</time>
      </trkpt>
      <trkpt lat="45.02309" lon="5.87197">
        <ele>1527</ele>
        <time>2010-07-04T08:49:13Z</time>
      </trkpt>
      <trkpt lat="45.0231" lon="5.87196">
        <ele>1528</ele>
        <time>2010-07-04T08:49:14Z</time>
      </trkpt>
      <trkpt lat="45.02312" lon="5.87195">
        <ele>1528</ele>
        <time>2010-07-04T08:49:15Z</time>
      </trkpt>
      <trkpt lat="45.02313" lon="5.87194">
        <ele>1529</ele>
        <time>2010-07-04T08:49:16Z</time>
      </trkpt>
      <trkpt lat="45.02315" lon="5.87191">
        <ele>1530</ele>
        <time>2010-07-04T08:49:18Z</time>
      </trkpt>
      <trkpt lat="45.02316" lon="5.87189">
        <ele>1531</ele>
        <time>2010-07-04T08:49:20Z</time>
      </trkpt>
      <trkpt lat="45.02317" lon="5.87187">
        <ele>1532</ele>
        <time>2010-07-04T08:49:22Z</time>
      </trkpt>
      <trkpt lat="45.0232" lon="5.87186">
        <ele>1533</ele>
        <time>2010-07-04T08:49:24Z</time>
      </trkpt>
      <trkpt lat="45.02321" lon="5.87186">
        <ele>1533</ele>
        <time>2010-07-04T08:49:25Z</time>
      </trkpt>
      <trkpt lat="45.02323" lon="5.87184">
        <ele>1533</ele>
        <time>2010-07-04T08:49:27Z</time>
      </trkpt>
      <trkpt lat="45.02324" lon="5.87183">
        <ele>1533</ele>
        <time>2010-07-04T08:49:28Z</time>
      </trkpt>
      <trkpt lat="45.02325" lon="5.87181">
        <ele>1533</ele>
        <time>2010-07-04T08:49:29Z</time>
      </trkpt>
      <trkpt lat="45.02327" lon="5.8718">
        <ele>1533</ele>
        <time>2010-07-04T08:49:30Z</time>
      </trkpt>
      <trkpt lat="45.02328" lon="5.87179">
        <ele>1533</ele>
        <time>2010-07-04T08:49:31Z</time>
      </trkpt>
      <trkpt lat="45.0233" lon="5.87177">
        <ele>1533</ele>
        <time>2010-07-04T08:49:33Z</time>
      </trkpt>
      <trkpt lat="45.02332" lon="5.87176">
        <ele>1533</ele>
        <time>2010-07-04T08:49:34Z</time>
      </trkpt>
      <trkpt lat="45.02334" lon="5.87176">
        <ele>1533</ele>
        <time>2010-07-04T08:49:35Z</time>
      </trkpt>
      <trkpt lat="45.02335" lon="5.87175">
        <ele>1533</ele>
        <time>2010-07-04T08:49:36Z</time>
      </trkpt>
      <trkpt lat="45.02336" lon="5.87174">
        <ele>1533</ele>
        <time>2010-07-04T08:49:37Z</time>
      </trkpt>
      <trkpt lat="45.02338" lon="5.87173">
        <ele>1533</ele>
        <time>2010-07-04T08:49:38Z</time>
      </trkpt>
      <trkpt lat="45.02339" lon="5.87172">
        <ele>1533</ele>
        <time>2010-07-04T08:49:39Z</time>
      </trkpt>
      <trkpt lat="45.02341" lon="5.8717">
        <ele>1533</ele>
        <time>2010-07-04T08:49:41Z</time>
      </trkpt>
      <trkpt lat="45.02344" lon="5.87168">
        <ele>1533</ele>
        <time>2010-07-04T08:49:43Z</time>
      </trkpt>
      <trkpt lat="45.02345" lon="5.87166">
        <ele>1533</ele>
        <time>2010-07-04T08:49:44Z</time>
      </trkpt>
      <trkpt lat="45.02346" lon="5.87164">
        <ele>1533</ele>
        <time>2010-07-04T08:49:45Z</time>
      </trkpt>
      <trkpt lat="45.02347" lon="5.87162">
        <ele>1533</ele>
        <time>2010-07-04T08:49:46Z</time>
      </trkpt>
      <trkpt lat="45.02347" lon="5.87159">
        <ele>1533</ele>
        <time>2010-07-04T08:49:47Z</time>
      </trkpt>
      <trkpt lat="45.02348" lon="5.87157">
        <ele>1533</ele>
        <time>2010-07-04T08:49:48Z</time>
      </trkpt>
      <trkpt lat="45.0235" lon="5.87156">
        <ele>1533</ele>
        <time>2010-07-04T08:49:49Z</time>
      </trkpt>
      <trkpt lat="45.02352" lon="5.87154">
        <ele>1534</ele>
        <time>2010-07-04T08:49:50Z</time>
      </trkpt>
      <trkpt lat="45.02354" lon="5.87151">
        <ele>1534</ele>
        <time>2010-07-04T08:49:51Z</time>
      </trkpt>
      <trkpt lat="45.02354" lon="5.87148">
        <ele>1534</ele>
        <time>2010-07-04T08:49:52Z</time>
      </trkpt>
      <trkpt lat="45.02355" lon="5.87146">
        <ele>1534</ele>
        <time>2010-07-04T08:49:53Z</time>
      </trkpt>
      <trkpt lat="45.02356" lon="5.87143">
        <ele>1535</ele>
        <time>2010-07-04T08:49:54Z</time>
      </trkpt>
      <trkpt lat="45.02356" lon="5.8714">
        <ele>1535</ele>
        <time>2010-07-04T08:49:55Z</time>
      </trkpt>
      <trkpt lat="45.02357" lon="5.87137">
        <ele>1535</ele>
        <time>2010-07-04T08:49:56Z</time>
      </trkpt>
      <trkpt lat="45.02357" lon="5.87134">
        <ele>1535</ele>
        <time>2010-07-04T08:49:57Z</time>
      </trkpt>
      <trkpt lat="45.02358" lon="5.87131">
        <ele>1536</ele>
        <time>2010-07-04T08:49:58Z</time>
      </trkpt>
      <trkpt lat="45.02358" lon="5.87128">
        <ele>1536</ele>
        <time>2010-07-04T08:49:59Z</time>
      </trkpt>
      <trkpt lat="45.02357" lon="5.87127">
        <ele>1536</ele>
        <time>2010-07-04T08:50:02Z</time>
      </trkpt>
      <trkpt lat="45.02359" lon="5.87128">
        <ele>1536</ele>
        <time>2010-07-04T08:50:07Z</time>
      </trkpt>
      <trkpt lat="45.0236" lon="5.87128">
        <ele>1536</ele>
        <time>2010-07-04T08:50:10Z</time>
      </trkpt>
      <trkpt lat="45.02362" lon="5.87125">
        <ele>1536</ele>
        <time>2010-07-04T08:50:12Z</time>
      </trkpt>
      <trkpt lat="45.02363" lon="5.87123">
        <ele>1536</ele>
        <time>2010-07-04T08:50:13Z</time>
      </trkpt>
      <trkpt lat="45.02364" lon="5.8712">
        <ele>1536</ele>
        <time>2010-07-04T08:50:14Z</time>
      </trkpt>
      <trkpt lat="45.02365" lon="5.87115">
        <ele>1536</ele>
        <time>2010-07-04T08:50:15Z</time>
      </trkpt>
      <trkpt lat="45.02367" lon="5.87111">
        <ele>1536</ele>
        <time>2010-07-04T08:50:16Z</time>
      </trkpt>
      <trkpt lat="45.02368" lon="5.87108">
        <ele>1536</ele>
        <time>2010-07-04T08:50:17Z</time>
      </trkpt>
      <trkpt lat="45.0237" lon="5.87104">
        <ele>1536</ele>
        <time>2010-07-04T08:50:18Z</time>
      </trkpt>
      <trkpt lat="45.02371" lon="5.87099">
        <ele>1536</ele>
        <time>2010-07-04T08:50:19Z</time>
      </trkpt>
      <trkpt lat="45.02371" lon="5.87095">
        <ele>1536</ele>
        <time>2010-07-04T08:50:20Z</time>
      </trkpt>
      <trkpt lat="45.02372" lon="5.8709">
        <ele>1536</ele>
        <time>2010-07-04T08:50:21Z</time>
      </trkpt>
      <trkpt lat="45.02374" lon="5.87086">
        <ele>1536</ele>
        <time>2010-07-04T08:50:22Z</time>
      </trkpt>
      <trkpt lat="45.02375" lon="5.87082">
        <ele>1536</ele>
        <time>2010-07-04T08:50:23Z</time>
      </trkpt>
      <trkpt lat="45.02376" lon="5.87078">
        <ele>1536</ele>
        <time>2010-07-04T08:50:24Z</time>
      </trkpt>
      <trkpt lat="45.02377" lon="5.87073">
        <ele>1536</ele>
        <time>2010-07-04T08:50:25Z</time>
      </trkpt>
      <trkpt lat="45.02377" lon="5.87068">
        <ele>1535</ele>
        <time>2010-07-04T08:50:26Z</time>
      </trkpt>
      <trkpt lat="45.02378" lon="5.87062">
        <ele>1535</ele>
        <time>2010-07-04T08:50:27Z</time>
      </trkpt>
      <trkpt lat="45.02379" lon="5.87057">
        <ele>1535</ele>
        <time>2010-07-04T08:50:28Z</time>
      </trkpt>
      <trkpt lat="45.0238" lon="5.87052">
        <ele>1535</ele>
        <time>2010-07-04T08:50:29Z</time>
      </trkpt>
      <trkpt lat="45.02381" lon="5.87047">
        <ele>1535</ele>
        <time>2010-07-04T08:50:30Z</time>
      </trkpt>
      <trkpt lat="45.02382" lon="5.87042">
        <ele>1535</ele>
        <time>2010-07-04T08:50:31Z</time>
      </trkpt>
      <trkpt lat="45.02383" lon="5.87037">
        <ele>1535</ele>
        <time>2010-07-04T08:50:32Z</time>
      </trkpt>
      <trkpt lat="45.02385" lon="5.87032">
        <ele>1534</ele>
        <time>2010-07-04T08:50:33Z</time>
      </trkpt>
      <trkpt lat="45.02386" lon="5.87027">
        <ele>1534</ele>
        <time>2010-07-04T08:50:34Z</time>
      </trkpt>
      <trkpt lat="45.02388" lon="5.87022">
        <ele>1534</ele>
        <time>2010-07-04T08:50:35Z</time>
      </trkpt>
      <trkpt lat="45.02389" lon="5.87018">
        <ele>1533</ele>
        <time>2010-07-04T08:50:36Z</time>
      </trkpt>
      <trkpt lat="45.02391" lon="5.87014">
        <ele>1533</ele>
        <time>2010-07-04T08:50:37Z</time>
      </trkpt>
      <trkpt lat="45.02392" lon="5.87009">
        <ele>1533</ele>
        <time>2010-07-04T08:50:38Z</time>
      </trkpt>
      <trkpt lat="45.02393" lon="5.87004">
        <ele>1532</ele>
        <time>2010-07-04T08:50:39Z</time>
      </trkpt>
      <trkpt lat="45.02394" lon="5.86999">
        <ele>1532</ele>
        <time>2010-07-04T08:50:40Z</time>
      </trkpt>
      <trkpt lat="45.02396" lon="5.86994">
        <ele>1531</ele>
        <time>2010-07-04T08:50:41Z</time>
      </trkpt>
      <trkpt lat="45.02397" lon="5.86989">
        <ele>1531</ele>
        <time>2010-07-04T08:50:42Z</time>
      </trkpt>
      <trkpt lat="45.02399" lon="5.86984">
        <ele>1530</ele>
        <time>2010-07-04T08:50:43Z</time>
      </trkpt>
      <trkpt lat="45.024" lon="5.8698">
        <ele>1529</ele>
        <time>2010-07-04T08:50:44Z</time>
      </trkpt>
      <trkpt lat="45.02401" lon="5.86975">
        <ele>1529</ele>
        <time>2010-07-04T08:50:45Z</time>
      </trkpt>
      <trkpt lat="45.02403" lon="5.86971">
        <ele>1528</ele>
        <time>2010-07-04T08:50:46Z</time>
      </trkpt>
      <trkpt lat="45.02405" lon="5.86967">
        <ele>1528</ele>
        <time>2010-07-04T08:50:47Z</time>
      </trkpt>
      <trkpt lat="45.02406" lon="5.86963">
        <ele>1527</ele>
        <time>2010-07-04T08:50:48Z</time>
      </trkpt>
      <trkpt lat="45.02408" lon="5.86958">
        <ele>1527</ele>
        <time>2010-07-04T08:50:49Z</time>
      </trkpt>
      <trkpt lat="45.0241" lon="5.86954">
        <ele>1526</ele>
        <time>2010-07-04T08:50:50Z</time>
      </trkpt>
      <trkpt lat="45.02412" lon="5.8695">
        <ele>1526</ele>
        <time>2010-07-04T08:50:51Z</time>
      </trkpt>
      <trkpt lat="45.02415" lon="5.86946">
        <ele>1526</ele>
        <time>2010-07-04T08:50:52Z</time>
      </trkpt>
      <trkpt lat="45.02417" lon="5.86943">
        <ele>1525</ele>
        <time>2010-07-04T08:50:53Z</time>
      </trkpt>
      <trkpt lat="45.0242" lon="5.86941">
        <ele>1525</ele>
        <time>2010-07-04T08:50:54Z</time>
      </trkpt>
      <trkpt lat="45.02423" lon="5.86939">
        <ele>1525</ele>
        <time>2010-07-04T08:50:55Z</time>
      </trkpt>
      <trkpt lat="45.02427" lon="5.86938">
        <ele>1524</ele>
        <time>2010-07-04T08:50:56Z</time>
      </trkpt>
      <trkpt lat="45.02431" lon="5.86938">
        <ele>1524</ele>
        <time>2010-07-04T08:50:57Z</time>
      </trkpt>
      <trkpt lat="45.02435" lon="5.86939">
        <ele>1523</ele>
        <time>2010-07-04T08:50:58Z</time>
      </trkpt>
      <trkpt lat="45.0244" lon="5.8694">
        <ele>1522</ele>
        <time>2010-07-04T08:50:59Z</time>
      </trkpt>
      <trkpt lat="45.02443" lon="5.86941">
        <ele>1521</ele>
        <time>2010-07-04T08:51:00Z</time>
      </trkpt>
      <trkpt lat="45.02447" lon="5.86942">
        <ele>1520</ele>
        <time>2010-07-04T08:51:01Z</time>
      </trkpt>
      <trkpt lat="45.02451" lon="5.86943">
        <ele>1519</ele>
        <time>2010-07-04T08:51:02Z</time>
      </trkpt>
      <trkpt lat="45.02455" lon="5.86943">
        <ele>1518</ele>
        <time>2010-07-04T08:51:03Z</time>
      </trkpt>
      <trkpt lat="45.02459" lon="5.86943">
        <ele>1517</ele>
        <time>2010-07-04T08:51:04Z</time>
      </trkpt>
      <trkpt lat="45.02462" lon="5.86942">
        <ele>1516</ele>
        <time>2010-07-04T08:51:05Z</time>
      </trkpt>
      <trkpt lat="45.02465" lon="5.8694">
        <ele>1515</ele>
        <time>2010-07-04T08:51:06Z</time>
      </trkpt>
      <trkpt lat="45.02467" lon="5.86937">
        <ele>1515</ele>
        <time>2010-07-04T08:51:07Z</time>
      </trkpt>
      <trkpt lat="45.02468" lon="5.86933">
        <ele>1514</ele>
        <time>2010-07-04T08:51:08Z</time>
      </trkpt>
      <trkpt lat="45.02469" lon="5.86928">
        <ele>1513</ele>
        <time>2010-07-04T08:51:09Z</time>
      </trkpt>
      <trkpt lat="45.0247" lon="5.86923">
        <ele>1512</ele>
        <time>2010-07-04T08:51:10Z</time>
      </trkpt>
      <trkpt lat="45.02471" lon="5.86918">
        <ele>1512</ele>
        <time>2010-07-04T08:51:11Z</time>
      </trkpt>
      <trkpt lat="45.0247" lon="5.86913">
        <ele>1511</ele>
        <time>2010-07-04T08:51:12Z</time>
      </trkpt>
      <trkpt lat="45.0247" lon="5.86908">
        <ele>1510</ele>
        <time>2010-07-04T08:51:13Z</time>
      </trkpt>
      <trkpt lat="45.0247" lon="5.86903">
        <ele>1509</ele>
        <time>2010-07-04T08:51:14Z</time>
      </trkpt>
      <trkpt lat="45.02469" lon="5.86898">
        <ele>1509</ele>
        <time>2010-07-04T08:51:15Z</time>
      </trkpt>
      <trkpt lat="45.02469" lon="5.86893">
        <ele>1508</ele>
        <time>2010-07-04T08:51:16Z</time>
      </trkpt>
      <trkpt lat="45.02469" lon="5.86887">
        <ele>1507</ele>
        <time>2010-07-04T08:51:17Z</time>
      </trkpt>
      <trkpt lat="45.02469" lon="5.86882">
        <ele>1507</ele>
        <time>2010-07-04T08:51:18Z</time>
      </trkpt>
      <trkpt lat="45.02469" lon="5.86877">
        <ele>1506</ele>
        <time>2010-07-04T08:51:19Z</time>
      </trkpt>
      <trkpt lat="45.02469" lon="5.86872">
        <ele>1506</ele>
        <time>2010-07-04T08:51:20Z</time>
      </trkpt>
      <trkpt lat="45.02469" lon="5.86867">
        <ele>1505</ele>
        <time>2010-07-04T08:51:21Z</time>
      </trkpt>
      <trkpt lat="45.02469" lon="5.86862">
        <ele>1505</ele>
        <time>2010-07-04T08:51:22Z</time>
      </trkpt>
      <trkpt lat="45.02469" lon="5.86857">
        <ele>1504</ele>
        <time>2010-07-04T08:51:23Z</time>
      </trkpt>
      <trkpt lat="45.0247" lon="5.86853">
        <ele>1504</ele>
        <time>2010-07-04T08:51:24Z</time>
      </trkpt>
      <trkpt lat="45.0247" lon="5.86848">
        <ele>1503</ele>
        <time>2010-07-04T08:51:25Z</time>
      </trkpt>
      <trkpt lat="45.02471" lon="5.86844">
        <ele>1503</ele>
        <time>2010-07-04T08:51:26Z</time>
      </trkpt>
      <trkpt lat="45.02472" lon="5.86838">
        <ele>1502</ele>
        <time>2010-07-04T08:51:27Z</time>
      </trkpt>
      <trkpt lat="45.02472" lon="5.86833">
        <ele>1502</ele>
        <time>2010-07-04T08:51:28Z</time>
      </trkpt>
      <trkpt lat="45.02472" lon="5.86827">
        <ele>1501</ele>
        <time>2010-07-04T08:51:29Z</time>
      </trkpt>
      <trkpt lat="45.02473" lon="5.86822">
        <ele>1501</ele>
        <time>2010-07-04T08:51:30Z</time>
      </trkpt>
      <trkpt lat="45.02474" lon="5.86816">
        <ele>1500</ele>
        <time>2010-07-04T08:51:31Z</time>
      </trkpt>
      <trkpt lat="45.02475" lon="5.86812">
        <ele>1500</ele>
        <time>2010-07-04T08:51:32Z</time>
      </trkpt>
      <trkpt lat="45.02477" lon="5.86807">
        <ele>1500</ele>
        <time>2010-07-04T08:51:33Z</time>
      </trkpt>
      <trkpt lat="45.02478" lon="5.86803">
        <ele>1499</ele>
        <time>2010-07-04T08:51:34Z</time>
      </trkpt>
      <trkpt lat="45.02479" lon="5.86798">
        <ele>1499</ele>
        <time>2010-07-04T08:51:35Z</time>
      </trkpt>
      <trkpt lat="45.0248" lon="5.86794">
        <ele>1498</ele>
        <time>2010-07-04T08:51:36Z</time>
      </trkpt>
      <trkpt lat="45.02482" lon="5.86789">
        <ele>1498</ele>
        <time>2010-07-04T08:51:37Z</time>
      </trkpt>
      <trkpt lat="45.02484" lon="5.86784">
        <ele>1498</ele>
        <time>2010-07-04T08:51:38Z</time>
      </trkpt>
      <trkpt lat="45.02485" lon="5.8678">
        <ele>1497</ele>
        <time>2010-07-04T08:51:39Z</time>
      </trkpt>
      <trkpt lat="45.02487" lon="5.86775">
        <ele>1497</ele>
        <time>2010-07-04T08:51:40Z</time>
      </trkpt>
      <trkpt lat="45.02489" lon="5.8677">
        <ele>1496</ele>
        <time>2010-07-04T08:51:41Z</time>
      </trkpt>
      <trkpt lat="45.02491" lon="5.86765">
        <ele>1496</ele>
        <time>2010-07-04T08:51:42Z</time>
      </trkpt>
      <trkpt lat="45.0249" lon="5.86758">
        <ele>1496</ele>
        <time>2010-07-04T08:51:43Z</time>
      </trkpt>
      <trkpt lat="45.02491" lon="5.86751">
        <ele>1496</ele>
        <time>2010-07-04T08:51:44Z</time>
      </trkpt>
      <trkpt lat="45.02492" lon="5.86746">
        <ele>1496</ele>
        <time>2010-07-04T08:51:45Z</time>
      </trkpt>
      <trkpt lat="45.02495" lon="5.86742">
        <ele>1496</ele>
        <time>2010-07-04T08:51:46Z</time>
      </trkpt>
      <trkpt lat="45.02497" lon="5.86739">
        <ele>1496</ele>
        <time>2010-07-04T08:51:47Z</time>
      </trkpt>
      <trkpt lat="45.025" lon="5.86735">
        <ele>1496</ele>
        <time>2010-07-04T08:51:48Z</time>
      </trkpt>
      <trkpt lat="45.02502" lon="5.8673">
        <ele>1496</ele>
        <time>2010-07-04T08:51:49Z</time>
      </trkpt>
      <trkpt lat="45.02504" lon="5.86726">
        <ele>1496</ele>
        <time>2010-07-04T08:51:50Z</time>
      </trkpt>
      <trkpt lat="45.02507" lon="5.86722">
        <ele>1496</ele>
        <time>2010-07-04T08:51:51Z</time>
      </trkpt>
      <trkpt lat="45.02509" lon="5.86717">
        <ele>1496</ele>
        <time>2010-07-04T08:51:52Z</time>
      </trkpt>
      <trkpt lat="45.02511" lon="5.86713">
        <ele>1496</ele>
        <time>2010-07-04T08:51:53Z</time>
      </trkpt>
      <trkpt lat="45.02513" lon="5.86709">
        <ele>1495</ele>
        <time>2010-07-04T08:51:54Z</time>
      </trkpt>
      <trkpt lat="45.02515" lon="5.86705">
        <ele>1494</ele>
        <time>2010-07-04T08:51:55Z</time>
      </trkpt>
      <trkpt lat="45.02518" lon="5.86701">
        <ele>1494</ele>
        <time>2010-07-04T08:51:56Z</time>
      </trkpt>
      <trkpt lat="45.0252" lon="5.86698">
        <ele>1493</ele>
        <time>2010-07-04T08:51:57Z</time>
      </trkpt>
      <trkpt lat="45.02523" lon="5.86694">
        <ele>1493</ele>
        <time>2010-07-04T08:51:58Z</time>
      </trkpt>
      <trkpt lat="45.02526" lon="5.86691">
        <ele>1492</ele>
        <time>2010-07-04T08:51:59Z</time>
      </trkpt>
      <trkpt lat="45.02529" lon="5.86688">
        <ele>1492</ele>
        <time>2010-07-04T08:52:00Z</time>
      </trkpt>
      <trkpt lat="45.02532" lon="5.86685">
        <ele>1491</ele>
        <time>2010-07-04T08:52:01Z</time>
      </trkpt>
      <trkpt lat="45.02536" lon="5.86682">
        <ele>1490</ele>
        <time>2010-07-04T08:52:02Z</time>
      </trkpt>
      <trkpt lat="45.02538" lon="5.86679">
        <ele>1489</ele>
        <time>2010-07-04T08:52:03Z</time>
      </trkpt>
      <trkpt lat="45.02541" lon="5.86675">
        <ele>1488</ele>
        <time>2010-07-04T08:52:04Z</time>
      </trkpt>
      <trkpt lat="45.02544" lon="5.86671">
        <ele>1487</ele>
        <time>2010-07-04T08:52:05Z</time>
      </trkpt>
      <trkpt lat="45.02546" lon="5.86669">
        <ele>1487</ele>
        <time>2010-07-04T08:52:06Z</time>
      </trkpt>
      <trkpt lat="45.02549" lon="5.86666">
        <ele>1486</ele>
        <time>2010-07-04T08:52:07Z</time>
      </trkpt>
      <trkpt lat="45.02553" lon="5.86663">
        <ele>1486</ele>
        <time>2010-07-04T08:52:08Z</time>
      </trkpt>
      <trkpt lat="45.02555" lon="5.86659">
        <ele>1485</ele>
        <time>2010-07-04T08:52:09Z</time>
      </trkpt>
      <trkpt lat="45.02558" lon="5.86656">
        <ele>1485</ele>
        <time>2010-07-04T08:52:10Z</time>
      </trkpt>
      <trkpt lat="45.02561" lon="5.86653">
        <ele>1484</ele>
        <time>2010-07-04T08:52:11Z</time>
      </trkpt>
      <trkpt lat="45.02563" lon="5.8665">
        <ele>1484</ele>
        <time>2010-07-04T08:52:12Z</time>
      </trkpt>
      <trkpt lat="45.02566" lon="5.86646">
        <ele>1484</ele>
        <time>2010-07-04T08:52:13Z</time>
      </trkpt>
      <trkpt lat="45.02568" lon="5.86643">
        <ele>1483</ele>
        <time>2010-07-04T08:52:14Z</time>
      </trkpt>
      <trkpt lat="45.02571" lon="5.86641">
        <ele>1483</ele>
        <time>2010-07-04T08:52:15Z</time>
      </trkpt>
      <trkpt lat="45.02574" lon="5.86638">
        <ele>1483</ele>
        <time>2010-07-04T08:52:16Z</time>
      </trkpt>
      <trkpt lat="45.02577" lon="5.86636">
        <ele>1483</ele>
        <time>2010-07-04T08:52:17Z</time>
      </trkpt>
      <trkpt lat="45.02581" lon="5.86634">
        <ele>1482</ele>
        <time>2010-07-04T08:52:18Z</time>
      </trkpt>
      <trkpt lat="45.02585" lon="5.86631">
        <ele>1482</ele>
        <time>2010-07-04T08:52:19Z</time>
      </trkpt>
      <trkpt lat="45.02588" lon="5.86629">
        <ele>1481</ele>
        <time>2010-07-04T08:52:20Z</time>
      </trkpt>
      <trkpt lat="45.02592" lon="5.86628">
        <ele>1481</ele>
        <time>2010-07-04T08:52:21Z</time>
      </trkpt>
      <trkpt lat="45.02595" lon="5.86626">
        <ele>1480</ele>
        <time>2010-07-04T08:52:22Z</time>
      </trkpt>
      <trkpt lat="45.02599" lon="5.86625">
        <ele>1480</ele>
        <time>2010-07-04T08:52:23Z</time>
      </trkpt>
      <trkpt lat="45.02603" lon="5.86623">
        <ele>1479</ele>
        <time>2010-07-04T08:52:24Z</time>
      </trkpt>
      <trkpt lat="45.02606" lon="5.8662">
        <ele>1479</ele>
        <time>2010-07-04T08:52:25Z</time>
      </trkpt>
      <trkpt lat="45.0261" lon="5.86617">
        <ele>1478</ele>
        <time>2010-07-04T08:52:26Z</time>
      </trkpt>
      <trkpt lat="45.02613" lon="5.86614">
        <ele>1478</ele>
        <time>2010-07-04T08:52:27Z</time>
      </trkpt>
      <trkpt lat="45.02616" lon="5.86612">
        <ele>1477</ele>
        <time>2010-07-04T08:52:28Z</time>
      </trkpt>
      <trkpt lat="45.02618" lon="5.86609">
        <ele>1476</ele>
        <time>2010-07-04T08:52:29Z</time>
      </trkpt>
      <trkpt lat="45.02621" lon="5.86606">
        <ele>1476</ele>
        <time>2010-07-04T08:52:30Z</time>
      </trkpt>
      <trkpt lat="45.02624" lon="5.86604">
        <ele>1475</ele>
        <time>2010-07-04T08:52:31Z</time>
      </trkpt>
      <trkpt lat="45.02627" lon="5.866">
        <ele>1475</ele>
        <time>2010-07-04T08:52:32Z</time>
      </trkpt>
      <trkpt lat="45.0263" lon="5.86597">
        <ele>1474</ele>
        <time>2010-07-04T08:52:33Z</time>
      </trkpt>
      <trkpt lat="45.02632" lon="5.86594">
        <ele>1474</ele>
        <time>2010-07-04T08:52:34Z</time>
      </trkpt>
      <trkpt lat="45.02635" lon="5.86591">
        <ele>1474</ele>
        <time>2010-07-04T08:52:35Z</time>
      </trkpt>
      <trkpt lat="45.02638" lon="5.86589">
        <ele>1473</ele>
        <time>2010-07-04T08:52:36Z</time>
      </trkpt>
      <trkpt lat="45.02642" lon="5.86586">
        <ele>1473</ele>
        <time>2010-07-04T08:52:37Z</time>
      </trkpt>
      <trkpt lat="45.02645" lon="5.86584">
        <ele>1473</ele>
        <time>2010-07-04T08:52:38Z</time>
      </trkpt>
      <trkpt lat="45.02648" lon="5.86581">
        <ele>1472</ele>
        <time>2010-07-04T08:52:39Z</time>
      </trkpt>
      <trkpt lat="45.02651" lon="5.86578">
        <ele>1471</ele>
        <time>2010-07-04T08:52:40Z</time>
      </trkpt>
      <trkpt lat="45.02654" lon="5.86575">
        <ele>1471</ele>
        <time>2010-07-04T08:52:41Z</time>
      </trkpt>
      <trkpt lat="45.02657" lon="5.86572">
        <ele>1470</ele>
        <time>2010-07-04T08:52:42Z</time>
      </trkpt>
      <trkpt lat="45.02661" lon="5.86568">
        <ele>1470</ele>
        <time>2010-07-04T08:52:43Z</time>
      </trkpt>
      <trkpt lat="45.02664" lon="5.86566">
        <ele>1469</ele>
        <time>2010-07-04T08:52:44Z</time>
      </trkpt>
      <trkpt lat="45.02667" lon="5.86563">
        <ele>1468</ele>
        <time>2010-07-04T08:52:45Z</time>
      </trkpt>
      <trkpt lat="45.0267" lon="5.8656">
        <ele>1468</ele>
        <time>2010-07-04T08:52:46Z</time>
      </trkpt>
      <trkpt lat="45.02673" lon="5.86557">
        <ele>1467</ele>
        <time>2010-07-04T08:52:47Z</time>
      </trkpt>
      <trkpt lat="45.02676" lon="5.86554">
        <ele>1467</ele>
        <time>2010-07-04T08:52:48Z</time>
      </trkpt>
      <trkpt lat="45.02679" lon="5.86553">
        <ele>1467</ele>
        <time>2010-07-04T08:52:49Z</time>
      </trkpt>
      <trkpt lat="45.02682" lon="5.8655">
        <ele>1467</ele>
        <time>2010-07-04T08:52:50Z</time>
      </trkpt>
      <trkpt lat="45.02686" lon="5.86548">
        <ele>1466</ele>
        <time>2010-07-04T08:52:51Z</time>
      </trkpt>
      <trkpt lat="45.02689" lon="5.86545">
        <ele>1466</ele>
        <time>2010-07-04T08:52:52Z</time>
      </trkpt>
      <trkpt lat="45.02692" lon="5.86543">
        <ele>1466</ele>
        <time>2010-07-04T08:52:53Z</time>
      </trkpt>
      <trkpt lat="45.02696" lon="5.86541">
        <ele>1466</ele>
        <time>2010-07-04T08:52:54Z</time>
      </trkpt>
      <trkpt lat="45.02699" lon="5.86539">
        <ele>1465</ele>
        <time>2010-07-04T08:52:55Z</time>
      </trkpt>
      <trkpt lat="45.02702" lon="5.86538">
        <ele>1465</ele>
        <time>2010-07-04T08:52:56Z</time>
      </trkpt>
      <trkpt lat="45.02706" lon="5.86537">
        <ele>1465</ele>
        <time>2010-07-04T08:52:57Z</time>
      </trkpt>
      <trkpt lat="45.02709" lon="5.86537">
        <ele>1465</ele>
        <time>2010-07-04T08:52:58Z</time>
      </trkpt>
      <trkpt lat="45.02712" lon="5.86535">
        <ele>1464</ele>
        <time>2010-07-04T08:52:59Z</time>
      </trkpt>
      <trkpt lat="45.02715" lon="5.86534">
        <ele>1463</ele>
        <time>2010-07-04T08:53:00Z</time>
      </trkpt>
      <trkpt lat="45.02719" lon="5.86532">
        <ele>1463</ele>
        <time>2010-07-04T08:53:01Z</time>
      </trkpt>
      <trkpt lat="45.02722" lon="5.86531">
        <ele>1462</ele>
        <time>2010-07-04T08:53:02Z</time>
      </trkpt>
      <trkpt lat="45.02726" lon="5.8653">
        <ele>1462</ele>
        <time>2010-07-04T08:53:03Z</time>
      </trkpt>
      <trkpt lat="45.0273" lon="5.86529">
        <ele>1461</ele>
        <time>2010-07-04T08:53:04Z</time>
      </trkpt>
      <trkpt lat="45.02733" lon="5.86528">
        <ele>1460</ele>
        <time>2010-07-04T08:53:05Z</time>
      </trkpt>
      <trkpt lat="45.02736" lon="5.86526">
        <ele>1460</ele>
        <time>2010-07-04T08:53:06Z</time>
      </trkpt>
      <trkpt lat="45.0274" lon="5.86525">
        <ele>1459</ele>
        <time>2010-07-04T08:53:07Z</time>
      </trkpt>
      <trkpt lat="45.02744" lon="5.86523">
        <ele>1458</ele>
        <time>2010-07-04T08:53:08Z</time>
      </trkpt>
      <trkpt lat="45.02748" lon="5.86523">
        <ele>1458</ele>
        <time>2010-07-04T08:53:09Z</time>
      </trkpt>
      <trkpt lat="45.02751" lon="5.86522">
        <ele>1457</ele>
        <time>2010-07-04T08:53:10Z</time>
      </trkpt>
      <trkpt lat="45.02755" lon="5.86521">
        <ele>1457</ele>
        <time>2010-07-04T08:53:11Z</time>
      </trkpt>
      <trkpt lat="45.02759" lon="5.86519">
        <ele>1456</ele>
        <time>2010-07-04T08:53:12Z</time>
      </trkpt>
      <trkpt lat="45.02763" lon="5.86517">
        <ele>1456</ele>
        <time>2010-07-04T08:53:13Z</time>
      </trkpt>
      <trkpt lat="45.02766" lon="5.86516">
        <ele>1455</ele>
        <time>2010-07-04T08:53:14Z</time>
      </trkpt>
      <trkpt lat="45.0277" lon="5.86514">
        <ele>1455</ele>
        <time>2010-07-04T08:53:15Z</time>
      </trkpt>
      <trkpt lat="45.02774" lon="5.86512">
        <ele>1455</ele>
        <time>2010-07-04T08:53:16Z</time>
      </trkpt>
      <trkpt lat="45.02777" lon="5.8651">
        <ele>1455</ele>
        <time>2010-07-04T08:53:17Z</time>
      </trkpt>
      <trkpt lat="45.02781" lon="5.86508">
        <ele>1454</ele>
        <time>2010-07-04T08:53:18Z</time>
      </trkpt>
      <trkpt lat="45.02785" lon="5.86506">
        <ele>1454</ele>
        <time>2010-07-04T08:53:19Z</time>
      </trkpt>
      <trkpt lat="45.02789" lon="5.86504">
        <ele>1454</ele>
        <time>2010-07-04T08:53:20Z</time>
      </trkpt>
      <trkpt lat="45.02793" lon="5.86503">
        <ele>1453</ele>
        <time>2010-07-04T08:53:21Z</time>
      </trkpt>
      <trkpt lat="45.02798" lon="5.86501">
        <ele>1453</ele>
        <time>2010-07-04T08:53:22Z</time>
      </trkpt>
      <trkpt lat="45.02802" lon="5.865">
        <ele>1453</ele>
        <time>2010-07-04T08:53:23Z</time>
      </trkpt>
      <trkpt lat="45.02806" lon="5.86499">
        <ele>1452</ele>
        <time>2010-07-04T08:53:24Z</time>
      </trkpt>
      <trkpt lat="45.02809" lon="5.86498">
        <ele>1452</ele>
        <time>2010-07-04T08:53:25Z</time>
      </trkpt>
      <trkpt lat="45.02813" lon="5.86497">
        <ele>1451</ele>
        <time>2010-07-04T08:53:26Z</time>
      </trkpt>
      <trkpt lat="45.02817" lon="5.86496">
        <ele>1451</ele>
        <time>2010-07-04T08:53:27Z</time>
      </trkpt>
      <trkpt lat="45.0282" lon="5.86495">
        <ele>1450</ele>
        <time>2010-07-04T08:53:28Z</time>
      </trkpt>
      <trkpt lat="45.02824" lon="5.86493">
        <ele>1450</ele>
        <time>2010-07-04T08:53:29Z</time>
      </trkpt>
      <trkpt lat="45.02827" lon="5.86492">
        <ele>1449</ele>
        <time>2010-07-04T08:53:30Z</time>
      </trkpt>
      <trkpt lat="45.02831" lon="5.8649">
        <ele>1449</ele>
        <time>2010-07-04T08:53:31Z</time>
      </trkpt>
      <trkpt lat="45.02835" lon="5.86489">
        <ele>1448</ele>
        <time>2010-07-04T08:53:32Z</time>
      </trkpt>
      <trkpt lat="45.02838" lon="5.86488">
        <ele>1447</ele>
        <time>2010-07-04T08:53:33Z</time>
      </trkpt>
      <trkpt lat="45.02839" lon="5.86486">
        <ele>1447</ele>
        <time>2010-07-04T08:53:34Z</time>
      </trkpt>
      <trkpt lat="45.02841" lon="5.86484">
        <ele>1447</ele>
        <time>2010-07-04T08:53:35Z</time>
      </trkpt>
      <trkpt lat="45.02839" lon="5.86483">
        <ele>1446</ele>
        <time>2010-07-04T08:53:37Z</time>
      </trkpt>
      <trkpt lat="45.02838" lon="5.86483">
        <ele>1446</ele>
        <time>2010-07-04T08:53:38Z</time>
      </trkpt>
      <trkpt lat="45.02836" lon="5.86483">
        <ele>1446</ele>
        <time>2010-07-04T08:53:39Z</time>
      </trkpt>
      <trkpt lat="45.02832" lon="5.86484">
        <ele>1446</ele>
        <time>2010-07-04T08:53:40Z</time>
      </trkpt>
      <trkpt lat="45.02828" lon="5.86484">
        <ele>1445</ele>
        <time>2010-07-04T08:53:41Z</time>
      </trkpt>
      <trkpt lat="45.02823" lon="5.86484">
        <ele>1444</ele>
        <time>2010-07-04T08:53:42Z</time>
      </trkpt>
      <trkpt lat="45.0282" lon="5.86483">
        <ele>1443</ele>
        <time>2010-07-04T08:53:43Z</time>
      </trkpt>
      <trkpt lat="45.02816" lon="5.86482">
        <ele>1442</ele>
        <time>2010-07-04T08:53:44Z</time>
      </trkpt>
      <trkpt lat="45.02812" lon="5.86482">
        <ele>1441</ele>
        <time>2010-07-04T08:53:45Z</time>
      </trkpt>
      <trkpt lat="45.02809" lon="5.86482">
        <ele>1440</ele>
        <time>2010-07-04T08:53:46Z</time>
      </trkpt>
      <trkpt lat="45.02805" lon="5.86481">
        <ele>1439</ele>
        <time>2010-07-04T08:53:47Z</time>
      </trkpt>
      <trkpt lat="45.02801" lon="5.8648">
        <ele>1438</ele>
        <time>2010-07-04T08:53:48Z</time>
      </trkpt>
      <trkpt lat="45.02797" lon="5.8648">
        <ele>1437</ele>
        <time>2010-07-04T08:53:49Z</time>
      </trkpt>
      <trkpt lat="45.02793" lon="5.86479">
        <ele>1436</ele>
        <time>2010-07-04T08:53:50Z</time>
      </trkpt>
      <trkpt lat="45.02789" lon="5.86478">
        <ele>1435</ele>
        <time>2010-07-04T08:53:51Z</time>
      </trkpt>
      <trkpt lat="45.02785" lon="5.86476">
        <ele>1434</ele>
        <time>2010-07-04T08:53:52Z</time>
      </trkpt>
      <trkpt lat="45.02781" lon="5.86475">
        <ele>1433</ele>
        <time>2010-07-04T08:53:53Z</time>
      </trkpt>
      <trkpt lat="45.02777" lon="5.86474">
        <ele>1432</ele>
        <time>2010-07-04T08:53:54Z</time>
      </trkpt>
      <trkpt lat="45.02773" lon="5.86473">
        <ele>1431</ele>
        <time>2010-07-04T08:53:55Z</time>
      </trkpt>
      <trkpt lat="45.02769" lon="5.86473">
        <ele>1430</ele>
        <time>2010-07-04T08:53:56Z</time>
      </trkpt>
      <trkpt lat="45.02766" lon="5.86471">
        <ele>1429</ele>
        <time>2010-07-04T08:53:57Z</time>
      </trkpt>
      <trkpt lat="45.02763" lon="5.8647">
        <ele>1429</ele>
        <time>2010-07-04T08:53:59Z</time>
      </trkpt>
      <trkpt lat="45.02759" lon="5.86469">
        <ele>1429</ele>
        <time>2010-07-04T08:53:59Z</time>
      </trkpt>
      <trkpt lat="45.02756" lon="5.86467">
        <ele>1429</ele>
        <time>2010-07-04T08:54:00Z</time>
      </trkpt>
      <trkpt lat="45.02751" lon="5.86466">
        <ele>1429</ele>
        <time>2010-07-04T08:54:01Z</time>
      </trkpt>
      <trkpt lat="45.02747" lon="5.86464">
        <ele>1429</ele>
        <time>2010-07-04T08:54:02Z</time>
      </trkpt>
      <trkpt lat="45.02743" lon="5.86462">
        <ele>1429</ele>
        <time>2010-07-04T08:54:03Z</time>
      </trkpt>
      <trkpt lat="45.02739" lon="5.86461">
        <ele>1429</ele>
        <time>2010-07-04T08:54:04Z</time>
      </trkpt>
      <trkpt lat="45.02735" lon="5.86458">
        <ele>1429</ele>
        <time>2010-07-04T08:54:05Z</time>
      </trkpt>
      <trkpt lat="45.02731" lon="5.86456">
        <ele>1429</ele>
        <time>2010-07-04T08:54:06Z</time>
      </trkpt>
      <trkpt lat="45.02727" lon="5.86454">
        <ele>1429</ele>
        <time>2010-07-04T08:54:07Z</time>
      </trkpt>
      <trkpt lat="45.02724" lon="5.86453">
        <ele>1429</ele>
        <time>2010-07-04T08:54:08Z</time>
      </trkpt>
      <trkpt lat="45.02721" lon="5.86452">
        <ele>1429</ele>
        <time>2010-07-04T08:54:09Z</time>
      </trkpt>
      <trkpt lat="45.02717" lon="5.8645">
        <ele>1429</ele>
        <time>2010-07-04T08:54:10Z</time>
      </trkpt>
      <trkpt lat="45.02714" lon="5.86448">
        <ele>1429</ele>
        <time>2010-07-04T08:54:11Z</time>
      </trkpt>
      <trkpt lat="45.0271" lon="5.86446">
        <ele>1429</ele>
        <time>2010-07-04T08:54:12Z</time>
      </trkpt>
      <trkpt lat="45.02706" lon="5.86445">
        <ele>1429</ele>
        <time>2010-07-04T08:54:13Z</time>
      </trkpt>
      <trkpt lat="45.02703" lon="5.86444">
        <ele>1429</ele>
        <time>2010-07-04T08:54:14Z</time>
      </trkpt>
      <trkpt lat="45.02699" lon="5.86442">
        <ele>1429</ele>
        <time>2010-07-04T08:54:15Z</time>
      </trkpt>
      <trkpt lat="45.02695" lon="5.8644">
        <ele>1429</ele>
        <time>2010-07-04T08:54:16Z</time>
      </trkpt>
      <trkpt lat="45.02691" lon="5.86439">
        <ele>1429</ele>
        <time>2010-07-04T08:54:17Z</time>
      </trkpt>
      <trkpt lat="45.02688" lon="5.86438">
        <ele>1429</ele>
        <time>2010-07-04T08:54:18Z</time>
      </trkpt>
      <trkpt lat="45.02684" lon="5.86438">
        <ele>1429</ele>
        <time>2010-07-04T08:54:19Z</time>
      </trkpt>
      <trkpt lat="45.02681" lon="5.86439">
        <ele>1429</ele>
        <time>2010-07-04T08:54:20Z</time>
      </trkpt>
      <trkpt lat="45.02678" lon="5.8644">
        <ele>1429</ele>
        <time>2010-07-04T08:54:21Z</time>
      </trkpt>
      <trkpt lat="45.02675" lon="5.86441">
        <ele>1429</ele>
        <time>2010-07-04T08:54:22Z</time>
      </trkpt>
      <trkpt lat="45.02672" lon="5.86443">
        <ele>1429</ele>
        <time>2010-07-04T08:54:23Z</time>
      </trkpt>
      <trkpt lat="45.02669" lon="5.86445">
        <ele>1429</ele>
        <time>2010-07-04T08:54:24Z</time>
      </trkpt>
      <trkpt lat="45.02666" lon="5.86446">
        <ele>1429</ele>
        <time>2010-07-04T08:54:25Z</time>
      </trkpt>
      <trkpt lat="45.02663" lon="5.86447">
        <ele>1429</ele>
        <time>2010-07-04T08:54:26Z</time>
      </trkpt>
      <trkpt lat="45.02659" lon="5.86447">
        <ele>1429</ele>
        <time>2010-07-04T08:54:27Z</time>
      </trkpt>
      <trkpt lat="45.02656" lon="5.86447">
        <ele>1428</ele>
        <time>2010-07-04T08:54:28Z</time>
      </trkpt>
      <trkpt lat="45.02654" lon="5.86444">
        <ele>1427</ele>
        <time>2010-07-04T08:54:29Z</time>
      </trkpt>
      <trkpt lat="45.02652" lon="5.86439">
        <ele>1426</ele>
        <time>2010-07-04T08:54:30Z</time>
      </trkpt>
      <trkpt lat="45.02653" lon="5.86433">
        <ele>1425</ele>
        <time>2010-07-04T08:54:31Z</time>
      </trkpt>
      <trkpt lat="45.02653" lon="5.86428">
        <ele>1424</ele>
        <time>2010-07-04T08:54:32Z</time>
      </trkpt>
      <trkpt lat="45.02653" lon="5.86423">
        <ele>1423</ele>
        <time>2010-07-04T08:54:33Z</time>
      </trkpt>
      <trkpt lat="45.02653" lon="5.86419">
        <ele>1422</ele>
        <time>2010-07-04T08:54:34Z</time>
      </trkpt>
      <trkpt lat="45.02653" lon="5.86414">
        <ele>1421</ele>
        <time>2010-07-04T08:54:35Z</time>
      </trkpt>
      <trkpt lat="45.02653" lon="5.86409">
        <ele>1420</ele>
        <time>2010-07-04T08:54:36Z</time>
      </trkpt>
      <trkpt lat="45.02654" lon="5.86404">
        <ele>1419</ele>
        <time>2010-07-04T08:54:37Z</time>
      </trkpt>
      <trkpt lat="45.02654" lon="5.86399">
        <ele>1418</ele>
        <time>2010-07-04T08:54:38Z</time>
      </trkpt>
      <trkpt lat="45.02655" lon="5.86395">
        <ele>1417</ele>
        <time>2010-07-04T08:54:39Z</time>
      </trkpt>
      <trkpt lat="45.02657" lon="5.86391">
        <ele>1416</ele>
        <time>2010-07-04T08:54:40Z</time>
      </trkpt>
      <trkpt lat="45.0266" lon="5.86388">
        <ele>1415</ele>
        <time>2010-07-04T08:54:41Z</time>
      </trkpt>
      <trkpt lat="45.02663" lon="5.86385">
        <ele>1414</ele>
        <time>2010-07-04T08:54:42Z</time>
      </trkpt>
      <trkpt lat="45.02665" lon="5.86382">
        <ele>1413</ele>
        <time>2010-07-04T08:54:43Z</time>
      </trkpt>
      <trkpt lat="45.02668" lon="5.86381">
        <ele>1412</ele>
        <time>2010-07-04T08:54:44Z</time>
      </trkpt>
      <trkpt lat="45.0267" lon="5.8638">
        <ele>1411</ele>
        <time>2010-07-04T08:54:45Z</time>
      </trkpt>
      <trkpt lat="45.02673" lon="5.86379">
        <ele>1411</ele>
        <time>2010-07-04T08:54:46Z</time>
      </trkpt>
      <trkpt lat="45.02676" lon="5.86379">
        <ele>1410</ele>
        <time>2010-07-04T08:54:47Z</time>
      </trkpt>
      <trkpt lat="45.02679" lon="5.86379">
        <ele>1410</ele>
        <time>2010-07-04T08:54:48Z</time>
      </trkpt>
      <trkpt lat="45.02683" lon="5.86379">
        <ele>1409</ele>
        <time>2010-07-04T08:54:49Z</time>
      </trkpt>
      <trkpt lat="45.02688" lon="5.86379">
        <ele>1408</ele>
        <time>2010-07-04T08:54:50Z</time>
      </trkpt>
      <trkpt lat="45.02691" lon="5.86379">
        <ele>1407</ele>
        <time>2010-07-04T08:54:51Z</time>
      </trkpt>
      <trkpt lat="45.02695" lon="5.8638">
        <ele>1406</ele>
        <time>2010-07-04T08:54:52Z</time>
      </trkpt>
      <trkpt lat="45.02699" lon="5.86381">
        <ele>1405</ele>
        <time>2010-07-04T08:54:53Z</time>
      </trkpt>
      <trkpt lat="45.02703" lon="5.86382">
        <ele>1405</ele>
        <time>2010-07-04T08:54:54Z</time>
      </trkpt>
      <trkpt lat="45.02706" lon="5.86382">
        <ele>1404</ele>
        <time>2010-07-04T08:54:55Z</time>
      </trkpt>
      <trkpt lat="45.02709" lon="5.86383">
        <ele>1403</ele>
        <time>2010-07-04T08:54:56Z</time>
      </trkpt>
      <trkpt lat="45.02712" lon="5.86384">
        <ele>1403</ele>
        <time>2010-07-04T08:54:57Z</time>
      </trkpt>
      <trkpt lat="45.02716" lon="5.86385">
        <ele>1402</ele>
        <time>2010-07-04T08:54:58Z</time>
      </trkpt>
      <trkpt lat="45.02719" lon="5.86386">
        <ele>1401</ele>
        <time>2010-07-04T08:54:59Z</time>
      </trkpt>
      <trkpt lat="45.02724" lon="5.86386">
        <ele>1401</ele>
        <time>2010-07-04T08:55:00Z</time>
      </trkpt>
      <trkpt lat="45.02728" lon="5.86386">
        <ele>1400</ele>
        <time>2010-07-04T08:55:01Z</time>
      </trkpt>
      <trkpt lat="45.02732" lon="5.86385">
        <ele>1399</ele>
        <time>2010-07-04T08:55:02Z</time>
      </trkpt>
      <trkpt lat="45.02736" lon="5.86384">
        <ele>1398</ele>
        <time>2010-07-04T08:55:03Z</time>
      </trkpt>
      <trkpt lat="45.02739" lon="5.86382">
        <ele>1398</ele>
        <time>2010-07-04T08:55:04Z</time>
      </trkpt>
      <trkpt lat="45.02742" lon="5.86381">
        <ele>1397</ele>
        <time>2010-07-04T08:55:05Z</time>
      </trkpt>
      <trkpt lat="45.02745" lon="5.8638">
        <ele>1397</ele>
        <time>2010-07-04T08:55:06Z</time>
      </trkpt>
      <trkpt lat="45.02749" lon="5.86378">
        <ele>1396</ele>
        <time>2010-07-04T08:55:07Z</time>
      </trkpt>
      <trkpt lat="45.02752" lon="5.86377">
        <ele>1396</ele>
        <time>2010-07-04T08:55:08Z</time>
      </trkpt>
      <trkpt lat="45.02756" lon="5.86375">
        <ele>1395</ele>
        <time>2010-07-04T08:55:09Z</time>
      </trkpt>
      <trkpt lat="45.02759" lon="5.86373">
        <ele>1395</ele>
        <time>2010-07-04T08:55:10Z</time>
      </trkpt>
      <trkpt lat="45.02762" lon="5.86372">
        <ele>1395</ele>
        <time>2010-07-04T08:55:11Z</time>
      </trkpt>
      <trkpt lat="45.02766" lon="5.8637">
        <ele>1394</ele>
        <time>2010-07-04T08:55:12Z</time>
      </trkpt>
      <trkpt lat="45.02769" lon="5.8637">
        <ele>1394</ele>
        <time>2010-07-04T08:55:13Z</time>
      </trkpt>
      <trkpt lat="45.02773" lon="5.86369">
        <ele>1393</ele>
        <time>2010-07-04T08:55:14Z</time>
      </trkpt>
      <trkpt lat="45.02776" lon="5.86367">
        <ele>1393</ele>
        <time>2010-07-04T08:55:15Z</time>
      </trkpt>
      <trkpt lat="45.02779" lon="5.86365">
        <ele>1392</ele>
        <time>2010-07-04T08:55:16Z</time>
      </trkpt>
      <trkpt lat="45.02783" lon="5.86363">
        <ele>1392</ele>
        <time>2010-07-04T08:55:17Z</time>
      </trkpt>
      <trkpt lat="45.02786" lon="5.86362">
        <ele>1391</ele>
        <time>2010-07-04T08:55:18Z</time>
      </trkpt>
      <trkpt lat="45.02789" lon="5.8636">
        <ele>1391</ele>
        <time>2010-07-04T08:55:19Z</time>
      </trkpt>
      <trkpt lat="45.02793" lon="5.86358">
        <ele>1391</ele>
        <time>2010-07-04T08:55:20Z</time>
      </trkpt>
      <trkpt lat="45.02796" lon="5.86356">
        <ele>1390</ele>
        <time>2010-07-04T08:55:21Z</time>
      </trkpt>
      <trkpt lat="45.02799" lon="5.86353">
        <ele>1390</ele>
        <time>2010-07-04T08:55:22Z</time>
      </trkpt>
      <trkpt lat="45.02802" lon="5.86351">
        <ele>1389</ele>
        <time>2010-07-04T08:55:23Z</time>
      </trkpt>
      <trkpt lat="45.02805" lon="5.86348">
        <ele>1389</ele>
        <time>2010-07-04T08:55:24Z</time>
      </trkpt>
      <trkpt lat="45.02808" lon="5.86345">
        <ele>1389</ele>
        <time>2010-07-04T08:55:25Z</time>
      </trkpt>
      <trkpt lat="45.02811" lon="5.86341">
        <ele>1389</ele>
        <time>2010-07-04T08:55:26Z</time>
      </trkpt>
      <trkpt lat="45.02814" lon="5.86338">
        <ele>1389</ele>
        <time>2010-07-04T08:55:27Z</time>
      </trkpt>
      <trkpt lat="45.02817" lon="5.86335">
        <ele>1389</ele>
        <time>2010-07-04T08:55:28Z</time>
      </trkpt>
      <trkpt lat="45.0282" lon="5.86331">
        <ele>1389</ele>
        <time>2010-07-04T08:55:29Z</time>
      </trkpt>
      <trkpt lat="45.02822" lon="5.86327">
        <ele>1389</ele>
        <time>2010-07-04T08:55:30Z</time>
      </trkpt>
      <trkpt lat="45.02825" lon="5.86323">
        <ele>1389</ele>
        <time>2010-07-04T08:55:31Z</time>
      </trkpt>
      <trkpt lat="45.02827" lon="5.86319">
        <ele>1389</ele>
        <time>2010-07-04T08:55:32Z</time>
      </trkpt>
      <trkpt lat="45.0283" lon="5.86316">
        <ele>1389</ele>
        <time>2010-07-04T08:55:33Z</time>
      </trkpt>
      <trkpt lat="45.02833" lon="5.86312">
        <ele>1388</ele>
        <time>2010-07-04T08:55:34Z</time>
      </trkpt>
      <trkpt lat="45.02835" lon="5.86309">
        <ele>1388</ele>
        <time>2010-07-04T08:55:35Z</time>
      </trkpt>
      <trkpt lat="45.02838" lon="5.86307">
        <ele>1388</ele>
        <time>2010-07-04T08:55:36Z</time>
      </trkpt>
      <trkpt lat="45.02841" lon="5.86304">
        <ele>1387</ele>
        <time>2010-07-04T08:55:37Z</time>
      </trkpt>
      <trkpt lat="45.02844" lon="5.86301">
        <ele>1387</ele>
        <time>2010-07-04T08:55:38Z</time>
      </trkpt>
      <trkpt lat="45.02848" lon="5.86299">
        <ele>1386</ele>
        <time>2010-07-04T08:55:39Z</time>
      </trkpt>
      <trkpt lat="45.02851" lon="5.86296">
        <ele>1386</ele>
        <time>2010-07-04T08:55:40Z</time>
      </trkpt>
      <trkpt lat="45.02853" lon="5.86293">
        <ele>1385</ele>
        <time>2010-07-04T08:55:41Z</time>
      </trkpt>
      <trkpt lat="45.02856" lon="5.8629">
        <ele>1385</ele>
        <time>2010-07-04T08:55:42Z</time>
      </trkpt>
      <trkpt lat="45.02859" lon="5.86288">
        <ele>1384</ele>
        <time>2010-07-04T08:55:43Z</time>
      </trkpt>
      <trkpt lat="45.02862" lon="5.86284">
        <ele>1384</ele>
        <time>2010-07-04T08:55:44Z</time>
      </trkpt>
      <trkpt lat="45.02865" lon="5.86281">
        <ele>1384</ele>
        <time>2010-07-04T08:55:45Z</time>
      </trkpt>
      <trkpt lat="45.02867" lon="5.86278">
        <ele>1383</ele>
        <time>2010-07-04T08:55:46Z</time>
      </trkpt>
      <trkpt lat="45.0287" lon="5.86275">
        <ele>1383</ele>
        <time>2010-07-04T08:55:47Z</time>
      </trkpt>
      <trkpt lat="45.02873" lon="5.86271">
        <ele>1383</ele>
        <time>2010-07-04T08:55:48Z</time>
      </trkpt>
      <trkpt lat="45.02876" lon="5.86268">
        <ele>1383</ele>
        <time>2010-07-04T08:55:49Z</time>
      </trkpt>
      <trkpt lat="45.02878" lon="5.86264">
        <ele>1383</ele>
        <time>2010-07-04T08:55:50Z</time>
      </trkpt>
      <trkpt lat="45.0288" lon="5.86261">
        <ele>1382</ele>
        <time>2010-07-04T08:55:51Z</time>
      </trkpt>
      <trkpt lat="45.02882" lon="5.86257">
        <ele>1382</ele>
        <time>2010-07-04T08:55:52Z</time>
      </trkpt>
      <trkpt lat="45.02884" lon="5.86252">
        <ele>1382</ele>
        <time>2010-07-04T08:55:53Z</time>
      </trkpt>
      <trkpt lat="45.02884" lon="5.86248">
        <ele>1382</ele>
        <time>2010-07-04T08:55:54Z</time>
      </trkpt>
      <trkpt lat="45.02885" lon="5.86242">
        <ele>1382</ele>
        <time>2010-07-04T08:55:55Z</time>
      </trkpt>
      <trkpt lat="45.02884" lon="5.86238">
        <ele>1382</ele>
        <time>2010-07-04T08:55:56Z</time>
      </trkpt>
      <trkpt lat="45.02883" lon="5.86235">
        <ele>1382</ele>
        <time>2010-07-04T08:55:57Z</time>
      </trkpt>
      <trkpt lat="45.02882" lon="5.86232">
        <ele>1381</ele>
        <time>2010-07-04T08:55:58Z</time>
      </trkpt>
      <trkpt lat="45.02879" lon="5.8623">
        <ele>1381</ele>
        <time>2010-07-04T08:55:59Z</time>
      </trkpt>
      <trkpt lat="45.02876" lon="5.86228">
        <ele>1381</ele>
        <time>2010-07-04T08:56:00Z</time>
      </trkpt>
      <trkpt lat="45.02873" lon="5.86227">
        <ele>1381</ele>
        <time>2010-07-04T08:56:01Z</time>
      </trkpt>
      <trkpt lat="45.0287" lon="5.86226">
        <ele>1381</ele>
        <time>2010-07-04T08:56:02Z</time>
      </trkpt>
      <trkpt lat="45.02866" lon="5.86224">
        <ele>1380</ele>
        <time>2010-07-04T08:56:03Z</time>
      </trkpt>
      <trkpt lat="45.02863" lon="5.86223">
        <ele>1380</ele>
        <time>2010-07-04T08:56:04Z</time>
      </trkpt>
      <trkpt lat="45.02859" lon="5.86222">
        <ele>1380</ele>
        <time>2010-07-04T08:56:05Z</time>
      </trkpt>
      <trkpt lat="45.02856" lon="5.86221">
        <ele>1380</ele>
        <time>2010-07-04T08:56:06Z</time>
      </trkpt>
      <trkpt lat="45.02853" lon="5.86221">
        <ele>1379</ele>
        <time>2010-07-04T08:56:07Z</time>
      </trkpt>
      <trkpt lat="45.0285" lon="5.86221">
        <ele>1378</ele>
        <time>2010-07-04T08:56:08Z</time>
      </trkpt>
      <trkpt lat="45.02846" lon="5.8622">
        <ele>1378</ele>
        <time>2010-07-04T08:56:09Z</time>
      </trkpt>
      <trkpt lat="45.02843" lon="5.86218">
        <ele>1377</ele>
        <time>2010-07-04T08:56:10Z</time>
      </trkpt>
      <trkpt lat="45.0284" lon="5.86217">
        <ele>1376</ele>
        <time>2010-07-04T08:56:11Z</time>
      </trkpt>
      <trkpt lat="45.02837" lon="5.86215">
        <ele>1376</ele>
        <time>2010-07-04T08:56:12Z</time>
      </trkpt>
      <trkpt lat="45.02833" lon="5.86214">
        <ele>1375</ele>
        <time>2010-07-04T08:56:13Z</time>
      </trkpt>
      <trkpt lat="45.0283" lon="5.86212">
        <ele>1375</ele>
        <time>2010-07-04T08:56:14Z</time>
      </trkpt>
      <trkpt lat="45.02826" lon="5.8621">
        <ele>1374</ele>
        <time>2010-07-04T08:56:15Z</time>
      </trkpt>
      <trkpt lat="45.02823" lon="5.86209">
        <ele>1374</ele>
        <time>2010-07-04T08:56:16Z</time>
      </trkpt>
      <trkpt lat="45.02819" lon="5.86207">
        <ele>1373</ele>
        <time>2010-07-04T08:56:17Z</time>
      </trkpt>
      <trkpt lat="45.02816" lon="5.86206">
        <ele>1373</ele>
        <time>2010-07-04T08:56:18Z</time>
      </trkpt>
      <trkpt lat="45.02812" lon="5.86204">
        <ele>1372</ele>
        <time>2010-07-04T08:56:19Z</time>
      </trkpt>
      <trkpt lat="45.02809" lon="5.86201">
        <ele>1372</ele>
        <time>2010-07-04T08:56:20Z</time>
      </trkpt>
      <trkpt lat="45.02807" lon="5.86198">
        <ele>1372</ele>
        <time>2010-07-04T08:56:21Z</time>
      </trkpt>
      <trkpt lat="45.02804" lon="5.86195">
        <ele>1372</ele>
        <time>2010-07-04T08:56:22Z</time>
      </trkpt>
      <trkpt lat="45.02801" lon="5.86191">
        <ele>1371</ele>
        <time>2010-07-04T08:56:23Z</time>
      </trkpt>
      <trkpt lat="45.02798" lon="5.86188">
        <ele>1371</ele>
        <time>2010-07-04T08:56:24Z</time>
      </trkpt>
      <trkpt lat="45.02796" lon="5.86184">
        <ele>1371</ele>
        <time>2010-07-04T08:56:25Z</time>
      </trkpt>
      <trkpt lat="45.02794" lon="5.8618">
        <ele>1371</ele>
        <time>2010-07-04T08:56:26Z</time>
      </trkpt>
      <trkpt lat="45.02791" lon="5.86176">
        <ele>1370</ele>
        <time>2010-07-04T08:56:27Z</time>
      </trkpt>
      <trkpt lat="45.02789" lon="5.86173">
        <ele>1370</ele>
        <time>2010-07-04T08:56:28Z</time>
      </trkpt>
      <trkpt lat="45.02786" lon="5.86169">
        <ele>1370</ele>
        <time>2010-07-04T08:56:29Z</time>
      </trkpt>
      <trkpt lat="45.02784" lon="5.86165">
        <ele>1370</ele>
        <time>2010-07-04T08:56:30Z</time>
      </trkpt>
      <trkpt lat="45.02781" lon="5.86161">
        <ele>1370</ele>
        <time>2010-07-04T08:56:31Z</time>
      </trkpt>
      <trkpt lat="45.02778" lon="5.86158">
        <ele>1370</ele>
        <time>2010-07-04T08:56:32Z</time>
      </trkpt>
      <trkpt lat="45.02776" lon="5.86154">
        <ele>1370</ele>
        <time>2010-07-04T08:56:33Z</time>
      </trkpt>
      <trkpt lat="45.02774" lon="5.86149">
        <ele>1370</ele>
        <time>2010-07-04T08:56:34Z</time>
      </trkpt>
      <trkpt lat="45.02771" lon="5.86145">
        <ele>1370</ele>
        <time>2010-07-04T08:56:35Z</time>
      </trkpt>
      <trkpt lat="45.02769" lon="5.86141">
        <ele>1370</ele>
        <time>2010-07-04T08:56:36Z</time>
      </trkpt>
      <trkpt lat="45.02767" lon="5.86136">
        <ele>1370</ele>
        <time>2010-07-04T08:56:37Z</time>
      </trkpt>
      <trkpt lat="45.02765" lon="5.86131">
        <ele>1370</ele>
        <time>2010-07-04T08:56:38Z</time>
      </trkpt>
      <trkpt lat="45.02763" lon="5.86126">
        <ele>1370</ele>
        <time>2010-07-04T08:56:39Z</time>
      </trkpt>
      <trkpt lat="45.02761" lon="5.86121">
        <ele>1370</ele>
        <time>2010-07-04T08:56:40Z</time>
      </trkpt>
      <trkpt lat="45.02759" lon="5.86115">
        <ele>1370</ele>
        <time>2010-07-04T08:56:41Z</time>
      </trkpt>
      <trkpt lat="45.02758" lon="5.8611">
        <ele>1370</ele>
        <time>2010-07-04T08:56:42Z</time>
      </trkpt>
      <trkpt lat="45.02756" lon="5.86105">
        <ele>1370</ele>
        <time>2010-07-04T08:56:43Z</time>
      </trkpt>
      <trkpt lat="45.02755" lon="5.861">
        <ele>1370</ele>
        <time>2010-07-04T08:56:44Z</time>
      </trkpt>
      <trkpt lat="45.02753" lon="5.86095">
        <ele>1370</ele>
        <time>2010-07-04T08:56:45Z</time>
      </trkpt>
      <trkpt lat="45.02752" lon="5.86089">
        <ele>1370</ele>
        <time>2010-07-04T08:56:46Z</time>
      </trkpt>
      <trkpt lat="45.0275" lon="5.86084">
        <ele>1370</ele>
        <time>2010-07-04T08:56:47Z</time>
      </trkpt>
      <trkpt lat="45.02748" lon="5.8608">
        <ele>1370</ele>
        <time>2010-07-04T08:56:48Z</time>
      </trkpt>
      <trkpt lat="45.02746" lon="5.86075">
        <ele>1370</ele>
        <time>2010-07-04T08:56:49Z</time>
      </trkpt>
      <trkpt lat="45.02745" lon="5.8607">
        <ele>1370</ele>
        <time>2010-07-04T08:56:50Z</time>
      </trkpt>
      <trkpt lat="45.02743" lon="5.86065">
        <ele>1370</ele>
        <time>2010-07-04T08:56:51Z</time>
      </trkpt>
      <trkpt lat="45.02741" lon="5.86061">
        <ele>1370</ele>
        <time>2010-07-04T08:56:52Z</time>
      </trkpt>
      <trkpt lat="45.0274" lon="5.86056">
        <ele>1370</ele>
        <time>2010-07-04T08:56:53Z</time>
      </trkpt>
      <trkpt lat="45.02738" lon="5.86051">
        <ele>1370</ele>
        <time>2010-07-04T08:56:54Z</time>
      </trkpt>
      <trkpt lat="45.02737" lon="5.86046">
        <ele>1370</ele>
        <time>2010-07-04T08:56:55Z</time>
      </trkpt>
      <trkpt lat="45.02735" lon="5.86041">
        <ele>1370</ele>
        <time>2010-07-04T08:56:56Z</time>
      </trkpt>
      <trkpt lat="45.02734" lon="5.86036">
        <ele>1370</ele>
        <time>2010-07-04T08:56:57Z</time>
      </trkpt>
      <trkpt lat="45.02733" lon="5.8603">
        <ele>1370</ele>
        <time>2010-07-04T08:56:58Z</time>
      </trkpt>
      <trkpt lat="45.02732" lon="5.86024">
        <ele>1370</ele>
        <time>2010-07-04T08:56:59Z</time>
      </trkpt>
      <trkpt lat="45.02732" lon="5.86019">
        <ele>1370</ele>
        <time>2010-07-04T08:57:00Z</time>
      </trkpt>
      <trkpt lat="45.02731" lon="5.86014">
        <ele>1370</ele>
        <time>2010-07-04T08:57:01Z</time>
      </trkpt>
      <trkpt lat="45.02731" lon="5.86009">
        <ele>1370</ele>
        <time>2010-07-04T08:57:02Z</time>
      </trkpt>
      <trkpt lat="45.0273" lon="5.86004">
        <ele>1370</ele>
        <time>2010-07-04T08:57:03Z</time>
      </trkpt>
      <trkpt lat="45.0273" lon="5.85999">
        <ele>1370</ele>
        <time>2010-07-04T08:57:04Z</time>
      </trkpt>
      <trkpt lat="45.0273" lon="5.85993">
        <ele>1370</ele>
        <time>2010-07-04T08:57:05Z</time>
      </trkpt>
      <trkpt lat="45.0273" lon="5.85989">
        <ele>1370</ele>
        <time>2010-07-04T08:57:06Z</time>
      </trkpt>
      <trkpt lat="45.0273" lon="5.85984">
        <ele>1370</ele>
        <time>2010-07-04T08:57:07Z</time>
      </trkpt>
      <trkpt lat="45.0273" lon="5.85978">
        <ele>1370</ele>
        <time>2010-07-04T08:57:08Z</time>
      </trkpt>
      <trkpt lat="45.0273" lon="5.85974">
        <ele>1370</ele>
        <time>2010-07-04T08:57:09Z</time>
      </trkpt>
      <trkpt lat="45.02729" lon="5.85969">
        <ele>1370</ele>
        <time>2010-07-04T08:57:10Z</time>
      </trkpt>
      <trkpt lat="45.0273" lon="5.85964">
        <ele>1370</ele>
        <time>2010-07-04T08:57:11Z</time>
      </trkpt>
      <trkpt lat="45.0273" lon="5.85959">
        <ele>1370</ele>
        <time>2010-07-04T08:57:12Z</time>
      </trkpt>
      <trkpt lat="45.0273" lon="5.85953">
        <ele>1370</ele>
        <time>2010-07-04T08:57:13Z</time>
      </trkpt>
      <trkpt lat="45.0273" lon="5.85948">
        <ele>1370</ele>
        <time>2010-07-04T08:57:14Z</time>
      </trkpt>
      <trkpt lat="45.0273" lon="5.85943">
        <ele>1370</ele>
        <time>2010-07-04T08:57:15Z</time>
      </trkpt>
      <trkpt lat="45.0273" lon="5.85938">
        <ele>1370</ele>
        <time>2010-07-04T08:57:16Z</time>
      </trkpt>
      <trkpt lat="45.0273" lon="5.85934">
        <ele>1370</ele>
        <time>2010-07-04T08:57:17Z</time>
      </trkpt>
      <trkpt lat="45.0273" lon="5.85929">
        <ele>1370</ele>
        <time>2010-07-04T08:57:18Z</time>
      </trkpt>
      <trkpt lat="45.0273" lon="5.85923">
        <ele>1370</ele>
        <time>2010-07-04T08:57:19Z</time>
      </trkpt>
      <trkpt lat="45.0273" lon="5.85918">
        <ele>1370</ele>
        <time>2010-07-04T08:57:20Z</time>
      </trkpt>
      <trkpt lat="45.0273" lon="5.85913">
        <ele>1370</ele>
        <time>2010-07-04T08:57:21Z</time>
      </trkpt>
      <trkpt lat="45.0273" lon="5.85907">
        <ele>1370</ele>
        <time>2010-07-04T08:57:22Z</time>
      </trkpt>
      <trkpt lat="45.0273" lon="5.85902">
        <ele>1370</ele>
        <time>2010-07-04T08:57:23Z</time>
      </trkpt>
      <trkpt lat="45.0273" lon="5.85897">
        <ele>1370</ele>
        <time>2010-07-04T08:57:24Z</time>
      </trkpt>
      <trkpt lat="45.0273" lon="5.85892">
        <ele>1370</ele>
        <time>2010-07-04T08:57:25Z</time>
      </trkpt>
      <trkpt lat="45.0273" lon="5.85886">
        <ele>1370</ele>
        <time>2010-07-04T08:57:26Z</time>
      </trkpt>
      <trkpt lat="45.02731" lon="5.85881">
        <ele>1370</ele>
        <time>2010-07-04T08:57:27Z</time>
      </trkpt>
      <trkpt lat="45.02731" lon="5.85877">
        <ele>1370</ele>
        <time>2010-07-04T08:57:28Z</time>
      </trkpt>
      <trkpt lat="45.02731" lon="5.85872">
        <ele>1370</ele>
        <time>2010-07-04T08:57:29Z</time>
      </trkpt>
      <trkpt lat="45.02731" lon="5.85867">
        <ele>1370</ele>
        <time>2010-07-04T08:57:30Z</time>
      </trkpt>
      <trkpt lat="45.02731" lon="5.85861">
        <ele>1370</ele>
        <time>2010-07-04T08:57:31Z</time>
      </trkpt>
      <trkpt lat="45.02732" lon="5.85856">
        <ele>1370</ele>
        <time>2010-07-04T08:57:32Z</time>
      </trkpt>
      <trkpt lat="45.02732" lon="5.85851">
        <ele>1370</ele>
        <time>2010-07-04T08:57:33Z</time>
      </trkpt>
      <trkpt lat="45.02732" lon="5.85847">
        <ele>1370</ele>
        <time>2010-07-04T08:57:34Z</time>
      </trkpt>
      <trkpt lat="45.02732" lon="5.85842">
        <ele>1370</ele>
        <time>2010-07-04T08:57:35Z</time>
      </trkpt>
      <trkpt lat="45.02733" lon="5.85837">
        <ele>1370</ele>
        <time>2010-07-04T08:57:36Z</time>
      </trkpt>
      <trkpt lat="45.02733" lon="5.85832">
        <ele>1370</ele>
        <time>2010-07-04T08:57:37Z</time>
      </trkpt>
      <trkpt lat="45.02733" lon="5.85826">
        <ele>1370</ele>
        <time>2010-07-04T08:57:38Z</time>
      </trkpt>
      <trkpt lat="45.02733" lon="5.85821">
        <ele>1370</ele>
        <time>2010-07-04T08:57:39Z</time>
      </trkpt>
      <trkpt lat="45.02732" lon="5.85816">
        <ele>1370</ele>
        <time>2010-07-04T08:57:40Z</time>
      </trkpt>
      <trkpt lat="45.02731" lon="5.85813">
        <ele>1370</ele>
        <time>2010-07-04T08:57:41Z</time>
      </trkpt>
      <trkpt lat="45.02729" lon="5.85811">
        <ele>1370</ele>
        <time>2010-07-04T08:57:42Z</time>
      </trkpt>
      <trkpt lat="45.02727" lon="5.8581">
        <ele>1370</ele>
        <time>2010-07-04T08:57:43Z</time>
      </trkpt>
      <trkpt lat="45.02724" lon="5.8581">
        <ele>1370</ele>
        <time>2010-07-04T08:57:44Z</time>
      </trkpt>
      <trkpt lat="45.0272" lon="5.8581">
        <ele>1370</ele>
        <time>2010-07-04T08:57:45Z</time>
      </trkpt>
      <trkpt lat="45.02717" lon="5.8581">
        <ele>1370</ele>
        <time>2010-07-04T08:57:46Z</time>
      </trkpt>
      <trkpt lat="45.02714" lon="5.85811">
        <ele>1370</ele>
        <time>2010-07-04T08:57:47Z</time>
      </trkpt>
      <trkpt lat="45.02711" lon="5.85811">
        <ele>1370</ele>
        <time>2010-07-04T08:57:48Z</time>
      </trkpt>
      <trkpt lat="45.02707" lon="5.85811">
        <ele>1370</ele>
        <time>2010-07-04T08:57:49Z</time>
      </trkpt>
      <trkpt lat="45.02704" lon="5.85813">
        <ele>1369</ele>
        <time>2010-07-04T08:57:50Z</time>
      </trkpt>
      <trkpt lat="45.02701" lon="5.85814">
        <ele>1369</ele>
        <time>2010-07-04T08:57:51Z</time>
      </trkpt>
      <trkpt lat="45.02698" lon="5.85816">
        <ele>1369</ele>
        <time>2010-07-04T08:57:52Z</time>
      </trkpt>
      <trkpt lat="45.02696" lon="5.85817">
        <ele>1369</ele>
        <time>2010-07-04T08:57:53Z</time>
      </trkpt>
      <trkpt lat="45.02692" lon="5.85818">
        <ele>1368</ele>
        <time>2010-07-04T08:57:54Z</time>
      </trkpt>
      <trkpt lat="45.02689" lon="5.8582">
        <ele>1368</ele>
        <time>2010-07-04T08:57:55Z</time>
      </trkpt>
      <trkpt lat="45.02686" lon="5.85821">
        <ele>1368</ele>
        <time>2010-07-04T08:57:56Z</time>
      </trkpt>
      <trkpt lat="45.02683" lon="5.85823">
        <ele>1368</ele>
        <time>2010-07-04T08:57:57Z</time>
      </trkpt>
      <trkpt lat="45.0268" lon="5.85825">
        <ele>1367</ele>
        <time>2010-07-04T08:57:58Z</time>
      </trkpt>
      <trkpt lat="45.02678" lon="5.85827">
        <ele>1367</ele>
        <time>2010-07-04T08:57:59Z</time>
      </trkpt>
      <trkpt lat="45.02675" lon="5.85829">
        <ele>1366</ele>
        <time>2010-07-04T08:58:00Z</time>
      </trkpt>
      <trkpt lat="45.02672" lon="5.85831">
        <ele>1366</ele>
        <time>2010-07-04T08:58:01Z</time>
      </trkpt>
      <trkpt lat="45.0267" lon="5.85833">
        <ele>1365</ele>
        <time>2010-07-04T08:58:02Z</time>
      </trkpt>
      <trkpt lat="45.02667" lon="5.85835">
        <ele>1365</ele>
        <time>2010-07-04T08:58:03Z</time>
      </trkpt>
      <trkpt lat="45.02665" lon="5.85837">
        <ele>1364</ele>
        <time>2010-07-04T08:58:04Z</time>
      </trkpt>
      <trkpt lat="45.02662" lon="5.8584">
        <ele>1364</ele>
        <time>2010-07-04T08:58:05Z</time>
      </trkpt>
      <trkpt lat="45.0266" lon="5.85843">
        <ele>1363</ele>
        <time>2010-07-04T08:58:06Z</time>
      </trkpt>
      <trkpt lat="45.02658" lon="5.85845">
        <ele>1363</ele>
        <time>2010-07-04T08:58:07Z</time>
      </trkpt>
      <trkpt lat="45.02655" lon="5.85847">
        <ele>1363</ele>
        <time>2010-07-04T08:58:08Z</time>
      </trkpt>
      <trkpt lat="45.02653" lon="5.8585">
        <ele>1363</ele>
        <time>2010-07-04T08:58:09Z</time>
      </trkpt>
      <trkpt lat="45.02651" lon="5.85852">
        <ele>1363</ele>
        <time>2010-07-04T08:58:10Z</time>
      </trkpt>
      <trkpt lat="45.02648" lon="5.85855">
        <ele>1363</ele>
        <time>2010-07-04T08:58:11Z</time>
      </trkpt>
      <trkpt lat="45.02646" lon="5.85858">
        <ele>1363</ele>
        <time>2010-07-04T08:58:12Z</time>
      </trkpt>
      <trkpt lat="45.02643" lon="5.85861">
        <ele>1363</ele>
        <time>2010-07-04T08:58:13Z</time>
      </trkpt>
      <trkpt lat="45.02641" lon="5.85863">
        <ele>1363</ele>
        <time>2010-07-04T08:58:14Z</time>
      </trkpt>
      <trkpt lat="45.02638" lon="5.85866">
        <ele>1363</ele>
        <time>2010-07-04T08:58:15Z</time>
      </trkpt>
      <trkpt lat="45.02636" lon="5.85869">
        <ele>1363</ele>
        <time>2010-07-04T08:58:16Z</time>
      </trkpt>
      <trkpt lat="45.02633" lon="5.85873">
        <ele>1363</ele>
        <time>2010-07-04T08:58:17Z</time>
      </trkpt>
      <trkpt lat="45.02631" lon="5.85876">
        <ele>1363</ele>
        <time>2010-07-04T08:58:18Z</time>
      </trkpt>
      <trkpt lat="45.02628" lon="5.85878">
        <ele>1363</ele>
        <time>2010-07-04T08:58:19Z</time>
      </trkpt>
      <trkpt lat="45.02626" lon="5.85881">
        <ele>1363</ele>
        <time>2010-07-04T08:58:20Z</time>
      </trkpt>
      <trkpt lat="45.02623" lon="5.85884">
        <ele>1363</ele>
        <time>2010-07-04T08:58:21Z</time>
      </trkpt>
      <trkpt lat="45.02621" lon="5.85886">
        <ele>1363</ele>
        <time>2010-07-04T08:58:22Z</time>
      </trkpt>
      <trkpt lat="45.02619" lon="5.85889">
        <ele>1363</ele>
        <time>2010-07-04T08:58:23Z</time>
      </trkpt>
      <trkpt lat="45.02616" lon="5.85892">
        <ele>1363</ele>
        <time>2010-07-04T08:58:24Z</time>
      </trkpt>
      <trkpt lat="45.02614" lon="5.85895">
        <ele>1363</ele>
        <time>2010-07-04T08:58:25Z</time>
      </trkpt>
      <trkpt lat="45.02612" lon="5.85898">
        <ele>1363</ele>
        <time>2010-07-04T08:58:26Z</time>
      </trkpt>
      <trkpt lat="45.02609" lon="5.85902">
        <ele>1363</ele>
        <time>2010-07-04T08:58:27Z</time>
      </trkpt>
      <trkpt lat="45.02607" lon="5.85905">
        <ele>1363</ele>
        <time>2010-07-04T08:58:28Z</time>
      </trkpt>
      <trkpt lat="45.02605" lon="5.85907">
        <ele>1363</ele>
        <time>2010-07-04T08:58:29Z</time>
      </trkpt>
      <trkpt lat="45.02602" lon="5.8591">
        <ele>1363</ele>
        <time>2010-07-04T08:58:30Z</time>
      </trkpt>
      <trkpt lat="45.026" lon="5.85913">
        <ele>1363</ele>
        <time>2010-07-04T08:58:31Z</time>
      </trkpt>
      <trkpt lat="45.02597" lon="5.85916">
        <ele>1362</ele>
        <time>2010-07-04T08:58:32Z</time>
      </trkpt>
      <trkpt lat="45.02595" lon="5.85919">
        <ele>1362</ele>
        <time>2010-07-04T08:58:33Z</time>
      </trkpt>
      <trkpt lat="45.02592" lon="5.85922">
        <ele>1362</ele>
        <time>2010-07-04T08:58:34Z</time>
      </trkpt>
      <trkpt lat="45.02589" lon="5.85925">
        <ele>1361</ele>
        <time>2010-07-04T08:58:35Z</time>
      </trkpt>
      <trkpt lat="45.02587" lon="5.85927">
        <ele>1361</ele>
        <time>2010-07-04T08:58:36Z</time>
      </trkpt>
      <trkpt lat="45.02585" lon="5.85929">
        <ele>1360</ele>
        <time>2010-07-04T08:58:37Z</time>
      </trkpt>
      <trkpt lat="45.02582" lon="5.85931">
        <ele>1360</ele>
        <time>2010-07-04T08:58:38Z</time>
      </trkpt>
      <trkpt lat="45.02579" lon="5.85934">
        <ele>1359</ele>
        <time>2010-07-04T08:58:39Z</time>
      </trkpt>
      <trkpt lat="45.02577" lon="5.85936">
        <ele>1359</ele>
        <time>2010-07-04T08:58:40Z</time>
      </trkpt>
      <trkpt lat="45.02575" lon="5.85938">
        <ele>1358</ele>
        <time>2010-07-04T08:58:41Z</time>
      </trkpt>
      <trkpt lat="45.02572" lon="5.85941">
        <ele>1358</ele>
        <time>2010-07-04T08:58:42Z</time>
      </trkpt>
      <trkpt lat="45.0257" lon="5.85943">
        <ele>1358</ele>
        <time>2010-07-04T08:58:43Z</time>
      </trkpt>
      <trkpt lat="45.02567" lon="5.85945">
        <ele>1357</ele>
        <time>2010-07-04T08:58:44Z</time>
      </trkpt>
      <trkpt lat="45.02565" lon="5.85947">
        <ele>1357</ele>
        <time>2010-07-04T08:58:45Z</time>
      </trkpt>
      <trkpt lat="45.02562" lon="5.8595">
        <ele>1356</ele>
        <time>2010-07-04T08:58:46Z</time>
      </trkpt>
      <trkpt lat="45.0256" lon="5.85953">
        <ele>1356</ele>
        <time>2010-07-04T08:58:47Z</time>
      </trkpt>
      <trkpt lat="45.02558" lon="5.85955">
        <ele>1355</ele>
        <time>2010-07-04T08:58:48Z</time>
      </trkpt>
      <trkpt lat="45.02556" lon="5.85957">
        <ele>1355</ele>
        <time>2010-07-04T08:58:49Z</time>
      </trkpt>
      <trkpt lat="45.02553" lon="5.8596">
        <ele>1354</ele>
        <time>2010-07-04T08:58:50Z</time>
      </trkpt>
      <trkpt lat="45.02551" lon="5.85962">
        <ele>1354</ele>
        <time>2010-07-04T08:58:51Z</time>
      </trkpt>
      <trkpt lat="45.02549" lon="5.85965">
        <ele>1354</ele>
        <time>2010-07-04T08:58:52Z</time>
      </trkpt>
      <trkpt lat="45.02547" lon="5.85968">
        <ele>1354</ele>
        <time>2010-07-04T08:58:53Z</time>
      </trkpt>
      <trkpt lat="45.02545" lon="5.85971">
        <ele>1354</ele>
        <time>2010-07-04T08:58:54Z</time>
      </trkpt>
      <trkpt lat="45.02542" lon="5.85974">
        <ele>1354</ele>
        <time>2010-07-04T08:58:55Z</time>
      </trkpt>
      <trkpt lat="45.0254" lon="5.85978">
        <ele>1354</ele>
        <time>2010-07-04T08:58:56Z</time>
      </trkpt>
      <trkpt lat="45.02539" lon="5.85981">
        <ele>1354</ele>
        <time>2010-07-04T08:58:57Z</time>
      </trkpt>
      <trkpt lat="45.02537" lon="5.85984">
        <ele>1354</ele>
        <time>2010-07-04T08:58:58Z</time>
      </trkpt>
      <trkpt lat="45.02535" lon="5.85988">
        <ele>1354</ele>
        <time>2010-07-04T08:58:59Z</time>
      </trkpt>
      <trkpt lat="45.02534" lon="5.85992">
        <ele>1354</ele>
        <time>2010-07-04T08:59:00Z</time>
      </trkpt>
      <trkpt lat="45.02532" lon="5.85996">
        <ele>1354</ele>
        <time>2010-07-04T08:59:01Z</time>
      </trkpt>
      <trkpt lat="45.0253" lon="5.86">
        <ele>1354</ele>
        <time>2010-07-04T08:59:02Z</time>
      </trkpt>
      <trkpt lat="45.02528" lon="5.86004">
        <ele>1354</ele>
        <time>2010-07-04T08:59:03Z</time>
      </trkpt>
      <trkpt lat="45.02526" lon="5.86008">
        <ele>1354</ele>
        <time>2010-07-04T08:59:04Z</time>
      </trkpt>
      <trkpt lat="45.02524" lon="5.86012">
        <ele>1354</ele>
        <time>2010-07-04T08:59:05Z</time>
      </trkpt>
      <trkpt lat="45.02523" lon="5.86016">
        <ele>1354</ele>
        <time>2010-07-04T08:59:06Z</time>
      </trkpt>
      <trkpt lat="45.02521" lon="5.8602">
        <ele>1354</ele>
        <time>2010-07-04T08:59:07Z</time>
      </trkpt>
      <trkpt lat="45.0252" lon="5.86024">
        <ele>1354</ele>
        <time>2010-07-04T08:59:08Z</time>
      </trkpt>
      <trkpt lat="45.02519" lon="5.86028">
        <ele>1354</ele>
        <time>2010-07-04T08:59:09Z</time>
      </trkpt>
      <trkpt lat="45.02517" lon="5.86033">
        <ele>1354</ele>
        <time>2010-07-04T08:59:10Z</time>
      </trkpt>
      <trkpt lat="45.02516" lon="5.86037">
        <ele>1354</ele>
        <time>2010-07-04T08:59:11Z</time>
      </trkpt>
      <trkpt lat="45.02514" lon="5.86041">
        <ele>1354</ele>
        <time>2010-07-04T08:59:12Z</time>
      </trkpt>
      <trkpt lat="45.02512" lon="5.86046">
        <ele>1354</ele>
        <time>2010-07-04T08:59:13Z</time>
      </trkpt>
      <trkpt lat="45.0251" lon="5.8605">
        <ele>1354</ele>
        <time>2010-07-04T08:59:14Z</time>
      </trkpt>
      <trkpt lat="45.02508" lon="5.86055">
        <ele>1354</ele>
        <time>2010-07-04T08:59:15Z</time>
      </trkpt>
      <trkpt lat="45.02507" lon="5.86059">
        <ele>1354</ele>
        <time>2010-07-04T08:59:16Z</time>
      </trkpt>
      <trkpt lat="45.02505" lon="5.86064">
        <ele>1354</ele>
        <time>2010-07-04T08:59:17Z</time>
      </trkpt>
      <trkpt lat="45.02503" lon="5.86067">
        <ele>1354</ele>
        <time>2010-07-04T08:59:18Z</time>
      </trkpt>
      <trkpt lat="45.02501" lon="5.86072">
        <ele>1354</ele>
        <time>2010-07-04T08:59:19Z</time>
      </trkpt>
      <trkpt lat="45.025" lon="5.86076">
        <ele>1354</ele>
        <time>2010-07-04T08:59:20Z</time>
      </trkpt>
      <trkpt lat="45.02498" lon="5.8608">
        <ele>1355</ele>
        <time>2010-07-04T08:59:21Z</time>
      </trkpt>
      <trkpt lat="45.02496" lon="5.86084">
        <ele>1355</ele>
        <time>2010-07-04T08:59:22Z</time>
      </trkpt>
      <trkpt lat="45.02494" lon="5.86088">
        <ele>1356</ele>
        <time>2010-07-04T08:59:23Z</time>
      </trkpt>
      <trkpt lat="45.02491" lon="5.86092">
        <ele>1356</ele>
        <time>2010-07-04T08:59:24Z</time>
      </trkpt>
      <trkpt lat="45.02489" lon="5.86095">
        <ele>1357</ele>
        <time>2010-07-04T08:59:25Z</time>
      </trkpt>
      <trkpt lat="45.02486" lon="5.86098">
        <ele>1357</ele>
        <time>2010-07-04T08:59:26Z</time>
      </trkpt>
      <trkpt lat="45.02484" lon="5.86101">
        <ele>1357</ele>
        <time>2010-07-04T08:59:27Z</time>
      </trkpt>
      <trkpt lat="45.02481" lon="5.86105">
        <ele>1358</ele>
        <time>2010-07-04T08:59:28Z</time>
      </trkpt>
      <trkpt lat="45.02479" lon="5.86108">
        <ele>1358</ele>
        <time>2010-07-04T08:59:29Z</time>
      </trkpt>
      <trkpt lat="45.02477" lon="5.86111">
        <ele>1358</ele>
        <time>2010-07-04T08:59:30Z</time>
      </trkpt>
      <trkpt lat="45.02474" lon="5.86114">
        <ele>1358</ele>
        <time>2010-07-04T08:59:31Z</time>
      </trkpt>
      <trkpt lat="45.02472" lon="5.86117">
        <ele>1358</ele>
        <time>2010-07-04T08:59:32Z</time>
      </trkpt>
      <trkpt lat="45.02469" lon="5.86121">
        <ele>1358</ele>
        <time>2010-07-04T08:59:33Z</time>
      </trkpt>
      <trkpt lat="45.02469" lon="5.86121">
        <ele>1358</ele>
        <time>2010-07-04T08:59:34Z</time>
      </trkpt>
    </trkseg>
  </trk>
</gpx>